<?xml version='1.0' encoding='UTF-8'?><gpx version="1.1" creator="JPX - https://github.com/jenetics/jpx" xmlns="http://www.topografix.com/GPX/1/1"><trk><trkseg><trkpt lat="40.9234143" lon="9.5244"><ele>5.0</ele><time>2026-04-21T05:53:53.342Z</time></trkpt><trkpt lat="40.9241339" lon="9.5215933"><ele>0.0</ele><time>2026-04-21T05:54:51.923Z</time></trkpt><trkpt lat="40.9244786" lon="9.5206489"><ele>0.0</ele><time>2026-04-21T05:55:00.291Z</time></trkpt><trkpt lat="40.9244883" lon="9.5204339"><ele>0.0</ele><time>2026-04-21T05:55:07.485Z</time></trkpt><trkpt lat="40.9240986" lon="9.5178134"><ele>3.0</ele><time>2026-04-21T05:55:14.853Z</time></trkpt><trkpt lat="40.9257311" lon="9.5057898"><ele>0.0</ele><time>2026-04-21T05:55:44.14Z</time></trkpt><trkpt lat="40.9242567" lon="9.5134107"><ele>0.0</ele><time>2026-04-21T05:55:51.174Z</time></trkpt><trkpt lat="40.9242735" lon="9.5132066"><ele>0.0</ele><time>2026-04-21T05:55:52.179Z</time></trkpt><trkpt lat="40.9243658" lon="9.5129714"><ele>0.0</ele><time>2026-04-21T05:55:53.166Z</time></trkpt><trkpt lat="40.9244255" lon="9.5127401"><ele>0.0</ele><time>2026-04-21T05:55:54.166Z</time></trkpt><trkpt lat="40.9244508" lon="9.5125192"><ele>0.0</ele><time>2026-04-21T05:55:55.176Z</time></trkpt><trkpt lat="40.9244765" lon="9.5122994"><ele>0.0</ele><time>2026-04-21T05:55:56.179Z</time></trkpt><trkpt lat="40.9244955" lon="9.512073"><ele>0.0</ele><time>2026-04-21T05:55:57.179Z</time></trkpt><trkpt lat="40.9245272" lon="9.511866"><ele>0.0</ele><time>2026-04-21T05:55:58.181Z</time></trkpt><trkpt lat="40.9245536" lon="9.5116654"><ele>0.0</ele><time>2026-04-21T05:55:59.178Z</time></trkpt><trkpt lat="40.9246004" lon="9.5114398"><ele>0.0</ele><time>2026-04-21T05:56:00.177Z</time></trkpt><trkpt lat="40.924628" lon="9.5112246"><ele>0.0</ele><time>2026-04-21T05:56:01.183Z</time></trkpt><trkpt lat="40.9246506" lon="9.5110123"><ele>0.0</ele><time>2026-04-21T05:56:02.177Z</time></trkpt><trkpt lat="40.9246843" lon="9.5108184"><ele>0.0</ele><time>2026-04-21T05:56:03.188Z</time></trkpt><trkpt lat="40.9247258" lon="9.5106314"><ele>0.0</ele><time>2026-04-21T05:56:04.188Z</time></trkpt><trkpt lat="40.9247613" lon="9.5104632"><ele>0.0</ele><time>2026-04-21T05:56:05.182Z</time></trkpt><trkpt lat="40.9247995" lon="9.510265"><ele>0.0</ele><time>2026-04-21T05:56:06.185Z</time></trkpt><trkpt lat="40.9248425" lon="9.5100852"><ele>0.0</ele><time>2026-04-21T05:56:07.185Z</time></trkpt><trkpt lat="40.9248902" lon="9.5099111"><ele>0.0</ele><time>2026-04-21T05:56:08.188Z</time></trkpt><trkpt lat="40.9249493" lon="9.5097373"><ele>0.0</ele><time>2026-04-21T05:56:09.189Z</time></trkpt><trkpt lat="40.925012" lon="9.5095701"><ele>0.0</ele><time>2026-04-21T05:56:10.185Z</time></trkpt><trkpt lat="40.9250787" lon="9.5094241"><ele>0.2</ele><time>2026-04-21T05:56:11.187Z</time></trkpt><trkpt lat="40.9251624" lon="9.5093007"><ele>0.4</ele><time>2026-04-21T05:56:12.182Z</time></trkpt><trkpt lat="40.9252339" lon="9.5091981"><ele>0.6000000000000001</ele><time>2026-04-21T05:56:13.085Z</time></trkpt><trkpt lat="40.9253135" lon="9.509107"><ele>0.8</ele><time>2026-04-21T05:56:13.982Z</time></trkpt><trkpt lat="40.9253956" lon="9.5090081"><ele>1.0</ele><time>2026-04-21T05:56:14.906Z</time></trkpt><trkpt lat="40.9254776" lon="9.5089107"><ele>0.9999999999999999</ele><time>2026-04-21T05:56:15.913Z</time></trkpt><trkpt lat="40.9255637" lon="9.5088172"><ele>1.0</ele><time>2026-04-21T05:56:16.907Z</time></trkpt><trkpt lat="40.9256468" lon="9.5087226"><ele>1.0</ele><time>2026-04-21T05:56:17.904Z</time></trkpt><trkpt lat="40.9257076" lon="9.5086587"><ele>1.0</ele><time>2026-04-21T05:56:18.912Z</time></trkpt><trkpt lat="40.9257638" lon="9.5086142"><ele>0.9999999999999999</ele><time>2026-04-21T05:56:19.904Z</time></trkpt><trkpt lat="40.9258207" lon="9.5085634"><ele>1.0</ele><time>2026-04-21T05:56:20.92Z</time></trkpt><trkpt lat="40.9258912" lon="9.50852"><ele>1.0</ele><time>2026-04-21T05:56:21.919Z</time></trkpt><trkpt lat="40.9259556" lon="9.5084743"><ele>0.9999999999999999</ele><time>2026-04-21T05:56:22.917Z</time></trkpt><trkpt lat="40.9260169" lon="9.508424"><ele>1.0</ele><time>2026-04-21T05:56:23.914Z</time></trkpt><trkpt lat="40.9260685" lon="9.5083653"><ele>1.0</ele><time>2026-04-21T05:56:24.912Z</time></trkpt><trkpt lat="40.9261207" lon="9.5082983"><ele>0.9999999999999999</ele><time>2026-04-21T05:56:25.915Z</time></trkpt><trkpt lat="40.9261798" lon="9.5082259"><ele>1.0</ele><time>2026-04-21T05:56:26.917Z</time></trkpt><trkpt lat="40.9262299" lon="9.5081435"><ele>1.0</ele><time>2026-04-21T05:56:27.918Z</time></trkpt><trkpt lat="40.9262821" lon="9.5080633"><ele>1.0</ele><time>2026-04-21T05:56:28.929Z</time></trkpt><trkpt lat="40.9263207" lon="9.507985"><ele>0.9999999999999999</ele><time>2026-04-21T05:56:29.923Z</time></trkpt><trkpt lat="40.9263522" lon="9.5079121"><ele>1.0</ele><time>2026-04-21T05:56:30.918Z</time></trkpt><trkpt lat="40.9263839" lon="9.5078391"><ele>1.0</ele><time>2026-04-21T05:56:31.928Z</time></trkpt><trkpt lat="40.926418" lon="9.5077148"><ele>0.9999999999999999</ele><time>2026-04-21T05:56:33.917Z</time></trkpt><trkpt lat="40.9264252" lon="9.5076296"><ele>1.0</ele><time>2026-04-21T05:56:34.917Z</time></trkpt><trkpt lat="40.92642" lon="9.5075386"><ele>1.0</ele><time>2026-04-21T05:56:35.912Z</time></trkpt><trkpt lat="40.9263875" lon="9.5073852"><ele>1.3333333333333333</ele><time>2026-04-21T05:56:37.905Z</time></trkpt><trkpt lat="40.9263564" lon="9.507247"><ele>1.6666666666666665</ele><time>2026-04-21T05:56:39.898Z</time></trkpt><trkpt lat="40.9263251" lon="9.5071087"><ele>2.0</ele><time>2026-04-21T05:56:41.857Z</time></trkpt><trkpt lat="40.9251428" lon="9.5067371"><ele>2.0</ele><time>2026-04-21T05:56:50.916Z</time></trkpt><trkpt lat="40.9250341" lon="9.5067002"><ele>2.0</ele><time>2026-04-21T05:56:51.927Z</time></trkpt><trkpt lat="40.9249229" lon="9.5066667"><ele>2.0</ele><time>2026-04-21T05:56:52.904Z</time></trkpt><trkpt lat="40.924809" lon="9.5066222"><ele>2.0</ele><time>2026-04-21T05:56:53.899Z</time></trkpt><trkpt lat="40.924696" lon="9.506579"><ele>2.0</ele><time>2026-04-21T05:56:54.893Z</time></trkpt><trkpt lat="40.9245831" lon="9.5065358"><ele>2.0</ele><time>2026-04-21T05:56:55.875Z</time></trkpt><trkpt lat="40.9219168" lon="9.503102"><ele>2.0</ele><time>2026-04-21T05:57:17.95Z</time></trkpt><trkpt lat="40.921548" lon="9.5031134"><ele>2.0</ele><time>2026-04-21T05:57:22.901Z</time></trkpt><trkpt lat="40.9216148" lon="9.5029634"><ele>3.2</ele><time>2026-04-21T05:57:23.898Z</time></trkpt><trkpt lat="40.9215664" lon="9.5028405"><ele>4.4</ele><time>2026-04-21T05:57:24.914Z</time></trkpt><trkpt lat="40.9215058" lon="9.5027321"><ele>5.6000000000000005</ele><time>2026-04-21T05:57:25.917Z</time></trkpt><trkpt lat="40.9214448" lon="9.5026238"><ele>6.800000000000001</ele><time>2026-04-21T05:57:26.915Z</time></trkpt><trkpt lat="40.9213903" lon="9.5025259"><ele>8.0</ele><time>2026-04-21T05:57:27.917Z</time></trkpt><trkpt lat="40.9213377" lon="9.5024594"><ele>8.0</ele><time>2026-04-21T05:57:28.917Z</time></trkpt><trkpt lat="40.9212861" lon="9.5024028"><ele>8.0</ele><time>2026-04-21T05:57:29.922Z</time></trkpt><trkpt lat="40.9211492" lon="9.5022771"><ele>8.0</ele><time>2026-04-21T05:57:31.928Z</time></trkpt><trkpt lat="40.921059" lon="9.5022057"><ele>8.0</ele><time>2026-04-21T05:57:32.918Z</time></trkpt><trkpt lat="40.9209852" lon="9.5021448"><ele>8.0</ele><time>2026-04-21T05:57:33.923Z</time></trkpt><trkpt lat="40.920923" lon="9.5020858"><ele>7.333333333333333</ele><time>2026-04-21T05:57:34.919Z</time></trkpt><trkpt lat="40.9208583" lon="9.5020185"><ele>6.666666666666666</ele><time>2026-04-21T05:57:35.924Z</time></trkpt><trkpt lat="40.9207883" lon="9.5019518"><ele>6.0</ele><time>2026-04-21T05:57:36.92Z</time></trkpt><trkpt lat="40.9207145" lon="9.5018947"><ele>5.333333333333333</ele><time>2026-04-21T05:57:37.922Z</time></trkpt><trkpt lat="40.9206333" lon="9.5018368"><ele>4.666666666666666</ele><time>2026-04-21T05:57:38.925Z</time></trkpt><trkpt lat="40.9205501" lon="9.501783"><ele>4.0</ele><time>2026-04-21T05:57:39.926Z</time></trkpt><trkpt lat="40.9204798" lon="9.5017381"><ele>4.0</ele><time>2026-04-21T05:57:40.926Z</time></trkpt><trkpt lat="40.9203948" lon="9.5016907"><ele>4.0</ele><time>2026-04-21T05:57:41.94Z</time></trkpt><trkpt lat="40.9203177" lon="9.5016482"><ele>4.0</ele><time>2026-04-21T05:57:42.925Z</time></trkpt><trkpt lat="40.9202219" lon="9.5016061"><ele>4.0</ele><time>2026-04-21T05:57:43.925Z</time></trkpt><trkpt lat="40.9201317" lon="9.5015675"><ele>4.0</ele><time>2026-04-21T05:57:44.93Z</time></trkpt><trkpt lat="40.9200431" lon="9.5015244"><ele>3.2</ele><time>2026-04-21T05:57:45.929Z</time></trkpt><trkpt lat="40.9199385" lon="9.5014835"><ele>2.4000000000000004</ele><time>2026-04-21T05:57:46.932Z</time></trkpt><trkpt lat="40.9198386" lon="9.5014533"><ele>1.6</ele><time>2026-04-21T05:57:47.928Z</time></trkpt><trkpt lat="40.9197271" lon="9.5014287"><ele>0.8</ele><time>2026-04-21T05:57:48.935Z</time></trkpt><trkpt lat="40.9196173" lon="9.5014121"><ele>0.0</ele><time>2026-04-21T05:57:49.929Z</time></trkpt><trkpt lat="40.9195215" lon="9.501402"><ele>0.0</ele><time>2026-04-21T05:57:50.929Z</time></trkpt><trkpt lat="40.9194111" lon="9.5013926"><ele>0.0</ele><time>2026-04-21T05:57:51.944Z</time></trkpt><trkpt lat="40.9193076" lon="9.5013903"><ele>0.0</ele><time>2026-04-21T05:57:52.926Z</time></trkpt><trkpt lat="40.9192055" lon="9.5013908"><ele>0.0</ele><time>2026-04-21T05:57:53.93Z</time></trkpt><trkpt lat="40.9190918" lon="9.5013922"><ele>0.0</ele><time>2026-04-21T05:57:54.927Z</time></trkpt><trkpt lat="40.9189817" lon="9.5013953"><ele>0.0</ele><time>2026-04-21T05:57:55.929Z</time></trkpt><trkpt lat="40.9188839" lon="9.5013961"><ele>0.0</ele><time>2026-04-21T05:57:56.93Z</time></trkpt><trkpt lat="40.9187829" lon="9.5014008"><ele>0.0</ele><time>2026-04-21T05:57:57.926Z</time></trkpt><trkpt lat="40.9186797" lon="9.5013976"><ele>0.0</ele><time>2026-04-21T05:57:58.932Z</time></trkpt><trkpt lat="40.9185854" lon="9.5013974"><ele>0.0</ele><time>2026-04-21T05:57:59.92Z</time></trkpt><trkpt lat="40.9184968" lon="9.5013975"><ele>0.0</ele><time>2026-04-21T05:58:00.952Z</time></trkpt><trkpt lat="40.9184241" lon="9.5013974"><ele>0.0</ele><time>2026-04-21T05:58:01.947Z</time></trkpt><trkpt lat="40.9183489" lon="9.5014004"><ele>0.0</ele><time>2026-04-21T05:58:02.936Z</time></trkpt><trkpt lat="40.9182812" lon="9.5014142"><ele>0.0</ele><time>2026-04-21T05:58:03.94Z</time></trkpt><trkpt lat="40.9182079" lon="9.5014259"><ele>0.0</ele><time>2026-04-21T05:58:04.94Z</time></trkpt><trkpt lat="40.918132" lon="9.5014336"><ele>0.0</ele><time>2026-04-21T05:58:05.941Z</time></trkpt><trkpt lat="40.9180517" lon="9.5014343"><ele>0.0</ele><time>2026-04-21T05:58:06.942Z</time></trkpt><trkpt lat="40.9179705" lon="9.5014388"><ele>0.0</ele><time>2026-04-21T05:58:07.942Z</time></trkpt><trkpt lat="40.9178913" lon="9.5014425"><ele>0.0</ele><time>2026-04-21T05:58:08.949Z</time></trkpt><trkpt lat="40.9178163" lon="9.501441"><ele>0.0</ele><time>2026-04-21T05:58:09.956Z</time></trkpt><trkpt lat="40.917738" lon="9.5014391"><ele>0.0</ele><time>2026-04-21T05:58:10.95Z</time></trkpt><trkpt lat="40.9176581" lon="9.5014459"><ele>0.0</ele><time>2026-04-21T05:58:11.962Z</time></trkpt><trkpt lat="40.9175806" lon="9.501454"><ele>0.0</ele><time>2026-04-21T05:58:12.95Z</time></trkpt><trkpt lat="40.9174952" lon="9.5014591"><ele>0.0</ele><time>2026-04-21T05:58:13.95Z</time></trkpt><trkpt lat="40.9174048" lon="9.5014628"><ele>0.0</ele><time>2026-04-21T05:58:14.949Z</time></trkpt><trkpt lat="40.9173228" lon="9.5014702"><ele>0.0</ele><time>2026-04-21T05:58:15.946Z</time></trkpt><trkpt lat="40.9172262" lon="9.5014853"><ele>0.0</ele><time>2026-04-21T05:58:16.954Z</time></trkpt><trkpt lat="40.9171243" lon="9.5015006"><ele>0.0</ele><time>2026-04-21T05:58:17.946Z</time></trkpt><trkpt lat="40.9170188" lon="9.5015082"><ele>0.0</ele><time>2026-04-21T05:58:18.947Z</time></trkpt><trkpt lat="40.9169247" lon="9.5015064"><ele>0.0</ele><time>2026-04-21T05:58:19.95Z</time></trkpt><trkpt lat="40.9168351" lon="9.5015057"><ele>0.0</ele><time>2026-04-21T05:58:20.945Z</time></trkpt><trkpt lat="40.9167418" lon="9.5015143"><ele>0.0</ele><time>2026-04-21T05:58:21.964Z</time></trkpt><trkpt lat="40.9166493" lon="9.5015123"><ele>0.0</ele><time>2026-04-21T05:58:22.948Z</time></trkpt><trkpt lat="40.9165444" lon="9.5015132"><ele>0.16666666666666666</ele><time>2026-04-21T05:58:23.953Z</time></trkpt><trkpt lat="40.9164376" lon="9.5015165"><ele>0.3333333333333333</ele><time>2026-04-21T05:58:24.952Z</time></trkpt><trkpt lat="40.9163471" lon="9.5015208"><ele>0.5</ele><time>2026-04-21T05:58:25.948Z</time></trkpt><trkpt lat="40.9162708" lon="9.5015266"><ele>0.6666666666666666</ele><time>2026-04-21T05:58:26.95Z</time></trkpt><trkpt lat="40.9161904" lon="9.5015288"><ele>0.8333333333333333</ele><time>2026-04-21T05:58:27.951Z</time></trkpt><trkpt lat="40.9160991" lon="9.5015271"><ele>1.0</ele><time>2026-04-21T05:58:28.965Z</time></trkpt><trkpt lat="40.9160027" lon="9.5015326"><ele>1.0</ele><time>2026-04-21T05:58:30.038Z</time></trkpt><trkpt lat="40.9159036" lon="9.5015391"><ele>1.0</ele><time>2026-04-21T05:58:31.03Z</time></trkpt><trkpt lat="40.9158047" lon="9.5015456"><ele>1.0</ele><time>2026-04-21T05:58:32.046Z</time></trkpt><trkpt lat="40.915707" lon="9.5015504"><ele>1.0</ele><time>2026-04-21T05:58:33.033Z</time></trkpt><trkpt lat="40.9156107" lon="9.501553"><ele>1.0</ele><time>2026-04-21T05:58:34.041Z</time></trkpt><trkpt lat="40.9154986" lon="9.5015572"><ele>1.0</ele><time>2026-04-21T05:58:35.035Z</time></trkpt><trkpt lat="40.9153918" lon="9.5015566"><ele>1.0</ele><time>2026-04-21T05:58:36.04Z</time></trkpt><trkpt lat="40.9152856" lon="9.5015511"><ele>1.0</ele><time>2026-04-21T05:58:37.043Z</time></trkpt><trkpt lat="40.9151844" lon="9.5015401"><ele>1.0</ele><time>2026-04-21T05:58:38.036Z</time></trkpt><trkpt lat="40.9150914" lon="9.5015277"><ele>1.0</ele><time>2026-04-21T05:58:39.051Z</time></trkpt><trkpt lat="40.9150105" lon="9.5015111"><ele>1.6</ele><time>2026-04-21T05:58:40.034Z</time></trkpt><trkpt lat="40.9149352" lon="9.5014886"><ele>2.2</ele><time>2026-04-21T05:58:40.937Z</time></trkpt><trkpt lat="40.9148807" lon="9.5013746"><ele>2.8000000000000003</ele><time>2026-04-21T05:58:42.938Z</time></trkpt><trkpt lat="40.9148885" lon="9.5012811"><ele>3.4000000000000004</ele><time>2026-04-21T05:58:43.934Z</time></trkpt><trkpt lat="40.9149166" lon="9.5011615"><ele>4.0</ele><time>2026-04-21T05:58:44.938Z</time></trkpt><trkpt lat="40.9149476" lon="9.5010283"><ele>4.0</ele><time>2026-04-21T05:58:45.939Z</time></trkpt><trkpt lat="40.9149627" lon="9.5008885"><ele>4.0</ele><time>2026-04-21T05:58:46.94Z</time></trkpt><trkpt lat="40.9149715" lon="9.5007681"><ele>4.0</ele><time>2026-04-21T05:58:47.938Z</time></trkpt><trkpt lat="40.9149805" lon="9.5006706"><ele>4.0</ele><time>2026-04-21T05:58:48.942Z</time></trkpt><trkpt lat="40.9149927" lon="9.5005249"><ele>4.0</ele><time>2026-04-21T05:58:50.937Z</time></trkpt><trkpt lat="40.915013" lon="9.5004346"><ele>4.166666666666666</ele><time>2026-04-21T05:58:52.941Z</time></trkpt><trkpt lat="40.9150125" lon="9.5003477"><ele>4.333333333333333</ele><time>2026-04-21T05:59:12.94Z</time></trkpt><trkpt lat="40.9150534" lon="9.5002599"><ele>4.5</ele><time>2026-04-21T05:59:14.939Z</time></trkpt><trkpt lat="40.9151498" lon="9.5001764"><ele>4.666666666666667</ele><time>2026-04-21T05:59:16.939Z</time></trkpt><trkpt lat="40.9152093" lon="9.5001103"><ele>4.833333333333334</ele><time>2026-04-21T05:59:17.933Z</time></trkpt><trkpt lat="40.9152592" lon="9.5000434"><ele>5.0</ele><time>2026-04-21T05:59:18.932Z</time></trkpt><trkpt lat="40.9153053" lon="9.4999733"><ele>5.0</ele><time>2026-04-21T05:59:19.94Z</time></trkpt><trkpt lat="40.9153499" lon="9.4998986"><ele>5.0</ele><time>2026-04-21T05:59:20.937Z</time></trkpt><trkpt lat="40.9153888" lon="9.4998138"><ele>5.0</ele><time>2026-04-21T05:59:21.935Z</time></trkpt><trkpt lat="40.9154144" lon="9.4997309"><ele>5.0</ele><time>2026-04-21T05:59:22.934Z</time></trkpt><trkpt lat="40.9154524" lon="9.4996063"><ele>5.0</ele><time>2026-04-21T05:59:24.937Z</time></trkpt><trkpt lat="40.9154785" lon="9.4994933"><ele>5.0</ele><time>2026-04-21T05:59:26.938Z</time></trkpt><trkpt lat="40.915508" lon="9.4994193"><ele>5.166666666666667</ele><time>2026-04-21T05:59:27.941Z</time></trkpt><trkpt lat="40.915541" lon="9.4993196"><ele>5.333333333333334</ele><time>2026-04-21T05:59:28.933Z</time></trkpt><trkpt lat="40.9155816" lon="9.4992209"><ele>5.5</ele><time>2026-04-21T05:59:29.937Z</time></trkpt><trkpt lat="40.9156219" lon="9.4991223"><ele>5.666666666666667</ele><time>2026-04-21T05:59:30.936Z</time></trkpt><trkpt lat="40.915656" lon="9.49902"><ele>5.833333333333333</ele><time>2026-04-21T05:59:31.936Z</time></trkpt><trkpt lat="40.915699" lon="9.4989303"><ele>6.0</ele><time>2026-04-21T05:59:32.94Z</time></trkpt><trkpt lat="40.9157312" lon="9.4988474"><ele>6.0</ele><time>2026-04-21T05:59:33.944Z</time></trkpt><trkpt lat="40.9157477" lon="9.4987525"><ele>6.0</ele><time>2026-04-21T05:59:35.952Z</time></trkpt><trkpt lat="40.9157731" lon="9.4986625"><ele>6.0</ele><time>2026-04-21T05:59:37.946Z</time></trkpt><trkpt lat="40.9158012" lon="9.4984965"><ele>6.0</ele><time>2026-04-21T05:59:39.942Z</time></trkpt><trkpt lat="40.9158152" lon="9.4984019"><ele>6.0</ele><time>2026-04-21T05:59:40.946Z</time></trkpt><trkpt lat="40.9158387" lon="9.4982454"><ele>5.8</ele><time>2026-04-21T05:59:42.939Z</time></trkpt><trkpt lat="40.9158546" lon="9.4981486"><ele>5.6</ele><time>2026-04-21T05:59:43.942Z</time></trkpt><trkpt lat="40.9158643" lon="9.4980433"><ele>5.4</ele><time>2026-04-21T05:59:44.938Z</time></trkpt><trkpt lat="40.9158728" lon="9.4978966"><ele>5.2</ele><time>2026-04-21T05:59:45.94Z</time></trkpt><trkpt lat="40.9158772" lon="9.4977509"><ele>5.0</ele><time>2026-04-21T05:59:46.941Z</time></trkpt><trkpt lat="40.9158787" lon="9.4976463"><ele>5.0</ele><time>2026-04-21T05:59:47.935Z</time></trkpt><trkpt lat="40.9158686" lon="9.4975053"><ele>5.0</ele><time>2026-04-21T05:59:49.947Z</time></trkpt><trkpt lat="40.9158618" lon="9.4974138"><ele>5.0</ele><time>2026-04-21T05:59:51.949Z</time></trkpt><trkpt lat="40.9158391" lon="9.4973108"><ele>5.0</ele><time>2026-04-21T05:59:53.948Z</time></trkpt><trkpt lat="40.915827" lon="9.49716"><ele>5.0</ele><time>2026-04-21T05:59:55.942Z</time></trkpt><trkpt lat="40.915827" lon="9.4970719"><ele>5.0</ele><time>2026-04-21T05:59:57.948Z</time></trkpt><trkpt lat="40.9158159" lon="9.4969872"><ele>5.0</ele><time>2026-04-21T06:00:03.946Z</time></trkpt><trkpt lat="40.915809" lon="9.4969037"><ele>5.0</ele><time>2026-04-21T06:00:06.943Z</time></trkpt><trkpt lat="40.9158023" lon="9.4968132"><ele>5.0</ele><time>2026-04-21T06:00:09.942Z</time></trkpt><trkpt lat="40.9158206" lon="9.4967137"><ele>5.0</ele><time>2026-04-21T06:00:14.949Z</time></trkpt><trkpt lat="40.9158342" lon="9.4966243"><ele>5.0</ele><time>2026-04-21T06:00:17.943Z</time></trkpt><trkpt lat="40.915817" lon="9.4965301"><ele>5.0</ele><time>2026-04-21T06:00:20.944Z</time></trkpt><trkpt lat="40.9157883" lon="9.4964133"><ele>5.0</ele><time>2026-04-21T06:00:23.945Z</time></trkpt><trkpt lat="40.9157783" lon="9.4962567"><ele>5.166666666666667</ele><time>2026-04-21T06:00:25.943Z</time></trkpt><trkpt lat="40.9157777" lon="9.4961611"><ele>5.333333333333334</ele><time>2026-04-21T06:00:26.94Z</time></trkpt><trkpt lat="40.9157879" lon="9.4960605"><ele>5.5</ele><time>2026-04-21T06:00:27.938Z</time></trkpt><trkpt lat="40.9158097" lon="9.4959557"><ele>5.666666666666667</ele><time>2026-04-21T06:00:28.934Z</time></trkpt><trkpt lat="40.9158254" lon="9.4958658"><ele>5.833333333333333</ele><time>2026-04-21T06:00:29.949Z</time></trkpt><trkpt lat="40.9158314" lon="9.495782"><ele>6.0</ele><time>2026-04-21T06:00:30.936Z</time></trkpt><trkpt lat="40.9158425" lon="9.4956683"><ele>6.0</ele><time>2026-04-21T06:00:32.938Z</time></trkpt><trkpt lat="40.9158574" lon="9.4955441"><ele>6.0</ele><time>2026-04-21T06:00:34.932Z</time></trkpt><trkpt lat="40.91587" lon="9.4954447"><ele>6.0</ele><time>2026-04-21T06:00:38.936Z</time></trkpt><trkpt lat="40.9158769" lon="9.4952734"><ele>6.0</ele><time>2026-04-21T06:00:40.941Z</time></trkpt><trkpt lat="40.9159013" lon="9.4951796"><ele>6.0</ele><time>2026-04-21T06:00:41.936Z</time></trkpt><trkpt lat="40.9159297" lon="9.4950316"><ele>5.166666666666667</ele><time>2026-04-21T06:00:43.938Z</time></trkpt><trkpt lat="40.9159704" lon="9.4949084"><ele>4.333333333333333</ele><time>2026-04-21T06:00:45.966Z</time></trkpt><trkpt lat="40.9160226" lon="9.4947833"><ele>3.5</ele><time>2026-04-21T06:00:47.946Z</time></trkpt><trkpt lat="40.916098" lon="9.494703"><ele>2.6666666666666665</ele><time>2026-04-21T06:00:49.953Z</time></trkpt><trkpt lat="40.9161585" lon="9.494646"><ele>1.8333333333333333</ele><time>2026-04-21T06:00:53.963Z</time></trkpt><trkpt lat="40.9162219" lon="9.4946136"><ele>1.0</ele><time>2026-04-21T06:00:59.965Z</time></trkpt><trkpt lat="40.9162949" lon="9.4945721"><ele>0.9999999999999999</ele><time>2026-04-21T06:01:03.958Z</time></trkpt><trkpt lat="40.916359" lon="9.4945363"><ele>1.0</ele><time>2026-04-21T06:01:05.961Z</time></trkpt><trkpt lat="40.9164846" lon="9.4944758"><ele>1.0</ele><time>2026-04-21T06:01:07.96Z</time></trkpt><trkpt lat="40.9165592" lon="9.4944392"><ele>1.0</ele><time>2026-04-21T06:01:08.962Z</time></trkpt><trkpt lat="40.9166303" lon="9.4943976"><ele>0.9999999999999999</ele><time>2026-04-21T06:01:09.963Z</time></trkpt><trkpt lat="40.9166998" lon="9.4943608"><ele>1.0</ele><time>2026-04-21T06:01:10.954Z</time></trkpt><trkpt lat="40.9167687" lon="9.4943401"><ele>0.9999999999999999</ele><time>2026-04-21T06:01:11.954Z</time></trkpt><trkpt lat="40.9168746" lon="9.494314"><ele>1.0</ele><time>2026-04-21T06:01:13.96Z</time></trkpt><trkpt lat="40.9169504" lon="9.4943056"><ele>1.0</ele><time>2026-04-21T06:01:15.964Z</time></trkpt><trkpt lat="40.9170659" lon="9.4943021"><ele>1.0</ele><time>2026-04-21T06:01:17.956Z</time></trkpt><trkpt lat="40.917132" lon="9.49429"><ele>0.9999999999999999</ele><time>2026-04-21T06:01:18.958Z</time></trkpt><trkpt lat="40.917198" lon="9.4942775"><ele>1.0</ele><time>2026-04-21T06:01:19.957Z</time></trkpt><trkpt lat="40.9172571" lon="9.4942393"><ele>0.9999999999999999</ele><time>2026-04-21T06:01:20.949Z</time></trkpt><trkpt lat="40.9173238" lon="9.4941762"><ele>1.0</ele><time>2026-04-21T06:01:21.943Z</time></trkpt><trkpt lat="40.9173776" lon="9.4940803"><ele>1.0</ele><time>2026-04-21T06:01:22.941Z</time></trkpt><trkpt lat="40.9174109" lon="9.4939856"><ele>1.0</ele><time>2026-04-21T06:01:23.953Z</time></trkpt><trkpt lat="40.9174114" lon="9.4938971"><ele>0.9999999999999999</ele><time>2026-04-21T06:01:24.951Z</time></trkpt><trkpt lat="40.9173948" lon="9.4937974"><ele>1.0</ele><time>2026-04-21T06:01:25.957Z</time></trkpt><trkpt lat="40.9173583" lon="9.4936943"><ele>1.2000000000000002</ele><time>2026-04-21T06:01:26.937Z</time></trkpt><trkpt lat="40.917306" lon="9.4935961"><ele>1.4000000000000001</ele><time>2026-04-21T06:01:27.946Z</time></trkpt><trkpt lat="40.9172482" lon="9.4935387"><ele>1.6</ele><time>2026-04-21T06:01:28.939Z</time></trkpt><trkpt lat="40.9171766" lon="9.4935054"><ele>1.8</ele><time>2026-04-21T06:01:29.947Z</time></trkpt><trkpt lat="40.9170693" lon="9.493469"><ele>2.0</ele><time>2026-04-21T06:01:30.946Z</time></trkpt><trkpt lat="40.9169651" lon="9.4934249"><ele>2.0</ele><time>2026-04-21T06:01:31.947Z</time></trkpt><trkpt lat="40.9168645" lon="9.4933459"><ele>2.0</ele><time>2026-04-21T06:01:32.947Z</time></trkpt><trkpt lat="40.9167934" lon="9.4932358"><ele>2.0</ele><time>2026-04-21T06:01:33.948Z</time></trkpt><trkpt lat="40.9167518" lon="9.4931238"><ele>2.0</ele><time>2026-04-21T06:01:34.95Z</time></trkpt><trkpt lat="40.916738" lon="9.4930033"><ele>2.0</ele><time>2026-04-21T06:01:35.95Z</time></trkpt><trkpt lat="40.9167515" lon="9.4928897"><ele>2.2</ele><time>2026-04-21T06:01:36.949Z</time></trkpt><trkpt lat="40.916789" lon="9.4927816"><ele>2.4000000000000004</ele><time>2026-04-21T06:01:37.948Z</time></trkpt><trkpt lat="40.9168441" lon="9.4926859"><ele>2.5999999999999996</ele><time>2026-04-21T06:01:38.951Z</time></trkpt><trkpt lat="40.9169083" lon="9.4926041"><ele>2.8</ele><time>2026-04-21T06:01:39.949Z</time></trkpt><trkpt lat="40.9169909" lon="9.492542"><ele>3.0</ele><time>2026-04-21T06:01:40.94Z</time></trkpt><trkpt lat="40.9170837" lon="9.4924944"><ele>3.0</ele><time>2026-04-21T06:01:41.94Z</time></trkpt><trkpt lat="40.9171727" lon="9.4924497"><ele>3.0</ele><time>2026-04-21T06:01:42.948Z</time></trkpt><trkpt lat="40.9172731" lon="9.492405"><ele>3.0</ele><time>2026-04-21T06:01:43.952Z</time></trkpt><trkpt lat="40.9173788" lon="9.4923584"><ele>3.0</ele><time>2026-04-21T06:01:44.955Z</time></trkpt><trkpt lat="40.9174943" lon="9.4923073"><ele>3.0</ele><time>2026-04-21T06:01:45.948Z</time></trkpt><trkpt lat="40.9176034" lon="9.4922465"><ele>3.0</ele><time>2026-04-21T06:01:46.951Z</time></trkpt><trkpt lat="40.917725" lon="9.492185"><ele>3.0</ele><time>2026-04-21T06:01:47.951Z</time></trkpt><trkpt lat="40.9178448" lon="9.4921267"><ele>3.0</ele><time>2026-04-21T06:01:48.957Z</time></trkpt><trkpt lat="40.9179618" lon="9.4920796"><ele>3.0</ele><time>2026-04-21T06:01:49.954Z</time></trkpt><trkpt lat="40.9180769" lon="9.4920318"><ele>3.25</ele><time>2026-04-21T06:01:50.953Z</time></trkpt><trkpt lat="40.918195" lon="9.4919836"><ele>3.5</ele><time>2026-04-21T06:01:51.954Z</time></trkpt><trkpt lat="40.9183121" lon="9.491933"><ele>3.75</ele><time>2026-04-21T06:01:52.955Z</time></trkpt><trkpt lat="40.918432" lon="9.4918788"><ele>4.0</ele><time>2026-04-21T06:01:54.033Z</time></trkpt><trkpt lat="40.9185538" lon="9.4918277"><ele>4.0</ele><time>2026-04-21T06:01:55.032Z</time></trkpt><trkpt lat="40.9186759" lon="9.4917746"><ele>4.0</ele><time>2026-04-21T06:01:56.036Z</time></trkpt><trkpt lat="40.9188007" lon="9.4917178"><ele>4.0</ele><time>2026-04-21T06:01:57.031Z</time></trkpt><trkpt lat="40.9189242" lon="9.4916618"><ele>4.0</ele><time>2026-04-21T06:01:58.028Z</time></trkpt><trkpt lat="40.9190447" lon="9.4916136"><ele>4.0</ele><time>2026-04-21T06:01:59.024Z</time></trkpt><trkpt lat="40.9191732" lon="9.4915751"><ele>4.0</ele><time>2026-04-21T06:02:00.037Z</time></trkpt><trkpt lat="40.9192995" lon="9.491541"><ele>4.0</ele><time>2026-04-21T06:02:01.033Z</time></trkpt><trkpt lat="40.9194305" lon="9.491509"><ele>4.0</ele><time>2026-04-21T06:02:02.039Z</time></trkpt><trkpt lat="40.9195588" lon="9.4914826"><ele>4.0</ele><time>2026-04-21T06:02:03.032Z</time></trkpt><trkpt lat="40.9196785" lon="9.4914669"><ele>4.0</ele><time>2026-04-21T06:02:04.031Z</time></trkpt><trkpt lat="40.9197916" lon="9.4914595"><ele>4.0</ele><time>2026-04-21T06:02:05.037Z</time></trkpt><trkpt lat="40.9198897" lon="9.4914479"><ele>4.0</ele><time>2026-04-21T06:02:06.034Z</time></trkpt><trkpt lat="40.9199819" lon="9.4914414"><ele>4.0</ele><time>2026-04-21T06:02:07.034Z</time></trkpt><trkpt lat="40.9200784" lon="9.4914336"><ele>4.0</ele><time>2026-04-21T06:02:08.037Z</time></trkpt><trkpt lat="40.9201804" lon="9.4914272"><ele>4.0</ele><time>2026-04-21T06:02:09.043Z</time></trkpt><trkpt lat="40.9202875" lon="9.4914196"><ele>4.0</ele><time>2026-04-21T06:02:10.039Z</time></trkpt><trkpt lat="40.9203982" lon="9.4914091"><ele>4.0</ele><time>2026-04-21T06:02:11.033Z</time></trkpt><trkpt lat="40.9205126" lon="9.4913998"><ele>4.0</ele><time>2026-04-21T06:02:12.037Z</time></trkpt><trkpt lat="40.920626" lon="9.4913891"><ele>4.0</ele><time>2026-04-21T06:02:13.035Z</time></trkpt><trkpt lat="40.9207415" lon="9.4913801"><ele>4.0</ele><time>2026-04-21T06:02:14.033Z</time></trkpt><trkpt lat="40.9208562" lon="9.4913703"><ele>4.0</ele><time>2026-04-21T06:02:15.033Z</time></trkpt><trkpt lat="40.92097" lon="9.4913584"><ele>4.0</ele><time>2026-04-21T06:02:16.034Z</time></trkpt><trkpt lat="40.92108" lon="9.491343"><ele>4.0</ele><time>2026-04-21T06:02:17.036Z</time></trkpt><trkpt lat="40.9211898" lon="9.4913263"><ele>4.0</ele><time>2026-04-21T06:02:18.041Z</time></trkpt><trkpt lat="40.9213028" lon="9.491302"><ele>4.0</ele><time>2026-04-21T06:02:19.033Z</time></trkpt><trkpt lat="40.921414" lon="9.4912705"><ele>4.0</ele><time>2026-04-21T06:02:20.043Z</time></trkpt><trkpt lat="40.9215282" lon="9.4912342"><ele>4.0</ele><time>2026-04-21T06:02:21.035Z</time></trkpt><trkpt lat="40.9216414" lon="9.4911945"><ele>4.0</ele><time>2026-04-21T06:02:22.041Z</time></trkpt><trkpt lat="40.9217559" lon="9.4911503"><ele>4.0</ele><time>2026-04-21T06:02:23.041Z</time></trkpt><trkpt lat="40.9218663" lon="9.4911064"><ele>4.0</ele><time>2026-04-21T06:02:24.045Z</time></trkpt><trkpt lat="40.9219727" lon="9.4910612"><ele>4.333333333333333</ele><time>2026-04-21T06:02:25.04Z</time></trkpt><trkpt lat="40.9220705" lon="9.4910176"><ele>4.666666666666666</ele><time>2026-04-21T06:02:26.034Z</time></trkpt><trkpt lat="40.9221605" lon="9.4909759"><ele>5.0</ele><time>2026-04-21T06:02:27.038Z</time></trkpt><trkpt lat="40.9222405" lon="9.4909408"><ele>5.333333333333333</ele><time>2026-04-21T06:02:28.04Z</time></trkpt><trkpt lat="40.9223101" lon="9.4909137"><ele>5.666666666666667</ele><time>2026-04-21T06:02:29.031Z</time></trkpt><trkpt lat="40.9223786" lon="9.4908937"><ele>6.0</ele><time>2026-04-21T06:02:30.033Z</time></trkpt><trkpt lat="40.9224422" lon="9.4908768"><ele>6.0</ele><time>2026-04-21T06:02:31.032Z</time></trkpt><trkpt lat="40.9225562" lon="9.4908455"><ele>6.0</ele><time>2026-04-21T06:02:33.019Z</time></trkpt><trkpt lat="40.9226314" lon="9.4908475"><ele>6.0</ele><time>2026-04-21T06:02:36.033Z</time></trkpt><trkpt lat="40.9227081" lon="9.490845"><ele>6.0</ele><time>2026-04-21T06:02:38.028Z</time></trkpt><trkpt lat="40.9227603" lon="9.4907726"><ele>6.0</ele><time>2026-04-21T06:02:40.022Z</time></trkpt><trkpt lat="40.9227483" lon="9.4906662"><ele>6.0</ele><time>2026-04-21T06:02:42.029Z</time></trkpt><trkpt lat="40.9227303" lon="9.490584"><ele>5.8</ele><time>2026-04-21T06:02:44.018Z</time></trkpt><trkpt lat="40.922706" lon="9.4904634"><ele>5.6</ele><time>2026-04-21T06:02:46.016Z</time></trkpt><trkpt lat="40.922682" lon="9.4903539"><ele>5.4</ele><time>2026-04-21T06:02:47.021Z</time></trkpt><trkpt lat="40.9226612" lon="9.4902238"><ele>5.2</ele><time>2026-04-21T06:02:49.019Z</time></trkpt><trkpt lat="40.9226416" lon="9.490058"><ele>5.0</ele><time>2026-04-21T06:02:51.016Z</time></trkpt><trkpt lat="40.9226362" lon="9.4899358"><ele>5.0</ele><time>2026-04-21T06:02:52.026Z</time></trkpt><trkpt lat="40.9226308" lon="9.4898357"><ele>5.0</ele><time>2026-04-21T06:02:53.03Z</time></trkpt><trkpt lat="40.9226199" lon="9.4897337"><ele>5.0</ele><time>2026-04-21T06:02:54.012Z</time></trkpt><trkpt lat="40.9226053" lon="9.4896289"><ele>5.0</ele><time>2026-04-21T06:02:55.011Z</time></trkpt><trkpt lat="40.9225835" lon="9.489526"><ele>5.0</ele><time>2026-04-21T06:02:56.015Z</time></trkpt><trkpt lat="40.9225646" lon="9.4894281"><ele>5.0</ele><time>2026-04-21T06:02:57.012Z</time></trkpt><trkpt lat="40.9225502" lon="9.4893274"><ele>5.0</ele><time>2026-04-21T06:02:58.027Z</time></trkpt><trkpt lat="40.9225347" lon="9.4892251"><ele>5.0</ele><time>2026-04-21T06:02:59.015Z</time></trkpt><trkpt lat="40.9225111" lon="9.4891122"><ele>5.0</ele><time>2026-04-21T06:03:00.024Z</time></trkpt><trkpt lat="40.9224903" lon="9.489003"><ele>5.0</ele><time>2026-04-21T06:03:01.026Z</time></trkpt><trkpt lat="40.9224727" lon="9.4889058"><ele>5.0</ele><time>2026-04-21T06:03:02.027Z</time></trkpt><trkpt lat="40.9224583" lon="9.488763"><ele>5.0</ele><time>2026-04-21T06:03:04.023Z</time></trkpt><trkpt lat="40.9224426" lon="9.488674"><ele>5.0</ele><time>2026-04-21T06:03:05.017Z</time></trkpt><trkpt lat="40.9224254" lon="9.4885493"><ele>5.0</ele><time>2026-04-21T06:03:06.012Z</time></trkpt><trkpt lat="40.9224074" lon="9.4884272"><ele>5.0</ele><time>2026-04-21T06:03:07.011Z</time></trkpt><trkpt lat="40.9223899" lon="9.4883045"><ele>5.0</ele><time>2026-04-21T06:03:08.005Z</time></trkpt><trkpt lat="40.922369" lon="9.4881947"><ele>5.0</ele><time>2026-04-21T06:03:09.007Z</time></trkpt><trkpt lat="40.9223499" lon="9.4880902"><ele>5.0</ele><time>2026-04-21T06:03:10.028Z</time></trkpt><trkpt lat="40.9223352" lon="9.488"><ele>5.0</ele><time>2026-04-21T06:03:11.032Z</time></trkpt><trkpt lat="40.9223252" lon="9.4878697"><ele>5.0</ele><time>2026-04-21T06:03:13.023Z</time></trkpt><trkpt lat="40.9223496" lon="9.4877682"><ele>5.0</ele><time>2026-04-21T06:03:15.034Z</time></trkpt><trkpt lat="40.922354" lon="9.4876544"><ele>5.0</ele><time>2026-04-21T06:03:18.023Z</time></trkpt><trkpt lat="40.9223739" lon="9.487566"><ele>5.0</ele><time>2026-04-21T06:03:24.026Z</time></trkpt><trkpt lat="40.922453" lon="9.4875515"><ele>5.0</ele><time>2026-04-21T06:03:27.026Z</time></trkpt><trkpt lat="40.9223949" lon="9.4875046"><ele>5.0</ele><time>2026-04-21T06:03:40.002Z</time></trkpt><trkpt lat="40.9224604" lon="9.4874847"><ele>5.0</ele><time>2026-04-21T06:07:27.941Z</time></trkpt><trkpt lat="40.9224287" lon="9.4873773"><ele>5.0</ele><time>2026-04-21T06:07:30.933Z</time></trkpt><trkpt lat="40.9223684" lon="9.4873405"><ele>5.0</ele><time>2026-04-21T06:07:32.951Z</time></trkpt><trkpt lat="40.9222901" lon="9.4872904"><ele>5.0</ele><time>2026-04-21T06:07:35.951Z</time></trkpt><trkpt lat="40.9222385" lon="9.4871586"><ele>5.0</ele><time>2026-04-21T06:07:38.94Z</time></trkpt><trkpt lat="40.922222" lon="9.4870609"><ele>5.0</ele><time>2026-04-21T06:07:39.939Z</time></trkpt><trkpt lat="40.9222034" lon="9.4869552"><ele>5.0</ele><time>2026-04-21T06:07:40.937Z</time></trkpt><trkpt lat="40.9221877" lon="9.4868403"><ele>5.0</ele><time>2026-04-21T06:07:41.936Z</time></trkpt><trkpt lat="40.9221756" lon="9.4867326"><ele>5.0</ele><time>2026-04-21T06:07:42.946Z</time></trkpt><trkpt lat="40.9221585" lon="9.4866152"><ele>5.0</ele><time>2026-04-21T06:07:43.952Z</time></trkpt><trkpt lat="40.9221358" lon="9.4865018"><ele>5.0</ele><time>2026-04-21T06:07:44.944Z</time></trkpt><trkpt lat="40.9221176" lon="9.4863768"><ele>5.0</ele><time>2026-04-21T06:07:45.948Z</time></trkpt><trkpt lat="40.9220951" lon="9.4862672"><ele>5.0</ele><time>2026-04-21T06:07:46.946Z</time></trkpt><trkpt lat="40.9220811" lon="9.4861664"><ele>5.0</ele><time>2026-04-21T06:07:47.943Z</time></trkpt><trkpt lat="40.9220636" lon="9.4860735"><ele>5.0</ele><time>2026-04-21T06:07:48.942Z</time></trkpt><trkpt lat="40.9220557" lon="9.4859833"><ele>5.0</ele><time>2026-04-21T06:07:49.94Z</time></trkpt><trkpt lat="40.9220401" lon="9.4858825"><ele>4.833333333333334</ele><time>2026-04-21T06:07:50.941Z</time></trkpt><trkpt lat="40.9220267" lon="9.4857814"><ele>4.666666666666667</ele><time>2026-04-21T06:07:51.934Z</time></trkpt><trkpt lat="40.9220111" lon="9.4856854"><ele>4.5</ele><time>2026-04-21T06:07:52.932Z</time></trkpt><trkpt lat="40.921993" lon="9.4855837"><ele>4.333333333333333</ele><time>2026-04-21T06:07:53.933Z</time></trkpt><trkpt lat="40.9219823" lon="9.4854829"><ele>4.166666666666666</ele><time>2026-04-21T06:07:54.933Z</time></trkpt><trkpt lat="40.9219669" lon="9.4853773"><ele>4.0</ele><time>2026-04-21T06:07:55.929Z</time></trkpt><trkpt lat="40.9219445" lon="9.4852678"><ele>4.333333333333333</ele><time>2026-04-21T06:07:56.929Z</time></trkpt><trkpt lat="40.9219262" lon="9.485165"><ele>4.666666666666666</ele><time>2026-04-21T06:07:57.938Z</time></trkpt><trkpt lat="40.9219065" lon="9.4850655"><ele>5.0</ele><time>2026-04-21T06:07:58.934Z</time></trkpt><trkpt lat="40.9218849" lon="9.4849623"><ele>5.333333333333333</ele><time>2026-04-21T06:07:59.938Z</time></trkpt><trkpt lat="40.9218672" lon="9.4848646"><ele>5.666666666666667</ele><time>2026-04-21T06:08:00.934Z</time></trkpt><trkpt lat="40.921855" lon="9.4847655"><ele>6.0</ele><time>2026-04-21T06:08:01.932Z</time></trkpt><trkpt lat="40.9218418" lon="9.4846609"><ele>6.5</ele><time>2026-04-21T06:08:02.932Z</time></trkpt><trkpt lat="40.9218348" lon="9.484557"><ele>7.0</ele><time>2026-04-21T06:08:03.928Z</time></trkpt><trkpt lat="40.9218253" lon="9.4844546"><ele>7.5</ele><time>2026-04-21T06:08:04.924Z</time></trkpt><trkpt lat="40.9218089" lon="9.4843436"><ele>8.0</ele><time>2026-04-21T06:08:05.925Z</time></trkpt><trkpt lat="40.9217974" lon="9.4842335"><ele>8.5</ele><time>2026-04-21T06:08:06.933Z</time></trkpt><trkpt lat="40.9217777" lon="9.4841245"><ele>9.0</ele><time>2026-04-21T06:08:07.938Z</time></trkpt><trkpt lat="40.9217531" lon="9.4840132"><ele>9.0</ele><time>2026-04-21T06:08:08.932Z</time></trkpt><trkpt lat="40.9217159" lon="9.483896"><ele>9.0</ele><time>2026-04-21T06:08:09.94Z</time></trkpt><trkpt lat="40.921692" lon="9.4837887"><ele>9.0</ele><time>2026-04-21T06:08:10.938Z</time></trkpt><trkpt lat="40.9216747" lon="9.4836881"><ele>9.0</ele><time>2026-04-21T06:08:11.937Z</time></trkpt><trkpt lat="40.9216556" lon="9.483601"><ele>9.0</ele><time>2026-04-21T06:08:12.935Z</time></trkpt><trkpt lat="40.9216295" lon="9.4834411"><ele>8.833333333333334</ele><time>2026-04-21T06:08:14.941Z</time></trkpt><trkpt lat="40.921619" lon="9.4833526"><ele>8.666666666666666</ele><time>2026-04-21T06:08:15.936Z</time></trkpt><trkpt lat="40.9216057" lon="9.4832612"><ele>8.5</ele><time>2026-04-21T06:08:16.944Z</time></trkpt><trkpt lat="40.9215928" lon="9.4831321"><ele>8.333333333333332</ele><time>2026-04-21T06:08:18.936Z</time></trkpt><trkpt lat="40.9215902" lon="9.4830428"><ele>8.166666666666666</ele><time>2026-04-21T06:08:20.943Z</time></trkpt><trkpt lat="40.9215758" lon="9.4829414"><ele>8.0</ele><time>2026-04-21T06:08:34.942Z</time></trkpt><trkpt lat="40.9215602" lon="9.4828134"><ele>8.0</ele><time>2026-04-21T06:08:36.947Z</time></trkpt><trkpt lat="40.9215423" lon="9.4826592"><ele>8.0</ele><time>2026-04-21T06:08:38.941Z</time></trkpt><trkpt lat="40.9215273" lon="9.4825088"><ele>8.0</ele><time>2026-04-21T06:08:40.941Z</time></trkpt><trkpt lat="40.9215083" lon="9.4823768"><ele>8.0</ele><time>2026-04-21T06:08:42.961Z</time></trkpt><trkpt lat="40.9214952" lon="9.4822947"><ele>8.0</ele><time>2026-04-21T06:08:43.956Z</time></trkpt><trkpt lat="40.9214757" lon="9.4822104"><ele>7.999999999999999</ele><time>2026-04-21T06:08:44.948Z</time></trkpt><trkpt lat="40.9214646" lon="9.48207"><ele>8.0</ele><time>2026-04-21T06:08:46.958Z</time></trkpt><trkpt lat="40.9214468" lon="9.4819672"><ele>8.0</ele><time>2026-04-21T06:08:48.95Z</time></trkpt><trkpt lat="40.9214316" lon="9.4818829"><ele>8.0</ele><time>2026-04-21T06:08:51.952Z</time></trkpt><trkpt lat="40.9214196" lon="9.4817496"><ele>7.999999999999999</ele><time>2026-04-21T06:09:03.952Z</time></trkpt><trkpt lat="40.9214036" lon="9.481654"><ele>8.0</ele><time>2026-04-21T06:09:04.953Z</time></trkpt><trkpt lat="40.9213897" lon="9.4815307"><ele>8.0</ele><time>2026-04-21T06:09:05.958Z</time></trkpt><trkpt lat="40.9213779" lon="9.4813797"><ele>8.0</ele><time>2026-04-21T06:09:06.95Z</time></trkpt><trkpt lat="40.9213553" lon="9.4812339"><ele>8.0</ele><time>2026-04-21T06:09:07.956Z</time></trkpt><trkpt lat="40.9213348" lon="9.4810859"><ele>8.0</ele><time>2026-04-21T06:09:08.957Z</time></trkpt><trkpt lat="40.9213132" lon="9.4809262"><ele>7.75</ele><time>2026-04-21T06:09:09.954Z</time></trkpt><trkpt lat="40.9212915" lon="9.4807732"><ele>7.5</ele><time>2026-04-21T06:09:10.947Z</time></trkpt><trkpt lat="40.9212739" lon="9.4806167"><ele>7.25</ele><time>2026-04-21T06:09:11.959Z</time></trkpt><trkpt lat="40.9212483" lon="9.4804487"><ele>7.0</ele><time>2026-04-21T06:09:12.953Z</time></trkpt><trkpt lat="40.9212245" lon="9.4802892"><ele>7.5</ele><time>2026-04-21T06:09:13.96Z</time></trkpt><trkpt lat="40.9211951" lon="9.4801268"><ele>8.0</ele><time>2026-04-21T06:09:14.955Z</time></trkpt><trkpt lat="40.9211708" lon="9.4799684"><ele>8.5</ele><time>2026-04-21T06:09:15.949Z</time></trkpt><trkpt lat="40.9211466" lon="9.4798008"><ele>9.0</ele><time>2026-04-21T06:09:16.963Z</time></trkpt><trkpt lat="40.921128" lon="9.4796331"><ele>9.25</ele><time>2026-04-21T06:09:17.96Z</time></trkpt><trkpt lat="40.9211008" lon="9.4794636"><ele>9.5</ele><time>2026-04-21T06:09:18.964Z</time></trkpt><trkpt lat="40.921074" lon="9.4792898"><ele>9.75</ele><time>2026-04-21T06:09:20.041Z</time></trkpt><trkpt lat="40.9210476" lon="9.4791148"><ele>10.0</ele><time>2026-04-21T06:09:21.041Z</time></trkpt><trkpt lat="40.9210203" lon="9.4789343"><ele>10.5</ele><time>2026-04-21T06:09:22.046Z</time></trkpt><trkpt lat="40.9209916" lon="9.4787539"><ele>11.0</ele><time>2026-04-21T06:09:23.043Z</time></trkpt><trkpt lat="40.9209643" lon="9.4785775"><ele>11.5</ele><time>2026-04-21T06:09:24.044Z</time></trkpt><trkpt lat="40.9209374" lon="9.4783997"><ele>12.0</ele><time>2026-04-21T06:09:25.041Z</time></trkpt><trkpt lat="40.9209099" lon="9.4782345"><ele>12.0</ele><time>2026-04-21T06:09:26.045Z</time></trkpt><trkpt lat="40.9208842" lon="9.47808"><ele>12.0</ele><time>2026-04-21T06:09:27.043Z</time></trkpt><trkpt lat="40.920857" lon="9.4779265"><ele>12.0</ele><time>2026-04-21T06:09:28.041Z</time></trkpt><trkpt lat="40.9208292" lon="9.4777725"><ele>12.0</ele><time>2026-04-21T06:09:29.043Z</time></trkpt><trkpt lat="40.9207977" lon="9.4776051"><ele>11.5</ele><time>2026-04-21T06:09:30.049Z</time></trkpt><trkpt lat="40.9207623" lon="9.4774438"><ele>11.0</ele><time>2026-04-21T06:09:31.048Z</time></trkpt><trkpt lat="40.9207386" lon="9.4773021"><ele>10.5</ele><time>2026-04-21T06:09:32.046Z</time></trkpt><trkpt lat="40.9207139" lon="9.4771628"><ele>10.0</ele><time>2026-04-21T06:09:33.047Z</time></trkpt><trkpt lat="40.9206934" lon="9.4770245"><ele>10.0</ele><time>2026-04-21T06:09:34.04Z</time></trkpt><trkpt lat="40.9206759" lon="9.4768889"><ele>10.0</ele><time>2026-04-21T06:09:35.044Z</time></trkpt><trkpt lat="40.9206614" lon="9.476758"><ele>10.0</ele><time>2026-04-21T06:09:36.048Z</time></trkpt><trkpt lat="40.9206482" lon="9.476622"><ele>10.0</ele><time>2026-04-21T06:09:37.042Z</time></trkpt><trkpt lat="40.9206299" lon="9.4764728"><ele>10.0</ele><time>2026-04-21T06:09:38.04Z</time></trkpt><trkpt lat="40.9206054" lon="9.4763126"><ele>9.5</ele><time>2026-04-21T06:09:39.038Z</time></trkpt><trkpt lat="40.9205773" lon="9.4761396"><ele>9.0</ele><time>2026-04-21T06:09:40.043Z</time></trkpt><trkpt lat="40.9205484" lon="9.4759626"><ele>8.5</ele><time>2026-04-21T06:09:41.039Z</time></trkpt><trkpt lat="40.9205168" lon="9.4757748"><ele>8.0</ele><time>2026-04-21T06:09:42.041Z</time></trkpt><trkpt lat="40.9204821" lon="9.4755834"><ele>8.0</ele><time>2026-04-21T06:09:43.042Z</time></trkpt><trkpt lat="40.9204438" lon="9.4753838"><ele>8.0</ele><time>2026-04-21T06:09:44.043Z</time></trkpt><trkpt lat="40.9204033" lon="9.4751853"><ele>8.0</ele><time>2026-04-21T06:09:45.036Z</time></trkpt><trkpt lat="40.9203608" lon="9.4749904"><ele>8.0</ele><time>2026-04-21T06:09:46.041Z</time></trkpt><trkpt lat="40.9203168" lon="9.4747983"><ele>8.0</ele><time>2026-04-21T06:09:47.042Z</time></trkpt><trkpt lat="40.9202782" lon="9.4746133"><ele>8.0</ele><time>2026-04-21T06:09:48.039Z</time></trkpt><trkpt lat="40.9202405" lon="9.4744339"><ele>8.0</ele><time>2026-04-21T06:09:49.038Z</time></trkpt><trkpt lat="40.9202023" lon="9.4742523"><ele>8.25</ele><time>2026-04-21T06:09:50.04Z</time></trkpt><trkpt lat="40.9201668" lon="9.4740727"><ele>8.5</ele><time>2026-04-21T06:09:51.041Z</time></trkpt><trkpt lat="40.9201306" lon="9.473896"><ele>8.75</ele><time>2026-04-21T06:09:52.042Z</time></trkpt><trkpt lat="40.9200934" lon="9.4737182"><ele>9.0</ele><time>2026-04-21T06:09:53.046Z</time></trkpt><trkpt lat="40.9200563" lon="9.4735437"><ele>10.25</ele><time>2026-04-21T06:09:54.039Z</time></trkpt><trkpt lat="40.9200191" lon="9.4733692"><ele>11.5</ele><time>2026-04-21T06:09:55.031Z</time></trkpt><trkpt lat="40.9199801" lon="9.4731954"><ele>12.75</ele><time>2026-04-21T06:09:56.037Z</time></trkpt><trkpt lat="40.9199393" lon="9.4730246"><ele>14.0</ele><time>2026-04-21T06:09:57.033Z</time></trkpt><trkpt lat="40.9198938" lon="9.4728637"><ele>14.2</ele><time>2026-04-21T06:09:58.03Z</time></trkpt><trkpt lat="40.9198454" lon="9.4727139"><ele>14.399999999999999</ele><time>2026-04-21T06:09:59.032Z</time></trkpt><trkpt lat="40.9197975" lon="9.4725828"><ele>14.6</ele><time>2026-04-21T06:10:00.033Z</time></trkpt><trkpt lat="40.9197584" lon="9.4724734"><ele>14.8</ele><time>2026-04-21T06:10:01.031Z</time></trkpt><trkpt lat="40.9197265" lon="9.4723799"><ele>15.0</ele><time>2026-04-21T06:10:02.03Z</time></trkpt><trkpt lat="40.9197172" lon="9.4722276"><ele>15.0</ele><time>2026-04-21T06:10:04.027Z</time></trkpt><trkpt lat="40.919731" lon="9.47214"><ele>15.0</ele><time>2026-04-21T06:10:05.024Z</time></trkpt><trkpt lat="40.9197192" lon="9.4720325"><ele>15.0</ele><time>2026-04-21T06:10:06.014Z</time></trkpt><trkpt lat="40.9196844" lon="9.4719058"><ele>15.0</ele><time>2026-04-21T06:10:07.022Z</time></trkpt><trkpt lat="40.9196373" lon="9.4717631"><ele>15.0</ele><time>2026-04-21T06:10:07.931Z</time></trkpt><trkpt lat="40.9196013" lon="9.4716105"><ele>14.75</ele><time>2026-04-21T06:10:08.927Z</time></trkpt><trkpt lat="40.9195796" lon="9.4714311"><ele>14.5</ele><time>2026-04-21T06:10:09.937Z</time></trkpt><trkpt lat="40.9195692" lon="9.4712589"><ele>14.25</ele><time>2026-04-21T06:10:10.944Z</time></trkpt><trkpt lat="40.9195369" lon="9.4710768"><ele>14.0</ele><time>2026-04-21T06:10:11.945Z</time></trkpt><trkpt lat="40.9194995" lon="9.4708926"><ele>13.333333333333334</ele><time>2026-04-21T06:10:12.945Z</time></trkpt><trkpt lat="40.9194631" lon="9.4707007"><ele>12.666666666666668</ele><time>2026-04-21T06:10:13.953Z</time></trkpt><trkpt lat="40.919426" lon="9.4705116"><ele>12.0</ele><time>2026-04-21T06:10:14.952Z</time></trkpt><trkpt lat="40.9193719" lon="9.4703156"><ele>12.0</ele><time>2026-04-21T06:10:15.948Z</time></trkpt><trkpt lat="40.919345" lon="9.4701341"><ele>12.0</ele><time>2026-04-21T06:10:16.958Z</time></trkpt><trkpt lat="40.9193098" lon="9.4699563"><ele>12.0</ele><time>2026-04-21T06:10:17.948Z</time></trkpt><trkpt lat="40.9192832" lon="9.4697773"><ele>12.0</ele><time>2026-04-21T06:10:18.957Z</time></trkpt><trkpt lat="40.9192294" lon="9.4695901"><ele>12.25</ele><time>2026-04-21T06:10:19.954Z</time></trkpt><trkpt lat="40.919205" lon="9.4694037"><ele>12.5</ele><time>2026-04-21T06:10:20.952Z</time></trkpt><trkpt lat="40.9191654" lon="9.469207"><ele>12.75</ele><time>2026-04-21T06:10:21.949Z</time></trkpt><trkpt lat="40.9191239" lon="9.4690177"><ele>13.0</ele><time>2026-04-21T06:10:22.95Z</time></trkpt><trkpt lat="40.9190859" lon="9.4688371"><ele>13.666666666666666</ele><time>2026-04-21T06:10:23.955Z</time></trkpt><trkpt lat="40.919042" lon="9.4686515"><ele>14.333333333333332</ele><time>2026-04-21T06:10:24.946Z</time></trkpt><trkpt lat="40.9190095" lon="9.4684606"><ele>15.0</ele><time>2026-04-21T06:10:25.949Z</time></trkpt><trkpt lat="40.9189657" lon="9.4682628"><ele>15.0</ele><time>2026-04-21T06:10:26.953Z</time></trkpt><trkpt lat="40.918923" lon="9.4680605"><ele>15.0</ele><time>2026-04-21T06:10:27.953Z</time></trkpt><trkpt lat="40.9188975" lon="9.4678671"><ele>15.0</ele><time>2026-04-21T06:10:28.951Z</time></trkpt><trkpt lat="40.9188622" lon="9.467666"><ele>14.75</ele><time>2026-04-21T06:10:29.955Z</time></trkpt><trkpt lat="40.9188309" lon="9.4674733"><ele>14.5</ele><time>2026-04-21T06:10:30.956Z</time></trkpt><trkpt lat="40.9187891" lon="9.4672765"><ele>14.25</ele><time>2026-04-21T06:10:31.955Z</time></trkpt><trkpt lat="40.9187533" lon="9.4670895"><ele>14.0</ele><time>2026-04-21T06:10:32.956Z</time></trkpt><trkpt lat="40.9187371" lon="9.4668839"><ele>14.0</ele><time>2026-04-21T06:10:33.949Z</time></trkpt><trkpt lat="40.9187293" lon="9.4666814"><ele>14.0</ele><time>2026-04-21T06:10:34.952Z</time></trkpt><trkpt lat="40.9187383" lon="9.4664717"><ele>14.0</ele><time>2026-04-21T06:10:35.955Z</time></trkpt><trkpt lat="40.9187328" lon="9.466257"><ele>14.333333333333334</ele><time>2026-04-21T06:10:36.951Z</time></trkpt><trkpt lat="40.9187333" lon="9.4660455"><ele>14.666666666666668</ele><time>2026-04-21T06:10:37.955Z</time></trkpt><trkpt lat="40.918766" lon="9.4658347"><ele>15.0</ele><time>2026-04-21T06:10:38.952Z</time></trkpt><trkpt lat="40.9187934" lon="9.465632"><ele>15.0</ele><time>2026-04-21T06:10:39.952Z</time></trkpt><trkpt lat="40.9187966" lon="9.465441"><ele>15.0</ele><time>2026-04-21T06:10:40.95Z</time></trkpt><trkpt lat="40.9188285" lon="9.4652487"><ele>15.0</ele><time>2026-04-21T06:10:41.948Z</time></trkpt><trkpt lat="40.9188311" lon="9.4650387"><ele>15.0</ele><time>2026-04-21T06:10:42.952Z</time></trkpt><trkpt lat="40.91886" lon="9.4648183"><ele>15.0</ele><time>2026-04-21T06:10:43.954Z</time></trkpt><trkpt lat="40.9188998" lon="9.4646039"><ele>15.0</ele><time>2026-04-21T06:10:44.955Z</time></trkpt><trkpt lat="40.9189315" lon="9.4643938"><ele>15.666666666666668</ele><time>2026-04-21T06:10:45.951Z</time></trkpt><trkpt lat="40.9189567" lon="9.4641841"><ele>16.333333333333336</ele><time>2026-04-21T06:10:46.956Z</time></trkpt><trkpt lat="40.9189681" lon="9.4639649"><ele>17.0</ele><time>2026-04-21T06:10:47.956Z</time></trkpt><trkpt lat="40.918982" lon="9.4637412"><ele>17.666666666666668</ele><time>2026-04-21T06:10:48.958Z</time></trkpt><trkpt lat="40.9190243" lon="9.4635291"><ele>18.333333333333332</ele><time>2026-04-21T06:10:49.949Z</time></trkpt><trkpt lat="40.9190674" lon="9.4633101"><ele>19.0</ele><time>2026-04-21T06:10:50.949Z</time></trkpt><trkpt lat="40.9190708" lon="9.4630876"><ele>19.333333333333332</ele><time>2026-04-21T06:10:51.952Z</time></trkpt><trkpt lat="40.9190924" lon="9.46287"><ele>19.666666666666668</ele><time>2026-04-21T06:10:52.956Z</time></trkpt><trkpt lat="40.9190962" lon="9.4626495"><ele>20.0</ele><time>2026-04-21T06:10:53.957Z</time></trkpt><trkpt lat="40.9191394" lon="9.4624414"><ele>20.0</ele><time>2026-04-21T06:10:54.954Z</time></trkpt><trkpt lat="40.919168" lon="9.4622194"><ele>20.0</ele><time>2026-04-21T06:10:55.956Z</time></trkpt><trkpt lat="40.9191826" lon="9.4619927"><ele>20.0</ele><time>2026-04-21T06:10:56.955Z</time></trkpt><trkpt lat="40.9192165" lon="9.4617596"><ele>20.666666666666668</ele><time>2026-04-21T06:10:57.952Z</time></trkpt><trkpt lat="40.9192345" lon="9.4615358"><ele>21.333333333333332</ele><time>2026-04-21T06:10:58.954Z</time></trkpt><trkpt lat="40.9192536" lon="9.4613155"><ele>22.0</ele><time>2026-04-21T06:10:59.951Z</time></trkpt><trkpt lat="40.919285" lon="9.4610902"><ele>22.0</ele><time>2026-04-21T06:11:00.954Z</time></trkpt><trkpt lat="40.9193332" lon="9.4608659"><ele>22.0</ele><time>2026-04-21T06:11:01.954Z</time></trkpt><trkpt lat="40.9193719" lon="9.4606653"><ele>22.0</ele><time>2026-04-21T06:11:02.949Z</time></trkpt><trkpt lat="40.9193557" lon="9.4604794"><ele>21.8</ele><time>2026-04-21T06:11:03.955Z</time></trkpt><trkpt lat="40.9193695" lon="9.4603091"><ele>21.6</ele><time>2026-04-21T06:11:04.949Z</time></trkpt><trkpt lat="40.9193755" lon="9.4601637"><ele>21.400000000000002</ele><time>2026-04-21T06:11:05.938Z</time></trkpt><trkpt lat="40.9193904" lon="9.4600536"><ele>21.200000000000003</ele><time>2026-04-21T06:11:06.951Z</time></trkpt><trkpt lat="40.919426" lon="9.4599451"><ele>21.0</ele><time>2026-04-21T06:11:08.945Z</time></trkpt><trkpt lat="40.9194085" lon="9.4598538"><ele>21.0</ele><time>2026-04-21T06:11:10.951Z</time></trkpt><trkpt lat="40.9194353" lon="9.4596657"><ele>21.0</ele><time>2026-04-21T06:11:12.942Z</time></trkpt><trkpt lat="40.919451" lon="9.4595352"><ele>21.0</ele><time>2026-04-21T06:11:13.947Z</time></trkpt><trkpt lat="40.9194657" lon="9.4594048"><ele>21.0</ele><time>2026-04-21T06:11:14.947Z</time></trkpt><trkpt lat="40.9194768" lon="9.4592633"><ele>20.75</ele><time>2026-04-21T06:11:15.946Z</time></trkpt><trkpt lat="40.9194823" lon="9.4591168"><ele>20.5</ele><time>2026-04-21T06:11:16.946Z</time></trkpt><trkpt lat="40.9194861" lon="9.4589626"><ele>20.25</ele><time>2026-04-21T06:11:17.948Z</time></trkpt><trkpt lat="40.9195031" lon="9.458786"><ele>20.0</ele><time>2026-04-21T06:11:18.946Z</time></trkpt><trkpt lat="40.9195247" lon="9.4586008"><ele>20.0</ele><time>2026-04-21T06:11:19.937Z</time></trkpt><trkpt lat="40.9195439" lon="9.4583771"><ele>20.0</ele><time>2026-04-21T06:11:20.936Z</time></trkpt><trkpt lat="40.9195653" lon="9.4581165"><ele>20.0</ele><time>2026-04-21T06:11:21.95Z</time></trkpt><trkpt lat="40.9195994" lon="9.4579023"><ele>20.0</ele><time>2026-04-21T06:11:22.949Z</time></trkpt><trkpt lat="40.9196537" lon="9.4576885"><ele>20.0</ele><time>2026-04-21T06:11:23.952Z</time></trkpt><trkpt lat="40.9196979" lon="9.4574489"><ele>20.0</ele><time>2026-04-21T06:11:24.949Z</time></trkpt><trkpt lat="40.9197603" lon="9.4572236"><ele>19.666666666666668</ele><time>2026-04-21T06:11:25.964Z</time></trkpt><trkpt lat="40.9197742" lon="9.4569931"><ele>19.333333333333332</ele><time>2026-04-21T06:11:26.964Z</time></trkpt><trkpt lat="40.9197884" lon="9.4567619"><ele>19.0</ele><time>2026-04-21T06:11:27.962Z</time></trkpt><trkpt lat="40.9198004" lon="9.4565446"><ele>19.0</ele><time>2026-04-21T06:11:28.968Z</time></trkpt><trkpt lat="40.9198432" lon="9.4563341"><ele>19.0</ele><time>2026-04-21T06:11:29.959Z</time></trkpt><trkpt lat="40.9198706" lon="9.4561189"><ele>19.0</ele><time>2026-04-21T06:11:30.965Z</time></trkpt><trkpt lat="40.9198885" lon="9.4559456"><ele>19.0</ele><time>2026-04-21T06:11:31.963Z</time></trkpt><trkpt lat="40.9199137" lon="9.4557931"><ele>19.0</ele><time>2026-04-21T06:11:32.951Z</time></trkpt><trkpt lat="40.9199214" lon="9.4556504"><ele>19.0</ele><time>2026-04-21T06:11:33.962Z</time></trkpt><trkpt lat="40.919925" lon="9.4555384"><ele>19.0</ele><time>2026-04-21T06:11:34.948Z</time></trkpt><trkpt lat="40.919919" lon="9.4554546"><ele>19.0</ele><time>2026-04-21T06:11:35.949Z</time></trkpt><trkpt lat="40.919933" lon="9.4553693"><ele>19.0</ele><time>2026-04-21T06:11:36.958Z</time></trkpt><trkpt lat="40.9199303" lon="9.4552826"><ele>19.2</ele><time>2026-04-21T06:11:37.95Z</time></trkpt><trkpt lat="40.919936" lon="9.45514"><ele>19.4</ele><time>2026-04-21T06:11:39.959Z</time></trkpt><trkpt lat="40.9199407" lon="9.4550565"><ele>19.6</ele><time>2026-04-21T06:11:42.96Z</time></trkpt><trkpt lat="40.9199474" lon="9.4548919"><ele>19.8</ele><time>2026-04-21T06:12:47.966Z</time></trkpt><trkpt lat="40.9199571" lon="9.4547773"><ele>20.0</ele><time>2026-04-21T06:12:48.96Z</time></trkpt><trkpt lat="40.9199671" lon="9.4546497"><ele>20.5</ele><time>2026-04-21T06:12:49.961Z</time></trkpt><trkpt lat="40.9199901" lon="9.454503"><ele>21.0</ele><time>2026-04-21T06:12:50.969Z</time></trkpt><trkpt lat="40.9200108" lon="9.4543518"><ele>21.5</ele><time>2026-04-21T06:12:52.038Z</time></trkpt><trkpt lat="40.920029" lon="9.4541864"><ele>22.0</ele><time>2026-04-21T06:12:53.034Z</time></trkpt><trkpt lat="40.9200481" lon="9.4539977"><ele>21.333333333333332</ele><time>2026-04-21T06:12:54.035Z</time></trkpt><trkpt lat="40.9200687" lon="9.4538055"><ele>20.666666666666668</ele><time>2026-04-21T06:12:55.039Z</time></trkpt><trkpt lat="40.9200884" lon="9.4536006"><ele>20.0</ele><time>2026-04-21T06:12:56.036Z</time></trkpt><trkpt lat="40.920109" lon="9.4533798"><ele>20.0</ele><time>2026-04-21T06:12:57.033Z</time></trkpt><trkpt lat="40.9201318" lon="9.4531406"><ele>20.0</ele><time>2026-04-21T06:12:58.038Z</time></trkpt><trkpt lat="40.9201545" lon="9.4529029"><ele>20.0</ele><time>2026-04-21T06:12:59.045Z</time></trkpt><trkpt lat="40.920177" lon="9.4526571"><ele>20.333333333333336</ele><time>2026-04-21T06:13:00.044Z</time></trkpt><trkpt lat="40.9202021" lon="9.4524079"><ele>20.666666666666668</ele><time>2026-04-21T06:13:01.051Z</time></trkpt><trkpt lat="40.9202277" lon="9.4521561"><ele>21.0</ele><time>2026-04-21T06:13:02.044Z</time></trkpt><trkpt lat="40.9202595" lon="9.4518981"><ele>21.333333333333332</ele><time>2026-04-21T06:13:03.045Z</time></trkpt><trkpt lat="40.9202946" lon="9.4516335"><ele>21.666666666666664</ele><time>2026-04-21T06:13:04.05Z</time></trkpt><trkpt lat="40.9203238" lon="9.4513748"><ele>22.0</ele><time>2026-04-21T06:13:05.046Z</time></trkpt><trkpt lat="40.9203422" lon="9.4511203"><ele>22.0</ele><time>2026-04-21T06:13:06.045Z</time></trkpt><trkpt lat="40.9203501" lon="9.4508657"><ele>22.0</ele><time>2026-04-21T06:13:07.045Z</time></trkpt><trkpt lat="40.9203474" lon="9.4506076"><ele>22.0</ele><time>2026-04-21T06:13:08.041Z</time></trkpt><trkpt lat="40.920339" lon="9.450345"><ele>22.333333333333332</ele><time>2026-04-21T06:13:09.045Z</time></trkpt><trkpt lat="40.9203277" lon="9.4500786"><ele>22.666666666666668</ele><time>2026-04-21T06:13:10.042Z</time></trkpt><trkpt lat="40.9203155" lon="9.4498087"><ele>23.0</ele><time>2026-04-21T06:13:11.051Z</time></trkpt><trkpt lat="40.9203025" lon="9.4495381"><ele>23.0</ele><time>2026-04-21T06:13:12.044Z</time></trkpt><trkpt lat="40.9202865" lon="9.4492659"><ele>23.0</ele><time>2026-04-21T06:13:13.047Z</time></trkpt><trkpt lat="40.9202691" lon="9.4489937"><ele>23.0</ele><time>2026-04-21T06:13:14.043Z</time></trkpt><trkpt lat="40.9202511" lon="9.4487204"><ele>23.0</ele><time>2026-04-21T06:13:15.041Z</time></trkpt><trkpt lat="40.9202352" lon="9.4484445"><ele>23.0</ele><time>2026-04-21T06:13:16.044Z</time></trkpt><trkpt lat="40.9202206" lon="9.4481672"><ele>23.0</ele><time>2026-04-21T06:13:17.044Z</time></trkpt><trkpt lat="40.9202041" lon="9.4478882"><ele>23.333333333333336</ele><time>2026-04-21T06:13:18.044Z</time></trkpt><trkpt lat="40.9201883" lon="9.4476074"><ele>23.666666666666668</ele><time>2026-04-21T06:13:19.042Z</time></trkpt><trkpt lat="40.9201748" lon="9.4473266"><ele>24.0</ele><time>2026-04-21T06:13:20.042Z</time></trkpt><trkpt lat="40.9201628" lon="9.4470458"><ele>25.333333333333336</ele><time>2026-04-21T06:13:21.047Z</time></trkpt><trkpt lat="40.9201512" lon="9.4467662"><ele>26.666666666666668</ele><time>2026-04-21T06:13:22.046Z</time></trkpt><trkpt lat="40.9201404" lon="9.4464848"><ele>28.0</ele><time>2026-04-21T06:13:23.046Z</time></trkpt><trkpt lat="40.9201255" lon="9.4462057"><ele>28.0</ele><time>2026-04-21T06:13:24.047Z</time></trkpt><trkpt lat="40.9201103" lon="9.4459281"><ele>28.0</ele><time>2026-04-21T06:13:25.046Z</time></trkpt><trkpt lat="40.9200985" lon="9.4456504"><ele>28.0</ele><time>2026-04-21T06:13:26.035Z</time></trkpt><trkpt lat="40.9200871" lon="9.4453701"><ele>29.0</ele><time>2026-04-21T06:13:27.043Z</time></trkpt><trkpt lat="40.9200736" lon="9.4450872"><ele>30.0</ele><time>2026-04-21T06:13:28.043Z</time></trkpt><trkpt lat="40.9200577" lon="9.4448068"><ele>31.0</ele><time>2026-04-21T06:13:29.044Z</time></trkpt><trkpt lat="40.9200404" lon="9.4445254"><ele>31.666666666666668</ele><time>2026-04-21T06:13:30.047Z</time></trkpt><trkpt lat="40.9200257" lon="9.4442427"><ele>32.333333333333336</ele><time>2026-04-21T06:13:31.047Z</time></trkpt><trkpt lat="40.9200155" lon="9.4439628"><ele>33.0</ele><time>2026-04-21T06:13:32.045Z</time></trkpt><trkpt lat="40.9200044" lon="9.4436833"><ele>34.0</ele><time>2026-04-21T06:13:33.044Z</time></trkpt><trkpt lat="40.9199929" lon="9.4434037"><ele>35.0</ele><time>2026-04-21T06:13:34.043Z</time></trkpt><trkpt lat="40.9199815" lon="9.4431246"><ele>36.0</ele><time>2026-04-21T06:13:35.047Z</time></trkpt><trkpt lat="40.9199672" lon="9.4428464"><ele>36.666666666666664</ele><time>2026-04-21T06:13:36.047Z</time></trkpt><trkpt lat="40.9199572" lon="9.4425692"><ele>37.33333333333333</ele><time>2026-04-21T06:13:37.041Z</time></trkpt><trkpt lat="40.919949" lon="9.4423019"><ele>38.0</ele><time>2026-04-21T06:13:38.05Z</time></trkpt><trkpt lat="40.9199403" lon="9.4420373"><ele>38.0</ele><time>2026-04-21T06:13:39.046Z</time></trkpt><trkpt lat="40.9199277" lon="9.4417734"><ele>38.0</ele><time>2026-04-21T06:13:40.044Z</time></trkpt><trkpt lat="40.919917" lon="9.4415046"><ele>38.0</ele><time>2026-04-21T06:13:41.045Z</time></trkpt><trkpt lat="40.9199006" lon="9.4412422"><ele>37.666666666666664</ele><time>2026-04-21T06:13:42.045Z</time></trkpt><trkpt lat="40.9198715" lon="9.4409813"><ele>37.333333333333336</ele><time>2026-04-21T06:13:43.041Z</time></trkpt><trkpt lat="40.9198072" lon="9.4407346"><ele>37.0</ele><time>2026-04-21T06:13:44.033Z</time></trkpt><trkpt lat="40.9197223" lon="9.4405052"><ele>35.66666666666667</ele><time>2026-04-21T06:13:45.035Z</time></trkpt><trkpt lat="40.9196089" lon="9.4402815"><ele>34.333333333333336</ele><time>2026-04-21T06:13:46.023Z</time></trkpt><trkpt lat="40.9194869" lon="9.4400638"><ele>33.0</ele><time>2026-04-21T06:13:47.028Z</time></trkpt><trkpt lat="40.919357" lon="9.4398403"><ele>33.0</ele><time>2026-04-21T06:13:48.028Z</time></trkpt><trkpt lat="40.9192234" lon="9.4396169"><ele>33.0</ele><time>2026-04-21T06:13:49.032Z</time></trkpt><trkpt lat="40.9190888" lon="9.4393938"><ele>33.0</ele><time>2026-04-21T06:13:50.043Z</time></trkpt><trkpt lat="40.9189532" lon="9.4391723"><ele>33.0</ele><time>2026-04-21T06:13:51.044Z</time></trkpt><trkpt lat="40.9188213" lon="9.4389517"><ele>33.0</ele><time>2026-04-21T06:13:52.047Z</time></trkpt><trkpt lat="40.9186922" lon="9.4387362"><ele>33.0</ele><time>2026-04-21T06:13:53.045Z</time></trkpt><trkpt lat="40.9185618" lon="9.4385199"><ele>33.0</ele><time>2026-04-21T06:13:54.051Z</time></trkpt><trkpt lat="40.9184344" lon="9.438303"><ele>33.0</ele><time>2026-04-21T06:13:55.044Z</time></trkpt><trkpt lat="40.9183092" lon="9.438088"><ele>33.0</ele><time>2026-04-21T06:13:56.047Z</time></trkpt><trkpt lat="40.9181831" lon="9.4378757"><ele>33.666666666666664</ele><time>2026-04-21T06:13:57.044Z</time></trkpt><trkpt lat="40.9180556" lon="9.4376633"><ele>34.33333333333333</ele><time>2026-04-21T06:13:58.043Z</time></trkpt><trkpt lat="40.9179281" lon="9.4374466"><ele>35.0</ele><time>2026-04-21T06:13:59.043Z</time></trkpt><trkpt lat="40.9177995" lon="9.4372298"><ele>34.666666666666664</ele><time>2026-04-21T06:14:00.051Z</time></trkpt><trkpt lat="40.9176702" lon="9.4370167"><ele>34.333333333333336</ele><time>2026-04-21T06:14:01.055Z</time></trkpt><trkpt lat="40.917541" lon="9.4368063"><ele>34.0</ele><time>2026-04-21T06:14:02.045Z</time></trkpt><trkpt lat="40.917411" lon="9.4365973"><ele>34.333333333333336</ele><time>2026-04-21T06:14:03.052Z</time></trkpt><trkpt lat="40.9172796" lon="9.4363885"><ele>34.666666666666664</ele><time>2026-04-21T06:14:04.043Z</time></trkpt><trkpt lat="40.91715" lon="9.4361831"><ele>35.0</ele><time>2026-04-21T06:14:05.047Z</time></trkpt><trkpt lat="40.9170333" lon="9.4359798"><ele>35.0</ele><time>2026-04-21T06:14:06.047Z</time></trkpt><trkpt lat="40.9169321" lon="9.4357622"><ele>35.0</ele><time>2026-04-21T06:14:07.042Z</time></trkpt><trkpt lat="40.9168393" lon="9.4355336"><ele>35.0</ele><time>2026-04-21T06:14:08.035Z</time></trkpt><trkpt lat="40.9167649" lon="9.4352966"><ele>35.33333333333333</ele><time>2026-04-21T06:14:09.031Z</time></trkpt><trkpt lat="40.9166964" lon="9.4350413"><ele>35.666666666666664</ele><time>2026-04-21T06:14:10.032Z</time></trkpt><trkpt lat="40.91663" lon="9.4347783"><ele>36.0</ele><time>2026-04-21T06:14:11.037Z</time></trkpt><trkpt lat="40.9165658" lon="9.4345127"><ele>36.333333333333336</ele><time>2026-04-21T06:14:12.034Z</time></trkpt><trkpt lat="40.9165055" lon="9.4342454"><ele>36.66666666666667</ele><time>2026-04-21T06:14:13.043Z</time></trkpt><trkpt lat="40.9164477" lon="9.4339773"><ele>37.0</ele><time>2026-04-21T06:14:14.047Z</time></trkpt><trkpt lat="40.9163872" lon="9.4337047"><ele>38.0</ele><time>2026-04-21T06:14:15.042Z</time></trkpt><trkpt lat="40.9163234" lon="9.4334288"><ele>39.0</ele><time>2026-04-21T06:14:16.046Z</time></trkpt><trkpt lat="40.9162587" lon="9.4331548"><ele>40.0</ele><time>2026-04-21T06:14:17.04Z</time></trkpt><trkpt lat="40.9161939" lon="9.4328797"><ele>40.0</ele><time>2026-04-21T06:14:18.041Z</time></trkpt><trkpt lat="40.9161292" lon="9.4326091"><ele>40.0</ele><time>2026-04-21T06:14:19.033Z</time></trkpt><trkpt lat="40.9160646" lon="9.4323378"><ele>40.0</ele><time>2026-04-21T06:14:20.037Z</time></trkpt><trkpt lat="40.9159995" lon="9.4320677"><ele>40.0</ele><time>2026-04-21T06:14:21.036Z</time></trkpt><trkpt lat="40.9159367" lon="9.4317983"><ele>40.0</ele><time>2026-04-21T06:14:22.044Z</time></trkpt><trkpt lat="40.9158758" lon="9.4315292"><ele>40.0</ele><time>2026-04-21T06:14:23.041Z</time></trkpt><trkpt lat="40.915816" lon="9.4312594"><ele>40.66666666666667</ele><time>2026-04-21T06:14:24.047Z</time></trkpt><trkpt lat="40.9157552" lon="9.4309884"><ele>41.333333333333336</ele><time>2026-04-21T06:14:25.04Z</time></trkpt><trkpt lat="40.9156937" lon="9.4307187"><ele>42.0</ele><time>2026-04-21T06:14:26.041Z</time></trkpt><trkpt lat="40.9156306" lon="9.4304472"><ele>42.666666666666664</ele><time>2026-04-21T06:14:27.047Z</time></trkpt><trkpt lat="40.9155694" lon="9.4301791"><ele>43.33333333333333</ele><time>2026-04-21T06:14:28.04Z</time></trkpt><trkpt lat="40.9155068" lon="9.429909"><ele>44.0</ele><time>2026-04-21T06:14:29.051Z</time></trkpt><trkpt lat="40.9154451" lon="9.4296401"><ele>44.33333333333333</ele><time>2026-04-21T06:14:30.047Z</time></trkpt><trkpt lat="40.9153803" lon="9.4293704"><ele>44.666666666666664</ele><time>2026-04-21T06:14:31.041Z</time></trkpt><trkpt lat="40.915315" lon="9.4291042"><ele>45.0</ele><time>2026-04-21T06:14:32.051Z</time></trkpt><trkpt lat="40.9152493" lon="9.4288404"><ele>45.333333333333336</ele><time>2026-04-21T06:14:33.043Z</time></trkpt><trkpt lat="40.9151834" lon="9.428576"><ele>45.66666666666667</ele><time>2026-04-21T06:14:34.047Z</time></trkpt><trkpt lat="40.9151217" lon="9.4283113"><ele>46.0</ele><time>2026-04-21T06:14:35.047Z</time></trkpt><trkpt lat="40.9150594" lon="9.4280491"><ele>48.333333333333336</ele><time>2026-04-21T06:14:36.037Z</time></trkpt><trkpt lat="40.9149998" lon="9.4277864"><ele>50.66666666666667</ele><time>2026-04-21T06:14:37.044Z</time></trkpt><trkpt lat="40.9149404" lon="9.4275263"><ele>53.0</ele><time>2026-04-21T06:14:38.036Z</time></trkpt><trkpt lat="40.9148829" lon="9.4272665"><ele>53.66666666666667</ele><time>2026-04-21T06:14:39.038Z</time></trkpt><trkpt lat="40.9148255" lon="9.4270088"><ele>54.33333333333333</ele><time>2026-04-21T06:14:40.04Z</time></trkpt><trkpt lat="40.9147653" lon="9.4267487"><ele>55.0</ele><time>2026-04-21T06:14:41.045Z</time></trkpt><trkpt lat="40.9147031" lon="9.4264858"><ele>55.33333333333333</ele><time>2026-04-21T06:14:42.045Z</time></trkpt><trkpt lat="40.9146406" lon="9.4262228"><ele>55.66666666666667</ele><time>2026-04-21T06:14:43.042Z</time></trkpt><trkpt lat="40.9145767" lon="9.4259592"><ele>56.0</ele><time>2026-04-21T06:14:44.047Z</time></trkpt><trkpt lat="40.9145131" lon="9.4256982"><ele>56.0</ele><time>2026-04-21T06:14:45.038Z</time></trkpt><trkpt lat="40.9144499" lon="9.4254366"><ele>56.0</ele><time>2026-04-21T06:14:46.04Z</time></trkpt><trkpt lat="40.9143885" lon="9.425173"><ele>56.0</ele><time>2026-04-21T06:14:47.046Z</time></trkpt><trkpt lat="40.9143298" lon="9.4249146"><ele>56.0</ele><time>2026-04-21T06:14:48.041Z</time></trkpt><trkpt lat="40.9142711" lon="9.4246585"><ele>56.0</ele><time>2026-04-21T06:14:49.043Z</time></trkpt><trkpt lat="40.9142105" lon="9.4243923"><ele>56.0</ele><time>2026-04-21T06:14:50.042Z</time></trkpt><trkpt lat="40.9141515" lon="9.4241251"><ele>58.0</ele><time>2026-04-21T06:14:51.043Z</time></trkpt><trkpt lat="40.9140921" lon="9.423861"><ele>60.0</ele><time>2026-04-21T06:14:52.049Z</time></trkpt><trkpt lat="40.9140324" lon="9.4236046"><ele>62.0</ele><time>2026-04-21T06:14:53.04Z</time></trkpt><trkpt lat="40.9139733" lon="9.4233439"><ele>62.333333333333336</ele><time>2026-04-21T06:14:54.037Z</time></trkpt><trkpt lat="40.91391" lon="9.423078"><ele>62.66666666666667</ele><time>2026-04-21T06:14:55.037Z</time></trkpt><trkpt lat="40.9138452" lon="9.4228087"><ele>63.0</ele><time>2026-04-21T06:14:56.041Z</time></trkpt><trkpt lat="40.9137775" lon="9.4225392"><ele>63.66666666666667</ele><time>2026-04-21T06:14:57.045Z</time></trkpt><trkpt lat="40.9137088" lon="9.4222673"><ele>64.33333333333334</ele><time>2026-04-21T06:14:58.039Z</time></trkpt><trkpt lat="40.9136405" lon="9.4219928"><ele>65.0</ele><time>2026-04-21T06:14:59.042Z</time></trkpt><trkpt lat="40.9135717" lon="9.4217147"><ele>65.33333333333334</ele><time>2026-04-21T06:15:00.043Z</time></trkpt><trkpt lat="40.913506" lon="9.4214384"><ele>65.66666666666667</ele><time>2026-04-21T06:15:01.039Z</time></trkpt><trkpt lat="40.9134427" lon="9.4211602"><ele>66.0</ele><time>2026-04-21T06:15:02.04Z</time></trkpt><trkpt lat="40.913381" lon="9.4208841"><ele>65.0</ele><time>2026-04-21T06:15:03.032Z</time></trkpt><trkpt lat="40.9133221" lon="9.4206086"><ele>64.0</ele><time>2026-04-21T06:15:04.035Z</time></trkpt><trkpt lat="40.9132597" lon="9.4203361"><ele>63.0</ele><time>2026-04-21T06:15:05.035Z</time></trkpt><trkpt lat="40.9131992" lon="9.4200594"><ele>63.0</ele><time>2026-04-21T06:15:06.031Z</time></trkpt><trkpt lat="40.9131369" lon="9.419787"><ele>63.0</ele><time>2026-04-21T06:15:07.035Z</time></trkpt><trkpt lat="40.9130763" lon="9.4195164"><ele>63.0</ele><time>2026-04-21T06:15:08.03Z</time></trkpt><trkpt lat="40.9130122" lon="9.4192451"><ele>63.33333333333333</ele><time>2026-04-21T06:15:09.023Z</time></trkpt><trkpt lat="40.912949" lon="9.4189735"><ele>63.666666666666664</ele><time>2026-04-21T06:15:10.035Z</time></trkpt><trkpt lat="40.9128824" lon="9.418706"><ele>64.0</ele><time>2026-04-21T06:15:11.03Z</time></trkpt><trkpt lat="40.9128157" lon="9.418436"><ele>65.33333333333333</ele><time>2026-04-21T06:15:12.032Z</time></trkpt><trkpt lat="40.9127531" lon="9.4181641"><ele>66.66666666666667</ele><time>2026-04-21T06:15:13.029Z</time></trkpt><trkpt lat="40.9126901" lon="9.417893"><ele>68.0</ele><time>2026-04-21T06:15:14.037Z</time></trkpt><trkpt lat="40.9126253" lon="9.4176218"><ele>68.66666666666667</ele><time>2026-04-21T06:15:15.034Z</time></trkpt><trkpt lat="40.9125611" lon="9.4173535"><ele>69.33333333333333</ele><time>2026-04-21T06:15:16.031Z</time></trkpt><trkpt lat="40.9124975" lon="9.4170829"><ele>70.0</ele><time>2026-04-21T06:15:17.037Z</time></trkpt><trkpt lat="40.9124348" lon="9.416812"><ele>70.33333333333333</ele><time>2026-04-21T06:15:18.032Z</time></trkpt><trkpt lat="40.9123699" lon="9.4165404"><ele>70.66666666666667</ele><time>2026-04-21T06:15:19.033Z</time></trkpt><trkpt lat="40.9123042" lon="9.4162692"><ele>71.0</ele><time>2026-04-21T06:15:20.031Z</time></trkpt><trkpt lat="40.9122378" lon="9.4159978"><ele>72.33333333333334</ele><time>2026-04-21T06:15:21.033Z</time></trkpt><trkpt lat="40.9121731" lon="9.4157239"><ele>73.66666666666667</ele><time>2026-04-21T06:15:22.032Z</time></trkpt><trkpt lat="40.9121088" lon="9.4154459"><ele>75.0</ele><time>2026-04-21T06:15:23.032Z</time></trkpt><trkpt lat="40.9120464" lon="9.4151688"><ele>75.66666666666667</ele><time>2026-04-21T06:15:24.034Z</time></trkpt><trkpt lat="40.9119849" lon="9.414894"><ele>76.33333333333334</ele><time>2026-04-21T06:15:25.027Z</time></trkpt><trkpt lat="40.9119229" lon="9.4146207"><ele>77.0</ele><time>2026-04-21T06:15:26.034Z</time></trkpt><trkpt lat="40.91186" lon="9.4143494"><ele>77.66666666666667</ele><time>2026-04-21T06:15:27.031Z</time></trkpt><trkpt lat="40.9117937" lon="9.414078"><ele>78.33333333333333</ele><time>2026-04-21T06:15:28.028Z</time></trkpt><trkpt lat="40.9117299" lon="9.4138096"><ele>79.0</ele><time>2026-04-21T06:15:29.031Z</time></trkpt><trkpt lat="40.9116658" lon="9.4135352"><ele>79.66666666666666</ele><time>2026-04-21T06:15:30.032Z</time></trkpt><trkpt lat="40.9116054" lon="9.4132696"><ele>80.33333333333333</ele><time>2026-04-21T06:15:31.032Z</time></trkpt><trkpt lat="40.9115465" lon="9.4130028"><ele>81.0</ele><time>2026-04-21T06:15:32.033Z</time></trkpt><trkpt lat="40.9114869" lon="9.4127306"><ele>81.33333333333333</ele><time>2026-04-21T06:15:33.033Z</time></trkpt><trkpt lat="40.9114223" lon="9.4124563"><ele>81.66666666666666</ele><time>2026-04-21T06:15:34.033Z</time></trkpt><trkpt lat="40.9113601" lon="9.4121812"><ele>82.0</ele><time>2026-04-21T06:15:35.04Z</time></trkpt><trkpt lat="40.9112976" lon="9.4119039"><ele>82.33333333333333</ele><time>2026-04-21T06:15:36.029Z</time></trkpt><trkpt lat="40.9112309" lon="9.4116286"><ele>82.66666666666667</ele><time>2026-04-21T06:15:37.033Z</time></trkpt><trkpt lat="40.9111656" lon="9.4113531"><ele>83.0</ele><time>2026-04-21T06:15:38.031Z</time></trkpt><trkpt lat="40.9111021" lon="9.4110782"><ele>83.33333333333334</ele><time>2026-04-21T06:15:39.035Z</time></trkpt><trkpt lat="40.9110379" lon="9.4108064"><ele>83.66666666666667</ele><time>2026-04-21T06:15:40.035Z</time></trkpt><trkpt lat="40.9109713" lon="9.4105351"><ele>84.0</ele><time>2026-04-21T06:15:41.039Z</time></trkpt><trkpt lat="40.9109044" lon="9.4102605"><ele>85.0</ele><time>2026-04-21T06:15:42.035Z</time></trkpt><trkpt lat="40.9108404" lon="9.4099873"><ele>86.0</ele><time>2026-04-21T06:15:43.032Z</time></trkpt><trkpt lat="40.9107782" lon="9.4097143"><ele>87.0</ele><time>2026-04-21T06:15:44.033Z</time></trkpt><trkpt lat="40.9107161" lon="9.4094421"><ele>87.33333333333333</ele><time>2026-04-21T06:15:45.033Z</time></trkpt><trkpt lat="40.910655" lon="9.4091714"><ele>87.66666666666666</ele><time>2026-04-21T06:15:46.034Z</time></trkpt><trkpt lat="40.9105915" lon="9.408897"><ele>88.0</ele><time>2026-04-21T06:15:47.036Z</time></trkpt><trkpt lat="40.9105271" lon="9.4086233"><ele>88.33333333333333</ele><time>2026-04-21T06:15:48.045Z</time></trkpt><trkpt lat="40.9104654" lon="9.408353"><ele>88.66666666666667</ele><time>2026-04-21T06:15:49.034Z</time></trkpt><trkpt lat="40.9104012" lon="9.4080842"><ele>89.0</ele><time>2026-04-21T06:15:50.032Z</time></trkpt><trkpt lat="40.9103365" lon="9.4078131"><ele>89.66666666666667</ele><time>2026-04-21T06:15:51.022Z</time></trkpt><trkpt lat="40.9102717" lon="9.4075432"><ele>90.33333333333333</ele><time>2026-04-21T06:15:52.032Z</time></trkpt><trkpt lat="40.910209" lon="9.407273"><ele>91.0</ele><time>2026-04-21T06:15:53.034Z</time></trkpt><trkpt lat="40.9101437" lon="9.4070075"><ele>91.33333333333333</ele><time>2026-04-21T06:15:54.032Z</time></trkpt><trkpt lat="40.9100777" lon="9.4067398"><ele>91.66666666666667</ele><time>2026-04-21T06:15:55.029Z</time></trkpt><trkpt lat="40.910015" lon="9.4064667"><ele>92.0</ele><time>2026-04-21T06:15:56.025Z</time></trkpt><trkpt lat="40.9099525" lon="9.4061889"><ele>93.0</ele><time>2026-04-21T06:15:57.026Z</time></trkpt><trkpt lat="40.9098882" lon="9.4059105"><ele>94.0</ele><time>2026-04-21T06:15:58.027Z</time></trkpt><trkpt lat="40.9098209" lon="9.4056309"><ele>95.0</ele><time>2026-04-21T06:15:59.02Z</time></trkpt><trkpt lat="40.9097517" lon="9.4053493"><ele>96.33333333333334</ele><time>2026-04-21T06:16:00.027Z</time></trkpt><trkpt lat="40.909684" lon="9.4050674"><ele>97.66666666666667</ele><time>2026-04-21T06:16:01.02Z</time></trkpt><trkpt lat="40.9096199" lon="9.4047893"><ele>99.0</ele><time>2026-04-21T06:16:02.031Z</time></trkpt><trkpt lat="40.9095584" lon="9.4045157"><ele>99.33333333333334</ele><time>2026-04-21T06:16:03.031Z</time></trkpt><trkpt lat="40.9094925" lon="9.4042483"><ele>99.66666666666667</ele><time>2026-04-21T06:16:04.041Z</time></trkpt><trkpt lat="40.9094212" lon="9.4039876"><ele>100.0</ele><time>2026-04-21T06:16:05.025Z</time></trkpt><trkpt lat="40.9093372" lon="9.4037364"><ele>101.66666666666667</ele><time>2026-04-21T06:16:06.023Z</time></trkpt><trkpt lat="40.9092422" lon="9.4034948"><ele>103.33333333333334</ele><time>2026-04-21T06:16:07.016Z</time></trkpt><trkpt lat="40.9091366" lon="9.4032794"><ele>105.0</ele><time>2026-04-21T06:16:08.009Z</time></trkpt><trkpt lat="40.9090149" lon="9.4030864"><ele>106.66666666666666</ele><time>2026-04-21T06:16:08.995Z</time></trkpt><trkpt lat="40.9088792" lon="9.4029293"><ele>108.33333333333333</ele><time>2026-04-21T06:16:10.001Z</time></trkpt><trkpt lat="40.908734" lon="9.4027962"><ele>110.0</ele><time>2026-04-21T06:16:11.007Z</time></trkpt><trkpt lat="40.9085941" lon="9.402666"><ele>110.0</ele><time>2026-04-21T06:16:11.92Z</time></trkpt><trkpt lat="40.9084669" lon="9.4024733"><ele>110.0</ele><time>2026-04-21T06:16:12.928Z</time></trkpt><trkpt lat="40.9083124" lon="9.4023096"><ele>110.0</ele><time>2026-04-21T06:16:13.936Z</time></trkpt><trkpt lat="40.9081975" lon="9.4021483"><ele>111.0</ele><time>2026-04-21T06:16:14.925Z</time></trkpt><trkpt lat="40.9080576" lon="9.4020032"><ele>112.0</ele><time>2026-04-21T06:16:15.934Z</time></trkpt><trkpt lat="40.9079529" lon="9.4018146"><ele>113.0</ele><time>2026-04-21T06:16:16.934Z</time></trkpt><trkpt lat="40.907869" lon="9.4016187"><ele>113.0</ele><time>2026-04-21T06:16:17.929Z</time></trkpt><trkpt lat="40.907781" lon="9.4014281"><ele>113.0</ele><time>2026-04-21T06:16:18.927Z</time></trkpt><trkpt lat="40.9077164" lon="9.4012216"><ele>113.0</ele><time>2026-04-21T06:16:19.93Z</time></trkpt><trkpt lat="40.9076473" lon="9.401002"><ele>113.33333333333333</ele><time>2026-04-21T06:16:20.927Z</time></trkpt><trkpt lat="40.9075673" lon="9.4008029"><ele>113.66666666666666</ele><time>2026-04-21T06:16:21.93Z</time></trkpt><trkpt lat="40.9074638" lon="9.4006165"><ele>114.0</ele><time>2026-04-21T06:16:22.929Z</time></trkpt><trkpt lat="40.9073513" lon="9.4004373"><ele>116.66666666666666</ele><time>2026-04-21T06:16:23.932Z</time></trkpt><trkpt lat="40.9072929" lon="9.400235"><ele>119.33333333333333</ele><time>2026-04-21T06:16:24.926Z</time></trkpt><trkpt lat="40.9072536" lon="9.4000409"><ele>122.0</ele><time>2026-04-21T06:16:25.929Z</time></trkpt><trkpt lat="40.907219" lon="9.3998246"><ele>124.33333333333333</ele><time>2026-04-21T06:16:26.928Z</time></trkpt><trkpt lat="40.9071931" lon="9.39964"><ele>126.66666666666666</ele><time>2026-04-21T06:16:27.924Z</time></trkpt><trkpt lat="40.9070993" lon="9.3994691"><ele>129.0</ele><time>2026-04-21T06:16:28.937Z</time></trkpt><trkpt lat="40.9069794" lon="9.3993442"><ele>129.0</ele><time>2026-04-21T06:16:29.925Z</time></trkpt><trkpt lat="40.9068362" lon="9.3992194"><ele>129.0</ele><time>2026-04-21T06:16:30.922Z</time></trkpt><trkpt lat="40.9067246" lon="9.3990716"><ele>129.0</ele><time>2026-04-21T06:16:31.929Z</time></trkpt><trkpt lat="40.9066292" lon="9.3988855"><ele>130.0</ele><time>2026-04-21T06:16:32.931Z</time></trkpt><trkpt lat="40.9065068" lon="9.3986859"><ele>131.0</ele><time>2026-04-21T06:16:33.929Z</time></trkpt><trkpt lat="40.9064121" lon="9.3985412"><ele>132.0</ele><time>2026-04-21T06:16:34.928Z</time></trkpt><trkpt lat="40.9063472" lon="9.3983244"><ele>132.0</ele><time>2026-04-21T06:16:35.933Z</time></trkpt><trkpt lat="40.9063033" lon="9.3981056"><ele>132.0</ele><time>2026-04-21T06:16:36.933Z</time></trkpt><trkpt lat="40.9062556" lon="9.3978817"><ele>132.0</ele><time>2026-04-21T06:16:37.931Z</time></trkpt><trkpt lat="40.9062305" lon="9.3976785"><ele>133.25</ele><time>2026-04-21T06:16:38.939Z</time></trkpt><trkpt lat="40.9062217" lon="9.3974985"><ele>134.5</ele><time>2026-04-21T06:16:39.931Z</time></trkpt><trkpt lat="40.9062203" lon="9.3973231"><ele>135.75</ele><time>2026-04-21T06:16:40.934Z</time></trkpt><trkpt lat="40.9062499" lon="9.3971457"><ele>137.0</ele><time>2026-04-21T06:16:41.931Z</time></trkpt><trkpt lat="40.9062679" lon="9.3969657"><ele>137.5</ele><time>2026-04-21T06:16:42.932Z</time></trkpt><trkpt lat="40.9063075" lon="9.3968171"><ele>138.0</ele><time>2026-04-21T06:16:43.936Z</time></trkpt><trkpt lat="40.906357" lon="9.3966635"><ele>138.5</ele><time>2026-04-21T06:16:44.932Z</time></trkpt><trkpt lat="40.906388" lon="9.3965131"><ele>139.0</ele><time>2026-04-21T06:16:45.937Z</time></trkpt><trkpt lat="40.9064474" lon="9.396374"><ele>140.25</ele><time>2026-04-21T06:16:46.931Z</time></trkpt><trkpt lat="40.9064482" lon="9.3962257"><ele>141.5</ele><time>2026-04-21T06:16:47.927Z</time></trkpt><trkpt lat="40.9064407" lon="9.3960785"><ele>142.75</ele><time>2026-04-21T06:16:48.932Z</time></trkpt><trkpt lat="40.9064204" lon="9.3959242"><ele>144.0</ele><time>2026-04-21T06:16:49.925Z</time></trkpt><trkpt lat="40.906364" lon="9.3957768"><ele>144.0</ele><time>2026-04-21T06:16:50.938Z</time></trkpt><trkpt lat="40.9063027" lon="9.395623"><ele>144.0</ele><time>2026-04-21T06:16:51.938Z</time></trkpt><trkpt lat="40.9062472" lon="9.3954863"><ele>144.0</ele><time>2026-04-21T06:16:52.94Z</time></trkpt><trkpt lat="40.9061862" lon="9.3953623"><ele>144.0</ele><time>2026-04-21T06:16:53.931Z</time></trkpt><trkpt lat="40.9061013" lon="9.395259"><ele>144.0</ele><time>2026-04-21T06:16:54.936Z</time></trkpt><trkpt lat="40.9059896" lon="9.3951945"><ele>144.0</ele><time>2026-04-21T06:16:55.934Z</time></trkpt><trkpt lat="40.9058699" lon="9.3951518"><ele>144.0</ele><time>2026-04-21T06:16:56.945Z</time></trkpt><trkpt lat="40.905771" lon="9.3951052"><ele>144.0</ele><time>2026-04-21T06:16:57.937Z</time></trkpt><trkpt lat="40.905673" lon="9.3950297"><ele>144.25</ele><time>2026-04-21T06:16:58.944Z</time></trkpt><trkpt lat="40.9056018" lon="9.3949121"><ele>144.5</ele><time>2026-04-21T06:16:59.947Z</time></trkpt><trkpt lat="40.9055349" lon="9.394767"><ele>144.75</ele><time>2026-04-21T06:17:00.939Z</time></trkpt><trkpt lat="40.905486" lon="9.3945946"><ele>145.0</ele><time>2026-04-21T06:17:01.936Z</time></trkpt><trkpt lat="40.905437" lon="9.394403"><ele>145.0</ele><time>2026-04-21T06:17:02.932Z</time></trkpt><trkpt lat="40.9053793" lon="9.3942082"><ele>145.0</ele><time>2026-04-21T06:17:03.937Z</time></trkpt><trkpt lat="40.9053432" lon="9.3940302"><ele>145.0</ele><time>2026-04-21T06:17:04.931Z</time></trkpt><trkpt lat="40.9052659" lon="9.3939011"><ele>145.0</ele><time>2026-04-21T06:17:05.932Z</time></trkpt><trkpt lat="40.9051933" lon="9.3937872"><ele>145.75</ele><time>2026-04-21T06:17:06.936Z</time></trkpt><trkpt lat="40.9050913" lon="9.3936898"><ele>146.5</ele><time>2026-04-21T06:17:07.931Z</time></trkpt><trkpt lat="40.9049678" lon="9.3936344"><ele>147.25</ele><time>2026-04-21T06:17:08.946Z</time></trkpt><trkpt lat="40.9048401" lon="9.3936176"><ele>148.0</ele><time>2026-04-21T06:17:09.931Z</time></trkpt><trkpt lat="40.9046919" lon="9.3936229"><ele>148.0</ele><time>2026-04-21T06:17:10.933Z</time></trkpt><trkpt lat="40.9045487" lon="9.3936545"><ele>148.0</ele><time>2026-04-21T06:17:11.931Z</time></trkpt><trkpt lat="40.9044598" lon="9.3936827"><ele>148.0</ele><time>2026-04-21T06:17:12.938Z</time></trkpt><trkpt lat="40.9043947" lon="9.3936968"><ele>148.0</ele><time>2026-04-21T06:17:13.931Z</time></trkpt><trkpt lat="40.9043082" lon="9.3937181"><ele>148.0</ele><time>2026-04-21T06:17:15.93Z</time></trkpt><trkpt lat="40.904207" lon="9.3937556"><ele>148.0</ele><time>2026-04-21T06:17:17.939Z</time></trkpt><trkpt lat="40.9040852" lon="9.3937882"><ele>148.0</ele><time>2026-04-21T06:17:19.942Z</time></trkpt><trkpt lat="40.903973" lon="9.3937971"><ele>148.0</ele><time>2026-04-21T06:17:21.936Z</time></trkpt><trkpt lat="40.9039061" lon="9.3937918"><ele>148.0</ele><time>2026-04-21T06:17:22.945Z</time></trkpt><trkpt lat="40.9038245" lon="9.3937826"><ele>148.0</ele><time>2026-04-21T06:17:23.938Z</time></trkpt><trkpt lat="40.903727" lon="9.3937685"><ele>148.0</ele><time>2026-04-21T06:17:24.935Z</time></trkpt><trkpt lat="40.9036252" lon="9.393724"><ele>148.0</ele><time>2026-04-21T06:17:25.934Z</time></trkpt><trkpt lat="40.9035387" lon="9.3936526"><ele>148.0</ele><time>2026-04-21T06:17:26.932Z</time></trkpt><trkpt lat="40.9034427" lon="9.3935502"><ele>148.0</ele><time>2026-04-21T06:17:27.942Z</time></trkpt><trkpt lat="40.9033509" lon="9.3934161"><ele>149.25</ele><time>2026-04-21T06:17:28.931Z</time></trkpt><trkpt lat="40.9032879" lon="9.3932445"><ele>150.5</ele><time>2026-04-21T06:17:29.935Z</time></trkpt><trkpt lat="40.9032632" lon="9.3930527"><ele>151.75</ele><time>2026-04-21T06:17:30.928Z</time></trkpt><trkpt lat="40.903285" lon="9.3928496"><ele>153.0</ele><time>2026-04-21T06:17:31.936Z</time></trkpt><trkpt lat="40.9032998" lon="9.3926399"><ele>153.5</ele><time>2026-04-21T06:17:32.939Z</time></trkpt><trkpt lat="40.9033188" lon="9.3924445"><ele>154.0</ele><time>2026-04-21T06:17:33.931Z</time></trkpt><trkpt lat="40.9032615" lon="9.3922572"><ele>154.5</ele><time>2026-04-21T06:17:34.931Z</time></trkpt><trkpt lat="40.9031957" lon="9.3920859"><ele>155.0</ele><time>2026-04-21T06:17:35.931Z</time></trkpt><trkpt lat="40.9031339" lon="9.3919462"><ele>155.5</ele><time>2026-04-21T06:17:36.935Z</time></trkpt><trkpt lat="40.9030654" lon="9.3917865"><ele>156.0</ele><time>2026-04-21T06:17:37.929Z</time></trkpt><trkpt lat="40.9030703" lon="9.3915841"><ele>156.5</ele><time>2026-04-21T06:17:38.932Z</time></trkpt><trkpt lat="40.9031264" lon="9.3913943"><ele>157.0</ele><time>2026-04-21T06:17:39.93Z</time></trkpt><trkpt lat="40.9031856" lon="9.3911994"><ele>159.33333333333334</ele><time>2026-04-21T06:17:40.929Z</time></trkpt><trkpt lat="40.9032747" lon="9.391028"><ele>161.66666666666666</ele><time>2026-04-21T06:17:41.93Z</time></trkpt><trkpt lat="40.903374" lon="9.3908615"><ele>164.0</ele><time>2026-04-21T06:17:42.934Z</time></trkpt><trkpt lat="40.9034654" lon="9.3907094"><ele>164.0</ele><time>2026-04-21T06:17:43.939Z</time></trkpt><trkpt lat="40.9035604" lon="9.3905605"><ele>164.0</ele><time>2026-04-21T06:17:44.932Z</time></trkpt><trkpt lat="40.9036693" lon="9.3904115"><ele>164.0</ele><time>2026-04-21T06:17:45.933Z</time></trkpt><trkpt lat="40.9037615" lon="9.3902425"><ele>165.66666666666666</ele><time>2026-04-21T06:17:46.932Z</time></trkpt><trkpt lat="40.9038467" lon="9.3900715"><ele>167.33333333333334</ele><time>2026-04-21T06:17:47.928Z</time></trkpt><trkpt lat="40.9039184" lon="9.3898913"><ele>169.0</ele><time>2026-04-21T06:17:48.935Z</time></trkpt><trkpt lat="40.9039794" lon="9.3896826"><ele>171.0</ele><time>2026-04-21T06:17:49.931Z</time></trkpt><trkpt lat="40.9040243" lon="9.3894634"><ele>173.0</ele><time>2026-04-21T06:17:50.934Z</time></trkpt><trkpt lat="40.9040554" lon="9.3892437"><ele>175.0</ele><time>2026-04-21T06:17:51.93Z</time></trkpt><trkpt lat="40.9040568" lon="9.3890089"><ele>176.33333333333334</ele><time>2026-04-21T06:17:52.938Z</time></trkpt><trkpt lat="40.904035" lon="9.3887772"><ele>177.66666666666666</ele><time>2026-04-21T06:17:53.934Z</time></trkpt><trkpt lat="40.9039814" lon="9.3885692"><ele>179.0</ele><time>2026-04-21T06:17:54.925Z</time></trkpt><trkpt lat="40.9038519" lon="9.3884066"><ele>179.0</ele><time>2026-04-21T06:17:55.926Z</time></trkpt><trkpt lat="40.9037159" lon="9.3882618"><ele>179.0</ele><time>2026-04-21T06:17:56.927Z</time></trkpt><trkpt lat="40.9035745" lon="9.3881307"><ele>179.0</ele><time>2026-04-21T06:17:57.925Z</time></trkpt><trkpt lat="40.9034295" lon="9.3880278"><ele>180.0</ele><time>2026-04-21T06:17:58.926Z</time></trkpt><trkpt lat="40.9032624" lon="9.387923"><ele>181.0</ele><time>2026-04-21T06:17:59.933Z</time></trkpt><trkpt lat="40.9031343" lon="9.3877867"><ele>182.0</ele><time>2026-04-21T06:18:00.934Z</time></trkpt><trkpt lat="40.9029936" lon="9.3876861"><ele>182.0</ele><time>2026-04-21T06:18:01.929Z</time></trkpt><trkpt lat="40.9028555" lon="9.3875757"><ele>182.0</ele><time>2026-04-21T06:18:02.934Z</time></trkpt><trkpt lat="40.9027131" lon="9.3874951"><ele>182.0</ele><time>2026-04-21T06:18:03.93Z</time></trkpt><trkpt lat="40.9025754" lon="9.3874032"><ele>182.75</ele><time>2026-04-21T06:18:04.932Z</time></trkpt><trkpt lat="40.9024436" lon="9.3873448"><ele>183.5</ele><time>2026-04-21T06:18:05.93Z</time></trkpt><trkpt lat="40.9023044" lon="9.3873374"><ele>184.25</ele><time>2026-04-21T06:18:06.931Z</time></trkpt><trkpt lat="40.9021643" lon="9.3873061"><ele>185.0</ele><time>2026-04-21T06:18:07.933Z</time></trkpt><trkpt lat="40.9020074" lon="9.3872778"><ele>185.0</ele><time>2026-04-21T06:18:08.945Z</time></trkpt><trkpt lat="40.9018308" lon="9.3872336"><ele>185.0</ele><time>2026-04-21T06:18:09.937Z</time></trkpt><trkpt lat="40.9016567" lon="9.3871972"><ele>185.0</ele><time>2026-04-21T06:18:10.944Z</time></trkpt><trkpt lat="40.9014676" lon="9.3871646"><ele>186.75</ele><time>2026-04-21T06:18:11.945Z</time></trkpt><trkpt lat="40.9013257" lon="9.3871206"><ele>188.5</ele><time>2026-04-21T06:18:12.942Z</time></trkpt><trkpt lat="40.9012103" lon="9.3870785"><ele>190.25</ele><time>2026-04-21T06:18:13.969Z</time></trkpt><trkpt lat="40.9010752" lon="9.3870485"><ele>192.0</ele><time>2026-04-21T06:18:14.957Z</time></trkpt><trkpt lat="40.9009554" lon="9.3870269"><ele>192.5</ele><time>2026-04-21T06:18:15.957Z</time></trkpt><trkpt lat="40.9008405" lon="9.3870112"><ele>193.0</ele><time>2026-04-21T06:18:16.961Z</time></trkpt><trkpt lat="40.9007169" lon="9.3869799"><ele>193.5</ele><time>2026-04-21T06:18:17.959Z</time></trkpt><trkpt lat="40.9006238" lon="9.3869708"><ele>194.0</ele><time>2026-04-21T06:18:18.961Z</time></trkpt><trkpt lat="40.9004952" lon="9.3869394"><ele>194.0</ele><time>2026-04-21T06:18:19.959Z</time></trkpt><trkpt lat="40.9003429" lon="9.3869164"><ele>194.0</ele><time>2026-04-21T06:18:20.964Z</time></trkpt><trkpt lat="40.9001921" lon="9.3868846"><ele>194.0</ele><time>2026-04-21T06:18:21.97Z</time></trkpt><trkpt lat="40.9000495" lon="9.3868499"><ele>193.33333333333334</ele><time>2026-04-21T06:18:22.967Z</time></trkpt><trkpt lat="40.8998968" lon="9.3868038"><ele>192.66666666666669</ele><time>2026-04-21T06:18:23.969Z</time></trkpt><trkpt lat="40.8997405" lon="9.3867499"><ele>192.0</ele><time>2026-04-21T06:18:24.969Z</time></trkpt><trkpt lat="40.899585" lon="9.3867231"><ele>192.0</ele><time>2026-04-21T06:18:25.964Z</time></trkpt><trkpt lat="40.8994073" lon="9.386707"><ele>192.0</ele><time>2026-04-21T06:18:26.969Z</time></trkpt><trkpt lat="40.8992551" lon="9.3866783"><ele>192.0</ele><time>2026-04-21T06:18:28.044Z</time></trkpt><trkpt lat="40.8990947" lon="9.3866434"><ele>192.0</ele><time>2026-04-21T06:18:29.047Z</time></trkpt><trkpt lat="40.8989324" lon="9.3866107"><ele>192.0</ele><time>2026-04-21T06:18:30.048Z</time></trkpt><trkpt lat="40.8987679" lon="9.386577"><ele>192.0</ele><time>2026-04-21T06:18:31.051Z</time></trkpt><trkpt lat="40.8985983" lon="9.386539"><ele>192.0</ele><time>2026-04-21T06:18:32.04Z</time></trkpt><trkpt lat="40.8984141" lon="9.3865006"><ele>192.0</ele><time>2026-04-21T06:18:33.048Z</time></trkpt><trkpt lat="40.8982415" lon="9.3864621"><ele>192.0</ele><time>2026-04-21T06:18:34.042Z</time></trkpt><trkpt lat="40.8980666" lon="9.3864171"><ele>192.0</ele><time>2026-04-21T06:18:35.04Z</time></trkpt><trkpt lat="40.897911" lon="9.3863556"><ele>192.0</ele><time>2026-04-21T06:18:36.034Z</time></trkpt><trkpt lat="40.8977421" lon="9.3862757"><ele>192.0</ele><time>2026-04-21T06:18:37.034Z</time></trkpt><trkpt lat="40.897578" lon="9.38619"><ele>191.33333333333334</ele><time>2026-04-21T06:18:38.027Z</time></trkpt><trkpt lat="40.8974099" lon="9.3861084"><ele>190.66666666666669</ele><time>2026-04-21T06:18:39.027Z</time></trkpt><trkpt lat="40.8972461" lon="9.3860242"><ele>190.0</ele><time>2026-04-21T06:18:40.033Z</time></trkpt><trkpt lat="40.8970829" lon="9.3859391"><ele>190.0</ele><time>2026-04-21T06:18:41.033Z</time></trkpt><trkpt lat="40.8969244" lon="9.3858541"><ele>190.0</ele><time>2026-04-21T06:18:42.04Z</time></trkpt><trkpt lat="40.89677" lon="9.3857727"><ele>190.0</ele><time>2026-04-21T06:18:43.043Z</time></trkpt><trkpt lat="40.8966125" lon="9.3856895"><ele>190.0</ele><time>2026-04-21T06:18:44.037Z</time></trkpt><trkpt lat="40.8964547" lon="9.3856095"><ele>190.0</ele><time>2026-04-21T06:18:45.045Z</time></trkpt><trkpt lat="40.8963" lon="9.3855283"><ele>190.0</ele><time>2026-04-21T06:18:46.045Z</time></trkpt><trkpt lat="40.8961556" lon="9.3854399"><ele>189.33333333333334</ele><time>2026-04-21T06:18:46.957Z</time></trkpt><trkpt lat="40.8960164" lon="9.3852935"><ele>188.66666666666666</ele><time>2026-04-21T06:18:47.952Z</time></trkpt><trkpt lat="40.8958781" lon="9.3851243"><ele>188.0</ele><time>2026-04-21T06:18:48.949Z</time></trkpt><trkpt lat="40.8957614" lon="9.3849368"><ele>188.0</ele><time>2026-04-21T06:18:49.953Z</time></trkpt><trkpt lat="40.8956415" lon="9.3847702"><ele>188.0</ele><time>2026-04-21T06:18:50.952Z</time></trkpt><trkpt lat="40.8955014" lon="9.3846003"><ele>188.0</ele><time>2026-04-21T06:18:51.954Z</time></trkpt><trkpt lat="40.8953826" lon="9.3844288"><ele>188.33333333333331</ele><time>2026-04-21T06:18:52.96Z</time></trkpt><trkpt lat="40.8952667" lon="9.3842621"><ele>188.66666666666666</ele><time>2026-04-21T06:18:53.953Z</time></trkpt><trkpt lat="40.8951412" lon="9.3840912"><ele>189.0</ele><time>2026-04-21T06:18:54.958Z</time></trkpt><trkpt lat="40.8950094" lon="9.3839426"><ele>191.66666666666669</ele><time>2026-04-21T06:18:55.952Z</time></trkpt><trkpt lat="40.8948635" lon="9.3837783"><ele>194.33333333333334</ele><time>2026-04-21T06:18:56.955Z</time></trkpt><trkpt lat="40.8947185" lon="9.3836161"><ele>197.0</ele><time>2026-04-21T06:18:57.955Z</time></trkpt><trkpt lat="40.8946035" lon="9.3834396"><ele>197.0</ele><time>2026-04-21T06:18:58.957Z</time></trkpt><trkpt lat="40.8944722" lon="9.3832627"><ele>197.0</ele><time>2026-04-21T06:18:59.953Z</time></trkpt><trkpt lat="40.8943576" lon="9.3830867"><ele>197.0</ele><time>2026-04-21T06:19:00.96Z</time></trkpt><trkpt lat="40.8942312" lon="9.3829238"><ele>198.33333333333334</ele><time>2026-04-21T06:19:01.952Z</time></trkpt><trkpt lat="40.8941195" lon="9.3827603"><ele>199.66666666666669</ele><time>2026-04-21T06:19:02.956Z</time></trkpt><trkpt lat="40.8940369" lon="9.3825959"><ele>201.0</ele><time>2026-04-21T06:19:03.943Z</time></trkpt><trkpt lat="40.8939948" lon="9.3823997"><ele>202.33333333333331</ele><time>2026-04-21T06:19:04.939Z</time></trkpt><trkpt lat="40.8939568" lon="9.3821709"><ele>203.66666666666666</ele><time>2026-04-21T06:19:05.943Z</time></trkpt><trkpt lat="40.8939494" lon="9.3819307"><ele>205.0</ele><time>2026-04-21T06:19:06.939Z</time></trkpt><trkpt lat="40.8939544" lon="9.3816941"><ele>205.0</ele><time>2026-04-21T06:19:07.946Z</time></trkpt><trkpt lat="40.8939316" lon="9.3814699"><ele>205.0</ele><time>2026-04-21T06:19:08.935Z</time></trkpt><trkpt lat="40.8939015" lon="9.3812463"><ele>205.0</ele><time>2026-04-21T06:19:09.938Z</time></trkpt><trkpt lat="40.8938567" lon="9.3810368"><ele>206.33333333333331</ele><time>2026-04-21T06:19:10.94Z</time></trkpt><trkpt lat="40.8937888" lon="9.3808549"><ele>207.66666666666669</ele><time>2026-04-21T06:19:11.94Z</time></trkpt><trkpt lat="40.8936753" lon="9.3806896"><ele>209.0</ele><time>2026-04-21T06:19:12.946Z</time></trkpt><trkpt lat="40.8935519" lon="9.3805247"><ele>209.0</ele><time>2026-04-21T06:19:13.945Z</time></trkpt><trkpt lat="40.8934157" lon="9.3803822"><ele>209.0</ele><time>2026-04-21T06:19:14.942Z</time></trkpt><trkpt lat="40.8933113" lon="9.3802096"><ele>209.0</ele><time>2026-04-21T06:19:15.953Z</time></trkpt><trkpt lat="40.8932023" lon="9.3800596"><ele>209.0</ele><time>2026-04-21T06:19:16.953Z</time></trkpt><trkpt lat="40.8930837" lon="9.3798963"><ele>209.0</ele><time>2026-04-21T06:19:17.953Z</time></trkpt><trkpt lat="40.8929883" lon="9.3797586"><ele>209.0</ele><time>2026-04-21T06:19:18.953Z</time></trkpt><trkpt lat="40.8928917" lon="9.3796079"><ele>208.0</ele><time>2026-04-21T06:19:19.952Z</time></trkpt><trkpt lat="40.8927948" lon="9.3794819"><ele>207.0</ele><time>2026-04-21T06:19:20.947Z</time></trkpt><trkpt lat="40.8927269" lon="9.379348"><ele>206.0</ele><time>2026-04-21T06:19:21.945Z</time></trkpt><trkpt lat="40.8926912" lon="9.3792027"><ele>205.0</ele><time>2026-04-21T06:19:22.955Z</time></trkpt><trkpt lat="40.8926911" lon="9.3790489"><ele>205.0</ele><time>2026-04-21T06:19:23.942Z</time></trkpt><trkpt lat="40.8926965" lon="9.3788727"><ele>205.0</ele><time>2026-04-21T06:19:24.947Z</time></trkpt><trkpt lat="40.892702" lon="9.3786947"><ele>205.0</ele><time>2026-04-21T06:19:25.939Z</time></trkpt><trkpt lat="40.8926757" lon="9.3785152"><ele>205.0</ele><time>2026-04-21T06:19:26.94Z</time></trkpt><trkpt lat="40.8926148" lon="9.3783787"><ele>208.0</ele><time>2026-04-21T06:19:27.944Z</time></trkpt><trkpt lat="40.8925667" lon="9.3782461"><ele>211.0</ele><time>2026-04-21T06:19:28.942Z</time></trkpt><trkpt lat="40.8924989" lon="9.378105"><ele>214.0</ele><time>2026-04-21T06:19:29.943Z</time></trkpt><trkpt lat="40.8924312" lon="9.3779766"><ele>217.0</ele><time>2026-04-21T06:19:30.937Z</time></trkpt><trkpt lat="40.8923642" lon="9.3778688"><ele>217.2</ele><time>2026-04-21T06:19:31.936Z</time></trkpt><trkpt lat="40.8922911" lon="9.377797"><ele>217.39999999999998</ele><time>2026-04-21T06:19:32.948Z</time></trkpt><trkpt lat="40.8922033" lon="9.3777737"><ele>217.60000000000002</ele><time>2026-04-21T06:19:33.945Z</time></trkpt><trkpt lat="40.8920967" lon="9.3778092"><ele>217.8</ele><time>2026-04-21T06:19:34.947Z</time></trkpt><trkpt lat="40.8919937" lon="9.3778792"><ele>218.0</ele><time>2026-04-21T06:19:35.946Z</time></trkpt><trkpt lat="40.8919068" lon="9.3779766"><ele>217.8</ele><time>2026-04-21T06:19:36.942Z</time></trkpt><trkpt lat="40.8918426" lon="9.3780794"><ele>217.60000000000002</ele><time>2026-04-21T06:19:37.939Z</time></trkpt><trkpt lat="40.8918056" lon="9.378194"><ele>217.39999999999998</ele><time>2026-04-21T06:19:38.947Z</time></trkpt><trkpt lat="40.8917776" lon="9.3783056"><ele>217.2</ele><time>2026-04-21T06:19:39.944Z</time></trkpt><trkpt lat="40.8917243" lon="9.3783987"><ele>217.0</ele><time>2026-04-21T06:19:40.935Z</time></trkpt><trkpt lat="40.891653" lon="9.3784688"><ele>218.8</ele><time>2026-04-21T06:19:41.94Z</time></trkpt><trkpt lat="40.8915612" lon="9.3784656"><ele>220.6</ele><time>2026-04-21T06:19:42.937Z</time></trkpt><trkpt lat="40.8914585" lon="9.3784122"><ele>222.40000000000003</ele><time>2026-04-21T06:19:43.935Z</time></trkpt><trkpt lat="40.8913851" lon="9.3783237"><ele>224.20000000000002</ele><time>2026-04-21T06:19:44.931Z</time></trkpt><trkpt lat="40.8913278" lon="9.3782111"><ele>226.0</ele><time>2026-04-21T06:19:45.931Z</time></trkpt><trkpt lat="40.8912893" lon="9.3780625"><ele>225.0</ele><time>2026-04-21T06:19:46.938Z</time></trkpt><trkpt lat="40.8912574" lon="9.3778928"><ele>224.0</ele><time>2026-04-21T06:19:47.94Z</time></trkpt><trkpt lat="40.8912484" lon="9.3777114"><ele>223.0</ele><time>2026-04-21T06:19:48.941Z</time></trkpt><trkpt lat="40.8912377" lon="9.377547"><ele>222.0</ele><time>2026-04-21T06:19:49.941Z</time></trkpt><trkpt lat="40.8912187" lon="9.3773916"><ele>222.0</ele><time>2026-04-21T06:19:50.94Z</time></trkpt><trkpt lat="40.891201" lon="9.3772426"><ele>222.0</ele><time>2026-04-21T06:19:51.945Z</time></trkpt><trkpt lat="40.8911722" lon="9.3770983"><ele>222.0</ele><time>2026-04-21T06:19:52.945Z</time></trkpt><trkpt lat="40.8911385" lon="9.3769559"><ele>222.0</ele><time>2026-04-21T06:19:53.947Z</time></trkpt><trkpt lat="40.8910906" lon="9.3768263"><ele>222.0</ele><time>2026-04-21T06:19:54.933Z</time></trkpt><trkpt lat="40.891037" lon="9.3767293"><ele>222.33333333333334</ele><time>2026-04-21T06:19:55.934Z</time></trkpt><trkpt lat="40.8909716" lon="9.3766642"><ele>222.66666666666669</ele><time>2026-04-21T06:19:56.945Z</time></trkpt><trkpt lat="40.8908965" lon="9.3766659"><ele>223.0</ele><time>2026-04-21T06:19:57.943Z</time></trkpt><trkpt lat="40.8908145" lon="9.3767223"><ele>223.33333333333334</ele><time>2026-04-21T06:19:58.941Z</time></trkpt><trkpt lat="40.8907536" lon="9.3768203"><ele>223.66666666666669</ele><time>2026-04-21T06:19:59.944Z</time></trkpt><trkpt lat="40.8907415" lon="9.3769515"><ele>224.0</ele><time>2026-04-21T06:20:00.942Z</time></trkpt><trkpt lat="40.8907637" lon="9.3770645"><ele>225.66666666666669</ele><time>2026-04-21T06:20:01.929Z</time></trkpt><trkpt lat="40.89079" lon="9.3771791"><ele>227.33333333333334</ele><time>2026-04-21T06:20:02.928Z</time></trkpt><trkpt lat="40.8908301" lon="9.3772847"><ele>229.0</ele><time>2026-04-21T06:20:03.936Z</time></trkpt><trkpt lat="40.8908713" lon="9.3773899"><ele>230.66666666666669</ele><time>2026-04-21T06:20:04.929Z</time></trkpt><trkpt lat="40.890884" lon="9.3774977"><ele>232.33333333333334</ele><time>2026-04-21T06:20:05.927Z</time></trkpt><trkpt lat="40.8908631" lon="9.3776147"><ele>234.0</ele><time>2026-04-21T06:20:06.938Z</time></trkpt><trkpt lat="40.8907996" lon="9.3777387"><ele>234.0</ele><time>2026-04-21T06:20:07.925Z</time></trkpt><trkpt lat="40.8907072" lon="9.3778539"><ele>234.0</ele><time>2026-04-21T06:20:08.94Z</time></trkpt><trkpt lat="40.890594" lon="9.3779591"><ele>234.0</ele><time>2026-04-21T06:20:09.929Z</time></trkpt><trkpt lat="40.8904807" lon="9.3780431"><ele>234.0</ele><time>2026-04-21T06:20:10.928Z</time></trkpt><trkpt lat="40.890359" lon="9.3781192"><ele>234.25</ele><time>2026-04-21T06:20:11.931Z</time></trkpt><trkpt lat="40.8902354" lon="9.3781808"><ele>234.5</ele><time>2026-04-21T06:20:12.935Z</time></trkpt><trkpt lat="40.8901092" lon="9.3782147"><ele>234.75</ele><time>2026-04-21T06:20:13.942Z</time></trkpt><trkpt lat="40.8899853" lon="9.3782369"><ele>235.0</ele><time>2026-04-21T06:20:14.937Z</time></trkpt><trkpt lat="40.8898634" lon="9.3782539"><ele>237.0</ele><time>2026-04-21T06:20:15.945Z</time></trkpt><trkpt lat="40.8897415" lon="9.3782492"><ele>239.0</ele><time>2026-04-21T06:20:16.943Z</time></trkpt><trkpt lat="40.8895998" lon="9.3782179"><ele>241.0</ele><time>2026-04-21T06:20:17.94Z</time></trkpt><trkpt lat="40.8894487" lon="9.3781485"><ele>243.0</ele><time>2026-04-21T06:20:18.947Z</time></trkpt><trkpt lat="40.8892195" lon="9.3780306"><ele>246.5</ele><time>2026-04-21T06:20:19.944Z</time></trkpt><trkpt lat="40.8889825" lon="9.377868"><ele>250.0</ele><time>2026-04-21T06:20:20.944Z</time></trkpt><trkpt lat="40.8887539" lon="9.3777097"><ele>250.0</ele><time>2026-04-21T06:20:21.939Z</time></trkpt><trkpt lat="40.888495" lon="9.3775416"><ele>250.0</ele><time>2026-04-21T06:20:22.946Z</time></trkpt><trkpt lat="40.8882528" lon="9.3773856"><ele>249.5</ele><time>2026-04-21T06:20:23.941Z</time></trkpt><trkpt lat="40.8880411" lon="9.3772338"><ele>249.0</ele><time>2026-04-21T06:20:24.94Z</time></trkpt><trkpt lat="40.8878434" lon="9.3771064"><ele>251.0</ele><time>2026-04-21T06:20:25.939Z</time></trkpt><trkpt lat="40.8876737" lon="9.3769658"><ele>253.0</ele><time>2026-04-21T06:20:26.938Z</time></trkpt><trkpt lat="40.8874922" lon="9.3768276"><ele>255.0</ele><time>2026-04-21T06:20:27.94Z</time></trkpt><trkpt lat="40.8873395" lon="9.376689"><ele>255.0</ele><time>2026-04-21T06:20:28.939Z</time></trkpt><trkpt lat="40.8871835" lon="9.3765469"><ele>255.0</ele><time>2026-04-21T06:20:29.939Z</time></trkpt><trkpt lat="40.8870455" lon="9.3764038"><ele>255.0</ele><time>2026-04-21T06:20:30.944Z</time></trkpt><trkpt lat="40.8868976" lon="9.3762571"><ele>256.0</ele><time>2026-04-21T06:20:31.939Z</time></trkpt><trkpt lat="40.8867715" lon="9.3760567"><ele>257.0</ele><time>2026-04-21T06:20:32.945Z</time></trkpt><trkpt lat="40.8866165" lon="9.3758997"><ele>258.0</ele><time>2026-04-21T06:20:33.949Z</time></trkpt><trkpt lat="40.8864519" lon="9.3757375"><ele>258.0</ele><time>2026-04-21T06:20:34.945Z</time></trkpt><trkpt lat="40.8862841" lon="9.3755976"><ele>258.0</ele><time>2026-04-21T06:20:35.945Z</time></trkpt><trkpt lat="40.8861146" lon="9.3754951"><ele>258.0</ele><time>2026-04-21T06:20:36.945Z</time></trkpt><trkpt lat="40.8859422" lon="9.3753448"><ele>259.3333333333333</ele><time>2026-04-21T06:20:37.945Z</time></trkpt><trkpt lat="40.8857697" lon="9.3751839"><ele>260.66666666666663</ele><time>2026-04-21T06:20:38.947Z</time></trkpt><trkpt lat="40.885612" lon="9.3750364"><ele>262.0</ele><time>2026-04-21T06:20:39.943Z</time></trkpt><trkpt lat="40.8854696" lon="9.3748809"><ele>262.0</ele><time>2026-04-21T06:20:40.942Z</time></trkpt><trkpt lat="40.8853069" lon="9.3747592"><ele>262.0</ele><time>2026-04-21T06:20:41.943Z</time></trkpt><trkpt lat="40.8851459" lon="9.3746701"><ele>262.0</ele><time>2026-04-21T06:20:42.946Z</time></trkpt><trkpt lat="40.884953" lon="9.3745907"><ele>263.66666666666663</ele><time>2026-04-21T06:20:43.945Z</time></trkpt><trkpt lat="40.8847629" lon="9.3745212"><ele>265.3333333333333</ele><time>2026-04-21T06:20:44.941Z</time></trkpt><trkpt lat="40.8845664" lon="9.3744307"><ele>267.0</ele><time>2026-04-21T06:20:45.937Z</time></trkpt><trkpt lat="40.8843846" lon="9.3742799"><ele>266.6666666666667</ele><time>2026-04-21T06:20:46.939Z</time></trkpt><trkpt lat="40.8842256" lon="9.3741072"><ele>266.33333333333337</ele><time>2026-04-21T06:20:47.939Z</time></trkpt><trkpt lat="40.8840784" lon="9.373909"><ele>266.0</ele><time>2026-04-21T06:20:48.94Z</time></trkpt><trkpt lat="40.8838918" lon="9.3737087"><ele>265.0</ele><time>2026-04-21T06:20:49.943Z</time></trkpt><trkpt lat="40.883711" lon="9.3735049"><ele>264.0</ele><time>2026-04-21T06:20:50.943Z</time></trkpt><trkpt lat="40.8835734" lon="9.3732999"><ele>263.0</ele><time>2026-04-21T06:20:51.946Z</time></trkpt><trkpt lat="40.8834206" lon="9.3730908"><ele>265.0</ele><time>2026-04-21T06:20:52.949Z</time></trkpt><trkpt lat="40.8832809" lon="9.3728993"><ele>267.0</ele><time>2026-04-21T06:20:53.943Z</time></trkpt><trkpt lat="40.8830975" lon="9.3727515"><ele>269.0</ele><time>2026-04-21T06:20:54.941Z</time></trkpt><trkpt lat="40.8829087" lon="9.3725864"><ele>269.0</ele><time>2026-04-21T06:20:55.94Z</time></trkpt><trkpt lat="40.8827335" lon="9.3724463"><ele>269.0</ele><time>2026-04-21T06:20:56.944Z</time></trkpt><trkpt lat="40.8825472" lon="9.372298"><ele>269.0</ele><time>2026-04-21T06:20:57.945Z</time></trkpt><trkpt lat="40.8823518" lon="9.3721498"><ele>267.6666666666667</ele><time>2026-04-21T06:20:58.946Z</time></trkpt><trkpt lat="40.8822016" lon="9.3719905"><ele>266.3333333333333</ele><time>2026-04-21T06:20:59.945Z</time></trkpt><trkpt lat="40.8820286" lon="9.3718671"><ele>265.0</ele><time>2026-04-21T06:21:00.948Z</time></trkpt><trkpt lat="40.8818765" lon="9.3717461"><ele>266.5</ele><time>2026-04-21T06:21:01.942Z</time></trkpt><trkpt lat="40.881735" lon="9.3716366"><ele>268.0</ele><time>2026-04-21T06:21:02.946Z</time></trkpt><trkpt lat="40.8816003" lon="9.3715349"><ele>269.5</ele><time>2026-04-21T06:21:03.944Z</time></trkpt><trkpt lat="40.881486" lon="9.371497"><ele>271.0</ele><time>2026-04-21T06:21:04.949Z</time></trkpt><trkpt lat="40.8813214" lon="9.3714872"><ele>271.0</ele><time>2026-04-21T06:21:05.936Z</time></trkpt><trkpt lat="40.8811591" lon="9.3715392"><ele>271.0</ele><time>2026-04-21T06:21:06.949Z</time></trkpt><trkpt lat="40.8809976" lon="9.3716299"><ele>271.0</ele><time>2026-04-21T06:21:07.937Z</time></trkpt><trkpt lat="40.8808675" lon="9.3717126"><ele>271.66666666666663</ele><time>2026-04-21T06:21:08.943Z</time></trkpt><trkpt lat="40.8806724" lon="9.3717409"><ele>272.3333333333333</ele><time>2026-04-21T06:21:09.944Z</time></trkpt><trkpt lat="40.8804907" lon="9.3716972"><ele>273.0</ele><time>2026-04-21T06:21:10.948Z</time></trkpt><trkpt lat="40.8803076" lon="9.3716039"><ele>273.0</ele><time>2026-04-21T06:21:11.938Z</time></trkpt><trkpt lat="40.8801347" lon="9.3714808"><ele>273.0</ele><time>2026-04-21T06:21:12.938Z</time></trkpt><trkpt lat="40.8799729" lon="9.371363"><ele>273.0</ele><time>2026-04-21T06:21:13.943Z</time></trkpt><trkpt lat="40.8798555" lon="9.3712043"><ele>272.6666666666667</ele><time>2026-04-21T06:21:14.937Z</time></trkpt><trkpt lat="40.8797268" lon="9.3710301"><ele>272.33333333333337</ele><time>2026-04-21T06:21:15.943Z</time></trkpt><trkpt lat="40.8796077" lon="9.3708738"><ele>272.0</ele><time>2026-04-21T06:21:16.934Z</time></trkpt><trkpt lat="40.8794893" lon="9.3707595"><ele>272.0</ele><time>2026-04-21T06:21:17.931Z</time></trkpt><trkpt lat="40.8793094" lon="9.370722"><ele>272.0</ele><time>2026-04-21T06:21:18.932Z</time></trkpt><trkpt lat="40.8791118" lon="9.3707031"><ele>272.0</ele><time>2026-04-21T06:21:19.929Z</time></trkpt><trkpt lat="40.8789393" lon="9.3706843"><ele>272.33333333333337</ele><time>2026-04-21T06:21:20.935Z</time></trkpt><trkpt lat="40.8788089" lon="9.3705864"><ele>272.6666666666667</ele><time>2026-04-21T06:21:21.938Z</time></trkpt><trkpt lat="40.8787175" lon="9.3704158"><ele>273.0</ele><time>2026-04-21T06:21:22.933Z</time></trkpt><trkpt lat="40.8786522" lon="9.3701981"><ele>271.0</ele><time>2026-04-21T06:21:23.942Z</time></trkpt><trkpt lat="40.8785649" lon="9.3699539"><ele>269.0</ele><time>2026-04-21T06:21:24.933Z</time></trkpt><trkpt lat="40.8785226" lon="9.3696792"><ele>267.0</ele><time>2026-04-21T06:21:25.934Z</time></trkpt><trkpt lat="40.8784677" lon="9.3694024"><ele>266.3333333333333</ele><time>2026-04-21T06:21:26.932Z</time></trkpt><trkpt lat="40.8784536" lon="9.3691276"><ele>265.66666666666663</ele><time>2026-04-21T06:21:27.945Z</time></trkpt><trkpt lat="40.8784438" lon="9.3688637"><ele>265.0</ele><time>2026-04-21T06:21:28.959Z</time></trkpt><trkpt lat="40.8784073" lon="9.3685856"><ele>267.0</ele><time>2026-04-21T06:21:29.949Z</time></trkpt><trkpt lat="40.8783536" lon="9.3683443"><ele>269.0</ele><time>2026-04-21T06:21:30.955Z</time></trkpt><trkpt lat="40.8782708" lon="9.3681413"><ele>271.0</ele><time>2026-04-21T06:21:31.946Z</time></trkpt><trkpt lat="40.8781638" lon="9.3679609"><ele>271.0</ele><time>2026-04-21T06:21:32.95Z</time></trkpt><trkpt lat="40.8780629" lon="9.3678246"><ele>271.0</ele><time>2026-04-21T06:21:33.955Z</time></trkpt><trkpt lat="40.8779406" lon="9.3677268"><ele>271.0</ele><time>2026-04-21T06:21:34.964Z</time></trkpt><trkpt lat="40.8777905" lon="9.3676734"><ele>271.0</ele><time>2026-04-21T06:21:35.946Z</time></trkpt><trkpt lat="40.8776424" lon="9.367638"><ele>273.3333333333333</ele><time>2026-04-21T06:21:36.951Z</time></trkpt><trkpt lat="40.8775141" lon="9.3675569"><ele>275.6666666666667</ele><time>2026-04-21T06:21:37.955Z</time></trkpt><trkpt lat="40.8774049" lon="9.3674202"><ele>278.0</ele><time>2026-04-21T06:21:38.954Z</time></trkpt><trkpt lat="40.8773051" lon="9.3672579"><ele>277.6666666666667</ele><time>2026-04-21T06:21:39.959Z</time></trkpt><trkpt lat="40.8771819" lon="9.3671301"><ele>277.3333333333333</ele><time>2026-04-21T06:21:40.949Z</time></trkpt><trkpt lat="40.8770293" lon="9.3670351"><ele>277.0</ele><time>2026-04-21T06:21:41.954Z</time></trkpt><trkpt lat="40.8769018" lon="9.3669566"><ele>277.0</ele><time>2026-04-21T06:21:42.956Z</time></trkpt><trkpt lat="40.8767702" lon="9.3668762"><ele>277.0</ele><time>2026-04-21T06:21:43.955Z</time></trkpt><trkpt lat="40.8766791" lon="9.3667272"><ele>277.0</ele><time>2026-04-21T06:21:44.953Z</time></trkpt><trkpt lat="40.8766519" lon="9.3665117"><ele>278.66666666666663</ele><time>2026-04-21T06:21:45.95Z</time></trkpt><trkpt lat="40.8766357" lon="9.3662802"><ele>280.3333333333333</ele><time>2026-04-21T06:21:46.955Z</time></trkpt><trkpt lat="40.8765839" lon="9.3660655"><ele>282.0</ele><time>2026-04-21T06:21:47.957Z</time></trkpt><trkpt lat="40.8765378" lon="9.3658512"><ele>282.0</ele><time>2026-04-21T06:21:48.951Z</time></trkpt><trkpt lat="40.876438" lon="9.3656322"><ele>282.0</ele><time>2026-04-21T06:21:49.943Z</time></trkpt><trkpt lat="40.8763401" lon="9.3654218"><ele>282.0</ele><time>2026-04-21T06:21:50.954Z</time></trkpt><trkpt lat="40.8762202" lon="9.3652507"><ele>282.3333333333333</ele><time>2026-04-21T06:21:51.958Z</time></trkpt><trkpt lat="40.8761026" lon="9.3650546"><ele>282.66666666666663</ele><time>2026-04-21T06:21:52.961Z</time></trkpt><trkpt lat="40.875959" lon="9.3648605"><ele>283.0</ele><time>2026-04-21T06:21:53.963Z</time></trkpt><trkpt lat="40.8758286" lon="9.364652"><ele>284.0</ele><time>2026-04-21T06:21:54.959Z</time></trkpt><trkpt lat="40.8756836" lon="9.3644394"><ele>285.0</ele><time>2026-04-21T06:21:55.964Z</time></trkpt><trkpt lat="40.8755544" lon="9.3642353"><ele>286.0</ele><time>2026-04-21T06:21:56.962Z</time></trkpt><trkpt lat="40.8754164" lon="9.3640462"><ele>286.3333333333333</ele><time>2026-04-21T06:21:58.047Z</time></trkpt><trkpt lat="40.8752791" lon="9.3638567"><ele>286.6666666666667</ele><time>2026-04-21T06:21:59.043Z</time></trkpt><trkpt lat="40.8751438" lon="9.3636672"><ele>287.0</ele><time>2026-04-21T06:22:00.05Z</time></trkpt><trkpt lat="40.8750127" lon="9.3634821"><ele>287.0</ele><time>2026-04-21T06:22:01.043Z</time></trkpt><trkpt lat="40.8748814" lon="9.3632975"><ele>287.0</ele><time>2026-04-21T06:22:02.047Z</time></trkpt><trkpt lat="40.8747481" lon="9.3631121"><ele>287.0</ele><time>2026-04-21T06:22:03.045Z</time></trkpt><trkpt lat="40.874616" lon="9.3629243"><ele>286.6666666666667</ele><time>2026-04-21T06:22:04.046Z</time></trkpt><trkpt lat="40.874484" lon="9.3627342"><ele>286.3333333333333</ele><time>2026-04-21T06:22:05.048Z</time></trkpt><trkpt lat="40.8743511" lon="9.3625415"><ele>286.0</ele><time>2026-04-21T06:22:06.048Z</time></trkpt><trkpt lat="40.8742168" lon="9.3623467"><ele>286.3333333333333</ele><time>2026-04-21T06:22:07.047Z</time></trkpt><trkpt lat="40.8740807" lon="9.3621509"><ele>286.6666666666667</ele><time>2026-04-21T06:22:08.049Z</time></trkpt><trkpt lat="40.8739252" lon="9.3619527"><ele>287.0</ele><time>2026-04-21T06:22:09.049Z</time></trkpt><trkpt lat="40.8737894" lon="9.3617584"><ele>287.0</ele><time>2026-04-21T06:22:10.047Z</time></trkpt><trkpt lat="40.8736607" lon="9.3615669"><ele>287.0</ele><time>2026-04-21T06:22:11.052Z</time></trkpt><trkpt lat="40.8735319" lon="9.361376"><ele>287.0</ele><time>2026-04-21T06:22:12.052Z</time></trkpt><trkpt lat="40.8734044" lon="9.3611861"><ele>287.6666666666667</ele><time>2026-04-21T06:22:13.052Z</time></trkpt><trkpt lat="40.8732744" lon="9.3609968"><ele>288.3333333333333</ele><time>2026-04-21T06:22:14.053Z</time></trkpt><trkpt lat="40.8731462" lon="9.3608094"><ele>289.0</ele><time>2026-04-21T06:22:15.051Z</time></trkpt><trkpt lat="40.8730173" lon="9.3606245"><ele>289.0</ele><time>2026-04-21T06:22:16.05Z</time></trkpt><trkpt lat="40.8728885" lon="9.3604411"><ele>289.0</ele><time>2026-04-21T06:22:17.048Z</time></trkpt><trkpt lat="40.8727608" lon="9.3602599"><ele>289.0</ele><time>2026-04-21T06:22:18.05Z</time></trkpt><trkpt lat="40.8726344" lon="9.3600786"><ele>288.66666666666663</ele><time>2026-04-21T06:22:19.049Z</time></trkpt><trkpt lat="40.8725076" lon="9.3598969"><ele>288.3333333333333</ele><time>2026-04-21T06:22:20.05Z</time></trkpt><trkpt lat="40.8723806" lon="9.3597134"><ele>288.0</ele><time>2026-04-21T06:22:21.05Z</time></trkpt><trkpt lat="40.8722521" lon="9.3595301"><ele>289.3333333333333</ele><time>2026-04-21T06:22:22.053Z</time></trkpt><trkpt lat="40.8721234" lon="9.3593461"><ele>290.66666666666663</ele><time>2026-04-21T06:22:23.053Z</time></trkpt><trkpt lat="40.871991" lon="9.3591583"><ele>292.0</ele><time>2026-04-21T06:22:24.052Z</time></trkpt><trkpt lat="40.8718577" lon="9.3589736"><ele>294.3333333333333</ele><time>2026-04-21T06:22:25.048Z</time></trkpt><trkpt lat="40.8717247" lon="9.3587906"><ele>296.6666666666667</ele><time>2026-04-21T06:22:26.048Z</time></trkpt><trkpt lat="40.8715956" lon="9.3586087"><ele>299.0</ele><time>2026-04-21T06:22:27.045Z</time></trkpt><trkpt lat="40.8714672" lon="9.3584305"><ele>299.0</ele><time>2026-04-21T06:22:28.044Z</time></trkpt><trkpt lat="40.8713462" lon="9.358262"><ele>299.0</ele><time>2026-04-21T06:22:29.045Z</time></trkpt><trkpt lat="40.8712389" lon="9.3580984"><ele>299.0</ele><time>2026-04-21T06:22:30.044Z</time></trkpt><trkpt lat="40.8711571" lon="9.3579265"><ele>300.0</ele><time>2026-04-21T06:22:31.043Z</time></trkpt><trkpt lat="40.8710981" lon="9.3577279"><ele>301.0</ele><time>2026-04-21T06:22:32.037Z</time></trkpt><trkpt lat="40.8710389" lon="9.3575067"><ele>302.0</ele><time>2026-04-21T06:22:33.042Z</time></trkpt><trkpt lat="40.870984" lon="9.3572825"><ele>301.6666666666667</ele><time>2026-04-21T06:22:34.026Z</time></trkpt><trkpt lat="40.8709272" lon="9.3570534"><ele>301.3333333333333</ele><time>2026-04-21T06:22:35.035Z</time></trkpt><trkpt lat="40.8708648" lon="9.3568139"><ele>301.0</ele><time>2026-04-21T06:22:36.035Z</time></trkpt><trkpt lat="40.8708022" lon="9.3565717"><ele>300.0</ele><time>2026-04-21T06:22:37.036Z</time></trkpt><trkpt lat="40.8707393" lon="9.3563248"><ele>299.0</ele><time>2026-04-21T06:22:38.047Z</time></trkpt><trkpt lat="40.8706754" lon="9.3560736"><ele>298.0</ele><time>2026-04-21T06:22:39.051Z</time></trkpt><trkpt lat="40.870613" lon="9.3558164"><ele>298.0</ele><time>2026-04-21T06:22:40.049Z</time></trkpt><trkpt lat="40.8705494" lon="9.3555554"><ele>298.0</ele><time>2026-04-21T06:22:41.046Z</time></trkpt><trkpt lat="40.8704897" lon="9.3553044"><ele>298.0</ele><time>2026-04-21T06:22:42.042Z</time></trkpt><trkpt lat="40.8704283" lon="9.355054"><ele>298.0</ele><time>2026-04-21T06:22:43.042Z</time></trkpt><trkpt lat="40.8703657" lon="9.3548017"><ele>298.0</ele><time>2026-04-21T06:22:44.041Z</time></trkpt><trkpt lat="40.8702989" lon="9.3545491"><ele>298.0</ele><time>2026-04-21T06:22:45.042Z</time></trkpt><trkpt lat="40.8702348" lon="9.3542937"><ele>298.0</ele><time>2026-04-21T06:22:46.044Z</time></trkpt><trkpt lat="40.8701707" lon="9.3540361"><ele>298.0</ele><time>2026-04-21T06:22:47.046Z</time></trkpt><trkpt lat="40.8701045" lon="9.3537758"><ele>298.0</ele><time>2026-04-21T06:22:48.041Z</time></trkpt><trkpt lat="40.8700415" lon="9.3535127"><ele>297.3333333333333</ele><time>2026-04-21T06:22:49.043Z</time></trkpt><trkpt lat="40.8699804" lon="9.353251"><ele>296.6666666666667</ele><time>2026-04-21T06:22:50.04Z</time></trkpt><trkpt lat="40.8699183" lon="9.3529907"><ele>296.0</ele><time>2026-04-21T06:22:51.041Z</time></trkpt><trkpt lat="40.8698551" lon="9.352746"><ele>296.0</ele><time>2026-04-21T06:22:52.039Z</time></trkpt><trkpt lat="40.8697901" lon="9.3525017"><ele>296.0</ele><time>2026-04-21T06:22:53.044Z</time></trkpt><trkpt lat="40.8697261" lon="9.3522626"><ele>296.0</ele><time>2026-04-21T06:22:54.04Z</time></trkpt><trkpt lat="40.8696629" lon="9.3520258"><ele>296.0</ele><time>2026-04-21T06:22:55.04Z</time></trkpt><trkpt lat="40.869601" lon="9.351787"><ele>296.0</ele><time>2026-04-21T06:22:56.04Z</time></trkpt><trkpt lat="40.8695414" lon="9.3515471"><ele>296.0</ele><time>2026-04-21T06:22:57.037Z</time></trkpt><trkpt lat="40.8694795" lon="9.3513104"><ele>297.0</ele><time>2026-04-21T06:22:58.037Z</time></trkpt><trkpt lat="40.8694146" lon="9.3510793"><ele>298.0</ele><time>2026-04-21T06:22:59.036Z</time></trkpt><trkpt lat="40.8693529" lon="9.3508572"><ele>299.0</ele><time>2026-04-21T06:23:00.037Z</time></trkpt><trkpt lat="40.8692907" lon="9.35064"><ele>294.6666666666667</ele><time>2026-04-21T06:23:01.041Z</time></trkpt><trkpt lat="40.8692324" lon="9.350424"><ele>290.3333333333333</ele><time>2026-04-21T06:23:02.036Z</time></trkpt><trkpt lat="40.8691774" lon="9.350205"><ele>286.0</ele><time>2026-04-21T06:23:03.033Z</time></trkpt><trkpt lat="40.8691261" lon="9.3499825"><ele>286.0</ele><time>2026-04-21T06:23:04.041Z</time></trkpt><trkpt lat="40.8690714" lon="9.3497578"><ele>286.0</ele><time>2026-04-21T06:23:05.033Z</time></trkpt><trkpt lat="40.8690151" lon="9.3495304"><ele>286.0</ele><time>2026-04-21T06:23:06.034Z</time></trkpt><trkpt lat="40.8689557" lon="9.3492976"><ele>287.0</ele><time>2026-04-21T06:23:07.041Z</time></trkpt><trkpt lat="40.8688963" lon="9.3490643"><ele>288.0</ele><time>2026-04-21T06:23:08.027Z</time></trkpt><trkpt lat="40.8688365" lon="9.3488314"><ele>289.0</ele><time>2026-04-21T06:23:09.04Z</time></trkpt><trkpt lat="40.8687761" lon="9.348596"><ele>289.0</ele><time>2026-04-21T06:23:10.037Z</time></trkpt><trkpt lat="40.8687197" lon="9.3483552"><ele>289.0</ele><time>2026-04-21T06:23:11.041Z</time></trkpt><trkpt lat="40.8686618" lon="9.3481196"><ele>289.0</ele><time>2026-04-21T06:23:12.034Z</time></trkpt><trkpt lat="40.8686076" lon="9.3478923"><ele>289.0</ele><time>2026-04-21T06:23:13.042Z</time></trkpt><trkpt lat="40.8685545" lon="9.347673"><ele>289.0</ele><time>2026-04-21T06:23:14.039Z</time></trkpt><trkpt lat="40.8685041" lon="9.3474547"><ele>289.0</ele><time>2026-04-21T06:23:15.039Z</time></trkpt><trkpt lat="40.8684584" lon="9.3472338"><ele>287.0</ele><time>2026-04-21T06:23:16.038Z</time></trkpt><trkpt lat="40.8684198" lon="9.3470207"><ele>285.0</ele><time>2026-04-21T06:23:17.036Z</time></trkpt><trkpt lat="40.8683925" lon="9.346813"><ele>283.0</ele><time>2026-04-21T06:23:18.039Z</time></trkpt><trkpt lat="40.8683727" lon="9.3466089"><ele>283.0</ele><time>2026-04-21T06:23:19.042Z</time></trkpt><trkpt lat="40.8683546" lon="9.3464188"><ele>283.0</ele><time>2026-04-21T06:23:20.03Z</time></trkpt><trkpt lat="40.8683233" lon="9.3462565"><ele>283.0</ele><time>2026-04-21T06:23:21.023Z</time></trkpt><trkpt lat="40.8682699" lon="9.3461335"><ele>283.0</ele><time>2026-04-21T06:23:22.029Z</time></trkpt><trkpt lat="40.8681872" lon="9.3460559"><ele>283.0</ele><time>2026-04-21T06:23:23.037Z</time></trkpt><trkpt lat="40.8681239" lon="9.3460005"><ele>283.0</ele><time>2026-04-21T06:23:23.937Z</time></trkpt><trkpt lat="40.867995" lon="9.345994"><ele>283.0</ele><time>2026-04-21T06:23:24.933Z</time></trkpt><trkpt lat="40.8678496" lon="9.3460021"><ele>283.0</ele><time>2026-04-21T06:23:25.931Z</time></trkpt><trkpt lat="40.8676663" lon="9.3460252"><ele>284.0</ele><time>2026-04-21T06:23:26.934Z</time></trkpt><trkpt lat="40.8675282" lon="9.346111"><ele>285.0</ele><time>2026-04-21T06:23:27.94Z</time></trkpt><trkpt lat="40.8673959" lon="9.3461962"><ele>286.0</ele><time>2026-04-21T06:23:28.939Z</time></trkpt><trkpt lat="40.8672534" lon="9.3462961"><ele>285.66666666666663</ele><time>2026-04-21T06:23:29.941Z</time></trkpt><trkpt lat="40.8670954" lon="9.3463832"><ele>285.3333333333333</ele><time>2026-04-21T06:23:30.94Z</time></trkpt><trkpt lat="40.8669242" lon="9.3464509"><ele>285.0</ele><time>2026-04-21T06:23:31.944Z</time></trkpt><trkpt lat="40.8667549" lon="9.3464904"><ele>285.0</ele><time>2026-04-21T06:23:32.931Z</time></trkpt><trkpt lat="40.8665909" lon="9.3465264"><ele>285.0</ele><time>2026-04-21T06:23:33.937Z</time></trkpt><trkpt lat="40.8664209" lon="9.3464901"><ele>285.0</ele><time>2026-04-21T06:23:34.939Z</time></trkpt><trkpt lat="40.8662626" lon="9.3464309"><ele>286.0</ele><time>2026-04-21T06:23:35.948Z</time></trkpt><trkpt lat="40.8661196" lon="9.3462853"><ele>287.0</ele><time>2026-04-21T06:23:36.935Z</time></trkpt><trkpt lat="40.8659536" lon="9.3461573"><ele>288.0</ele><time>2026-04-21T06:23:37.938Z</time></trkpt><trkpt lat="40.8657905" lon="9.3460141"><ele>288.0</ele><time>2026-04-21T06:23:38.946Z</time></trkpt><trkpt lat="40.865632" lon="9.3458709"><ele>288.0</ele><time>2026-04-21T06:23:39.945Z</time></trkpt><trkpt lat="40.8654665" lon="9.3457332"><ele>288.0</ele><time>2026-04-21T06:23:40.949Z</time></trkpt><trkpt lat="40.8652974" lon="9.3456032"><ele>289.6666666666667</ele><time>2026-04-21T06:23:41.95Z</time></trkpt><trkpt lat="40.865135" lon="9.3454864"><ele>291.33333333333337</ele><time>2026-04-21T06:23:42.952Z</time></trkpt><trkpt lat="40.8649673" lon="9.3453461"><ele>293.0</ele><time>2026-04-21T06:23:43.953Z</time></trkpt><trkpt lat="40.8647934" lon="9.3452155"><ele>293.6666666666667</ele><time>2026-04-21T06:23:44.954Z</time></trkpt><trkpt lat="40.8646252" lon="9.3451049"><ele>294.3333333333333</ele><time>2026-04-21T06:23:45.953Z</time></trkpt><trkpt lat="40.8644689" lon="9.3449933"><ele>295.0</ele><time>2026-04-21T06:23:46.949Z</time></trkpt><trkpt lat="40.864303" lon="9.3448633"><ele>296.0</ele><time>2026-04-21T06:23:47.956Z</time></trkpt><trkpt lat="40.864158" lon="9.3447215"><ele>297.0</ele><time>2026-04-21T06:23:48.954Z</time></trkpt><trkpt lat="40.8640245" lon="9.3445692"><ele>298.0</ele><time>2026-04-21T06:23:49.944Z</time></trkpt><trkpt lat="40.8638938" lon="9.3443927"><ele>298.0</ele><time>2026-04-21T06:23:50.947Z</time></trkpt><trkpt lat="40.8637803" lon="9.3441966"><ele>298.0</ele><time>2026-04-21T06:23:51.948Z</time></trkpt><trkpt lat="40.8636885" lon="9.3439805"><ele>298.0</ele><time>2026-04-21T06:23:52.951Z</time></trkpt><trkpt lat="40.8635787" lon="9.3437445"><ele>298.3333333333333</ele><time>2026-04-21T06:23:53.951Z</time></trkpt><trkpt lat="40.8634626" lon="9.3435005"><ele>298.6666666666667</ele><time>2026-04-21T06:23:54.948Z</time></trkpt><trkpt lat="40.8633664" lon="9.3432648"><ele>299.0</ele><time>2026-04-21T06:23:55.947Z</time></trkpt><trkpt lat="40.863265" lon="9.3430232"><ele>299.6666666666667</ele><time>2026-04-21T06:23:56.949Z</time></trkpt><trkpt lat="40.8631623" lon="9.3427758"><ele>300.3333333333333</ele><time>2026-04-21T06:23:57.949Z</time></trkpt><trkpt lat="40.8630711" lon="9.3425425"><ele>301.0</ele><time>2026-04-21T06:23:58.955Z</time></trkpt><trkpt lat="40.8629595" lon="9.3423149"><ele>302.0</ele><time>2026-04-21T06:23:59.949Z</time></trkpt><trkpt lat="40.8628497" lon="9.3420628"><ele>303.0</ele><time>2026-04-21T06:24:00.959Z</time></trkpt><trkpt lat="40.862748" lon="9.3417897"><ele>303.0</ele><time>2026-04-21T06:24:01.944Z</time></trkpt><trkpt lat="40.8626683" lon="9.3415282"><ele>303.0</ele><time>2026-04-21T06:24:02.952Z</time></trkpt><trkpt lat="40.8625856" lon="9.3412782"><ele>303.0</ele><time>2026-04-21T06:24:03.949Z</time></trkpt><trkpt lat="40.8625192" lon="9.3410041"><ele>301.3333333333333</ele><time>2026-04-21T06:24:04.947Z</time></trkpt><trkpt lat="40.8624402" lon="9.3407293"><ele>299.66666666666663</ele><time>2026-04-21T06:24:05.951Z</time></trkpt><trkpt lat="40.862364" lon="9.3404625"><ele>298.0</ele><time>2026-04-21T06:24:06.946Z</time></trkpt><trkpt lat="40.8622913" lon="9.3402068"><ele>298.0</ele><time>2026-04-21T06:24:07.949Z</time></trkpt><trkpt lat="40.8622079" lon="9.3399279"><ele>298.0</ele><time>2026-04-21T06:24:08.948Z</time></trkpt><trkpt lat="40.8621374" lon="9.339663"><ele>298.0</ele><time>2026-04-21T06:24:09.946Z</time></trkpt><trkpt lat="40.8620597" lon="9.3393978"><ele>298.3333333333333</ele><time>2026-04-21T06:24:10.951Z</time></trkpt><trkpt lat="40.862002" lon="9.3391381"><ele>298.6666666666667</ele><time>2026-04-21T06:24:11.941Z</time></trkpt><trkpt lat="40.8619263" lon="9.3388791"><ele>299.0</ele><time>2026-04-21T06:24:12.947Z</time></trkpt><trkpt lat="40.8618701" lon="9.3386426"><ele>298.6666666666667</ele><time>2026-04-21T06:24:13.943Z</time></trkpt><trkpt lat="40.8618104" lon="9.3384223"><ele>298.3333333333333</ele><time>2026-04-21T06:24:14.941Z</time></trkpt><trkpt lat="40.8617292" lon="9.3382036"><ele>298.0</ele><time>2026-04-21T06:24:15.946Z</time></trkpt><trkpt lat="40.8616496" lon="9.3379803"><ele>298.66666666666663</ele><time>2026-04-21T06:24:16.949Z</time></trkpt><trkpt lat="40.8615496" lon="9.3377637"><ele>299.3333333333333</ele><time>2026-04-21T06:24:17.932Z</time></trkpt><trkpt lat="40.8614016" lon="9.3375735"><ele>300.0</ele><time>2026-04-21T06:24:18.944Z</time></trkpt><trkpt lat="40.8612557" lon="9.3373783"><ele>300.0</ele><time>2026-04-21T06:24:19.936Z</time></trkpt><trkpt lat="40.8611152" lon="9.3371696"><ele>300.0</ele><time>2026-04-21T06:24:20.946Z</time></trkpt><trkpt lat="40.8609851" lon="9.336965"><ele>300.0</ele><time>2026-04-21T06:24:21.952Z</time></trkpt><trkpt lat="40.8608531" lon="9.3367492"><ele>300.0</ele><time>2026-04-21T06:24:22.953Z</time></trkpt><trkpt lat="40.8607092" lon="9.336544"><ele>300.0</ele><time>2026-04-21T06:24:23.953Z</time></trkpt><trkpt lat="40.8605661" lon="9.3363323"><ele>300.0</ele><time>2026-04-21T06:24:24.952Z</time></trkpt><trkpt lat="40.8604417" lon="9.3361318"><ele>301.3333333333333</ele><time>2026-04-21T06:24:25.956Z</time></trkpt><trkpt lat="40.8602996" lon="9.3359221"><ele>302.66666666666663</ele><time>2026-04-21T06:24:26.952Z</time></trkpt><trkpt lat="40.8601483" lon="9.335723"><ele>304.0</ele><time>2026-04-21T06:24:27.957Z</time></trkpt><trkpt lat="40.8600149" lon="9.3355329"><ele>305.66666666666663</ele><time>2026-04-21T06:24:28.955Z</time></trkpt><trkpt lat="40.8598638" lon="9.3353482"><ele>307.3333333333333</ele><time>2026-04-21T06:24:29.954Z</time></trkpt><trkpt lat="40.8597431" lon="9.3351652"><ele>309.0</ele><time>2026-04-21T06:24:30.953Z</time></trkpt><trkpt lat="40.859653" lon="9.3349743"><ele>309.0</ele><time>2026-04-21T06:24:31.943Z</time></trkpt><trkpt lat="40.8595802" lon="9.3347246"><ele>309.0</ele><time>2026-04-21T06:24:32.935Z</time></trkpt><trkpt lat="40.8595492" lon="9.3344698"><ele>309.0</ele><time>2026-04-21T06:24:33.935Z</time></trkpt><trkpt lat="40.8595277" lon="9.3342025"><ele>312.6666666666667</ele><time>2026-04-21T06:24:34.931Z</time></trkpt><trkpt lat="40.8594813" lon="9.3339181"><ele>316.33333333333337</ele><time>2026-04-21T06:24:35.926Z</time></trkpt><trkpt lat="40.8593875" lon="9.3336697"><ele>320.0</ele><time>2026-04-21T06:24:36.934Z</time></trkpt><trkpt lat="40.8592845" lon="9.3334449"><ele>320.0</ele><time>2026-04-21T06:24:37.931Z</time></trkpt><trkpt lat="40.8591522" lon="9.3332254"><ele>320.0</ele><time>2026-04-21T06:24:38.93Z</time></trkpt><trkpt lat="40.8590163" lon="9.3330063"><ele>320.0</ele><time>2026-04-21T06:24:39.937Z</time></trkpt><trkpt lat="40.8588842" lon="9.3327725"><ele>322.6666666666667</ele><time>2026-04-21T06:24:40.935Z</time></trkpt><trkpt lat="40.8587689" lon="9.3325373"><ele>325.3333333333333</ele><time>2026-04-21T06:24:41.931Z</time></trkpt><trkpt lat="40.8586739" lon="9.3322946"><ele>328.0</ele><time>2026-04-21T06:24:42.932Z</time></trkpt><trkpt lat="40.8586178" lon="9.3320265"><ele>330.3333333333333</ele><time>2026-04-21T06:24:43.936Z</time></trkpt><trkpt lat="40.8585407" lon="9.3317784"><ele>332.6666666666667</ele><time>2026-04-21T06:24:44.929Z</time></trkpt><trkpt lat="40.8585155" lon="9.3314912"><ele>335.0</ele><time>2026-04-21T06:24:45.933Z</time></trkpt><trkpt lat="40.8584719" lon="9.3312149"><ele>334.33333333333337</ele><time>2026-04-21T06:24:46.937Z</time></trkpt><trkpt lat="40.8584237" lon="9.3309382"><ele>333.6666666666667</ele><time>2026-04-21T06:24:47.931Z</time></trkpt><trkpt lat="40.858382" lon="9.3306598"><ele>333.0</ele><time>2026-04-21T06:24:48.933Z</time></trkpt><trkpt lat="40.8583447" lon="9.3303747"><ele>333.0</ele><time>2026-04-21T06:24:49.942Z</time></trkpt><trkpt lat="40.8583197" lon="9.3300895"><ele>333.0</ele><time>2026-04-21T06:24:50.935Z</time></trkpt><trkpt lat="40.858302" lon="9.3298216"><ele>333.0</ele><time>2026-04-21T06:24:51.936Z</time></trkpt><trkpt lat="40.8583042" lon="9.3295478"><ele>334.6666666666667</ele><time>2026-04-21T06:24:52.935Z</time></trkpt><trkpt lat="40.8583209" lon="9.3292629"><ele>336.33333333333337</ele><time>2026-04-21T06:24:53.933Z</time></trkpt><trkpt lat="40.8583495" lon="9.3289996"><ele>338.0</ele><time>2026-04-21T06:24:54.939Z</time></trkpt><trkpt lat="40.8583769" lon="9.3287551"><ele>340.0</ele><time>2026-04-21T06:24:55.939Z</time></trkpt><trkpt lat="40.8583802" lon="9.3284787"><ele>342.0</ele><time>2026-04-21T06:24:56.941Z</time></trkpt><trkpt lat="40.858343" lon="9.3282265"><ele>344.0</ele><time>2026-04-21T06:24:57.932Z</time></trkpt><trkpt lat="40.8582762" lon="9.3279686"><ele>345.0</ele><time>2026-04-21T06:24:58.939Z</time></trkpt><trkpt lat="40.8581961" lon="9.3277283"><ele>346.0</ele><time>2026-04-21T06:24:59.935Z</time></trkpt><trkpt lat="40.8580809" lon="9.3275018"><ele>347.0</ele><time>2026-04-21T06:25:00.943Z</time></trkpt><trkpt lat="40.8579778" lon="9.3272888"><ele>348.33333333333337</ele><time>2026-04-21T06:25:01.936Z</time></trkpt><trkpt lat="40.8578726" lon="9.3270479"><ele>349.6666666666667</ele><time>2026-04-21T06:25:02.928Z</time></trkpt><trkpt lat="40.8578132" lon="9.32679"><ele>351.0</ele><time>2026-04-21T06:25:03.938Z</time></trkpt><trkpt lat="40.8577828" lon="9.3265143"><ele>352.6666666666667</ele><time>2026-04-21T06:25:04.935Z</time></trkpt><trkpt lat="40.8577476" lon="9.3262471"><ele>354.33333333333337</ele><time>2026-04-21T06:25:05.942Z</time></trkpt><trkpt lat="40.8576999" lon="9.3259762"><ele>356.0</ele><time>2026-04-21T06:25:06.94Z</time></trkpt><trkpt lat="40.8576717" lon="9.3256869"><ele>356.33333333333337</ele><time>2026-04-21T06:25:07.936Z</time></trkpt><trkpt lat="40.8576299" lon="9.3254229"><ele>356.6666666666667</ele><time>2026-04-21T06:25:08.934Z</time></trkpt><trkpt lat="40.8576057" lon="9.3251908"><ele>357.0</ele><time>2026-04-21T06:25:09.939Z</time></trkpt><trkpt lat="40.857537" lon="9.3249618"><ele>357.0</ele><time>2026-04-21T06:25:10.939Z</time></trkpt><trkpt lat="40.8574743" lon="9.3247609"><ele>357.0</ele><time>2026-04-21T06:25:11.947Z</time></trkpt><trkpt lat="40.8573778" lon="9.3246214"><ele>357.0</ele><time>2026-04-21T06:25:12.949Z</time></trkpt><trkpt lat="40.8572647" lon="9.324552"><ele>357.0</ele><time>2026-04-21T06:25:13.951Z</time></trkpt><trkpt lat="40.8571438" lon="9.3245259"><ele>357.6666666666667</ele><time>2026-04-21T06:25:14.949Z</time></trkpt><trkpt lat="40.856953" lon="9.3245787"><ele>358.33333333333337</ele><time>2026-04-21T06:25:15.932Z</time></trkpt><trkpt lat="40.8567959" lon="9.3246731"><ele>359.0</ele><time>2026-04-21T06:25:16.933Z</time></trkpt><trkpt lat="40.8566435" lon="9.3247653"><ele>359.0</ele><time>2026-04-21T06:25:17.934Z</time></trkpt><trkpt lat="40.8564779" lon="9.3248352"><ele>359.0</ele><time>2026-04-21T06:25:18.935Z</time></trkpt><trkpt lat="40.8562795" lon="9.3248923"><ele>359.0</ele><time>2026-04-21T06:25:19.936Z</time></trkpt><trkpt lat="40.8560972" lon="9.3249343"><ele>361.0</ele><time>2026-04-21T06:25:20.936Z</time></trkpt><trkpt lat="40.8559018" lon="9.3249709"><ele>363.0</ele><time>2026-04-21T06:25:21.935Z</time></trkpt><trkpt lat="40.8557033" lon="9.3249801"><ele>365.0</ele><time>2026-04-21T06:25:22.94Z</time></trkpt><trkpt lat="40.8555143" lon="9.3249766"><ele>365.0</ele><time>2026-04-21T06:25:23.939Z</time></trkpt><trkpt lat="40.8553628" lon="9.3249477"><ele>365.0</ele><time>2026-04-21T06:25:24.937Z</time></trkpt><trkpt lat="40.8551941" lon="9.3249197"><ele>365.0</ele><time>2026-04-21T06:25:25.939Z</time></trkpt><trkpt lat="40.8550369" lon="9.3248178"><ele>366.6666666666667</ele><time>2026-04-21T06:25:26.932Z</time></trkpt><trkpt lat="40.8548622" lon="9.3247139"><ele>368.3333333333333</ele><time>2026-04-21T06:25:27.935Z</time></trkpt><trkpt lat="40.8547173" lon="9.3245421"><ele>370.0</ele><time>2026-04-21T06:25:28.937Z</time></trkpt><trkpt lat="40.8545647" lon="9.324382"><ele>370.0</ele><time>2026-04-21T06:25:29.939Z</time></trkpt><trkpt lat="40.8544177" lon="9.3242099"><ele>370.0</ele><time>2026-04-21T06:25:30.948Z</time></trkpt><trkpt lat="40.8542694" lon="9.3240305"><ele>370.0</ele><time>2026-04-21T06:25:31.948Z</time></trkpt><trkpt lat="40.8541522" lon="9.3238475"><ele>369.66666666666663</ele><time>2026-04-21T06:25:32.95Z</time></trkpt><trkpt lat="40.8540104" lon="9.3236359"><ele>369.3333333333333</ele><time>2026-04-21T06:25:33.952Z</time></trkpt><trkpt lat="40.8538691" lon="9.3234674"><ele>369.0</ele><time>2026-04-21T06:25:34.95Z</time></trkpt><trkpt lat="40.8537305" lon="9.3232796"><ele>369.0</ele><time>2026-04-21T06:25:35.95Z</time></trkpt><trkpt lat="40.8535831" lon="9.323092"><ele>369.0</ele><time>2026-04-21T06:25:36.947Z</time></trkpt><trkpt lat="40.8534406" lon="9.3229156"><ele>369.0</ele><time>2026-04-21T06:25:37.952Z</time></trkpt><trkpt lat="40.8532813" lon="9.3227464"><ele>367.6666666666667</ele><time>2026-04-21T06:25:38.947Z</time></trkpt><trkpt lat="40.8531031" lon="9.3226043"><ele>366.33333333333337</ele><time>2026-04-21T06:25:39.947Z</time></trkpt><trkpt lat="40.8529208" lon="9.3224666"><ele>365.0</ele><time>2026-04-21T06:25:40.942Z</time></trkpt><trkpt lat="40.8527746" lon="9.3223316"><ele>365.0</ele><time>2026-04-21T06:25:41.947Z</time></trkpt><trkpt lat="40.8526165" lon="9.3221997"><ele>365.0</ele><time>2026-04-21T06:25:42.949Z</time></trkpt><trkpt lat="40.8524753" lon="9.3220754"><ele>365.0</ele><time>2026-04-21T06:25:43.97Z</time></trkpt><trkpt lat="40.8523314" lon="9.3219586"><ele>365.0</ele><time>2026-04-21T06:25:45.034Z</time></trkpt><trkpt lat="40.8521882" lon="9.3218395"><ele>365.0</ele><time>2026-04-21T06:25:46.041Z</time></trkpt><trkpt lat="40.8520409" lon="9.3217171"><ele>365.0</ele><time>2026-04-21T06:25:47.04Z</time></trkpt><trkpt lat="40.8518847" lon="9.3215939"><ele>364.33333333333337</ele><time>2026-04-21T06:25:48.041Z</time></trkpt><trkpt lat="40.8517237" lon="9.3214679"><ele>363.6666666666667</ele><time>2026-04-21T06:25:49.035Z</time></trkpt><trkpt lat="40.8515597" lon="9.3213399"><ele>363.0</ele><time>2026-04-21T06:25:50.038Z</time></trkpt><trkpt lat="40.8513971" lon="9.3212058"><ele>363.0</ele><time>2026-04-21T06:25:51.038Z</time></trkpt><trkpt lat="40.8512333" lon="9.3210716"><ele>363.0</ele><time>2026-04-21T06:25:52.043Z</time></trkpt><trkpt lat="40.8510689" lon="9.3209427"><ele>363.0</ele><time>2026-04-21T06:25:53.039Z</time></trkpt><trkpt lat="40.8508983" lon="9.320817"><ele>362.6666666666667</ele><time>2026-04-21T06:25:54.037Z</time></trkpt><trkpt lat="40.8507222" lon="9.3207"><ele>362.33333333333337</ele><time>2026-04-21T06:25:55.036Z</time></trkpt><trkpt lat="40.8505394" lon="9.3205931"><ele>362.0</ele><time>2026-04-21T06:25:56.029Z</time></trkpt><trkpt lat="40.850353" lon="9.3204936"><ele>362.6666666666667</ele><time>2026-04-21T06:25:57.039Z</time></trkpt><trkpt lat="40.8501631" lon="9.3204054"><ele>363.3333333333333</ele><time>2026-04-21T06:25:58.04Z</time></trkpt><trkpt lat="40.8499762" lon="9.3203176"><ele>364.0</ele><time>2026-04-21T06:25:59.042Z</time></trkpt><trkpt lat="40.8497882" lon="9.3202268"><ele>365.0</ele><time>2026-04-21T06:26:00.042Z</time></trkpt><trkpt lat="40.8496046" lon="9.320134"><ele>366.0</ele><time>2026-04-21T06:26:01.043Z</time></trkpt><trkpt lat="40.8494171" lon="9.3200405"><ele>367.0</ele><time>2026-04-21T06:26:02.038Z</time></trkpt><trkpt lat="40.849228" lon="9.3199492"><ele>367.66666666666663</ele><time>2026-04-21T06:26:03.042Z</time></trkpt><trkpt lat="40.84904" lon="9.3198587"><ele>368.3333333333333</ele><time>2026-04-21T06:26:04.043Z</time></trkpt><trkpt lat="40.8488567" lon="9.3197674"><ele>369.0</ele><time>2026-04-21T06:26:05.042Z</time></trkpt><trkpt lat="40.8486734" lon="9.3196762"><ele>369.3333333333333</ele><time>2026-04-21T06:26:06.041Z</time></trkpt><trkpt lat="40.8484905" lon="9.3195872"><ele>369.66666666666663</ele><time>2026-04-21T06:26:07.041Z</time></trkpt><trkpt lat="40.848304" lon="9.3194946"><ele>370.0</ele><time>2026-04-21T06:26:08.041Z</time></trkpt><trkpt lat="40.8481192" lon="9.3194057"><ele>370.0</ele><time>2026-04-21T06:26:09.035Z</time></trkpt><trkpt lat="40.8479377" lon="9.3193192"><ele>370.0</ele><time>2026-04-21T06:26:10.041Z</time></trkpt><trkpt lat="40.8477636" lon="9.3192351"><ele>370.0</ele><time>2026-04-21T06:26:11.039Z</time></trkpt><trkpt lat="40.8475943" lon="9.3191527"><ele>369.3333333333333</ele><time>2026-04-21T06:26:12.042Z</time></trkpt><trkpt lat="40.8474338" lon="9.3190751"><ele>368.6666666666667</ele><time>2026-04-21T06:26:13.039Z</time></trkpt><trkpt lat="40.8472806" lon="9.3189981"><ele>368.0</ele><time>2026-04-21T06:26:14.037Z</time></trkpt><trkpt lat="40.847143" lon="9.3189089"><ele>367.6666666666667</ele><time>2026-04-21T06:26:14.942Z</time></trkpt><trkpt lat="40.8470195" lon="9.3187727"><ele>367.3333333333333</ele><time>2026-04-21T06:26:15.947Z</time></trkpt><trkpt lat="40.8469145" lon="9.3186016"><ele>367.0</ele><time>2026-04-21T06:26:16.94Z</time></trkpt><trkpt lat="40.8468152" lon="9.3184055"><ele>367.66666666666663</ele><time>2026-04-21T06:26:17.939Z</time></trkpt><trkpt lat="40.8467373" lon="9.3182072"><ele>368.3333333333333</ele><time>2026-04-21T06:26:18.935Z</time></trkpt><trkpt lat="40.8466726" lon="9.3180047"><ele>369.0</ele><time>2026-04-21T06:26:19.944Z</time></trkpt><trkpt lat="40.8466027" lon="9.3177855"><ele>367.6666666666667</ele><time>2026-04-21T06:26:20.934Z</time></trkpt><trkpt lat="40.8464816" lon="9.3176018"><ele>366.33333333333337</ele><time>2026-04-21T06:26:21.932Z</time></trkpt><trkpt lat="40.8463641" lon="9.3174561"><ele>365.0</ele><time>2026-04-21T06:26:22.939Z</time></trkpt><trkpt lat="40.8462453" lon="9.3173074"><ele>364.0</ele><time>2026-04-21T06:26:23.93Z</time></trkpt><trkpt lat="40.8461162" lon="9.3171969"><ele>363.0</ele><time>2026-04-21T06:26:24.934Z</time></trkpt><trkpt lat="40.8459854" lon="9.3171151"><ele>362.0</ele><time>2026-04-21T06:26:25.934Z</time></trkpt><trkpt lat="40.8458525" lon="9.3170722"><ele>361.0</ele><time>2026-04-21T06:26:26.93Z</time></trkpt><trkpt lat="40.8456845" lon="9.3170852"><ele>361.0</ele><time>2026-04-21T06:26:27.924Z</time></trkpt><trkpt lat="40.8454969" lon="9.3171021"><ele>361.0</ele><time>2026-04-21T06:26:28.922Z</time></trkpt><trkpt lat="40.845307" lon="9.3171406"><ele>361.0</ele><time>2026-04-21T06:26:29.926Z</time></trkpt><trkpt lat="40.8451195" lon="9.3171706"><ele>359.0</ele><time>2026-04-21T06:26:30.939Z</time></trkpt><trkpt lat="40.8449422" lon="9.3171959"><ele>357.0</ele><time>2026-04-21T06:26:31.94Z</time></trkpt><trkpt lat="40.8447487" lon="9.3172133"><ele>355.0</ele><time>2026-04-21T06:26:32.939Z</time></trkpt><trkpt lat="40.8445568" lon="9.3172288"><ele>355.0</ele><time>2026-04-21T06:26:33.936Z</time></trkpt><trkpt lat="40.8443523" lon="9.3172338"><ele>355.0</ele><time>2026-04-21T06:26:34.936Z</time></trkpt><trkpt lat="40.8441404" lon="9.3172163"><ele>355.0</ele><time>2026-04-21T06:26:35.943Z</time></trkpt><trkpt lat="40.8439385" lon="9.3172001"><ele>355.0</ele><time>2026-04-21T06:26:36.944Z</time></trkpt><trkpt lat="40.84373" lon="9.3171748"><ele>355.0</ele><time>2026-04-21T06:26:37.94Z</time></trkpt><trkpt lat="40.8435346" lon="9.3171583"><ele>355.0</ele><time>2026-04-21T06:26:38.943Z</time></trkpt><trkpt lat="40.8433206" lon="9.3171513"><ele>354.0</ele><time>2026-04-21T06:26:39.946Z</time></trkpt><trkpt lat="40.8431357" lon="9.3171199"><ele>353.0</ele><time>2026-04-21T06:26:40.942Z</time></trkpt><trkpt lat="40.8429476" lon="9.3170898"><ele>352.0</ele><time>2026-04-21T06:26:41.945Z</time></trkpt><trkpt lat="40.8427461" lon="9.3170648"><ele>351.66666666666663</ele><time>2026-04-21T06:26:42.94Z</time></trkpt><trkpt lat="40.8425575" lon="9.3170472"><ele>351.3333333333333</ele><time>2026-04-21T06:26:43.949Z</time></trkpt><trkpt lat="40.8424042" lon="9.3170142"><ele>351.0</ele><time>2026-04-21T06:26:44.932Z</time></trkpt><trkpt lat="40.8422216" lon="9.3169753"><ele>351.0</ele><time>2026-04-21T06:26:45.941Z</time></trkpt><trkpt lat="40.8420487" lon="9.3169134"><ele>351.0</ele><time>2026-04-21T06:26:46.939Z</time></trkpt><trkpt lat="40.8418952" lon="9.3168313"><ele>351.0</ele><time>2026-04-21T06:26:47.931Z</time></trkpt><trkpt lat="40.8417292" lon="9.3167507"><ele>350.6666666666667</ele><time>2026-04-21T06:26:48.947Z</time></trkpt><trkpt lat="40.8415435" lon="9.3166536"><ele>350.33333333333337</ele><time>2026-04-21T06:26:49.934Z</time></trkpt><trkpt lat="40.8413811" lon="9.316539"><ele>350.0</ele><time>2026-04-21T06:26:50.933Z</time></trkpt><trkpt lat="40.8412166" lon="9.3164353"><ele>348.0</ele><time>2026-04-21T06:26:51.946Z</time></trkpt><trkpt lat="40.8410382" lon="9.3163257"><ele>346.0</ele><time>2026-04-21T06:26:52.937Z</time></trkpt><trkpt lat="40.8408273" lon="9.3162241"><ele>344.0</ele><time>2026-04-21T06:26:53.94Z</time></trkpt><trkpt lat="40.8406392" lon="9.3161314"><ele>344.0</ele><time>2026-04-21T06:26:54.937Z</time></trkpt><trkpt lat="40.8404732" lon="9.316041"><ele>344.0</ele><time>2026-04-21T06:26:55.938Z</time></trkpt><trkpt lat="40.840316" lon="9.3159463"><ele>344.0</ele><time>2026-04-21T06:26:56.933Z</time></trkpt><trkpt lat="40.8401601" lon="9.3158689"><ele>343.6666666666667</ele><time>2026-04-21T06:26:57.938Z</time></trkpt><trkpt lat="40.839991" lon="9.31585"><ele>343.3333333333333</ele><time>2026-04-21T06:26:58.926Z</time></trkpt><trkpt lat="40.8398315" lon="9.3158187"><ele>343.0</ele><time>2026-04-21T06:26:59.931Z</time></trkpt><trkpt lat="40.8396579" lon="9.3157837"><ele>343.0</ele><time>2026-04-21T06:27:00.934Z</time></trkpt><trkpt lat="40.8395204" lon="9.3157512"><ele>343.0</ele><time>2026-04-21T06:27:01.929Z</time></trkpt><trkpt lat="40.8393858" lon="9.3157023"><ele>343.0</ele><time>2026-04-21T06:27:02.944Z</time></trkpt><trkpt lat="40.8393148" lon="9.3156708"><ele>343.0</ele><time>2026-04-21T06:27:03.935Z</time></trkpt><trkpt lat="40.8392237" lon="9.3156467"><ele>343.0</ele><time>2026-04-21T06:27:04.939Z</time></trkpt><trkpt lat="40.8391207" lon="9.3156664"><ele>341.59999999999997</ele><time>2026-04-21T06:27:05.938Z</time></trkpt><trkpt lat="40.8390243" lon="9.3157008"><ele>340.2</ele><time>2026-04-21T06:27:06.949Z</time></trkpt><trkpt lat="40.8389468" lon="9.3157973"><ele>338.8</ele><time>2026-04-21T06:27:07.944Z</time></trkpt><trkpt lat="40.8388804" lon="9.3158993"><ele>337.4</ele><time>2026-04-21T06:27:08.942Z</time></trkpt><trkpt lat="40.8388124" lon="9.3159962"><ele>336.0</ele><time>2026-04-21T06:27:09.945Z</time></trkpt><trkpt lat="40.8387234" lon="9.3160843"><ele>336.0</ele><time>2026-04-21T06:27:10.947Z</time></trkpt><trkpt lat="40.8386175" lon="9.3161567"><ele>336.0</ele><time>2026-04-21T06:27:11.938Z</time></trkpt><trkpt lat="40.83851" lon="9.3161952"><ele>336.0</ele><time>2026-04-21T06:27:12.941Z</time></trkpt><trkpt lat="40.8383979" lon="9.3162022"><ele>336.0</ele><time>2026-04-21T06:27:13.93Z</time></trkpt><trkpt lat="40.838277" lon="9.3161838"><ele>334.4</ele><time>2026-04-21T06:27:14.93Z</time></trkpt><trkpt lat="40.8381586" lon="9.3161503"><ele>332.8</ele><time>2026-04-21T06:27:15.93Z</time></trkpt><trkpt lat="40.8380535" lon="9.3161126"><ele>331.2</ele><time>2026-04-21T06:27:16.94Z</time></trkpt><trkpt lat="40.837953" lon="9.3160833"><ele>329.59999999999997</ele><time>2026-04-21T06:27:17.944Z</time></trkpt><trkpt lat="40.8378445" lon="9.3160401"><ele>328.0</ele><time>2026-04-21T06:27:18.951Z</time></trkpt><trkpt lat="40.8377325" lon="9.3159802"><ele>327.3333333333333</ele><time>2026-04-21T06:27:19.942Z</time></trkpt><trkpt lat="40.8376229" lon="9.3159004"><ele>326.6666666666667</ele><time>2026-04-21T06:27:20.951Z</time></trkpt><trkpt lat="40.8375041" lon="9.3157872"><ele>326.0</ele><time>2026-04-21T06:27:21.946Z</time></trkpt><trkpt lat="40.837345" lon="9.3156096"><ele>325.6666666666667</ele><time>2026-04-21T06:27:22.956Z</time></trkpt><trkpt lat="40.8371901" lon="9.3154251"><ele>325.3333333333333</ele><time>2026-04-21T06:27:23.94Z</time></trkpt><trkpt lat="40.8370454" lon="9.3152392"><ele>325.0</ele><time>2026-04-21T06:27:24.954Z</time></trkpt><trkpt lat="40.83692" lon="9.3150461"><ele>324.66666666666663</ele><time>2026-04-21T06:27:25.949Z</time></trkpt><trkpt lat="40.8367873" lon="9.3148362"><ele>324.3333333333333</ele><time>2026-04-21T06:27:26.952Z</time></trkpt><trkpt lat="40.8366548" lon="9.3146474"><ele>324.0</ele><time>2026-04-21T06:27:27.952Z</time></trkpt><trkpt lat="40.8365002" lon="9.3144592"><ele>324.0</ele><time>2026-04-21T06:27:28.953Z</time></trkpt><trkpt lat="40.8363571" lon="9.3142822"><ele>324.0</ele><time>2026-04-21T06:27:29.952Z</time></trkpt><trkpt lat="40.8362393" lon="9.3141274"><ele>324.0</ele><time>2026-04-21T06:27:30.951Z</time></trkpt><trkpt lat="40.8361322" lon="9.3139769"><ele>322.3333333333333</ele><time>2026-04-21T06:27:31.951Z</time></trkpt><trkpt lat="40.8360126" lon="9.3138116"><ele>320.66666666666663</ele><time>2026-04-21T06:27:32.953Z</time></trkpt><trkpt lat="40.8359007" lon="9.3136697"><ele>319.0</ele><time>2026-04-21T06:27:33.949Z</time></trkpt><trkpt lat="40.8357712" lon="9.3135193"><ele>319.0</ele><time>2026-04-21T06:27:34.952Z</time></trkpt><trkpt lat="40.8356166" lon="9.3134058"><ele>319.0</ele><time>2026-04-21T06:27:35.945Z</time></trkpt><trkpt lat="40.8354875" lon="9.3133574"><ele>319.0</ele><time>2026-04-21T06:27:36.946Z</time></trkpt><trkpt lat="40.8353378" lon="9.3133772"><ele>319.0</ele><time>2026-04-21T06:27:37.941Z</time></trkpt><trkpt lat="40.8351643" lon="9.3134137"><ele>319.0</ele><time>2026-04-21T06:27:38.943Z</time></trkpt><trkpt lat="40.8349961" lon="9.3134961"><ele>319.0</ele><time>2026-04-21T06:27:39.947Z</time></trkpt><trkpt lat="40.8348637" lon="9.3136318"><ele>319.0</ele><time>2026-04-21T06:27:40.936Z</time></trkpt><trkpt lat="40.8347806" lon="9.3138283"><ele>319.0</ele><time>2026-04-21T06:27:41.947Z</time></trkpt><trkpt lat="40.8346662" lon="9.3140304"><ele>319.0</ele><time>2026-04-21T06:27:42.945Z</time></trkpt><trkpt lat="40.8345483" lon="9.314229"><ele>319.0</ele><time>2026-04-21T06:27:43.937Z</time></trkpt><trkpt lat="40.8344237" lon="9.3144252"><ele>319.0</ele><time>2026-04-21T06:27:44.941Z</time></trkpt><trkpt lat="40.834304" lon="9.3146287"><ele>319.0</ele><time>2026-04-21T06:27:45.94Z</time></trkpt><trkpt lat="40.8341761" lon="9.3148222"><ele>317.0</ele><time>2026-04-21T06:27:46.955Z</time></trkpt><trkpt lat="40.8340553" lon="9.3150336"><ele>315.0</ele><time>2026-04-21T06:27:47.959Z</time></trkpt><trkpt lat="40.8339284" lon="9.3152486"><ele>313.0</ele><time>2026-04-21T06:27:48.949Z</time></trkpt><trkpt lat="40.8337825" lon="9.3154414"><ele>312.66666666666663</ele><time>2026-04-21T06:27:49.953Z</time></trkpt><trkpt lat="40.8336457" lon="9.3156602"><ele>312.3333333333333</ele><time>2026-04-21T06:27:51.025Z</time></trkpt><trkpt lat="40.8335041" lon="9.3158727"><ele>312.0</ele><time>2026-04-21T06:27:52.033Z</time></trkpt><trkpt lat="40.8333636" lon="9.3160861"><ele>311.0</ele><time>2026-04-21T06:27:53.03Z</time></trkpt><trkpt lat="40.8332222" lon="9.3163057"><ele>310.0</ele><time>2026-04-21T06:27:54.036Z</time></trkpt><trkpt lat="40.8330774" lon="9.3165289"><ele>309.0</ele><time>2026-04-21T06:27:55.035Z</time></trkpt><trkpt lat="40.832932" lon="9.3167523"><ele>307.6666666666667</ele><time>2026-04-21T06:27:56.027Z</time></trkpt><trkpt lat="40.8327853" lon="9.3169764"><ele>306.33333333333337</ele><time>2026-04-21T06:27:57.027Z</time></trkpt><trkpt lat="40.8326411" lon="9.3172005"><ele>305.0</ele><time>2026-04-21T06:27:58.028Z</time></trkpt><trkpt lat="40.8324992" lon="9.317421"><ele>303.6666666666667</ele><time>2026-04-21T06:27:59.032Z</time></trkpt><trkpt lat="40.8323584" lon="9.3176387"><ele>302.3333333333333</ele><time>2026-04-21T06:28:00.029Z</time></trkpt><trkpt lat="40.8322208" lon="9.3178561"><ele>301.0</ele><time>2026-04-21T06:28:01.029Z</time></trkpt><trkpt lat="40.8320701" lon="9.3180823"><ele>301.0</ele><time>2026-04-21T06:28:02.031Z</time></trkpt><trkpt lat="40.831939" lon="9.3183042"><ele>301.0</ele><time>2026-04-21T06:28:03.027Z</time></trkpt><trkpt lat="40.8318056" lon="9.3185243"><ele>301.0</ele><time>2026-04-21T06:28:04.033Z</time></trkpt><trkpt lat="40.8316732" lon="9.318746"><ele>298.66666666666663</ele><time>2026-04-21T06:28:05.028Z</time></trkpt><trkpt lat="40.8315424" lon="9.3189602"><ele>296.3333333333333</ele><time>2026-04-21T06:28:06.03Z</time></trkpt><trkpt lat="40.8314092" lon="9.3191695"><ele>294.0</ele><time>2026-04-21T06:28:07.029Z</time></trkpt><trkpt lat="40.8312775" lon="9.3193742"><ele>294.0</ele><time>2026-04-21T06:28:08.028Z</time></trkpt><trkpt lat="40.8311494" lon="9.3195765"><ele>294.0</ele><time>2026-04-21T06:28:09.031Z</time></trkpt><trkpt lat="40.8310194" lon="9.3197755"><ele>294.0</ele><time>2026-04-21T06:28:10.03Z</time></trkpt><trkpt lat="40.830896" lon="9.3199622"><ele>293.6666666666667</ele><time>2026-04-21T06:28:11.025Z</time></trkpt><trkpt lat="40.8307744" lon="9.3201399"><ele>293.33333333333337</ele><time>2026-04-21T06:28:12.023Z</time></trkpt><trkpt lat="40.8306449" lon="9.3203026"><ele>293.0</ele><time>2026-04-21T06:28:13.019Z</time></trkpt><trkpt lat="40.8305012" lon="9.3204313"><ele>293.0</ele><time>2026-04-21T06:28:14.025Z</time></trkpt><trkpt lat="40.8303378" lon="9.3205063"><ele>293.0</ele><time>2026-04-21T06:28:15.023Z</time></trkpt><trkpt lat="40.8301702" lon="9.3205218"><ele>293.0</ele><time>2026-04-21T06:28:16.012Z</time></trkpt><trkpt lat="40.8300086" lon="9.3205046"><ele>293.33333333333337</ele><time>2026-04-21T06:28:17.01Z</time></trkpt><trkpt lat="40.8298308" lon="9.3204936"><ele>293.6666666666667</ele><time>2026-04-21T06:28:18.016Z</time></trkpt><trkpt lat="40.8296557" lon="9.3204916"><ele>294.0</ele><time>2026-04-21T06:28:19.02Z</time></trkpt><trkpt lat="40.8295001" lon="9.3205065"><ele>294.0</ele><time>2026-04-21T06:28:20.034Z</time></trkpt><trkpt lat="40.8293516" lon="9.3205359"><ele>294.0</ele><time>2026-04-21T06:28:21.032Z</time></trkpt><trkpt lat="40.8292099" lon="9.3205745"><ele>294.0</ele><time>2026-04-21T06:28:22.023Z</time></trkpt><trkpt lat="40.8290731" lon="9.3206216"><ele>294.0</ele><time>2026-04-21T06:28:23.024Z</time></trkpt><trkpt lat="40.8289463" lon="9.3206636"><ele>293.8</ele><time>2026-04-21T06:28:24.028Z</time></trkpt><trkpt lat="40.8288316" lon="9.3206985"><ele>293.59999999999997</ele><time>2026-04-21T06:28:25.015Z</time></trkpt><trkpt lat="40.8287264" lon="9.3207258"><ele>293.4</ele><time>2026-04-21T06:28:26.036Z</time></trkpt><trkpt lat="40.8286444" lon="9.3207499"><ele>293.2</ele><time>2026-04-21T06:28:27.037Z</time></trkpt><trkpt lat="40.8285681" lon="9.320771"><ele>293.0</ele><time>2026-04-21T06:28:28.038Z</time></trkpt><trkpt lat="40.8284997" lon="9.3207939"><ele>292.4</ele><time>2026-04-21T06:28:29.034Z</time></trkpt><trkpt lat="40.8284244" lon="9.3208177"><ele>291.8</ele><time>2026-04-21T06:28:30.036Z</time></trkpt><trkpt lat="40.8283349" lon="9.3208405"><ele>291.2</ele><time>2026-04-21T06:28:31.05Z</time></trkpt><trkpt lat="40.8282272" lon="9.3208687"><ele>290.6</ele><time>2026-04-21T06:28:32.044Z</time></trkpt><trkpt lat="40.8281159" lon="9.3208992"><ele>290.0</ele><time>2026-04-21T06:28:33.051Z</time></trkpt><trkpt lat="40.8279995" lon="9.3209312"><ele>290.0</ele><time>2026-04-21T06:28:34.044Z</time></trkpt><trkpt lat="40.8278753" lon="9.3209691"><ele>290.0</ele><time>2026-04-21T06:28:35.051Z</time></trkpt><trkpt lat="40.8277559" lon="9.3210041"><ele>290.0</ele><time>2026-04-21T06:28:36.046Z</time></trkpt><trkpt lat="40.8276417" lon="9.3210247"><ele>290.0</ele><time>2026-04-21T06:28:37.049Z</time></trkpt><trkpt lat="40.8275315" lon="9.3210327"><ele>289.2</ele><time>2026-04-21T06:28:38.049Z</time></trkpt><trkpt lat="40.8274275" lon="9.3210265"><ele>288.4</ele><time>2026-04-21T06:28:39.044Z</time></trkpt><trkpt lat="40.8273344" lon="9.320984"><ele>287.6</ele><time>2026-04-21T06:28:40.034Z</time></trkpt><trkpt lat="40.827241" lon="9.3209161"><ele>286.8</ele><time>2026-04-21T06:28:41.028Z</time></trkpt><trkpt lat="40.8271498" lon="9.3208249"><ele>286.0</ele><time>2026-04-21T06:28:42.023Z</time></trkpt><trkpt lat="40.8270716" lon="9.3207079"><ele>286.0</ele><time>2026-04-21T06:28:43.024Z</time></trkpt><trkpt lat="40.8269984" lon="9.3205724"><ele>286.0</ele><time>2026-04-21T06:28:44.033Z</time></trkpt><trkpt lat="40.8269185" lon="9.3204143"><ele>286.0</ele><time>2026-04-21T06:28:45.038Z</time></trkpt><trkpt lat="40.8268253" lon="9.3202724"><ele>286.0</ele><time>2026-04-21T06:28:46.02Z</time></trkpt><trkpt lat="40.8266994" lon="9.3201417"><ele>284.66666666666663</ele><time>2026-04-21T06:28:47.028Z</time></trkpt><trkpt lat="40.8265555" lon="9.3200247"><ele>283.3333333333333</ele><time>2026-04-21T06:28:48.029Z</time></trkpt><trkpt lat="40.8263981" lon="9.3199497"><ele>282.0</ele><time>2026-04-21T06:28:49.025Z</time></trkpt><trkpt lat="40.826232" lon="9.3198995"><ele>282.0</ele><time>2026-04-21T06:28:50.04Z</time></trkpt><trkpt lat="40.8260579" lon="9.3198555"><ele>282.0</ele><time>2026-04-21T06:28:51.045Z</time></trkpt><trkpt lat="40.8258838" lon="9.3198068"><ele>282.0</ele><time>2026-04-21T06:28:52.035Z</time></trkpt><trkpt lat="40.8257098" lon="9.3197492"><ele>281.6666666666667</ele><time>2026-04-21T06:28:53.042Z</time></trkpt><trkpt lat="40.8255484" lon="9.3196621"><ele>281.33333333333337</ele><time>2026-04-21T06:28:54.028Z</time></trkpt><trkpt lat="40.8254087" lon="9.3195414"><ele>281.0</ele><time>2026-04-21T06:28:55.029Z</time></trkpt><trkpt lat="40.8253056" lon="9.3193814"><ele>281.0</ele><time>2026-04-21T06:28:56.019Z</time></trkpt><trkpt lat="40.8252331" lon="9.3191775"><ele>281.0</ele><time>2026-04-21T06:28:57.023Z</time></trkpt><trkpt lat="40.8251718" lon="9.3189389"><ele>281.0</ele><time>2026-04-21T06:28:58.019Z</time></trkpt><trkpt lat="40.8251124" lon="9.3186868"><ele>281.33333333333337</ele><time>2026-04-21T06:28:59.018Z</time></trkpt><trkpt lat="40.8250469" lon="9.3184237"><ele>281.6666666666667</ele><time>2026-04-21T06:29:00.041Z</time></trkpt><trkpt lat="40.8249789" lon="9.318171"><ele>282.0</ele><time>2026-04-21T06:29:01.043Z</time></trkpt><trkpt lat="40.824912" lon="9.3179096"><ele>282.0</ele><time>2026-04-21T06:29:02.036Z</time></trkpt><trkpt lat="40.824846" lon="9.3176409"><ele>282.0</ele><time>2026-04-21T06:29:03.041Z</time></trkpt><trkpt lat="40.8247785" lon="9.3173629"><ele>282.0</ele><time>2026-04-21T06:29:04.047Z</time></trkpt><trkpt lat="40.8247145" lon="9.3170861"><ele>281.3333333333333</ele><time>2026-04-21T06:29:05.047Z</time></trkpt><trkpt lat="40.8246543" lon="9.3168083"><ele>280.66666666666663</ele><time>2026-04-21T06:29:06.041Z</time></trkpt><trkpt lat="40.824594" lon="9.3165287"><ele>280.0</ele><time>2026-04-21T06:29:07.042Z</time></trkpt><trkpt lat="40.8245338" lon="9.316247"><ele>279.3333333333333</ele><time>2026-04-21T06:29:08.038Z</time></trkpt><trkpt lat="40.8244681" lon="9.3159669"><ele>278.6666666666667</ele><time>2026-04-21T06:29:09.035Z</time></trkpt><trkpt lat="40.8244018" lon="9.3156876"><ele>278.0</ele><time>2026-04-21T06:29:10.039Z</time></trkpt><trkpt lat="40.824335" lon="9.3154092"><ele>278.33333333333337</ele><time>2026-04-21T06:29:11.044Z</time></trkpt><trkpt lat="40.8242683" lon="9.3151275"><ele>278.6666666666667</ele><time>2026-04-21T06:29:12.044Z</time></trkpt><trkpt lat="40.8242011" lon="9.3148453"><ele>279.0</ele><time>2026-04-21T06:29:13.045Z</time></trkpt><trkpt lat="40.8241335" lon="9.3145614"><ele>279.0</ele><time>2026-04-21T06:29:14.043Z</time></trkpt><trkpt lat="40.8240688" lon="9.3142779"><ele>279.0</ele><time>2026-04-21T06:29:15.043Z</time></trkpt><trkpt lat="40.8240013" lon="9.3139889"><ele>278.5</ele><time>2026-04-21T06:29:16.045Z</time></trkpt><trkpt lat="40.8239351" lon="9.3137021"><ele>278.0</ele><time>2026-04-21T06:29:17.038Z</time></trkpt><trkpt lat="40.82387" lon="9.3134135"><ele>278.0</ele><time>2026-04-21T06:29:18.045Z</time></trkpt><trkpt lat="40.8238049" lon="9.3131258"><ele>278.0</ele><time>2026-04-21T06:29:19.05Z</time></trkpt><trkpt lat="40.8237412" lon="9.3128386"><ele>278.0</ele><time>2026-04-21T06:29:20.039Z</time></trkpt><trkpt lat="40.8236755" lon="9.312553"><ele>278.0</ele><time>2026-04-21T06:29:21.041Z</time></trkpt><trkpt lat="40.8236017" lon="9.3122663"><ele>276.5</ele><time>2026-04-21T06:29:22.045Z</time></trkpt><trkpt lat="40.8235185" lon="9.3119796"><ele>275.0</ele><time>2026-04-21T06:29:23.042Z</time></trkpt><trkpt lat="40.8234254" lon="9.3116959"><ele>279.5</ele><time>2026-04-21T06:29:24.047Z</time></trkpt><trkpt lat="40.8233281" lon="9.3114154"><ele>284.0</ele><time>2026-04-21T06:29:25.046Z</time></trkpt><trkpt lat="40.823227" lon="9.3111375"><ele>284.0</ele><time>2026-04-21T06:29:26.041Z</time></trkpt><trkpt lat="40.823119" lon="9.3108622"><ele>284.0</ele><time>2026-04-21T06:29:27.037Z</time></trkpt><trkpt lat="40.8230037" lon="9.3105907"><ele>281.5</ele><time>2026-04-21T06:29:28.04Z</time></trkpt><trkpt lat="40.822882" lon="9.3103232"><ele>279.0</ele><time>2026-04-21T06:29:29.044Z</time></trkpt><trkpt lat="40.8227556" lon="9.3100638"><ele>281.0</ele><time>2026-04-21T06:29:30.038Z</time></trkpt><trkpt lat="40.822625" lon="9.3098125"><ele>283.0</ele><time>2026-04-21T06:29:31.04Z</time></trkpt><trkpt lat="40.8224881" lon="9.3095678"><ele>283.0</ele><time>2026-04-21T06:29:32.04Z</time></trkpt><trkpt lat="40.8223444" lon="9.3093267"><ele>283.0</ele><time>2026-04-21T06:29:33.043Z</time></trkpt><trkpt lat="40.8221952" lon="9.309091"><ele>280.0</ele><time>2026-04-21T06:29:34.041Z</time></trkpt><trkpt lat="40.8220434" lon="9.3088615"><ele>277.0</ele><time>2026-04-21T06:29:35.036Z</time></trkpt><trkpt lat="40.8218865" lon="9.308633"><ele>279.0</ele><time>2026-04-21T06:29:36.046Z</time></trkpt><trkpt lat="40.8217223" lon="9.3084111"><ele>281.0</ele><time>2026-04-21T06:29:37.049Z</time></trkpt><trkpt lat="40.8215521" lon="9.3081991"><ele>276.5</ele><time>2026-04-21T06:29:38.051Z</time></trkpt><trkpt lat="40.8213717" lon="9.3079892"><ele>272.0</ele><time>2026-04-21T06:29:39.049Z</time></trkpt><trkpt lat="40.8211876" lon="9.3077864"><ele>272.0</ele><time>2026-04-21T06:29:40.049Z</time></trkpt><trkpt lat="40.8209966" lon="9.3075895"><ele>272.0</ele><time>2026-04-21T06:29:41.051Z</time></trkpt><trkpt lat="40.8208079" lon="9.3073955"><ele>277.0</ele><time>2026-04-21T06:29:42.052Z</time></trkpt><trkpt lat="40.8206175" lon="9.3072055"><ele>282.0</ele><time>2026-04-21T06:29:43.047Z</time></trkpt><trkpt lat="40.8204262" lon="9.3070149"><ele>282.0</ele><time>2026-04-21T06:29:44.056Z</time></trkpt><trkpt lat="40.8202329" lon="9.3068205"><ele>282.0</ele><time>2026-04-21T06:29:45.048Z</time></trkpt><trkpt lat="40.8200423" lon="9.3066222"><ele>281.5</ele><time>2026-04-21T06:29:46.046Z</time></trkpt><trkpt lat="40.8198506" lon="9.3064227"><ele>281.0</ele><time>2026-04-21T06:29:47.051Z</time></trkpt><trkpt lat="40.8196535" lon="9.3062236"><ele>279.0</ele><time>2026-04-21T06:29:48.045Z</time></trkpt><trkpt lat="40.8194567" lon="9.3060258"><ele>277.0</ele><time>2026-04-21T06:29:49.05Z</time></trkpt><trkpt lat="40.8192631" lon="9.3058286"><ele>277.0</ele><time>2026-04-21T06:29:50.044Z</time></trkpt><trkpt lat="40.8190723" lon="9.3056286"><ele>277.0</ele><time>2026-04-21T06:29:51.048Z</time></trkpt><trkpt lat="40.8188779" lon="9.3054275"><ele>277.5</ele><time>2026-04-21T06:29:52.045Z</time></trkpt><trkpt lat="40.8186813" lon="9.3052266"><ele>278.0</ele><time>2026-04-21T06:29:53.052Z</time></trkpt><trkpt lat="40.8184819" lon="9.3050293"><ele>278.5</ele><time>2026-04-21T06:29:54.047Z</time></trkpt><trkpt lat="40.8182837" lon="9.3048334"><ele>279.0</ele><time>2026-04-21T06:29:55.048Z</time></trkpt><trkpt lat="40.8180846" lon="9.3046348"><ele>279.0</ele><time>2026-04-21T06:29:56.045Z</time></trkpt><trkpt lat="40.8178889" lon="9.3044357"><ele>279.0</ele><time>2026-04-21T06:29:57.048Z</time></trkpt><trkpt lat="40.8176933" lon="9.3042382"><ele>280.0</ele><time>2026-04-21T06:29:58.041Z</time></trkpt><trkpt lat="40.8174986" lon="9.3040425"><ele>281.0</ele><time>2026-04-21T06:29:59.049Z</time></trkpt><trkpt lat="40.8173013" lon="9.3038448"><ele>281.0</ele><time>2026-04-21T06:30:00.048Z</time></trkpt><trkpt lat="40.8171067" lon="9.3036455"><ele>281.0</ele><time>2026-04-21T06:30:01.048Z</time></trkpt><trkpt lat="40.8169098" lon="9.3034446"><ele>278.5</ele><time>2026-04-21T06:30:02.041Z</time></trkpt><trkpt lat="40.8167076" lon="9.3032422"><ele>276.0</ele><time>2026-04-21T06:30:03.04Z</time></trkpt><trkpt lat="40.8165046" lon="9.3030415"><ele>275.0</ele><time>2026-04-21T06:30:04.044Z</time></trkpt><trkpt lat="40.8163046" lon="9.3028353"><ele>274.0</ele><time>2026-04-21T06:30:05.04Z</time></trkpt><trkpt lat="40.8161036" lon="9.3026288"><ele>273.0</ele><time>2026-04-21T06:30:06.046Z</time></trkpt><trkpt lat="40.8159029" lon="9.302425"><ele>272.0</ele><time>2026-04-21T06:30:07.04Z</time></trkpt><trkpt lat="40.8156983" lon="9.3022199"><ele>269.5</ele><time>2026-04-21T06:30:08.041Z</time></trkpt><trkpt lat="40.8154981" lon="9.3020143"><ele>267.0</ele><time>2026-04-21T06:30:09.059Z</time></trkpt><trkpt lat="40.8152954" lon="9.3018077"><ele>266.5</ele><time>2026-04-21T06:30:10.035Z</time></trkpt><trkpt lat="40.8150931" lon="9.3015993"><ele>266.0</ele><time>2026-04-21T06:30:11.045Z</time></trkpt><trkpt lat="40.814894" lon="9.301388"><ele>266.0</ele><time>2026-04-21T06:30:12.048Z</time></trkpt><trkpt lat="40.8146989" lon="9.3011799"><ele>266.0</ele><time>2026-04-21T06:30:13.046Z</time></trkpt><trkpt lat="40.8144979" lon="9.3009738"><ele>264.0</ele><time>2026-04-21T06:30:14.043Z</time></trkpt><trkpt lat="40.8142958" lon="9.3007696"><ele>262.0</ele><time>2026-04-21T06:30:15.048Z</time></trkpt><trkpt lat="40.8140953" lon="9.3005688"><ele>260.0</ele><time>2026-04-21T06:30:16.047Z</time></trkpt><trkpt lat="40.8138943" lon="9.3003683"><ele>258.0</ele><time>2026-04-21T06:30:17.045Z</time></trkpt><trkpt lat="40.8136925" lon="9.300167"><ele>258.0</ele><time>2026-04-21T06:30:18.054Z</time></trkpt><trkpt lat="40.8134912" lon="9.2999685"><ele>258.0</ele><time>2026-04-21T06:30:19.047Z</time></trkpt><trkpt lat="40.8132919" lon="9.2997715"><ele>254.5</ele><time>2026-04-21T06:30:20.048Z</time></trkpt><trkpt lat="40.8130943" lon="9.2995694"><ele>251.0</ele><time>2026-04-21T06:30:21.049Z</time></trkpt><trkpt lat="40.8128956" lon="9.299364"><ele>251.0</ele><time>2026-04-21T06:30:22.049Z</time></trkpt><trkpt lat="40.8126951" lon="9.299159"><ele>251.0</ele><time>2026-04-21T06:30:23.046Z</time></trkpt><trkpt lat="40.8124905" lon="9.2989537"><ele>254.0</ele><time>2026-04-21T06:30:24.045Z</time></trkpt><trkpt lat="40.8122845" lon="9.2987494"><ele>257.0</ele><time>2026-04-21T06:30:25.052Z</time></trkpt><trkpt lat="40.8120818" lon="9.2985443"><ele>257.0</ele><time>2026-04-21T06:30:26.046Z</time></trkpt><trkpt lat="40.8118817" lon="9.2983369"><ele>257.0</ele><time>2026-04-21T06:30:27.037Z</time></trkpt><trkpt lat="40.8116783" lon="9.2981279"><ele>260.0</ele><time>2026-04-21T06:30:28.046Z</time></trkpt><trkpt lat="40.8114736" lon="9.2979205"><ele>263.0</ele><time>2026-04-21T06:30:29.043Z</time></trkpt><trkpt lat="40.8112696" lon="9.2977162"><ele>263.0</ele><time>2026-04-21T06:30:30.051Z</time></trkpt><trkpt lat="40.8110625" lon="9.2975145"><ele>263.0</ele><time>2026-04-21T06:30:31.042Z</time></trkpt><trkpt lat="40.8108613" lon="9.2973152"><ele>265.0</ele><time>2026-04-21T06:30:32.039Z</time></trkpt><trkpt lat="40.8106615" lon="9.2971186"><ele>267.0</ele><time>2026-04-21T06:30:33.039Z</time></trkpt><trkpt lat="40.8104622" lon="9.2969213"><ele>267.0</ele><time>2026-04-21T06:30:34.039Z</time></trkpt><trkpt lat="40.8102608" lon="9.2967196"><ele>267.0</ele><time>2026-04-21T06:30:35.046Z</time></trkpt><trkpt lat="40.8100573" lon="9.2965231"><ele>266.5</ele><time>2026-04-21T06:30:36.034Z</time></trkpt><trkpt lat="40.8098569" lon="9.2963268"><ele>266.0</ele><time>2026-04-21T06:30:37.036Z</time></trkpt><trkpt lat="40.809656" lon="9.2961267"><ele>266.0</ele><time>2026-04-21T06:30:38.048Z</time></trkpt><trkpt lat="40.8094567" lon="9.2959257"><ele>266.0</ele><time>2026-04-21T06:30:39.039Z</time></trkpt><trkpt lat="40.8092566" lon="9.2957223"><ele>262.5</ele><time>2026-04-21T06:30:40.045Z</time></trkpt><trkpt lat="40.8090613" lon="9.2955189"><ele>259.0</ele><time>2026-04-21T06:30:41.036Z</time></trkpt><trkpt lat="40.8088668" lon="9.2953071"><ele>259.0</ele><time>2026-04-21T06:30:42.04Z</time></trkpt><trkpt lat="40.8086795" lon="9.2950871"><ele>259.0</ele><time>2026-04-21T06:30:43.04Z</time></trkpt><trkpt lat="40.8084949" lon="9.2948533"><ele>256.5</ele><time>2026-04-21T06:30:44.048Z</time></trkpt><trkpt lat="40.8083138" lon="9.2946104"><ele>254.0</ele><time>2026-04-21T06:30:45.043Z</time></trkpt><trkpt lat="40.8081386" lon="9.2943653"><ele>254.0</ele><time>2026-04-21T06:30:46.044Z</time></trkpt><trkpt lat="40.8079695" lon="9.2941156"><ele>254.0</ele><time>2026-04-21T06:30:47.049Z</time></trkpt><trkpt lat="40.8078043" lon="9.2938606"><ele>252.0</ele><time>2026-04-21T06:30:48.048Z</time></trkpt><trkpt lat="40.8076465" lon="9.2935991"><ele>250.0</ele><time>2026-04-21T06:30:49.047Z</time></trkpt><trkpt lat="40.8074949" lon="9.2933264"><ele>249.5</ele><time>2026-04-21T06:30:50.05Z</time></trkpt><trkpt lat="40.8073458" lon="9.2930487"><ele>249.0</ele><time>2026-04-21T06:30:51.045Z</time></trkpt><trkpt lat="40.8072024" lon="9.2927704"><ele>249.0</ele><time>2026-04-21T06:30:52.049Z</time></trkpt><trkpt lat="40.8070647" lon="9.2924887"><ele>249.0</ele><time>2026-04-21T06:30:53.052Z</time></trkpt><trkpt lat="40.8069297" lon="9.2922044"><ele>251.0</ele><time>2026-04-21T06:30:54.049Z</time></trkpt><trkpt lat="40.8068017" lon="9.2919149"><ele>253.0</ele><time>2026-04-21T06:30:55.048Z</time></trkpt><trkpt lat="40.8066785" lon="9.2916195"><ele>255.0</ele><time>2026-04-21T06:30:56.044Z</time></trkpt><trkpt lat="40.8065658" lon="9.2913202"><ele>257.0</ele><time>2026-04-21T06:30:57.042Z</time></trkpt><trkpt lat="40.8064572" lon="9.2910184"><ele>257.0</ele><time>2026-04-21T06:30:58.042Z</time></trkpt><trkpt lat="40.8063545" lon="9.290711"><ele>257.0</ele><time>2026-04-21T06:30:59.05Z</time></trkpt><trkpt lat="40.8062548" lon="9.2903984"><ele>258.5</ele><time>2026-04-21T06:31:00.039Z</time></trkpt><trkpt lat="40.8061598" lon="9.2900864"><ele>260.0</ele><time>2026-04-21T06:31:01.051Z</time></trkpt><trkpt lat="40.8060716" lon="9.2897699"><ele>258.0</ele><time>2026-04-21T06:31:02.036Z</time></trkpt><trkpt lat="40.8059877" lon="9.2894471"><ele>256.0</ele><time>2026-04-21T06:31:03.035Z</time></trkpt><trkpt lat="40.805909" lon="9.2891213"><ele>257.5</ele><time>2026-04-21T06:31:04.041Z</time></trkpt><trkpt lat="40.8058355" lon="9.2887925"><ele>259.0</ele><time>2026-04-21T06:31:05.036Z</time></trkpt><trkpt lat="40.8057673" lon="9.2884638"><ele>259.0</ele><time>2026-04-21T06:31:06.038Z</time></trkpt><trkpt lat="40.8057032" lon="9.2881342"><ele>259.0</ele><time>2026-04-21T06:31:07.045Z</time></trkpt><trkpt lat="40.8056402" lon="9.2878045"><ele>259.0</ele><time>2026-04-21T06:31:08.043Z</time></trkpt><trkpt lat="40.805575" lon="9.2874815"><ele>259.0</ele><time>2026-04-21T06:31:09.045Z</time></trkpt><trkpt lat="40.8055111" lon="9.2871599"><ele>259.5</ele><time>2026-04-21T06:31:10.045Z</time></trkpt><trkpt lat="40.8054485" lon="9.2868383"><ele>260.0</ele><time>2026-04-21T06:31:11.048Z</time></trkpt><trkpt lat="40.8053856" lon="9.2865195"><ele>262.0</ele><time>2026-04-21T06:31:12.043Z</time></trkpt><trkpt lat="40.8053168" lon="9.2862023"><ele>264.0</ele><time>2026-04-21T06:31:13.042Z</time></trkpt><trkpt lat="40.8052429" lon="9.2858881"><ele>264.0</ele><time>2026-04-21T06:31:14.044Z</time></trkpt><trkpt lat="40.8051642" lon="9.2855747"><ele>264.0</ele><time>2026-04-21T06:31:15.044Z</time></trkpt><trkpt lat="40.8050832" lon="9.2852627"><ele>261.0</ele><time>2026-04-21T06:31:16.047Z</time></trkpt><trkpt lat="40.8049954" lon="9.2849528"><ele>258.0</ele><time>2026-04-21T06:31:17.042Z</time></trkpt><trkpt lat="40.8049019" lon="9.2846416"><ele>258.0</ele><time>2026-04-21T06:31:18.047Z</time></trkpt><trkpt lat="40.8048051" lon="9.2843373"><ele>258.0</ele><time>2026-04-21T06:31:19.048Z</time></trkpt><trkpt lat="40.8047046" lon="9.284033"><ele>259.0</ele><time>2026-04-21T06:31:20.043Z</time></trkpt><trkpt lat="40.8046023" lon="9.2837334"><ele>260.0</ele><time>2026-04-21T06:31:21.045Z</time></trkpt><trkpt lat="40.8044914" lon="9.2834415"><ele>260.0</ele><time>2026-04-21T06:31:22.046Z</time></trkpt><trkpt lat="40.8043778" lon="9.283153"><ele>260.0</ele><time>2026-04-21T06:31:23.05Z</time></trkpt><trkpt lat="40.8042685" lon="9.2828845"><ele>261.0</ele><time>2026-04-21T06:31:24.046Z</time></trkpt><trkpt lat="40.8041656" lon="9.282629"><ele>262.0</ele><time>2026-04-21T06:31:25.047Z</time></trkpt><trkpt lat="40.8040664" lon="9.2823785"><ele>263.0</ele><time>2026-04-21T06:31:26.041Z</time></trkpt><trkpt lat="40.8039605" lon="9.2821416"><ele>264.0</ele><time>2026-04-21T06:31:27.041Z</time></trkpt><trkpt lat="40.8038477" lon="9.281917"><ele>265.0</ele><time>2026-04-21T06:31:28.042Z</time></trkpt><trkpt lat="40.8037382" lon="9.2817065"><ele>266.0</ele><time>2026-04-21T06:31:29.038Z</time></trkpt><trkpt lat="40.8036326" lon="9.2815044"><ele>266.0</ele><time>2026-04-21T06:31:30.041Z</time></trkpt><trkpt lat="40.8035358" lon="9.2813111"><ele>266.0</ele><time>2026-04-21T06:31:31.044Z</time></trkpt><trkpt lat="40.8034589" lon="9.2811279"><ele>266.0</ele><time>2026-04-21T06:31:32.039Z</time></trkpt><trkpt lat="40.8034181" lon="9.2809611"><ele>264.75</ele><time>2026-04-21T06:31:33.033Z</time></trkpt><trkpt lat="40.8034141" lon="9.2808095"><ele>263.5</ele><time>2026-04-21T06:31:34.045Z</time></trkpt><trkpt lat="40.8034404" lon="9.2806563"><ele>262.25</ele><time>2026-04-21T06:31:35.022Z</time></trkpt><trkpt lat="40.8034904" lon="9.2805025"><ele>261.0</ele><time>2026-04-21T06:31:36.029Z</time></trkpt><trkpt lat="40.8035441" lon="9.2803362"><ele>261.0</ele><time>2026-04-21T06:31:37.024Z</time></trkpt><trkpt lat="40.8035934" lon="9.2801698"><ele>261.0</ele><time>2026-04-21T06:31:38.024Z</time></trkpt><trkpt lat="40.8036278" lon="9.2800128"><ele>261.0</ele><time>2026-04-21T06:31:39.041Z</time></trkpt><trkpt lat="40.8036424" lon="9.2798606"><ele>261.0</ele><time>2026-04-21T06:31:40.041Z</time></trkpt><trkpt lat="40.8036374" lon="9.2797055"><ele>261.25</ele><time>2026-04-21T06:31:41.037Z</time></trkpt><trkpt lat="40.8036146" lon="9.279553"><ele>261.5</ele><time>2026-04-21T06:31:42.02Z</time></trkpt><trkpt lat="40.8035682" lon="9.2794167"><ele>261.75</ele><time>2026-04-21T06:31:43.026Z</time></trkpt><trkpt lat="40.8034997" lon="9.279296"><ele>262.0</ele><time>2026-04-21T06:31:44.024Z</time></trkpt><trkpt lat="40.8034079" lon="9.2791898"><ele>261.25</ele><time>2026-04-21T06:31:45.026Z</time></trkpt><trkpt lat="40.8033116" lon="9.2791026"><ele>260.5</ele><time>2026-04-21T06:31:46.043Z</time></trkpt><trkpt lat="40.8032025" lon="9.2790553"><ele>259.75</ele><time>2026-04-21T06:31:47.039Z</time></trkpt><trkpt lat="40.8030783" lon="9.2790515"><ele>259.0</ele><time>2026-04-21T06:31:48.025Z</time></trkpt><trkpt lat="40.8029516" lon="9.2790948"><ele>259.0</ele><time>2026-04-21T06:31:49.023Z</time></trkpt><trkpt lat="40.8028307" lon="9.2791806"><ele>259.0</ele><time>2026-04-21T06:31:50.013Z</time></trkpt><trkpt lat="40.8027045" lon="9.2792972"><ele>259.0</ele><time>2026-04-21T06:31:51.028Z</time></trkpt><trkpt lat="40.8025789" lon="9.2794364"><ele>258.3333333333333</ele><time>2026-04-21T06:31:52.033Z</time></trkpt><trkpt lat="40.8024532" lon="9.2795839"><ele>257.6666666666667</ele><time>2026-04-21T06:31:53.051Z</time></trkpt><trkpt lat="40.8023241" lon="9.2797411"><ele>257.0</ele><time>2026-04-21T06:31:54.038Z</time></trkpt><trkpt lat="40.8021919" lon="9.2799028"><ele>256.0</ele><time>2026-04-21T06:31:55.034Z</time></trkpt><trkpt lat="40.8020561" lon="9.280067"><ele>255.0</ele><time>2026-04-21T06:31:56.039Z</time></trkpt><trkpt lat="40.8019202" lon="9.2802367"><ele>254.0</ele><time>2026-04-21T06:31:57.034Z</time></trkpt><trkpt lat="40.8017815" lon="9.2804018"><ele>253.0</ele><time>2026-04-21T06:31:58.045Z</time></trkpt><trkpt lat="40.8016499" lon="9.2805577"><ele>252.0</ele><time>2026-04-21T06:31:59.032Z</time></trkpt><trkpt lat="40.8015173" lon="9.2807122"><ele>251.0</ele><time>2026-04-21T06:32:00.035Z</time></trkpt><trkpt lat="40.8013863" lon="9.2808569"><ele>248.66666666666669</ele><time>2026-04-21T06:32:01.051Z</time></trkpt><trkpt lat="40.80126" lon="9.2810022"><ele>246.33333333333331</ele><time>2026-04-21T06:32:02.04Z</time></trkpt><trkpt lat="40.8011421" lon="9.2811448"><ele>244.0</ele><time>2026-04-21T06:32:03.04Z</time></trkpt><trkpt lat="40.8010341" lon="9.2812759"><ele>243.25</ele><time>2026-04-21T06:32:04.044Z</time></trkpt><trkpt lat="40.8009343" lon="9.2813903"><ele>242.5</ele><time>2026-04-21T06:32:05.034Z</time></trkpt><trkpt lat="40.8008379" lon="9.2814821"><ele>241.75</ele><time>2026-04-21T06:32:06.041Z</time></trkpt><trkpt lat="40.8007464" lon="9.2815448"><ele>241.0</ele><time>2026-04-21T06:32:07.03Z</time></trkpt><trkpt lat="40.8006554" lon="9.2815889"><ele>240.99999999999997</ele><time>2026-04-21T06:32:08.037Z</time></trkpt><trkpt lat="40.8005879" lon="9.2816021"><ele>241.0</ele><time>2026-04-21T06:32:09.039Z</time></trkpt><trkpt lat="40.8004867" lon="9.2815794"><ele>241.0</ele><time>2026-04-21T06:32:11.032Z</time></trkpt><trkpt lat="40.8003881" lon="9.281562"><ele>241.0</ele><time>2026-04-21T06:32:13.056Z</time></trkpt><trkpt lat="40.8003226" lon="9.2815734"><ele>240.99999999999997</ele><time>2026-04-21T06:32:14.041Z</time></trkpt><trkpt lat="40.8002655" lon="9.2816102"><ele>241.0</ele><time>2026-04-21T06:32:15.028Z</time></trkpt><trkpt lat="40.8002206" lon="9.281683"><ele>240.99999999999997</ele><time>2026-04-21T06:32:16.029Z</time></trkpt><trkpt lat="40.8002076" lon="9.281778"><ele>241.0</ele><time>2026-04-21T06:32:17.016Z</time></trkpt><trkpt lat="40.8002239" lon="9.2818715"><ele>241.0</ele><time>2026-04-21T06:32:18.018Z</time></trkpt><trkpt lat="40.8002644" lon="9.2819463"><ele>241.0</ele><time>2026-04-21T06:32:19.036Z</time></trkpt><trkpt lat="40.8003785" lon="9.2819814"><ele>240.99999999999997</ele><time>2026-04-21T06:32:21.02Z</time></trkpt><trkpt lat="40.8004425" lon="9.2819421"><ele>241.0</ele><time>2026-04-21T06:32:22.024Z</time></trkpt><trkpt lat="40.8004967" lon="9.2818715"><ele>241.0</ele><time>2026-04-21T06:32:23.018Z</time></trkpt><trkpt lat="40.800552" lon="9.2817852"><ele>241.0</ele><time>2026-04-21T06:32:24.022Z</time></trkpt><trkpt lat="40.800612" lon="9.2816924"><ele>241.0</ele><time>2026-04-21T06:32:24.941Z</time></trkpt><trkpt lat="40.8007196" lon="9.2815866"><ele>241.0</ele><time>2026-04-21T06:32:25.936Z</time></trkpt><trkpt lat="40.8008441" lon="9.2814825"><ele>240.66666666666666</ele><time>2026-04-21T06:32:26.941Z</time></trkpt><trkpt lat="40.8009711" lon="9.2813703"><ele>240.33333333333331</ele><time>2026-04-21T06:32:27.945Z</time></trkpt><trkpt lat="40.8011081" lon="9.2812342"><ele>240.0</ele><time>2026-04-21T06:32:28.944Z</time></trkpt><trkpt lat="40.8012422" lon="9.2810477"><ele>241.33333333333331</ele><time>2026-04-21T06:32:29.94Z</time></trkpt><trkpt lat="40.8013806" lon="9.2808807"><ele>242.66666666666666</ele><time>2026-04-21T06:32:30.954Z</time></trkpt><trkpt lat="40.8015259" lon="9.2807221"><ele>244.0</ele><time>2026-04-21T06:32:31.947Z</time></trkpt><trkpt lat="40.80166" lon="9.2805582"><ele>246.33333333333331</ele><time>2026-04-21T06:32:32.952Z</time></trkpt><trkpt lat="40.8018105" lon="9.2804023"><ele>248.66666666666669</ele><time>2026-04-21T06:32:33.947Z</time></trkpt><trkpt lat="40.8019416" lon="9.2802252"><ele>251.0</ele><time>2026-04-21T06:32:34.953Z</time></trkpt><trkpt lat="40.8020909" lon="9.2800551"><ele>252.0</ele><time>2026-04-21T06:32:35.946Z</time></trkpt><trkpt lat="40.8022373" lon="9.2799073"><ele>253.0</ele><time>2026-04-21T06:32:36.951Z</time></trkpt><trkpt lat="40.8023825" lon="9.2797669"><ele>254.0</ele><time>2026-04-21T06:32:37.945Z</time></trkpt><trkpt lat="40.802513" lon="9.2796115"><ele>254.75</ele><time>2026-04-21T06:32:38.938Z</time></trkpt><trkpt lat="40.8026359" lon="9.2794455"><ele>255.5</ele><time>2026-04-21T06:32:39.942Z</time></trkpt><trkpt lat="40.8027182" lon="9.2793183"><ele>256.25</ele><time>2026-04-21T06:32:40.938Z</time></trkpt><trkpt lat="40.8028174" lon="9.2791992"><ele>257.0</ele><time>2026-04-21T06:32:41.947Z</time></trkpt><trkpt lat="40.8029474" lon="9.2791072"><ele>257.5</ele><time>2026-04-21T06:32:42.946Z</time></trkpt><trkpt lat="40.8030776" lon="9.2790424"><ele>258.0</ele><time>2026-04-21T06:32:43.946Z</time></trkpt><trkpt lat="40.8032224" lon="9.2790543"><ele>258.5</ele><time>2026-04-21T06:32:44.932Z</time></trkpt><trkpt lat="40.8033584" lon="9.2791157"><ele>259.0</ele><time>2026-04-21T06:32:45.927Z</time></trkpt><trkpt lat="40.803464" lon="9.27923"><ele>260.0</ele><time>2026-04-21T06:32:46.93Z</time></trkpt><trkpt lat="40.8035789" lon="9.2793894"><ele>261.0</ele><time>2026-04-21T06:32:47.951Z</time></trkpt><trkpt lat="40.8036398" lon="9.2795617"><ele>262.0</ele><time>2026-04-21T06:32:48.947Z</time></trkpt><trkpt lat="40.803646" lon="9.2797522"><ele>261.75</ele><time>2026-04-21T06:32:49.949Z</time></trkpt><trkpt lat="40.8036066" lon="9.2799587"><ele>261.5</ele><time>2026-04-21T06:32:50.936Z</time></trkpt><trkpt lat="40.8035357" lon="9.2801106"><ele>261.25</ele><time>2026-04-21T06:32:51.936Z</time></trkpt><trkpt lat="40.8034519" lon="9.2802518"><ele>261.0</ele><time>2026-04-21T06:32:52.948Z</time></trkpt><trkpt lat="40.8033561" lon="9.2803656"><ele>260.5</ele><time>2026-04-21T06:32:53.936Z</time></trkpt><trkpt lat="40.8032207" lon="9.2803777"><ele>260.0</ele><time>2026-04-21T06:32:54.934Z</time></trkpt><trkpt lat="40.8030824" lon="9.2803404"><ele>259.5</ele><time>2026-04-21T06:32:55.948Z</time></trkpt><trkpt lat="40.802964" lon="9.280276"><ele>259.0</ele><time>2026-04-21T06:32:56.942Z</time></trkpt><trkpt lat="40.8028366" lon="9.2801552"><ele>259.0</ele><time>2026-04-21T06:32:57.936Z</time></trkpt><trkpt lat="40.8026964" lon="9.2799827"><ele>259.0</ele><time>2026-04-21T06:32:58.93Z</time></trkpt><trkpt lat="40.8025431" lon="9.27978"><ele>259.0</ele><time>2026-04-21T06:32:59.945Z</time></trkpt><trkpt lat="40.8023978" lon="9.2795572"><ele>258.0</ele><time>2026-04-21T06:33:00.947Z</time></trkpt><trkpt lat="40.8022424" lon="9.2793261"><ele>257.0</ele><time>2026-04-21T06:33:01.939Z</time></trkpt><trkpt lat="40.8020669" lon="9.27908"><ele>258.0</ele><time>2026-04-21T06:33:02.943Z</time></trkpt><trkpt lat="40.8019045" lon="9.2788219"><ele>259.0</ele><time>2026-04-21T06:33:03.946Z</time></trkpt><trkpt lat="40.8017346" lon="9.2785542"><ele>259.0</ele><time>2026-04-21T06:33:04.947Z</time></trkpt><trkpt lat="40.8015555" lon="9.2782887"><ele>259.0</ele><time>2026-04-21T06:33:05.949Z</time></trkpt><trkpt lat="40.8013588" lon="9.2780376"><ele>259.5</ele><time>2026-04-21T06:33:06.948Z</time></trkpt><trkpt lat="40.8011936" lon="9.2777796"><ele>260.0</ele><time>2026-04-21T06:33:07.951Z</time></trkpt><trkpt lat="40.8010265" lon="9.277515"><ele>261.0</ele><time>2026-04-21T06:33:08.952Z</time></trkpt><trkpt lat="40.8008498" lon="9.2772604"><ele>262.0</ele><time>2026-04-21T06:33:09.955Z</time></trkpt><trkpt lat="40.8006743" lon="9.2770169"><ele>262.0</ele><time>2026-04-21T06:33:10.954Z</time></trkpt><trkpt lat="40.8005017" lon="9.2767705"><ele>262.0</ele><time>2026-04-21T06:33:11.953Z</time></trkpt><trkpt lat="40.8003397" lon="9.2765304"><ele>262.5</ele><time>2026-04-21T06:33:12.956Z</time></trkpt><trkpt lat="40.8001753" lon="9.2762927"><ele>263.0</ele><time>2026-04-21T06:33:13.957Z</time></trkpt><trkpt lat="40.8000159" lon="9.2760443"><ele>263.0</ele><time>2026-04-21T06:33:14.957Z</time></trkpt><trkpt lat="40.7998524" lon="9.2757988"><ele>263.0</ele><time>2026-04-21T06:33:15.957Z</time></trkpt><trkpt lat="40.7996879" lon="9.2755581"><ele>263.0</ele><time>2026-04-21T06:33:16.956Z</time></trkpt><trkpt lat="40.7995231" lon="9.2753062"><ele>263.0</ele><time>2026-04-21T06:33:17.954Z</time></trkpt><trkpt lat="40.7993548" lon="9.2750562"><ele>260.5</ele><time>2026-04-21T06:33:18.955Z</time></trkpt><trkpt lat="40.7991907" lon="9.2748139"><ele>258.0</ele><time>2026-04-21T06:33:19.958Z</time></trkpt><trkpt lat="40.7990277" lon="9.2745727"><ele>257.5</ele><time>2026-04-21T06:33:20.95Z</time></trkpt><trkpt lat="40.7988702" lon="9.2743285"><ele>257.0</ele><time>2026-04-21T06:33:21.957Z</time></trkpt><trkpt lat="40.7987063" lon="9.2740832"><ele>255.5</ele><time>2026-04-21T06:33:22.957Z</time></trkpt><trkpt lat="40.7985438" lon="9.2738386"><ele>254.0</ele><time>2026-04-21T06:33:23.955Z</time></trkpt><trkpt lat="40.7983779" lon="9.2735928"><ele>253.5</ele><time>2026-04-21T06:33:24.957Z</time></trkpt><trkpt lat="40.7982226" lon="9.2733488"><ele>253.0</ele><time>2026-04-21T06:33:25.956Z</time></trkpt><trkpt lat="40.7980614" lon="9.2731083"><ele>251.0</ele><time>2026-04-21T06:33:26.952Z</time></trkpt><trkpt lat="40.7978816" lon="9.2728775"><ele>249.0</ele><time>2026-04-21T06:33:27.953Z</time></trkpt><trkpt lat="40.7977254" lon="9.2726375"><ele>247.5</ele><time>2026-04-21T06:33:28.957Z</time></trkpt><trkpt lat="40.7975813" lon="9.2724159"><ele>246.0</ele><time>2026-04-21T06:33:29.952Z</time></trkpt><trkpt lat="40.7974277" lon="9.2721811"><ele>245.5</ele><time>2026-04-21T06:33:30.957Z</time></trkpt><trkpt lat="40.7972749" lon="9.2719509"><ele>245.0</ele><time>2026-04-21T06:33:31.958Z</time></trkpt><trkpt lat="40.7971029" lon="9.271714"><ele>245.0</ele><time>2026-04-21T06:33:32.95Z</time></trkpt><trkpt lat="40.7969587" lon="9.2714769"><ele>245.0</ele><time>2026-04-21T06:33:33.952Z</time></trkpt><trkpt lat="40.7968075" lon="9.2712506"><ele>242.5</ele><time>2026-04-21T06:33:34.956Z</time></trkpt><trkpt lat="40.7966439" lon="9.271021"><ele>240.0</ele><time>2026-04-21T06:33:35.951Z</time></trkpt><trkpt lat="40.7964723" lon="9.2707844"><ele>239.0</ele><time>2026-04-21T06:33:36.947Z</time></trkpt><trkpt lat="40.7963266" lon="9.2705556"><ele>238.0</ele><time>2026-04-21T06:33:37.951Z</time></trkpt><trkpt lat="40.7961464" lon="9.2703223"><ele>238.0</ele><time>2026-04-21T06:33:38.957Z</time></trkpt><trkpt lat="40.7960215" lon="9.2701041"><ele>238.0</ele><time>2026-04-21T06:33:39.953Z</time></trkpt><trkpt lat="40.7958601" lon="9.269871"><ele>238.0</ele><time>2026-04-21T06:33:40.955Z</time></trkpt><trkpt lat="40.7957127" lon="9.269645"><ele>236.5</ele><time>2026-04-21T06:33:41.954Z</time></trkpt><trkpt lat="40.7955602" lon="9.2694149"><ele>235.0</ele><time>2026-04-21T06:33:42.956Z</time></trkpt><trkpt lat="40.7954064" lon="9.2691858"><ele>235.0</ele><time>2026-04-21T06:33:43.957Z</time></trkpt><trkpt lat="40.7952524" lon="9.2689516"><ele>235.0</ele><time>2026-04-21T06:33:44.957Z</time></trkpt><trkpt lat="40.795091" lon="9.2687239"><ele>238.5</ele><time>2026-04-21T06:33:45.955Z</time></trkpt><trkpt lat="40.79492" lon="9.2684706"><ele>242.0</ele><time>2026-04-21T06:33:46.956Z</time></trkpt><trkpt lat="40.7947626" lon="9.2682282"><ele>245.0</ele><time>2026-04-21T06:33:47.958Z</time></trkpt><trkpt lat="40.794598" lon="9.2679929"><ele>248.0</ele><time>2026-04-21T06:33:48.953Z</time></trkpt><trkpt lat="40.7944275" lon="9.2677478"><ele>246.0</ele><time>2026-04-21T06:33:49.958Z</time></trkpt><trkpt lat="40.7942567" lon="9.2674773"><ele>244.0</ele><time>2026-04-21T06:33:50.953Z</time></trkpt><trkpt lat="40.7940919" lon="9.2672227"><ele>244.0</ele><time>2026-04-21T06:33:51.963Z</time></trkpt><trkpt lat="40.7939394" lon="9.2669705"><ele>244.0</ele><time>2026-04-21T06:33:52.954Z</time></trkpt><trkpt lat="40.7937885" lon="9.2667306"><ele>244.0</ele><time>2026-04-21T06:33:53.954Z</time></trkpt><trkpt lat="40.7936228" lon="9.266475"><ele>244.0</ele><time>2026-04-21T06:33:54.959Z</time></trkpt><trkpt lat="40.793444" lon="9.2662109"><ele>247.5</ele><time>2026-04-21T06:33:55.956Z</time></trkpt><trkpt lat="40.7932984" lon="9.2659675"><ele>251.0</ele><time>2026-04-21T06:33:56.958Z</time></trkpt><trkpt lat="40.7931236" lon="9.2657045"><ele>251.0</ele><time>2026-04-21T06:33:57.962Z</time></trkpt><trkpt lat="40.7929646" lon="9.2654452"><ele>251.0</ele><time>2026-04-21T06:33:58.96Z</time></trkpt><trkpt lat="40.7928064" lon="9.2651932"><ele>251.5</ele><time>2026-04-21T06:33:59.964Z</time></trkpt><trkpt lat="40.7926534" lon="9.2649297"><ele>252.0</ele><time>2026-04-21T06:34:00.96Z</time></trkpt><trkpt lat="40.7924962" lon="9.2646784"><ele>253.0</ele><time>2026-04-21T06:34:01.961Z</time></trkpt><trkpt lat="40.7923298" lon="9.2644208"><ele>254.0</ele><time>2026-04-21T06:34:02.958Z</time></trkpt><trkpt lat="40.7921604" lon="9.2641426"><ele>252.5</ele><time>2026-04-21T06:34:03.957Z</time></trkpt><trkpt lat="40.7920019" lon="9.2638826"><ele>251.0</ele><time>2026-04-21T06:34:04.95Z</time></trkpt><trkpt lat="40.7918423" lon="9.2636188"><ele>249.0</ele><time>2026-04-21T06:34:05.962Z</time></trkpt><trkpt lat="40.79169" lon="9.2633506"><ele>247.0</ele><time>2026-04-21T06:34:06.961Z</time></trkpt><trkpt lat="40.7915333" lon="9.2630803"><ele>247.0</ele><time>2026-04-21T06:34:07.958Z</time></trkpt><trkpt lat="40.7913667" lon="9.2628099"><ele>247.0</ele><time>2026-04-21T06:34:08.956Z</time></trkpt><trkpt lat="40.7912041" lon="9.2625453"><ele>247.0</ele><time>2026-04-21T06:34:09.967Z</time></trkpt><trkpt lat="40.7910418" lon="9.2622891"><ele>247.0</ele><time>2026-04-21T06:34:10.962Z</time></trkpt><trkpt lat="40.7908729" lon="9.2620253"><ele>246.0</ele><time>2026-04-21T06:34:11.963Z</time></trkpt><trkpt lat="40.7907104" lon="9.2617576"><ele>245.0</ele><time>2026-04-21T06:34:12.964Z</time></trkpt><trkpt lat="40.7905478" lon="9.2614788"><ele>246.5</ele><time>2026-04-21T06:34:13.964Z</time></trkpt><trkpt lat="40.7903759" lon="9.2612085"><ele>248.0</ele><time>2026-04-21T06:34:14.964Z</time></trkpt><trkpt lat="40.7902197" lon="9.2609362"><ele>245.5</ele><time>2026-04-21T06:34:15.967Z</time></trkpt><trkpt lat="40.7900516" lon="9.2606628"><ele>243.0</ele><time>2026-04-21T06:34:16.967Z</time></trkpt><trkpt lat="40.7898925" lon="9.2603985"><ele>243.0</ele><time>2026-04-21T06:34:17.964Z</time></trkpt><trkpt lat="40.7897266" lon="9.2601251"><ele>243.0</ele><time>2026-04-21T06:34:18.965Z</time></trkpt><trkpt lat="40.7895649" lon="9.2598562"><ele>243.0</ele><time>2026-04-21T06:34:19.965Z</time></trkpt><trkpt lat="40.7894159" lon="9.2595802"><ele>243.0</ele><time>2026-04-21T06:34:20.961Z</time></trkpt><trkpt lat="40.7892541" lon="9.2593132"><ele>243.5</ele><time>2026-04-21T06:34:21.963Z</time></trkpt><trkpt lat="40.7890889" lon="9.2590442"><ele>244.0</ele><time>2026-04-21T06:34:22.964Z</time></trkpt><trkpt lat="40.7889086" lon="9.2587815"><ele>244.5</ele><time>2026-04-21T06:34:23.958Z</time></trkpt><trkpt lat="40.78876" lon="9.2585148"><ele>245.0</ele><time>2026-04-21T06:34:24.962Z</time></trkpt><trkpt lat="40.7885963" lon="9.2582447"><ele>246.0</ele><time>2026-04-21T06:34:25.96Z</time></trkpt><trkpt lat="40.7884372" lon="9.2579752"><ele>247.0</ele><time>2026-04-21T06:34:26.965Z</time></trkpt><trkpt lat="40.7882571" lon="9.2576989"><ele>247.0</ele><time>2026-04-21T06:34:27.968Z</time></trkpt><trkpt lat="40.7880861" lon="9.2574198"><ele>247.0</ele><time>2026-04-21T06:34:28.965Z</time></trkpt><trkpt lat="40.7879249" lon="9.2571531"><ele>247.5</ele><time>2026-04-21T06:34:29.966Z</time></trkpt><trkpt lat="40.7877665" lon="9.2568971"><ele>248.0</ele><time>2026-04-21T06:34:30.971Z</time></trkpt><trkpt lat="40.7875985" lon="9.256621"><ele>250.0</ele><time>2026-04-21T06:34:31.969Z</time></trkpt><trkpt lat="40.7874377" lon="9.256347"><ele>252.0</ele><time>2026-04-21T06:34:32.97Z</time></trkpt><trkpt lat="40.7872772" lon="9.2560884"><ele>252.0</ele><time>2026-04-21T06:34:33.97Z</time></trkpt><trkpt lat="40.7871223" lon="9.2558154"><ele>252.0</ele><time>2026-04-21T06:34:34.969Z</time></trkpt><trkpt lat="40.7869621" lon="9.2555521"><ele>250.5</ele><time>2026-04-21T06:34:35.968Z</time></trkpt><trkpt lat="40.7868021" lon="9.2552922"><ele>249.0</ele><time>2026-04-21T06:34:36.969Z</time></trkpt><trkpt lat="40.786647" lon="9.255042"><ele>249.5</ele><time>2026-04-21T06:34:37.962Z</time></trkpt><trkpt lat="40.7864823" lon="9.2547737"><ele>250.0</ele><time>2026-04-21T06:34:38.963Z</time></trkpt><trkpt lat="40.7863202" lon="9.2544988"><ele>250.0</ele><time>2026-04-21T06:34:39.966Z</time></trkpt><trkpt lat="40.7861565" lon="9.2542336"><ele>250.0</ele><time>2026-04-21T06:34:40.964Z</time></trkpt><trkpt lat="40.7860069" lon="9.2539685"><ele>247.0</ele><time>2026-04-21T06:34:41.963Z</time></trkpt><trkpt lat="40.7858473" lon="9.2537049"><ele>244.0</ele><time>2026-04-21T06:34:42.963Z</time></trkpt><trkpt lat="40.785684" lon="9.2534432"><ele>244.0</ele><time>2026-04-21T06:34:43.959Z</time></trkpt><trkpt lat="40.7855107" lon="9.2531707"><ele>244.0</ele><time>2026-04-21T06:34:44.961Z</time></trkpt><trkpt lat="40.7853584" lon="9.2529032"><ele>244.5</ele><time>2026-04-21T06:34:45.966Z</time></trkpt><trkpt lat="40.7851959" lon="9.2526298"><ele>245.0</ele><time>2026-04-21T06:34:46.96Z</time></trkpt><trkpt lat="40.7850282" lon="9.2523682"><ele>242.0</ele><time>2026-04-21T06:34:47.962Z</time></trkpt><trkpt lat="40.784867" lon="9.2521048"><ele>239.0</ele><time>2026-04-21T06:34:48.959Z</time></trkpt><trkpt lat="40.7847082" lon="9.2518329"><ele>239.0</ele><time>2026-04-21T06:34:49.96Z</time></trkpt><trkpt lat="40.7845491" lon="9.251566"><ele>239.0</ele><time>2026-04-21T06:34:50.963Z</time></trkpt><trkpt lat="40.784371" lon="9.2512895"><ele>233.5</ele><time>2026-04-21T06:34:51.967Z</time></trkpt><trkpt lat="40.7842081" lon="9.251032"><ele>228.0</ele><time>2026-04-21T06:34:52.967Z</time></trkpt><trkpt lat="40.7840344" lon="9.2507593"><ele>228.5</ele><time>2026-04-21T06:34:53.967Z</time></trkpt><trkpt lat="40.7838681" lon="9.2505009"><ele>229.0</ele><time>2026-04-21T06:34:54.967Z</time></trkpt><trkpt lat="40.7837026" lon="9.2502475"><ele>229.0</ele><time>2026-04-21T06:34:55.962Z</time></trkpt><trkpt lat="40.7835298" lon="9.2499707"><ele>229.0</ele><time>2026-04-21T06:34:56.966Z</time></trkpt><trkpt lat="40.7833799" lon="9.2497022"><ele>231.5</ele><time>2026-04-21T06:34:57.967Z</time></trkpt><trkpt lat="40.7832156" lon="9.249427"><ele>234.0</ele><time>2026-04-21T06:34:58.962Z</time></trkpt><trkpt lat="40.7830583" lon="9.2491579"><ele>234.5</ele><time>2026-04-21T06:34:59.963Z</time></trkpt><trkpt lat="40.7828861" lon="9.2488717"><ele>235.0</ele><time>2026-04-21T06:35:00.968Z</time></trkpt><trkpt lat="40.7827312" lon="9.2485969"><ele>234.0</ele><time>2026-04-21T06:35:01.962Z</time></trkpt><trkpt lat="40.7825546" lon="9.2483209"><ele>233.0</ele><time>2026-04-21T06:35:02.967Z</time></trkpt><trkpt lat="40.7823885" lon="9.2480609"><ele>233.0</ele><time>2026-04-21T06:35:03.959Z</time></trkpt><trkpt lat="40.7822093" lon="9.2477742"><ele>233.0</ele><time>2026-04-21T06:35:04.957Z</time></trkpt><trkpt lat="40.7820442" lon="9.2475041"><ele>234.0</ele><time>2026-04-21T06:35:05.959Z</time></trkpt><trkpt lat="40.7818932" lon="9.2472319"><ele>235.0</ele><time>2026-04-21T06:35:06.958Z</time></trkpt><trkpt lat="40.7817499" lon="9.2469473"><ele>236.0</ele><time>2026-04-21T06:35:07.962Z</time></trkpt><trkpt lat="40.7815902" lon="9.2466586"><ele>237.0</ele><time>2026-04-21T06:35:08.962Z</time></trkpt><trkpt lat="40.7814348" lon="9.2463841"><ele>237.5</ele><time>2026-04-21T06:35:09.958Z</time></trkpt><trkpt lat="40.7813099" lon="9.2461083"><ele>238.0</ele><time>2026-04-21T06:35:10.96Z</time></trkpt><trkpt lat="40.7811596" lon="9.2458471"><ele>237.5</ele><time>2026-04-21T06:35:11.956Z</time></trkpt><trkpt lat="40.7810199" lon="9.2455683"><ele>237.0</ele><time>2026-04-21T06:35:12.961Z</time></trkpt><trkpt lat="40.7808723" lon="9.2452737"><ele>239.0</ele><time>2026-04-21T06:35:13.953Z</time></trkpt><trkpt lat="40.7807438" lon="9.2449886"><ele>241.0</ele><time>2026-04-21T06:35:14.955Z</time></trkpt><trkpt lat="40.7806117" lon="9.2446809"><ele>241.0</ele><time>2026-04-21T06:35:15.958Z</time></trkpt><trkpt lat="40.7804716" lon="9.2443646"><ele>241.0</ele><time>2026-04-21T06:35:16.963Z</time></trkpt><trkpt lat="40.780351" lon="9.2440691"><ele>241.5</ele><time>2026-04-21T06:35:17.96Z</time></trkpt><trkpt lat="40.7802377" lon="9.2437485"><ele>242.0</ele><time>2026-04-21T06:35:18.964Z</time></trkpt><trkpt lat="40.7801169" lon="9.2434364"><ele>243.0</ele><time>2026-04-21T06:35:19.958Z</time></trkpt><trkpt lat="40.7800182" lon="9.243108"><ele>244.0</ele><time>2026-04-21T06:35:20.964Z</time></trkpt><trkpt lat="40.779912" lon="9.2427909"><ele>244.0</ele><time>2026-04-21T06:35:21.963Z</time></trkpt><trkpt lat="40.7798019" lon="9.242471"><ele>244.0</ele><time>2026-04-21T06:35:22.969Z</time></trkpt><trkpt lat="40.7797111" lon="9.2421393"><ele>244.0</ele><time>2026-04-21T06:35:23.967Z</time></trkpt><trkpt lat="40.7796149" lon="9.2418084"><ele>244.0</ele><time>2026-04-21T06:35:24.965Z</time></trkpt><trkpt lat="40.7795223" lon="9.2414796"><ele>245.0</ele><time>2026-04-21T06:35:25.958Z</time></trkpt><trkpt lat="40.7794501" lon="9.2411575"><ele>246.0</ele><time>2026-04-21T06:35:26.96Z</time></trkpt><trkpt lat="40.7793792" lon="9.2408326"><ele>245.0</ele><time>2026-04-21T06:35:27.96Z</time></trkpt><trkpt lat="40.7793192" lon="9.2404947"><ele>244.0</ele><time>2026-04-21T06:35:28.988Z</time></trkpt><trkpt lat="40.7792621" lon="9.2401558"><ele>244.0</ele><time>2026-04-21T06:35:30.048Z</time></trkpt><trkpt lat="40.7792026" lon="9.2398242"><ele>244.0</ele><time>2026-04-21T06:35:31.059Z</time></trkpt><trkpt lat="40.7791478" lon="9.239491"><ele>243.5</ele><time>2026-04-21T06:35:32.06Z</time></trkpt><trkpt lat="40.7790997" lon="9.2391557"><ele>243.0</ele><time>2026-04-21T06:35:33.051Z</time></trkpt><trkpt lat="40.779057" lon="9.2388172"><ele>245.0</ele><time>2026-04-21T06:35:34.055Z</time></trkpt><trkpt lat="40.7790209" lon="9.2384787"><ele>247.0</ele><time>2026-04-21T06:35:35.056Z</time></trkpt><trkpt lat="40.7789885" lon="9.2381313"><ele>248.0</ele><time>2026-04-21T06:35:36.052Z</time></trkpt><trkpt lat="40.7789591" lon="9.2377929"><ele>249.0</ele><time>2026-04-21T06:35:37.054Z</time></trkpt><trkpt lat="40.7789353" lon="9.2374545"><ele>250.5</ele><time>2026-04-21T06:35:38.057Z</time></trkpt><trkpt lat="40.7789193" lon="9.2371151"><ele>252.0</ele><time>2026-04-21T06:35:39.063Z</time></trkpt><trkpt lat="40.7789061" lon="9.2367766"><ele>253.0</ele><time>2026-04-21T06:35:40.054Z</time></trkpt><trkpt lat="40.7789054" lon="9.2364307"><ele>254.0</ele><time>2026-04-21T06:35:41.057Z</time></trkpt><trkpt lat="40.7788927" lon="9.2360874"><ele>254.0</ele><time>2026-04-21T06:35:42.051Z</time></trkpt><trkpt lat="40.7788916" lon="9.2357493"><ele>254.0</ele><time>2026-04-21T06:35:43.05Z</time></trkpt><trkpt lat="40.7788988" lon="9.2354168"><ele>255.5</ele><time>2026-04-21T06:35:44.055Z</time></trkpt><trkpt lat="40.7789109" lon="9.235087"><ele>257.0</ele><time>2026-04-21T06:35:45.052Z</time></trkpt><trkpt lat="40.7789276" lon="9.2347622"><ele>257.5</ele><time>2026-04-21T06:35:46.052Z</time></trkpt><trkpt lat="40.7789468" lon="9.2344387"><ele>258.0</ele><time>2026-04-21T06:35:47.054Z</time></trkpt><trkpt lat="40.7789715" lon="9.2341138"><ele>258.5</ele><time>2026-04-21T06:35:48.053Z</time></trkpt><trkpt lat="40.7790014" lon="9.2337872"><ele>259.0</ele><time>2026-04-21T06:35:49.047Z</time></trkpt><trkpt lat="40.7790353" lon="9.2334582"><ele>259.5</ele><time>2026-04-21T06:35:50.052Z</time></trkpt><trkpt lat="40.7790768" lon="9.2331274"><ele>260.0</ele><time>2026-04-21T06:35:51.049Z</time></trkpt><trkpt lat="40.7791208" lon="9.2327962"><ele>260.0</ele><time>2026-04-21T06:35:52.047Z</time></trkpt><trkpt lat="40.7791688" lon="9.2324694"><ele>260.0</ele><time>2026-04-21T06:35:53.056Z</time></trkpt><trkpt lat="40.779221" lon="9.2321442"><ele>259.0</ele><time>2026-04-21T06:35:54.046Z</time></trkpt><trkpt lat="40.7792773" lon="9.2318235"><ele>258.0</ele><time>2026-04-21T06:35:55.048Z</time></trkpt><trkpt lat="40.7793375" lon="9.2314903"><ele>258.5</ele><time>2026-04-21T06:35:56.049Z</time></trkpt><trkpt lat="40.7793973" lon="9.231158"><ele>259.0</ele><time>2026-04-21T06:35:57.044Z</time></trkpt><trkpt lat="40.779456" lon="9.2308306"><ele>260.0</ele><time>2026-04-21T06:35:58.042Z</time></trkpt><trkpt lat="40.7795179" lon="9.2305118"><ele>261.0</ele><time>2026-04-21T06:35:59.042Z</time></trkpt><trkpt lat="40.7795774" lon="9.2301993"><ele>261.0</ele><time>2026-04-21T06:36:00.045Z</time></trkpt><trkpt lat="40.779635" lon="9.2298816"><ele>261.0</ele><time>2026-04-21T06:36:01.053Z</time></trkpt><trkpt lat="40.7796923" lon="9.2295582"><ele>261.0</ele><time>2026-04-21T06:36:02.047Z</time></trkpt><trkpt lat="40.7797525" lon="9.2292291"><ele>261.0</ele><time>2026-04-21T06:36:03.058Z</time></trkpt><trkpt lat="40.7798167" lon="9.2288932"><ele>261.5</ele><time>2026-04-21T06:36:04.047Z</time></trkpt><trkpt lat="40.7798853" lon="9.2285553"><ele>262.0</ele><time>2026-04-21T06:36:05.048Z</time></trkpt><trkpt lat="40.7799551" lon="9.2282176"><ele>261.0</ele><time>2026-04-21T06:36:06.054Z</time></trkpt><trkpt lat="40.7800253" lon="9.227878"><ele>260.0</ele><time>2026-04-21T06:36:07.049Z</time></trkpt><trkpt lat="40.7800942" lon="9.2275361"><ele>260.0</ele><time>2026-04-21T06:36:08.052Z</time></trkpt><trkpt lat="40.780165" lon="9.2271939"><ele>260.0</ele><time>2026-04-21T06:36:09.046Z</time></trkpt><trkpt lat="40.7802366" lon="9.2268518"><ele>260.5</ele><time>2026-04-21T06:36:10.057Z</time></trkpt><trkpt lat="40.7803114" lon="9.2265113"><ele>261.0</ele><time>2026-04-21T06:36:11.044Z</time></trkpt><trkpt lat="40.7803835" lon="9.2261761"><ele>261.0</ele><time>2026-04-21T06:36:12.048Z</time></trkpt><trkpt lat="40.780452" lon="9.2258425"><ele>261.0</ele><time>2026-04-21T06:36:13.042Z</time></trkpt><trkpt lat="40.7805184" lon="9.2255114"><ele>259.0</ele><time>2026-04-21T06:36:14.051Z</time></trkpt><trkpt lat="40.7805842" lon="9.2251817"><ele>257.0</ele><time>2026-04-21T06:36:15.045Z</time></trkpt><trkpt lat="40.7806486" lon="9.2248511"><ele>256.5</ele><time>2026-04-21T06:36:16.046Z</time></trkpt><trkpt lat="40.7807101" lon="9.2245168"><ele>256.0</ele><time>2026-04-21T06:36:17.054Z</time></trkpt><trkpt lat="40.7807745" lon="9.2241883"><ele>255.0</ele><time>2026-04-21T06:36:18.044Z</time></trkpt><trkpt lat="40.780838" lon="9.2238613"><ele>254.0</ele><time>2026-04-21T06:36:19.056Z</time></trkpt><trkpt lat="40.7809015" lon="9.2235382"><ele>254.0</ele><time>2026-04-21T06:36:20.044Z</time></trkpt><trkpt lat="40.7809652" lon="9.2232153"><ele>254.0</ele><time>2026-04-21T06:36:21.058Z</time></trkpt><trkpt lat="40.7810282" lon="9.222894"><ele>251.0</ele><time>2026-04-21T06:36:22.049Z</time></trkpt><trkpt lat="40.7810877" lon="9.2225745"><ele>248.0</ele><time>2026-04-21T06:36:23.057Z</time></trkpt><trkpt lat="40.7811454" lon="9.2222541"><ele>246.5</ele><time>2026-04-21T06:36:24.056Z</time></trkpt><trkpt lat="40.7812" lon="9.2219329"><ele>245.0</ele><time>2026-04-21T06:36:25.053Z</time></trkpt><trkpt lat="40.7812509" lon="9.2216069"><ele>243.5</ele><time>2026-04-21T06:36:26.053Z</time></trkpt><trkpt lat="40.7812959" lon="9.2212785"><ele>242.0</ele><time>2026-04-21T06:36:27.053Z</time></trkpt><trkpt lat="40.7813387" lon="9.2209492"><ele>242.0</ele><time>2026-04-21T06:36:28.056Z</time></trkpt><trkpt lat="40.7813769" lon="9.2206193"><ele>242.0</ele><time>2026-04-21T06:36:29.057Z</time></trkpt><trkpt lat="40.7814114" lon="9.2202885"><ele>242.0</ele><time>2026-04-21T06:36:30.058Z</time></trkpt><trkpt lat="40.7814421" lon="9.2199596"><ele>242.0</ele><time>2026-04-21T06:36:31.061Z</time></trkpt><trkpt lat="40.7814649" lon="9.2196305"><ele>241.5</ele><time>2026-04-21T06:36:32.054Z</time></trkpt><trkpt lat="40.7814819" lon="9.2193008"><ele>241.0</ele><time>2026-04-21T06:36:33.057Z</time></trkpt><trkpt lat="40.7814934" lon="9.2189685"><ele>241.0</ele><time>2026-04-21T06:36:34.058Z</time></trkpt><trkpt lat="40.7815018" lon="9.2186418"><ele>241.0</ele><time>2026-04-21T06:36:35.057Z</time></trkpt><trkpt lat="40.7815056" lon="9.2183116"><ele>239.5</ele><time>2026-04-21T06:36:36.057Z</time></trkpt><trkpt lat="40.7815036" lon="9.2179805"><ele>238.0</ele><time>2026-04-21T06:36:37.058Z</time></trkpt><trkpt lat="40.7814945" lon="9.2176463"><ele>237.5</ele><time>2026-04-21T06:36:38.056Z</time></trkpt><trkpt lat="40.781485" lon="9.2173128"><ele>237.0</ele><time>2026-04-21T06:36:39.06Z</time></trkpt><trkpt lat="40.7814709" lon="9.2169774"><ele>237.0</ele><time>2026-04-21T06:36:40.05Z</time></trkpt><trkpt lat="40.7814504" lon="9.2166414"><ele>237.0</ele><time>2026-04-21T06:36:41.06Z</time></trkpt><trkpt lat="40.7814254" lon="9.2163024"><ele>235.5</ele><time>2026-04-21T06:36:42.056Z</time></trkpt><trkpt lat="40.7813979" lon="9.2159657"><ele>234.0</ele><time>2026-04-21T06:36:43.057Z</time></trkpt><trkpt lat="40.7813634" lon="9.2156346"><ele>234.0</ele><time>2026-04-21T06:36:44.055Z</time></trkpt><trkpt lat="40.781331" lon="9.215302"><ele>234.0</ele><time>2026-04-21T06:36:45.059Z</time></trkpt><trkpt lat="40.781298" lon="9.2149698"><ele>233.0</ele><time>2026-04-21T06:36:46.057Z</time></trkpt><trkpt lat="40.781268" lon="9.2146402"><ele>232.0</ele><time>2026-04-21T06:36:47.059Z</time></trkpt><trkpt lat="40.7812352" lon="9.2143091"><ele>230.0</ele><time>2026-04-21T06:36:48.057Z</time></trkpt><trkpt lat="40.7812011" lon="9.2139788"><ele>228.0</ele><time>2026-04-21T06:36:49.053Z</time></trkpt><trkpt lat="40.7811635" lon="9.21365"><ele>228.0</ele><time>2026-04-21T06:36:50.057Z</time></trkpt><trkpt lat="40.7811272" lon="9.2133189"><ele>228.0</ele><time>2026-04-21T06:36:51.053Z</time></trkpt><trkpt lat="40.7810928" lon="9.2129829"><ele>227.5</ele><time>2026-04-21T06:36:52.055Z</time></trkpt><trkpt lat="40.7810573" lon="9.2126479"><ele>227.0</ele><time>2026-04-21T06:36:53.061Z</time></trkpt><trkpt lat="40.7810244" lon="9.2123136"><ele>225.5</ele><time>2026-04-21T06:36:54.055Z</time></trkpt><trkpt lat="40.7809889" lon="9.2119808"><ele>224.0</ele><time>2026-04-21T06:36:55.049Z</time></trkpt><trkpt lat="40.78095" lon="9.2116458"><ele>223.5</ele><time>2026-04-21T06:36:56.055Z</time></trkpt><trkpt lat="40.7809093" lon="9.2113138"><ele>223.0</ele><time>2026-04-21T06:36:57.056Z</time></trkpt><trkpt lat="40.7808715" lon="9.2109847"><ele>222.0</ele><time>2026-04-21T06:36:58.051Z</time></trkpt><trkpt lat="40.7808313" lon="9.2106576"><ele>221.0</ele><time>2026-04-21T06:36:59.055Z</time></trkpt><trkpt lat="40.7807923" lon="9.2103317"><ele>221.0</ele><time>2026-04-21T06:37:00.06Z</time></trkpt><trkpt lat="40.7807558" lon="9.2100042"><ele>221.0</ele><time>2026-04-21T06:37:01.052Z</time></trkpt><trkpt lat="40.7807211" lon="9.2096764"><ele>220.0</ele><time>2026-04-21T06:37:02.051Z</time></trkpt><trkpt lat="40.7806854" lon="9.2093467"><ele>219.0</ele><time>2026-04-21T06:37:03.054Z</time></trkpt><trkpt lat="40.7806493" lon="9.2090181"><ele>217.5</ele><time>2026-04-21T06:37:04.053Z</time></trkpt><trkpt lat="40.7806123" lon="9.20869"><ele>216.0</ele><time>2026-04-21T06:37:05.05Z</time></trkpt><trkpt lat="40.7805745" lon="9.2083645"><ele>214.5</ele><time>2026-04-21T06:37:06.054Z</time></trkpt><trkpt lat="40.7805389" lon="9.2080373"><ele>213.0</ele><time>2026-04-21T06:37:07.055Z</time></trkpt><trkpt lat="40.7805015" lon="9.2077103"><ele>213.0</ele><time>2026-04-21T06:37:08.053Z</time></trkpt><trkpt lat="40.7804648" lon="9.2073817"><ele>213.0</ele><time>2026-04-21T06:37:09.053Z</time></trkpt><trkpt lat="40.7804264" lon="9.2070547"><ele>212.0</ele><time>2026-04-21T06:37:10.054Z</time></trkpt><trkpt lat="40.7803864" lon="9.206728"><ele>211.0</ele><time>2026-04-21T06:37:11.055Z</time></trkpt><trkpt lat="40.7803508" lon="9.2063998"><ele>207.5</ele><time>2026-04-21T06:37:12.056Z</time></trkpt><trkpt lat="40.7803159" lon="9.2060718"><ele>204.0</ele><time>2026-04-21T06:37:13.054Z</time></trkpt><trkpt lat="40.7802858" lon="9.2057421"><ele>203.5</ele><time>2026-04-21T06:37:14.057Z</time></trkpt><trkpt lat="40.7802529" lon="9.2054122"><ele>203.0</ele><time>2026-04-21T06:37:15.055Z</time></trkpt><trkpt lat="40.7802173" lon="9.2050821"><ele>203.0</ele><time>2026-04-21T06:37:16.058Z</time></trkpt><trkpt lat="40.7801818" lon="9.2047566"><ele>203.0</ele><time>2026-04-21T06:37:17.056Z</time></trkpt><trkpt lat="40.780147" lon="9.2044318"><ele>203.0</ele><time>2026-04-21T06:37:18.054Z</time></trkpt><trkpt lat="40.7801114" lon="9.2041102"><ele>203.0</ele><time>2026-04-21T06:37:19.055Z</time></trkpt><trkpt lat="40.7800784" lon="9.20378"><ele>204.0</ele><time>2026-04-21T06:37:20.05Z</time></trkpt><trkpt lat="40.7800466" lon="9.2034527"><ele>205.0</ele><time>2026-04-21T06:37:21.055Z</time></trkpt><trkpt lat="40.7800144" lon="9.203125"><ele>206.0</ele><time>2026-04-21T06:37:22.05Z</time></trkpt><trkpt lat="40.7799828" lon="9.2027998"><ele>207.0</ele><time>2026-04-21T06:37:23.063Z</time></trkpt><trkpt lat="40.7799523" lon="9.2024729"><ele>208.5</ele><time>2026-04-21T06:37:24.051Z</time></trkpt><trkpt lat="40.7799166" lon="9.2021457"><ele>210.0</ele><time>2026-04-21T06:37:25.056Z</time></trkpt><trkpt lat="40.7798788" lon="9.2018172"><ele>210.0</ele><time>2026-04-21T06:37:26.053Z</time></trkpt><trkpt lat="40.7798404" lon="9.2014939"><ele>210.0</ele><time>2026-04-21T06:37:27.054Z</time></trkpt><trkpt lat="40.7798045" lon="9.2011698"><ele>210.0</ele><time>2026-04-21T06:37:28.058Z</time></trkpt><trkpt lat="40.7797688" lon="9.200842"><ele>210.0</ele><time>2026-04-21T06:37:29.05Z</time></trkpt><trkpt lat="40.7797357" lon="9.2005114"><ele>210.5</ele><time>2026-04-21T06:37:30.047Z</time></trkpt><trkpt lat="40.7797028" lon="9.200179"><ele>211.0</ele><time>2026-04-21T06:37:31.055Z</time></trkpt><trkpt lat="40.7796715" lon="9.1998454"><ele>210.5</ele><time>2026-04-21T06:37:32.051Z</time></trkpt><trkpt lat="40.7796332" lon="9.1995142"><ele>210.0</ele><time>2026-04-21T06:37:33.049Z</time></trkpt><trkpt lat="40.7795958" lon="9.1991821"><ele>209.5</ele><time>2026-04-21T06:37:34.055Z</time></trkpt><trkpt lat="40.7795615" lon="9.1988466"><ele>209.0</ele><time>2026-04-21T06:37:35.056Z</time></trkpt><trkpt lat="40.7795298" lon="9.1985073"><ele>209.0</ele><time>2026-04-21T06:37:36.056Z</time></trkpt><trkpt lat="40.779494" lon="9.1981726"><ele>209.0</ele><time>2026-04-21T06:37:37.056Z</time></trkpt><trkpt lat="40.7794583" lon="9.1978347"><ele>209.0</ele><time>2026-04-21T06:37:38.055Z</time></trkpt><trkpt lat="40.77942" lon="9.1974983"><ele>209.0</ele><time>2026-04-21T06:37:39.054Z</time></trkpt><trkpt lat="40.7793915" lon="9.197166"><ele>208.0</ele><time>2026-04-21T06:37:40.048Z</time></trkpt><trkpt lat="40.7793587" lon="9.1968329"><ele>207.0</ele><time>2026-04-21T06:37:41.052Z</time></trkpt><trkpt lat="40.7793213" lon="9.1964965"><ele>207.0</ele><time>2026-04-21T06:37:42.051Z</time></trkpt><trkpt lat="40.7792881" lon="9.1961578"><ele>207.0</ele><time>2026-04-21T06:37:43.06Z</time></trkpt><trkpt lat="40.7792567" lon="9.1958192"><ele>208.0</ele><time>2026-04-21T06:37:44.056Z</time></trkpt><trkpt lat="40.7792215" lon="9.1954817"><ele>209.0</ele><time>2026-04-21T06:37:45.051Z</time></trkpt><trkpt lat="40.7791846" lon="9.1951436"><ele>211.0</ele><time>2026-04-21T06:37:46.054Z</time></trkpt><trkpt lat="40.7791459" lon="9.1948041"><ele>213.0</ele><time>2026-04-21T06:37:47.051Z</time></trkpt><trkpt lat="40.7791094" lon="9.1944657"><ele>213.0</ele><time>2026-04-21T06:37:48.05Z</time></trkpt><trkpt lat="40.7790731" lon="9.1941258"><ele>213.0</ele><time>2026-04-21T06:37:49.044Z</time></trkpt><trkpt lat="40.7790363" lon="9.193786"><ele>213.0</ele><time>2026-04-21T06:37:50.049Z</time></trkpt><trkpt lat="40.7789957" lon="9.1934453"><ele>213.0</ele><time>2026-04-21T06:37:51.046Z</time></trkpt><trkpt lat="40.7789577" lon="9.1931069"><ele>212.0</ele><time>2026-04-21T06:37:52.05Z</time></trkpt><trkpt lat="40.7789175" lon="9.1927704"><ele>211.0</ele><time>2026-04-21T06:37:53.057Z</time></trkpt><trkpt lat="40.778878" lon="9.1924368"><ele>210.5</ele><time>2026-04-21T06:37:54.051Z</time></trkpt><trkpt lat="40.7788397" lon="9.1921089"><ele>210.0</ele><time>2026-04-21T06:37:55.054Z</time></trkpt><trkpt lat="40.7788011" lon="9.1917822"><ele>209.5</ele><time>2026-04-21T06:37:56.05Z</time></trkpt><trkpt lat="40.7787647" lon="9.191458"><ele>209.0</ele><time>2026-04-21T06:37:57.052Z</time></trkpt><trkpt lat="40.778728" lon="9.1911317"><ele>209.0</ele><time>2026-04-21T06:37:58.048Z</time></trkpt><trkpt lat="40.7786891" lon="9.1908079"><ele>209.0</ele><time>2026-04-21T06:37:59.053Z</time></trkpt><trkpt lat="40.7786501" lon="9.1904834"><ele>209.0</ele><time>2026-04-21T06:38:00.054Z</time></trkpt><trkpt lat="40.778611" lon="9.190159"><ele>209.0</ele><time>2026-04-21T06:38:01.055Z</time></trkpt><trkpt lat="40.7785739" lon="9.1898321"><ele>208.0</ele><time>2026-04-21T06:38:02.052Z</time></trkpt><trkpt lat="40.7785371" lon="9.189504"><ele>207.0</ele><time>2026-04-21T06:38:03.056Z</time></trkpt><trkpt lat="40.7785018" lon="9.1891732"><ele>209.0</ele><time>2026-04-21T06:38:04.056Z</time></trkpt><trkpt lat="40.7784687" lon="9.1888434"><ele>211.0</ele><time>2026-04-21T06:38:05.056Z</time></trkpt><trkpt lat="40.7784351" lon="9.1885102"><ele>211.0</ele><time>2026-04-21T06:38:06.047Z</time></trkpt><trkpt lat="40.7784031" lon="9.1881832"><ele>211.0</ele><time>2026-04-21T06:38:07.045Z</time></trkpt><trkpt lat="40.7783685" lon="9.1878544"><ele>212.0</ele><time>2026-04-21T06:38:08.049Z</time></trkpt><trkpt lat="40.7783312" lon="9.1875266"><ele>213.0</ele><time>2026-04-21T06:38:09.049Z</time></trkpt><trkpt lat="40.7782921" lon="9.1871973"><ele>213.0</ele><time>2026-04-21T06:38:10.05Z</time></trkpt><trkpt lat="40.7782551" lon="9.1868685"><ele>213.0</ele><time>2026-04-21T06:38:11.051Z</time></trkpt><trkpt lat="40.7782177" lon="9.1865385"><ele>212.0</ele><time>2026-04-21T06:38:12.053Z</time></trkpt><trkpt lat="40.7781825" lon="9.1862077"><ele>211.0</ele><time>2026-04-21T06:38:13.051Z</time></trkpt><trkpt lat="40.7781454" lon="9.1858779"><ele>212.5</ele><time>2026-04-21T06:38:14.058Z</time></trkpt><trkpt lat="40.7781072" lon="9.1855487"><ele>214.0</ele><time>2026-04-21T06:38:15.057Z</time></trkpt><trkpt lat="40.778068" lon="9.1852199"><ele>214.0</ele><time>2026-04-21T06:38:16.054Z</time></trkpt><trkpt lat="40.7780308" lon="9.1848886"><ele>214.0</ele><time>2026-04-21T06:38:17.063Z</time></trkpt><trkpt lat="40.7779933" lon="9.1845554"><ele>215.0</ele><time>2026-04-21T06:38:18.055Z</time></trkpt><trkpt lat="40.7779574" lon="9.184222"><ele>216.0</ele><time>2026-04-21T06:38:19.058Z</time></trkpt><trkpt lat="40.7779227" lon="9.183889"><ele>216.5</ele><time>2026-04-21T06:38:20.058Z</time></trkpt><trkpt lat="40.7778867" lon="9.1835559"><ele>217.0</ele><time>2026-04-21T06:38:21.054Z</time></trkpt><trkpt lat="40.7778471" lon="9.1832232"><ele>215.5</ele><time>2026-04-21T06:38:22.06Z</time></trkpt><trkpt lat="40.7778099" lon="9.1828876"><ele>214.0</ele><time>2026-04-21T06:38:23.068Z</time></trkpt><trkpt lat="40.7777722" lon="9.18255"><ele>211.5</ele><time>2026-04-21T06:38:24.059Z</time></trkpt><trkpt lat="40.7777298" lon="9.1822151"><ele>209.0</ele><time>2026-04-21T06:38:25.058Z</time></trkpt><trkpt lat="40.777684" lon="9.1818785"><ele>208.5</ele><time>2026-04-21T06:38:26.056Z</time></trkpt><trkpt lat="40.7776336" lon="9.1815417"><ele>208.0</ele><time>2026-04-21T06:38:27.048Z</time></trkpt><trkpt lat="40.7775789" lon="9.1812046"><ele>205.5</ele><time>2026-04-21T06:38:28.053Z</time></trkpt><trkpt lat="40.7775191" lon="9.1808597"><ele>203.0</ele><time>2026-04-21T06:38:29.053Z</time></trkpt><trkpt lat="40.7774527" lon="9.1805254"><ele>201.5</ele><time>2026-04-21T06:38:30.055Z</time></trkpt><trkpt lat="40.7773806" lon="9.1802047"><ele>200.0</ele><time>2026-04-21T06:38:31.057Z</time></trkpt><trkpt lat="40.7773045" lon="9.1798929"><ele>200.5</ele><time>2026-04-21T06:38:32.049Z</time></trkpt><trkpt lat="40.7772279" lon="9.1795901"><ele>201.0</ele><time>2026-04-21T06:38:33.05Z</time></trkpt><trkpt lat="40.777155" lon="9.1793017"><ele>201.0</ele><time>2026-04-21T06:38:34.055Z</time></trkpt><trkpt lat="40.7770856" lon="9.1790299"><ele>201.0</ele><time>2026-04-21T06:38:35.052Z</time></trkpt><trkpt lat="40.7770213" lon="9.1787686"><ele>201.0</ele><time>2026-04-21T06:38:36.054Z</time></trkpt><trkpt lat="40.7769632" lon="9.1785217"><ele>201.66666666666669</ele><time>2026-04-21T06:38:37.055Z</time></trkpt><trkpt lat="40.7768999" lon="9.1782816"><ele>202.33333333333334</ele><time>2026-04-21T06:38:38.059Z</time></trkpt><trkpt lat="40.7768299" lon="9.1780423"><ele>203.0</ele><time>2026-04-21T06:38:39.052Z</time></trkpt><trkpt lat="40.7767518" lon="9.1778018"><ele>204.33333333333334</ele><time>2026-04-21T06:38:40.061Z</time></trkpt><trkpt lat="40.7766723" lon="9.17757"><ele>205.66666666666669</ele><time>2026-04-21T06:38:41.055Z</time></trkpt><trkpt lat="40.776594" lon="9.1773483"><ele>207.0</ele><time>2026-04-21T06:38:42.059Z</time></trkpt><trkpt lat="40.7765167" lon="9.1771396"><ele>207.0</ele><time>2026-04-21T06:38:43.06Z</time></trkpt><trkpt lat="40.7764453" lon="9.1769441"><ele>207.0</ele><time>2026-04-21T06:38:44.054Z</time></trkpt><trkpt lat="40.7763786" lon="9.1767579"><ele>207.0</ele><time>2026-04-21T06:38:45.062Z</time></trkpt><trkpt lat="40.7763218" lon="9.1765805"><ele>207.75</ele><time>2026-04-21T06:38:46.044Z</time></trkpt><trkpt lat="40.7762915" lon="9.1764166"><ele>208.5</ele><time>2026-04-21T06:38:47.05Z</time></trkpt><trkpt lat="40.7762918" lon="9.1762653"><ele>209.25</ele><time>2026-04-21T06:38:48.046Z</time></trkpt><trkpt lat="40.7763242" lon="9.1761266"><ele>210.0</ele><time>2026-04-21T06:38:49.039Z</time></trkpt><trkpt lat="40.7763843" lon="9.1759926"><ele>210.0</ele><time>2026-04-21T06:38:50.036Z</time></trkpt><trkpt lat="40.7764745" lon="9.1758845"><ele>210.0</ele><time>2026-04-21T06:38:51.034Z</time></trkpt><trkpt lat="40.776588" lon="9.1758136"><ele>210.0</ele><time>2026-04-21T06:38:52.035Z</time></trkpt><trkpt lat="40.7767099" lon="9.1757793"><ele>210.0</ele><time>2026-04-21T06:38:53.043Z</time></trkpt><trkpt lat="40.7768454" lon="9.1757673"><ele>210.66666666666669</ele><time>2026-04-21T06:38:54.043Z</time></trkpt><trkpt lat="40.7769887" lon="9.1757663"><ele>211.33333333333334</ele><time>2026-04-21T06:38:55.043Z</time></trkpt><trkpt lat="40.7771427" lon="9.1757731"><ele>212.0</ele><time>2026-04-21T06:38:56.028Z</time></trkpt><trkpt lat="40.7772982" lon="9.1757827"><ele>212.0</ele><time>2026-04-21T06:38:57.037Z</time></trkpt><trkpt lat="40.7774553" lon="9.175793"><ele>212.0</ele><time>2026-04-21T06:38:58.036Z</time></trkpt><trkpt lat="40.777602" lon="9.1758045"><ele>212.0</ele><time>2026-04-21T06:38:59.035Z</time></trkpt><trkpt lat="40.7777387" lon="9.1758205"><ele>212.0</ele><time>2026-04-21T06:39:00.05Z</time></trkpt><trkpt lat="40.7778624" lon="9.175839"><ele>212.2</ele><time>2026-04-21T06:39:01.053Z</time></trkpt><trkpt lat="40.7779771" lon="9.1758566"><ele>212.39999999999998</ele><time>2026-04-21T06:39:02.054Z</time></trkpt><trkpt lat="40.7780791" lon="9.1758766"><ele>212.60000000000002</ele><time>2026-04-21T06:39:03.05Z</time></trkpt><trkpt lat="40.7781661" lon="9.1758992"><ele>212.8</ele><time>2026-04-21T06:39:04.046Z</time></trkpt><trkpt lat="40.778244" lon="9.175932"><ele>213.0</ele><time>2026-04-21T06:39:05.048Z</time></trkpt><trkpt lat="40.7783327" lon="9.176013"><ele>213.0</ele><time>2026-04-21T06:39:07.036Z</time></trkpt><trkpt lat="40.7784196" lon="9.1760445"><ele>213.0</ele><time>2026-04-21T06:39:09.039Z</time></trkpt><trkpt lat="40.7785086" lon="9.176042"><ele>213.0</ele><time>2026-04-21T06:39:12.058Z</time></trkpt><trkpt lat="40.7785972" lon="9.1759475"><ele>213.0</ele><time>2026-04-21T06:39:14.045Z</time></trkpt><trkpt lat="40.7786616" lon="9.1757971"><ele>213.0</ele><time>2026-04-21T06:39:16.042Z</time></trkpt><trkpt lat="40.7786916" lon="9.1756934"><ele>214.33333333333334</ele><time>2026-04-21T06:39:17.037Z</time></trkpt><trkpt lat="40.778723" lon="9.1755971"><ele>215.66666666666669</ele><time>2026-04-21T06:39:18.038Z</time></trkpt><trkpt lat="40.7787665" lon="9.175449"><ele>217.0</ele><time>2026-04-21T06:39:20.05Z</time></trkpt><trkpt lat="40.7787947" lon="9.1753512"><ele>218.33333333333334</ele><time>2026-04-21T06:39:22.06Z</time></trkpt><trkpt lat="40.7788413" lon="9.1752549"><ele>219.66666666666669</ele><time>2026-04-21T06:40:56.08Z</time></trkpt><trkpt lat="40.7788717" lon="9.1751641"><ele>221.0</ele><time>2026-04-21T06:40:59.069Z</time></trkpt><trkpt lat="40.7788763" lon="9.1750429"><ele>221.0</ele><time>2026-04-21T06:41:01.07Z</time></trkpt><trkpt lat="40.7788952" lon="9.1749511"><ele>221.00000000000003</ele><time>2026-04-21T06:41:02.059Z</time></trkpt><trkpt lat="40.7789184" lon="9.1748352"><ele>221.00000000000003</ele><time>2026-04-21T06:41:03.07Z</time></trkpt><trkpt lat="40.7789476" lon="9.1747019"><ele>221.0</ele><time>2026-04-21T06:41:04.072Z</time></trkpt><trkpt lat="40.7789806" lon="9.1745578"><ele>221.0</ele><time>2026-04-21T06:41:05.061Z</time></trkpt><trkpt lat="40.7790179" lon="9.1743932"><ele>221.5</ele><time>2026-04-21T06:41:06.068Z</time></trkpt><trkpt lat="40.7790548" lon="9.1742212"><ele>222.0</ele><time>2026-04-21T06:41:07.075Z</time></trkpt><trkpt lat="40.7790921" lon="9.1740471"><ele>222.5</ele><time>2026-04-21T06:41:08.073Z</time></trkpt><trkpt lat="40.7791318" lon="9.1738675"><ele>223.0</ele><time>2026-04-21T06:41:09.079Z</time></trkpt><trkpt lat="40.7791732" lon="9.1736865"><ele>223.5</ele><time>2026-04-21T06:41:10.074Z</time></trkpt><trkpt lat="40.7792138" lon="9.1735008"><ele>224.0</ele><time>2026-04-21T06:41:11.068Z</time></trkpt><trkpt lat="40.7792557" lon="9.1733121"><ele>224.5</ele><time>2026-04-21T06:41:12.069Z</time></trkpt><trkpt lat="40.7792946" lon="9.1731305"><ele>225.0</ele><time>2026-04-21T06:41:13.077Z</time></trkpt><trkpt lat="40.7793308" lon="9.172959"><ele>224.8</ele><time>2026-04-21T06:41:14.077Z</time></trkpt><trkpt lat="40.7793613" lon="9.1728064"><ele>224.6</ele><time>2026-04-21T06:41:15.075Z</time></trkpt><trkpt lat="40.7793888" lon="9.1726661"><ele>224.39999999999998</ele><time>2026-04-21T06:41:16.072Z</time></trkpt><trkpt lat="40.7794191" lon="9.1725307"><ele>224.2</ele><time>2026-04-21T06:41:17.072Z</time></trkpt><trkpt lat="40.7794554" lon="9.172417"><ele>224.0</ele><time>2026-04-21T06:41:18.069Z</time></trkpt><trkpt lat="40.7795022" lon="9.1722957"><ele>224.0</ele><time>2026-04-21T06:41:19.079Z</time></trkpt><trkpt lat="40.7795602" lon="9.1721678"><ele>224.0</ele><time>2026-04-21T06:41:20.064Z</time></trkpt><trkpt lat="40.77963" lon="9.1720424"><ele>224.0</ele><time>2026-04-21T06:41:21.053Z</time></trkpt><trkpt lat="40.7797212" lon="9.1719279"><ele>224.0</ele><time>2026-04-21T06:41:22.054Z</time></trkpt><trkpt lat="40.7798311" lon="9.1718135"><ele>224.0</ele><time>2026-04-21T06:41:23.058Z</time></trkpt><trkpt lat="40.7799505" lon="9.1716948"><ele>224.0</ele><time>2026-04-21T06:41:24.066Z</time></trkpt><trkpt lat="40.7800718" lon="9.1715722"><ele>224.0</ele><time>2026-04-21T06:41:25.072Z</time></trkpt><trkpt lat="40.7801931" lon="9.1714421"><ele>223.33333333333334</ele><time>2026-04-21T06:41:26.074Z</time></trkpt><trkpt lat="40.7803135" lon="9.171306"><ele>222.66666666666669</ele><time>2026-04-21T06:41:27.075Z</time></trkpt><trkpt lat="40.7804297" lon="9.1711743"><ele>222.0</ele><time>2026-04-21T06:41:28.083Z</time></trkpt><trkpt lat="40.7805472" lon="9.1710446"><ele>222.0</ele><time>2026-04-21T06:41:29.076Z</time></trkpt><trkpt lat="40.7806659" lon="9.1709128"><ele>222.0</ele><time>2026-04-21T06:41:30.081Z</time></trkpt><trkpt lat="40.7807787" lon="9.1707821"><ele>222.0</ele><time>2026-04-21T06:41:31.077Z</time></trkpt><trkpt lat="40.780884" lon="9.170646"><ele>222.0</ele><time>2026-04-21T06:41:32.069Z</time></trkpt><trkpt lat="40.7809874" lon="9.1705053"><ele>222.0</ele><time>2026-04-21T06:41:33.072Z</time></trkpt><trkpt lat="40.7810891" lon="9.1703603"><ele>222.0</ele><time>2026-04-21T06:41:34.07Z</time></trkpt><trkpt lat="40.7811912" lon="9.1702195"><ele>222.0</ele><time>2026-04-21T06:41:35.077Z</time></trkpt><trkpt lat="40.7812925" lon="9.1700815"><ele>223.25</ele><time>2026-04-21T06:41:36.076Z</time></trkpt><trkpt lat="40.7813871" lon="9.1699552"><ele>224.5</ele><time>2026-04-21T06:41:37.079Z</time></trkpt><trkpt lat="40.7814818" lon="9.1698289"><ele>225.75</ele><time>2026-04-21T06:41:38.072Z</time></trkpt><trkpt lat="40.781575" lon="9.1697023"><ele>227.0</ele><time>2026-04-21T06:41:39.075Z</time></trkpt><trkpt lat="40.7816677" lon="9.1695685"><ele>227.75</ele><time>2026-04-21T06:41:40.074Z</time></trkpt><trkpt lat="40.7817601" lon="9.1694319"><ele>228.5</ele><time>2026-04-21T06:41:41.076Z</time></trkpt><trkpt lat="40.7818519" lon="9.1692947"><ele>229.25</ele><time>2026-04-21T06:41:42.08Z</time></trkpt><trkpt lat="40.781944" lon="9.1691613"><ele>230.0</ele><time>2026-04-21T06:41:43.082Z</time></trkpt><trkpt lat="40.7820388" lon="9.1690318"><ele>232.0</ele><time>2026-04-21T06:41:44.074Z</time></trkpt><trkpt lat="40.7821301" lon="9.1689053"><ele>234.0</ele><time>2026-04-21T06:41:45.071Z</time></trkpt><trkpt lat="40.7822113" lon="9.1687896"><ele>236.0</ele><time>2026-04-21T06:41:46.072Z</time></trkpt><trkpt lat="40.7822888" lon="9.1686789"><ele>238.0</ele><time>2026-04-21T06:41:47.072Z</time></trkpt><trkpt lat="40.7823629" lon="9.1685762"><ele>238.0</ele><time>2026-04-21T06:41:48.066Z</time></trkpt><trkpt lat="40.7824273" lon="9.1685008"><ele>238.0</ele><time>2026-04-21T06:41:49.056Z</time></trkpt><trkpt lat="40.7825275" lon="9.1684654"><ele>238.0</ele><time>2026-04-21T06:41:51.056Z</time></trkpt><trkpt lat="40.7826163" lon="9.1684769"><ele>238.0</ele><time>2026-04-21T06:41:53.049Z</time></trkpt><trkpt lat="40.7826985" lon="9.1685535"><ele>238.0</ele><time>2026-04-21T06:41:54.962Z</time></trkpt><trkpt lat="40.7827685" lon="9.1686164"><ele>240.4</ele><time>2026-04-21T06:41:55.969Z</time></trkpt><trkpt lat="40.7828242" lon="9.1687102"><ele>242.8</ele><time>2026-04-21T06:41:56.978Z</time></trkpt><trkpt lat="40.7828893" lon="9.1688152"><ele>245.2</ele><time>2026-04-21T06:41:57.974Z</time></trkpt><trkpt lat="40.7829619" lon="9.1689322"><ele>247.6</ele><time>2026-04-21T06:41:58.976Z</time></trkpt><trkpt lat="40.783043" lon="9.1690517"><ele>250.0</ele><time>2026-04-21T06:41:59.976Z</time></trkpt><trkpt lat="40.7831246" lon="9.1691835"><ele>250.0</ele><time>2026-04-21T06:42:00.981Z</time></trkpt><trkpt lat="40.7832053" lon="9.1693219"><ele>250.0</ele><time>2026-04-21T06:42:01.98Z</time></trkpt><trkpt lat="40.7832724" lon="9.169454"><ele>250.0</ele><time>2026-04-21T06:42:02.972Z</time></trkpt><trkpt lat="40.7833186" lon="9.1695911"><ele>250.0</ele><time>2026-04-21T06:42:03.97Z</time></trkpt><trkpt lat="40.7833452" lon="9.1697289"><ele>249.25</ele><time>2026-04-21T06:42:04.981Z</time></trkpt><trkpt lat="40.7833615" lon="9.1698716"><ele>248.5</ele><time>2026-04-21T06:42:05.982Z</time></trkpt><trkpt lat="40.7833764" lon="9.1700245"><ele>247.75</ele><time>2026-04-21T06:42:06.983Z</time></trkpt><trkpt lat="40.7834091" lon="9.1701753"><ele>247.0</ele><time>2026-04-21T06:42:07.982Z</time></trkpt><trkpt lat="40.7834346" lon="9.1703325"><ele>246.99999999999997</ele><time>2026-04-21T06:42:08.979Z</time></trkpt><trkpt lat="40.7834548" lon="9.1704569"><ele>247.0</ele><time>2026-04-21T06:42:09.98Z</time></trkpt><trkpt lat="40.7834954" lon="9.170544"><ele>247.0</ele><time>2026-04-21T06:42:10.982Z</time></trkpt><trkpt lat="40.783562" lon="9.1705895"><ele>247.0</ele><time>2026-04-21T06:42:11.979Z</time></trkpt><trkpt lat="40.7836582" lon="9.1705758"><ele>246.99999999999997</ele><time>2026-04-21T06:42:12.983Z</time></trkpt><trkpt lat="40.7837391" lon="9.1705079"><ele>247.0</ele><time>2026-04-21T06:42:13.976Z</time></trkpt><trkpt lat="40.7837845" lon="9.1703993"><ele>250.25</ele><time>2026-04-21T06:42:14.973Z</time></trkpt><trkpt lat="40.7838172" lon="9.1702566"><ele>253.5</ele><time>2026-04-21T06:42:15.966Z</time></trkpt><trkpt lat="40.7838303" lon="9.1700999"><ele>256.75</ele><time>2026-04-21T06:42:16.965Z</time></trkpt><trkpt lat="40.7838463" lon="9.1699255"><ele>260.0</ele><time>2026-04-21T06:42:17.981Z</time></trkpt><trkpt lat="40.7838573" lon="9.1697569"><ele>261.25</ele><time>2026-04-21T06:42:18.977Z</time></trkpt><trkpt lat="40.7838665" lon="9.1695779"><ele>262.5</ele><time>2026-04-21T06:42:19.97Z</time></trkpt><trkpt lat="40.7838773" lon="9.1693908"><ele>263.75</ele><time>2026-04-21T06:42:20.972Z</time></trkpt><trkpt lat="40.7838905" lon="9.1691974"><ele>265.0</ele><time>2026-04-21T06:42:21.974Z</time></trkpt><trkpt lat="40.7839158" lon="9.1689791"><ele>265.66666666666663</ele><time>2026-04-21T06:42:22.964Z</time></trkpt><trkpt lat="40.7839373" lon="9.1687653"><ele>266.3333333333333</ele><time>2026-04-21T06:42:23.983Z</time></trkpt><trkpt lat="40.783955" lon="9.1685679"><ele>267.0</ele><time>2026-04-21T06:42:24.975Z</time></trkpt><trkpt lat="40.7839622" lon="9.1683488"><ele>267.0</ele><time>2026-04-21T06:42:25.961Z</time></trkpt><trkpt lat="40.7839833" lon="9.1681504"><ele>267.0</ele><time>2026-04-21T06:42:26.994Z</time></trkpt><trkpt lat="40.7840147" lon="9.1679617"><ele>267.0</ele><time>2026-04-21T06:42:27.994Z</time></trkpt><trkpt lat="40.7840554" lon="9.1677789"><ele>267.0</ele><time>2026-04-21T06:42:28.994Z</time></trkpt><trkpt lat="40.7840993" lon="9.1675856"><ele>267.0</ele><time>2026-04-21T06:42:29.976Z</time></trkpt><trkpt lat="40.7841479" lon="9.1674043"><ele>267.0</ele><time>2026-04-21T06:42:30.962Z</time></trkpt><trkpt lat="40.7842121" lon="9.1672311"><ele>267.0</ele><time>2026-04-21T06:42:31.968Z</time></trkpt><trkpt lat="40.7842927" lon="9.1670635"><ele>267.0</ele><time>2026-04-21T06:42:32.973Z</time></trkpt><trkpt lat="40.7843461" lon="9.166876"><ele>271.25</ele><time>2026-04-21T06:42:33.979Z</time></trkpt><trkpt lat="40.7844155" lon="9.1667063"><ele>275.5</ele><time>2026-04-21T06:42:34.975Z</time></trkpt><trkpt lat="40.7844746" lon="9.1665312"><ele>279.75</ele><time>2026-04-21T06:42:35.974Z</time></trkpt><trkpt lat="40.7845362" lon="9.1663711"><ele>284.0</ele><time>2026-04-21T06:42:36.969Z</time></trkpt><trkpt lat="40.7846002" lon="9.1662271"><ele>284.0</ele><time>2026-04-21T06:42:37.966Z</time></trkpt><trkpt lat="40.7846463" lon="9.1660992"><ele>284.0</ele><time>2026-04-21T06:42:38.96Z</time></trkpt><trkpt lat="40.7846705" lon="9.1659638"><ele>284.0</ele><time>2026-04-21T06:42:39.955Z</time></trkpt><trkpt lat="40.7847246" lon="9.1658528"><ele>284.0</ele><time>2026-04-21T06:42:40.957Z</time></trkpt><trkpt lat="40.7847867" lon="9.1657468"><ele>284.0</ele><time>2026-04-21T06:42:41.947Z</time></trkpt><trkpt lat="40.7848713" lon="9.1656572"><ele>285.75</ele><time>2026-04-21T06:42:42.948Z</time></trkpt><trkpt lat="40.7849812" lon="9.1655979"><ele>287.5</ele><time>2026-04-21T06:42:43.949Z</time></trkpt><trkpt lat="40.7850974" lon="9.1655379"><ele>289.25</ele><time>2026-04-21T06:42:44.942Z</time></trkpt><trkpt lat="40.7852062" lon="9.1654706"><ele>291.0</ele><time>2026-04-21T06:42:45.944Z</time></trkpt><trkpt lat="40.7853025" lon="9.1654023"><ele>291.0</ele><time>2026-04-21T06:42:46.945Z</time></trkpt><trkpt lat="40.7853855" lon="9.1652967"><ele>291.0</ele><time>2026-04-21T06:42:47.94Z</time></trkpt><trkpt lat="40.7854473" lon="9.1651948"><ele>291.0</ele><time>2026-04-21T06:42:48.936Z</time></trkpt><trkpt lat="40.7854937" lon="9.1650878"><ele>291.0</ele><time>2026-04-21T06:42:49.94Z</time></trkpt><trkpt lat="40.7855211" lon="9.1649678"><ele>291.0</ele><time>2026-04-21T06:42:50.937Z</time></trkpt><trkpt lat="40.7855542" lon="9.1648633"><ele>290.0</ele><time>2026-04-21T06:42:51.95Z</time></trkpt><trkpt lat="40.7855921" lon="9.1647788"><ele>289.0</ele><time>2026-04-21T06:42:52.956Z</time></trkpt><trkpt lat="40.7856391" lon="9.1646921"><ele>288.0</ele><time>2026-04-21T06:42:53.958Z</time></trkpt><trkpt lat="40.7856745" lon="9.1646129"><ele>287.0</ele><time>2026-04-21T06:42:54.966Z</time></trkpt><trkpt lat="40.785725" lon="9.1644835"><ele>286.0</ele><time>2026-04-21T06:42:56.967Z</time></trkpt><trkpt lat="40.7857804" lon="9.1643882"><ele>285.0</ele><time>2026-04-21T06:42:58.971Z</time></trkpt><trkpt lat="40.7858617" lon="9.1643348"><ele>285.0</ele><time>2026-04-21T06:43:00.972Z</time></trkpt><trkpt lat="40.7859675" lon="9.1642877"><ele>285.0</ele><time>2026-04-21T06:43:02.963Z</time></trkpt><trkpt lat="40.7860429" lon="9.1642479"><ele>285.0</ele><time>2026-04-21T06:43:04.975Z</time></trkpt><trkpt lat="40.7861117" lon="9.1642179"><ele>285.0</ele><time>2026-04-21T06:43:06.965Z</time></trkpt><trkpt lat="40.7861774" lon="9.1642003"><ele>285.0</ele><time>2026-04-21T07:05:24.978Z</time></trkpt><trkpt lat="40.7860868" lon="9.1642474"><ele>285.0</ele><time>2026-04-21T07:05:27.973Z</time></trkpt><trkpt lat="40.7860069" lon="9.1642743"><ele>285.0</ele><time>2026-04-21T07:05:28.97Z</time></trkpt><trkpt lat="40.7859408" lon="9.1642935"><ele>285.0</ele><time>2026-04-21T07:05:29.983Z</time></trkpt><trkpt lat="40.7858777" lon="9.1643341"><ele>285.0</ele><time>2026-04-21T07:05:30.965Z</time></trkpt><trkpt lat="40.7857877" lon="9.1644217"><ele>285.0</ele><time>2026-04-21T07:05:32.967Z</time></trkpt><trkpt lat="40.7857347" lon="9.1645099"><ele>285.0</ele><time>2026-04-21T07:05:34.962Z</time></trkpt><trkpt lat="40.7856856" lon="9.1646426"><ele>285.0</ele><time>2026-04-21T07:05:45.97Z</time></trkpt><trkpt lat="40.7856627" lon="9.164723"><ele>286.0</ele><time>2026-04-21T07:05:46.968Z</time></trkpt><trkpt lat="40.7856028" lon="9.1648806"><ele>287.0</ele><time>2026-04-21T07:05:48.962Z</time></trkpt><trkpt lat="40.7855653" lon="9.164966"><ele>288.0</ele><time>2026-04-21T07:05:49.956Z</time></trkpt><trkpt lat="40.7855237" lon="9.165043"><ele>289.0</ele><time>2026-04-21T07:05:50.953Z</time></trkpt><trkpt lat="40.7854872" lon="9.165124"><ele>290.0</ele><time>2026-04-21T07:05:51.958Z</time></trkpt><trkpt lat="40.7854479" lon="9.1652021"><ele>291.0</ele><time>2026-04-21T07:05:52.948Z</time></trkpt><trkpt lat="40.7854323" lon="9.1652916"><ele>291.0</ele><time>2026-04-21T07:05:53.95Z</time></trkpt><trkpt lat="40.7853683" lon="9.1654031"><ele>291.0</ele><time>2026-04-21T07:05:55.964Z</time></trkpt><trkpt lat="40.7853077" lon="9.1654842"><ele>291.0</ele><time>2026-04-21T07:05:57.961Z</time></trkpt><trkpt lat="40.7852146" lon="9.1655466"><ele>291.0</ele><time>2026-04-21T07:05:59.958Z</time></trkpt><trkpt lat="40.785157" lon="9.1655803"><ele>291.0</ele><time>2026-04-21T07:06:00.958Z</time></trkpt><trkpt lat="40.7850884" lon="9.1656168"><ele>291.0</ele><time>2026-04-21T07:06:01.965Z</time></trkpt><trkpt lat="40.7850189" lon="9.1656488"><ele>289.8333333333333</ele><time>2026-04-21T07:06:02.962Z</time></trkpt><trkpt lat="40.7849567" lon="9.1656839"><ele>288.6666666666667</ele><time>2026-04-21T07:06:03.96Z</time></trkpt><trkpt lat="40.784897" lon="9.165722"><ele>287.5</ele><time>2026-04-21T07:06:04.958Z</time></trkpt><trkpt lat="40.7847949" lon="9.1658031"><ele>286.33333333333337</ele><time>2026-04-21T07:06:06.964Z</time></trkpt><trkpt lat="40.7847175" lon="9.1659023"><ele>285.1666666666667</ele><time>2026-04-21T07:06:08.964Z</time></trkpt><trkpt lat="40.7846739" lon="9.1660028"><ele>284.0</ele><time>2026-04-21T07:06:10.982Z</time></trkpt><trkpt lat="40.7846298" lon="9.166084"><ele>284.0</ele><time>2026-04-21T07:06:12.981Z</time></trkpt><trkpt lat="40.7845875" lon="9.1662097"><ele>284.0</ele><time>2026-04-21T07:06:14.981Z</time></trkpt><trkpt lat="40.7845597" lon="9.1662901"><ele>284.0</ele><time>2026-04-21T07:06:15.98Z</time></trkpt><trkpt lat="40.7845256" lon="9.1663679"><ele>284.0</ele><time>2026-04-21T07:06:16.984Z</time></trkpt><trkpt lat="40.7844909" lon="9.1664585"><ele>284.0</ele><time>2026-04-21T07:06:17.979Z</time></trkpt><trkpt lat="40.7844625" lon="9.1665399"><ele>284.0</ele><time>2026-04-21T07:06:18.978Z</time></trkpt><trkpt lat="40.7844219" lon="9.1666756"><ele>284.6666666666667</ele><time>2026-04-21T07:06:20.983Z</time></trkpt><trkpt lat="40.7843986" lon="9.1667553"><ele>285.33333333333337</ele><time>2026-04-21T07:06:21.979Z</time></trkpt><trkpt lat="40.7843569" lon="9.1668613"><ele>286.0</ele><time>2026-04-21T07:06:22.977Z</time></trkpt><trkpt lat="40.7843161" lon="9.1669625"><ele>286.6666666666667</ele><time>2026-04-21T07:06:23.979Z</time></trkpt><trkpt lat="40.7842763" lon="9.1670761"><ele>287.3333333333333</ele><time>2026-04-21T07:06:24.975Z</time></trkpt><trkpt lat="40.7842293" lon="9.1672016"><ele>288.0</ele><time>2026-04-21T07:06:25.978Z</time></trkpt><trkpt lat="40.784184" lon="9.1673398"><ele>283.8</ele><time>2026-04-21T07:06:26.977Z</time></trkpt><trkpt lat="40.7841377" lon="9.1674721"><ele>279.6</ele><time>2026-04-21T07:06:27.98Z</time></trkpt><trkpt lat="40.7840905" lon="9.1676002"><ele>275.4</ele><time>2026-04-21T07:06:28.973Z</time></trkpt><trkpt lat="40.7840487" lon="9.1677314"><ele>271.2</ele><time>2026-04-21T07:06:29.972Z</time></trkpt><trkpt lat="40.7840129" lon="9.1678648"><ele>267.0</ele><time>2026-04-21T07:06:30.976Z</time></trkpt><trkpt lat="40.7839892" lon="9.1680075"><ele>267.0</ele><time>2026-04-21T07:06:32.051Z</time></trkpt><trkpt lat="40.7839721" lon="9.1681603"><ele>267.0</ele><time>2026-04-21T07:06:33.052Z</time></trkpt><trkpt lat="40.7839573" lon="9.1683231"><ele>267.0</ele><time>2026-04-21T07:06:34.057Z</time></trkpt><trkpt lat="40.7839432" lon="9.1684902"><ele>267.0</ele><time>2026-04-21T07:06:35.059Z</time></trkpt><trkpt lat="40.7839267" lon="9.1686583"><ele>267.0</ele><time>2026-04-21T07:06:36.06Z</time></trkpt><trkpt lat="40.7839099" lon="9.1688365"><ele>267.0</ele><time>2026-04-21T07:06:37.067Z</time></trkpt><trkpt lat="40.7838937" lon="9.1690103"><ele>267.0</ele><time>2026-04-21T07:06:38.064Z</time></trkpt><trkpt lat="40.7838812" lon="9.1691833"><ele>267.0</ele><time>2026-04-21T07:06:39.066Z</time></trkpt><trkpt lat="40.7838697" lon="9.1693518"><ele>266.5</ele><time>2026-04-21T07:06:40.068Z</time></trkpt><trkpt lat="40.7838574" lon="9.169514"><ele>266.0</ele><time>2026-04-21T07:06:41.07Z</time></trkpt><trkpt lat="40.7838452" lon="9.1696697"><ele>265.5</ele><time>2026-04-21T07:06:42.074Z</time></trkpt><trkpt lat="40.7838328" lon="9.169824"><ele>265.0</ele><time>2026-04-21T07:06:43.068Z</time></trkpt><trkpt lat="40.7838236" lon="9.1699761"><ele>264.0</ele><time>2026-04-21T07:06:44.075Z</time></trkpt><trkpt lat="40.783806" lon="9.1701255"><ele>263.0</ele><time>2026-04-21T07:06:45.068Z</time></trkpt><trkpt lat="40.7837827" lon="9.1702594"><ele>262.0</ele><time>2026-04-21T07:06:46.066Z</time></trkpt><trkpt lat="40.7837452" lon="9.1703784"><ele>261.0</ele><time>2026-04-21T07:06:47.061Z</time></trkpt><trkpt lat="40.7836891" lon="9.1704621"><ele>260.0</ele><time>2026-04-21T07:06:48.035Z</time></trkpt><trkpt lat="40.7835679" lon="9.1704809"><ele>256.75</ele><time>2026-04-21T07:06:49.951Z</time></trkpt><trkpt lat="40.783486" lon="9.1703608"><ele>253.5</ele><time>2026-04-21T07:06:50.95Z</time></trkpt><trkpt lat="40.7834347" lon="9.170211"><ele>250.25</ele><time>2026-04-21T07:06:51.977Z</time></trkpt><trkpt lat="40.7834056" lon="9.1700594"><ele>247.0</ele><time>2026-04-21T07:06:52.971Z</time></trkpt><trkpt lat="40.7833767" lon="9.1699083"><ele>247.6</ele><time>2026-04-21T07:06:53.969Z</time></trkpt><trkpt lat="40.783349" lon="9.1697591"><ele>248.2</ele><time>2026-04-21T07:06:54.966Z</time></trkpt><trkpt lat="40.783318" lon="9.1696207"><ele>248.8</ele><time>2026-04-21T07:06:55.962Z</time></trkpt><trkpt lat="40.7832809" lon="9.1694851"><ele>249.4</ele><time>2026-04-21T07:06:56.966Z</time></trkpt><trkpt lat="40.7832345" lon="9.1693549"><ele>250.0</ele><time>2026-04-21T07:06:57.967Z</time></trkpt><trkpt lat="40.7831688" lon="9.1692339"><ele>250.0</ele><time>2026-04-21T07:06:58.965Z</time></trkpt><trkpt lat="40.783099" lon="9.1691187"><ele>250.0</ele><time>2026-04-21T07:06:59.97Z</time></trkpt><trkpt lat="40.7830257" lon="9.1690069"><ele>250.0</ele><time>2026-04-21T07:07:00.975Z</time></trkpt><trkpt lat="40.7829586" lon="9.1688998"><ele>250.0</ele><time>2026-04-21T07:07:01.973Z</time></trkpt><trkpt lat="40.7828848" lon="9.1687856"><ele>250.0</ele><time>2026-04-21T07:07:02.971Z</time></trkpt><trkpt lat="40.7828152" lon="9.1686838"><ele>250.0</ele><time>2026-04-21T07:07:03.97Z</time></trkpt><trkpt lat="40.782753" lon="9.1685902"><ele>250.0</ele><time>2026-04-21T07:07:04.975Z</time></trkpt><trkpt lat="40.7826901" lon="9.168513"><ele>250.0</ele><time>2026-04-21T07:07:05.97Z</time></trkpt><trkpt lat="40.7826335" lon="9.1684428"><ele>250.0</ele><time>2026-04-21T07:07:06.971Z</time></trkpt><trkpt lat="40.7825787" lon="9.1683935"><ele>250.0</ele><time>2026-04-21T07:07:07.963Z</time></trkpt><trkpt lat="40.7824448" lon="9.1684035"><ele>247.6</ele><time>2026-04-21T07:07:09.963Z</time></trkpt><trkpt lat="40.7823736" lon="9.168468"><ele>245.2</ele><time>2026-04-21T07:07:10.967Z</time></trkpt><trkpt lat="40.7823003" lon="9.1685725"><ele>242.8</ele><time>2026-04-21T07:07:11.953Z</time></trkpt><trkpt lat="40.7822201" lon="9.1686792"><ele>240.4</ele><time>2026-04-21T07:07:12.957Z</time></trkpt><trkpt lat="40.7821398" lon="9.1687892"><ele>238.0</ele><time>2026-04-21T07:07:13.958Z</time></trkpt><trkpt lat="40.7820613" lon="9.1689068"><ele>237.75</ele><time>2026-04-21T07:07:14.962Z</time></trkpt><trkpt lat="40.781979" lon="9.1690279"><ele>237.5</ele><time>2026-04-21T07:07:15.96Z</time></trkpt><trkpt lat="40.7818867" lon="9.1691584"><ele>237.25</ele><time>2026-04-21T07:07:16.965Z</time></trkpt><trkpt lat="40.7817934" lon="9.1692923"><ele>237.0</ele><time>2026-04-21T07:07:17.962Z</time></trkpt><trkpt lat="40.7816976" lon="9.1694268"><ele>235.25</ele><time>2026-04-21T07:07:18.968Z</time></trkpt><trkpt lat="40.7816129" lon="9.1695626"><ele>233.5</ele><time>2026-04-21T07:07:19.967Z</time></trkpt><trkpt lat="40.7815167" lon="9.1697018"><ele>231.75</ele><time>2026-04-21T07:07:20.97Z</time></trkpt><trkpt lat="40.7814265" lon="9.1698439"><ele>230.0</ele><time>2026-04-21T07:07:21.97Z</time></trkpt><trkpt lat="40.7813273" lon="9.169985"><ele>229.0</ele><time>2026-04-21T07:07:22.971Z</time></trkpt><trkpt lat="40.7812228" lon="9.1701348"><ele>228.0</ele><time>2026-04-21T07:07:23.974Z</time></trkpt><trkpt lat="40.7811231" lon="9.1702798"><ele>227.0</ele><time>2026-04-21T07:07:24.975Z</time></trkpt><trkpt lat="40.7810184" lon="9.1704215"><ele>225.33333333333334</ele><time>2026-04-21T07:07:25.975Z</time></trkpt><trkpt lat="40.7808998" lon="9.1705582"><ele>223.66666666666669</ele><time>2026-04-21T07:07:26.973Z</time></trkpt><trkpt lat="40.7807898" lon="9.1706944"><ele>222.0</ele><time>2026-04-21T07:07:27.979Z</time></trkpt><trkpt lat="40.7806814" lon="9.1708256"><ele>222.0</ele><time>2026-04-21T07:07:28.978Z</time></trkpt><trkpt lat="40.7805631" lon="9.1709669"><ele>222.0</ele><time>2026-04-21T07:07:29.972Z</time></trkpt><trkpt lat="40.7804575" lon="9.1710805"><ele>222.0</ele><time>2026-04-21T07:07:30.974Z</time></trkpt><trkpt lat="40.7803316" lon="9.1711895"><ele>222.0</ele><time>2026-04-21T07:07:31.978Z</time></trkpt><trkpt lat="40.7802109" lon="9.1713053"><ele>221.5</ele><time>2026-04-21T07:07:32.973Z</time></trkpt><trkpt lat="40.7800838" lon="9.1714336"><ele>221.0</ele><time>2026-04-21T07:07:33.975Z</time></trkpt><trkpt lat="40.7799803" lon="9.1715597"><ele>220.5</ele><time>2026-04-21T07:07:34.969Z</time></trkpt><trkpt lat="40.7798744" lon="9.1716747"><ele>220.0</ele><time>2026-04-21T07:07:35.977Z</time></trkpt><trkpt lat="40.7797769" lon="9.1717763"><ele>220.8</ele><time>2026-04-21T07:07:36.974Z</time></trkpt><trkpt lat="40.7796981" lon="9.1718742"><ele>221.6</ele><time>2026-04-21T07:07:37.978Z</time></trkpt><trkpt lat="40.779603" lon="9.1719696"><ele>222.39999999999998</ele><time>2026-04-21T07:07:38.976Z</time></trkpt><trkpt lat="40.7795399" lon="9.1720479"><ele>223.2</ele><time>2026-04-21T07:07:39.977Z</time></trkpt><trkpt lat="40.7794845" lon="9.1721058"><ele>224.0</ele><time>2026-04-21T07:07:40.98Z</time></trkpt><trkpt lat="40.7794209" lon="9.1722114"><ele>224.0</ele><time>2026-04-21T07:07:41.975Z</time></trkpt><trkpt lat="40.7793785" lon="9.1723286"><ele>223.99999999999997</ele><time>2026-04-21T07:07:42.963Z</time></trkpt><trkpt lat="40.7793547" lon="9.1724549"><ele>223.99999999999997</ele><time>2026-04-21T07:07:43.977Z</time></trkpt><trkpt lat="40.7793501" lon="9.1726066"><ele>224.0</ele><time>2026-04-21T07:07:44.975Z</time></trkpt><trkpt lat="40.7793386" lon="9.1727738"><ele>224.0</ele><time>2026-04-21T07:07:45.983Z</time></trkpt><trkpt lat="40.7793182" lon="9.1729546"><ele>224.25</ele><time>2026-04-21T07:07:46.973Z</time></trkpt><trkpt lat="40.7792839" lon="9.1731384"><ele>224.5</ele><time>2026-04-21T07:07:47.978Z</time></trkpt><trkpt lat="40.7792377" lon="9.173325"><ele>224.75</ele><time>2026-04-21T07:07:48.978Z</time></trkpt><trkpt lat="40.7791865" lon="9.1735048"><ele>225.0</ele><time>2026-04-21T07:07:49.978Z</time></trkpt><trkpt lat="40.7791447" lon="9.173697"><ele>225.0</ele><time>2026-04-21T07:07:50.976Z</time></trkpt><trkpt lat="40.7790994" lon="9.1738904"><ele>225.0</ele><time>2026-04-21T07:07:51.977Z</time></trkpt><trkpt lat="40.7790671" lon="9.1740767"><ele>225.0</ele><time>2026-04-21T07:07:52.979Z</time></trkpt><trkpt lat="40.7790282" lon="9.1742624"><ele>225.0</ele><time>2026-04-21T07:07:53.983Z</time></trkpt><trkpt lat="40.7789945" lon="9.1744369"><ele>224.5</ele><time>2026-04-21T07:07:54.978Z</time></trkpt><trkpt lat="40.7789537" lon="9.1746133"><ele>224.0</ele><time>2026-04-21T07:07:55.977Z</time></trkpt><trkpt lat="40.7789139" lon="9.1747848"><ele>223.5</ele><time>2026-04-21T07:07:56.978Z</time></trkpt><trkpt lat="40.7788789" lon="9.1749475"><ele>223.0</ele><time>2026-04-21T07:07:57.98Z</time></trkpt><trkpt lat="40.7788355" lon="9.175116"><ele>222.5</ele><time>2026-04-21T07:07:58.981Z</time></trkpt><trkpt lat="40.7788059" lon="9.1752717"><ele>222.0</ele><time>2026-04-21T07:07:59.973Z</time></trkpt><trkpt lat="40.7787589" lon="9.1754379"><ele>221.5</ele><time>2026-04-21T07:08:00.982Z</time></trkpt><trkpt lat="40.7787158" lon="9.1756139"><ele>221.0</ele><time>2026-04-21T07:08:01.973Z</time></trkpt><trkpt lat="40.7786637" lon="9.1757822"><ele>220.75</ele><time>2026-04-21T07:08:02.976Z</time></trkpt><trkpt lat="40.7786113" lon="9.1759587"><ele>220.5</ele><time>2026-04-21T07:08:03.98Z</time></trkpt><trkpt lat="40.7785422" lon="9.1761366"><ele>220.25</ele><time>2026-04-21T07:08:04.98Z</time></trkpt><trkpt lat="40.7784699" lon="9.1763131"><ele>220.0</ele><time>2026-04-21T07:08:05.979Z</time></trkpt><trkpt lat="40.7783959" lon="9.176479"><ele>216.66666666666666</ele><time>2026-04-21T07:08:06.977Z</time></trkpt><trkpt lat="40.7783043" lon="9.1766515"><ele>213.33333333333331</ele><time>2026-04-21T07:08:07.979Z</time></trkpt><trkpt lat="40.7782078" lon="9.1768252"><ele>210.0</ele><time>2026-04-21T07:08:08.979Z</time></trkpt><trkpt lat="40.7781014" lon="9.1769964"><ele>210.0</ele><time>2026-04-21T07:08:09.978Z</time></trkpt><trkpt lat="40.7779919" lon="9.1771549"><ele>210.0</ele><time>2026-04-21T07:08:10.977Z</time></trkpt><trkpt lat="40.7778698" lon="9.1772841"><ele>210.0</ele><time>2026-04-21T07:08:11.982Z</time></trkpt><trkpt lat="40.777751" lon="9.1774203"><ele>208.0</ele><time>2026-04-21T07:08:12.974Z</time></trkpt><trkpt lat="40.7776405" lon="9.177553"><ele>206.0</ele><time>2026-04-21T07:08:13.982Z</time></trkpt><trkpt lat="40.7775093" lon="9.1776769"><ele>204.0</ele><time>2026-04-21T07:08:14.976Z</time></trkpt><trkpt lat="40.7773799" lon="9.1777989"><ele>204.0</ele><time>2026-04-21T07:08:15.976Z</time></trkpt><trkpt lat="40.777254" lon="9.1778955"><ele>204.0</ele><time>2026-04-21T07:08:16.987Z</time></trkpt><trkpt lat="40.7771184" lon="9.1779977"><ele>204.0</ele><time>2026-04-21T07:08:17.98Z</time></trkpt><trkpt lat="40.7769993" lon="9.1780813"><ele>204.0</ele><time>2026-04-21T07:08:18.98Z</time></trkpt><trkpt lat="40.7768724" lon="9.1781471"><ele>203.75</ele><time>2026-04-21T07:08:19.969Z</time></trkpt><trkpt lat="40.7767414" lon="9.1782201"><ele>203.5</ele><time>2026-04-21T07:08:20.956Z</time></trkpt><trkpt lat="40.7766129" lon="9.1782727"><ele>203.25</ele><time>2026-04-21T07:08:21.959Z</time></trkpt><trkpt lat="40.7764556" lon="9.1783585"><ele>203.0</ele><time>2026-04-21T07:08:22.963Z</time></trkpt><trkpt lat="40.7763104" lon="9.1784563"><ele>203.0</ele><time>2026-04-21T07:08:23.961Z</time></trkpt><trkpt lat="40.7761761" lon="9.1785271"><ele>203.0</ele><time>2026-04-21T07:08:24.96Z</time></trkpt><trkpt lat="40.7760347" lon="9.1786052"><ele>203.0</ele><time>2026-04-21T07:08:25.962Z</time></trkpt><trkpt lat="40.7759025" lon="9.1786901"><ele>203.0</ele><time>2026-04-21T07:08:26.97Z</time></trkpt><trkpt lat="40.7757986" lon="9.1787924"><ele>202.25</ele><time>2026-04-21T07:08:27.97Z</time></trkpt><trkpt lat="40.7756707" lon="9.1788717"><ele>201.5</ele><time>2026-04-21T07:08:28.965Z</time></trkpt><trkpt lat="40.7755524" lon="9.178942"><ele>200.75</ele><time>2026-04-21T07:08:29.976Z</time></trkpt><trkpt lat="40.77542" lon="9.179033"><ele>200.0</ele><time>2026-04-21T07:08:30.974Z</time></trkpt><trkpt lat="40.7752793" lon="9.1791028"><ele>199.0</ele><time>2026-04-21T07:08:31.966Z</time></trkpt><trkpt lat="40.7751702" lon="9.1791872"><ele>198.0</ele><time>2026-04-21T07:08:32.976Z</time></trkpt><trkpt lat="40.7750503" lon="9.1792764"><ele>197.0</ele><time>2026-04-21T07:08:33.972Z</time></trkpt><trkpt lat="40.774917" lon="9.1793471"><ele>196.0</ele><time>2026-04-21T07:08:34.976Z</time></trkpt><trkpt lat="40.7748155" lon="9.1794153"><ele>195.99999999999997</ele><time>2026-04-21T07:08:35.981Z</time></trkpt><trkpt lat="40.7747116" lon="9.1794745"><ele>196.0</ele><time>2026-04-21T07:08:36.973Z</time></trkpt><trkpt lat="40.774622" lon="9.1795278"><ele>196.0</ele><time>2026-04-21T07:08:37.975Z</time></trkpt><trkpt lat="40.7745436" lon="9.1795675"><ele>196.0</ele><time>2026-04-21T07:08:38.976Z</time></trkpt><trkpt lat="40.7744659" lon="9.1795899"><ele>195.99999999999997</ele><time>2026-04-21T07:08:39.969Z</time></trkpt><trkpt lat="40.7743959" lon="9.1795903"><ele>196.0</ele><time>2026-04-21T07:08:40.967Z</time></trkpt><trkpt lat="40.7743256" lon="9.1795503"><ele>195.5</ele><time>2026-04-21T07:08:41.968Z</time></trkpt><trkpt lat="40.774249" lon="9.1794816"><ele>195.0</ele><time>2026-04-21T07:08:42.971Z</time></trkpt><trkpt lat="40.7741823" lon="9.1793747"><ele>194.5</ele><time>2026-04-21T07:08:43.959Z</time></trkpt><trkpt lat="40.7740976" lon="9.1792392"><ele>194.0</ele><time>2026-04-21T07:08:44.965Z</time></trkpt><trkpt lat="40.7740177" lon="9.1790884"><ele>194.66666666666669</ele><time>2026-04-21T07:08:45.97Z</time></trkpt><trkpt lat="40.7739372" lon="9.1789349"><ele>195.33333333333331</ele><time>2026-04-21T07:08:46.969Z</time></trkpt><trkpt lat="40.7738253" lon="9.1787571"><ele>196.0</ele><time>2026-04-21T07:08:47.968Z</time></trkpt><trkpt lat="40.773709" lon="9.178581"><ele>196.0</ele><time>2026-04-21T07:08:48.97Z</time></trkpt><trkpt lat="40.7735966" lon="9.1783956"><ele>196.0</ele><time>2026-04-21T07:08:49.974Z</time></trkpt><trkpt lat="40.7734938" lon="9.1782076"><ele>196.0</ele><time>2026-04-21T07:08:50.97Z</time></trkpt><trkpt lat="40.773413" lon="9.1780305"><ele>196.33333333333331</ele><time>2026-04-21T07:08:51.973Z</time></trkpt><trkpt lat="40.7733063" lon="9.1778554"><ele>196.66666666666669</ele><time>2026-04-21T07:08:52.972Z</time></trkpt><trkpt lat="40.7732129" lon="9.1776834"><ele>197.0</ele><time>2026-04-21T07:08:53.971Z</time></trkpt><trkpt lat="40.7731033" lon="9.1775072"><ele>198.0</ele><time>2026-04-21T07:08:54.971Z</time></trkpt><trkpt lat="40.7730021" lon="9.177329"><ele>199.0</ele><time>2026-04-21T07:08:55.972Z</time></trkpt><trkpt lat="40.7728935" lon="9.1771441"><ele>200.0</ele><time>2026-04-21T07:08:56.972Z</time></trkpt><trkpt lat="40.772794" lon="9.1769648"><ele>200.0</ele><time>2026-04-21T07:08:57.975Z</time></trkpt><trkpt lat="40.7726924" lon="9.1767789"><ele>200.0</ele><time>2026-04-21T07:08:58.975Z</time></trkpt><trkpt lat="40.7725792" lon="9.176596"><ele>200.0</ele><time>2026-04-21T07:08:59.977Z</time></trkpt><trkpt lat="40.7724823" lon="9.1764299"><ele>199.0</ele><time>2026-04-21T07:09:00.976Z</time></trkpt><trkpt lat="40.7723852" lon="9.1762546"><ele>198.0</ele><time>2026-04-21T07:09:01.973Z</time></trkpt><trkpt lat="40.7722899" lon="9.1760783"><ele>197.0</ele><time>2026-04-21T07:09:02.975Z</time></trkpt><trkpt lat="40.7721861" lon="9.1758996"><ele>197.0</ele><time>2026-04-21T07:09:03.973Z</time></trkpt><trkpt lat="40.7720878" lon="9.1757142"><ele>197.0</ele><time>2026-04-21T07:09:04.975Z</time></trkpt><trkpt lat="40.7719794" lon="9.1755214"><ele>197.0</ele><time>2026-04-21T07:09:05.976Z</time></trkpt><trkpt lat="40.7718786" lon="9.1753325"><ele>197.33333333333334</ele><time>2026-04-21T07:09:06.976Z</time></trkpt><trkpt lat="40.7717657" lon="9.1751405"><ele>197.66666666666669</ele><time>2026-04-21T07:09:07.977Z</time></trkpt><trkpt lat="40.7716609" lon="9.1749533"><ele>198.0</ele><time>2026-04-21T07:09:08.974Z</time></trkpt><trkpt lat="40.7715597" lon="9.174774"><ele>198.66666666666669</ele><time>2026-04-21T07:09:09.978Z</time></trkpt><trkpt lat="40.7714491" lon="9.1745948"><ele>199.33333333333334</ele><time>2026-04-21T07:09:10.979Z</time></trkpt><trkpt lat="40.7713431" lon="9.1744087"><ele>200.0</ele><time>2026-04-21T07:09:11.979Z</time></trkpt><trkpt lat="40.7712445" lon="9.1742263"><ele>200.0</ele><time>2026-04-21T07:09:12.976Z</time></trkpt><trkpt lat="40.7711364" lon="9.1740383"><ele>200.0</ele><time>2026-04-21T07:09:13.984Z</time></trkpt><trkpt lat="40.7710251" lon="9.173829"><ele>200.0</ele><time>2026-04-21T07:09:14.977Z</time></trkpt><trkpt lat="40.770921" lon="9.1736415"><ele>198.66666666666669</ele><time>2026-04-21T07:09:15.982Z</time></trkpt><trkpt lat="40.7708105" lon="9.1734489"><ele>197.33333333333331</ele><time>2026-04-21T07:09:16.982Z</time></trkpt><trkpt lat="40.7706994" lon="9.1732609"><ele>196.0</ele><time>2026-04-21T07:09:17.98Z</time></trkpt><trkpt lat="40.7705892" lon="9.1730687"><ele>196.0</ele><time>2026-04-21T07:09:18.98Z</time></trkpt><trkpt lat="40.7704691" lon="9.1728688"><ele>196.0</ele><time>2026-04-21T07:09:19.979Z</time></trkpt><trkpt lat="40.7703589" lon="9.1726675"><ele>196.0</ele><time>2026-04-21T07:09:20.979Z</time></trkpt><trkpt lat="40.7702565" lon="9.1724748"><ele>195.66666666666666</ele><time>2026-04-21T07:09:21.979Z</time></trkpt><trkpt lat="40.7701489" lon="9.1722904"><ele>195.33333333333331</ele><time>2026-04-21T07:09:22.981Z</time></trkpt><trkpt lat="40.7700352" lon="9.1721024"><ele>195.0</ele><time>2026-04-21T07:09:23.977Z</time></trkpt><trkpt lat="40.7699308" lon="9.1719183"><ele>195.0</ele><time>2026-04-21T07:09:24.978Z</time></trkpt><trkpt lat="40.7698131" lon="9.1717212"><ele>195.0</ele><time>2026-04-21T07:09:25.979Z</time></trkpt><trkpt lat="40.769717" lon="9.1715364"><ele>195.0</ele><time>2026-04-21T07:09:26.978Z</time></trkpt><trkpt lat="40.7696066" lon="9.1713396"><ele>194.66666666666669</ele><time>2026-04-21T07:09:27.982Z</time></trkpt><trkpt lat="40.7694922" lon="9.1711386"><ele>194.33333333333334</ele><time>2026-04-21T07:09:28.979Z</time></trkpt><trkpt lat="40.7693729" lon="9.1709368"><ele>194.0</ele><time>2026-04-21T07:09:29.979Z</time></trkpt><trkpt lat="40.7692615" lon="9.1707354"><ele>193.33333333333334</ele><time>2026-04-21T07:09:30.978Z</time></trkpt><trkpt lat="40.7691448" lon="9.1705395"><ele>192.66666666666669</ele><time>2026-04-21T07:09:31.974Z</time></trkpt><trkpt lat="40.7690366" lon="9.1703529"><ele>192.0</ele><time>2026-04-21T07:09:32.994Z</time></trkpt><trkpt lat="40.7689394" lon="9.1701806"><ele>192.0</ele><time>2026-04-21T07:09:34.057Z</time></trkpt><trkpt lat="40.7688446" lon="9.170012"><ele>192.0</ele><time>2026-04-21T07:09:35.057Z</time></trkpt><trkpt lat="40.7687546" lon="9.1698493"><ele>192.0</ele><time>2026-04-21T07:09:36.058Z</time></trkpt><trkpt lat="40.7686654" lon="9.1696853"><ele>192.33333333333331</ele><time>2026-04-21T07:09:37.072Z</time></trkpt><trkpt lat="40.7685701" lon="9.1695191"><ele>192.66666666666666</ele><time>2026-04-21T07:09:38.063Z</time></trkpt><trkpt lat="40.7684682" lon="9.1693423"><ele>193.0</ele><time>2026-04-21T07:09:39.07Z</time></trkpt><trkpt lat="40.7683682" lon="9.1691617"><ele>191.66666666666666</ele><time>2026-04-21T07:09:40.063Z</time></trkpt><trkpt lat="40.7682669" lon="9.1689777"><ele>190.33333333333331</ele><time>2026-04-21T07:09:41.066Z</time></trkpt><trkpt lat="40.7681654" lon="9.1687911"><ele>189.0</ele><time>2026-04-21T07:09:42.061Z</time></trkpt><trkpt lat="40.7680661" lon="9.168598"><ele>189.0</ele><time>2026-04-21T07:09:43.063Z</time></trkpt><trkpt lat="40.767969" lon="9.1683934"><ele>189.0</ele><time>2026-04-21T07:09:44.06Z</time></trkpt><trkpt lat="40.7678595" lon="9.1681937"><ele>189.0</ele><time>2026-04-21T07:09:45.064Z</time></trkpt><trkpt lat="40.7677669" lon="9.1679603"><ele>187.33333333333334</ele><time>2026-04-21T07:09:46.061Z</time></trkpt><trkpt lat="40.7676793" lon="9.1677183"><ele>185.66666666666669</ele><time>2026-04-21T07:09:47.081Z</time></trkpt><trkpt lat="40.7675973" lon="9.167462"><ele>184.0</ele><time>2026-04-21T07:09:48.064Z</time></trkpt><trkpt lat="40.7675247" lon="9.1672"><ele>183.33333333333334</ele><time>2026-04-21T07:09:49.057Z</time></trkpt><trkpt lat="40.767464" lon="9.1669309"><ele>182.66666666666666</ele><time>2026-04-21T07:09:50.057Z</time></trkpt><trkpt lat="40.7674156" lon="9.1666573"><ele>182.0</ele><time>2026-04-21T07:09:51.065Z</time></trkpt><trkpt lat="40.7673708" lon="9.1663813"><ele>181.33333333333331</ele><time>2026-04-21T07:09:52.067Z</time></trkpt><trkpt lat="40.7673268" lon="9.1661137"><ele>180.66666666666666</ele><time>2026-04-21T07:09:53.065Z</time></trkpt><trkpt lat="40.7672839" lon="9.1658523"><ele>180.0</ele><time>2026-04-21T07:09:54.059Z</time></trkpt><trkpt lat="40.767243" lon="9.1655956"><ele>179.66666666666666</ele><time>2026-04-21T07:09:55.077Z</time></trkpt><trkpt lat="40.7671987" lon="9.1653378"><ele>179.33333333333331</ele><time>2026-04-21T07:09:56.067Z</time></trkpt><trkpt lat="40.7671545" lon="9.1650741"><ele>179.0</ele><time>2026-04-21T07:09:57.067Z</time></trkpt><trkpt lat="40.7671109" lon="9.1648097"><ele>179.0</ele><time>2026-04-21T07:09:58.067Z</time></trkpt><trkpt lat="40.767067" lon="9.1645442"><ele>179.0</ele><time>2026-04-21T07:09:59.07Z</time></trkpt><trkpt lat="40.7670253" lon="9.1642852"><ele>179.0</ele><time>2026-04-21T07:10:00.067Z</time></trkpt><trkpt lat="40.7669823" lon="9.1640278"><ele>179.33333333333331</ele><time>2026-04-21T07:10:01.068Z</time></trkpt><trkpt lat="40.7669395" lon="9.1637692"><ele>179.66666666666666</ele><time>2026-04-21T07:10:02.068Z</time></trkpt><trkpt lat="40.7668968" lon="9.1635107"><ele>180.0</ele><time>2026-04-21T07:10:03.069Z</time></trkpt><trkpt lat="40.7668562" lon="9.1632501"><ele>178.33333333333334</ele><time>2026-04-21T07:10:04.068Z</time></trkpt><trkpt lat="40.7668151" lon="9.1629911"><ele>176.66666666666669</ele><time>2026-04-21T07:10:05.065Z</time></trkpt><trkpt lat="40.7667737" lon="9.1627317"><ele>175.0</ele><time>2026-04-21T07:10:06.06Z</time></trkpt><trkpt lat="40.766731" lon="9.1624697"><ele>175.33333333333334</ele><time>2026-04-21T07:10:07.06Z</time></trkpt><trkpt lat="40.7666847" lon="9.1622087"><ele>175.66666666666666</ele><time>2026-04-21T07:10:08.063Z</time></trkpt><trkpt lat="40.7666379" lon="9.1619561"><ele>176.0</ele><time>2026-04-21T07:10:09.064Z</time></trkpt><trkpt lat="40.7665914" lon="9.1617019"><ele>178.33333333333331</ele><time>2026-04-21T07:10:10.064Z</time></trkpt><trkpt lat="40.7665466" lon="9.1614479"><ele>180.66666666666666</ele><time>2026-04-21T07:10:11.067Z</time></trkpt><trkpt lat="40.7665042" lon="9.1611907"><ele>183.0</ele><time>2026-04-21T07:10:12.061Z</time></trkpt><trkpt lat="40.7664639" lon="9.1609347"><ele>184.33333333333334</ele><time>2026-04-21T07:10:13.062Z</time></trkpt><trkpt lat="40.7664228" lon="9.1606823"><ele>185.66666666666669</ele><time>2026-04-21T07:10:14.064Z</time></trkpt><trkpt lat="40.766381" lon="9.1604308"><ele>187.0</ele><time>2026-04-21T07:10:15.06Z</time></trkpt><trkpt lat="40.7663397" lon="9.1601809"><ele>187.0</ele><time>2026-04-21T07:10:16.065Z</time></trkpt><trkpt lat="40.7663016" lon="9.1599384"><ele>187.0</ele><time>2026-04-21T07:10:17.058Z</time></trkpt><trkpt lat="40.766268" lon="9.1597059"><ele>187.0</ele><time>2026-04-21T07:10:18.055Z</time></trkpt><trkpt lat="40.7662366" lon="9.1594881"><ele>188.0</ele><time>2026-04-21T07:10:19.059Z</time></trkpt><trkpt lat="40.7662066" lon="9.1592787"><ele>189.0</ele><time>2026-04-21T07:10:20.065Z</time></trkpt><trkpt lat="40.7661747" lon="9.1590797"><ele>190.0</ele><time>2026-04-21T07:10:21.063Z</time></trkpt><trkpt lat="40.766144" lon="9.1588881"><ele>191.0</ele><time>2026-04-21T07:10:22.066Z</time></trkpt><trkpt lat="40.7661107" lon="9.158697"><ele>192.0</ele><time>2026-04-21T07:10:23.064Z</time></trkpt><trkpt lat="40.7660751" lon="9.1585107"><ele>193.0</ele><time>2026-04-21T07:10:24.059Z</time></trkpt><trkpt lat="40.766034" lon="9.1583266"><ele>194.0</ele><time>2026-04-21T07:10:25.07Z</time></trkpt><trkpt lat="40.7659807" lon="9.1581408"><ele>189.66666666666669</ele><time>2026-04-21T07:10:26.061Z</time></trkpt><trkpt lat="40.7659305" lon="9.1579472"><ele>185.33333333333334</ele><time>2026-04-21T07:10:27.058Z</time></trkpt><trkpt lat="40.7658787" lon="9.1577316"><ele>181.0</ele><time>2026-04-21T07:10:28.048Z</time></trkpt><trkpt lat="40.7658201" lon="9.1575211"><ele>182.0</ele><time>2026-04-21T07:10:29.047Z</time></trkpt><trkpt lat="40.7657493" lon="9.157301"><ele>183.0</ele><time>2026-04-21T07:10:30.046Z</time></trkpt><trkpt lat="40.7656639" lon="9.1570743"><ele>184.0</ele><time>2026-04-21T07:10:31.048Z</time></trkpt><trkpt lat="40.7655664" lon="9.1568475"><ele>184.0</ele><time>2026-04-21T07:10:32.056Z</time></trkpt><trkpt lat="40.7654596" lon="9.1566179"><ele>184.0</ele><time>2026-04-21T07:10:33.062Z</time></trkpt><trkpt lat="40.7653534" lon="9.1563964"><ele>184.0</ele><time>2026-04-21T07:10:34.064Z</time></trkpt><trkpt lat="40.7652449" lon="9.1561741"><ele>182.0</ele><time>2026-04-21T07:10:35.06Z</time></trkpt><trkpt lat="40.7651336" lon="9.1559447"><ele>180.0</ele><time>2026-04-21T07:10:36.06Z</time></trkpt><trkpt lat="40.7650232" lon="9.1557103"><ele>178.0</ele><time>2026-04-21T07:10:37.068Z</time></trkpt><trkpt lat="40.7649135" lon="9.1554782"><ele>178.0</ele><time>2026-04-21T07:10:38.068Z</time></trkpt><trkpt lat="40.7648048" lon="9.1552466"><ele>178.0</ele><time>2026-04-21T07:10:39.067Z</time></trkpt><trkpt lat="40.7646957" lon="9.1550152"><ele>178.0</ele><time>2026-04-21T07:10:40.072Z</time></trkpt><trkpt lat="40.7645858" lon="9.1547851"><ele>178.66666666666669</ele><time>2026-04-21T07:10:41.072Z</time></trkpt><trkpt lat="40.7644773" lon="9.154557"><ele>179.33333333333334</ele><time>2026-04-21T07:10:42.072Z</time></trkpt><trkpt lat="40.7643628" lon="9.1543325"><ele>180.0</ele><time>2026-04-21T07:10:43.071Z</time></trkpt><trkpt lat="40.7642364" lon="9.1541134"><ele>178.33333333333334</ele><time>2026-04-21T07:10:44.077Z</time></trkpt><trkpt lat="40.7640963" lon="9.1539031"><ele>176.66666666666669</ele><time>2026-04-21T07:10:45.068Z</time></trkpt><trkpt lat="40.7639433" lon="9.1536982"><ele>175.0</ele><time>2026-04-21T07:10:46.07Z</time></trkpt><trkpt lat="40.7637767" lon="9.1535111"><ele>175.0</ele><time>2026-04-21T07:10:47.057Z</time></trkpt><trkpt lat="40.7635959" lon="9.1533418"><ele>175.0</ele><time>2026-04-21T07:10:48.053Z</time></trkpt><trkpt lat="40.7633984" lon="9.1531867"><ele>176.0</ele><time>2026-04-21T07:10:49.053Z</time></trkpt><trkpt lat="40.7631968" lon="9.1530443"><ele>177.0</ele><time>2026-04-21T07:10:50.055Z</time></trkpt><trkpt lat="40.7629874" lon="9.1529098"><ele>177.0</ele><time>2026-04-21T07:10:51.076Z</time></trkpt><trkpt lat="40.7627749" lon="9.1527821"><ele>177.0</ele><time>2026-04-21T07:10:52.08Z</time></trkpt><trkpt lat="40.7625614" lon="9.1526535"><ele>179.0</ele><time>2026-04-21T07:10:53.077Z</time></trkpt><trkpt lat="40.7623544" lon="9.1525254"><ele>181.0</ele><time>2026-04-21T07:10:54.076Z</time></trkpt><trkpt lat="40.7621501" lon="9.152393"><ele>185.0</ele><time>2026-04-21T07:10:55.072Z</time></trkpt><trkpt lat="40.7619451" lon="9.1522591"><ele>189.0</ele><time>2026-04-21T07:10:56.068Z</time></trkpt><trkpt lat="40.7617363" lon="9.152126"><ele>189.0</ele><time>2026-04-21T07:10:57.068Z</time></trkpt><trkpt lat="40.7615269" lon="9.1519925"><ele>189.0</ele><time>2026-04-21T07:10:58.071Z</time></trkpt><trkpt lat="40.7613168" lon="9.15186"><ele>189.0</ele><time>2026-04-21T07:10:59.069Z</time></trkpt><trkpt lat="40.7611081" lon="9.1517277"><ele>189.0</ele><time>2026-04-21T07:11:00.067Z</time></trkpt><trkpt lat="40.7608999" lon="9.1515934"><ele>194.0</ele><time>2026-04-21T07:11:01.072Z</time></trkpt><trkpt lat="40.7606913" lon="9.1514597"><ele>199.0</ele><time>2026-04-21T07:11:02.065Z</time></trkpt><trkpt lat="40.7604822" lon="9.1513269"><ele>199.0</ele><time>2026-04-21T07:11:03.067Z</time></trkpt><trkpt lat="40.7602768" lon="9.1511959"><ele>199.0</ele><time>2026-04-21T07:11:04.072Z</time></trkpt><trkpt lat="40.7600746" lon="9.1510663"><ele>191.5</ele><time>2026-04-21T07:11:05.073Z</time></trkpt><trkpt lat="40.7598715" lon="9.150936"><ele>184.0</ele><time>2026-04-21T07:11:06.072Z</time></trkpt><trkpt lat="40.7596662" lon="9.150802"><ele>182.0</ele><time>2026-04-21T07:11:07.074Z</time></trkpt><trkpt lat="40.7594569" lon="9.1506672"><ele>180.0</ele><time>2026-04-21T07:11:08.072Z</time></trkpt><trkpt lat="40.7592488" lon="9.1505352"><ele>180.0</ele><time>2026-04-21T07:11:09.071Z</time></trkpt><trkpt lat="40.7590427" lon="9.1504043"><ele>180.0</ele><time>2026-04-21T07:11:10.071Z</time></trkpt><trkpt lat="40.7588328" lon="9.1502693"><ele>180.0</ele><time>2026-04-21T07:11:11.069Z</time></trkpt><trkpt lat="40.7586237" lon="9.1501317"><ele>180.0</ele><time>2026-04-21T07:11:12.071Z</time></trkpt><trkpt lat="40.7584152" lon="9.149991"><ele>178.0</ele><time>2026-04-21T07:11:13.072Z</time></trkpt><trkpt lat="40.7582042" lon="9.1498497"><ele>176.0</ele><time>2026-04-21T07:11:14.075Z</time></trkpt><trkpt lat="40.7579905" lon="9.149708"><ele>176.0</ele><time>2026-04-21T07:11:15.071Z</time></trkpt><trkpt lat="40.7577775" lon="9.1495671"><ele>176.0</ele><time>2026-04-21T07:11:16.074Z</time></trkpt><trkpt lat="40.7575673" lon="9.1494291"><ele>175.5</ele><time>2026-04-21T07:11:17.086Z</time></trkpt><trkpt lat="40.7573558" lon="9.1492943"><ele>175.0</ele><time>2026-04-21T07:11:18.076Z</time></trkpt><trkpt lat="40.757145" lon="9.1491598"><ele>176.0</ele><time>2026-04-21T07:11:19.086Z</time></trkpt><trkpt lat="40.7569348" lon="9.1490229"><ele>177.0</ele><time>2026-04-21T07:11:20.077Z</time></trkpt><trkpt lat="40.756726" lon="9.1488871"><ele>175.0</ele><time>2026-04-21T07:11:21.075Z</time></trkpt><trkpt lat="40.7565162" lon="9.1487526"><ele>173.0</ele><time>2026-04-21T07:11:22.08Z</time></trkpt><trkpt lat="40.7563066" lon="9.1486217"><ele>173.0</ele><time>2026-04-21T07:11:23.083Z</time></trkpt><trkpt lat="40.7560955" lon="9.1484883"><ele>173.0</ele><time>2026-04-21T07:11:24.08Z</time></trkpt><trkpt lat="40.7558872" lon="9.1483528"><ele>172.0</ele><time>2026-04-21T07:11:25.085Z</time></trkpt><trkpt lat="40.7556806" lon="9.1482182"><ele>171.0</ele><time>2026-04-21T07:11:26.078Z</time></trkpt><trkpt lat="40.7554752" lon="9.1480868"><ele>171.0</ele><time>2026-04-21T07:11:27.079Z</time></trkpt><trkpt lat="40.755271" lon="9.1479525"><ele>171.0</ele><time>2026-04-21T07:11:28.079Z</time></trkpt><trkpt lat="40.755072" lon="9.1478218"><ele>171.0</ele><time>2026-04-21T07:11:29.082Z</time></trkpt><trkpt lat="40.7548695" lon="9.1477024"><ele>171.0</ele><time>2026-04-21T07:11:30.073Z</time></trkpt><trkpt lat="40.7546691" lon="9.1476145"><ele>171.0</ele><time>2026-04-21T07:11:31.078Z</time></trkpt><trkpt lat="40.7544619" lon="9.147561"><ele>170.33333333333334</ele><time>2026-04-21T07:11:32.075Z</time></trkpt><trkpt lat="40.7542474" lon="9.1475233"><ele>169.66666666666669</ele><time>2026-04-21T07:11:33.055Z</time></trkpt><trkpt lat="40.7540327" lon="9.1474944"><ele>169.0</ele><time>2026-04-21T07:11:34.061Z</time></trkpt><trkpt lat="40.7538123" lon="9.147466"><ele>169.0</ele><time>2026-04-21T07:11:35.064Z</time></trkpt><trkpt lat="40.7535839" lon="9.1474396"><ele>169.0</ele><time>2026-04-21T07:11:36.063Z</time></trkpt><trkpt lat="40.7533536" lon="9.1474161"><ele>171.5</ele><time>2026-04-21T07:11:37.079Z</time></trkpt><trkpt lat="40.7531257" lon="9.1473881"><ele>174.0</ele><time>2026-04-21T07:11:38.08Z</time></trkpt><trkpt lat="40.7529056" lon="9.147364"><ele>175.33333333333334</ele><time>2026-04-21T07:11:39.08Z</time></trkpt><trkpt lat="40.7526871" lon="9.14734"><ele>176.66666666666669</ele><time>2026-04-21T07:11:40.085Z</time></trkpt><trkpt lat="40.752474" lon="9.1473142"><ele>178.0</ele><time>2026-04-21T07:11:41.082Z</time></trkpt><trkpt lat="40.7522571" lon="9.1472865"><ele>178.0</ele><time>2026-04-21T07:11:42.081Z</time></trkpt><trkpt lat="40.7520425" lon="9.147257"><ele>178.0</ele><time>2026-04-21T07:11:43.081Z</time></trkpt><trkpt lat="40.7518274" lon="9.1472274"><ele>178.0</ele><time>2026-04-21T07:11:44.086Z</time></trkpt><trkpt lat="40.7516139" lon="9.1472029"><ele>178.33333333333334</ele><time>2026-04-21T07:11:45.079Z</time></trkpt><trkpt lat="40.7514043" lon="9.147184"><ele>178.66666666666666</ele><time>2026-04-21T07:11:46.079Z</time></trkpt><trkpt lat="40.7512039" lon="9.1471652"><ele>179.0</ele><time>2026-04-21T07:11:47.089Z</time></trkpt><trkpt lat="40.7509963" lon="9.1471413"><ele>179.0</ele><time>2026-04-21T07:11:48.081Z</time></trkpt><trkpt lat="40.7507889" lon="9.1471159"><ele>179.0</ele><time>2026-04-21T07:11:49.085Z</time></trkpt><trkpt lat="40.7505864" lon="9.1470961"><ele>179.0</ele><time>2026-04-21T07:11:50.082Z</time></trkpt><trkpt lat="40.7503879" lon="9.1470775"><ele>180.33333333333331</ele><time>2026-04-21T07:11:51.079Z</time></trkpt><trkpt lat="40.7501886" lon="9.1470401"><ele>181.66666666666666</ele><time>2026-04-21T07:11:52.076Z</time></trkpt><trkpt lat="40.7499892" lon="9.1469668"><ele>183.0</ele><time>2026-04-21T07:11:53.067Z</time></trkpt><trkpt lat="40.74979" lon="9.146876"><ele>183.0</ele><time>2026-04-21T07:11:54.069Z</time></trkpt><trkpt lat="40.7495892" lon="9.1467753"><ele>183.0</ele><time>2026-04-21T07:11:55.056Z</time></trkpt><trkpt lat="40.7493852" lon="9.1466689"><ele>183.0</ele><time>2026-04-21T07:11:56.058Z</time></trkpt><trkpt lat="40.7491809" lon="9.1465651"><ele>182.33333333333334</ele><time>2026-04-21T07:11:57.059Z</time></trkpt><trkpt lat="40.7489797" lon="9.1464659"><ele>181.66666666666669</ele><time>2026-04-21T07:11:58.06Z</time></trkpt><trkpt lat="40.7487783" lon="9.1463793"><ele>181.0</ele><time>2026-04-21T07:11:59.076Z</time></trkpt><trkpt lat="40.7485723" lon="9.1463045"><ele>181.33333333333334</ele><time>2026-04-21T07:12:00.075Z</time></trkpt><trkpt lat="40.7483622" lon="9.146237"><ele>181.66666666666666</ele><time>2026-04-21T07:12:01.078Z</time></trkpt><trkpt lat="40.7481478" lon="9.1461805"><ele>182.0</ele><time>2026-04-21T07:12:02.079Z</time></trkpt><trkpt lat="40.7479325" lon="9.1461323"><ele>182.0</ele><time>2026-04-21T07:12:03.079Z</time></trkpt><trkpt lat="40.7477165" lon="9.1460906"><ele>182.0</ele><time>2026-04-21T07:12:04.075Z</time></trkpt><trkpt lat="40.7474972" lon="9.146051"><ele>182.0</ele><time>2026-04-21T07:12:05.085Z</time></trkpt><trkpt lat="40.7472805" lon="9.1460183"><ele>182.66666666666666</ele><time>2026-04-21T07:12:06.082Z</time></trkpt><trkpt lat="40.747068" lon="9.1459905"><ele>183.33333333333334</ele><time>2026-04-21T07:12:07.083Z</time></trkpt><trkpt lat="40.7468632" lon="9.1459662"><ele>184.0</ele><time>2026-04-21T07:12:08.082Z</time></trkpt><trkpt lat="40.7466612" lon="9.145944"><ele>184.33333333333334</ele><time>2026-04-21T07:12:09.08Z</time></trkpt><trkpt lat="40.7464505" lon="9.1459253"><ele>184.66666666666666</ele><time>2026-04-21T07:12:10.077Z</time></trkpt><trkpt lat="40.7462353" lon="9.1459216"><ele>185.0</ele><time>2026-04-21T07:12:11.071Z</time></trkpt><trkpt lat="40.7460256" lon="9.1459389"><ele>183.66666666666666</ele><time>2026-04-21T07:12:12.07Z</time></trkpt><trkpt lat="40.7458255" lon="9.1459739"><ele>182.33333333333334</ele><time>2026-04-21T07:12:13.071Z</time></trkpt><trkpt lat="40.7456315" lon="9.1460383"><ele>181.0</ele><time>2026-04-21T07:12:14.06Z</time></trkpt><trkpt lat="40.7454354" lon="9.1461259"><ele>181.0</ele><time>2026-04-21T07:12:15.057Z</time></trkpt><trkpt lat="40.7452403" lon="9.1462194"><ele>181.0</ele><time>2026-04-21T07:12:16.056Z</time></trkpt><trkpt lat="40.7450421" lon="9.1463018"><ele>181.0</ele><time>2026-04-21T07:12:17.056Z</time></trkpt><trkpt lat="40.7448424" lon="9.1463487"><ele>180.0</ele><time>2026-04-21T07:12:18.063Z</time></trkpt><trkpt lat="40.7446381" lon="9.1463657"><ele>179.0</ele><time>2026-04-21T07:12:19.056Z</time></trkpt><trkpt lat="40.7444363" lon="9.1463503"><ele>178.0</ele><time>2026-04-21T07:12:20.047Z</time></trkpt><trkpt lat="40.7442395" lon="9.1463043"><ele>177.66666666666669</ele><time>2026-04-21T07:12:21.045Z</time></trkpt><trkpt lat="40.7440317" lon="9.1462519"><ele>177.33333333333334</ele><time>2026-04-21T07:12:22.052Z</time></trkpt><trkpt lat="40.7438251" lon="9.1461951"><ele>177.0</ele><time>2026-04-21T07:12:23.059Z</time></trkpt><trkpt lat="40.7436316" lon="9.1461336"><ele>177.33333333333334</ele><time>2026-04-21T07:12:24.073Z</time></trkpt><trkpt lat="40.7434505" lon="9.146075"><ele>177.66666666666669</ele><time>2026-04-21T07:12:25.07Z</time></trkpt><trkpt lat="40.7432875" lon="9.1460222"><ele>178.0</ele><time>2026-04-21T07:12:26.07Z</time></trkpt><trkpt lat="40.7431416" lon="9.1459818"><ele>178.0</ele><time>2026-04-21T07:12:27.068Z</time></trkpt><trkpt lat="40.7430057" lon="9.145937"><ele>178.0</ele><time>2026-04-21T07:12:28.065Z</time></trkpt><trkpt lat="40.742877" lon="9.1458611"><ele>178.0</ele><time>2026-04-21T07:12:28.975Z</time></trkpt><trkpt lat="40.7427507" lon="9.1457198"><ele>178.0</ele><time>2026-04-21T07:12:29.979Z</time></trkpt><trkpt lat="40.7426427" lon="9.1455316"><ele>178.0</ele><time>2026-04-21T07:12:30.976Z</time></trkpt><trkpt lat="40.7425452" lon="9.1453601"><ele>178.0</ele><time>2026-04-21T07:12:31.977Z</time></trkpt><trkpt lat="40.7424549" lon="9.1451652"><ele>178.0</ele><time>2026-04-21T07:12:32.983Z</time></trkpt><trkpt lat="40.7423785" lon="9.1449721"><ele>182.33333333333334</ele><time>2026-04-21T07:12:33.985Z</time></trkpt><trkpt lat="40.7422907" lon="9.1447877"><ele>186.66666666666666</ele><time>2026-04-21T07:12:34.985Z</time></trkpt><trkpt lat="40.7421616" lon="9.1446185"><ele>191.0</ele><time>2026-04-21T07:12:35.976Z</time></trkpt><trkpt lat="40.7420239" lon="9.1444756"><ele>190.0</ele><time>2026-04-21T07:12:36.976Z</time></trkpt><trkpt lat="40.7418502" lon="9.1443164"><ele>189.0</ele><time>2026-04-21T07:12:37.981Z</time></trkpt><trkpt lat="40.7416847" lon="9.1441856"><ele>188.0</ele><time>2026-04-21T07:12:38.98Z</time></trkpt><trkpt lat="40.7415131" lon="9.1440445"><ele>191.0</ele><time>2026-04-21T07:12:39.983Z</time></trkpt><trkpt lat="40.7413165" lon="9.1439236"><ele>194.0</ele><time>2026-04-21T07:12:40.977Z</time></trkpt><trkpt lat="40.7411105" lon="9.1438442"><ele>197.0</ele><time>2026-04-21T07:12:41.982Z</time></trkpt><trkpt lat="40.7409133" lon="9.1437384"><ele>197.0</ele><time>2026-04-21T07:12:42.984Z</time></trkpt><trkpt lat="40.7407377" lon="9.1436468"><ele>197.0</ele><time>2026-04-21T07:12:43.986Z</time></trkpt><trkpt lat="40.7405603" lon="9.1435412"><ele>197.0</ele><time>2026-04-21T07:12:44.989Z</time></trkpt><trkpt lat="40.7403826" lon="9.143422"><ele>197.0</ele><time>2026-04-21T07:12:45.983Z</time></trkpt><trkpt lat="40.7402363" lon="9.1432589"><ele>197.0</ele><time>2026-04-21T07:12:46.992Z</time></trkpt><trkpt lat="40.7400981" lon="9.1431083"><ele>197.0</ele><time>2026-04-21T07:12:47.983Z</time></trkpt><trkpt lat="40.7399985" lon="9.1429236"><ele>196.66666666666669</ele><time>2026-04-21T07:12:48.989Z</time></trkpt><trkpt lat="40.7399" lon="9.1427037"><ele>196.33333333333331</ele><time>2026-04-21T07:12:49.988Z</time></trkpt><trkpt lat="40.7398395" lon="9.1425153"><ele>196.0</ele><time>2026-04-21T07:12:50.98Z</time></trkpt><trkpt lat="40.7397998" lon="9.1423189"><ele>196.0</ele><time>2026-04-21T07:12:51.984Z</time></trkpt><trkpt lat="40.7397509" lon="9.1421438"><ele>196.0</ele><time>2026-04-21T07:12:52.972Z</time></trkpt><trkpt lat="40.7396459" lon="9.1420088"><ele>196.0</ele><time>2026-04-21T07:12:53.967Z</time></trkpt><trkpt lat="40.7395143" lon="9.1418764"><ele>193.0</ele><time>2026-04-21T07:12:54.984Z</time></trkpt><trkpt lat="40.7393625" lon="9.1417693"><ele>190.0</ele><time>2026-04-21T07:12:55.975Z</time></trkpt><trkpt lat="40.7391983" lon="9.1417027"><ele>187.0</ele><time>2026-04-21T07:12:56.984Z</time></trkpt><trkpt lat="40.739013" lon="9.141655"><ele>187.0</ele><time>2026-04-21T07:12:57.982Z</time></trkpt><trkpt lat="40.7388333" lon="9.1415636"><ele>187.0</ele><time>2026-04-21T07:12:58.974Z</time></trkpt><trkpt lat="40.7386365" lon="9.1414239"><ele>187.0</ele><time>2026-04-21T07:12:59.976Z</time></trkpt><trkpt lat="40.7384347" lon="9.1412869"><ele>189.0</ele><time>2026-04-21T07:13:00.983Z</time></trkpt><trkpt lat="40.7382555" lon="9.1411387"><ele>191.0</ele><time>2026-04-21T07:13:01.985Z</time></trkpt><trkpt lat="40.7380819" lon="9.1409855"><ele>193.0</ele><time>2026-04-21T07:13:02.984Z</time></trkpt><trkpt lat="40.7378996" lon="9.1408329"><ele>191.0</ele><time>2026-04-21T07:13:03.989Z</time></trkpt><trkpt lat="40.7377224" lon="9.1406771"><ele>189.0</ele><time>2026-04-21T07:13:04.988Z</time></trkpt><trkpt lat="40.737541" lon="9.1405347"><ele>187.0</ele><time>2026-04-21T07:13:05.985Z</time></trkpt><trkpt lat="40.7373554" lon="9.1403857"><ele>187.0</ele><time>2026-04-21T07:13:06.987Z</time></trkpt><trkpt lat="40.737163" lon="9.1402422"><ele>187.0</ele><time>2026-04-21T07:13:07.992Z</time></trkpt><trkpt lat="40.7369755" lon="9.1400865"><ele>187.0</ele><time>2026-04-21T07:13:08.991Z</time></trkpt><trkpt lat="40.73679" lon="9.139936"><ele>187.66666666666669</ele><time>2026-04-21T07:13:09.991Z</time></trkpt><trkpt lat="40.736604" lon="9.1397905"><ele>188.33333333333334</ele><time>2026-04-21T07:13:10.992Z</time></trkpt><trkpt lat="40.7364183" lon="9.1396415"><ele>189.0</ele><time>2026-04-21T07:13:11.992Z</time></trkpt><trkpt lat="40.7362262" lon="9.1395137"><ele>188.33333333333334</ele><time>2026-04-21T07:13:12.993Z</time></trkpt><trkpt lat="40.7360243" lon="9.1394007"><ele>187.66666666666669</ele><time>2026-04-21T07:13:13.994Z</time></trkpt><trkpt lat="40.7358238" lon="9.1392951"><ele>187.0</ele><time>2026-04-21T07:13:14.988Z</time></trkpt><trkpt lat="40.7356042" lon="9.1392115"><ele>187.0</ele><time>2026-04-21T07:13:15.988Z</time></trkpt><trkpt lat="40.7353912" lon="9.13914"><ele>187.0</ele><time>2026-04-21T07:13:16.989Z</time></trkpt><trkpt lat="40.7351687" lon="9.1390909"><ele>187.0</ele><time>2026-04-21T07:13:17.982Z</time></trkpt><trkpt lat="40.734942" lon="9.1390608"><ele>190.5</ele><time>2026-04-21T07:13:18.984Z</time></trkpt><trkpt lat="40.7347175" lon="9.1390479"><ele>194.0</ele><time>2026-04-21T07:13:19.99Z</time></trkpt><trkpt lat="40.7344917" lon="9.1390347"><ele>194.0</ele><time>2026-04-21T07:13:21.001Z</time></trkpt><trkpt lat="40.7342636" lon="9.1390293"><ele>194.0</ele><time>2026-04-21T07:13:21.99Z</time></trkpt><trkpt lat="40.734035" lon="9.1390141"><ele>194.0</ele><time>2026-04-21T07:13:22.992Z</time></trkpt><trkpt lat="40.733815" lon="9.1389905"><ele>194.0</ele><time>2026-04-21T07:13:23.99Z</time></trkpt><trkpt lat="40.7335946" lon="9.1389674"><ele>194.0</ele><time>2026-04-21T07:13:24.987Z</time></trkpt><trkpt lat="40.7333856" lon="9.1389595"><ele>194.66666666666669</ele><time>2026-04-21T07:13:25.991Z</time></trkpt><trkpt lat="40.7331939" lon="9.1389492"><ele>195.33333333333331</ele><time>2026-04-21T07:13:26.991Z</time></trkpt><trkpt lat="40.733007" lon="9.1389488"><ele>196.0</ele><time>2026-04-21T07:13:27.989Z</time></trkpt><trkpt lat="40.7328267" lon="9.1389205"><ele>194.33333333333331</ele><time>2026-04-21T07:13:28.99Z</time></trkpt><trkpt lat="40.7326577" lon="9.1388556"><ele>192.66666666666666</ele><time>2026-04-21T07:13:29.976Z</time></trkpt><trkpt lat="40.7324858" lon="9.1387716"><ele>191.0</ele><time>2026-04-21T07:13:30.982Z</time></trkpt><trkpt lat="40.7323285" lon="9.1386435"><ele>191.0</ele><time>2026-04-21T07:13:31.981Z</time></trkpt><trkpt lat="40.7322013" lon="9.1385037"><ele>191.0</ele><time>2026-04-21T07:13:32.99Z</time></trkpt><trkpt lat="40.7320839" lon="9.1382932"><ele>191.0</ele><time>2026-04-21T07:13:33.987Z</time></trkpt><trkpt lat="40.7319925" lon="9.1380624"><ele>190.33333333333331</ele><time>2026-04-21T07:13:34.98Z</time></trkpt><trkpt lat="40.731899" lon="9.1378141"><ele>189.66666666666666</ele><time>2026-04-21T07:13:35.981Z</time></trkpt><trkpt lat="40.7318247" lon="9.1375756"><ele>189.0</ele><time>2026-04-21T07:13:36.98Z</time></trkpt><trkpt lat="40.7317306" lon="9.1373682"><ele>190.33333333333331</ele><time>2026-04-21T07:13:37.977Z</time></trkpt><trkpt lat="40.7316236" lon="9.1372152"><ele>191.66666666666666</ele><time>2026-04-21T07:13:38.971Z</time></trkpt><trkpt lat="40.7315009" lon="9.1370692"><ele>193.0</ele><time>2026-04-21T07:13:39.978Z</time></trkpt><trkpt lat="40.7313901" lon="9.1368885"><ele>193.0</ele><time>2026-04-21T07:13:40.984Z</time></trkpt><trkpt lat="40.7313257" lon="9.1366934"><ele>193.0</ele><time>2026-04-21T07:13:41.984Z</time></trkpt><trkpt lat="40.7313136" lon="9.1364838"><ele>193.0</ele><time>2026-04-21T07:13:42.972Z</time></trkpt><trkpt lat="40.731332" lon="9.136254"><ele>193.33333333333331</ele><time>2026-04-21T07:13:43.975Z</time></trkpt><trkpt lat="40.7313105" lon="9.1360112"><ele>193.66666666666669</ele><time>2026-04-21T07:13:44.977Z</time></trkpt><trkpt lat="40.7312703" lon="9.1357748"><ele>194.0</ele><time>2026-04-21T07:13:45.973Z</time></trkpt><trkpt lat="40.7312009" lon="9.1355196"><ele>194.0</ele><time>2026-04-21T07:13:46.979Z</time></trkpt><trkpt lat="40.7311171" lon="9.1352873"><ele>194.0</ele><time>2026-04-21T07:13:47.983Z</time></trkpt><trkpt lat="40.7310402" lon="9.1350554"><ele>194.0</ele><time>2026-04-21T07:13:48.98Z</time></trkpt><trkpt lat="40.7309853" lon="9.1347871"><ele>192.0</ele><time>2026-04-21T07:13:49.974Z</time></trkpt><trkpt lat="40.7309412" lon="9.1344998"><ele>190.0</ele><time>2026-04-21T07:13:50.972Z</time></trkpt><trkpt lat="40.7309022" lon="9.1342094"><ele>188.0</ele><time>2026-04-21T07:13:51.976Z</time></trkpt><trkpt lat="40.7308898" lon="9.1339268"><ele>188.0</ele><time>2026-04-21T07:13:52.99Z</time></trkpt><trkpt lat="40.730872" lon="9.1336432"><ele>188.0</ele><time>2026-04-21T07:13:53.982Z</time></trkpt><trkpt lat="40.7308548" lon="9.1333561"><ele>188.0</ele><time>2026-04-21T07:13:54.99Z</time></trkpt><trkpt lat="40.7308279" lon="9.1330706"><ele>189.0</ele><time>2026-04-21T07:13:55.986Z</time></trkpt><trkpt lat="40.7307988" lon="9.1327858"><ele>190.0</ele><time>2026-04-21T07:13:56.989Z</time></trkpt><trkpt lat="40.7307686" lon="9.1324969"><ele>191.0</ele><time>2026-04-21T07:13:57.99Z</time></trkpt><trkpt lat="40.7307581" lon="9.1322135"><ele>192.33333333333331</ele><time>2026-04-21T07:13:58.987Z</time></trkpt><trkpt lat="40.7307505" lon="9.131932"><ele>193.66666666666666</ele><time>2026-04-21T07:13:59.99Z</time></trkpt><trkpt lat="40.7307267" lon="9.1316486"><ele>195.0</ele><time>2026-04-21T07:14:00.979Z</time></trkpt><trkpt lat="40.7306877" lon="9.1313678"><ele>196.33333333333331</ele><time>2026-04-21T07:14:01.982Z</time></trkpt><trkpt lat="40.7306522" lon="9.1310823"><ele>197.66666666666666</ele><time>2026-04-21T07:14:02.98Z</time></trkpt><trkpt lat="40.7306108" lon="9.1307973"><ele>199.0</ele><time>2026-04-21T07:14:03.979Z</time></trkpt><trkpt lat="40.7305755" lon="9.1305315"><ele>199.66666666666666</ele><time>2026-04-21T07:14:04.977Z</time></trkpt><trkpt lat="40.7305668" lon="9.1303007"><ele>200.33333333333331</ele><time>2026-04-21T07:14:05.974Z</time></trkpt><trkpt lat="40.7305555" lon="9.1300775"><ele>201.0</ele><time>2026-04-21T07:14:06.966Z</time></trkpt><trkpt lat="40.7305388" lon="9.1298732"><ele>201.25</ele><time>2026-04-21T07:14:07.968Z</time></trkpt><trkpt lat="40.7305486" lon="9.1296688"><ele>201.5</ele><time>2026-04-21T07:14:08.963Z</time></trkpt><trkpt lat="40.7305543" lon="9.1294692"><ele>201.75</ele><time>2026-04-21T07:14:09.966Z</time></trkpt><trkpt lat="40.7305723" lon="9.1292995"><ele>202.0</ele><time>2026-04-21T07:14:10.96Z</time></trkpt><trkpt lat="40.7305792" lon="9.1291369"><ele>201.75</ele><time>2026-04-21T07:14:11.958Z</time></trkpt><trkpt lat="40.7305412" lon="9.1289791"><ele>201.5</ele><time>2026-04-21T07:14:12.96Z</time></trkpt><trkpt lat="40.7304534" lon="9.1288333"><ele>201.25</ele><time>2026-04-21T07:14:13.966Z</time></trkpt><trkpt lat="40.7303147" lon="9.1287125"><ele>201.0</ele><time>2026-04-21T07:14:14.967Z</time></trkpt><trkpt lat="40.7301707" lon="9.1285998"><ele>201.0</ele><time>2026-04-21T07:14:15.959Z</time></trkpt><trkpt lat="40.7300236" lon="9.1285066"><ele>201.0</ele><time>2026-04-21T07:14:16.971Z</time></trkpt><trkpt lat="40.7298938" lon="9.1284319"><ele>201.0</ele><time>2026-04-21T07:14:17.967Z</time></trkpt><trkpt lat="40.7297312" lon="9.1283668"><ele>201.0</ele><time>2026-04-21T07:14:18.966Z</time></trkpt><trkpt lat="40.729577" lon="9.128311"><ele>201.0</ele><time>2026-04-21T07:14:19.994Z</time></trkpt><trkpt lat="40.7294106" lon="9.1282388"><ele>201.0</ele><time>2026-04-21T07:14:21.052Z</time></trkpt><trkpt lat="40.7292415" lon="9.1281686"><ele>199.66666666666669</ele><time>2026-04-21T07:14:22.062Z</time></trkpt><trkpt lat="40.7290761" lon="9.1281039"><ele>198.33333333333334</ele><time>2026-04-21T07:14:23.063Z</time></trkpt><trkpt lat="40.7289101" lon="9.1280457"><ele>197.0</ele><time>2026-04-21T07:14:24.065Z</time></trkpt><trkpt lat="40.7287216" lon="9.1280111"><ele>196.66666666666669</ele><time>2026-04-21T07:14:25.059Z</time></trkpt><trkpt lat="40.7285361" lon="9.1280023"><ele>196.33333333333331</ele><time>2026-04-21T07:14:26.072Z</time></trkpt><trkpt lat="40.7283477" lon="9.1279991"><ele>196.0</ele><time>2026-04-21T07:14:27.053Z</time></trkpt><trkpt lat="40.7281598" lon="9.1279947"><ele>196.0</ele><time>2026-04-21T07:14:28.059Z</time></trkpt><trkpt lat="40.727977" lon="9.1279965"><ele>196.0</ele><time>2026-04-21T07:14:29.06Z</time></trkpt><trkpt lat="40.7278068" lon="9.1279968"><ele>196.0</ele><time>2026-04-21T07:14:30.054Z</time></trkpt><trkpt lat="40.7276431" lon="9.1279753"><ele>197.0</ele><time>2026-04-21T07:14:31.073Z</time></trkpt><trkpt lat="40.7274782" lon="9.1279373"><ele>198.0</ele><time>2026-04-21T07:14:32.07Z</time></trkpt><trkpt lat="40.7273202" lon="9.1278655"><ele>199.0</ele><time>2026-04-21T07:14:33.063Z</time></trkpt><trkpt lat="40.7271703" lon="9.1277649"><ele>199.0</ele><time>2026-04-21T07:14:34.058Z</time></trkpt><trkpt lat="40.7270359" lon="9.127622"><ele>199.0</ele><time>2026-04-21T07:14:35.059Z</time></trkpt><trkpt lat="40.7269095" lon="9.1274558"><ele>199.0</ele><time>2026-04-21T07:14:36.046Z</time></trkpt><trkpt lat="40.7267813" lon="9.1272753"><ele>198.66666666666666</ele><time>2026-04-21T07:14:37.053Z</time></trkpt><trkpt lat="40.7266523" lon="9.1270934"><ele>198.33333333333331</ele><time>2026-04-21T07:14:38.073Z</time></trkpt><trkpt lat="40.7265254" lon="9.1269195"><ele>198.0</ele><time>2026-04-21T07:14:39.075Z</time></trkpt><trkpt lat="40.7264092" lon="9.1267591"><ele>198.0</ele><time>2026-04-21T07:14:40.075Z</time></trkpt><trkpt lat="40.7263003" lon="9.1266081"><ele>198.0</ele><time>2026-04-21T07:14:41.076Z</time></trkpt><trkpt lat="40.7262027" lon="9.1264729"><ele>198.0</ele><time>2026-04-21T07:14:42.071Z</time></trkpt><trkpt lat="40.726115" lon="9.1263499"><ele>198.0</ele><time>2026-04-21T07:14:43.079Z</time></trkpt><trkpt lat="40.7260393" lon="9.1262434"><ele>198.33333333333334</ele><time>2026-04-21T07:14:44.077Z</time></trkpt><trkpt lat="40.7259777" lon="9.1261524"><ele>198.66666666666669</ele><time>2026-04-21T07:14:45.075Z</time></trkpt><trkpt lat="40.7259309" lon="9.1260821"><ele>199.0</ele><time>2026-04-21T07:14:46.075Z</time></trkpt><trkpt lat="40.7258634" lon="9.1259928"><ele>199.33333333333334</ele><time>2026-04-21T07:14:48.071Z</time></trkpt><trkpt lat="40.7257838" lon="9.1260057"><ele>199.66666666666669</ele><time>2026-04-21T07:14:50.996Z</time></trkpt><trkpt lat="40.7257682" lon="9.1261153"><ele>200.0</ele><time>2026-04-21T07:14:52.998Z</time></trkpt><trkpt lat="40.7257609" lon="9.1262018"><ele>200.0</ele><time>2026-04-21T07:14:54.994Z</time></trkpt><trkpt lat="40.7257864" lon="9.1263114"><ele>200.0</ele><time>2026-04-21T07:14:57.989Z</time></trkpt><trkpt lat="40.7258431" lon="9.1264644"><ele>200.0</ele><time>2026-04-21T07:15:10.98Z</time></trkpt><trkpt lat="40.725878" lon="9.1265607"><ele>200.0</ele><time>2026-04-21T07:15:11.978Z</time></trkpt><trkpt lat="40.7259267" lon="9.1266805"><ele>200.0</ele><time>2026-04-21T07:15:12.979Z</time></trkpt><trkpt lat="40.7259735" lon="9.1268048"><ele>200.4</ele><time>2026-04-21T07:15:13.986Z</time></trkpt><trkpt lat="40.7260184" lon="9.1269372"><ele>200.8</ele><time>2026-04-21T07:15:14.979Z</time></trkpt><trkpt lat="40.7260542" lon="9.1270607"><ele>201.2</ele><time>2026-04-21T07:15:15.978Z</time></trkpt><trkpt lat="40.7261006" lon="9.1272021"><ele>201.6</ele><time>2026-04-21T07:15:16.983Z</time></trkpt><trkpt lat="40.7261429" lon="9.127348"><ele>202.0</ele><time>2026-04-21T07:15:17.979Z</time></trkpt><trkpt lat="40.7261712" lon="9.1274934"><ele>200.8</ele><time>2026-04-21T07:15:18.982Z</time></trkpt><trkpt lat="40.7262015" lon="9.1276244"><ele>199.6</ele><time>2026-04-21T07:15:19.981Z</time></trkpt><trkpt lat="40.7262544" lon="9.1277395"><ele>198.4</ele><time>2026-04-21T07:15:20.976Z</time></trkpt><trkpt lat="40.7263146" lon="9.1278326"><ele>197.20000000000002</ele><time>2026-04-21T07:15:21.97Z</time></trkpt><trkpt lat="40.7263829" lon="9.1279096"><ele>196.0</ele><time>2026-04-21T07:15:22.973Z</time></trkpt><trkpt lat="40.7264332" lon="9.1279905"><ele>196.0</ele><time>2026-04-21T07:15:23.971Z</time></trkpt><trkpt lat="40.7264651" lon="9.1280985"><ele>196.0</ele><time>2026-04-21T07:15:24.98Z</time></trkpt><trkpt lat="40.7264584" lon="9.1282112"><ele>196.0</ele><time>2026-04-21T07:15:25.967Z</time></trkpt><trkpt lat="40.7264109" lon="9.1283237"><ele>196.0</ele><time>2026-04-21T07:15:26.974Z</time></trkpt><trkpt lat="40.7263428" lon="9.1284231"><ele>196.0</ele><time>2026-04-21T07:15:27.976Z</time></trkpt><trkpt lat="40.7262613" lon="9.1285055"><ele>195.20000000000002</ele><time>2026-04-21T07:15:28.968Z</time></trkpt><trkpt lat="40.7261668" lon="9.1285586"><ele>194.4</ele><time>2026-04-21T07:15:29.977Z</time></trkpt><trkpt lat="40.72607" lon="9.1285738"><ele>193.6</ele><time>2026-04-21T07:15:30.967Z</time></trkpt><trkpt lat="40.7259779" lon="9.1285848"><ele>192.8</ele><time>2026-04-21T07:15:31.972Z</time></trkpt><trkpt lat="40.7259009" lon="9.1286103"><ele>192.0</ele><time>2026-04-21T07:15:32.972Z</time></trkpt><trkpt lat="40.7258229" lon="9.1286464"><ele>192.16666666666666</ele><time>2026-04-21T07:15:33.977Z</time></trkpt><trkpt lat="40.7257575" lon="9.1287031"><ele>192.33333333333331</ele><time>2026-04-21T07:15:34.97Z</time></trkpt><trkpt lat="40.7257046" lon="9.1287872"><ele>192.5</ele><time>2026-04-21T07:15:35.973Z</time></trkpt><trkpt lat="40.7256677" lon="9.1288876"><ele>192.66666666666666</ele><time>2026-04-21T07:15:36.972Z</time></trkpt><trkpt lat="40.7256646" lon="9.129001"><ele>192.83333333333331</ele><time>2026-04-21T07:15:37.967Z</time></trkpt><trkpt lat="40.7256934" lon="9.1291118"><ele>193.0</ele><time>2026-04-21T07:15:38.968Z</time></trkpt><trkpt lat="40.7257466" lon="9.1292178"><ele>193.0</ele><time>2026-04-21T07:15:39.972Z</time></trkpt><trkpt lat="40.7257929" lon="9.1293243"><ele>193.0</ele><time>2026-04-21T07:15:40.972Z</time></trkpt><trkpt lat="40.7258647" lon="9.1294487"><ele>193.0</ele><time>2026-04-21T07:15:41.978Z</time></trkpt><trkpt lat="40.7259387" lon="9.1295876"><ele>193.0</ele><time>2026-04-21T07:15:42.976Z</time></trkpt><trkpt lat="40.7260081" lon="9.1297247"><ele>193.25</ele><time>2026-04-21T07:15:43.983Z</time></trkpt><trkpt lat="40.7260653" lon="9.1298751"><ele>193.5</ele><time>2026-04-21T07:15:44.98Z</time></trkpt><trkpt lat="40.7261259" lon="9.1300251"><ele>193.75</ele><time>2026-04-21T07:15:45.983Z</time></trkpt><trkpt lat="40.7261875" lon="9.1301703"><ele>194.0</ele><time>2026-04-21T07:15:46.985Z</time></trkpt><trkpt lat="40.7262412" lon="9.1303294"><ele>195.5</ele><time>2026-04-21T07:15:47.986Z</time></trkpt><trkpt lat="40.7262917" lon="9.1304761"><ele>197.0</ele><time>2026-04-21T07:15:48.981Z</time></trkpt><trkpt lat="40.7263446" lon="9.1306085"><ele>198.5</ele><time>2026-04-21T07:15:49.973Z</time></trkpt><trkpt lat="40.7264205" lon="9.1307197"><ele>200.0</ele><time>2026-04-21T07:15:50.971Z</time></trkpt><trkpt lat="40.726519" lon="9.1308169"><ele>201.33333333333334</ele><time>2026-04-21T07:15:51.969Z</time></trkpt><trkpt lat="40.7266404" lon="9.1309105"><ele>202.66666666666669</ele><time>2026-04-21T07:15:52.978Z</time></trkpt><trkpt lat="40.7267697" lon="9.1310258"><ele>204.0</ele><time>2026-04-21T07:15:53.981Z</time></trkpt><trkpt lat="40.726907" lon="9.1311377"><ele>205.25</ele><time>2026-04-21T07:15:54.981Z</time></trkpt><trkpt lat="40.7270415" lon="9.1312444"><ele>206.5</ele><time>2026-04-21T07:15:55.983Z</time></trkpt><trkpt lat="40.7271741" lon="9.1313438"><ele>207.75</ele><time>2026-04-21T07:15:56.983Z</time></trkpt><trkpt lat="40.7272863" lon="9.1314367"><ele>209.0</ele><time>2026-04-21T07:15:57.982Z</time></trkpt><trkpt lat="40.7274038" lon="9.1315111"><ele>209.0</ele><time>2026-04-21T07:15:58.975Z</time></trkpt><trkpt lat="40.7275116" lon="9.1315353"><ele>209.0</ele><time>2026-04-21T07:15:59.974Z</time></trkpt><trkpt lat="40.7276211" lon="9.1315651"><ele>209.0</ele><time>2026-04-21T07:16:00.981Z</time></trkpt><trkpt lat="40.7277543" lon="9.131579"><ele>209.0</ele><time>2026-04-21T07:16:01.976Z</time></trkpt><trkpt lat="40.7278783" lon="9.1315814"><ele>208.2</ele><time>2026-04-21T07:16:02.98Z</time></trkpt><trkpt lat="40.7279911" lon="9.1315893"><ele>207.39999999999998</ele><time>2026-04-21T07:16:03.977Z</time></trkpt><trkpt lat="40.7280936" lon="9.1316014"><ele>206.6</ele><time>2026-04-21T07:16:04.981Z</time></trkpt><trkpt lat="40.7281872" lon="9.1316201"><ele>205.8</ele><time>2026-04-21T07:16:05.978Z</time></trkpt><trkpt lat="40.7282686" lon="9.1316489"><ele>205.0</ele><time>2026-04-21T07:16:06.972Z</time></trkpt><trkpt lat="40.7283367" lon="9.1316997"><ele>205.0</ele><time>2026-04-21T07:16:07.977Z</time></trkpt><trkpt lat="40.7283935" lon="9.1317838"><ele>205.0</ele><time>2026-04-21T07:16:08.97Z</time></trkpt><trkpt lat="40.7284384" lon="9.1319046"><ele>205.0</ele><time>2026-04-21T07:16:09.979Z</time></trkpt><trkpt lat="40.7284521" lon="9.1320535"><ele>205.0</ele><time>2026-04-21T07:16:10.972Z</time></trkpt><trkpt lat="40.7284606" lon="9.1322371"><ele>205.0</ele><time>2026-04-21T07:16:11.976Z</time></trkpt><trkpt lat="40.728489" lon="9.132428"><ele>204.33333333333331</ele><time>2026-04-21T07:16:12.977Z</time></trkpt><trkpt lat="40.7285416" lon="9.1326304"><ele>203.66666666666669</ele><time>2026-04-21T07:16:13.973Z</time></trkpt><trkpt lat="40.7286034" lon="9.1328233"><ele>203.0</ele><time>2026-04-21T07:16:14.975Z</time></trkpt><trkpt lat="40.7286866" lon="9.133011"><ele>202.5</ele><time>2026-04-21T07:16:15.976Z</time></trkpt><trkpt lat="40.7287713" lon="9.1331762"><ele>202.0</ele><time>2026-04-21T07:16:16.981Z</time></trkpt><trkpt lat="40.7288527" lon="9.1333113"><ele>201.5</ele><time>2026-04-21T07:16:17.979Z</time></trkpt><trkpt lat="40.7289279" lon="9.133448"><ele>201.0</ele><time>2026-04-21T07:16:18.971Z</time></trkpt><trkpt lat="40.7289839" lon="9.1336107"><ele>201.0</ele><time>2026-04-21T07:16:19.976Z</time></trkpt><trkpt lat="40.7290482" lon="9.1337733"><ele>201.0</ele><time>2026-04-21T07:16:20.98Z</time></trkpt><trkpt lat="40.729113" lon="9.1339418"><ele>201.0</ele><time>2026-04-21T07:16:21.982Z</time></trkpt><trkpt lat="40.7291815" lon="9.1341023"><ele>201.0</ele><time>2026-04-21T07:16:22.974Z</time></trkpt><trkpt lat="40.7292522" lon="9.1342478"><ele>201.75</ele><time>2026-04-21T07:16:23.974Z</time></trkpt><trkpt lat="40.7293269" lon="9.1343924"><ele>202.5</ele><time>2026-04-21T07:16:24.979Z</time></trkpt><trkpt lat="40.7293592" lon="9.1345377"><ele>203.25</ele><time>2026-04-21T07:16:25.986Z</time></trkpt><trkpt lat="40.7293874" lon="9.1347187"><ele>204.0</ele><time>2026-04-21T07:16:26.98Z</time></trkpt><trkpt lat="40.729417" lon="9.1349106"><ele>200.75</ele><time>2026-04-21T07:16:27.989Z</time></trkpt><trkpt lat="40.7294187" lon="9.1351048"><ele>197.5</ele><time>2026-04-21T07:16:28.988Z</time></trkpt><trkpt lat="40.7294343" lon="9.1352891"><ele>194.25</ele><time>2026-04-21T07:16:29.994Z</time></trkpt><trkpt lat="40.7294516" lon="9.1354685"><ele>191.0</ele><time>2026-04-21T07:16:30.991Z</time></trkpt><trkpt lat="40.7294407" lon="9.1356367"><ele>191.75</ele><time>2026-04-21T07:16:31.984Z</time></trkpt><trkpt lat="40.7294325" lon="9.1358106"><ele>192.5</ele><time>2026-04-21T07:16:32.985Z</time></trkpt><trkpt lat="40.729417" lon="9.1360057"><ele>193.25</ele><time>2026-04-21T07:16:33.987Z</time></trkpt><trkpt lat="40.7294149" lon="9.1361761"><ele>194.0</ele><time>2026-04-21T07:16:34.979Z</time></trkpt><trkpt lat="40.7294299" lon="9.1363361"><ele>194.0</ele><time>2026-04-21T07:16:35.981Z</time></trkpt><trkpt lat="40.7294303" lon="9.1365015"><ele>194.0</ele><time>2026-04-21T07:16:36.973Z</time></trkpt><trkpt lat="40.7294326" lon="9.1366679"><ele>194.0</ele><time>2026-04-21T07:16:37.975Z</time></trkpt><trkpt lat="40.7294382" lon="9.1368466"><ele>194.0</ele><time>2026-04-21T07:16:38.975Z</time></trkpt><trkpt lat="40.7294649" lon="9.1370162"><ele>195.0</ele><time>2026-04-21T07:16:39.969Z</time></trkpt><trkpt lat="40.7295156" lon="9.1371785"><ele>196.0</ele><time>2026-04-21T07:16:40.971Z</time></trkpt><trkpt lat="40.7295857" lon="9.1373519"><ele>197.0</ele><time>2026-04-21T07:16:41.969Z</time></trkpt><trkpt lat="40.7296672" lon="9.1375084"><ele>198.0</ele><time>2026-04-21T07:16:42.964Z</time></trkpt><trkpt lat="40.7297584" lon="9.1376505"><ele>199.0</ele><time>2026-04-21T07:16:43.963Z</time></trkpt><trkpt lat="40.7298485" lon="9.1378112"><ele>200.0</ele><time>2026-04-21T07:16:44.963Z</time></trkpt><trkpt lat="40.7299383" lon="9.1379833"><ele>201.0</ele><time>2026-04-21T07:16:45.971Z</time></trkpt><trkpt lat="40.7300261" lon="9.1381388"><ele>201.75</ele><time>2026-04-21T07:16:46.973Z</time></trkpt><trkpt lat="40.7301052" lon="9.1382802"><ele>202.5</ele><time>2026-04-21T07:16:47.974Z</time></trkpt><trkpt lat="40.7301829" lon="9.1384372"><ele>203.25</ele><time>2026-04-21T07:16:48.973Z</time></trkpt><trkpt lat="40.7302565" lon="9.1386008"><ele>204.0</ele><time>2026-04-21T07:16:49.976Z</time></trkpt><trkpt lat="40.7303404" lon="9.1387701"><ele>203.25</ele><time>2026-04-21T07:16:50.978Z</time></trkpt><trkpt lat="40.7304147" lon="9.1389372"><ele>202.5</ele><time>2026-04-21T07:16:51.977Z</time></trkpt><trkpt lat="40.7304868" lon="9.1391101"><ele>201.75</ele><time>2026-04-21T07:16:52.981Z</time></trkpt><trkpt lat="40.7305571" lon="9.1392765"><ele>201.0</ele><time>2026-04-21T07:16:53.981Z</time></trkpt><trkpt lat="40.7306381" lon="9.1394547"><ele>201.0</ele><time>2026-04-21T07:16:54.978Z</time></trkpt><trkpt lat="40.7307127" lon="9.1396083"><ele>201.0</ele><time>2026-04-21T07:16:55.983Z</time></trkpt><trkpt lat="40.730792" lon="9.1397462"><ele>201.0</ele><time>2026-04-21T07:16:56.98Z</time></trkpt><trkpt lat="40.7308525" lon="9.1399152"><ele>201.0</ele><time>2026-04-21T07:16:57.983Z</time></trkpt><trkpt lat="40.7309143" lon="9.140084"><ele>201.0</ele><time>2026-04-21T07:16:58.979Z</time></trkpt><trkpt lat="40.7309616" lon="9.1402689"><ele>201.0</ele><time>2026-04-21T07:16:59.979Z</time></trkpt><trkpt lat="40.7309861" lon="9.1404464"><ele>201.0</ele><time>2026-04-21T07:17:00.984Z</time></trkpt><trkpt lat="40.7310201" lon="9.1406181"><ele>201.0</ele><time>2026-04-21T07:17:01.981Z</time></trkpt><trkpt lat="40.7310371" lon="9.1407468"><ele>201.0</ele><time>2026-04-21T07:17:02.981Z</time></trkpt><trkpt lat="40.7310515" lon="9.1408529"><ele>201.0</ele><time>2026-04-21T07:17:03.972Z</time></trkpt><trkpt lat="40.7310702" lon="9.1409553"><ele>201.0</ele><time>2026-04-21T07:17:04.978Z</time></trkpt><trkpt lat="40.7310571" lon="9.1411045"><ele>201.0</ele><time>2026-04-21T07:17:06.975Z</time></trkpt><trkpt lat="40.7310153" lon="9.1411799"><ele>201.0</ele><time>2026-04-21T07:17:07.973Z</time></trkpt><trkpt lat="40.7309597" lon="9.1412338"><ele>201.0</ele><time>2026-04-21T07:17:09.961Z</time></trkpt><trkpt lat="40.7309038" lon="9.1412893"><ele>201.0</ele><time>2026-04-21T07:17:23.999Z</time></trkpt><trkpt lat="40.7307948" lon="9.1413655"><ele>201.0</ele><time>2026-04-21T07:17:25.99Z</time></trkpt><trkpt lat="40.7307211" lon="9.1413945"><ele>201.0</ele><time>2026-04-21T07:17:26.991Z</time></trkpt><trkpt lat="40.7306378" lon="9.1414249"><ele>201.0</ele><time>2026-04-21T07:17:27.993Z</time></trkpt><trkpt lat="40.7305471" lon="9.1414657"><ele>201.0</ele><time>2026-04-21T07:17:28.998Z</time></trkpt><trkpt lat="40.7304568" lon="9.1415113"><ele>201.0</ele><time>2026-04-21T07:17:30.07Z</time></trkpt><trkpt lat="40.7303696" lon="9.1415548"><ele>201.0</ele><time>2026-04-21T07:17:31.074Z</time></trkpt><trkpt lat="40.7302884" lon="9.1415976"><ele>201.0</ele><time>2026-04-21T07:17:32.07Z</time></trkpt><trkpt lat="40.730203" lon="9.1416408"><ele>201.0</ele><time>2026-04-21T07:17:33.075Z</time></trkpt><trkpt lat="40.7301153" lon="9.1416819"><ele>201.0</ele><time>2026-04-21T07:17:34.067Z</time></trkpt><trkpt lat="40.7300193" lon="9.1417206"><ele>200.5</ele><time>2026-04-21T07:17:35.059Z</time></trkpt><trkpt lat="40.7299111" lon="9.1417535"><ele>200.0</ele><time>2026-04-21T07:17:36.062Z</time></trkpt><trkpt lat="40.7297978" lon="9.1417797"><ele>199.5</ele><time>2026-04-21T07:17:37.066Z</time></trkpt><trkpt lat="40.729682" lon="9.1418083"><ele>199.0</ele><time>2026-04-21T07:17:38.066Z</time></trkpt><trkpt lat="40.7295629" lon="9.1418437"><ele>199.0</ele><time>2026-04-21T07:17:39.064Z</time></trkpt><trkpt lat="40.7294451" lon="9.1418843"><ele>199.0</ele><time>2026-04-21T07:17:40.063Z</time></trkpt><trkpt lat="40.7293171" lon="9.1419332"><ele>199.0</ele><time>2026-04-21T07:17:41.06Z</time></trkpt><trkpt lat="40.7292078" lon="9.1419818"><ele>199.0</ele><time>2026-04-21T07:17:42.06Z</time></trkpt><trkpt lat="40.7290992" lon="9.1420126"><ele>199.39999999999998</ele><time>2026-04-21T07:17:43.057Z</time></trkpt><trkpt lat="40.728991" lon="9.1420267"><ele>199.8</ele><time>2026-04-21T07:17:44.062Z</time></trkpt><trkpt lat="40.7288829" lon="9.1420181"><ele>200.2</ele><time>2026-04-21T07:17:45.045Z</time></trkpt><trkpt lat="40.7287714" lon="9.1419953"><ele>200.60000000000002</ele><time>2026-04-21T07:17:46.047Z</time></trkpt><trkpt lat="40.7286613" lon="9.1419626"><ele>201.0</ele><time>2026-04-21T07:17:47.051Z</time></trkpt><trkpt lat="40.7285539" lon="9.1419282"><ele>202.20000000000002</ele><time>2026-04-21T07:17:48.052Z</time></trkpt><trkpt lat="40.7284496" lon="9.1418924"><ele>203.4</ele><time>2026-04-21T07:17:49.068Z</time></trkpt><trkpt lat="40.7283501" lon="9.1418599"><ele>204.6</ele><time>2026-04-21T07:17:50.069Z</time></trkpt><trkpt lat="40.7282568" lon="9.1418366"><ele>205.8</ele><time>2026-04-21T07:17:51.069Z</time></trkpt><trkpt lat="40.7281642" lon="9.1418207"><ele>207.0</ele><time>2026-04-21T07:17:52.066Z</time></trkpt><trkpt lat="40.7280715" lon="9.1418272"><ele>207.0</ele><time>2026-04-21T07:17:53.058Z</time></trkpt><trkpt lat="40.7279854" lon="9.1418661"><ele>207.0</ele><time>2026-04-21T07:17:54.04Z</time></trkpt><trkpt lat="40.7279005" lon="9.1419291"><ele>207.0</ele><time>2026-04-21T07:17:55.043Z</time></trkpt><trkpt lat="40.7278176" lon="9.142006"><ele>207.0</ele><time>2026-04-21T07:17:56.041Z</time></trkpt><trkpt lat="40.7277508" lon="9.1420828"><ele>207.0</ele><time>2026-04-21T07:17:57.04Z</time></trkpt><trkpt lat="40.7276646" lon="9.142146"><ele>209.25</ele><time>2026-04-21T07:17:58.055Z</time></trkpt><trkpt lat="40.7275435" lon="9.1422475"><ele>211.5</ele><time>2026-04-21T07:18:00.044Z</time></trkpt><trkpt lat="40.7274471" lon="9.1422879"><ele>213.75</ele><time>2026-04-21T07:18:01.048Z</time></trkpt><trkpt lat="40.7273518" lon="9.1423363"><ele>216.0</ele><time>2026-04-21T07:18:02.032Z</time></trkpt><trkpt lat="40.727255" lon="9.1423917"><ele>216.0</ele><time>2026-04-21T07:18:03.03Z</time></trkpt><trkpt lat="40.7271668" lon="9.1424481"><ele>216.00000000000003</ele><time>2026-04-21T07:18:04.027Z</time></trkpt><trkpt lat="40.7270756" lon="9.1425147"><ele>216.00000000000003</ele><time>2026-04-21T07:18:05.033Z</time></trkpt><trkpt lat="40.7269843" lon="9.1425876"><ele>216.0</ele><time>2026-04-21T07:18:06.048Z</time></trkpt><trkpt lat="40.7269044" lon="9.1426657"><ele>216.0</ele><time>2026-04-21T07:18:07.056Z</time></trkpt><trkpt lat="40.726831" lon="9.1427371"><ele>217.60000000000002</ele><time>2026-04-21T07:18:08.044Z</time></trkpt><trkpt lat="40.7267478" lon="9.142794"><ele>219.20000000000002</ele><time>2026-04-21T07:18:09.042Z</time></trkpt><trkpt lat="40.7266672" lon="9.1428216"><ele>220.79999999999998</ele><time>2026-04-21T07:18:10.042Z</time></trkpt><trkpt lat="40.7265804" lon="9.1428408"><ele>222.39999999999998</ele><time>2026-04-21T07:18:11.04Z</time></trkpt><trkpt lat="40.7264893" lon="9.142847"><ele>224.0</ele><time>2026-04-21T07:18:12.048Z</time></trkpt><trkpt lat="40.7263847" lon="9.1428426"><ele>224.0</ele><time>2026-04-21T07:18:13.056Z</time></trkpt><trkpt lat="40.726279" lon="9.1428409"><ele>224.0</ele><time>2026-04-21T07:18:14.058Z</time></trkpt><trkpt lat="40.7261655" lon="9.1428486"><ele>224.0</ele><time>2026-04-21T07:18:15.056Z</time></trkpt><trkpt lat="40.7260435" lon="9.142862"><ele>224.0</ele><time>2026-04-21T07:18:16.057Z</time></trkpt><trkpt lat="40.7259166" lon="9.1428771"><ele>227.5</ele><time>2026-04-21T07:18:17.056Z</time></trkpt><trkpt lat="40.7257921" lon="9.1428935"><ele>231.0</ele><time>2026-04-21T07:18:18.059Z</time></trkpt><trkpt lat="40.725679" lon="9.1429157"><ele>234.5</ele><time>2026-04-21T07:18:19.05Z</time></trkpt><trkpt lat="40.7255594" lon="9.1429375"><ele>238.0</ele><time>2026-04-21T07:18:20.058Z</time></trkpt><trkpt lat="40.725449" lon="9.1429558"><ele>238.0</ele><time>2026-04-21T07:18:21.055Z</time></trkpt><trkpt lat="40.7253562" lon="9.1429723"><ele>238.0</ele><time>2026-04-21T07:18:22.054Z</time></trkpt><trkpt lat="40.72526" lon="9.143003"><ele>238.0</ele><time>2026-04-21T07:18:23.053Z</time></trkpt><trkpt lat="40.7251703" lon="9.1430428"><ele>238.0</ele><time>2026-04-21T07:18:24.05Z</time></trkpt><trkpt lat="40.7250786" lon="9.1430849"><ele>238.0</ele><time>2026-04-21T07:18:25.061Z</time></trkpt><trkpt lat="40.7249812" lon="9.1431169"><ele>239.75</ele><time>2026-04-21T07:18:26.037Z</time></trkpt><trkpt lat="40.7248794" lon="9.1431353"><ele>241.5</ele><time>2026-04-21T07:18:27.034Z</time></trkpt><trkpt lat="40.7247704" lon="9.143152"><ele>243.25</ele><time>2026-04-21T07:18:28.043Z</time></trkpt><trkpt lat="40.7246472" lon="9.1431739"><ele>245.0</ele><time>2026-04-21T07:18:29.046Z</time></trkpt><trkpt lat="40.7245275" lon="9.1432063"><ele>243.6</ele><time>2026-04-21T07:18:30.058Z</time></trkpt><trkpt lat="40.7244143" lon="9.1432481"><ele>242.2</ele><time>2026-04-21T07:18:31.067Z</time></trkpt><trkpt lat="40.7243105" lon="9.1432905"><ele>240.8</ele><time>2026-04-21T07:18:32.051Z</time></trkpt><trkpt lat="40.7242145" lon="9.1433202"><ele>239.4</ele><time>2026-04-21T07:18:33.049Z</time></trkpt><trkpt lat="40.7241171" lon="9.143331"><ele>238.0</ele><time>2026-04-21T07:18:34.049Z</time></trkpt><trkpt lat="40.7240071" lon="9.1433276"><ele>238.0</ele><time>2026-04-21T07:18:35.047Z</time></trkpt><trkpt lat="40.7238923" lon="9.1433061"><ele>238.0</ele><time>2026-04-21T07:18:36.068Z</time></trkpt><trkpt lat="40.7237768" lon="9.1432724"><ele>238.0</ele><time>2026-04-21T07:18:37.063Z</time></trkpt><trkpt lat="40.7236579" lon="9.1432408"><ele>238.0</ele><time>2026-04-21T07:18:38.046Z</time></trkpt><trkpt lat="40.7235512" lon="9.143209"><ele>238.8</ele><time>2026-04-21T07:18:39.05Z</time></trkpt><trkpt lat="40.723454" lon="9.1431806"><ele>239.60000000000002</ele><time>2026-04-21T07:18:40.051Z</time></trkpt><trkpt lat="40.7233589" lon="9.1431646"><ele>240.39999999999998</ele><time>2026-04-21T07:18:41.045Z</time></trkpt><trkpt lat="40.7232582" lon="9.1431638"><ele>241.2</ele><time>2026-04-21T07:18:42.065Z</time></trkpt><trkpt lat="40.7231526" lon="9.1431705"><ele>242.0</ele><time>2026-04-21T07:18:43.059Z</time></trkpt><trkpt lat="40.7230499" lon="9.1431849"><ele>242.0</ele><time>2026-04-21T07:18:44.051Z</time></trkpt><trkpt lat="40.7229505" lon="9.1432034"><ele>242.0</ele><time>2026-04-21T07:18:45.042Z</time></trkpt><trkpt lat="40.7228499" lon="9.1432304"><ele>242.0</ele><time>2026-04-21T07:18:46.043Z</time></trkpt><trkpt lat="40.722745" lon="9.1432693"><ele>242.0</ele><time>2026-04-21T07:18:47.047Z</time></trkpt><trkpt lat="40.7226496" lon="9.1433106"><ele>242.0</ele><time>2026-04-21T07:18:48.06Z</time></trkpt><trkpt lat="40.7225564" lon="9.1433458"><ele>241.00000000000003</ele><time>2026-04-21T07:18:49.06Z</time></trkpt><trkpt lat="40.7224779" lon="9.1433782"><ele>240.0</ele><time>2026-04-21T07:18:50.071Z</time></trkpt><trkpt lat="40.7224081" lon="9.1434107"><ele>239.0</ele><time>2026-04-21T07:18:51.064Z</time></trkpt><trkpt lat="40.7223371" lon="9.1434487"><ele>238.0</ele><time>2026-04-21T07:18:52.058Z</time></trkpt><trkpt lat="40.7222689" lon="9.1435208"><ele>237.00000000000003</ele><time>2026-04-21T07:18:53.063Z</time></trkpt><trkpt lat="40.7221986" lon="9.1436194"><ele>236.0</ele><time>2026-04-21T07:18:54.045Z</time></trkpt><trkpt lat="40.722143" lon="9.1437125"><ele>236.0</ele><time>2026-04-21T07:18:55.051Z</time></trkpt><trkpt lat="40.722107" lon="9.1438032"><ele>236.00000000000003</ele><time>2026-04-21T07:18:56.048Z</time></trkpt><trkpt lat="40.7220907" lon="9.1439159"><ele>236.00000000000003</ele><time>2026-04-21T07:18:57.042Z</time></trkpt><trkpt lat="40.722106" lon="9.1440405"><ele>236.0</ele><time>2026-04-21T07:18:58.061Z</time></trkpt><trkpt lat="40.7221355" lon="9.1441587"><ele>236.0</ele><time>2026-04-21T07:18:59.063Z</time></trkpt><trkpt lat="40.7221645" lon="9.1442984"><ele>234.75</ele><time>2026-04-21T07:19:00.048Z</time></trkpt><trkpt lat="40.7221852" lon="9.1444463"><ele>233.5</ele><time>2026-04-21T07:19:01.051Z</time></trkpt><trkpt lat="40.7221919" lon="9.1445918"><ele>232.25</ele><time>2026-04-21T07:19:02.048Z</time></trkpt><trkpt lat="40.7221846" lon="9.1447406"><ele>231.0</ele><time>2026-04-21T07:19:03.049Z</time></trkpt><trkpt lat="40.7221699" lon="9.1448882"><ele>231.0</ele><time>2026-04-21T07:19:04.066Z</time></trkpt><trkpt lat="40.7221538" lon="9.1450279"><ele>231.00000000000003</ele><time>2026-04-21T07:19:05.066Z</time></trkpt><trkpt lat="40.722138" lon="9.1451576"><ele>231.00000000000003</ele><time>2026-04-21T07:19:06.05Z</time></trkpt><trkpt lat="40.7221217" lon="9.1452748"><ele>231.0</ele><time>2026-04-21T07:19:07.049Z</time></trkpt><trkpt lat="40.7221141" lon="9.1453869"><ele>231.0</ele><time>2026-04-21T07:19:08.045Z</time></trkpt><trkpt lat="40.7221254" lon="9.1454979"><ele>231.0</ele><time>2026-04-21T07:19:09.044Z</time></trkpt><trkpt lat="40.7221577" lon="9.1456034"><ele>231.0</ele><time>2026-04-21T07:19:10.062Z</time></trkpt><trkpt lat="40.7221961" lon="9.1456955"><ele>231.0</ele><time>2026-04-21T07:19:11.065Z</time></trkpt><trkpt lat="40.7222308" lon="9.145792"><ele>231.0</ele><time>2026-04-21T07:19:12.047Z</time></trkpt><trkpt lat="40.722258" lon="9.1459119"><ele>231.0</ele><time>2026-04-21T07:19:13.041Z</time></trkpt><trkpt lat="40.7222573" lon="9.1460379"><ele>231.0</ele><time>2026-04-21T07:19:14.042Z</time></trkpt><trkpt lat="40.7222315" lon="9.1461712"><ele>230.25</ele><time>2026-04-21T07:19:15.044Z</time></trkpt><trkpt lat="40.722195" lon="9.1463136"><ele>229.5</ele><time>2026-04-21T07:19:16.067Z</time></trkpt><trkpt lat="40.7221559" lon="9.1464554"><ele>228.75</ele><time>2026-04-21T07:19:17.073Z</time></trkpt><trkpt lat="40.722122" lon="9.1466024"><ele>228.0</ele><time>2026-04-21T07:19:18.069Z</time></trkpt><trkpt lat="40.7220946" lon="9.1467451"><ele>226.60000000000002</ele><time>2026-04-21T07:19:19.067Z</time></trkpt><trkpt lat="40.7220734" lon="9.1468712"><ele>225.20000000000002</ele><time>2026-04-21T07:19:20.049Z</time></trkpt><trkpt lat="40.7220525" lon="9.1469841"><ele>223.8</ele><time>2026-04-21T07:19:21.049Z</time></trkpt><trkpt lat="40.7220167" lon="9.1470989"><ele>222.4</ele><time>2026-04-21T07:19:22.051Z</time></trkpt><trkpt lat="40.7219771" lon="9.1472126"><ele>221.0</ele><time>2026-04-21T07:19:23.048Z</time></trkpt><trkpt lat="40.7219422" lon="9.1473311"><ele>220.8</ele><time>2026-04-21T07:19:24.065Z</time></trkpt><trkpt lat="40.7219189" lon="9.1474532"><ele>220.60000000000002</ele><time>2026-04-21T07:19:25.064Z</time></trkpt><trkpt lat="40.7219187" lon="9.1475705"><ele>220.4</ele><time>2026-04-21T07:19:26.058Z</time></trkpt><trkpt lat="40.7219237" lon="9.147686"><ele>220.2</ele><time>2026-04-21T07:19:27.074Z</time></trkpt><trkpt lat="40.7218953" lon="9.1478697"><ele>220.0</ele><time>2026-04-21T07:19:28.96Z</time></trkpt><trkpt lat="40.7218485" lon="9.1479672"><ele>219.6</ele><time>2026-04-21T07:19:29.961Z</time></trkpt><trkpt lat="40.7217748" lon="9.1480545"><ele>219.2</ele><time>2026-04-21T07:19:30.965Z</time></trkpt><trkpt lat="40.721704" lon="9.1481379"><ele>218.8</ele><time>2026-04-21T07:19:31.98Z</time></trkpt><trkpt lat="40.7216181" lon="9.1482078"><ele>218.4</ele><time>2026-04-21T07:19:32.98Z</time></trkpt><trkpt lat="40.721531" lon="9.1482622"><ele>218.0</ele><time>2026-04-21T07:19:33.975Z</time></trkpt><trkpt lat="40.721434" lon="9.1482963"><ele>217.4</ele><time>2026-04-21T07:19:34.986Z</time></trkpt><trkpt lat="40.7213459" lon="9.1483416"><ele>216.8</ele><time>2026-04-21T07:19:35.984Z</time></trkpt><trkpt lat="40.7212658" lon="9.1484043"><ele>216.2</ele><time>2026-04-21T07:19:36.983Z</time></trkpt><trkpt lat="40.7211972" lon="9.1485007"><ele>215.6</ele><time>2026-04-21T07:19:37.982Z</time></trkpt><trkpt lat="40.7211297" lon="9.1486064"><ele>215.0</ele><time>2026-04-21T07:19:38.977Z</time></trkpt><trkpt lat="40.7210711" lon="9.1487153"><ele>214.6</ele><time>2026-04-21T07:19:39.983Z</time></trkpt><trkpt lat="40.7210215" lon="9.148817"><ele>214.2</ele><time>2026-04-21T07:19:40.982Z</time></trkpt><trkpt lat="40.7209747" lon="9.1489302"><ele>213.8</ele><time>2026-04-21T07:19:41.978Z</time></trkpt><trkpt lat="40.7209339" lon="9.1490675"><ele>213.4</ele><time>2026-04-21T07:19:42.982Z</time></trkpt><trkpt lat="40.7208914" lon="9.1492035"><ele>213.0</ele><time>2026-04-21T07:19:43.98Z</time></trkpt><trkpt lat="40.7208464" lon="9.1493468"><ele>213.0</ele><time>2026-04-21T07:19:44.986Z</time></trkpt><trkpt lat="40.7207985" lon="9.1494902"><ele>213.0</ele><time>2026-04-21T07:19:45.981Z</time></trkpt><trkpt lat="40.7207418" lon="9.1496302"><ele>213.0</ele><time>2026-04-21T07:19:46.991Z</time></trkpt><trkpt lat="40.7206904" lon="9.1497764"><ele>213.0</ele><time>2026-04-21T07:19:47.985Z</time></trkpt><trkpt lat="40.7206403" lon="9.1499149"><ele>213.4</ele><time>2026-04-21T07:19:48.985Z</time></trkpt><trkpt lat="40.7205959" lon="9.1500705"><ele>213.8</ele><time>2026-04-21T07:19:49.984Z</time></trkpt><trkpt lat="40.7205489" lon="9.1502132"><ele>214.2</ele><time>2026-04-21T07:19:50.983Z</time></trkpt><trkpt lat="40.7204969" lon="9.1503408"><ele>214.6</ele><time>2026-04-21T07:19:51.976Z</time></trkpt><trkpt lat="40.7204429" lon="9.1504373"><ele>215.0</ele><time>2026-04-21T07:19:52.98Z</time></trkpt><trkpt lat="40.7203825" lon="9.1505291"><ele>215.0</ele><time>2026-04-21T07:19:53.977Z</time></trkpt><trkpt lat="40.7203088" lon="9.1506423"><ele>215.0</ele><time>2026-04-21T07:19:54.982Z</time></trkpt><trkpt lat="40.7202351" lon="9.1507525"><ele>215.0</ele><time>2026-04-21T07:19:55.984Z</time></trkpt><trkpt lat="40.7201552" lon="9.150863"><ele>215.0</ele><time>2026-04-21T07:19:56.984Z</time></trkpt><trkpt lat="40.7200734" lon="9.1509746"><ele>216.5</ele><time>2026-04-21T07:19:57.983Z</time></trkpt><trkpt lat="40.7199843" lon="9.1510832"><ele>218.0</ele><time>2026-04-21T07:19:58.98Z</time></trkpt><trkpt lat="40.7199026" lon="9.1511979"><ele>219.5</ele><time>2026-04-21T07:19:59.984Z</time></trkpt><trkpt lat="40.7198316" lon="9.1513208"><ele>221.0</ele><time>2026-04-21T07:20:00.98Z</time></trkpt><trkpt lat="40.7197591" lon="9.1514428"><ele>220.20000000000002</ele><time>2026-04-21T07:20:01.981Z</time></trkpt><trkpt lat="40.7196959" lon="9.1515625"><ele>219.40000000000003</ele><time>2026-04-21T07:20:02.981Z</time></trkpt><trkpt lat="40.7196254" lon="9.1516801"><ele>218.6</ele><time>2026-04-21T07:20:03.983Z</time></trkpt><trkpt lat="40.7195559" lon="9.1517964"><ele>217.8</ele><time>2026-04-21T07:20:04.979Z</time></trkpt><trkpt lat="40.7194887" lon="9.1519123"><ele>217.0</ele><time>2026-04-21T07:20:05.983Z</time></trkpt><trkpt lat="40.7194197" lon="9.1520265"><ele>218.2</ele><time>2026-04-21T07:20:06.978Z</time></trkpt><trkpt lat="40.7193559" lon="9.1521423"><ele>219.39999999999998</ele><time>2026-04-21T07:20:07.978Z</time></trkpt><trkpt lat="40.7192907" lon="9.1522547"><ele>220.60000000000002</ele><time>2026-04-21T07:20:08.977Z</time></trkpt><trkpt lat="40.7192229" lon="9.1523591"><ele>221.8</ele><time>2026-04-21T07:20:09.975Z</time></trkpt><trkpt lat="40.7191374" lon="9.1524526"><ele>223.0</ele><time>2026-04-21T07:20:10.975Z</time></trkpt><trkpt lat="40.7190515" lon="9.152533"><ele>223.25</ele><time>2026-04-21T07:20:11.966Z</time></trkpt><trkpt lat="40.7189578" lon="9.1526094"><ele>223.5</ele><time>2026-04-21T07:20:12.968Z</time></trkpt><trkpt lat="40.7188402" lon="9.1526821"><ele>223.75</ele><time>2026-04-21T07:20:13.974Z</time></trkpt><trkpt lat="40.7187206" lon="9.1527499"><ele>224.0</ele><time>2026-04-21T07:20:14.977Z</time></trkpt><trkpt lat="40.7185976" lon="9.1528186"><ele>225.25</ele><time>2026-04-21T07:20:15.975Z</time></trkpt><trkpt lat="40.718477" lon="9.1528892"><ele>226.5</ele><time>2026-04-21T07:20:16.979Z</time></trkpt><trkpt lat="40.7183646" lon="9.1529557"><ele>227.75</ele><time>2026-04-21T07:20:17.978Z</time></trkpt><trkpt lat="40.7182567" lon="9.153006"><ele>229.0</ele><time>2026-04-21T07:20:18.974Z</time></trkpt><trkpt lat="40.7181424" lon="9.1530457"><ele>229.0</ele><time>2026-04-21T07:20:19.979Z</time></trkpt><trkpt lat="40.7180121" lon="9.1530626"><ele>229.0</ele><time>2026-04-21T07:20:20.979Z</time></trkpt><trkpt lat="40.7178763" lon="9.1530725"><ele>229.0</ele><time>2026-04-21T07:20:21.984Z</time></trkpt><trkpt lat="40.7177429" lon="9.1530827"><ele>229.0</ele><time>2026-04-21T07:20:22.983Z</time></trkpt><trkpt lat="40.717607" lon="9.1530937"><ele>228.5</ele><time>2026-04-21T07:20:23.982Z</time></trkpt><trkpt lat="40.7174844" lon="9.1531055"><ele>228.0</ele><time>2026-04-21T07:20:24.987Z</time></trkpt><trkpt lat="40.7173683" lon="9.1531231"><ele>227.5</ele><time>2026-04-21T07:20:25.976Z</time></trkpt><trkpt lat="40.7172542" lon="9.1531673"><ele>227.0</ele><time>2026-04-21T07:20:26.979Z</time></trkpt><trkpt lat="40.7171408" lon="9.1532453"><ele>227.0</ele><time>2026-04-21T07:20:27.981Z</time></trkpt><trkpt lat="40.7170326" lon="9.1533155"><ele>227.0</ele><time>2026-04-21T07:20:28.979Z</time></trkpt><trkpt lat="40.7169297" lon="9.1533711"><ele>227.0</ele><time>2026-04-21T07:20:29.985Z</time></trkpt><trkpt lat="40.7168175" lon="9.1534077"><ele>227.0</ele><time>2026-04-21T07:20:30.995Z</time></trkpt><trkpt lat="40.7167038" lon="9.153435"><ele>228.0</ele><time>2026-04-21T07:20:31.979Z</time></trkpt><trkpt lat="40.716587" lon="9.1534653"><ele>229.0</ele><time>2026-04-21T07:20:32.983Z</time></trkpt><trkpt lat="40.7164767" lon="9.1534931"><ele>230.0</ele><time>2026-04-21T07:20:33.981Z</time></trkpt><trkpt lat="40.7163721" lon="9.1535051"><ele>231.0</ele><time>2026-04-21T07:20:34.984Z</time></trkpt><trkpt lat="40.7162581" lon="9.1535097"><ele>231.0</ele><time>2026-04-21T07:20:35.98Z</time></trkpt><trkpt lat="40.7161336" lon="9.1535083"><ele>231.0</ele><time>2026-04-21T07:20:36.979Z</time></trkpt><trkpt lat="40.7160027" lon="9.1535004"><ele>231.0</ele><time>2026-04-21T07:20:37.979Z</time></trkpt><trkpt lat="40.7158658" lon="9.1534963"><ele>231.0</ele><time>2026-04-21T07:20:38.979Z</time></trkpt><trkpt lat="40.715732" lon="9.1534943"><ele>230.75</ele><time>2026-04-21T07:20:39.975Z</time></trkpt><trkpt lat="40.7155966" lon="9.1534932"><ele>230.5</ele><time>2026-04-21T07:20:40.976Z</time></trkpt><trkpt lat="40.7154455" lon="9.1534944"><ele>230.25</ele><time>2026-04-21T07:20:41.98Z</time></trkpt><trkpt lat="40.7153103" lon="9.1535129"><ele>230.0</ele><time>2026-04-21T07:20:42.978Z</time></trkpt><trkpt lat="40.7151786" lon="9.153532"><ele>230.8</ele><time>2026-04-21T07:20:43.976Z</time></trkpt><trkpt lat="40.715077" lon="9.153567"><ele>231.6</ele><time>2026-04-21T07:20:44.971Z</time></trkpt><trkpt lat="40.7150004" lon="9.1536366"><ele>232.39999999999998</ele><time>2026-04-21T07:20:45.967Z</time></trkpt><trkpt lat="40.7149276" lon="9.1536874"><ele>233.2</ele><time>2026-04-21T07:20:46.978Z</time></trkpt><trkpt lat="40.714871" lon="9.153789"><ele>234.0</ele><time>2026-04-21T07:20:47.966Z</time></trkpt><trkpt lat="40.7148222" lon="9.1539269"><ele>234.5</ele><time>2026-04-21T07:20:48.973Z</time></trkpt><trkpt lat="40.7147759" lon="9.1540825"><ele>235.0</ele><time>2026-04-21T07:20:49.972Z</time></trkpt><trkpt lat="40.7147212" lon="9.1542431"><ele>235.5</ele><time>2026-04-21T07:20:50.969Z</time></trkpt><trkpt lat="40.7146564" lon="9.1544"><ele>236.0</ele><time>2026-04-21T07:20:51.972Z</time></trkpt><trkpt lat="40.7146016" lon="9.154559"><ele>236.0</ele><time>2026-04-21T07:20:52.978Z</time></trkpt><trkpt lat="40.7145478" lon="9.1547176"><ele>236.0</ele><time>2026-04-21T07:20:53.973Z</time></trkpt><trkpt lat="40.7144945" lon="9.154878"><ele>236.0</ele><time>2026-04-21T07:20:54.976Z</time></trkpt><trkpt lat="40.7144266" lon="9.1550136"><ele>236.0</ele><time>2026-04-21T07:20:55.968Z</time></trkpt><trkpt lat="40.7143732" lon="9.1551622"><ele>236.0</ele><time>2026-04-21T07:20:56.97Z</time></trkpt><trkpt lat="40.7143222" lon="9.155298"><ele>236.00000000000003</ele><time>2026-04-21T07:20:57.979Z</time></trkpt><trkpt lat="40.7142632" lon="9.155418"><ele>236.00000000000003</ele><time>2026-04-21T07:20:58.976Z</time></trkpt><trkpt lat="40.7142077" lon="9.1555357"><ele>236.0</ele><time>2026-04-21T07:20:59.976Z</time></trkpt><trkpt lat="40.7141449" lon="9.1556411"><ele>236.0</ele><time>2026-04-21T07:21:00.974Z</time></trkpt><trkpt lat="40.7140724" lon="9.1557483"><ele>236.0</ele><time>2026-04-21T07:21:01.969Z</time></trkpt><trkpt lat="40.7139992" lon="9.1558682"><ele>236.0</ele><time>2026-04-21T07:21:02.972Z</time></trkpt><trkpt lat="40.7139248" lon="9.1559842"><ele>236.0</ele><time>2026-04-21T07:21:03.974Z</time></trkpt><trkpt lat="40.7138427" lon="9.1560885"><ele>236.0</ele><time>2026-04-21T07:21:04.974Z</time></trkpt><trkpt lat="40.7137555" lon="9.156198"><ele>236.0</ele><time>2026-04-21T07:21:05.976Z</time></trkpt><trkpt lat="40.7136618" lon="9.1563224"><ele>236.0</ele><time>2026-04-21T07:21:06.974Z</time></trkpt><trkpt lat="40.7135663" lon="9.156437"><ele>236.0</ele><time>2026-04-21T07:21:07.979Z</time></trkpt><trkpt lat="40.7134667" lon="9.1565568"><ele>236.0</ele><time>2026-04-21T07:21:08.976Z</time></trkpt><trkpt lat="40.7133624" lon="9.1566748"><ele>233.75</ele><time>2026-04-21T07:21:09.977Z</time></trkpt><trkpt lat="40.7132613" lon="9.1567928"><ele>231.5</ele><time>2026-04-21T07:21:10.978Z</time></trkpt><trkpt lat="40.7131601" lon="9.1569225"><ele>229.25</ele><time>2026-04-21T07:21:11.973Z</time></trkpt><trkpt lat="40.7130545" lon="9.1570426"><ele>227.0</ele><time>2026-04-21T07:21:12.976Z</time></trkpt><trkpt lat="40.7129492" lon="9.1571458"><ele>227.0</ele><time>2026-04-21T07:21:13.981Z</time></trkpt><trkpt lat="40.7128489" lon="9.157261"><ele>227.0</ele><time>2026-04-21T07:21:14.975Z</time></trkpt><trkpt lat="40.7127464" lon="9.1573877"><ele>227.0</ele><time>2026-04-21T07:21:15.976Z</time></trkpt><trkpt lat="40.7126455" lon="9.1575152"><ele>227.0</ele><time>2026-04-21T07:21:16.978Z</time></trkpt><trkpt lat="40.7125282" lon="9.1576378"><ele>226.5</ele><time>2026-04-21T07:21:17.976Z</time></trkpt><trkpt lat="40.7124354" lon="9.1577674"><ele>226.0</ele><time>2026-04-21T07:21:18.976Z</time></trkpt><trkpt lat="40.712333" lon="9.1578958"><ele>225.5</ele><time>2026-04-21T07:21:19.98Z</time></trkpt><trkpt lat="40.7122393" lon="9.1580214"><ele>225.0</ele><time>2026-04-21T07:21:20.976Z</time></trkpt><trkpt lat="40.7121381" lon="9.158148"><ele>224.75</ele><time>2026-04-21T07:21:21.975Z</time></trkpt><trkpt lat="40.7120329" lon="9.1582741"><ele>224.5</ele><time>2026-04-21T07:21:22.983Z</time></trkpt><trkpt lat="40.7119402" lon="9.158399"><ele>224.25</ele><time>2026-04-21T07:21:23.981Z</time></trkpt><trkpt lat="40.7118541" lon="9.1585178"><ele>224.0</ele><time>2026-04-21T07:21:24.982Z</time></trkpt><trkpt lat="40.7117895" lon="9.1586319"><ele>224.0</ele><time>2026-04-21T07:21:25.98Z</time></trkpt><trkpt lat="40.7117102" lon="9.1587439"><ele>224.0</ele><time>2026-04-21T07:21:26.982Z</time></trkpt><trkpt lat="40.7116351" lon="9.1588447"><ele>224.0</ele><time>2026-04-21T07:21:27.981Z</time></trkpt><trkpt lat="40.7115645" lon="9.1589615"><ele>224.0</ele><time>2026-04-21T07:21:28.981Z</time></trkpt><trkpt lat="40.7114856" lon="9.159079"><ele>223.6</ele><time>2026-04-21T07:21:29.985Z</time></trkpt><trkpt lat="40.7114084" lon="9.1591978"><ele>223.2</ele><time>2026-04-21T07:21:31.001Z</time></trkpt><trkpt lat="40.711347" lon="9.1592952"><ele>222.79999999999998</ele><time>2026-04-21T07:21:31.993Z</time></trkpt><trkpt lat="40.7112881" lon="9.1593866"><ele>222.39999999999998</ele><time>2026-04-21T07:21:33.068Z</time></trkpt><trkpt lat="40.7112296" lon="9.1594723"><ele>222.0</ele><time>2026-04-21T07:21:34.067Z</time></trkpt><trkpt lat="40.7111696" lon="9.1595552"><ele>222.0</ele><time>2026-04-21T07:21:35.061Z</time></trkpt><trkpt lat="40.7111171" lon="9.1596665"><ele>222.0</ele><time>2026-04-21T07:21:36.058Z</time></trkpt><trkpt lat="40.7110704" lon="9.1597887"><ele>222.0</ele><time>2026-04-21T07:21:37.065Z</time></trkpt><trkpt lat="40.7110231" lon="9.1599195"><ele>222.0</ele><time>2026-04-21T07:21:38.05Z</time></trkpt><trkpt lat="40.7109736" lon="9.1600525"><ele>222.0</ele><time>2026-04-21T07:21:39.05Z</time></trkpt><trkpt lat="40.7109235" lon="9.1601857"><ele>223.0</ele><time>2026-04-21T07:21:40.047Z</time></trkpt><trkpt lat="40.710873" lon="9.160323"><ele>224.0</ele><time>2026-04-21T07:21:41.052Z</time></trkpt><trkpt lat="40.7108232" lon="9.1604638"><ele>225.0</ele><time>2026-04-21T07:21:42.072Z</time></trkpt><trkpt lat="40.7107717" lon="9.1606116"><ele>226.0</ele><time>2026-04-21T07:21:43.07Z</time></trkpt><trkpt lat="40.7107049" lon="9.1607595"><ele>226.25</ele><time>2026-04-21T07:21:44.071Z</time></trkpt><trkpt lat="40.7106433" lon="9.1609022"><ele>226.5</ele><time>2026-04-21T07:21:45.072Z</time></trkpt><trkpt lat="40.710584" lon="9.161044"><ele>226.75</ele><time>2026-04-21T07:21:46.066Z</time></trkpt><trkpt lat="40.7105248" lon="9.1611853"><ele>227.0</ele><time>2026-04-21T07:21:47.071Z</time></trkpt><trkpt lat="40.7104655" lon="9.1613273"><ele>227.0</ele><time>2026-04-21T07:21:48.068Z</time></trkpt><trkpt lat="40.7104065" lon="9.161469"><ele>227.0</ele><time>2026-04-21T07:21:49.068Z</time></trkpt><trkpt lat="40.7103481" lon="9.1616113"><ele>227.0</ele><time>2026-04-21T07:21:50.07Z</time></trkpt><trkpt lat="40.7102954" lon="9.1617457"><ele>227.0</ele><time>2026-04-21T07:21:51.067Z</time></trkpt><trkpt lat="40.7102467" lon="9.1618723"><ele>226.8</ele><time>2026-04-21T07:21:52.068Z</time></trkpt><trkpt lat="40.7101977" lon="9.1619966"><ele>226.6</ele><time>2026-04-21T07:21:53.07Z</time></trkpt><trkpt lat="40.7101506" lon="9.162124"><ele>226.40000000000003</ele><time>2026-04-21T07:21:54.067Z</time></trkpt><trkpt lat="40.7101072" lon="9.1622549"><ele>226.20000000000002</ele><time>2026-04-21T07:21:55.071Z</time></trkpt><trkpt lat="40.7100644" lon="9.1623893"><ele>226.0</ele><time>2026-04-21T07:21:56.07Z</time></trkpt><trkpt lat="40.7100202" lon="9.1625174"><ele>226.0</ele><time>2026-04-21T07:21:57.066Z</time></trkpt><trkpt lat="40.7099749" lon="9.1626436"><ele>226.00000000000003</ele><time>2026-04-21T07:21:58.073Z</time></trkpt><trkpt lat="40.7099269" lon="9.1627667"><ele>226.00000000000003</ele><time>2026-04-21T07:21:59.071Z</time></trkpt><trkpt lat="40.7098777" lon="9.1628892"><ele>226.0</ele><time>2026-04-21T07:22:00.075Z</time></trkpt><trkpt lat="40.7098262" lon="9.1630195"><ele>226.0</ele><time>2026-04-21T07:22:01.07Z</time></trkpt><trkpt lat="40.7097762" lon="9.1631589"><ele>225.20000000000002</ele><time>2026-04-21T07:22:02.068Z</time></trkpt><trkpt lat="40.7097313" lon="9.1632979"><ele>224.40000000000003</ele><time>2026-04-21T07:22:03.065Z</time></trkpt><trkpt lat="40.7097027" lon="9.163426"><ele>223.6</ele><time>2026-04-21T07:22:04.059Z</time></trkpt><trkpt lat="40.7096865" lon="9.1635471"><ele>222.8</ele><time>2026-04-21T07:22:05.063Z</time></trkpt><trkpt lat="40.7096737" lon="9.1636619"><ele>222.0</ele><time>2026-04-21T07:22:06.048Z</time></trkpt><trkpt lat="40.7096513" lon="9.1637576"><ele>222.0</ele><time>2026-04-21T07:22:07.046Z</time></trkpt><trkpt lat="40.7096253" lon="9.1638376"><ele>222.0</ele><time>2026-04-21T07:22:08.048Z</time></trkpt><trkpt lat="40.7095894" lon="9.1639098"><ele>222.0</ele><time>2026-04-21T07:22:09.045Z</time></trkpt><trkpt lat="40.7095398" lon="9.1639826"><ele>222.0</ele><time>2026-04-21T07:22:10.061Z</time></trkpt><trkpt lat="40.7094813" lon="9.1640399"><ele>222.0</ele><time>2026-04-21T07:22:11.052Z</time></trkpt><trkpt lat="40.7094232" lon="9.1640814"><ele>222.0</ele><time>2026-04-21T07:22:12.042Z</time></trkpt><trkpt lat="40.7093109" lon="9.1641247"><ele>222.33333333333334</ele><time>2026-04-21T07:22:14.046Z</time></trkpt><trkpt lat="40.7092442" lon="9.1641337"><ele>222.66666666666669</ele><time>2026-04-21T07:22:15.051Z</time></trkpt><trkpt lat="40.709177" lon="9.1641277"><ele>223.0</ele><time>2026-04-21T07:22:16.066Z</time></trkpt><trkpt lat="40.7090932" lon="9.1641175"><ele>223.33333333333334</ele><time>2026-04-21T07:22:17.066Z</time></trkpt><trkpt lat="40.709009" lon="9.1641012"><ele>223.66666666666669</ele><time>2026-04-21T07:22:18.055Z</time></trkpt><trkpt lat="40.7089182" lon="9.1640995"><ele>224.0</ele><time>2026-04-21T07:22:19.05Z</time></trkpt><trkpt lat="40.7088327" lon="9.1640879"><ele>224.0</ele><time>2026-04-21T07:22:20.048Z</time></trkpt><trkpt lat="40.7087571" lon="9.1641029"><ele>224.0</ele><time>2026-04-21T07:22:21.047Z</time></trkpt><trkpt lat="40.70869" lon="9.1641138"><ele>224.0</ele><time>2026-04-21T07:22:22.067Z</time></trkpt><trkpt lat="40.7086237" lon="9.1641174"><ele>224.0</ele><time>2026-04-21T07:22:23.073Z</time></trkpt><trkpt lat="40.7085538" lon="9.1641117"><ele>224.0</ele><time>2026-04-21T07:22:24.062Z</time></trkpt><trkpt lat="40.7084809" lon="9.1640964"><ele>224.0</ele><time>2026-04-21T07:22:25.064Z</time></trkpt><trkpt lat="40.7084012" lon="9.1640756"><ele>224.0</ele><time>2026-04-21T07:22:26.049Z</time></trkpt><trkpt lat="40.7083168" lon="9.1640511"><ele>225.16666666666669</ele><time>2026-04-21T07:22:27.048Z</time></trkpt><trkpt lat="40.708223" lon="9.1640234"><ele>226.33333333333334</ele><time>2026-04-21T07:22:28.049Z</time></trkpt><trkpt lat="40.708144" lon="9.1639924"><ele>227.5</ele><time>2026-04-21T07:22:29.048Z</time></trkpt><trkpt lat="40.7080605" lon="9.1639619"><ele>228.66666666666669</ele><time>2026-04-21T07:22:30.067Z</time></trkpt><trkpt lat="40.707984" lon="9.1639538"><ele>229.83333333333334</ele><time>2026-04-21T07:22:31.064Z</time></trkpt><trkpt lat="40.7079041" lon="9.163967"><ele>231.0</ele><time>2026-04-21T07:22:32.053Z</time></trkpt><trkpt lat="40.7078275" lon="9.1639951"><ele>231.16666666666666</ele><time>2026-04-21T07:22:33.037Z</time></trkpt><trkpt lat="40.7077424" lon="9.1640121"><ele>231.33333333333331</ele><time>2026-04-21T07:22:34.042Z</time></trkpt><trkpt lat="40.7076711" lon="9.164037"><ele>231.5</ele><time>2026-04-21T07:22:35.045Z</time></trkpt><trkpt lat="40.7075959" lon="9.1640784"><ele>231.66666666666666</ele><time>2026-04-21T07:22:36.048Z</time></trkpt><trkpt lat="40.7075213" lon="9.1641453"><ele>231.83333333333331</ele><time>2026-04-21T07:22:37.067Z</time></trkpt><trkpt lat="40.7074449" lon="9.1642184"><ele>232.0</ele><time>2026-04-21T07:22:38.065Z</time></trkpt><trkpt lat="40.7073673" lon="9.1642927"><ele>231.39999999999998</ele><time>2026-04-21T07:22:39.056Z</time></trkpt><trkpt lat="40.7072877" lon="9.1643715"><ele>230.79999999999998</ele><time>2026-04-21T07:22:40.055Z</time></trkpt><trkpt lat="40.707208" lon="9.1644488"><ele>230.2</ele><time>2026-04-21T07:22:41.052Z</time></trkpt><trkpt lat="40.7071274" lon="9.1645204"><ele>229.6</ele><time>2026-04-21T07:22:42.049Z</time></trkpt><trkpt lat="40.7070466" lon="9.1645904"><ele>229.0</ele><time>2026-04-21T07:22:43.07Z</time></trkpt><trkpt lat="40.706968" lon="9.1646485"><ele>229.79999999999998</ele><time>2026-04-21T07:22:44.065Z</time></trkpt><trkpt lat="40.706887" lon="9.1647051"><ele>230.59999999999997</ele><time>2026-04-21T07:22:45.076Z</time></trkpt><trkpt lat="40.7068039" lon="9.1647618"><ele>231.4</ele><time>2026-04-21T07:22:46.07Z</time></trkpt><trkpt lat="40.70672" lon="9.1648219"><ele>232.2</ele><time>2026-04-21T07:22:47.072Z</time></trkpt><trkpt lat="40.7066339" lon="9.1648861"><ele>233.0</ele><time>2026-04-21T07:22:48.074Z</time></trkpt><trkpt lat="40.7065474" lon="9.1649586"><ele>233.00000000000003</ele><time>2026-04-21T07:22:49.061Z</time></trkpt><trkpt lat="40.7064672" lon="9.1650343"><ele>233.0</ele><time>2026-04-21T07:22:50.07Z</time></trkpt><trkpt lat="40.7063851" lon="9.1651074"><ele>233.0</ele><time>2026-04-21T07:22:51.066Z</time></trkpt><trkpt lat="40.7063083" lon="9.1651592"><ele>233.0</ele><time>2026-04-21T07:22:52.059Z</time></trkpt><trkpt lat="40.7062372" lon="9.1651965"><ele>233.00000000000003</ele><time>2026-04-21T07:22:53.061Z</time></trkpt><trkpt lat="40.706161" lon="9.1652207"><ele>233.0</ele><time>2026-04-21T07:22:54.047Z</time></trkpt><trkpt lat="40.706079" lon="9.1652198"><ele>234.4</ele><time>2026-04-21T07:22:55.049Z</time></trkpt><trkpt lat="40.7059868" lon="9.1652221"><ele>235.8</ele><time>2026-04-21T07:22:56.046Z</time></trkpt><trkpt lat="40.7058943" lon="9.1652221"><ele>237.2</ele><time>2026-04-21T07:22:57.048Z</time></trkpt><trkpt lat="40.7057955" lon="9.1652119"><ele>238.6</ele><time>2026-04-21T07:22:58.062Z</time></trkpt><trkpt lat="40.7056859" lon="9.1651925"><ele>240.0</ele><time>2026-04-21T07:22:59.058Z</time></trkpt><trkpt lat="40.7055879" lon="9.1651685"><ele>240.0</ele><time>2026-04-21T07:23:00.066Z</time></trkpt><trkpt lat="40.7054912" lon="9.165145"><ele>240.0</ele><time>2026-04-21T07:23:01.047Z</time></trkpt><trkpt lat="40.705396" lon="9.1651263"><ele>240.0</ele><time>2026-04-21T07:23:02.043Z</time></trkpt><trkpt lat="40.70531" lon="9.1651217"><ele>240.0</ele><time>2026-04-21T07:23:03.042Z</time></trkpt><trkpt lat="40.7052206" lon="9.1651358"><ele>240.0</ele><time>2026-04-21T07:23:04.041Z</time></trkpt><trkpt lat="40.7051374" lon="9.1651608"><ele>241.6</ele><time>2026-04-21T07:23:05.063Z</time></trkpt><trkpt lat="40.7050453" lon="9.1652013"><ele>243.2</ele><time>2026-04-21T07:23:06.069Z</time></trkpt><trkpt lat="40.7049607" lon="9.1652533"><ele>244.8</ele><time>2026-04-21T07:23:07.051Z</time></trkpt><trkpt lat="40.7048911" lon="9.1653158"><ele>246.4</ele><time>2026-04-21T07:23:08.046Z</time></trkpt><trkpt lat="40.7048229" lon="9.1653893"><ele>248.0</ele><time>2026-04-21T07:23:09.048Z</time></trkpt><trkpt lat="40.7047577" lon="9.1654836"><ele>248.0</ele><time>2026-04-21T07:23:10.046Z</time></trkpt><trkpt lat="40.7046976" lon="9.1655976"><ele>248.0</ele><time>2026-04-21T07:23:11.064Z</time></trkpt><trkpt lat="40.7046542" lon="9.1657388"><ele>248.0</ele><time>2026-04-21T07:23:11.986Z</time></trkpt><trkpt lat="40.704592" lon="9.1658466"><ele>248.0</ele><time>2026-04-21T07:23:12.979Z</time></trkpt><trkpt lat="40.7045266" lon="9.1659483"><ele>248.0</ele><time>2026-04-21T07:23:13.98Z</time></trkpt><trkpt lat="40.7044417" lon="9.1660328"><ele>249.2</ele><time>2026-04-21T07:23:14.976Z</time></trkpt><trkpt lat="40.7043456" lon="9.1661056"><ele>250.4</ele><time>2026-04-21T07:23:15.983Z</time></trkpt><trkpt lat="40.7042485" lon="9.1661686"><ele>251.59999999999997</ele><time>2026-04-21T07:23:16.985Z</time></trkpt><trkpt lat="40.704161" lon="9.1662384"><ele>252.79999999999998</ele><time>2026-04-21T07:23:17.983Z</time></trkpt><trkpt lat="40.7040738" lon="9.1663155"><ele>254.0</ele><time>2026-04-21T07:23:18.978Z</time></trkpt><trkpt lat="40.703996" lon="9.1664129"><ele>255.25</ele><time>2026-04-21T07:23:19.984Z</time></trkpt><trkpt lat="40.7039185" lon="9.1665292"><ele>256.5</ele><time>2026-04-21T07:23:20.982Z</time></trkpt><trkpt lat="40.7038349" lon="9.1666342"><ele>257.75</ele><time>2026-04-21T07:23:21.981Z</time></trkpt><trkpt lat="40.7037472" lon="9.1667444"><ele>259.0</ele><time>2026-04-21T07:23:22.988Z</time></trkpt><trkpt lat="40.7036556" lon="9.166856"><ele>259.4</ele><time>2026-04-21T07:23:23.981Z</time></trkpt><trkpt lat="40.7035743" lon="9.1669612"><ele>259.79999999999995</ele><time>2026-04-21T07:23:24.981Z</time></trkpt><trkpt lat="40.7035023" lon="9.1670625"><ele>260.20000000000005</ele><time>2026-04-21T07:23:25.976Z</time></trkpt><trkpt lat="40.7034397" lon="9.1671541"><ele>260.6</ele><time>2026-04-21T07:23:26.974Z</time></trkpt><trkpt lat="40.7033901" lon="9.1672294"><ele>261.0</ele><time>2026-04-21T07:23:27.974Z</time></trkpt><trkpt lat="40.7032888" lon="9.1672673"><ele>261.0</ele><time>2026-04-21T07:23:29.971Z</time></trkpt><trkpt lat="40.703237" lon="9.1672188"><ele>261.0</ele><time>2026-04-21T07:23:30.978Z</time></trkpt><trkpt lat="40.7031824" lon="9.1671298"><ele>261.0</ele><time>2026-04-21T07:23:31.975Z</time></trkpt><trkpt lat="40.7031275" lon="9.1670249"><ele>261.0</ele><time>2026-04-21T07:23:32.975Z</time></trkpt><trkpt lat="40.7030671" lon="9.1669305"><ele>261.0</ele><time>2026-04-21T07:23:33.978Z</time></trkpt><trkpt lat="40.7030002" lon="9.1668518"><ele>261.0</ele><time>2026-04-21T07:23:34.977Z</time></trkpt><trkpt lat="40.7029179" lon="9.1667662"><ele>261.0</ele><time>2026-04-21T07:23:35.974Z</time></trkpt><trkpt lat="40.7028452" lon="9.1666618"><ele>261.0</ele><time>2026-04-21T07:23:36.976Z</time></trkpt><trkpt lat="40.7027813" lon="9.1665316"><ele>261.0</ele><time>2026-04-21T07:23:37.973Z</time></trkpt><trkpt lat="40.7027289" lon="9.166402"><ele>261.0</ele><time>2026-04-21T07:23:38.975Z</time></trkpt><trkpt lat="40.7026844" lon="9.1662572"><ele>260.6</ele><time>2026-04-21T07:23:39.98Z</time></trkpt><trkpt lat="40.7026585" lon="9.1661231"><ele>260.20000000000005</ele><time>2026-04-21T07:23:40.981Z</time></trkpt><trkpt lat="40.7026271" lon="9.1659798"><ele>259.79999999999995</ele><time>2026-04-21T07:23:41.98Z</time></trkpt><trkpt lat="40.7025965" lon="9.1658514"><ele>259.4</ele><time>2026-04-21T07:23:42.979Z</time></trkpt><trkpt lat="40.7025537" lon="9.1657437"><ele>259.0</ele><time>2026-04-21T07:23:43.974Z</time></trkpt><trkpt lat="40.702498" lon="9.1656544"><ele>259.0</ele><time>2026-04-21T07:23:44.982Z</time></trkpt><trkpt lat="40.7024381" lon="9.1655747"><ele>259.0</ele><time>2026-04-21T07:23:45.978Z</time></trkpt><trkpt lat="40.7023712" lon="9.1654987"><ele>259.0</ele><time>2026-04-21T07:23:46.981Z</time></trkpt><trkpt lat="40.7023021" lon="9.1654429"><ele>259.0</ele><time>2026-04-21T07:23:47.984Z</time></trkpt><trkpt lat="40.7022307" lon="9.1653858"><ele>259.0</ele><time>2026-04-21T07:23:48.984Z</time></trkpt><trkpt lat="40.702162" lon="9.1653213"><ele>259.0</ele><time>2026-04-21T07:23:49.985Z</time></trkpt><trkpt lat="40.7021014" lon="9.1652522"><ele>259.0</ele><time>2026-04-21T07:23:50.98Z</time></trkpt><trkpt lat="40.7020342" lon="9.1651735"><ele>259.0</ele><time>2026-04-21T07:23:51.981Z</time></trkpt><trkpt lat="40.7019744" lon="9.1650959"><ele>259.0</ele><time>2026-04-21T07:23:52.985Z</time></trkpt><trkpt lat="40.7019034" lon="9.1650271"><ele>259.0</ele><time>2026-04-21T07:23:53.982Z</time></trkpt><trkpt lat="40.7018347" lon="9.1649651"><ele>259.0</ele><time>2026-04-21T07:23:54.978Z</time></trkpt><trkpt lat="40.7017755" lon="9.1649054"><ele>259.0</ele><time>2026-04-21T07:23:55.976Z</time></trkpt><trkpt lat="40.7017137" lon="9.1648588"><ele>258.66666666666663</ele><time>2026-04-21T07:23:56.973Z</time></trkpt><trkpt lat="40.7016187" lon="9.1647917"><ele>258.3333333333333</ele><time>2026-04-21T07:23:58.965Z</time></trkpt><trkpt lat="40.7015841" lon="9.164658"><ele>258.0</ele><time>2026-04-21T07:24:00.971Z</time></trkpt><trkpt lat="40.7015872" lon="9.1645683"><ele>257.6666666666667</ele><time>2026-04-21T07:24:01.973Z</time></trkpt><trkpt lat="40.7016004" lon="9.1644732"><ele>257.33333333333337</ele><time>2026-04-21T07:24:02.978Z</time></trkpt><trkpt lat="40.7016066" lon="9.1643899"><ele>257.0</ele><time>2026-04-21T07:24:03.972Z</time></trkpt><trkpt lat="40.7016174" lon="9.164304"><ele>257.0</ele><time>2026-04-21T07:24:04.975Z</time></trkpt><trkpt lat="40.7016211" lon="9.1642043"><ele>257.0</ele><time>2026-04-21T07:24:05.977Z</time></trkpt><trkpt lat="40.701619" lon="9.164103"><ele>257.0</ele><time>2026-04-21T07:24:06.977Z</time></trkpt><trkpt lat="40.7016162" lon="9.1640036"><ele>257.0</ele><time>2026-04-21T07:24:07.976Z</time></trkpt><trkpt lat="40.7016137" lon="9.1638886"><ele>257.0</ele><time>2026-04-21T07:24:08.975Z</time></trkpt><trkpt lat="40.7016116" lon="9.1637644"><ele>257.0</ele><time>2026-04-21T07:24:09.981Z</time></trkpt><trkpt lat="40.7016001" lon="9.1636502"><ele>256.83333333333337</ele><time>2026-04-21T07:24:10.978Z</time></trkpt><trkpt lat="40.7015831" lon="9.1635353"><ele>256.6666666666667</ele><time>2026-04-21T07:24:11.98Z</time></trkpt><trkpt lat="40.7015643" lon="9.163422"><ele>256.5</ele><time>2026-04-21T07:24:12.978Z</time></trkpt><trkpt lat="40.7015395" lon="9.1633078"><ele>256.3333333333333</ele><time>2026-04-21T07:24:13.98Z</time></trkpt><trkpt lat="40.7015133" lon="9.1632036"><ele>256.16666666666663</ele><time>2026-04-21T07:24:14.977Z</time></trkpt><trkpt lat="40.7014841" lon="9.1631035"><ele>256.0</ele><time>2026-04-21T07:24:15.979Z</time></trkpt><trkpt lat="40.7014528" lon="9.1630076"><ele>256.3333333333333</ele><time>2026-04-21T07:24:16.982Z</time></trkpt><trkpt lat="40.7014136" lon="9.1629202"><ele>256.66666666666663</ele><time>2026-04-21T07:24:17.981Z</time></trkpt><trkpt lat="40.7013754" lon="9.162834"><ele>257.0</ele><time>2026-04-21T07:24:18.976Z</time></trkpt><trkpt lat="40.7013224" lon="9.1627467"><ele>257.3333333333333</ele><time>2026-04-21T07:24:19.978Z</time></trkpt><trkpt lat="40.7012764" lon="9.1626603"><ele>257.6666666666667</ele><time>2026-04-21T07:24:20.982Z</time></trkpt><trkpt lat="40.7012264" lon="9.1625853"><ele>258.0</ele><time>2026-04-21T07:24:21.976Z</time></trkpt><trkpt lat="40.7011709" lon="9.1625181"><ele>258.0</ele><time>2026-04-21T07:24:22.976Z</time></trkpt><trkpt lat="40.7011182" lon="9.1624554"><ele>258.0</ele><time>2026-04-21T07:24:23.978Z</time></trkpt><trkpt lat="40.7010671" lon="9.1623934"><ele>258.0</ele><time>2026-04-21T07:24:24.972Z</time></trkpt><trkpt lat="40.7010242" lon="9.1622596"><ele>258.0</ele><time>2026-04-21T07:24:26.966Z</time></trkpt><trkpt lat="40.7010553" lon="9.1620871"><ele>258.0</ele><time>2026-04-21T07:24:28.973Z</time></trkpt><trkpt lat="40.7010869" lon="9.1619787"><ele>256.6666666666667</ele><time>2026-04-21T07:24:29.972Z</time></trkpt><trkpt lat="40.7010998" lon="9.161868"><ele>255.33333333333331</ele><time>2026-04-21T07:24:30.971Z</time></trkpt><trkpt lat="40.7011092" lon="9.1617589"><ele>254.0</ele><time>2026-04-21T07:24:31.974Z</time></trkpt><trkpt lat="40.7011254" lon="9.1616522"><ele>252.66666666666666</ele><time>2026-04-21T07:24:32.972Z</time></trkpt><trkpt lat="40.7011397" lon="9.161548"><ele>251.33333333333331</ele><time>2026-04-21T07:24:33.976Z</time></trkpt><trkpt lat="40.7011633" lon="9.1614429"><ele>250.0</ele><time>2026-04-21T07:24:34.977Z</time></trkpt><trkpt lat="40.7011918" lon="9.1613466"><ele>249.99999999999997</ele><time>2026-04-21T07:24:35.974Z</time></trkpt><trkpt lat="40.7012301" lon="9.1612548"><ele>250.0</ele><time>2026-04-21T07:24:36.969Z</time></trkpt><trkpt lat="40.7012892" lon="9.1611775"><ele>250.0</ele><time>2026-04-21T07:24:37.97Z</time></trkpt><trkpt lat="40.7013477" lon="9.1610959"><ele>250.0</ele><time>2026-04-21T07:24:38.978Z</time></trkpt><trkpt lat="40.7013877" lon="9.1610142"><ele>249.99999999999997</ele><time>2026-04-21T07:24:39.971Z</time></trkpt><trkpt lat="40.7014079" lon="9.1609222"><ele>250.0</ele><time>2026-04-21T07:24:40.967Z</time></trkpt><trkpt lat="40.7014121" lon="9.1608175"><ele>250.0</ele><time>2026-04-21T07:24:41.967Z</time></trkpt><trkpt lat="40.7013993" lon="9.1607095"><ele>250.0</ele><time>2026-04-21T07:24:42.974Z</time></trkpt><trkpt lat="40.7013614" lon="9.1605899"><ele>250.0</ele><time>2026-04-21T07:24:43.976Z</time></trkpt><trkpt lat="40.7013081" lon="9.1604526"><ele>250.0</ele><time>2026-04-21T07:24:44.975Z</time></trkpt><trkpt lat="40.7012544" lon="9.1603252"><ele>250.0</ele><time>2026-04-21T07:24:45.973Z</time></trkpt><trkpt lat="40.7012034" lon="9.1601929"><ele>251.6</ele><time>2026-04-21T07:24:46.98Z</time></trkpt><trkpt lat="40.7011565" lon="9.1600761"><ele>253.2</ele><time>2026-04-21T07:24:47.977Z</time></trkpt><trkpt lat="40.7011108" lon="9.1599583"><ele>254.8</ele><time>2026-04-21T07:24:48.977Z</time></trkpt><trkpt lat="40.7010732" lon="9.1598566"><ele>256.4</ele><time>2026-04-21T07:24:49.975Z</time></trkpt><trkpt lat="40.7010591" lon="9.1597493"><ele>258.0</ele><time>2026-04-21T07:24:50.97Z</time></trkpt><trkpt lat="40.7010642" lon="9.1596346"><ele>258.6666666666667</ele><time>2026-04-21T07:24:51.972Z</time></trkpt><trkpt lat="40.7010788" lon="9.1595128"><ele>259.3333333333333</ele><time>2026-04-21T07:24:52.973Z</time></trkpt><trkpt lat="40.7010975" lon="9.1593908"><ele>260.0</ele><time>2026-04-21T07:24:53.972Z</time></trkpt><trkpt lat="40.7011136" lon="9.1592833"><ele>260.66666666666663</ele><time>2026-04-21T07:24:54.972Z</time></trkpt><trkpt lat="40.7011101" lon="9.1591867"><ele>261.3333333333333</ele><time>2026-04-21T07:24:55.971Z</time></trkpt><trkpt lat="40.7010802" lon="9.1590849"><ele>262.0</ele><time>2026-04-21T07:24:56.969Z</time></trkpt><trkpt lat="40.7010337" lon="9.1589738"><ele>262.8</ele><time>2026-04-21T07:24:57.971Z</time></trkpt><trkpt lat="40.7010076" lon="9.1588602"><ele>263.6</ele><time>2026-04-21T07:24:58.967Z</time></trkpt><trkpt lat="40.7009944" lon="9.1587424"><ele>264.40000000000003</ele><time>2026-04-21T07:24:59.967Z</time></trkpt><trkpt lat="40.7010127" lon="9.1586179"><ele>265.2</ele><time>2026-04-21T07:25:00.963Z</time></trkpt><trkpt lat="40.7010427" lon="9.158486"><ele>266.0</ele><time>2026-04-21T07:25:01.969Z</time></trkpt><trkpt lat="40.7010784" lon="9.1583574"><ele>267.40000000000003</ele><time>2026-04-21T07:25:02.97Z</time></trkpt><trkpt lat="40.7011131" lon="9.1582292"><ele>268.8</ele><time>2026-04-21T07:25:03.967Z</time></trkpt><trkpt lat="40.7011403" lon="9.1581047"><ele>270.20000000000005</ele><time>2026-04-21T07:25:04.965Z</time></trkpt><trkpt lat="40.7011473" lon="9.1579706"><ele>271.6</ele><time>2026-04-21T07:25:05.968Z</time></trkpt><trkpt lat="40.7011406" lon="9.1578397"><ele>273.0</ele><time>2026-04-21T07:25:06.969Z</time></trkpt><trkpt lat="40.7011259" lon="9.1577165"><ele>274.6</ele><time>2026-04-21T07:25:07.968Z</time></trkpt><trkpt lat="40.7011147" lon="9.1575935"><ele>276.20000000000005</ele><time>2026-04-21T07:25:08.974Z</time></trkpt><trkpt lat="40.701124" lon="9.1574751"><ele>277.8</ele><time>2026-04-21T07:25:09.968Z</time></trkpt><trkpt lat="40.7011551" lon="9.1573557"><ele>279.40000000000003</ele><time>2026-04-21T07:25:10.963Z</time></trkpt><trkpt lat="40.7012045" lon="9.1572408"><ele>281.0</ele><time>2026-04-21T07:25:11.969Z</time></trkpt><trkpt lat="40.7012577" lon="9.1571054"><ele>281.40000000000003</ele><time>2026-04-21T07:25:12.974Z</time></trkpt><trkpt lat="40.7013153" lon="9.1569786"><ele>281.8</ele><time>2026-04-21T07:25:13.972Z</time></trkpt><trkpt lat="40.7013564" lon="9.1568397"><ele>282.20000000000005</ele><time>2026-04-21T07:25:14.967Z</time></trkpt><trkpt lat="40.7013895" lon="9.1567253"><ele>282.6</ele><time>2026-04-21T07:25:15.97Z</time></trkpt><trkpt lat="40.7014153" lon="9.1566214"><ele>283.0</ele><time>2026-04-21T07:25:16.968Z</time></trkpt><trkpt lat="40.7014186" lon="9.1565116"><ele>283.6</ele><time>2026-04-21T07:25:17.972Z</time></trkpt><trkpt lat="40.7014045" lon="9.1563831"><ele>284.20000000000005</ele><time>2026-04-21T07:25:18.967Z</time></trkpt><trkpt lat="40.7013761" lon="9.1562414"><ele>284.8</ele><time>2026-04-21T07:25:19.976Z</time></trkpt><trkpt lat="40.7013396" lon="9.1560917"><ele>285.40000000000003</ele><time>2026-04-21T07:25:20.973Z</time></trkpt><trkpt lat="40.7012985" lon="9.1559589"><ele>286.0</ele><time>2026-04-21T07:25:21.972Z</time></trkpt><trkpt lat="40.7012524" lon="9.1558418"><ele>286.0</ele><time>2026-04-21T07:25:22.978Z</time></trkpt><trkpt lat="40.7011992" lon="9.1557191"><ele>286.0</ele><time>2026-04-21T07:25:23.974Z</time></trkpt><trkpt lat="40.701143" lon="9.1556093"><ele>286.0</ele><time>2026-04-21T07:25:24.967Z</time></trkpt><trkpt lat="40.7010852" lon="9.1555154"><ele>286.0</ele><time>2026-04-21T07:25:25.97Z</time></trkpt><trkpt lat="40.7010154" lon="9.1554463"><ele>286.0</ele><time>2026-04-21T07:25:26.965Z</time></trkpt><trkpt lat="40.7009209" lon="9.1554004"><ele>287.0</ele><time>2026-04-21T07:25:27.97Z</time></trkpt><trkpt lat="40.7008181" lon="9.1553501"><ele>288.0</ele><time>2026-04-21T07:25:28.971Z</time></trkpt><trkpt lat="40.7007009" lon="9.1553114"><ele>289.0</ele><time>2026-04-21T07:25:29.973Z</time></trkpt><trkpt lat="40.7005713" lon="9.1552697"><ele>290.0</ele><time>2026-04-21T07:25:30.978Z</time></trkpt><trkpt lat="40.7004466" lon="9.1552196"><ele>290.0</ele><time>2026-04-21T07:25:31.976Z</time></trkpt><trkpt lat="40.7003186" lon="9.1551661"><ele>290.0</ele><time>2026-04-21T07:25:32.977Z</time></trkpt><trkpt lat="40.7001899" lon="9.1551235"><ele>290.0</ele><time>2026-04-21T07:25:33.976Z</time></trkpt><trkpt lat="40.700062" lon="9.1550804"><ele>290.0</ele><time>2026-04-21T07:25:34.979Z</time></trkpt><trkpt lat="40.6999277" lon="9.1550373"><ele>291.5</ele><time>2026-04-21T07:25:35.976Z</time></trkpt><trkpt lat="40.6997903" lon="9.1550049"><ele>293.0</ele><time>2026-04-21T07:25:36.979Z</time></trkpt><trkpt lat="40.6996752" lon="9.1549724"><ele>294.5</ele><time>2026-04-21T07:25:37.974Z</time></trkpt><trkpt lat="40.6995584" lon="9.1549443"><ele>296.0</ele><time>2026-04-21T07:25:38.973Z</time></trkpt><trkpt lat="40.6994329" lon="9.1549065"><ele>300.25</ele><time>2026-04-21T07:25:39.972Z</time></trkpt><trkpt lat="40.69931" lon="9.15487"><ele>304.5</ele><time>2026-04-21T07:25:40.973Z</time></trkpt><trkpt lat="40.6991793" lon="9.1548422"><ele>308.75</ele><time>2026-04-21T07:25:41.974Z</time></trkpt><trkpt lat="40.6990531" lon="9.1547939"><ele>313.0</ele><time>2026-04-21T07:25:42.974Z</time></trkpt><trkpt lat="40.6989194" lon="9.1547398"><ele>313.0</ele><time>2026-04-21T07:25:43.98Z</time></trkpt><trkpt lat="40.6988006" lon="9.1546774"><ele>313.0</ele><time>2026-04-21T07:25:44.972Z</time></trkpt><trkpt lat="40.6986768" lon="9.1546284"><ele>313.0</ele><time>2026-04-21T07:25:45.976Z</time></trkpt><trkpt lat="40.6985379" lon="9.1546074"><ele>313.0</ele><time>2026-04-21T07:25:46.979Z</time></trkpt><trkpt lat="40.6984008" lon="9.1545698"><ele>316.0</ele><time>2026-04-21T07:25:47.972Z</time></trkpt><trkpt lat="40.6982693" lon="9.1545305"><ele>319.0</ele><time>2026-04-21T07:25:48.976Z</time></trkpt><trkpt lat="40.6981285" lon="9.1545245"><ele>322.0</ele><time>2026-04-21T07:25:49.974Z</time></trkpt><trkpt lat="40.6979863" lon="9.1545177"><ele>325.0</ele><time>2026-04-21T07:25:50.976Z</time></trkpt><trkpt lat="40.6978482" lon="9.1545285"><ele>327.0</ele><time>2026-04-21T07:25:51.973Z</time></trkpt><trkpt lat="40.6977104" lon="9.1545517"><ele>329.0</ele><time>2026-04-21T07:25:52.979Z</time></trkpt><trkpt lat="40.6975695" lon="9.154577"><ele>331.0</ele><time>2026-04-21T07:25:53.973Z</time></trkpt><trkpt lat="40.697429" lon="9.1545963"><ele>333.0</ele><time>2026-04-21T07:25:54.976Z</time></trkpt><trkpt lat="40.6972838" lon="9.1546244"><ele>333.0</ele><time>2026-04-21T07:25:55.97Z</time></trkpt><trkpt lat="40.6971299" lon="9.1546488"><ele>333.0</ele><time>2026-04-21T07:25:56.974Z</time></trkpt><trkpt lat="40.6970028" lon="9.1546742"><ele>333.0</ele><time>2026-04-21T07:25:57.976Z</time></trkpt><trkpt lat="40.6968724" lon="9.1546868"><ele>333.0</ele><time>2026-04-21T07:25:58.973Z</time></trkpt><trkpt lat="40.6967448" lon="9.1546941"><ele>337.0</ele><time>2026-04-21T07:25:59.972Z</time></trkpt><trkpt lat="40.6966178" lon="9.1547125"><ele>341.0</ele><time>2026-04-21T07:26:00.974Z</time></trkpt><trkpt lat="40.696496" lon="9.1547315"><ele>345.0</ele><time>2026-04-21T07:26:01.974Z</time></trkpt><trkpt lat="40.6963628" lon="9.1547725"><ele>349.0</ele><time>2026-04-21T07:26:02.97Z</time></trkpt><trkpt lat="40.6962299" lon="9.1548"><ele>349.0</ele><time>2026-04-21T07:26:03.976Z</time></trkpt><trkpt lat="40.6961028" lon="9.1548114"><ele>349.0</ele><time>2026-04-21T07:26:04.969Z</time></trkpt><trkpt lat="40.6959786" lon="9.1548003"><ele>349.0</ele><time>2026-04-21T07:26:05.967Z</time></trkpt><trkpt lat="40.6958527" lon="9.1547643"><ele>349.0</ele><time>2026-04-21T07:26:06.971Z</time></trkpt><trkpt lat="40.6957399" lon="9.1547168"><ele>350.2</ele><time>2026-04-21T07:26:07.972Z</time></trkpt><trkpt lat="40.6956498" lon="9.1546625"><ele>351.4</ele><time>2026-04-21T07:26:08.971Z</time></trkpt><trkpt lat="40.6955616" lon="9.1546023"><ele>352.6</ele><time>2026-04-21T07:26:09.97Z</time></trkpt><trkpt lat="40.6954652" lon="9.1545453"><ele>353.8</ele><time>2026-04-21T07:26:10.964Z</time></trkpt><trkpt lat="40.695363" lon="9.1544995"><ele>355.0</ele><time>2026-04-21T07:26:11.963Z</time></trkpt><trkpt lat="40.6952543" lon="9.1544966"><ele>355.5</ele><time>2026-04-21T07:26:12.97Z</time></trkpt><trkpt lat="40.695141" lon="9.154534"><ele>356.0</ele><time>2026-04-21T07:26:13.975Z</time></trkpt><trkpt lat="40.6950375" lon="9.1546002"><ele>356.5</ele><time>2026-04-21T07:26:14.969Z</time></trkpt><trkpt lat="40.6949339" lon="9.154686"><ele>357.0</ele><time>2026-04-21T07:26:15.969Z</time></trkpt><trkpt lat="40.6948303" lon="9.154784"><ele>357.75</ele><time>2026-04-21T07:26:16.99Z</time></trkpt><trkpt lat="40.6947298" lon="9.154872"><ele>358.5</ele><time>2026-04-21T07:26:17.979Z</time></trkpt><trkpt lat="40.6946254" lon="9.1549457"><ele>359.25</ele><time>2026-04-21T07:26:19.06Z</time></trkpt><trkpt lat="40.6945148" lon="9.1550121"><ele>360.0</ele><time>2026-04-21T07:26:20.059Z</time></trkpt><trkpt lat="40.6944116" lon="9.1551045"><ele>360.0</ele><time>2026-04-21T07:26:21.063Z</time></trkpt><trkpt lat="40.6943074" lon="9.155199"><ele>360.0</ele><time>2026-04-21T07:26:22.059Z</time></trkpt><trkpt lat="40.6942095" lon="9.155304"><ele>360.0</ele><time>2026-04-21T07:26:23.063Z</time></trkpt><trkpt lat="40.6941132" lon="9.1554053"><ele>360.0</ele><time>2026-04-21T07:26:24.063Z</time></trkpt><trkpt lat="40.6940186" lon="9.1555126"><ele>360.0</ele><time>2026-04-21T07:26:25.059Z</time></trkpt><trkpt lat="40.693907" lon="9.1555992"><ele>360.0</ele><time>2026-04-21T07:26:26.056Z</time></trkpt><trkpt lat="40.6937894" lon="9.1556673"><ele>360.0</ele><time>2026-04-21T07:26:27.052Z</time></trkpt><trkpt lat="40.6936923" lon="9.1557138"><ele>360.0</ele><time>2026-04-21T07:26:28.056Z</time></trkpt><trkpt lat="40.6935748" lon="9.155757"><ele>362.5</ele><time>2026-04-21T07:26:29.039Z</time></trkpt><trkpt lat="40.6934649" lon="9.1557971"><ele>365.0</ele><time>2026-04-21T07:26:30.042Z</time></trkpt><trkpt lat="40.6933515" lon="9.1558339"><ele>367.5</ele><time>2026-04-21T07:26:31.041Z</time></trkpt><trkpt lat="40.6932357" lon="9.1558732"><ele>370.0</ele><time>2026-04-21T07:26:32.035Z</time></trkpt><trkpt lat="40.6931184" lon="9.1559017"><ele>370.0</ele><time>2026-04-21T07:26:33.057Z</time></trkpt><trkpt lat="40.6929997" lon="9.155913"><ele>370.0</ele><time>2026-04-21T07:26:34.048Z</time></trkpt><trkpt lat="40.6928845" lon="9.1559122"><ele>370.0</ele><time>2026-04-21T07:26:35.051Z</time></trkpt><trkpt lat="40.6927717" lon="9.1559065"><ele>370.0</ele><time>2026-04-21T07:26:36.039Z</time></trkpt><trkpt lat="40.6926351" lon="9.1558755"><ele>371.0</ele><time>2026-04-21T07:26:37.04Z</time></trkpt><trkpt lat="40.6925167" lon="9.1558733"><ele>372.0</ele><time>2026-04-21T07:26:38.047Z</time></trkpt><trkpt lat="40.6924024" lon="9.1558857"><ele>373.0</ele><time>2026-04-21T07:26:39.049Z</time></trkpt><trkpt lat="40.6923044" lon="9.1559118"><ele>374.0</ele><time>2026-04-21T07:26:40.058Z</time></trkpt><trkpt lat="40.6921932" lon="9.1559546"><ele>375.0</ele><time>2026-04-21T07:26:41.063Z</time></trkpt><trkpt lat="40.692082" lon="9.1559836"><ele>375.0</ele><time>2026-04-21T07:26:42.047Z</time></trkpt><trkpt lat="40.6919915" lon="9.1559964"><ele>375.0</ele><time>2026-04-21T07:26:43.051Z</time></trkpt><trkpt lat="40.6919141" lon="9.1559878"><ele>375.0</ele><time>2026-04-21T07:26:44.053Z</time></trkpt><trkpt lat="40.6918403" lon="9.1559595"><ele>375.0</ele><time>2026-04-21T07:26:45.051Z</time></trkpt><trkpt lat="40.6917645" lon="9.1559167"><ele>375.0</ele><time>2026-04-21T07:26:46.065Z</time></trkpt><trkpt lat="40.6916957" lon="9.1558632"><ele>375.0</ele><time>2026-04-21T07:26:47.077Z</time></trkpt><trkpt lat="40.6916354" lon="9.155811"><ele>375.6666666666667</ele><time>2026-04-21T07:26:48.056Z</time></trkpt><trkpt lat="40.691583" lon="9.155751"><ele>376.3333333333333</ele><time>2026-04-21T07:26:49.044Z</time></trkpt><trkpt lat="40.6915275" lon="9.1556906"><ele>377.0</ele><time>2026-04-21T07:26:50.049Z</time></trkpt><trkpt lat="40.6914719" lon="9.1556402"><ele>377.66666666666663</ele><time>2026-04-21T07:26:51.042Z</time></trkpt><trkpt lat="40.6914146" lon="9.1555613"><ele>378.3333333333333</ele><time>2026-04-21T07:26:52.063Z</time></trkpt><trkpt lat="40.6913477" lon="9.1554851"><ele>379.0</ele><time>2026-04-21T07:26:53.065Z</time></trkpt><trkpt lat="40.6912772" lon="9.1554149"><ele>379.0</ele><time>2026-04-21T07:26:54.06Z</time></trkpt><trkpt lat="40.6912023" lon="9.1553437"><ele>379.0</ele><time>2026-04-21T07:26:55.059Z</time></trkpt><trkpt lat="40.6911218" lon="9.155285"><ele>379.0</ele><time>2026-04-21T07:26:56.065Z</time></trkpt><trkpt lat="40.6910411" lon="9.155231"><ele>379.0</ele><time>2026-04-21T07:26:57.062Z</time></trkpt><trkpt lat="40.6909564" lon="9.1551817"><ele>379.0</ele><time>2026-04-21T07:26:58.056Z</time></trkpt><trkpt lat="40.6908712" lon="9.1551351"><ele>377.3333333333333</ele><time>2026-04-21T07:26:59.061Z</time></trkpt><trkpt lat="40.690788" lon="9.155093"><ele>375.66666666666663</ele><time>2026-04-21T07:27:00.056Z</time></trkpt><trkpt lat="40.6907042" lon="9.1550603"><ele>374.0</ele><time>2026-04-21T07:27:01.064Z</time></trkpt><trkpt lat="40.6906249" lon="9.1550309"><ele>372.3333333333333</ele><time>2026-04-21T07:27:02.062Z</time></trkpt><trkpt lat="40.6905374" lon="9.1550078"><ele>370.6666666666667</ele><time>2026-04-21T07:27:03.063Z</time></trkpt><trkpt lat="40.6904527" lon="9.1549849"><ele>369.0</ele><time>2026-04-21T07:27:04.059Z</time></trkpt><trkpt lat="40.6903645" lon="9.1549692"><ele>369.0</ele><time>2026-04-21T07:27:05.064Z</time></trkpt><trkpt lat="40.6902739" lon="9.1549584"><ele>369.0</ele><time>2026-04-21T07:27:06.063Z</time></trkpt><trkpt lat="40.6901721" lon="9.1549489"><ele>369.0</ele><time>2026-04-21T07:27:07.066Z</time></trkpt><trkpt lat="40.6900716" lon="9.1549366"><ele>369.0</ele><time>2026-04-21T07:27:08.065Z</time></trkpt><trkpt lat="40.6899674" lon="9.1549198"><ele>369.0</ele><time>2026-04-21T07:27:09.065Z</time></trkpt><trkpt lat="40.6898615" lon="9.1549027"><ele>369.0</ele><time>2026-04-21T07:27:10.063Z</time></trkpt><trkpt lat="40.6897521" lon="9.1548879"><ele>369.0</ele><time>2026-04-21T07:27:11.064Z</time></trkpt><trkpt lat="40.6896396" lon="9.1548809"><ele>369.0</ele><time>2026-04-21T07:27:12.054Z</time></trkpt><trkpt lat="40.6895278" lon="9.154881"><ele>369.0</ele><time>2026-04-21T07:27:13.059Z</time></trkpt><trkpt lat="40.6894149" lon="9.1548812"><ele>369.0</ele><time>2026-04-21T07:27:14.06Z</time></trkpt><trkpt lat="40.689304" lon="9.1548778"><ele>369.0</ele><time>2026-04-21T07:27:15.053Z</time></trkpt><trkpt lat="40.6891915" lon="9.154872"><ele>369.0</ele><time>2026-04-21T07:27:16.054Z</time></trkpt><trkpt lat="40.6890814" lon="9.1548709"><ele>369.0</ele><time>2026-04-21T07:27:17.07Z</time></trkpt><trkpt lat="40.688974" lon="9.1548696"><ele>369.0</ele><time>2026-04-21T07:27:18.059Z</time></trkpt><trkpt lat="40.6888635" lon="9.1548672"><ele>369.0</ele><time>2026-04-21T07:27:19.061Z</time></trkpt><trkpt lat="40.6887514" lon="9.1548654"><ele>368.0</ele><time>2026-04-21T07:27:20.062Z</time></trkpt><trkpt lat="40.6886428" lon="9.1548604"><ele>367.0</ele><time>2026-04-21T07:27:21.061Z</time></trkpt><trkpt lat="40.6885383" lon="9.1548364"><ele>366.0</ele><time>2026-04-21T07:27:22.057Z</time></trkpt><trkpt lat="40.6884354" lon="9.1548024"><ele>365.0</ele><time>2026-04-21T07:27:23.063Z</time></trkpt><trkpt lat="40.6883312" lon="9.1547634"><ele>364.0</ele><time>2026-04-21T07:27:24.049Z</time></trkpt><trkpt lat="40.6882279" lon="9.1547112"><ele>364.0</ele><time>2026-04-21T07:27:25.052Z</time></trkpt><trkpt lat="40.6881263" lon="9.1546549"><ele>364.0</ele><time>2026-04-21T07:27:26.05Z</time></trkpt><trkpt lat="40.6880334" lon="9.1545913"><ele>364.0</ele><time>2026-04-21T07:27:27.045Z</time></trkpt><trkpt lat="40.6879473" lon="9.1545294"><ele>364.0</ele><time>2026-04-21T07:27:28.071Z</time></trkpt><trkpt lat="40.6878634" lon="9.1544518"><ele>364.0</ele><time>2026-04-21T07:27:29.071Z</time></trkpt><trkpt lat="40.6877878" lon="9.1543662"><ele>364.6</ele><time>2026-04-21T07:27:30.067Z</time></trkpt><trkpt lat="40.6877215" lon="9.1542705"><ele>365.2</ele><time>2026-04-21T07:27:31.065Z</time></trkpt><trkpt lat="40.6876685" lon="9.1541596"><ele>365.8</ele><time>2026-04-21T07:27:32.047Z</time></trkpt><trkpt lat="40.6876353" lon="9.1540472"><ele>366.40000000000003</ele><time>2026-04-21T07:27:33.051Z</time></trkpt><trkpt lat="40.6876215" lon="9.1539259"><ele>367.0</ele><time>2026-04-21T07:27:34.051Z</time></trkpt><trkpt lat="40.6876166" lon="9.1537962"><ele>367.20000000000005</ele><time>2026-04-21T07:27:35.054Z</time></trkpt><trkpt lat="40.6876041" lon="9.153675"><ele>367.4</ele><time>2026-04-21T07:27:36.066Z</time></trkpt><trkpt lat="40.6875847" lon="9.1535608"><ele>367.6</ele><time>2026-04-21T07:27:37.063Z</time></trkpt><trkpt lat="40.6875647" lon="9.1534456"><ele>367.79999999999995</ele><time>2026-04-21T07:27:38.06Z</time></trkpt><trkpt lat="40.6875271" lon="9.1533402"><ele>368.0</ele><time>2026-04-21T07:27:39.062Z</time></trkpt><trkpt lat="40.6874859" lon="9.1532315"><ele>367.0</ele><time>2026-04-21T07:27:40.058Z</time></trkpt><trkpt lat="40.6874371" lon="9.1531145"><ele>366.0</ele><time>2026-04-21T07:27:41.041Z</time></trkpt><trkpt lat="40.6873781" lon="9.1529776"><ele>365.0</ele><time>2026-04-21T07:27:42.049Z</time></trkpt><trkpt lat="40.687319" lon="9.1528388"><ele>364.0</ele><time>2026-04-21T07:27:43.05Z</time></trkpt><trkpt lat="40.6872595" lon="9.1527034"><ele>364.0</ele><time>2026-04-21T07:27:44.051Z</time></trkpt><trkpt lat="40.6872039" lon="9.1525831"><ele>364.0</ele><time>2026-04-21T07:27:45.066Z</time></trkpt><trkpt lat="40.6871584" lon="9.1524697"><ele>364.0</ele><time>2026-04-21T07:27:46.064Z</time></trkpt><trkpt lat="40.687123" lon="9.1523635"><ele>364.0</ele><time>2026-04-21T07:27:47.066Z</time></trkpt><trkpt lat="40.6870903" lon="9.1522539"><ele>364.0</ele><time>2026-04-21T07:27:48.072Z</time></trkpt><trkpt lat="40.6870581" lon="9.1521376"><ele>362.79999999999995</ele><time>2026-04-21T07:27:49.054Z</time></trkpt><trkpt lat="40.6870345" lon="9.1520238"><ele>361.59999999999997</ele><time>2026-04-21T07:27:50.054Z</time></trkpt><trkpt lat="40.6870071" lon="9.1519121"><ele>360.4</ele><time>2026-04-21T07:27:51.049Z</time></trkpt><trkpt lat="40.6869611" lon="9.1517955"><ele>359.2</ele><time>2026-04-21T07:27:52.05Z</time></trkpt><trkpt lat="40.6868941" lon="9.1516814"><ele>358.0</ele><time>2026-04-21T07:27:53.061Z</time></trkpt><trkpt lat="40.6868176" lon="9.1516046"><ele>359.4</ele><time>2026-04-21T07:27:54.064Z</time></trkpt><trkpt lat="40.6867355" lon="9.1515191"><ele>360.79999999999995</ele><time>2026-04-21T07:27:55.045Z</time></trkpt><trkpt lat="40.6866415" lon="9.1514478"><ele>362.2</ele><time>2026-04-21T07:27:56.043Z</time></trkpt><trkpt lat="40.6865544" lon="9.1513936"><ele>363.6</ele><time>2026-04-21T07:27:57.042Z</time></trkpt><trkpt lat="40.6864633" lon="9.1513466"><ele>365.0</ele><time>2026-04-21T07:27:58.048Z</time></trkpt><trkpt lat="40.6863806" lon="9.1513107"><ele>365.0</ele><time>2026-04-21T07:27:59.056Z</time></trkpt><trkpt lat="40.6863042" lon="9.1512757"><ele>365.0</ele><time>2026-04-21T07:28:00.056Z</time></trkpt><trkpt lat="40.6862167" lon="9.1512286"><ele>365.0</ele><time>2026-04-21T07:28:01.06Z</time></trkpt><trkpt lat="40.6861303" lon="9.1511639"><ele>365.0</ele><time>2026-04-21T07:28:02.038Z</time></trkpt><trkpt lat="40.6860417" lon="9.1510862"><ele>365.0</ele><time>2026-04-21T07:28:03.044Z</time></trkpt><trkpt lat="40.6859636" lon="9.1509937"><ele>368.2</ele><time>2026-04-21T07:28:04.043Z</time></trkpt><trkpt lat="40.6858849" lon="9.1508937"><ele>371.4</ele><time>2026-04-21T07:28:05.047Z</time></trkpt><trkpt lat="40.6858121" lon="9.1507861"><ele>374.6</ele><time>2026-04-21T07:28:06.063Z</time></trkpt><trkpt lat="40.685749" lon="9.1506701"><ele>377.8</ele><time>2026-04-21T07:28:07.065Z</time></trkpt><trkpt lat="40.685698" lon="9.1505474"><ele>381.0</ele><time>2026-04-21T07:28:08.069Z</time></trkpt><trkpt lat="40.6856419" lon="9.1504242"><ele>381.20000000000005</ele><time>2026-04-21T07:28:09.052Z</time></trkpt><trkpt lat="40.68558" lon="9.150306"><ele>381.40000000000003</ele><time>2026-04-21T07:28:10.051Z</time></trkpt><trkpt lat="40.6855103" lon="9.1501916"><ele>381.6</ele><time>2026-04-21T07:28:11.05Z</time></trkpt><trkpt lat="40.6854345" lon="9.1500815"><ele>381.8</ele><time>2026-04-21T07:28:12.049Z</time></trkpt><trkpt lat="40.6853503" lon="9.1499856"><ele>382.0</ele><time>2026-04-21T07:28:13.063Z</time></trkpt><trkpt lat="40.6852626" lon="9.1499046"><ele>384.40000000000003</ele><time>2026-04-21T07:28:14.056Z</time></trkpt><trkpt lat="40.6851719" lon="9.1498388"><ele>386.8</ele><time>2026-04-21T07:28:15.046Z</time></trkpt><trkpt lat="40.6850756" lon="9.1497949"><ele>389.2</ele><time>2026-04-21T07:28:16.045Z</time></trkpt><trkpt lat="40.6849731" lon="9.149771"><ele>391.6</ele><time>2026-04-21T07:28:17.055Z</time></trkpt><trkpt lat="40.6848534" lon="9.1497522"><ele>394.0</ele><time>2026-04-21T07:28:18.048Z</time></trkpt><trkpt lat="40.6847307" lon="9.149756"><ele>394.0</ele><time>2026-04-21T07:28:19.072Z</time></trkpt><trkpt lat="40.6846032" lon="9.1497486"><ele>394.0</ele><time>2026-04-21T07:28:20.064Z</time></trkpt><trkpt lat="40.6844736" lon="9.1497282"><ele>394.0</ele><time>2026-04-21T07:28:21.062Z</time></trkpt><trkpt lat="40.6843443" lon="9.1497207"><ele>394.0</ele><time>2026-04-21T07:28:22.054Z</time></trkpt><trkpt lat="40.6842103" lon="9.149717"><ele>394.25</ele><time>2026-04-21T07:28:23.066Z</time></trkpt><trkpt lat="40.684079" lon="9.1497222"><ele>394.5</ele><time>2026-04-21T07:28:24.066Z</time></trkpt><trkpt lat="40.6839594" lon="9.1497247"><ele>394.75</ele><time>2026-04-21T07:28:25.059Z</time></trkpt><trkpt lat="40.6838384" lon="9.1497289"><ele>395.0</ele><time>2026-04-21T07:28:26.059Z</time></trkpt><trkpt lat="40.6837119" lon="9.1497355"><ele>395.25</ele><time>2026-04-21T07:28:27.06Z</time></trkpt><trkpt lat="40.6835831" lon="9.149746"><ele>395.5</ele><time>2026-04-21T07:28:28.069Z</time></trkpt><trkpt lat="40.6834541" lon="9.1497551"><ele>395.75</ele><time>2026-04-21T07:28:29.069Z</time></trkpt><trkpt lat="40.6833297" lon="9.1497662"><ele>396.0</ele><time>2026-04-21T07:28:30.068Z</time></trkpt><trkpt lat="40.6832123" lon="9.1497657"><ele>396.0</ele><time>2026-04-21T07:28:31.066Z</time></trkpt><trkpt lat="40.6830985" lon="9.1497508"><ele>396.0</ele><time>2026-04-21T07:28:32.064Z</time></trkpt><trkpt lat="40.6829886" lon="9.1497479"><ele>396.0</ele><time>2026-04-21T07:28:33.066Z</time></trkpt><trkpt lat="40.6828747" lon="9.149724"><ele>396.0</ele><time>2026-04-21T07:28:34.063Z</time></trkpt><trkpt lat="40.6827572" lon="9.1496959"><ele>397.0</ele><time>2026-04-21T07:28:35.056Z</time></trkpt><trkpt lat="40.6826384" lon="9.149661"><ele>398.0</ele><time>2026-04-21T07:28:36.053Z</time></trkpt><trkpt lat="40.6825203" lon="9.1496254"><ele>399.0</ele><time>2026-04-21T07:28:37.051Z</time></trkpt><trkpt lat="40.682404" lon="9.1495885"><ele>400.0</ele><time>2026-04-21T07:28:38.05Z</time></trkpt><trkpt lat="40.6822936" lon="9.149552"><ele>400.0</ele><time>2026-04-21T07:28:39.06Z</time></trkpt><trkpt lat="40.6821809" lon="9.1495104"><ele>400.0</ele><time>2026-04-21T07:28:40.064Z</time></trkpt><trkpt lat="40.6820846" lon="9.1494759"><ele>400.0</ele><time>2026-04-21T07:28:41.058Z</time></trkpt><trkpt lat="40.6819994" lon="9.149454"><ele>400.0</ele><time>2026-04-21T07:28:42.059Z</time></trkpt><trkpt lat="40.6819078" lon="9.1494385"><ele>400.0</ele><time>2026-04-21T07:28:43.06Z</time></trkpt><trkpt lat="40.6818169" lon="9.149443"><ele>400.83333333333337</ele><time>2026-04-21T07:28:44.053Z</time></trkpt><trkpt lat="40.6817375" lon="9.1494749"><ele>401.6666666666667</ele><time>2026-04-21T07:28:45.05Z</time></trkpt><trkpt lat="40.681649" lon="9.1495171"><ele>402.5</ele><time>2026-04-21T07:28:46.043Z</time></trkpt><trkpt lat="40.6815698" lon="9.1495827"><ele>403.33333333333337</ele><time>2026-04-21T07:28:46.956Z</time></trkpt><trkpt lat="40.6814988" lon="9.1495898"><ele>404.1666666666667</ele><time>2026-04-21T07:28:47.948Z</time></trkpt><trkpt lat="40.6814319" lon="9.1495684"><ele>405.0</ele><time>2026-04-21T07:28:48.951Z</time></trkpt><trkpt lat="40.6813554" lon="9.1495258"><ele>405.0</ele><time>2026-04-21T07:28:49.972Z</time></trkpt><trkpt lat="40.6812834" lon="9.1494854"><ele>405.0</ele><time>2026-04-21T07:28:50.973Z</time></trkpt><trkpt lat="40.6812011" lon="9.1494466"><ele>405.0</ele><time>2026-04-21T07:28:51.968Z</time></trkpt><trkpt lat="40.6811149" lon="9.1494326"><ele>405.0</ele><time>2026-04-21T07:28:52.966Z</time></trkpt><trkpt lat="40.6810256" lon="9.1494508"><ele>405.0</ele><time>2026-04-21T07:28:53.966Z</time></trkpt><trkpt lat="40.6809375" lon="9.1494951"><ele>405.0</ele><time>2026-04-21T07:28:54.961Z</time></trkpt><trkpt lat="40.680851" lon="9.1495589"><ele>406.8333333333333</ele><time>2026-04-21T07:28:55.963Z</time></trkpt><trkpt lat="40.6807828" lon="9.1496204"><ele>408.66666666666663</ele><time>2026-04-21T07:28:56.953Z</time></trkpt><trkpt lat="40.680733" lon="9.1496795"><ele>410.5</ele><time>2026-04-21T07:28:57.958Z</time></trkpt><trkpt lat="40.6806285" lon="9.1497498"><ele>412.3333333333333</ele><time>2026-04-21T07:28:59.96Z</time></trkpt><trkpt lat="40.6805564" lon="9.1497421"><ele>414.16666666666663</ele><time>2026-04-21T07:29:00.957Z</time></trkpt><trkpt lat="40.6804905" lon="9.1496886"><ele>416.0</ele><time>2026-04-21T07:29:01.951Z</time></trkpt><trkpt lat="40.6804216" lon="9.1496194"><ele>415.99999999999994</ele><time>2026-04-21T07:29:02.967Z</time></trkpt><trkpt lat="40.680362" lon="9.1495426"><ele>416.0</ele><time>2026-04-21T07:29:03.967Z</time></trkpt><trkpt lat="40.680304" lon="9.1494516"><ele>416.0</ele><time>2026-04-21T07:29:04.97Z</time></trkpt><trkpt lat="40.6802514" lon="9.1493641"><ele>416.0</ele><time>2026-04-21T07:29:05.97Z</time></trkpt><trkpt lat="40.6801955" lon="9.1492812"><ele>415.99999999999994</ele><time>2026-04-21T07:29:06.973Z</time></trkpt><trkpt lat="40.6801484" lon="9.1491952"><ele>416.0</ele><time>2026-04-21T07:29:07.977Z</time></trkpt><trkpt lat="40.6801038" lon="9.1490855"><ele>419.16666666666663</ele><time>2026-04-21T07:29:08.969Z</time></trkpt><trkpt lat="40.6800792" lon="9.1489682"><ele>422.3333333333333</ele><time>2026-04-21T07:29:09.975Z</time></trkpt><trkpt lat="40.6800685" lon="9.1488541"><ele>425.5</ele><time>2026-04-21T07:29:10.978Z</time></trkpt><trkpt lat="40.6800655" lon="9.148748"><ele>428.66666666666663</ele><time>2026-04-21T07:29:11.971Z</time></trkpt><trkpt lat="40.6800583" lon="9.1486377"><ele>431.8333333333333</ele><time>2026-04-21T07:29:12.971Z</time></trkpt><trkpt lat="40.6800621" lon="9.1485336"><ele>435.0</ele><time>2026-04-21T07:29:13.966Z</time></trkpt><trkpt lat="40.6800471" lon="9.1484276"><ele>435.0</ele><time>2026-04-21T07:29:14.968Z</time></trkpt><trkpt lat="40.6800179" lon="9.1483261"><ele>435.0</ele><time>2026-04-21T07:29:15.969Z</time></trkpt><trkpt lat="40.6799855" lon="9.148242"><ele>435.0</ele><time>2026-04-21T07:29:16.974Z</time></trkpt><trkpt lat="40.6799376" lon="9.1481671"><ele>435.0</ele><time>2026-04-21T07:29:17.973Z</time></trkpt><trkpt lat="40.6798804" lon="9.148102"><ele>435.0</ele><time>2026-04-21T07:29:18.966Z</time></trkpt><trkpt lat="40.679807" lon="9.1480558"><ele>435.0</ele><time>2026-04-21T07:29:19.977Z</time></trkpt><trkpt lat="40.6797159" lon="9.1480193"><ele>435.6666666666667</ele><time>2026-04-21T07:29:20.978Z</time></trkpt><trkpt lat="40.6796333" lon="9.147986"><ele>436.33333333333337</ele><time>2026-04-21T07:29:21.979Z</time></trkpt><trkpt lat="40.6795596" lon="9.1479576"><ele>437.0</ele><time>2026-04-21T07:29:22.982Z</time></trkpt><trkpt lat="40.6794914" lon="9.1479335"><ele>437.6666666666667</ele><time>2026-04-21T07:29:23.976Z</time></trkpt><trkpt lat="40.6794112" lon="9.1479059"><ele>438.33333333333337</ele><time>2026-04-21T07:29:24.985Z</time></trkpt><trkpt lat="40.6793247" lon="9.1478663"><ele>439.0</ele><time>2026-04-21T07:29:25.977Z</time></trkpt><trkpt lat="40.6792339" lon="9.1478175"><ele>441.6</ele><time>2026-04-21T07:29:26.979Z</time></trkpt><trkpt lat="40.6791484" lon="9.1477629"><ele>444.2</ele><time>2026-04-21T07:29:27.98Z</time></trkpt><trkpt lat="40.6790478" lon="9.147703"><ele>446.80000000000007</ele><time>2026-04-21T07:29:28.986Z</time></trkpt><trkpt lat="40.6789556" lon="9.1476351"><ele>449.40000000000003</ele><time>2026-04-21T07:29:29.98Z</time></trkpt><trkpt lat="40.6788637" lon="9.1475618"><ele>452.0</ele><time>2026-04-21T07:29:30.98Z</time></trkpt><trkpt lat="40.6787826" lon="9.1474943"><ele>452.0</ele><time>2026-04-21T07:29:31.979Z</time></trkpt><trkpt lat="40.6786887" lon="9.14742"><ele>452.00000000000006</ele><time>2026-04-21T07:29:32.985Z</time></trkpt><trkpt lat="40.6786147" lon="9.1473403"><ele>452.00000000000006</ele><time>2026-04-21T07:29:33.982Z</time></trkpt><trkpt lat="40.6785346" lon="9.1472531"><ele>452.0</ele><time>2026-04-21T07:29:34.98Z</time></trkpt><trkpt lat="40.6784486" lon="9.1471692"><ele>452.0</ele><time>2026-04-21T07:29:35.983Z</time></trkpt><trkpt lat="40.6783639" lon="9.1471002"><ele>456.40000000000003</ele><time>2026-04-21T07:29:36.978Z</time></trkpt><trkpt lat="40.6782807" lon="9.1470528"><ele>460.80000000000007</ele><time>2026-04-21T07:29:37.972Z</time></trkpt><trkpt lat="40.6781843" lon="9.1470342"><ele>465.2</ele><time>2026-04-21T07:29:38.978Z</time></trkpt><trkpt lat="40.6780743" lon="9.1470443"><ele>469.6</ele><time>2026-04-21T07:29:39.976Z</time></trkpt><trkpt lat="40.6779676" lon="9.1470629"><ele>474.0</ele><time>2026-04-21T07:29:40.978Z</time></trkpt><trkpt lat="40.6778752" lon="9.1470874"><ele>475.2</ele><time>2026-04-21T07:29:41.979Z</time></trkpt><trkpt lat="40.6777658" lon="9.1471085"><ele>476.4</ele><time>2026-04-21T07:29:42.973Z</time></trkpt><trkpt lat="40.6776519" lon="9.1471355"><ele>477.6</ele><time>2026-04-21T07:29:43.975Z</time></trkpt><trkpt lat="40.677557" lon="9.1471647"><ele>478.8</ele><time>2026-04-21T07:29:44.968Z</time></trkpt><trkpt lat="40.677483" lon="9.1472054"><ele>480.0</ele><time>2026-04-21T07:29:45.976Z</time></trkpt><trkpt lat="40.6774159" lon="9.14726"><ele>480.0</ele><time>2026-04-21T07:29:46.985Z</time></trkpt><trkpt lat="40.6773336" lon="9.1473181"><ele>480.0</ele><time>2026-04-21T07:29:47.984Z</time></trkpt><trkpt lat="40.6772444" lon="9.147381"><ele>480.0</ele><time>2026-04-21T07:29:48.987Z</time></trkpt><trkpt lat="40.6771455" lon="9.1474306"><ele>480.0</ele><time>2026-04-21T07:29:49.995Z</time></trkpt><trkpt lat="40.677049" lon="9.1474808"><ele>480.0</ele><time>2026-04-21T07:29:50.985Z</time></trkpt><trkpt lat="40.6769553" lon="9.1475154"><ele>478.6</ele><time>2026-04-21T07:29:51.987Z</time></trkpt><trkpt lat="40.6768526" lon="9.1475405"><ele>477.2</ele><time>2026-04-21T07:29:52.988Z</time></trkpt><trkpt lat="40.6767471" lon="9.1475666"><ele>475.79999999999995</ele><time>2026-04-21T07:29:53.989Z</time></trkpt><trkpt lat="40.6766447" lon="9.1475711"><ele>474.4</ele><time>2026-04-21T07:29:54.983Z</time></trkpt><trkpt lat="40.6765429" lon="9.1475745"><ele>473.0</ele><time>2026-04-21T07:29:55.978Z</time></trkpt><trkpt lat="40.676443" lon="9.1475585"><ele>473.0</ele><time>2026-04-21T07:29:56.978Z</time></trkpt><trkpt lat="40.6763398" lon="9.1475408"><ele>472.99999999999994</ele><time>2026-04-21T07:29:57.983Z</time></trkpt><trkpt lat="40.6762439" lon="9.1475103"><ele>472.99999999999994</ele><time>2026-04-21T07:29:58.972Z</time></trkpt><trkpt lat="40.6761517" lon="9.147468"><ele>473.0</ele><time>2026-04-21T07:29:59.977Z</time></trkpt><trkpt lat="40.6760632" lon="9.1474204"><ele>473.0</ele><time>2026-04-21T07:30:00.975Z</time></trkpt><trkpt lat="40.675978" lon="9.1473689"><ele>471.66666666666663</ele><time>2026-04-21T07:30:01.973Z</time></trkpt><trkpt lat="40.6758928" lon="9.1473146"><ele>470.3333333333333</ele><time>2026-04-21T07:30:02.976Z</time></trkpt><trkpt lat="40.6758152" lon="9.1472669"><ele>469.0</ele><time>2026-04-21T07:30:03.973Z</time></trkpt><trkpt lat="40.67574" lon="9.1472132"><ele>467.66666666666663</ele><time>2026-04-21T07:30:04.973Z</time></trkpt><trkpt lat="40.6756655" lon="9.1471565"><ele>466.3333333333333</ele><time>2026-04-21T07:30:05.977Z</time></trkpt><trkpt lat="40.6755828" lon="9.1471041"><ele>465.0</ele><time>2026-04-21T07:30:06.972Z</time></trkpt><trkpt lat="40.6755024" lon="9.1470564"><ele>465.0</ele><time>2026-04-21T07:30:07.973Z</time></trkpt><trkpt lat="40.6754208" lon="9.1470273"><ele>465.0</ele><time>2026-04-21T07:30:08.978Z</time></trkpt><trkpt lat="40.6753319" lon="9.1470311"><ele>465.0</ele><time>2026-04-21T07:30:09.963Z</time></trkpt><trkpt lat="40.6752323" lon="9.1470512"><ele>465.0</ele><time>2026-04-21T07:30:10.965Z</time></trkpt><trkpt lat="40.6751274" lon="9.1470924"><ele>465.0</ele><time>2026-04-21T07:30:11.959Z</time></trkpt><trkpt lat="40.67502" lon="9.1471449"><ele>464.8</ele><time>2026-04-21T07:30:12.97Z</time></trkpt><trkpt lat="40.6749202" lon="9.1471806"><ele>464.6</ele><time>2026-04-21T07:30:13.967Z</time></trkpt><trkpt lat="40.6748169" lon="9.1472056"><ele>464.4</ele><time>2026-04-21T07:30:14.962Z</time></trkpt><trkpt lat="40.6747185" lon="9.1472446"><ele>464.2</ele><time>2026-04-21T07:30:15.968Z</time></trkpt><trkpt lat="40.6746356" lon="9.1472867"><ele>464.0</ele><time>2026-04-21T07:30:16.955Z</time></trkpt><trkpt lat="40.6745532" lon="9.147347"><ele>466.2</ele><time>2026-04-21T07:30:17.964Z</time></trkpt><trkpt lat="40.6744644" lon="9.1474243"><ele>468.4</ele><time>2026-04-21T07:30:18.966Z</time></trkpt><trkpt lat="40.6743736" lon="9.1475095"><ele>470.6</ele><time>2026-04-21T07:30:19.965Z</time></trkpt><trkpt lat="40.6742971" lon="9.1476109"><ele>472.8</ele><time>2026-04-21T07:30:20.967Z</time></trkpt><trkpt lat="40.6742332" lon="9.147715"><ele>475.0</ele><time>2026-04-21T07:30:21.968Z</time></trkpt><trkpt lat="40.6741685" lon="9.1478196"><ele>475.0</ele><time>2026-04-21T07:30:22.97Z</time></trkpt><trkpt lat="40.6741108" lon="9.1479279"><ele>475.0</ele><time>2026-04-21T07:30:23.971Z</time></trkpt><trkpt lat="40.6740721" lon="9.1480504"><ele>475.0</ele><time>2026-04-21T07:30:24.971Z</time></trkpt><trkpt lat="40.6740539" lon="9.1481845"><ele>475.0</ele><time>2026-04-21T07:30:25.963Z</time></trkpt><trkpt lat="40.6740503" lon="9.1483281"><ele>475.0</ele><time>2026-04-21T07:30:26.974Z</time></trkpt><trkpt lat="40.6740571" lon="9.1484726"><ele>477.75</ele><time>2026-04-21T07:30:27.975Z</time></trkpt><trkpt lat="40.674084" lon="9.1486201"><ele>480.5</ele><time>2026-04-21T07:30:28.97Z</time></trkpt><trkpt lat="40.6741104" lon="9.1487712"><ele>483.25</ele><time>2026-04-21T07:30:29.97Z</time></trkpt><trkpt lat="40.6741417" lon="9.148918"><ele>486.0</ele><time>2026-04-21T07:30:30.979Z</time></trkpt><trkpt lat="40.674168" lon="9.1490621"><ele>486.8</ele><time>2026-04-21T07:30:31.973Z</time></trkpt><trkpt lat="40.6741679" lon="9.149207"><ele>487.6</ele><time>2026-04-21T07:30:32.968Z</time></trkpt><trkpt lat="40.6741566" lon="9.1493563"><ele>488.4</ele><time>2026-04-21T07:30:33.972Z</time></trkpt><trkpt lat="40.6741254" lon="9.1495004"><ele>489.2</ele><time>2026-04-21T07:30:34.969Z</time></trkpt><trkpt lat="40.6740838" lon="9.1496227"><ele>490.0</ele><time>2026-04-21T07:30:35.976Z</time></trkpt><trkpt lat="40.6740446" lon="9.1497403"><ele>490.0</ele><time>2026-04-21T07:30:36.969Z</time></trkpt><trkpt lat="40.6740068" lon="9.1498663"><ele>490.0</ele><time>2026-04-21T07:30:37.967Z</time></trkpt><trkpt lat="40.6739652" lon="9.1500059"><ele>490.0</ele><time>2026-04-21T07:30:38.968Z</time></trkpt><trkpt lat="40.6739298" lon="9.1501466"><ele>490.0</ele><time>2026-04-21T07:30:39.973Z</time></trkpt><trkpt lat="40.6739016" lon="9.1502901"><ele>490.0</ele><time>2026-04-21T07:30:40.97Z</time></trkpt><trkpt lat="40.673878" lon="9.1504427"><ele>492.5</ele><time>2026-04-21T07:30:41.976Z</time></trkpt><trkpt lat="40.6738774" lon="9.1506017"><ele>495.0</ele><time>2026-04-21T07:30:42.975Z</time></trkpt><trkpt lat="40.6738842" lon="9.1507743"><ele>497.5</ele><time>2026-04-21T07:30:43.976Z</time></trkpt><trkpt lat="40.6738923" lon="9.1509444"><ele>500.0</ele><time>2026-04-21T07:30:44.971Z</time></trkpt><trkpt lat="40.6738883" lon="9.1511081"><ele>502.75</ele><time>2026-04-21T07:30:45.969Z</time></trkpt><trkpt lat="40.6738737" lon="9.151281"><ele>505.5</ele><time>2026-04-21T07:30:46.971Z</time></trkpt><trkpt lat="40.6738514" lon="9.1514466"><ele>508.25</ele><time>2026-04-21T07:30:47.971Z</time></trkpt><trkpt lat="40.673837" lon="9.1516147"><ele>511.0</ele><time>2026-04-21T07:30:48.964Z</time></trkpt><trkpt lat="40.6738241" lon="9.1517832"><ele>512.75</ele><time>2026-04-21T07:30:49.973Z</time></trkpt><trkpt lat="40.6738113" lon="9.151959"><ele>514.5</ele><time>2026-04-21T07:30:50.968Z</time></trkpt><trkpt lat="40.6738037" lon="9.1521203"><ele>516.25</ele><time>2026-04-21T07:30:51.969Z</time></trkpt><trkpt lat="40.6737958" lon="9.1522847"><ele>518.0</ele><time>2026-04-21T07:30:52.972Z</time></trkpt><trkpt lat="40.6737925" lon="9.1524592"><ele>520.0</ele><time>2026-04-21T07:30:53.974Z</time></trkpt><trkpt lat="40.6737848" lon="9.1526289"><ele>522.0</ele><time>2026-04-21T07:30:54.978Z</time></trkpt><trkpt lat="40.673774" lon="9.1528019"><ele>524.0</ele><time>2026-04-21T07:30:55.97Z</time></trkpt><trkpt lat="40.6737716" lon="9.1529681"><ele>526.0</ele><time>2026-04-21T07:30:56.965Z</time></trkpt><trkpt lat="40.6737734" lon="9.1531151"><ele>525.0</ele><time>2026-04-21T07:30:57.971Z</time></trkpt><trkpt lat="40.6737868" lon="9.1532449"><ele>524.0</ele><time>2026-04-21T07:30:58.972Z</time></trkpt><trkpt lat="40.6738066" lon="9.1533644"><ele>523.0</ele><time>2026-04-21T07:30:59.966Z</time></trkpt><trkpt lat="40.6738475" lon="9.1534689"><ele>522.0</ele><time>2026-04-21T07:31:00.968Z</time></trkpt><trkpt lat="40.6739029" lon="9.153551"><ele>521.0</ele><time>2026-04-21T07:31:01.96Z</time></trkpt><trkpt lat="40.6739859" lon="9.1536303"><ele>521.0</ele><time>2026-04-21T07:31:02.97Z</time></trkpt><trkpt lat="40.6740752" lon="9.1536774"><ele>521.0</ele><time>2026-04-21T07:31:03.966Z</time></trkpt><trkpt lat="40.6741538" lon="9.1537226"><ele>521.0</ele><time>2026-04-21T07:31:04.973Z</time></trkpt><trkpt lat="40.674227" lon="9.1538117"><ele>521.0</ele><time>2026-04-21T07:31:05.967Z</time></trkpt><trkpt lat="40.6742908" lon="9.1539365"><ele>521.0</ele><time>2026-04-21T07:31:06.967Z</time></trkpt><trkpt lat="40.6743319" lon="9.1540696"><ele>519.6</ele><time>2026-04-21T07:31:07.964Z</time></trkpt><trkpt lat="40.6743575" lon="9.1542094"><ele>518.2</ele><time>2026-04-21T07:31:08.964Z</time></trkpt><trkpt lat="40.6743739" lon="9.154357"><ele>516.8</ele><time>2026-04-21T07:31:09.965Z</time></trkpt><trkpt lat="40.6743779" lon="9.154491"><ele>515.4</ele><time>2026-04-21T07:31:10.963Z</time></trkpt><trkpt lat="40.6743892" lon="9.1546269"><ele>514.0</ele><time>2026-04-21T07:31:11.963Z</time></trkpt><trkpt lat="40.6743923" lon="9.1547681"><ele>514.0</ele><time>2026-04-21T07:31:12.96Z</time></trkpt><trkpt lat="40.6743842" lon="9.1549067"><ele>514.0</ele><time>2026-04-21T07:31:13.967Z</time></trkpt><trkpt lat="40.6743652" lon="9.1550449"><ele>514.0</ele><time>2026-04-21T07:31:14.961Z</time></trkpt><trkpt lat="40.6743351" lon="9.1551828"><ele>514.0</ele><time>2026-04-21T07:31:15.963Z</time></trkpt><trkpt lat="40.6743008" lon="9.1553211"><ele>514.0</ele><time>2026-04-21T07:31:16.965Z</time></trkpt><trkpt lat="40.6742604" lon="9.1554453"><ele>514.0</ele><time>2026-04-21T07:31:17.96Z</time></trkpt><trkpt lat="40.6742178" lon="9.1555538"><ele>514.0</ele><time>2026-04-21T07:31:18.954Z</time></trkpt><trkpt lat="40.6741708" lon="9.1556613"><ele>514.0</ele><time>2026-04-21T07:31:19.954Z</time></trkpt><trkpt lat="40.6741229" lon="9.1557589"><ele>514.0</ele><time>2026-04-21T07:31:20.953Z</time></trkpt><trkpt lat="40.6740747" lon="9.1558563"><ele>514.0</ele><time>2026-04-21T07:31:21.953Z</time></trkpt><trkpt lat="40.6740202" lon="9.1559541"><ele>516.5</ele><time>2026-04-21T07:31:22.951Z</time></trkpt><trkpt lat="40.6739607" lon="9.1560618"><ele>519.0</ele><time>2026-04-21T07:31:23.952Z</time></trkpt><trkpt lat="40.673906" lon="9.1561803"><ele>521.5</ele><time>2026-04-21T07:31:24.952Z</time></trkpt><trkpt lat="40.6738502" lon="9.156315"><ele>524.0</ele><time>2026-04-21T07:31:25.953Z</time></trkpt><trkpt lat="40.6738112" lon="9.1564743"><ele>527.5</ele><time>2026-04-21T07:31:26.956Z</time></trkpt><trkpt lat="40.6737877" lon="9.1566328"><ele>531.0</ele><time>2026-04-21T07:31:27.958Z</time></trkpt><trkpt lat="40.673776" lon="9.1567895"><ele>534.5</ele><time>2026-04-21T07:31:28.967Z</time></trkpt><trkpt lat="40.6737787" lon="9.1569544"><ele>538.0</ele><time>2026-04-21T07:31:29.967Z</time></trkpt><trkpt lat="40.6737768" lon="9.1571088"><ele>538.0</ele><time>2026-04-21T07:31:30.962Z</time></trkpt><trkpt lat="40.6737772" lon="9.1572641"><ele>538.0</ele><time>2026-04-21T07:31:31.962Z</time></trkpt><trkpt lat="40.6737749" lon="9.1574216"><ele>538.0</ele><time>2026-04-21T07:31:32.961Z</time></trkpt><trkpt lat="40.6737659" lon="9.1575701"><ele>538.0</ele><time>2026-04-21T07:31:33.959Z</time></trkpt><trkpt lat="40.6737636" lon="9.157734"><ele>539.0</ele><time>2026-04-21T07:31:34.96Z</time></trkpt><trkpt lat="40.673765" lon="9.1578893"><ele>540.0</ele><time>2026-04-21T07:31:35.96Z</time></trkpt><trkpt lat="40.673781" lon="9.1580434"><ele>541.0</ele><time>2026-04-21T07:31:36.957Z</time></trkpt><trkpt lat="40.6738148" lon="9.1582018"><ele>542.0</ele><time>2026-04-21T07:31:37.96Z</time></trkpt><trkpt lat="40.6738494" lon="9.1583453"><ele>542.0</ele><time>2026-04-21T07:31:38.955Z</time></trkpt><trkpt lat="40.673886" lon="9.1584595"><ele>542.0</ele><time>2026-04-21T07:31:39.958Z</time></trkpt><trkpt lat="40.6739183" lon="9.1585522"><ele>542.0</ele><time>2026-04-21T07:31:40.96Z</time></trkpt><trkpt lat="40.6739394" lon="9.1586417"><ele>542.0</ele><time>2026-04-21T07:31:41.959Z</time></trkpt><trkpt lat="40.6739604" lon="9.1587829"><ele>542.0</ele><time>2026-04-21T07:31:43.953Z</time></trkpt><trkpt lat="40.6739751" lon="9.1588674"><ele>542.0</ele><time>2026-04-21T07:31:44.952Z</time></trkpt><trkpt lat="40.6739802" lon="9.1589778"><ele>542.2</ele><time>2026-04-21T07:31:45.952Z</time></trkpt><trkpt lat="40.6740045" lon="9.1591092"><ele>542.4000000000001</ele><time>2026-04-21T07:31:46.955Z</time></trkpt><trkpt lat="40.6740252" lon="9.159234"><ele>542.5999999999999</ele><time>2026-04-21T07:31:47.954Z</time></trkpt><trkpt lat="40.6740495" lon="9.1593589"><ele>542.8</ele><time>2026-04-21T07:31:48.957Z</time></trkpt><trkpt lat="40.6740827" lon="9.1594954"><ele>543.0</ele><time>2026-04-21T07:31:49.963Z</time></trkpt><trkpt lat="40.6741263" lon="9.1596281"><ele>543.0</ele><time>2026-04-21T07:31:50.954Z</time></trkpt><trkpt lat="40.674172" lon="9.1597404"><ele>543.0</ele><time>2026-04-21T07:31:51.954Z</time></trkpt><trkpt lat="40.6742158" lon="9.1598342"><ele>543.0</ele><time>2026-04-21T07:31:52.954Z</time></trkpt><trkpt lat="40.674266" lon="9.1599193"><ele>543.0</ele><time>2026-04-21T07:31:53.959Z</time></trkpt><trkpt lat="40.6743106" lon="9.1599906"><ele>543.0</ele><time>2026-04-21T07:31:54.972Z</time></trkpt><trkpt lat="40.674388" lon="9.1600976"><ele>543.0</ele><time>2026-04-21T07:31:56.97Z</time></trkpt><trkpt lat="40.6744218" lon="9.1601762"><ele>543.4</ele><time>2026-04-21T07:31:58.967Z</time></trkpt><trkpt lat="40.6743951" lon="9.1602687"><ele>543.8</ele><time>2026-04-21T07:32:00.967Z</time></trkpt><trkpt lat="40.6742973" lon="9.1603695"><ele>544.2</ele><time>2026-04-21T07:32:02.969Z</time></trkpt><trkpt lat="40.674233" lon="9.1604104"><ele>544.6</ele><time>2026-04-21T07:32:03.959Z</time></trkpt><trkpt lat="40.6741509" lon="9.1604593"><ele>545.0</ele><time>2026-04-21T07:32:04.969Z</time></trkpt><trkpt lat="40.6740668" lon="9.1605098"><ele>545.0</ele><time>2026-04-21T07:32:05.968Z</time></trkpt><trkpt lat="40.6739821" lon="9.1605507"><ele>545.0</ele><time>2026-04-21T07:32:06.967Z</time></trkpt><trkpt lat="40.6738959" lon="9.1605986"><ele>545.0</ele><time>2026-04-21T07:32:07.971Z</time></trkpt><trkpt lat="40.6738077" lon="9.1606357"><ele>545.0</ele><time>2026-04-21T07:32:08.971Z</time></trkpt><trkpt lat="40.6737224" lon="9.1606731"><ele>545.0</ele><time>2026-04-21T07:32:09.97Z</time></trkpt><trkpt lat="40.6736397" lon="9.16071"><ele>547.5</ele><time>2026-04-21T07:32:10.968Z</time></trkpt><trkpt lat="40.67357" lon="9.160741"><ele>550.0</ele><time>2026-04-21T07:32:11.973Z</time></trkpt><trkpt lat="40.6735045" lon="9.1607902"><ele>552.5</ele><time>2026-04-21T07:32:12.966Z</time></trkpt><trkpt lat="40.6734268" lon="9.1608431"><ele>555.0</ele><time>2026-04-21T07:32:13.965Z</time></trkpt><trkpt lat="40.6733519" lon="9.1608949"><ele>557.5</ele><time>2026-04-21T07:32:14.968Z</time></trkpt><trkpt lat="40.673286" lon="9.1609538"><ele>560.0</ele><time>2026-04-21T07:32:15.963Z</time></trkpt><trkpt lat="40.6731938" lon="9.1610345"><ele>560.0</ele><time>2026-04-21T07:32:17.969Z</time></trkpt><trkpt lat="40.6730919" lon="9.161088"><ele>560.0</ele><time>2026-04-21T07:32:19.965Z</time></trkpt><trkpt lat="40.6730221" lon="9.161109"><ele>560.0</ele><time>2026-04-21T07:32:20.965Z</time></trkpt><trkpt lat="40.6729424" lon="9.1611261"><ele>560.0</ele><time>2026-04-21T07:32:21.966Z</time></trkpt><trkpt lat="40.6728671" lon="9.1611279"><ele>560.0</ele><time>2026-04-21T07:32:22.967Z</time></trkpt><trkpt lat="40.6727877" lon="9.161124"><ele>560.0</ele><time>2026-04-21T07:32:23.967Z</time></trkpt><trkpt lat="40.6727039" lon="9.1611096"><ele>561.5714285714286</ele><time>2026-04-21T07:32:24.966Z</time></trkpt><trkpt lat="40.6726296" lon="9.1611007"><ele>563.1428571428571</ele><time>2026-04-21T07:32:25.964Z</time></trkpt><trkpt lat="40.6725577" lon="9.1610681"><ele>564.7142857142858</ele><time>2026-04-21T07:32:26.968Z</time></trkpt><trkpt lat="40.6724915" lon="9.1610351"><ele>566.2857142857142</ele><time>2026-04-21T07:32:27.974Z</time></trkpt><trkpt lat="40.6724286" lon="9.1609873"><ele>567.8571428571429</ele><time>2026-04-21T07:32:28.974Z</time></trkpt><trkpt lat="40.6723819" lon="9.1609213"><ele>569.4285714285714</ele><time>2026-04-21T07:32:29.962Z</time></trkpt><trkpt lat="40.6723429" lon="9.1608447"><ele>571.0</ele><time>2026-04-21T07:32:30.97Z</time></trkpt><trkpt lat="40.6723099" lon="9.1607553"><ele>569.8333333333334</ele><time>2026-04-21T07:32:31.967Z</time></trkpt><trkpt lat="40.6722904" lon="9.1606757"><ele>568.6666666666667</ele><time>2026-04-21T07:32:32.961Z</time></trkpt><trkpt lat="40.6722789" lon="9.1605069"><ele>567.5</ele><time>2026-04-21T07:32:34.967Z</time></trkpt><trkpt lat="40.6722638" lon="9.1604096"><ele>566.3333333333334</ele><time>2026-04-21T07:32:35.963Z</time></trkpt><trkpt lat="40.6722372" lon="9.1603043"><ele>565.1666666666666</ele><time>2026-04-21T07:32:36.966Z</time></trkpt><trkpt lat="40.6721898" lon="9.1602045"><ele>564.0</ele><time>2026-04-21T07:32:37.973Z</time></trkpt><trkpt lat="40.6721535" lon="9.1601218"><ele>564.0</ele><time>2026-04-21T07:32:38.97Z</time></trkpt><trkpt lat="40.6721128" lon="9.160051"><ele>564.0</ele><time>2026-04-21T07:32:39.974Z</time></trkpt><trkpt lat="40.6720242" lon="9.1599745"><ele>564.0</ele><time>2026-04-21T07:32:41.97Z</time></trkpt><trkpt lat="40.6718828" lon="9.1599272"><ele>564.0</ele><time>2026-04-21T07:32:43.973Z</time></trkpt><trkpt lat="40.6717942" lon="9.159895"><ele>564.0</ele><time>2026-04-21T07:32:44.97Z</time></trkpt><trkpt lat="40.6717066" lon="9.1598691"><ele>565.6</ele><time>2026-04-21T07:32:45.972Z</time></trkpt><trkpt lat="40.6716089" lon="9.1598447"><ele>567.2</ele><time>2026-04-21T07:32:46.974Z</time></trkpt><trkpt lat="40.6715066" lon="9.1598166"><ele>568.8000000000001</ele><time>2026-04-21T07:32:47.975Z</time></trkpt><trkpt lat="40.6714098" lon="9.1597836"><ele>570.4</ele><time>2026-04-21T07:32:48.966Z</time></trkpt><trkpt lat="40.671332" lon="9.1597537"><ele>572.0</ele><time>2026-04-21T07:32:49.975Z</time></trkpt><trkpt lat="40.6712658" lon="9.1597187"><ele>572.0</ele><time>2026-04-21T07:32:50.975Z</time></trkpt><trkpt lat="40.6711926" lon="9.1596823"><ele>572.0</ele><time>2026-04-21T07:32:51.974Z</time></trkpt><trkpt lat="40.6711022" lon="9.1596567"><ele>572.0</ele><time>2026-04-21T07:32:52.97Z</time></trkpt><trkpt lat="40.6710159" lon="9.1596417"><ele>572.0</ele><time>2026-04-21T07:32:53.97Z</time></trkpt><trkpt lat="40.6709263" lon="9.1596506"><ele>572.0</ele><time>2026-04-21T07:32:54.977Z</time></trkpt><trkpt lat="40.6708393" lon="9.1596791"><ele>572.0</ele><time>2026-04-21T07:32:55.973Z</time></trkpt><trkpt lat="40.670747" lon="9.1597181"><ele>574.2</ele><time>2026-04-21T07:32:57.048Z</time></trkpt><trkpt lat="40.6706619" lon="9.1597523"><ele>576.4000000000001</ele><time>2026-04-21T07:32:57.964Z</time></trkpt><trkpt lat="40.6705721" lon="9.159781"><ele>578.5999999999999</ele><time>2026-04-21T07:32:58.959Z</time></trkpt><trkpt lat="40.67048" lon="9.159786"><ele>580.8</ele><time>2026-04-21T07:32:59.963Z</time></trkpt><trkpt lat="40.6703896" lon="9.1597541"><ele>583.0</ele><time>2026-04-21T07:33:00.958Z</time></trkpt><trkpt lat="40.6702883" lon="9.1596918"><ele>586.75</ele><time>2026-04-21T07:33:01.963Z</time></trkpt><trkpt lat="40.6701924" lon="9.1596204"><ele>590.5</ele><time>2026-04-21T07:33:02.96Z</time></trkpt><trkpt lat="40.6700979" lon="9.1595435"><ele>594.25</ele><time>2026-04-21T07:33:03.96Z</time></trkpt><trkpt lat="40.669992" lon="9.1594707"><ele>598.0</ele><time>2026-04-21T07:33:04.957Z</time></trkpt><trkpt lat="40.6698826" lon="9.159409"><ele>598.0</ele><time>2026-04-21T07:33:05.957Z</time></trkpt><trkpt lat="40.6697713" lon="9.159363"><ele>598.0</ele><time>2026-04-21T07:33:06.954Z</time></trkpt><trkpt lat="40.6696625" lon="9.1593101"><ele>598.0</ele><time>2026-04-21T07:33:07.957Z</time></trkpt><trkpt lat="40.6695447" lon="9.1592547"><ele>598.0</ele><time>2026-04-21T07:33:08.963Z</time></trkpt><trkpt lat="40.6694213" lon="9.1591943"><ele>599.6</ele><time>2026-04-21T07:33:09.96Z</time></trkpt><trkpt lat="40.6693121" lon="9.159125"><ele>601.1999999999999</ele><time>2026-04-21T07:33:10.959Z</time></trkpt><trkpt lat="40.6692196" lon="9.1590519"><ele>602.8</ele><time>2026-04-21T07:33:11.958Z</time></trkpt><trkpt lat="40.6691382" lon="9.158984"><ele>604.4</ele><time>2026-04-21T07:33:12.954Z</time></trkpt><trkpt lat="40.6690545" lon="9.1589229"><ele>606.0</ele><time>2026-04-21T07:33:13.962Z</time></trkpt><trkpt lat="40.6689741" lon="9.1588795"><ele>606.0</ele><time>2026-04-21T07:33:14.953Z</time></trkpt><trkpt lat="40.6689" lon="9.1588641"><ele>606.0</ele><time>2026-04-21T07:33:15.953Z</time></trkpt><trkpt lat="40.6687774" lon="9.1588886"><ele>606.0</ele><time>2026-04-21T07:33:17.953Z</time></trkpt><trkpt lat="40.6687022" lon="9.1589156"><ele>606.0</ele><time>2026-04-21T07:33:18.955Z</time></trkpt><trkpt lat="40.6686081" lon="9.1589498"><ele>606.0</ele><time>2026-04-21T07:33:19.958Z</time></trkpt><trkpt lat="40.6685087" lon="9.1589956"><ele>608.0</ele><time>2026-04-21T07:33:20.957Z</time></trkpt><trkpt lat="40.6684092" lon="9.1590183"><ele>610.0</ele><time>2026-04-21T07:33:21.952Z</time></trkpt><trkpt lat="40.6683186" lon="9.1590185"><ele>612.0</ele><time>2026-04-21T07:33:22.951Z</time></trkpt><trkpt lat="40.6682451" lon="9.1589962"><ele>614.0</ele><time>2026-04-21T07:33:23.945Z</time></trkpt><trkpt lat="40.6681731" lon="9.1589565"><ele>616.0</ele><time>2026-04-21T07:33:24.948Z</time></trkpt><trkpt lat="40.6681069" lon="9.1588993"><ele>618.0</ele><time>2026-04-21T07:33:25.951Z</time></trkpt><trkpt lat="40.6680321" lon="9.1588251"><ele>618.0</ele><time>2026-04-21T07:33:26.952Z</time></trkpt><trkpt lat="40.667945" lon="9.158755"><ele>618.0</ele><time>2026-04-21T07:33:27.954Z</time></trkpt><trkpt lat="40.667854" lon="9.1586781"><ele>618.0</ele><time>2026-04-21T07:33:28.964Z</time></trkpt><trkpt lat="40.6677449" lon="9.1585967"><ele>618.0</ele><time>2026-04-21T07:33:29.961Z</time></trkpt><trkpt lat="40.6676303" lon="9.1585231"><ele>621.0</ele><time>2026-04-21T07:33:30.956Z</time></trkpt><trkpt lat="40.6675093" lon="9.1584524"><ele>624.0</ele><time>2026-04-21T07:33:31.957Z</time></trkpt><trkpt lat="40.6673959" lon="9.1583936"><ele>627.0</ele><time>2026-04-21T07:33:32.953Z</time></trkpt><trkpt lat="40.6672913" lon="9.1583418"><ele>630.0</ele><time>2026-04-21T07:33:33.957Z</time></trkpt><trkpt lat="40.6671906" lon="9.1582856"><ele>630.0</ele><time>2026-04-21T07:33:34.959Z</time></trkpt><trkpt lat="40.6670929" lon="9.158229"><ele>630.0</ele><time>2026-04-21T07:33:35.958Z</time></trkpt><trkpt lat="40.667013" lon="9.158161"><ele>630.0</ele><time>2026-04-21T07:33:36.958Z</time></trkpt><trkpt lat="40.66693" lon="9.158078"><ele>630.0</ele><time>2026-04-21T07:33:37.958Z</time></trkpt><trkpt lat="40.6668642" lon="9.1579967"><ele>630.0</ele><time>2026-04-21T07:33:38.961Z</time></trkpt><trkpt lat="40.6668034" lon="9.1579035"><ele>631.8333333333334</ele><time>2026-04-21T07:33:39.96Z</time></trkpt><trkpt lat="40.6667539" lon="9.1578168"><ele>633.6666666666666</ele><time>2026-04-21T07:33:40.964Z</time></trkpt><trkpt lat="40.6667022" lon="9.1577216"><ele>635.5</ele><time>2026-04-21T07:33:41.965Z</time></trkpt><trkpt lat="40.6666625" lon="9.1576154"><ele>637.3333333333333</ele><time>2026-04-21T07:33:42.963Z</time></trkpt><trkpt lat="40.66662" lon="9.1575098"><ele>639.1666666666666</ele><time>2026-04-21T07:33:43.971Z</time></trkpt><trkpt lat="40.666579" lon="9.1574013"><ele>641.0</ele><time>2026-04-21T07:33:44.971Z</time></trkpt><trkpt lat="40.6665269" lon="9.1573058"><ele>641.1999999999999</ele><time>2026-04-21T07:33:45.977Z</time></trkpt><trkpt lat="40.6664601" lon="9.1572157"><ele>641.4</ele><time>2026-04-21T07:33:46.974Z</time></trkpt><trkpt lat="40.6663784" lon="9.1571265"><ele>641.6</ele><time>2026-04-21T07:33:47.975Z</time></trkpt><trkpt lat="40.6662907" lon="9.1570536"><ele>641.8</ele><time>2026-04-21T07:33:48.977Z</time></trkpt><trkpt lat="40.6662026" lon="9.1569908"><ele>642.0</ele><time>2026-04-21T07:33:49.974Z</time></trkpt><trkpt lat="40.6661122" lon="9.1569318"><ele>644.5</ele><time>2026-04-21T07:33:50.976Z</time></trkpt><trkpt lat="40.6660221" lon="9.1568921"><ele>647.0</ele><time>2026-04-21T07:33:51.981Z</time></trkpt><trkpt lat="40.6659308" lon="9.1568693"><ele>649.5</ele><time>2026-04-21T07:33:52.981Z</time></trkpt><trkpt lat="40.6658444" lon="9.1568591"><ele>652.0</ele><time>2026-04-21T07:33:53.976Z</time></trkpt><trkpt lat="40.6657629" lon="9.1568553"><ele>654.5</ele><time>2026-04-21T07:33:54.974Z</time></trkpt><trkpt lat="40.6656776" lon="9.156864"><ele>657.0</ele><time>2026-04-21T07:33:55.971Z</time></trkpt><trkpt lat="40.6655874" lon="9.1568889"><ele>657.0</ele><time>2026-04-21T07:33:56.975Z</time></trkpt><trkpt lat="40.6654977" lon="9.1569156"><ele>657.0</ele><time>2026-04-21T07:33:57.972Z</time></trkpt><trkpt lat="40.6654193" lon="9.1569307"><ele>657.0</ele><time>2026-04-21T07:33:58.971Z</time></trkpt><trkpt lat="40.665356" lon="9.1569453"><ele>657.0</ele><time>2026-04-21T07:33:59.966Z</time></trkpt><trkpt lat="40.6652586" lon="9.156979"><ele>657.0</ele><time>2026-04-21T07:34:01.982Z</time></trkpt><trkpt lat="40.6651694" lon="9.157095"><ele>657.8333333333334</ele><time>2026-04-21T07:34:03.977Z</time></trkpt><trkpt lat="40.6651482" lon="9.1571923"><ele>658.6666666666666</ele><time>2026-04-21T07:34:04.976Z</time></trkpt><trkpt lat="40.6651644" lon="9.1572802"><ele>659.5</ele><time>2026-04-21T07:34:05.971Z</time></trkpt><trkpt lat="40.6652068" lon="9.1573528"><ele>660.3333333333333</ele><time>2026-04-21T07:34:06.96Z</time></trkpt><trkpt lat="40.6652677" lon="9.1574203"><ele>661.1666666666666</ele><time>2026-04-21T07:34:07.964Z</time></trkpt><trkpt lat="40.6653384" lon="9.1574894"><ele>662.0</ele><time>2026-04-21T07:34:08.977Z</time></trkpt><trkpt lat="40.6654093" lon="9.1575704"><ele>662.0</ele><time>2026-04-21T07:34:09.968Z</time></trkpt><trkpt lat="40.6654519" lon="9.1576472"><ele>662.0</ele><time>2026-04-21T07:34:10.976Z</time></trkpt><trkpt lat="40.6654504" lon="9.1577681"><ele>662.0</ele><time>2026-04-21T07:34:12.974Z</time></trkpt><trkpt lat="40.6653464" lon="9.1578597"><ele>662.0</ele><time>2026-04-21T07:34:14.981Z</time></trkpt><trkpt lat="40.6652641" lon="9.1578899"><ele>662.0</ele><time>2026-04-21T07:34:15.975Z</time></trkpt><trkpt lat="40.6651829" lon="9.1579151"><ele>663.8</ele><time>2026-04-21T07:34:16.987Z</time></trkpt><trkpt lat="40.6650919" lon="9.1579232"><ele>665.6</ele><time>2026-04-21T07:34:17.987Z</time></trkpt><trkpt lat="40.6649959" lon="9.1579368"><ele>667.4</ele><time>2026-04-21T07:34:18.983Z</time></trkpt><trkpt lat="40.6648978" lon="9.157971"><ele>669.1999999999999</ele><time>2026-04-21T07:34:19.983Z</time></trkpt><trkpt lat="40.6647978" lon="9.1580091"><ele>671.0</ele><time>2026-04-21T07:34:20.979Z</time></trkpt><trkpt lat="40.6647081" lon="9.1580569"><ele>671.0</ele><time>2026-04-21T07:34:21.976Z</time></trkpt><trkpt lat="40.6646211" lon="9.1581107"><ele>671.0</ele><time>2026-04-21T07:34:22.977Z</time></trkpt><trkpt lat="40.6645495" lon="9.1581804"><ele>671.0</ele><time>2026-04-21T07:34:23.975Z</time></trkpt><trkpt lat="40.6644895" lon="9.1582656"><ele>671.0</ele><time>2026-04-21T07:34:24.977Z</time></trkpt><trkpt lat="40.6644452" lon="9.1583675"><ele>671.0</ele><time>2026-04-21T07:34:25.977Z</time></trkpt><trkpt lat="40.6644129" lon="9.1584957"><ele>671.75</ele><time>2026-04-21T07:34:26.976Z</time></trkpt><trkpt lat="40.6643858" lon="9.1586326"><ele>672.5</ele><time>2026-04-21T07:34:27.977Z</time></trkpt><trkpt lat="40.6643657" lon="9.1587807"><ele>673.25</ele><time>2026-04-21T07:34:28.971Z</time></trkpt><trkpt lat="40.6643518" lon="9.158934"><ele>674.0</ele><time>2026-04-21T07:34:29.972Z</time></trkpt><trkpt lat="40.6643364" lon="9.1590855"><ele>675.2</ele><time>2026-04-21T07:34:30.97Z</time></trkpt><trkpt lat="40.6643251" lon="9.1592334"><ele>676.4000000000001</ele><time>2026-04-21T07:34:31.974Z</time></trkpt><trkpt lat="40.6643122" lon="9.1593754"><ele>677.6</ele><time>2026-04-21T07:34:32.968Z</time></trkpt><trkpt lat="40.6642954" lon="9.1595195"><ele>678.8</ele><time>2026-04-21T07:34:33.971Z</time></trkpt><trkpt lat="40.6642892" lon="9.1596595"><ele>680.0</ele><time>2026-04-21T07:34:34.975Z</time></trkpt><trkpt lat="40.6642963" lon="9.1598029"><ele>680.6</ele><time>2026-04-21T07:34:35.965Z</time></trkpt><trkpt lat="40.6643196" lon="9.1599237"><ele>681.2</ele><time>2026-04-21T07:34:36.97Z</time></trkpt><trkpt lat="40.6643645" lon="9.1600528"><ele>681.8</ele><time>2026-04-21T07:34:37.969Z</time></trkpt><trkpt lat="40.6643997" lon="9.1601792"><ele>682.4</ele><time>2026-04-21T07:34:38.967Z</time></trkpt><trkpt lat="40.6644281" lon="9.1603147"><ele>683.0</ele><time>2026-04-21T07:34:39.971Z</time></trkpt><trkpt lat="40.6644632" lon="9.160462"><ele>687.5</ele><time>2026-04-21T07:34:40.972Z</time></trkpt><trkpt lat="40.6644967" lon="9.1606156"><ele>692.0</ele><time>2026-04-21T07:34:41.969Z</time></trkpt><trkpt lat="40.6645331" lon="9.1607767"><ele>696.5</ele><time>2026-04-21T07:34:42.974Z</time></trkpt><trkpt lat="40.6645685" lon="9.1609443"><ele>701.0</ele><time>2026-04-21T07:34:43.975Z</time></trkpt><trkpt lat="40.6646099" lon="9.1611166"><ele>702.5</ele><time>2026-04-21T07:34:44.969Z</time></trkpt><trkpt lat="40.6646472" lon="9.1612711"><ele>704.0</ele><time>2026-04-21T07:34:45.97Z</time></trkpt><trkpt lat="40.6646737" lon="9.1614275"><ele>705.5</ele><time>2026-04-21T07:34:46.971Z</time></trkpt><trkpt lat="40.6646786" lon="9.1615795"><ele>707.0</ele><time>2026-04-21T07:34:47.966Z</time></trkpt><trkpt lat="40.6646722" lon="9.1617145"><ele>707.8333333333333</ele><time>2026-04-21T07:34:48.966Z</time></trkpt><trkpt lat="40.664651" lon="9.1618299"><ele>708.6666666666666</ele><time>2026-04-21T07:34:49.97Z</time></trkpt><trkpt lat="40.664635" lon="9.1619406"><ele>709.5</ele><time>2026-04-21T07:34:50.963Z</time></trkpt><trkpt lat="40.6646354" lon="9.1620544"><ele>710.3333333333334</ele><time>2026-04-21T07:34:51.969Z</time></trkpt><trkpt lat="40.6646623" lon="9.1621597"><ele>711.1666666666667</ele><time>2026-04-21T07:34:52.968Z</time></trkpt><trkpt lat="40.6646845" lon="9.1622552"><ele>712.0</ele><time>2026-04-21T07:34:53.968Z</time></trkpt><trkpt lat="40.6646916" lon="9.1623647"><ele>713.6</ele><time>2026-04-21T07:34:54.966Z</time></trkpt><trkpt lat="40.6646784" lon="9.1624734"><ele>715.2</ele><time>2026-04-21T07:34:55.965Z</time></trkpt><trkpt lat="40.6646602" lon="9.1625769"><ele>716.8</ele><time>2026-04-21T07:34:56.96Z</time></trkpt><trkpt lat="40.6646275" lon="9.1626861"><ele>718.4</ele><time>2026-04-21T07:34:57.969Z</time></trkpt><trkpt lat="40.6645682" lon="9.1628053"><ele>720.0</ele><time>2026-04-21T07:34:58.964Z</time></trkpt><trkpt lat="40.6645035" lon="9.1629204"><ele>720.4</ele><time>2026-04-21T07:34:59.966Z</time></trkpt><trkpt lat="40.6644317" lon="9.1630332"><ele>720.8</ele><time>2026-04-21T07:35:00.973Z</time></trkpt><trkpt lat="40.6643637" lon="9.1631508"><ele>721.2</ele><time>2026-04-21T07:35:01.966Z</time></trkpt><trkpt lat="40.6643109" lon="9.1632708"><ele>721.6</ele><time>2026-04-21T07:35:02.974Z</time></trkpt><trkpt lat="40.6642781" lon="9.1634017"><ele>722.0</ele><time>2026-04-21T07:35:03.969Z</time></trkpt><trkpt lat="40.6642599" lon="9.1635396"><ele>722.0</ele><time>2026-04-21T07:35:04.972Z</time></trkpt><trkpt lat="40.6642561" lon="9.1636822"><ele>722.0</ele><time>2026-04-21T07:35:05.967Z</time></trkpt><trkpt lat="40.6642587" lon="9.1638394"><ele>722.0</ele><time>2026-04-21T07:35:06.972Z</time></trkpt><trkpt lat="40.6642649" lon="9.1640046"><ele>722.0</ele><time>2026-04-21T07:35:07.975Z</time></trkpt><trkpt lat="40.6642615" lon="9.1641639"><ele>724.25</ele><time>2026-04-21T07:35:08.973Z</time></trkpt><trkpt lat="40.6642484" lon="9.1643244"><ele>726.5</ele><time>2026-04-21T07:35:09.977Z</time></trkpt><trkpt lat="40.6642391" lon="9.1644735"><ele>728.75</ele><time>2026-04-21T07:35:10.97Z</time></trkpt><trkpt lat="40.6642289" lon="9.1646441"><ele>731.0</ele><time>2026-04-21T07:35:11.973Z</time></trkpt><trkpt lat="40.6642189" lon="9.1648115"><ele>732.0</ele><time>2026-04-21T07:35:12.969Z</time></trkpt><trkpt lat="40.6642056" lon="9.1649933"><ele>733.0</ele><time>2026-04-21T07:35:13.97Z</time></trkpt><trkpt lat="40.6642003" lon="9.1651703"><ele>734.0</ele><time>2026-04-21T07:35:14.972Z</time></trkpt><trkpt lat="40.6641973" lon="9.165344"><ele>735.0</ele><time>2026-04-21T07:35:15.968Z</time></trkpt><trkpt lat="40.6641839" lon="9.1655278"><ele>736.5</ele><time>2026-04-21T07:35:16.975Z</time></trkpt><trkpt lat="40.6641744" lon="9.1657019"><ele>738.0</ele><time>2026-04-21T07:35:17.969Z</time></trkpt><trkpt lat="40.6641678" lon="9.165859"><ele>739.5</ele><time>2026-04-21T07:35:18.972Z</time></trkpt><trkpt lat="40.6641728" lon="9.1660279"><ele>741.0</ele><time>2026-04-21T07:35:19.974Z</time></trkpt><trkpt lat="40.6641822" lon="9.1661866"><ele>741.0</ele><time>2026-04-21T07:35:20.972Z</time></trkpt><trkpt lat="40.6642044" lon="9.1663642"><ele>741.0</ele><time>2026-04-21T07:35:21.976Z</time></trkpt><trkpt lat="40.6642354" lon="9.1665126"><ele>741.0</ele><time>2026-04-21T07:35:22.973Z</time></trkpt><trkpt lat="40.6642537" lon="9.1666526"><ele>741.0</ele><time>2026-04-21T07:35:23.972Z</time></trkpt><trkpt lat="40.6642771" lon="9.1668079"><ele>742.0</ele><time>2026-04-21T07:35:24.975Z</time></trkpt><trkpt lat="40.6642949" lon="9.1669726"><ele>743.0</ele><time>2026-04-21T07:35:25.971Z</time></trkpt><trkpt lat="40.6643063" lon="9.1671317"><ele>744.0</ele><time>2026-04-21T07:35:26.973Z</time></trkpt><trkpt lat="40.6643175" lon="9.1672781"><ele>745.0</ele><time>2026-04-21T07:35:27.972Z</time></trkpt><trkpt lat="40.6643152" lon="9.167393"><ele>746.0</ele><time>2026-04-21T07:35:28.97Z</time></trkpt><trkpt lat="40.6642963" lon="9.1674885"><ele>746.6666666666666</ele><time>2026-04-21T07:35:29.97Z</time></trkpt><trkpt lat="40.6642337" lon="9.1675924"><ele>747.3333333333333</ele><time>2026-04-21T07:35:31.966Z</time></trkpt><trkpt lat="40.6641813" lon="9.1676414"><ele>748.0</ele><time>2026-04-21T07:35:32.965Z</time></trkpt><trkpt lat="40.6641008" lon="9.1676601"><ele>748.6666666666666</ele><time>2026-04-21T07:35:33.965Z</time></trkpt><trkpt lat="40.6640108" lon="9.1676562"><ele>749.3333333333334</ele><time>2026-04-21T07:35:34.961Z</time></trkpt><trkpt lat="40.6639112" lon="9.1676235"><ele>750.0</ele><time>2026-04-21T07:35:35.964Z</time></trkpt><trkpt lat="40.6638145" lon="9.1675701"><ele>750.0</ele><time>2026-04-21T07:35:36.968Z</time></trkpt><trkpt lat="40.6637244" lon="9.1674884"><ele>750.0</ele><time>2026-04-21T07:35:37.971Z</time></trkpt><trkpt lat="40.6636246" lon="9.1673974"><ele>750.0</ele><time>2026-04-21T07:35:38.981Z</time></trkpt><trkpt lat="40.663532" lon="9.1672962"><ele>750.0</ele><time>2026-04-21T07:35:39.982Z</time></trkpt><trkpt lat="40.6634602" lon="9.1672057"><ele>749.2</ele><time>2026-04-21T07:35:40.98Z</time></trkpt><trkpt lat="40.6633979" lon="9.1671315"><ele>748.4</ele><time>2026-04-21T07:35:41.981Z</time></trkpt><trkpt lat="40.663338" lon="9.1670493"><ele>747.5999999999999</ele><time>2026-04-21T07:35:42.983Z</time></trkpt><trkpt lat="40.6632792" lon="9.1669474"><ele>746.8</ele><time>2026-04-21T07:35:43.982Z</time></trkpt><trkpt lat="40.6632211" lon="9.1668425"><ele>746.0</ele><time>2026-04-21T07:35:44.982Z</time></trkpt><trkpt lat="40.6631572" lon="9.1667252"><ele>746.0</ele><time>2026-04-21T07:35:45.981Z</time></trkpt><trkpt lat="40.6631049" lon="9.1665964"><ele>746.0</ele><time>2026-04-21T07:35:46.986Z</time></trkpt><trkpt lat="40.6630595" lon="9.1664746"><ele>746.0</ele><time>2026-04-21T07:35:47.981Z</time></trkpt><trkpt lat="40.6630108" lon="9.166354"><ele>746.0</ele><time>2026-04-21T07:35:48.979Z</time></trkpt><trkpt lat="40.6629733" lon="9.1662516"><ele>746.0</ele><time>2026-04-21T07:35:49.981Z</time></trkpt><trkpt lat="40.6629299" lon="9.1661426"><ele>745.1666666666666</ele><time>2026-04-21T07:35:50.979Z</time></trkpt><trkpt lat="40.6628901" lon="9.1660294"><ele>744.3333333333333</ele><time>2026-04-21T07:35:51.98Z</time></trkpt><trkpt lat="40.6628562" lon="9.1659289"><ele>743.5</ele><time>2026-04-21T07:35:52.982Z</time></trkpt><trkpt lat="40.6628285" lon="9.1658523"><ele>742.6666666666666</ele><time>2026-04-21T07:35:53.978Z</time></trkpt><trkpt lat="40.6627867" lon="9.1657831"><ele>741.8333333333334</ele><time>2026-04-21T07:35:54.979Z</time></trkpt><trkpt lat="40.6627157" lon="9.1657393"><ele>741.0</ele><time>2026-04-21T07:35:55.974Z</time></trkpt><trkpt lat="40.6626426" lon="9.1657157"><ele>742.7142857142857</ele><time>2026-04-21T07:35:56.973Z</time></trkpt><trkpt lat="40.6625665" lon="9.1657224"><ele>744.4285714285714</ele><time>2026-04-21T07:35:57.969Z</time></trkpt><trkpt lat="40.6624874" lon="9.1657375"><ele>746.1428571428571</ele><time>2026-04-21T07:35:58.975Z</time></trkpt><trkpt lat="40.6624152" lon="9.1657519"><ele>747.8571428571429</ele><time>2026-04-21T07:35:59.968Z</time></trkpt><trkpt lat="40.6623465" lon="9.1657781"><ele>749.5714285714287</ele><time>2026-04-21T07:36:00.976Z</time></trkpt><trkpt lat="40.6622797" lon="9.1658111"><ele>751.2857142857143</ele><time>2026-04-21T07:36:01.971Z</time></trkpt><trkpt lat="40.6622165" lon="9.1658539"><ele>753.0</ele><time>2026-04-21T07:36:02.978Z</time></trkpt><trkpt lat="40.6621626" lon="9.1659266"><ele>753.0</ele><time>2026-04-21T07:36:03.973Z</time></trkpt><trkpt lat="40.6621131" lon="9.1660157"><ele>753.0</ele><time>2026-04-21T07:36:04.965Z</time></trkpt><trkpt lat="40.662072" lon="9.1661179"><ele>753.0</ele><time>2026-04-21T07:36:05.969Z</time></trkpt><trkpt lat="40.6620348" lon="9.1662126"><ele>753.0</ele><time>2026-04-21T07:36:06.967Z</time></trkpt><trkpt lat="40.6620057" lon="9.1663063"><ele>753.0</ele><time>2026-04-21T07:36:07.97Z</time></trkpt><trkpt lat="40.6619827" lon="9.166407"><ele>753.0</ele><time>2026-04-21T07:36:08.972Z</time></trkpt><trkpt lat="40.6619671" lon="9.1665029"><ele>753.5999999999999</ele><time>2026-04-21T07:36:09.975Z</time></trkpt><trkpt lat="40.6619552" lon="9.1666086"><ele>754.1999999999999</ele><time>2026-04-21T07:36:10.973Z</time></trkpt><trkpt lat="40.6619475" lon="9.166717"><ele>754.8</ele><time>2026-04-21T07:36:11.971Z</time></trkpt><trkpt lat="40.6619414" lon="9.1668485"><ele>755.4</ele><time>2026-04-21T07:36:12.976Z</time></trkpt><trkpt lat="40.6619261" lon="9.1669819"><ele>756.0</ele><time>2026-04-21T07:36:13.976Z</time></trkpt><trkpt lat="40.661906" lon="9.1671099"><ele>756.4</ele><time>2026-04-21T07:36:14.975Z</time></trkpt><trkpt lat="40.6618855" lon="9.1672444"><ele>756.8</ele><time>2026-04-21T07:36:15.977Z</time></trkpt><trkpt lat="40.6618604" lon="9.167381"><ele>757.1999999999999</ele><time>2026-04-21T07:36:16.978Z</time></trkpt><trkpt lat="40.6618301" lon="9.1675224"><ele>757.5999999999999</ele><time>2026-04-21T07:36:17.977Z</time></trkpt><trkpt lat="40.6617953" lon="9.1676594"><ele>758.0</ele><time>2026-04-21T07:36:18.977Z</time></trkpt><trkpt lat="40.6617603" lon="9.1678033"><ele>758.2</ele><time>2026-04-21T07:36:19.979Z</time></trkpt><trkpt lat="40.6617284" lon="9.1679434"><ele>758.4</ele><time>2026-04-21T07:36:20.982Z</time></trkpt><trkpt lat="40.6616979" lon="9.1680783"><ele>758.6</ele><time>2026-04-21T07:36:21.977Z</time></trkpt><trkpt lat="40.6616635" lon="9.1682135"><ele>758.8000000000001</ele><time>2026-04-21T07:36:22.984Z</time></trkpt><trkpt lat="40.6616278" lon="9.1683449"><ele>759.0</ele><time>2026-04-21T07:36:23.981Z</time></trkpt><trkpt lat="40.6616114" lon="9.168483"><ele>759.4000000000001</ele><time>2026-04-21T07:36:24.979Z</time></trkpt><trkpt lat="40.6616076" lon="9.1686296"><ele>759.8</ele><time>2026-04-21T07:36:25.985Z</time></trkpt><trkpt lat="40.6616008" lon="9.1687605"><ele>760.2</ele><time>2026-04-21T07:36:26.977Z</time></trkpt><trkpt lat="40.6616045" lon="9.1688878"><ele>760.5999999999999</ele><time>2026-04-21T07:36:27.985Z</time></trkpt><trkpt lat="40.661599" lon="9.1690139"><ele>761.0</ele><time>2026-04-21T07:36:28.976Z</time></trkpt><trkpt lat="40.6615666" lon="9.169132"><ele>762.0</ele><time>2026-04-21T07:36:29.973Z</time></trkpt><trkpt lat="40.6615249" lon="9.1692504"><ele>763.0</ele><time>2026-04-21T07:36:30.975Z</time></trkpt><trkpt lat="40.6614631" lon="9.1693629"><ele>764.0</ele><time>2026-04-21T07:36:31.973Z</time></trkpt><trkpt lat="40.6613873" lon="9.1694683"><ele>765.0</ele><time>2026-04-21T07:36:32.974Z</time></trkpt><trkpt lat="40.6613005" lon="9.1695719"><ele>766.0</ele><time>2026-04-21T07:36:33.977Z</time></trkpt><trkpt lat="40.6612064" lon="9.1696714"><ele>765.8</ele><time>2026-04-21T07:36:34.972Z</time></trkpt><trkpt lat="40.6611145" lon="9.169755"><ele>765.5999999999999</ele><time>2026-04-21T07:36:35.981Z</time></trkpt><trkpt lat="40.6610207" lon="9.1698331"><ele>765.4</ele><time>2026-04-21T07:36:36.965Z</time></trkpt><trkpt lat="40.6609526" lon="9.169914"><ele>765.2</ele><time>2026-04-21T07:36:37.971Z</time></trkpt><trkpt lat="40.6609063" lon="9.1699985"><ele>765.0</ele><time>2026-04-21T07:36:38.974Z</time></trkpt><trkpt lat="40.6608671" lon="9.1700856"><ele>765.0</ele><time>2026-04-21T07:36:39.981Z</time></trkpt><trkpt lat="40.6608426" lon="9.1701694"><ele>765.0</ele><time>2026-04-21T07:36:40.972Z</time></trkpt><trkpt lat="40.6608374" lon="9.1702572"><ele>765.0</ele><time>2026-04-21T07:36:41.97Z</time></trkpt><trkpt lat="40.660854" lon="9.1703449"><ele>765.0</ele><time>2026-04-21T07:36:42.97Z</time></trkpt><trkpt lat="40.6608864" lon="9.1704455"><ele>765.0</ele><time>2026-04-21T07:36:43.971Z</time></trkpt><trkpt lat="40.6609318" lon="9.1705613"><ele>765.0</ele><time>2026-04-21T07:36:44.975Z</time></trkpt><trkpt lat="40.6609758" lon="9.1706725"><ele>765.4</ele><time>2026-04-21T07:36:45.973Z</time></trkpt><trkpt lat="40.6610167" lon="9.1707964"><ele>765.8</ele><time>2026-04-21T07:36:46.975Z</time></trkpt><trkpt lat="40.6610751" lon="9.1709197"><ele>766.2</ele><time>2026-04-21T07:36:47.973Z</time></trkpt><trkpt lat="40.6611281" lon="9.1710291"><ele>766.6</ele><time>2026-04-21T07:36:48.973Z</time></trkpt><trkpt lat="40.6611673" lon="9.1711339"><ele>767.0</ele><time>2026-04-21T07:36:49.98Z</time></trkpt><trkpt lat="40.6611855" lon="9.1712519"><ele>770.2</ele><time>2026-04-21T07:36:50.978Z</time></trkpt><trkpt lat="40.6611978" lon="9.1713744"><ele>773.4000000000001</ele><time>2026-04-21T07:36:51.984Z</time></trkpt><trkpt lat="40.6612066" lon="9.1715057"><ele>776.5999999999999</ele><time>2026-04-21T07:36:52.983Z</time></trkpt><trkpt lat="40.6611973" lon="9.1716292"><ele>779.8</ele><time>2026-04-21T07:36:53.981Z</time></trkpt><trkpt lat="40.6611897" lon="9.1717607"><ele>783.0</ele><time>2026-04-21T07:36:54.982Z</time></trkpt><trkpt lat="40.6611665" lon="9.1718833"><ele>784.0</ele><time>2026-04-21T07:36:55.979Z</time></trkpt><trkpt lat="40.6611277" lon="9.1719971"><ele>785.0</ele><time>2026-04-21T07:36:56.976Z</time></trkpt><trkpt lat="40.6610689" lon="9.1720898"><ele>786.0</ele><time>2026-04-21T07:36:57.979Z</time></trkpt><trkpt lat="40.6609959" lon="9.1721853"><ele>787.0</ele><time>2026-04-21T07:36:58.982Z</time></trkpt><trkpt lat="40.6609168" lon="9.1722906"><ele>788.0</ele><time>2026-04-21T07:36:59.973Z</time></trkpt><trkpt lat="40.6608197" lon="9.1723851"><ele>786.0</ele><time>2026-04-21T07:37:00.971Z</time></trkpt><trkpt lat="40.6607216" lon="9.1724666"><ele>784.0</ele><time>2026-04-21T07:37:01.975Z</time></trkpt><trkpt lat="40.660632" lon="9.1725425"><ele>782.0</ele><time>2026-04-21T07:37:02.978Z</time></trkpt><trkpt lat="40.6605448" lon="9.1726302"><ele>780.0</ele><time>2026-04-21T07:37:03.974Z</time></trkpt><trkpt lat="40.6604814" lon="9.172733"><ele>778.0</ele><time>2026-04-21T07:37:04.975Z</time></trkpt><trkpt lat="40.6604305" lon="9.1728514"><ele>778.0</ele><time>2026-04-21T07:37:05.969Z</time></trkpt><trkpt lat="40.6603942" lon="9.1729845"><ele>778.0</ele><time>2026-04-21T07:37:06.975Z</time></trkpt><trkpt lat="40.6603646" lon="9.1731247"><ele>778.0</ele><time>2026-04-21T07:37:07.975Z</time></trkpt><trkpt lat="40.6603319" lon="9.1732591"><ele>778.0</ele><time>2026-04-21T07:37:08.974Z</time></trkpt><trkpt lat="40.6602833" lon="9.1733783"><ele>778.0</ele><time>2026-04-21T07:37:09.969Z</time></trkpt><trkpt lat="40.6602257" lon="9.1734968"><ele>776.5999999999999</ele><time>2026-04-21T07:37:10.968Z</time></trkpt><trkpt lat="40.660164" lon="9.1736064"><ele>775.1999999999999</ele><time>2026-04-21T07:37:11.97Z</time></trkpt><trkpt lat="40.6600872" lon="9.1737041"><ele>773.8</ele><time>2026-04-21T07:37:12.963Z</time></trkpt><trkpt lat="40.6600073" lon="9.1737932"><ele>772.4</ele><time>2026-04-21T07:37:13.963Z</time></trkpt><trkpt lat="40.6599302" lon="9.1738998"><ele>771.0</ele><time>2026-04-21T07:37:14.962Z</time></trkpt><trkpt lat="40.6598365" lon="9.1740116"><ele>773.25</ele><time>2026-04-21T07:37:15.958Z</time></trkpt><trkpt lat="40.6597463" lon="9.1741213"><ele>775.5</ele><time>2026-04-21T07:37:16.971Z</time></trkpt><trkpt lat="40.6596482" lon="9.1742291"><ele>777.75</ele><time>2026-04-21T07:37:17.974Z</time></trkpt><trkpt lat="40.6595527" lon="9.1743446"><ele>780.0</ele><time>2026-04-21T07:37:18.973Z</time></trkpt><trkpt lat="40.6594518" lon="9.1744372"><ele>779.3333333333334</ele><time>2026-04-21T07:37:19.975Z</time></trkpt><trkpt lat="40.6593579" lon="9.1745259"><ele>778.6666666666667</ele><time>2026-04-21T07:37:20.976Z</time></trkpt><trkpt lat="40.6592848" lon="9.1746174"><ele>778.0</ele><time>2026-04-21T07:37:21.997Z</time></trkpt><trkpt lat="40.6592172" lon="9.1746964"><ele>777.3333333333334</ele><time>2026-04-21T07:37:23.063Z</time></trkpt><trkpt lat="40.6591623" lon="9.1747515"><ele>776.6666666666667</ele><time>2026-04-21T07:37:24.052Z</time></trkpt><trkpt lat="40.6591034" lon="9.1748041"><ele>776.0</ele><time>2026-04-21T07:37:26.042Z</time></trkpt><trkpt lat="40.6590606" lon="9.1748721"><ele>775.3333333333334</ele><time>2026-04-21T07:37:31.059Z</time></trkpt><trkpt lat="40.6591595" lon="9.1748162"><ele>774.6666666666667</ele><time>2026-04-21T07:37:40.065Z</time></trkpt><trkpt lat="40.6590908" lon="9.1747684"><ele>774.0</ele><time>2026-04-21T07:37:43.066Z</time></trkpt><trkpt lat="40.6590234" lon="9.1747544"><ele>773.3333333333333</ele><time>2026-04-21T07:37:45.06Z</time></trkpt><trkpt lat="40.6589278" lon="9.1746993"><ele>772.6666666666666</ele><time>2026-04-21T07:37:47.055Z</time></trkpt><trkpt lat="40.6588721" lon="9.1746482"><ele>772.0</ele><time>2026-04-21T07:37:48.054Z</time></trkpt><trkpt lat="40.6588075" lon="9.1745748"><ele>772.0000000000001</ele><time>2026-04-21T07:37:49.05Z</time></trkpt><trkpt lat="40.6587606" lon="9.1745077"><ele>772.0</ele><time>2026-04-21T07:37:50.055Z</time></trkpt><trkpt lat="40.6587175" lon="9.1744422"><ele>772.0</ele><time>2026-04-21T07:37:51.067Z</time></trkpt><trkpt lat="40.6586782" lon="9.1743752"><ele>772.0</ele><time>2026-04-21T07:37:52.061Z</time></trkpt><trkpt lat="40.6586394" lon="9.1743003"><ele>772.0</ele><time>2026-04-21T07:37:53.054Z</time></trkpt><trkpt lat="40.6586074" lon="9.174213"><ele>772.0000000000001</ele><time>2026-04-21T07:37:54.047Z</time></trkpt><trkpt lat="40.6585823" lon="9.1741227"><ele>772.0</ele><time>2026-04-21T07:37:55.049Z</time></trkpt><trkpt lat="40.6585567" lon="9.1740265"><ele>772.4999999999999</ele><time>2026-04-21T07:37:56.069Z</time></trkpt><trkpt lat="40.6585307" lon="9.1739302"><ele>773.0</ele><time>2026-04-21T07:37:57.066Z</time></trkpt><trkpt lat="40.6585105" lon="9.1738256"><ele>773.5</ele><time>2026-04-21T07:37:58.072Z</time></trkpt><trkpt lat="40.6584907" lon="9.1737098"><ele>774.0</ele><time>2026-04-21T07:37:59.071Z</time></trkpt><trkpt lat="40.6584683" lon="9.1736038"><ele>774.4999999999999</ele><time>2026-04-21T07:38:00.067Z</time></trkpt><trkpt lat="40.6584458" lon="9.1734958"><ele>775.0</ele><time>2026-04-21T07:38:01.076Z</time></trkpt><trkpt lat="40.6584214" lon="9.1733856"><ele>775.0</ele><time>2026-04-21T07:38:02.069Z</time></trkpt><trkpt lat="40.6583948" lon="9.1732554"><ele>775.0</ele><time>2026-04-21T07:38:03.065Z</time></trkpt><trkpt lat="40.6583647" lon="9.1731321"><ele>775.0</ele><time>2026-04-21T07:38:04.071Z</time></trkpt><trkpt lat="40.6583354" lon="9.1730068"><ele>775.0</ele><time>2026-04-21T07:38:05.069Z</time></trkpt><trkpt lat="40.6583046" lon="9.1728836"><ele>775.0</ele><time>2026-04-21T07:38:06.067Z</time></trkpt><trkpt lat="40.6582699" lon="9.1727622"><ele>773.2</ele><time>2026-04-21T07:38:07.067Z</time></trkpt><trkpt lat="40.6582282" lon="9.1726407"><ele>771.4</ele><time>2026-04-21T07:38:08.063Z</time></trkpt><trkpt lat="40.6581819" lon="9.172525"><ele>769.5999999999999</ele><time>2026-04-21T07:38:09.071Z</time></trkpt><trkpt lat="40.6581361" lon="9.1724076"><ele>767.8</ele><time>2026-04-21T07:38:10.064Z</time></trkpt><trkpt lat="40.6580932" lon="9.1722904"><ele>766.0</ele><time>2026-04-21T07:38:11.064Z</time></trkpt><trkpt lat="40.6580506" lon="9.1721712"><ele>763.5999999999999</ele><time>2026-04-21T07:38:12.063Z</time></trkpt><trkpt lat="40.6580076" lon="9.172051"><ele>761.2</ele><time>2026-04-21T07:38:13.062Z</time></trkpt><trkpt lat="40.6579602" lon="9.1719352"><ele>758.8</ele><time>2026-04-21T07:38:14.063Z</time></trkpt><trkpt lat="40.6579159" lon="9.1718203"><ele>756.4000000000001</ele><time>2026-04-21T07:38:15.065Z</time></trkpt><trkpt lat="40.6578748" lon="9.1717048"><ele>754.0</ele><time>2026-04-21T07:38:16.069Z</time></trkpt><trkpt lat="40.6578272" lon="9.1715824"><ele>756.4000000000001</ele><time>2026-04-21T07:38:17.073Z</time></trkpt><trkpt lat="40.6577752" lon="9.1714553"><ele>758.8</ele><time>2026-04-21T07:38:18.071Z</time></trkpt><trkpt lat="40.6577163" lon="9.1713254"><ele>761.2</ele><time>2026-04-21T07:38:19.069Z</time></trkpt><trkpt lat="40.65766" lon="9.171197"><ele>763.5999999999999</ele><time>2026-04-21T07:38:20.075Z</time></trkpt><trkpt lat="40.6576065" lon="9.1710705"><ele>766.0</ele><time>2026-04-21T07:38:21.069Z</time></trkpt><trkpt lat="40.6575534" lon="9.1709502"><ele>766.0</ele><time>2026-04-21T07:38:22.067Z</time></trkpt><trkpt lat="40.6575065" lon="9.1708256"><ele>766.0</ele><time>2026-04-21T07:38:23.068Z</time></trkpt><trkpt lat="40.6574618" lon="9.170696"><ele>766.0</ele><time>2026-04-21T07:38:24.069Z</time></trkpt><trkpt lat="40.6574233" lon="9.1705734"><ele>766.0</ele><time>2026-04-21T07:38:25.069Z</time></trkpt><trkpt lat="40.6573914" lon="9.1704594"><ele>766.0</ele><time>2026-04-21T07:38:26.075Z</time></trkpt><trkpt lat="40.6573581" lon="9.1703512"><ele>765.0</ele><time>2026-04-21T07:38:27.062Z</time></trkpt><trkpt lat="40.6573418" lon="9.1702465"><ele>764.0</ele><time>2026-04-21T07:38:28.063Z</time></trkpt><trkpt lat="40.6573322" lon="9.170135"><ele>763.0</ele><time>2026-04-21T07:38:29.065Z</time></trkpt><trkpt lat="40.6573161" lon="9.1700263"><ele>762.0</ele><time>2026-04-21T07:38:30.06Z</time></trkpt><trkpt lat="40.6572963" lon="9.1699261"><ele>761.0</ele><time>2026-04-21T07:38:31.054Z</time></trkpt><trkpt lat="40.6572723" lon="9.1698307"><ele>760.0</ele><time>2026-04-21T07:38:32.056Z</time></trkpt><trkpt lat="40.6572466" lon="9.1697347"><ele>758.0</ele><time>2026-04-21T07:38:33.053Z</time></trkpt><trkpt lat="40.6572187" lon="9.1696337"><ele>756.0</ele><time>2026-04-21T07:38:34.05Z</time></trkpt><trkpt lat="40.6571858" lon="9.1695315"><ele>754.0</ele><time>2026-04-21T07:38:35.05Z</time></trkpt><trkpt lat="40.6571464" lon="9.1694256"><ele>752.0</ele><time>2026-04-21T07:38:36.048Z</time></trkpt><trkpt lat="40.6571012" lon="9.1693245"><ele>750.0</ele><time>2026-04-21T07:38:37.053Z</time></trkpt><trkpt lat="40.6570564" lon="9.169218"><ele>748.0</ele><time>2026-04-21T07:38:38.055Z</time></trkpt><trkpt lat="40.6570141" lon="9.1691099"><ele>750.0</ele><time>2026-04-21T07:38:39.053Z</time></trkpt><trkpt lat="40.6569725" lon="9.1689991"><ele>752.0</ele><time>2026-04-21T07:38:40.063Z</time></trkpt><trkpt lat="40.656933" lon="9.1688809"><ele>754.0</ele><time>2026-04-21T07:38:41.053Z</time></trkpt><trkpt lat="40.6568972" lon="9.1687602"><ele>756.0</ele><time>2026-04-21T07:38:42.059Z</time></trkpt><trkpt lat="40.6568638" lon="9.1686388"><ele>758.0</ele><time>2026-04-21T07:38:43.058Z</time></trkpt><trkpt lat="40.6568385" lon="9.1685126"><ele>758.0</ele><time>2026-04-21T07:38:44.057Z</time></trkpt><trkpt lat="40.656818" lon="9.1683908"><ele>758.0</ele><time>2026-04-21T07:38:45.067Z</time></trkpt><trkpt lat="40.6567938" lon="9.1682669"><ele>758.0</ele><time>2026-04-21T07:38:46.06Z</time></trkpt><trkpt lat="40.656764" lon="9.168153"><ele>758.0</ele><time>2026-04-21T07:38:47.067Z</time></trkpt><trkpt lat="40.6567342" lon="9.1680357"><ele>758.0</ele><time>2026-04-21T07:38:48.065Z</time></trkpt><trkpt lat="40.6567018" lon="9.1679191"><ele>756.5999999999999</ele><time>2026-04-21T07:38:49.061Z</time></trkpt><trkpt lat="40.6566636" lon="9.1678095"><ele>755.1999999999999</ele><time>2026-04-21T07:38:50.065Z</time></trkpt><trkpt lat="40.6566182" lon="9.1677116"><ele>753.8</ele><time>2026-04-21T07:38:51.061Z</time></trkpt><trkpt lat="40.6565654" lon="9.1676211"><ele>752.4</ele><time>2026-04-21T07:38:52.045Z</time></trkpt><trkpt lat="40.656511" lon="9.1675122"><ele>751.0</ele><time>2026-04-21T07:38:53.048Z</time></trkpt><trkpt lat="40.6564389" lon="9.1674145"><ele>751.4</ele><time>2026-04-21T07:38:54.046Z</time></trkpt><trkpt lat="40.6563575" lon="9.1673265"><ele>751.8</ele><time>2026-04-21T07:38:55.051Z</time></trkpt><trkpt lat="40.6562758" lon="9.1672338"><ele>752.1999999999999</ele><time>2026-04-21T07:38:56.061Z</time></trkpt><trkpt lat="40.656195" lon="9.1671354"><ele>752.5999999999999</ele><time>2026-04-21T07:38:57.063Z</time></trkpt><trkpt lat="40.6561166" lon="9.1670355"><ele>753.0</ele><time>2026-04-21T07:38:58.068Z</time></trkpt><trkpt lat="40.6560407" lon="9.1669341"><ele>753.0</ele><time>2026-04-21T07:38:59.063Z</time></trkpt><trkpt lat="40.655973" lon="9.1668313"><ele>753.0</ele><time>2026-04-21T07:39:00.067Z</time></trkpt><trkpt lat="40.6559106" lon="9.166735"><ele>753.0</ele><time>2026-04-21T07:39:01.07Z</time></trkpt><trkpt lat="40.6558534" lon="9.1666483"><ele>753.0</ele><time>2026-04-21T07:39:02.063Z</time></trkpt><trkpt lat="40.6557857" lon="9.166562"><ele>753.0</ele><time>2026-04-21T07:39:03.067Z</time></trkpt><trkpt lat="40.655711" lon="9.1664875"><ele>751.6666666666666</ele><time>2026-04-21T07:39:04.058Z</time></trkpt><trkpt lat="40.6556374" lon="9.1664253"><ele>750.3333333333334</ele><time>2026-04-21T07:39:05.062Z</time></trkpt><trkpt lat="40.6555656" lon="9.1663812"><ele>749.0</ele><time>2026-04-21T07:39:06.062Z</time></trkpt><trkpt lat="40.6554999" lon="9.1663486"><ele>747.6666666666667</ele><time>2026-04-21T07:39:07.058Z</time></trkpt><trkpt lat="40.6554259" lon="9.1663445"><ele>746.3333333333334</ele><time>2026-04-21T07:39:08.046Z</time></trkpt><trkpt lat="40.655335" lon="9.1663621"><ele>745.0</ele><time>2026-04-21T07:39:09.048Z</time></trkpt><trkpt lat="40.655244" lon="9.1664036"><ele>745.0</ele><time>2026-04-21T07:39:10.049Z</time></trkpt><trkpt lat="40.6551606" lon="9.1664591"><ele>745.0</ele><time>2026-04-21T07:39:11.053Z</time></trkpt><trkpt lat="40.6550697" lon="9.1665225"><ele>745.0</ele><time>2026-04-21T07:39:12.068Z</time></trkpt><trkpt lat="40.6549736" lon="9.1665954"><ele>745.0</ele><time>2026-04-21T07:39:13.064Z</time></trkpt><trkpt lat="40.6548807" lon="9.1666674"><ele>745.0</ele><time>2026-04-21T07:39:14.075Z</time></trkpt><trkpt lat="40.6547857" lon="9.166729"><ele>746.4</ele><time>2026-04-21T07:39:15.056Z</time></trkpt><trkpt lat="40.6546969" lon="9.1667806"><ele>747.8</ele><time>2026-04-21T07:39:16.057Z</time></trkpt><trkpt lat="40.6546135" lon="9.1668315"><ele>749.2</ele><time>2026-04-21T07:39:17.058Z</time></trkpt><trkpt lat="40.6545282" lon="9.1668827"><ele>750.6</ele><time>2026-04-21T07:39:18.061Z</time></trkpt><trkpt lat="40.6544431" lon="9.1669236"><ele>752.0</ele><time>2026-04-21T07:39:19.048Z</time></trkpt><trkpt lat="40.6543501" lon="9.1669684"><ele>752.0</ele><time>2026-04-21T07:39:20.051Z</time></trkpt><trkpt lat="40.6542533" lon="9.167003"><ele>752.0</ele><time>2026-04-21T07:39:21.056Z</time></trkpt><trkpt lat="40.6541526" lon="9.1670305"><ele>752.0</ele><time>2026-04-21T07:39:22.053Z</time></trkpt><trkpt lat="40.654051" lon="9.1670498"><ele>752.0</ele><time>2026-04-21T07:39:23.056Z</time></trkpt><trkpt lat="40.6539498" lon="9.1670646"><ele>752.0</ele><time>2026-04-21T07:39:24.041Z</time></trkpt><trkpt lat="40.6538483" lon="9.1670906"><ele>752.0</ele><time>2026-04-21T07:39:25.042Z</time></trkpt><trkpt lat="40.6537439" lon="9.1671125"><ele>752.0</ele><time>2026-04-21T07:39:26.04Z</time></trkpt><trkpt lat="40.6536447" lon="9.167122"><ele>752.0</ele><time>2026-04-21T07:39:27.039Z</time></trkpt><trkpt lat="40.6535525" lon="9.1671212"><ele>752.0</ele><time>2026-04-21T07:39:28.052Z</time></trkpt><trkpt lat="40.6534642" lon="9.1671058"><ele>752.0</ele><time>2026-04-21T07:39:29.054Z</time></trkpt><trkpt lat="40.6533775" lon="9.16708"><ele>752.0</ele><time>2026-04-21T07:39:30.041Z</time></trkpt><trkpt lat="40.6532889" lon="9.1670417"><ele>752.0</ele><time>2026-04-21T07:39:31.046Z</time></trkpt><trkpt lat="40.6532047" lon="9.166992"><ele>752.0</ele><time>2026-04-21T07:39:32.042Z</time></trkpt><trkpt lat="40.6531245" lon="9.1669329"><ele>752.0</ele><time>2026-04-21T07:39:33.042Z</time></trkpt><trkpt lat="40.6530509" lon="9.1668941"><ele>752.0</ele><time>2026-04-21T07:39:34.06Z</time></trkpt><trkpt lat="40.6529711" lon="9.1668614"><ele>752.0</ele><time>2026-04-21T07:39:35.051Z</time></trkpt><trkpt lat="40.6528817" lon="9.1668328"><ele>752.0</ele><time>2026-04-21T07:39:36.054Z</time></trkpt><trkpt lat="40.6528062" lon="9.1668119"><ele>752.0</ele><time>2026-04-21T07:39:37.041Z</time></trkpt><trkpt lat="40.6527403" lon="9.1667858"><ele>752.0</ele><time>2026-04-21T07:39:38.042Z</time></trkpt><trkpt lat="40.6526583" lon="9.1666659"><ele>752.0</ele><time>2026-04-21T07:39:40.035Z</time></trkpt><trkpt lat="40.6526238" lon="9.1665858"><ele>752.0</ele><time>2026-04-21T07:39:41.051Z</time></trkpt><trkpt lat="40.6526059" lon="9.1665006"><ele>752.0</ele><time>2026-04-21T07:39:42.059Z</time></trkpt><trkpt lat="40.6526002" lon="9.1663994"><ele>752.0</ele><time>2026-04-21T07:39:43.04Z</time></trkpt><trkpt lat="40.6526012" lon="9.1662922"><ele>752.0</ele><time>2026-04-21T07:39:44.043Z</time></trkpt><trkpt lat="40.652615" lon="9.1661867"><ele>752.0</ele><time>2026-04-21T07:39:45.042Z</time></trkpt><trkpt lat="40.6526279" lon="9.1660827"><ele>752.0</ele><time>2026-04-21T07:39:46.046Z</time></trkpt><trkpt lat="40.6526432" lon="9.1659879"><ele>752.0</ele><time>2026-04-21T07:39:47.066Z</time></trkpt><trkpt lat="40.6526595" lon="9.1659006"><ele>752.0</ele><time>2026-04-21T07:39:48.063Z</time></trkpt><trkpt lat="40.6526793" lon="9.1658057"><ele>752.0</ele><time>2026-04-21T07:39:49.051Z</time></trkpt><trkpt lat="40.652701" lon="9.1657152"><ele>752.0</ele><time>2026-04-21T07:39:50.048Z</time></trkpt><trkpt lat="40.6527269" lon="9.1656229"><ele>752.0</ele><time>2026-04-21T07:39:51.045Z</time></trkpt><trkpt lat="40.6527526" lon="9.1655319"><ele>752.0</ele><time>2026-04-21T07:39:52.047Z</time></trkpt><trkpt lat="40.6527825" lon="9.1654429"><ele>752.0</ele><time>2026-04-21T07:39:53.068Z</time></trkpt><trkpt lat="40.6528081" lon="9.1653511"><ele>752.0</ele><time>2026-04-21T07:39:54.06Z</time></trkpt><trkpt lat="40.6528213" lon="9.1652442"><ele>750.6</ele><time>2026-04-21T07:39:55.061Z</time></trkpt><trkpt lat="40.6528236" lon="9.1651375"><ele>749.2</ele><time>2026-04-21T07:39:56.056Z</time></trkpt><trkpt lat="40.6528142" lon="9.1650084"><ele>747.8</ele><time>2026-04-21T07:39:57.041Z</time></trkpt><trkpt lat="40.6527982" lon="9.1648702"><ele>746.4</ele><time>2026-04-21T07:39:58.05Z</time></trkpt><trkpt lat="40.6527818" lon="9.1647318"><ele>745.0</ele><time>2026-04-21T07:39:59.044Z</time></trkpt><trkpt lat="40.6527654" lon="9.1645946"><ele>745.0</ele><time>2026-04-21T07:40:00.043Z</time></trkpt><trkpt lat="40.652748" lon="9.164452"><ele>745.0</ele><time>2026-04-21T07:40:01.058Z</time></trkpt><trkpt lat="40.6527293" lon="9.164313"><ele>745.0</ele><time>2026-04-21T07:40:02.06Z</time></trkpt><trkpt lat="40.6527059" lon="9.1641742"><ele>745.0</ele><time>2026-04-21T07:40:03.06Z</time></trkpt><trkpt lat="40.6526897" lon="9.1640415"><ele>745.0</ele><time>2026-04-21T07:40:04.058Z</time></trkpt><trkpt lat="40.6526746" lon="9.1639098"><ele>743.8</ele><time>2026-04-21T07:40:05.049Z</time></trkpt><trkpt lat="40.6526635" lon="9.1637816"><ele>742.6</ele><time>2026-04-21T07:40:06.051Z</time></trkpt><trkpt lat="40.6526578" lon="9.1636415"><ele>741.4000000000001</ele><time>2026-04-21T07:40:07.044Z</time></trkpt><trkpt lat="40.6526562" lon="9.1635102"><ele>740.2</ele><time>2026-04-21T07:40:08.048Z</time></trkpt><trkpt lat="40.6526565" lon="9.1633866"><ele>739.0</ele><time>2026-04-21T07:40:09.051Z</time></trkpt><trkpt lat="40.6526629" lon="9.1632611"><ele>738.6666666666667</ele><time>2026-04-21T07:40:10.038Z</time></trkpt><trkpt lat="40.6526763" lon="9.1631389"><ele>738.3333333333334</ele><time>2026-04-21T07:40:11.054Z</time></trkpt><trkpt lat="40.6526984" lon="9.1630315"><ele>738.0</ele><time>2026-04-21T07:40:12.046Z</time></trkpt><trkpt lat="40.6527134" lon="9.1629238"><ele>737.6666666666666</ele><time>2026-04-21T07:40:13.047Z</time></trkpt><trkpt lat="40.6527133" lon="9.1628139"><ele>737.3333333333333</ele><time>2026-04-21T07:40:14.065Z</time></trkpt><trkpt lat="40.6527023" lon="9.1626973"><ele>737.0</ele><time>2026-04-21T07:40:15.064Z</time></trkpt><trkpt lat="40.6526803" lon="9.162573"><ele>737.0</ele><time>2026-04-21T07:40:16.05Z</time></trkpt><trkpt lat="40.6526569" lon="9.1624549"><ele>737.0</ele><time>2026-04-21T07:40:17.053Z</time></trkpt><trkpt lat="40.652622" lon="9.1623361"><ele>737.0</ele><time>2026-04-21T07:40:18.048Z</time></trkpt><trkpt lat="40.6525828" lon="9.1622231"><ele>737.0</ele><time>2026-04-21T07:40:19.054Z</time></trkpt><trkpt lat="40.6525351" lon="9.1621108"><ele>737.0</ele><time>2026-04-21T07:40:20.072Z</time></trkpt><trkpt lat="40.652487" lon="9.1619993"><ele>735.6</ele><time>2026-04-21T07:40:21.067Z</time></trkpt><trkpt lat="40.6524397" lon="9.1618797"><ele>734.2</ele><time>2026-04-21T07:40:22.071Z</time></trkpt><trkpt lat="40.6523944" lon="9.1617507"><ele>732.8</ele><time>2026-04-21T07:40:23.071Z</time></trkpt><trkpt lat="40.6523548" lon="9.1616213"><ele>731.4</ele><time>2026-04-21T07:40:24.069Z</time></trkpt><trkpt lat="40.6523163" lon="9.1614863"><ele>730.0</ele><time>2026-04-21T07:40:25.073Z</time></trkpt><trkpt lat="40.6522784" lon="9.1613479"><ele>728.8</ele><time>2026-04-21T07:40:26.069Z</time></trkpt><trkpt lat="40.652238" lon="9.1612169"><ele>727.6</ele><time>2026-04-21T07:40:27.063Z</time></trkpt><trkpt lat="40.6521945" lon="9.1611038"><ele>726.4000000000001</ele><time>2026-04-21T07:40:28.072Z</time></trkpt><trkpt lat="40.6521485" lon="9.1609991"><ele>725.2</ele><time>2026-04-21T07:40:29.057Z</time></trkpt><trkpt lat="40.6520961" lon="9.160906"><ele>724.0</ele><time>2026-04-21T07:40:30.061Z</time></trkpt><trkpt lat="40.6520355" lon="9.1608199"><ele>724.0</ele><time>2026-04-21T07:40:31.066Z</time></trkpt><trkpt lat="40.6519649" lon="9.1607379"><ele>724.0</ele><time>2026-04-21T07:40:32.045Z</time></trkpt><trkpt lat="40.651883" lon="9.1606662"><ele>724.0</ele><time>2026-04-21T07:40:33.049Z</time></trkpt><trkpt lat="40.6517894" lon="9.1605998"><ele>724.0</ele><time>2026-04-21T07:40:34.045Z</time></trkpt><trkpt lat="40.6516918" lon="9.1605461"><ele>724.0</ele><time>2026-04-21T07:40:35.045Z</time></trkpt><trkpt lat="40.6515941" lon="9.1605063"><ele>724.2</ele><time>2026-04-21T07:40:36.059Z</time></trkpt><trkpt lat="40.6514884" lon="9.1604755"><ele>724.4000000000001</ele><time>2026-04-21T07:40:37.061Z</time></trkpt><trkpt lat="40.6513768" lon="9.1604421"><ele>724.6</ele><time>2026-04-21T07:40:38.058Z</time></trkpt><trkpt lat="40.651266" lon="9.1604092"><ele>724.8</ele><time>2026-04-21T07:40:39.057Z</time></trkpt><trkpt lat="40.6511574" lon="9.1603774"><ele>725.0</ele><time>2026-04-21T07:40:40.051Z</time></trkpt><trkpt lat="40.6510486" lon="9.160337"><ele>726.4</ele><time>2026-04-21T07:40:41.055Z</time></trkpt><trkpt lat="40.6509409" lon="9.1602983"><ele>727.8</ele><time>2026-04-21T07:40:42.051Z</time></trkpt><trkpt lat="40.6508358" lon="9.1602602"><ele>729.2</ele><time>2026-04-21T07:40:43.047Z</time></trkpt><trkpt lat="40.6507394" lon="9.1602175"><ele>730.6</ele><time>2026-04-21T07:40:44.055Z</time></trkpt><trkpt lat="40.650646" lon="9.1601815"><ele>732.0</ele><time>2026-04-21T07:40:45.043Z</time></trkpt><trkpt lat="40.6505578" lon="9.1601626"><ele>732.0</ele><time>2026-04-21T07:40:46.047Z</time></trkpt><trkpt lat="40.6504735" lon="9.1601687"><ele>732.0</ele><time>2026-04-21T07:40:47.04Z</time></trkpt><trkpt lat="40.6503891" lon="9.1602122"><ele>732.0</ele><time>2026-04-21T07:40:48.027Z</time></trkpt><trkpt lat="40.6503087" lon="9.1602787"><ele>732.0</ele><time>2026-04-21T07:40:49.026Z</time></trkpt><trkpt lat="40.6502217" lon="9.1603723"><ele>732.0</ele><time>2026-04-21T07:40:50.028Z</time></trkpt><trkpt lat="40.6501389" lon="9.1604666"><ele>732.0</ele><time>2026-04-21T07:40:51.025Z</time></trkpt><trkpt lat="40.650062" lon="9.1605668"><ele>732.0</ele><time>2026-04-21T07:40:52.038Z</time></trkpt><trkpt lat="40.6499817" lon="9.1606529"><ele>732.0</ele><time>2026-04-21T07:40:53.042Z</time></trkpt><trkpt lat="40.6499191" lon="9.1607526"><ele>732.0</ele><time>2026-04-21T07:40:54.042Z</time></trkpt><trkpt lat="40.6498455" lon="9.1608223"><ele>732.0</ele><time>2026-04-21T07:40:55.047Z</time></trkpt><trkpt lat="40.6497701" lon="9.1608744"><ele>734.2</ele><time>2026-04-21T07:40:56.044Z</time></trkpt><trkpt lat="40.6496887" lon="9.1609077"><ele>736.4000000000001</ele><time>2026-04-21T07:40:57.042Z</time></trkpt><trkpt lat="40.6496052" lon="9.1609388"><ele>738.5999999999999</ele><time>2026-04-21T07:40:58.031Z</time></trkpt><trkpt lat="40.6495138" lon="9.1609475"><ele>740.8</ele><time>2026-04-21T07:40:59.04Z</time></trkpt><trkpt lat="40.6494174" lon="9.1609413"><ele>743.0</ele><time>2026-04-21T07:41:00.032Z</time></trkpt><trkpt lat="40.649319" lon="9.1609271"><ele>743.4</ele><time>2026-04-21T07:41:01.037Z</time></trkpt><trkpt lat="40.6492155" lon="9.1609015"><ele>743.8</ele><time>2026-04-21T07:41:02.046Z</time></trkpt><trkpt lat="40.649112" lon="9.1608638"><ele>744.2</ele><time>2026-04-21T07:41:03.053Z</time></trkpt><trkpt lat="40.6490089" lon="9.1608166"><ele>744.6</ele><time>2026-04-21T07:41:04.044Z</time></trkpt><trkpt lat="40.6489064" lon="9.160766"><ele>745.0</ele><time>2026-04-21T07:41:05.038Z</time></trkpt><trkpt lat="40.6488082" lon="9.1607051"><ele>744.2</ele><time>2026-04-21T07:41:06.041Z</time></trkpt><trkpt lat="40.6487127" lon="9.1606511"><ele>743.4</ele><time>2026-04-21T07:41:07.036Z</time></trkpt><trkpt lat="40.6486177" lon="9.1606012"><ele>742.5999999999999</ele><time>2026-04-21T07:41:08.054Z</time></trkpt><trkpt lat="40.6485218" lon="9.1605521"><ele>741.8</ele><time>2026-04-21T07:41:09.052Z</time></trkpt><trkpt lat="40.6484301" lon="9.1605054"><ele>741.0</ele><time>2026-04-21T07:41:10.057Z</time></trkpt><trkpt lat="40.6483437" lon="9.1604654"><ele>741.0</ele><time>2026-04-21T07:41:11.052Z</time></trkpt><trkpt lat="40.6482585" lon="9.1604386"><ele>741.0</ele><time>2026-04-21T07:41:12.052Z</time></trkpt><trkpt lat="40.6481717" lon="9.1604313"><ele>741.0</ele><time>2026-04-21T07:41:13.049Z</time></trkpt><trkpt lat="40.6480872" lon="9.1604348"><ele>741.0</ele><time>2026-04-21T07:41:14.044Z</time></trkpt><trkpt lat="40.6479911" lon="9.1604425"><ele>741.0</ele><time>2026-04-21T07:41:15.039Z</time></trkpt><trkpt lat="40.6478893" lon="9.1604573"><ele>741.0</ele><time>2026-04-21T07:41:16.033Z</time></trkpt><trkpt lat="40.6477938" lon="9.1604674"><ele>741.0</ele><time>2026-04-21T07:41:17.039Z</time></trkpt><trkpt lat="40.6476968" lon="9.1604787"><ele>741.0</ele><time>2026-04-21T07:41:18.034Z</time></trkpt><trkpt lat="40.647609" lon="9.1605095"><ele>741.0</ele><time>2026-04-21T07:41:19.049Z</time></trkpt><trkpt lat="40.64753" lon="9.1605546"><ele>741.0</ele><time>2026-04-21T07:41:20.049Z</time></trkpt><trkpt lat="40.6474393" lon="9.1606178"><ele>740.5</ele><time>2026-04-21T07:41:22.035Z</time></trkpt><trkpt lat="40.6472651" lon="9.1607865"><ele>740.0</ele><time>2026-04-21T07:41:23.949Z</time></trkpt><trkpt lat="40.6471538" lon="9.1607911"><ele>739.5</ele><time>2026-04-21T07:41:25.954Z</time></trkpt><trkpt lat="40.6470935" lon="9.1607632"><ele>739.0</ele><time>2026-04-21T07:41:26.963Z</time></trkpt><trkpt lat="40.6470334" lon="9.1606968"><ele>739.0</ele><time>2026-04-21T07:41:27.96Z</time></trkpt><trkpt lat="40.6469649" lon="9.1606211"><ele>739.0</ele><time>2026-04-21T07:41:28.966Z</time></trkpt><trkpt lat="40.6468811" lon="9.1605255"><ele>739.0</ele><time>2026-04-21T07:41:29.965Z</time></trkpt><trkpt lat="40.6468054" lon="9.1604289"><ele>739.0</ele><time>2026-04-21T07:41:30.963Z</time></trkpt><trkpt lat="40.6467391" lon="9.1603103"><ele>739.0</ele><time>2026-04-21T07:41:31.97Z</time></trkpt><trkpt lat="40.6466758" lon="9.1601903"><ele>739.2</ele><time>2026-04-21T07:41:32.966Z</time></trkpt><trkpt lat="40.6466172" lon="9.160069"><ele>739.4000000000001</ele><time>2026-04-21T07:41:33.97Z</time></trkpt><trkpt lat="40.646561" lon="9.1599488"><ele>739.6</ele><time>2026-04-21T07:41:34.972Z</time></trkpt><trkpt lat="40.6465044" lon="9.1598516"><ele>739.8</ele><time>2026-04-21T07:41:35.976Z</time></trkpt><trkpt lat="40.6464235" lon="9.1597663"><ele>740.0</ele><time>2026-04-21T07:41:36.977Z</time></trkpt><trkpt lat="40.6463409" lon="9.1596867"><ele>740.0</ele><time>2026-04-21T07:41:37.975Z</time></trkpt><trkpt lat="40.6462413" lon="9.1596179"><ele>740.0</ele><time>2026-04-21T07:41:38.975Z</time></trkpt><trkpt lat="40.6461339" lon="9.1595569"><ele>740.0</ele><time>2026-04-21T07:41:39.979Z</time></trkpt><trkpt lat="40.6460197" lon="9.159498"><ele>740.0</ele><time>2026-04-21T07:41:40.975Z</time></trkpt><trkpt lat="40.6459211" lon="9.1594199"><ele>741.2</ele><time>2026-04-21T07:41:41.978Z</time></trkpt><trkpt lat="40.6458315" lon="9.1593356"><ele>742.4</ele><time>2026-04-21T07:41:42.972Z</time></trkpt><trkpt lat="40.6457482" lon="9.1592303"><ele>743.5999999999999</ele><time>2026-04-21T07:41:43.979Z</time></trkpt><trkpt lat="40.6456657" lon="9.1591267"><ele>744.8</ele><time>2026-04-21T07:41:44.976Z</time></trkpt><trkpt lat="40.6455993" lon="9.1590175"><ele>746.0</ele><time>2026-04-21T07:41:45.976Z</time></trkpt><trkpt lat="40.6455446" lon="9.1588965"><ele>746.0</ele><time>2026-04-21T07:41:46.98Z</time></trkpt><trkpt lat="40.6454978" lon="9.1587807"><ele>746.0</ele><time>2026-04-21T07:41:47.972Z</time></trkpt><trkpt lat="40.6454664" lon="9.1586665"><ele>746.0</ele><time>2026-04-21T07:41:48.973Z</time></trkpt><trkpt lat="40.6454409" lon="9.1585555"><ele>746.0</ele><time>2026-04-21T07:41:49.977Z</time></trkpt><trkpt lat="40.6454252" lon="9.1584496"><ele>746.0</ele><time>2026-04-21T07:41:50.971Z</time></trkpt><trkpt lat="40.645429" lon="9.1583391"><ele>746.0</ele><time>2026-04-21T07:41:51.969Z</time></trkpt><trkpt lat="40.64546" lon="9.1582286"><ele>746.1666666666666</ele><time>2026-04-21T07:41:52.965Z</time></trkpt><trkpt lat="40.6455084" lon="9.1581296"><ele>746.3333333333333</ele><time>2026-04-21T07:41:53.966Z</time></trkpt><trkpt lat="40.6455577" lon="9.1580392"><ele>746.5</ele><time>2026-04-21T07:41:54.965Z</time></trkpt><trkpt lat="40.6455973" lon="9.1579501"><ele>746.6666666666666</ele><time>2026-04-21T07:41:55.969Z</time></trkpt><trkpt lat="40.6456311" lon="9.1578651"><ele>746.8333333333334</ele><time>2026-04-21T07:41:56.966Z</time></trkpt><trkpt lat="40.645646" lon="9.1577801"><ele>747.0</ele><time>2026-04-21T07:41:57.969Z</time></trkpt><trkpt lat="40.6456543" lon="9.1576849"><ele>747.0</ele><time>2026-04-21T07:41:58.971Z</time></trkpt><trkpt lat="40.645656" lon="9.1575836"><ele>747.0</ele><time>2026-04-21T07:41:59.968Z</time></trkpt><trkpt lat="40.6456412" lon="9.1574792"><ele>747.0</ele><time>2026-04-21T07:42:00.971Z</time></trkpt><trkpt lat="40.6456146" lon="9.1573802"><ele>747.0</ele><time>2026-04-21T07:42:01.965Z</time></trkpt><trkpt lat="40.6455818" lon="9.1572791"><ele>747.0</ele><time>2026-04-21T07:42:02.967Z</time></trkpt><trkpt lat="40.6455448" lon="9.1571757"><ele>747.0</ele><time>2026-04-21T07:42:03.969Z</time></trkpt><trkpt lat="40.6455034" lon="9.1570816"><ele>747.1666666666666</ele><time>2026-04-21T07:42:04.966Z</time></trkpt><trkpt lat="40.6454543" lon="9.15699"><ele>747.3333333333334</ele><time>2026-04-21T07:42:05.961Z</time></trkpt><trkpt lat="40.6454098" lon="9.1569109"><ele>747.5</ele><time>2026-04-21T07:42:06.963Z</time></trkpt><trkpt lat="40.6453596" lon="9.1568337"><ele>747.6666666666667</ele><time>2026-04-21T07:42:07.961Z</time></trkpt><trkpt lat="40.6453" lon="9.1567514"><ele>747.8333333333334</ele><time>2026-04-21T07:42:08.963Z</time></trkpt><trkpt lat="40.6452322" lon="9.1566835"><ele>748.0</ele><time>2026-04-21T07:42:09.962Z</time></trkpt><trkpt lat="40.6451637" lon="9.1566181"><ele>748.0</ele><time>2026-04-21T07:42:10.963Z</time></trkpt><trkpt lat="40.6450878" lon="9.1565557"><ele>748.0</ele><time>2026-04-21T07:42:11.961Z</time></trkpt><trkpt lat="40.6449952" lon="9.1564896"><ele>748.0</ele><time>2026-04-21T07:42:12.964Z</time></trkpt><trkpt lat="40.6449017" lon="9.1564336"><ele>748.0</ele><time>2026-04-21T07:42:13.971Z</time></trkpt><trkpt lat="40.6448095" lon="9.1563901"><ele>748.0</ele><time>2026-04-21T07:42:14.973Z</time></trkpt><trkpt lat="40.6447052" lon="9.1563504"><ele>746.75</ele><time>2026-04-21T07:42:15.972Z</time></trkpt><trkpt lat="40.6445988" lon="9.1563069"><ele>745.5</ele><time>2026-04-21T07:42:16.977Z</time></trkpt><trkpt lat="40.6444918" lon="9.1562568"><ele>744.25</ele><time>2026-04-21T07:42:17.964Z</time></trkpt><trkpt lat="40.644384" lon="9.1562001"><ele>743.0</ele><time>2026-04-21T07:42:18.965Z</time></trkpt><trkpt lat="40.644283" lon="9.1561459"><ele>743.0</ele><time>2026-04-21T07:42:19.966Z</time></trkpt><trkpt lat="40.6441812" lon="9.1560884"><ele>743.0</ele><time>2026-04-21T07:42:20.968Z</time></trkpt><trkpt lat="40.6440844" lon="9.1560383"><ele>743.0</ele><time>2026-04-21T07:42:21.964Z</time></trkpt><trkpt lat="40.6439863" lon="9.1559899"><ele>743.0</ele><time>2026-04-21T07:42:22.967Z</time></trkpt><trkpt lat="40.6438857" lon="9.1559405"><ele>743.0</ele><time>2026-04-21T07:42:23.96Z</time></trkpt><trkpt lat="40.6437958" lon="9.1559007"><ele>743.0</ele><time>2026-04-21T07:42:24.961Z</time></trkpt><trkpt lat="40.6437029" lon="9.1558515"><ele>743.0</ele><time>2026-04-21T07:42:25.962Z</time></trkpt><trkpt lat="40.6436113" lon="9.1558063"><ele>743.0</ele><time>2026-04-21T07:42:26.96Z</time></trkpt><trkpt lat="40.6435173" lon="9.1557695"><ele>743.0</ele><time>2026-04-21T07:42:27.96Z</time></trkpt><trkpt lat="40.6434229" lon="9.1557287"><ele>743.0</ele><time>2026-04-21T07:42:28.965Z</time></trkpt><trkpt lat="40.643329" lon="9.1556715"><ele>742.8</ele><time>2026-04-21T07:42:29.959Z</time></trkpt><trkpt lat="40.6432438" lon="9.1556097"><ele>742.5999999999999</ele><time>2026-04-21T07:42:30.971Z</time></trkpt><trkpt lat="40.6431678" lon="9.1555294"><ele>742.4000000000001</ele><time>2026-04-21T07:42:31.958Z</time></trkpt><trkpt lat="40.6431009" lon="9.1554299"><ele>742.2</ele><time>2026-04-21T07:42:32.962Z</time></trkpt><trkpt lat="40.6430434" lon="9.1553182"><ele>742.0</ele><time>2026-04-21T07:42:33.972Z</time></trkpt><trkpt lat="40.6429837" lon="9.1551974"><ele>742.0</ele><time>2026-04-21T07:42:34.977Z</time></trkpt><trkpt lat="40.6429182" lon="9.1550931"><ele>742.0</ele><time>2026-04-21T07:42:35.977Z</time></trkpt><trkpt lat="40.6428379" lon="9.1549962"><ele>742.0</ele><time>2026-04-21T07:42:36.969Z</time></trkpt><trkpt lat="40.6427533" lon="9.1549078"><ele>742.0</ele><time>2026-04-21T07:42:37.97Z</time></trkpt><trkpt lat="40.6426488" lon="9.1548313"><ele>742.0</ele><time>2026-04-21T07:42:38.978Z</time></trkpt><trkpt lat="40.6425495" lon="9.1547617"><ele>741.0</ele><time>2026-04-21T07:42:39.975Z</time></trkpt><trkpt lat="40.6424429" lon="9.1546764"><ele>740.0</ele><time>2026-04-21T07:42:40.975Z</time></trkpt><trkpt lat="40.6423394" lon="9.1545914"><ele>739.0</ele><time>2026-04-21T07:42:41.978Z</time></trkpt><trkpt lat="40.6422459" lon="9.1544952"><ele>738.0</ele><time>2026-04-21T07:42:42.977Z</time></trkpt><trkpt lat="40.6421686" lon="9.154393"><ele>738.0</ele><time>2026-04-21T07:42:43.978Z</time></trkpt><trkpt lat="40.6420897" lon="9.154296"><ele>738.0</ele><time>2026-04-21T07:42:44.969Z</time></trkpt><trkpt lat="40.6420053" lon="9.1542003"><ele>738.0</ele><time>2026-04-21T07:42:45.966Z</time></trkpt><trkpt lat="40.641915" lon="9.1541047"><ele>738.0</ele><time>2026-04-21T07:42:46.964Z</time></trkpt><trkpt lat="40.6418275" lon="9.1540057"><ele>737.4</ele><time>2026-04-21T07:42:47.973Z</time></trkpt><trkpt lat="40.6417454" lon="9.1538965"><ele>736.8</ele><time>2026-04-21T07:42:48.965Z</time></trkpt><trkpt lat="40.641665" lon="9.1537948"><ele>736.2</ele><time>2026-04-21T07:42:49.968Z</time></trkpt><trkpt lat="40.6415895" lon="9.1537047"><ele>735.6</ele><time>2026-04-21T07:42:50.965Z</time></trkpt><trkpt lat="40.6415099" lon="9.1535975"><ele>735.0</ele><time>2026-04-21T07:42:51.958Z</time></trkpt><trkpt lat="40.6414306" lon="9.1534902"><ele>735.0</ele><time>2026-04-21T07:42:52.967Z</time></trkpt><trkpt lat="40.6413467" lon="9.1533838"><ele>735.0</ele><time>2026-04-21T07:42:53.97Z</time></trkpt><trkpt lat="40.6412616" lon="9.1532879"><ele>735.0</ele><time>2026-04-21T07:42:54.973Z</time></trkpt><trkpt lat="40.6411737" lon="9.153188"><ele>735.0</ele><time>2026-04-21T07:42:55.968Z</time></trkpt><trkpt lat="40.6410895" lon="9.1531012"><ele>734.1666666666666</ele><time>2026-04-21T07:42:56.967Z</time></trkpt><trkpt lat="40.6410143" lon="9.1530116"><ele>733.3333333333334</ele><time>2026-04-21T07:42:57.968Z</time></trkpt><trkpt lat="40.6409436" lon="9.152936"><ele>732.5</ele><time>2026-04-21T07:42:58.968Z</time></trkpt><trkpt lat="40.6408835" lon="9.1528653"><ele>731.6666666666667</ele><time>2026-04-21T07:42:59.975Z</time></trkpt><trkpt lat="40.6408196" lon="9.1528208"><ele>730.8333333333334</ele><time>2026-04-21T07:43:00.968Z</time></trkpt><trkpt lat="40.640736" lon="9.1527805"><ele>730.0</ele><time>2026-04-21T07:43:01.968Z</time></trkpt><trkpt lat="40.6406315" lon="9.1527525"><ele>730.0</ele><time>2026-04-21T07:43:02.968Z</time></trkpt><trkpt lat="40.6405159" lon="9.1527333"><ele>730.0</ele><time>2026-04-21T07:43:03.965Z</time></trkpt><trkpt lat="40.6403983" lon="9.1527283"><ele>730.0</ele><time>2026-04-21T07:43:04.97Z</time></trkpt><trkpt lat="40.6402816" lon="9.1527091"><ele>730.0</ele><time>2026-04-21T07:43:05.97Z</time></trkpt><trkpt lat="40.6401661" lon="9.1526902"><ele>731.0</ele><time>2026-04-21T07:43:06.968Z</time></trkpt><trkpt lat="40.6400564" lon="9.1526646"><ele>732.0</ele><time>2026-04-21T07:43:07.965Z</time></trkpt><trkpt lat="40.639949" lon="9.1526242"><ele>733.0</ele><time>2026-04-21T07:43:08.96Z</time></trkpt><trkpt lat="40.6398522" lon="9.1525787"><ele>734.0</ele><time>2026-04-21T07:43:09.958Z</time></trkpt><trkpt lat="40.6397453" lon="9.1525355"><ele>735.0</ele><time>2026-04-21T07:43:10.957Z</time></trkpt><trkpt lat="40.6396331" lon="9.1525027"><ele>735.0</ele><time>2026-04-21T07:43:11.966Z</time></trkpt><trkpt lat="40.6395243" lon="9.1524772"><ele>735.0</ele><time>2026-04-21T07:43:12.964Z</time></trkpt><trkpt lat="40.6394244" lon="9.1524605"><ele>735.0</ele><time>2026-04-21T07:43:13.968Z</time></trkpt><trkpt lat="40.6393281" lon="9.152464"><ele>735.0</ele><time>2026-04-21T07:43:14.961Z</time></trkpt><trkpt lat="40.639249" lon="9.1524905"><ele>735.0</ele><time>2026-04-21T07:43:15.967Z</time></trkpt><trkpt lat="40.6391611" lon="9.1525434"><ele>735.75</ele><time>2026-04-21T07:43:16.966Z</time></trkpt><trkpt lat="40.639087" lon="9.1526183"><ele>736.5</ele><time>2026-04-21T07:43:17.978Z</time></trkpt><trkpt lat="40.6390298" lon="9.1527297"><ele>737.25</ele><time>2026-04-21T07:43:18.966Z</time></trkpt><trkpt lat="40.6389995" lon="9.1528818"><ele>738.0</ele><time>2026-04-21T07:43:19.971Z</time></trkpt><trkpt lat="40.6389982" lon="9.1530596"><ele>739.25</ele><time>2026-04-21T07:43:20.962Z</time></trkpt><trkpt lat="40.6390074" lon="9.153249"><ele>740.5</ele><time>2026-04-21T07:43:21.962Z</time></trkpt><trkpt lat="40.6389987" lon="9.1534362"><ele>741.75</ele><time>2026-04-21T07:43:22.967Z</time></trkpt><trkpt lat="40.6389847" lon="9.1536209"><ele>743.0</ele><time>2026-04-21T07:43:23.963Z</time></trkpt><trkpt lat="40.6389726" lon="9.1537964"><ele>743.0</ele><time>2026-04-21T07:43:24.972Z</time></trkpt><trkpt lat="40.6389766" lon="9.1539772"><ele>743.0</ele><time>2026-04-21T07:43:25.97Z</time></trkpt><trkpt lat="40.6389881" lon="9.1541592"><ele>743.0</ele><time>2026-04-21T07:43:26.967Z</time></trkpt><trkpt lat="40.6390202" lon="9.1543635"><ele>743.0</ele><time>2026-04-21T07:43:27.974Z</time></trkpt><trkpt lat="40.6390215" lon="9.1545427"><ele>745.0</ele><time>2026-04-21T07:43:28.966Z</time></trkpt><trkpt lat="40.6390049" lon="9.1547374"><ele>747.0</ele><time>2026-04-21T07:43:29.967Z</time></trkpt><trkpt lat="40.6389759" lon="9.1549193"><ele>749.0</ele><time>2026-04-21T07:43:30.969Z</time></trkpt><trkpt lat="40.6389364" lon="9.1550947"><ele>751.0</ele><time>2026-04-21T07:43:31.971Z</time></trkpt><trkpt lat="40.6389116" lon="9.1552575"><ele>752.1999999999999</ele><time>2026-04-21T07:43:32.968Z</time></trkpt><trkpt lat="40.6389036" lon="9.1553833"><ele>753.4</ele><time>2026-04-21T07:43:33.956Z</time></trkpt><trkpt lat="40.638923" lon="9.1554913"><ele>754.6</ele><time>2026-04-21T07:43:34.957Z</time></trkpt><trkpt lat="40.6389562" lon="9.1555907"><ele>755.8</ele><time>2026-04-21T07:43:35.961Z</time></trkpt><trkpt lat="40.6390409" lon="9.1557097"><ele>757.0</ele><time>2026-04-21T07:43:37.968Z</time></trkpt><trkpt lat="40.6391787" lon="9.1557258"><ele>757.0</ele><time>2026-04-21T07:43:39.961Z</time></trkpt><trkpt lat="40.6392682" lon="9.1556806"><ele>757.0</ele><time>2026-04-21T07:43:40.97Z</time></trkpt><trkpt lat="40.6393638" lon="9.1556356"><ele>757.0</ele><time>2026-04-21T07:43:41.961Z</time></trkpt><trkpt lat="40.6394578" lon="9.1556183"><ele>757.0</ele><time>2026-04-21T07:43:42.966Z</time></trkpt><trkpt lat="40.6395545" lon="9.1556209"><ele>757.0</ele><time>2026-04-21T07:43:43.96Z</time></trkpt><trkpt lat="40.6396427" lon="9.155647"><ele>758.6666666666667</ele><time>2026-04-21T07:43:44.961Z</time></trkpt><trkpt lat="40.6397133" lon="9.1556718"><ele>760.3333333333334</ele><time>2026-04-21T07:43:45.962Z</time></trkpt><trkpt lat="40.6397726" lon="9.155714"><ele>762.0</ele><time>2026-04-21T07:43:46.974Z</time></trkpt><trkpt lat="40.6398219" lon="9.1557937"><ele>763.6666666666666</ele><time>2026-04-21T07:43:47.971Z</time></trkpt><trkpt lat="40.6398446" lon="9.1559068"><ele>765.3333333333333</ele><time>2026-04-21T07:43:48.96Z</time></trkpt><trkpt lat="40.639841" lon="9.156026"><ele>767.0</ele><time>2026-04-21T07:43:49.957Z</time></trkpt><trkpt lat="40.639825" lon="9.1561569"><ele>767.0</ele><time>2026-04-21T07:43:50.969Z</time></trkpt><trkpt lat="40.6397742" lon="9.1562809"><ele>767.0</ele><time>2026-04-21T07:43:51.959Z</time></trkpt><trkpt lat="40.6397017" lon="9.1564012"><ele>767.0</ele><time>2026-04-21T07:43:52.963Z</time></trkpt><trkpt lat="40.6396171" lon="9.156509"><ele>767.0</ele><time>2026-04-21T07:43:53.975Z</time></trkpt><trkpt lat="40.6395367" lon="9.156624"><ele>764.75</ele><time>2026-04-21T07:43:54.969Z</time></trkpt><trkpt lat="40.6394532" lon="9.1567449"><ele>762.5</ele><time>2026-04-21T07:43:55.973Z</time></trkpt><trkpt lat="40.6393695" lon="9.1568697"><ele>760.25</ele><time>2026-04-21T07:43:56.962Z</time></trkpt><trkpt lat="40.6392733" lon="9.1569937"><ele>758.0</ele><time>2026-04-21T07:43:57.963Z</time></trkpt><trkpt lat="40.6391702" lon="9.1571031"><ele>758.0</ele><time>2026-04-21T07:43:58.963Z</time></trkpt><trkpt lat="40.6390582" lon="9.1572045"><ele>758.0</ele><time>2026-04-21T07:43:59.961Z</time></trkpt><trkpt lat="40.6389469" lon="9.1572993"><ele>758.0</ele><time>2026-04-21T07:44:00.962Z</time></trkpt><trkpt lat="40.6388538" lon="9.1573968"><ele>758.0</ele><time>2026-04-21T07:44:01.959Z</time></trkpt><trkpt lat="40.6387651" lon="9.1575014"><ele>759.0</ele><time>2026-04-21T07:44:02.958Z</time></trkpt><trkpt lat="40.6386852" lon="9.157617"><ele>760.0</ele><time>2026-04-21T07:44:03.96Z</time></trkpt><trkpt lat="40.6386046" lon="9.1577225"><ele>761.0</ele><time>2026-04-21T07:44:04.963Z</time></trkpt><trkpt lat="40.6385199" lon="9.1578051"><ele>762.0</ele><time>2026-04-21T07:44:05.957Z</time></trkpt><trkpt lat="40.6384344" lon="9.15787"><ele>763.0</ele><time>2026-04-21T07:44:06.962Z</time></trkpt><trkpt lat="40.6383573" lon="9.1579052"><ele>763.0</ele><time>2026-04-21T07:44:07.963Z</time></trkpt><trkpt lat="40.6382599" lon="9.1579626"><ele>763.0</ele><time>2026-04-21T07:44:09.967Z</time></trkpt><trkpt lat="40.6383179" lon="9.1580201"><ele>763.0</ele><time>2026-04-21T07:44:20.974Z</time></trkpt><trkpt lat="40.6384314" lon="9.1580579"><ele>763.0</ele><time>2026-04-21T07:44:22.977Z</time></trkpt><trkpt lat="40.638514" lon="9.1580688"><ele>763.0</ele><time>2026-04-21T07:44:23.979Z</time></trkpt><trkpt lat="40.6386045" lon="9.1580744"><ele>764.8333333333334</ele><time>2026-04-21T07:44:24.974Z</time></trkpt><trkpt lat="40.6386955" lon="9.1580657"><ele>766.6666666666667</ele><time>2026-04-21T07:44:25.969Z</time></trkpt><trkpt lat="40.6387792" lon="9.1580351"><ele>768.5</ele><time>2026-04-21T07:44:26.971Z</time></trkpt><trkpt lat="40.6388594" lon="9.157991"><ele>770.3333333333334</ele><time>2026-04-21T07:44:27.97Z</time></trkpt><trkpt lat="40.6389311" lon="9.1579531"><ele>772.1666666666666</ele><time>2026-04-21T07:44:28.97Z</time></trkpt><trkpt lat="40.6389992" lon="9.1579132"><ele>774.0</ele><time>2026-04-21T07:44:29.969Z</time></trkpt><trkpt lat="40.6390689" lon="9.1578726"><ele>774.0</ele><time>2026-04-21T07:44:30.972Z</time></trkpt><trkpt lat="40.6391417" lon="9.1578387"><ele>774.0</ele><time>2026-04-21T07:44:31.973Z</time></trkpt><trkpt lat="40.639225" lon="9.1578197"><ele>774.0</ele><time>2026-04-21T07:44:32.972Z</time></trkpt><trkpt lat="40.639307" lon="9.1578122"><ele>774.0</ele><time>2026-04-21T07:44:33.971Z</time></trkpt><trkpt lat="40.6393887" lon="9.157826"><ele>774.0</ele><time>2026-04-21T07:44:34.969Z</time></trkpt><trkpt lat="40.6394682" lon="9.157854"><ele>774.0</ele><time>2026-04-21T07:44:35.971Z</time></trkpt><trkpt lat="40.6395473" lon="9.1579081"><ele>776.0</ele><time>2026-04-21T07:44:36.969Z</time></trkpt><trkpt lat="40.6396122" lon="9.1579741"><ele>778.0</ele><time>2026-04-21T07:44:37.97Z</time></trkpt><trkpt lat="40.6396737" lon="9.1580525"><ele>780.0</ele><time>2026-04-21T07:44:38.974Z</time></trkpt><trkpt lat="40.6397234" lon="9.1581464"><ele>782.0</ele><time>2026-04-21T07:44:39.97Z</time></trkpt><trkpt lat="40.6397628" lon="9.1582483"><ele>784.0</ele><time>2026-04-21T07:44:40.972Z</time></trkpt><trkpt lat="40.6398022" lon="9.1583628"><ele>786.0</ele><time>2026-04-21T07:44:41.971Z</time></trkpt><trkpt lat="40.6398348" lon="9.1585005"><ele>787.1999999999999</ele><time>2026-04-21T07:44:42.972Z</time></trkpt><trkpt lat="40.6398531" lon="9.1586536"><ele>788.4</ele><time>2026-04-21T07:44:43.986Z</time></trkpt><trkpt lat="40.6398637" lon="9.1587922"><ele>789.6</ele><time>2026-04-21T07:44:45.054Z</time></trkpt><trkpt lat="40.6398764" lon="9.1589357"><ele>790.8</ele><time>2026-04-21T07:44:46.055Z</time></trkpt><trkpt lat="40.639895" lon="9.1590799"><ele>792.0</ele><time>2026-04-21T07:44:47.055Z</time></trkpt><trkpt lat="40.639921" lon="9.159225"><ele>793.5</ele><time>2026-04-21T07:44:48.06Z</time></trkpt><trkpt lat="40.6399484" lon="9.1593683"><ele>795.0</ele><time>2026-04-21T07:44:49.055Z</time></trkpt><trkpt lat="40.6399734" lon="9.1595234"><ele>796.5</ele><time>2026-04-21T07:44:50.06Z</time></trkpt><trkpt lat="40.6400018" lon="9.1596777"><ele>798.0</ele><time>2026-04-21T07:44:51.058Z</time></trkpt><trkpt lat="40.6400225" lon="9.1598334"><ele>799.25</ele><time>2026-04-21T07:44:52.057Z</time></trkpt><trkpt lat="40.6400461" lon="9.1600022"><ele>800.5</ele><time>2026-04-21T07:44:53.064Z</time></trkpt><trkpt lat="40.6400708" lon="9.1601802"><ele>801.75</ele><time>2026-04-21T07:44:54.06Z</time></trkpt><trkpt lat="40.6400918" lon="9.1603596"><ele>803.0</ele><time>2026-04-21T07:44:55.059Z</time></trkpt><trkpt lat="40.6401389" lon="9.1605271"><ele>803.0</ele><time>2026-04-21T07:44:56.058Z</time></trkpt><trkpt lat="40.6401689" lon="9.1606907"><ele>803.0</ele><time>2026-04-21T07:44:57.059Z</time></trkpt><trkpt lat="40.6401888" lon="9.1608507"><ele>803.0</ele><time>2026-04-21T07:44:58.061Z</time></trkpt><trkpt lat="40.6402109" lon="9.1610008"><ele>803.0</ele><time>2026-04-21T07:44:59.061Z</time></trkpt><trkpt lat="40.6402453" lon="9.1611317"><ele>803.8</ele><time>2026-04-21T07:45:00.051Z</time></trkpt><trkpt lat="40.6402797" lon="9.1612709"><ele>804.5999999999999</ele><time>2026-04-21T07:45:01.054Z</time></trkpt><trkpt lat="40.6403209" lon="9.1614062"><ele>805.4000000000001</ele><time>2026-04-21T07:45:02.046Z</time></trkpt><trkpt lat="40.6403692" lon="9.1615276"><ele>806.2</ele><time>2026-04-21T07:45:03.035Z</time></trkpt><trkpt lat="40.6404168" lon="9.1616422"><ele>807.0</ele><time>2026-04-21T07:45:04.033Z</time></trkpt><trkpt lat="40.640469" lon="9.1617467"><ele>807.0</ele><time>2026-04-21T07:45:05.037Z</time></trkpt><trkpt lat="40.640517" lon="9.1618614"><ele>807.0</ele><time>2026-04-21T07:45:06.04Z</time></trkpt><trkpt lat="40.6405499" lon="9.1619747"><ele>807.0</ele><time>2026-04-21T07:45:07.053Z</time></trkpt><trkpt lat="40.6405799" lon="9.1620936"><ele>807.0</ele><time>2026-04-21T07:45:08.051Z</time></trkpt><trkpt lat="40.6406" lon="9.1622113"><ele>807.0</ele><time>2026-04-21T07:45:09.056Z</time></trkpt><trkpt lat="40.6406191" lon="9.1623246"><ele>806.5</ele><time>2026-04-21T07:45:10.052Z</time></trkpt><trkpt lat="40.6406327" lon="9.1624342"><ele>806.0</ele><time>2026-04-21T07:45:11.038Z</time></trkpt><trkpt lat="40.6406464" lon="9.1625466"><ele>805.5</ele><time>2026-04-21T07:45:12.04Z</time></trkpt><trkpt lat="40.6406562" lon="9.1626642"><ele>805.0</ele><time>2026-04-21T07:45:13.035Z</time></trkpt><trkpt lat="40.6406621" lon="9.1627748"><ele>804.5</ele><time>2026-04-21T07:45:14.04Z</time></trkpt><trkpt lat="40.640677" lon="9.1628898"><ele>804.0</ele><time>2026-04-21T07:45:15.053Z</time></trkpt><trkpt lat="40.640681" lon="9.1629917"><ele>804.0</ele><time>2026-04-21T07:45:16.053Z</time></trkpt><trkpt lat="40.6406751" lon="9.1630885"><ele>804.0</ele><time>2026-04-21T07:45:17.062Z</time></trkpt><trkpt lat="40.6406145" lon="9.1632543"><ele>804.0</ele><time>2026-04-21T07:45:19.038Z</time></trkpt><trkpt lat="40.6405793" lon="9.1633663"><ele>804.0</ele><time>2026-04-21T07:45:20.043Z</time></trkpt><trkpt lat="40.6405412" lon="9.1634743"><ele>804.0</ele><time>2026-04-21T07:45:21.04Z</time></trkpt><trkpt lat="40.6405016" lon="9.1635861"><ele>803.6666666666666</ele><time>2026-04-21T07:45:22.044Z</time></trkpt><trkpt lat="40.6404789" lon="9.1636989"><ele>803.3333333333333</ele><time>2026-04-21T07:45:23.055Z</time></trkpt><trkpt lat="40.6404642" lon="9.1638178"><ele>803.0</ele><time>2026-04-21T07:45:24.051Z</time></trkpt><trkpt lat="40.6404552" lon="9.1639337"><ele>802.6666666666666</ele><time>2026-04-21T07:45:25.039Z</time></trkpt><trkpt lat="40.6404565" lon="9.1640515"><ele>802.3333333333333</ele><time>2026-04-21T07:45:26.035Z</time></trkpt><trkpt lat="40.6404447" lon="9.1641697"><ele>802.0</ele><time>2026-04-21T07:45:27.031Z</time></trkpt><trkpt lat="40.6404383" lon="9.1642861"><ele>802.0</ele><time>2026-04-21T07:45:28.043Z</time></trkpt><trkpt lat="40.6404459" lon="9.1644147"><ele>802.0</ele><time>2026-04-21T07:45:29.049Z</time></trkpt><trkpt lat="40.6404485" lon="9.1645391"><ele>802.0</ele><time>2026-04-21T07:45:30.049Z</time></trkpt><trkpt lat="40.6404602" lon="9.1646651"><ele>802.0</ele><time>2026-04-21T07:45:31.052Z</time></trkpt><trkpt lat="40.6404678" lon="9.1647865"><ele>802.0</ele><time>2026-04-21T07:45:32.035Z</time></trkpt><trkpt lat="40.6404679" lon="9.1649102"><ele>801.4000000000001</ele><time>2026-04-21T07:45:33.034Z</time></trkpt><trkpt lat="40.6404714" lon="9.1650414"><ele>800.8000000000001</ele><time>2026-04-21T07:45:34.038Z</time></trkpt><trkpt lat="40.6404687" lon="9.1651637"><ele>800.2</ele><time>2026-04-21T07:45:35.038Z</time></trkpt><trkpt lat="40.6404714" lon="9.1652853"><ele>799.6</ele><time>2026-04-21T07:45:36.049Z</time></trkpt><trkpt lat="40.6404856" lon="9.1654019"><ele>799.0</ele><time>2026-04-21T07:45:37.049Z</time></trkpt><trkpt lat="40.6405084" lon="9.1655203"><ele>798.9999999999999</ele><time>2026-04-21T07:45:38.054Z</time></trkpt><trkpt lat="40.6405309" lon="9.1656328"><ele>799.0</ele><time>2026-04-21T07:45:39.053Z</time></trkpt><trkpt lat="40.6405548" lon="9.1657412"><ele>799.0</ele><time>2026-04-21T07:45:40.055Z</time></trkpt><trkpt lat="40.6405814" lon="9.1658428"><ele>799.0</ele><time>2026-04-21T07:45:41.055Z</time></trkpt><trkpt lat="40.6406064" lon="9.1659398"><ele>798.9999999999999</ele><time>2026-04-21T07:45:42.054Z</time></trkpt><trkpt lat="40.6406321" lon="9.1660298"><ele>799.0</ele><time>2026-04-21T07:45:43.056Z</time></trkpt><trkpt lat="40.6406528" lon="9.1661113"><ele>797.9999999999999</ele><time>2026-04-21T07:45:44.057Z</time></trkpt><trkpt lat="40.6406834" lon="9.1662368"><ele>797.0</ele><time>2026-04-21T07:45:46.043Z</time></trkpt><trkpt lat="40.6406946" lon="9.1663275"><ele>796.0</ele><time>2026-04-21T07:45:48.049Z</time></trkpt><trkpt lat="40.6407281" lon="9.1664301"><ele>795.0</ele><time>2026-04-21T07:51:22.048Z</time></trkpt><trkpt lat="40.640747" lon="9.1665462"><ele>793.9999999999999</ele><time>2026-04-21T07:51:24.046Z</time></trkpt><trkpt lat="40.6407677" lon="9.1666695"><ele>793.0</ele><time>2026-04-21T07:51:26.038Z</time></trkpt><trkpt lat="40.6407913" lon="9.1667963"><ele>791.8333333333333</ele><time>2026-04-21T07:51:28.044Z</time></trkpt><trkpt lat="40.6408058" lon="9.1668812"><ele>790.6666666666666</ele><time>2026-04-21T07:51:29.048Z</time></trkpt><trkpt lat="40.6408251" lon="9.1669624"><ele>789.5</ele><time>2026-04-21T07:51:30.059Z</time></trkpt><trkpt lat="40.64085" lon="9.1670615"><ele>788.3333333333333</ele><time>2026-04-21T07:51:31.063Z</time></trkpt><trkpt lat="40.6408809" lon="9.1671703"><ele>787.1666666666666</ele><time>2026-04-21T07:51:32.063Z</time></trkpt><trkpt lat="40.6408795" lon="9.1673003"><ele>786.0</ele><time>2026-04-21T07:51:33.062Z</time></trkpt><trkpt lat="40.6409112" lon="9.1674045"><ele>785.0</ele><time>2026-04-21T07:51:34.069Z</time></trkpt><trkpt lat="40.6409452" lon="9.1675124"><ele>784.0</ele><time>2026-04-21T07:51:35.063Z</time></trkpt><trkpt lat="40.6409812" lon="9.1676255"><ele>783.0</ele><time>2026-04-21T07:51:36.061Z</time></trkpt><trkpt lat="40.6410177" lon="9.1677437"><ele>782.0</ele><time>2026-04-21T07:51:37.077Z</time></trkpt><trkpt lat="40.6410521" lon="9.1678611"><ele>781.0</ele><time>2026-04-21T07:51:38.064Z</time></trkpt><trkpt lat="40.641085" lon="9.1679904"><ele>781.0</ele><time>2026-04-21T07:51:39.059Z</time></trkpt><trkpt lat="40.6411303" lon="9.1681093"><ele>781.0</ele><time>2026-04-21T07:51:40.06Z</time></trkpt><trkpt lat="40.6411792" lon="9.1682239"><ele>781.0</ele><time>2026-04-21T07:51:41.055Z</time></trkpt><trkpt lat="40.6412274" lon="9.1683378"><ele>781.0</ele><time>2026-04-21T07:51:42.04Z</time></trkpt><trkpt lat="40.6412906" lon="9.1684299"><ele>781.0</ele><time>2026-04-21T07:51:43.044Z</time></trkpt><trkpt lat="40.6413631" lon="9.1685086"><ele>782.0</ele><time>2026-04-21T07:51:44.049Z</time></trkpt><trkpt lat="40.6414423" lon="9.1685693"><ele>783.0</ele><time>2026-04-21T07:51:45.044Z</time></trkpt><trkpt lat="40.6415217" lon="9.1686023"><ele>784.0</ele><time>2026-04-21T07:51:46.06Z</time></trkpt><trkpt lat="40.6416103" lon="9.1686265"><ele>785.0</ele><time>2026-04-21T07:51:47.071Z</time></trkpt><trkpt lat="40.641707" lon="9.168649"><ele>786.0</ele><time>2026-04-21T07:51:48.042Z</time></trkpt><trkpt lat="40.6417974" lon="9.1686683"><ele>786.0</ele><time>2026-04-21T07:51:49.047Z</time></trkpt><trkpt lat="40.6418873" lon="9.1686856"><ele>786.0</ele><time>2026-04-21T07:51:50.051Z</time></trkpt><trkpt lat="40.6419727" lon="9.1687144"><ele>786.0</ele><time>2026-04-21T07:51:51.046Z</time></trkpt><trkpt lat="40.642046" lon="9.1687585"><ele>786.0</ele><time>2026-04-21T07:51:52.06Z</time></trkpt><trkpt lat="40.6421025" lon="9.1688206"><ele>786.0</ele><time>2026-04-21T07:51:53.058Z</time></trkpt><trkpt lat="40.6421583" lon="9.1689039"><ele>786.0</ele><time>2026-04-21T07:51:54.043Z</time></trkpt><trkpt lat="40.642196" lon="9.1689848"><ele>784.8333333333334</ele><time>2026-04-21T07:51:55.042Z</time></trkpt><trkpt lat="40.6422557" lon="9.1690452"><ele>783.6666666666667</ele><time>2026-04-21T07:51:56.042Z</time></trkpt><trkpt lat="40.6422704" lon="9.1691567"><ele>782.5</ele><time>2026-04-21T07:51:57.05Z</time></trkpt><trkpt lat="40.6422783" lon="9.1692711"><ele>781.3333333333334</ele><time>2026-04-21T07:51:58.06Z</time></trkpt><trkpt lat="40.6422973" lon="9.1693884"><ele>780.1666666666667</ele><time>2026-04-21T07:51:59.065Z</time></trkpt><trkpt lat="40.6423605" lon="9.1695052"><ele>779.0</ele><time>2026-04-21T07:52:00.066Z</time></trkpt><trkpt lat="40.6424007" lon="9.1696329"><ele>779.0</ele><time>2026-04-21T07:52:01.067Z</time></trkpt><trkpt lat="40.6424244" lon="9.1697602"><ele>779.0</ele><time>2026-04-21T07:52:02.072Z</time></trkpt><trkpt lat="40.6424498" lon="9.1698852"><ele>779.0</ele><time>2026-04-21T07:52:03.065Z</time></trkpt><trkpt lat="40.6424816" lon="9.1700167"><ele>779.0</ele><time>2026-04-21T07:52:04.066Z</time></trkpt><trkpt lat="40.6425153" lon="9.1701221"><ele>779.0</ele><time>2026-04-21T07:52:05.063Z</time></trkpt><trkpt lat="40.6425559" lon="9.1702297"><ele>777.1666666666667</ele><time>2026-04-21T07:52:06.064Z</time></trkpt><trkpt lat="40.6425965" lon="9.1703328"><ele>775.3333333333334</ele><time>2026-04-21T07:52:07.079Z</time></trkpt><trkpt lat="40.6426397" lon="9.1704271"><ele>773.5</ele><time>2026-04-21T07:52:08.065Z</time></trkpt><trkpt lat="40.6426658" lon="9.1705038"><ele>771.6666666666667</ele><time>2026-04-21T07:52:09.047Z</time></trkpt><trkpt lat="40.6426786" lon="9.1706237"><ele>769.8333333333334</ele><time>2026-04-21T07:52:11.045Z</time></trkpt><trkpt lat="40.6427437" lon="9.1706205"><ele>768.0</ele><time>2026-04-21T07:52:22.067Z</time></trkpt><trkpt lat="40.642671" lon="9.1706477"><ele>768.0</ele><time>2026-04-21T07:52:40.066Z</time></trkpt><trkpt lat="40.6426032" lon="9.170679"><ele>768.0</ele><time>2026-04-21T07:52:42.05Z</time></trkpt><trkpt lat="40.6425356" lon="9.1707116"><ele>768.0</ele><time>2026-04-21T07:52:43.061Z</time></trkpt><trkpt lat="40.6424557" lon="9.1707352"><ele>768.0</ele><time>2026-04-21T07:52:44.065Z</time></trkpt><trkpt lat="40.6423713" lon="9.1707741"><ele>768.0</ele><time>2026-04-21T07:52:45.056Z</time></trkpt><trkpt lat="40.6422922" lon="9.1708026"><ele>768.0</ele><time>2026-04-21T07:52:46.057Z</time></trkpt><trkpt lat="40.6422081" lon="9.170843"><ele>766.6666666666666</ele><time>2026-04-21T07:52:47.069Z</time></trkpt><trkpt lat="40.6421252" lon="9.1708888"><ele>765.3333333333334</ele><time>2026-04-21T07:52:48.06Z</time></trkpt><trkpt lat="40.6420574" lon="9.1709366"><ele>764.0</ele><time>2026-04-21T07:52:49.063Z</time></trkpt><trkpt lat="40.6419949" lon="9.1709936"><ele>762.6666666666667</ele><time>2026-04-21T07:52:50.063Z</time></trkpt><trkpt lat="40.6419398" lon="9.1710621"><ele>761.3333333333334</ele><time>2026-04-21T07:52:51.042Z</time></trkpt><trkpt lat="40.6418886" lon="9.171141"><ele>760.0</ele><time>2026-04-21T07:52:52.041Z</time></trkpt><trkpt lat="40.6418409" lon="9.171227"><ele>760.0</ele><time>2026-04-21T07:52:53.05Z</time></trkpt><trkpt lat="40.6417878" lon="9.1713148"><ele>760.0</ele><time>2026-04-21T07:52:54.044Z</time></trkpt><trkpt lat="40.6417287" lon="9.1714098"><ele>760.0</ele><time>2026-04-21T07:52:55.063Z</time></trkpt><trkpt lat="40.6416734" lon="9.1714838"><ele>760.0</ele><time>2026-04-21T07:52:56.062Z</time></trkpt><trkpt lat="40.6416144" lon="9.1715481"><ele>760.0</ele><time>2026-04-21T07:52:57.072Z</time></trkpt><trkpt lat="40.6415471" lon="9.1715996"><ele>760.0</ele><time>2026-04-21T07:52:58.06Z</time></trkpt><trkpt lat="40.6414734" lon="9.1716457"><ele>758.6</ele><time>2026-04-21T07:52:59.065Z</time></trkpt><trkpt lat="40.6413931" lon="9.171691"><ele>757.2</ele><time>2026-04-21T07:53:00.042Z</time></trkpt><trkpt lat="40.6413071" lon="9.17173"><ele>755.8</ele><time>2026-04-21T07:53:01.043Z</time></trkpt><trkpt lat="40.641215" lon="9.17177"><ele>754.4</ele><time>2026-04-21T07:53:02.045Z</time></trkpt><trkpt lat="40.6411181" lon="9.1718149"><ele>753.0</ele><time>2026-04-21T07:53:03.043Z</time></trkpt><trkpt lat="40.6410189" lon="9.1718481"><ele>753.0</ele><time>2026-04-21T07:53:04.067Z</time></trkpt><trkpt lat="40.640911" lon="9.1718876"><ele>753.0</ele><time>2026-04-21T07:53:05.065Z</time></trkpt><trkpt lat="40.6408026" lon="9.1719214"><ele>753.0</ele><time>2026-04-21T07:53:06.061Z</time></trkpt><trkpt lat="40.6406948" lon="9.1719482"><ele>753.0</ele><time>2026-04-21T07:53:07.071Z</time></trkpt><trkpt lat="40.6405925" lon="9.1719648"><ele>753.0</ele><time>2026-04-21T07:53:08.059Z</time></trkpt><trkpt lat="40.6404967" lon="9.1719752"><ele>753.0</ele><time>2026-04-21T07:53:09.06Z</time></trkpt><trkpt lat="40.6404065" lon="9.1719801"><ele>753.0</ele><time>2026-04-21T07:53:10.065Z</time></trkpt><trkpt lat="40.640326" lon="9.1719994"><ele>753.0</ele><time>2026-04-21T07:53:11.06Z</time></trkpt><trkpt lat="40.6402503" lon="9.1719901"><ele>753.0</ele><time>2026-04-21T07:53:12.062Z</time></trkpt><trkpt lat="40.6401824" lon="9.1719666"><ele>753.0</ele><time>2026-04-21T07:53:13.063Z</time></trkpt><trkpt lat="40.6401086" lon="9.1719366"><ele>753.0</ele><time>2026-04-21T07:53:14.046Z</time></trkpt><trkpt lat="40.64004" lon="9.1719016"><ele>752.0</ele><time>2026-04-21T07:53:15.042Z</time></trkpt><trkpt lat="40.6399759" lon="9.1718621"><ele>751.0</ele><time>2026-04-21T07:53:16.037Z</time></trkpt><trkpt lat="40.6399097" lon="9.1718163"><ele>750.0</ele><time>2026-04-21T07:53:17.052Z</time></trkpt><trkpt lat="40.6398488" lon="9.1717642"><ele>749.0</ele><time>2026-04-21T07:53:18.049Z</time></trkpt><trkpt lat="40.6397924" lon="9.1717094"><ele>748.0</ele><time>2026-04-21T07:53:19.056Z</time></trkpt><trkpt lat="40.6397257" lon="9.1716456"><ele>747.0</ele><time>2026-04-21T07:53:20.039Z</time></trkpt><trkpt lat="40.6396526" lon="9.1715825"><ele>747.0</ele><time>2026-04-21T07:53:21.041Z</time></trkpt><trkpt lat="40.6395813" lon="9.1715378"><ele>747.0</ele><time>2026-04-21T07:53:22.042Z</time></trkpt><trkpt lat="40.6395047" lon="9.1715046"><ele>747.0</ele><time>2026-04-21T07:53:23.044Z</time></trkpt><trkpt lat="40.6394403" lon="9.1714718"><ele>747.0</ele><time>2026-04-21T07:53:24.061Z</time></trkpt><trkpt lat="40.6393783" lon="9.1714463"><ele>747.0</ele><time>2026-04-21T07:53:25.054Z</time></trkpt><trkpt lat="40.6392819" lon="9.1713656"><ele>747.0</ele><time>2026-04-21T07:53:26.056Z</time></trkpt><trkpt lat="40.6392127" lon="9.1713504"><ele>746.0</ele><time>2026-04-21T07:53:27.068Z</time></trkpt><trkpt lat="40.6391424" lon="9.1713462"><ele>745.0</ele><time>2026-04-21T07:53:28.049Z</time></trkpt><trkpt lat="40.6390766" lon="9.1713592"><ele>744.0</ele><time>2026-04-21T07:53:29.04Z</time></trkpt><trkpt lat="40.639015" lon="9.1713981"><ele>743.0</ele><time>2026-04-21T07:53:30.032Z</time></trkpt><trkpt lat="40.6389726" lon="9.1714751"><ele>742.0</ele><time>2026-04-21T07:53:31.037Z</time></trkpt><trkpt lat="40.6388918" lon="9.171585"><ele>741.0</ele><time>2026-04-21T07:53:33.047Z</time></trkpt><trkpt lat="40.6388944" lon="9.1717065"><ele>740.1999999999999</ele><time>2026-04-21T07:53:34.053Z</time></trkpt><trkpt lat="40.6388893" lon="9.171829"><ele>739.4</ele><time>2026-04-21T07:53:35.044Z</time></trkpt><trkpt lat="40.6388763" lon="9.1719427"><ele>738.6</ele><time>2026-04-21T07:53:36.032Z</time></trkpt><trkpt lat="40.6388599" lon="9.1720711"><ele>737.8</ele><time>2026-04-21T07:53:37.053Z</time></trkpt><trkpt lat="40.6388361" lon="9.172191"><ele>737.0</ele><time>2026-04-21T07:53:38.037Z</time></trkpt><trkpt lat="40.6388001" lon="9.1723128"><ele>736.6</ele><time>2026-04-21T07:53:39.058Z</time></trkpt><trkpt lat="40.6387623" lon="9.1724397"><ele>736.2</ele><time>2026-04-21T07:53:40.06Z</time></trkpt><trkpt lat="40.6387275" lon="9.1725638"><ele>735.8</ele><time>2026-04-21T07:53:41.059Z</time></trkpt><trkpt lat="40.6386939" lon="9.1726831"><ele>735.4</ele><time>2026-04-21T07:53:42.055Z</time></trkpt><trkpt lat="40.6386468" lon="9.1728018"><ele>735.0</ele><time>2026-04-21T07:53:43.056Z</time></trkpt><trkpt lat="40.6386075" lon="9.1729263"><ele>736.2</ele><time>2026-04-21T07:53:44.05Z</time></trkpt><trkpt lat="40.638557" lon="9.1730446"><ele>737.4</ele><time>2026-04-21T07:53:45.047Z</time></trkpt><trkpt lat="40.6385063" lon="9.1731549"><ele>738.5999999999999</ele><time>2026-04-21T07:53:46.057Z</time></trkpt><trkpt lat="40.638456" lon="9.1732628"><ele>739.8</ele><time>2026-04-21T07:53:47.071Z</time></trkpt><trkpt lat="40.638405" lon="9.1733779"><ele>741.0</ele><time>2026-04-21T07:53:48.06Z</time></trkpt><trkpt lat="40.6383526" lon="9.1734947"><ele>741.0</ele><time>2026-04-21T07:53:49.059Z</time></trkpt><trkpt lat="40.6383133" lon="9.1736099"><ele>741.0</ele><time>2026-04-21T07:53:50.037Z</time></trkpt><trkpt lat="40.6382853" lon="9.1737313"><ele>741.0</ele><time>2026-04-21T07:53:51.032Z</time></trkpt><trkpt lat="40.6382659" lon="9.1738598"><ele>741.0</ele><time>2026-04-21T07:53:52.032Z</time></trkpt><trkpt lat="40.6382508" lon="9.1739832"><ele>741.0</ele><time>2026-04-21T07:53:53.035Z</time></trkpt><trkpt lat="40.6382356" lon="9.1741149"><ele>741.5999999999999</ele><time>2026-04-21T07:53:54.053Z</time></trkpt><trkpt lat="40.6382241" lon="9.1742508"><ele>742.2</ele><time>2026-04-21T07:53:55.051Z</time></trkpt><trkpt lat="40.6382182" lon="9.1743727"><ele>742.8</ele><time>2026-04-21T07:53:56.053Z</time></trkpt><trkpt lat="40.6381988" lon="9.1744874"><ele>743.4000000000001</ele><time>2026-04-21T07:53:57.06Z</time></trkpt><trkpt lat="40.6381655" lon="9.1745903"><ele>744.0</ele><time>2026-04-21T07:53:58.049Z</time></trkpt><trkpt lat="40.6381178" lon="9.1746842"><ele>744.0</ele><time>2026-04-21T07:53:59.04Z</time></trkpt><trkpt lat="40.6380565" lon="9.1747699"><ele>744.0</ele><time>2026-04-21T07:54:00.036Z</time></trkpt><trkpt lat="40.6379865" lon="9.1748504"><ele>744.0</ele><time>2026-04-21T07:54:01.036Z</time></trkpt><trkpt lat="40.6379104" lon="9.1749315"><ele>744.0</ele><time>2026-04-21T07:54:02.033Z</time></trkpt><trkpt lat="40.6378547" lon="9.17501"><ele>744.0</ele><time>2026-04-21T07:54:03.046Z</time></trkpt><trkpt lat="40.6378094" lon="9.1750988"><ele>744.0</ele><time>2026-04-21T07:54:04.047Z</time></trkpt><trkpt lat="40.6377933" lon="9.175197"><ele>744.0</ele><time>2026-04-21T07:54:05.046Z</time></trkpt><trkpt lat="40.6377971" lon="9.1753057"><ele>744.0</ele><time>2026-04-21T07:54:06.034Z</time></trkpt><trkpt lat="40.637817" lon="9.175405"><ele>744.0</ele><time>2026-04-21T07:54:07.04Z</time></trkpt><trkpt lat="40.6377471" lon="9.1754617"><ele>744.0</ele><time>2026-04-21T07:54:08.028Z</time></trkpt><trkpt lat="40.6377569" lon="9.1755674"><ele>744.0</ele><time>2026-04-21T07:54:09.03Z</time></trkpt><trkpt lat="40.6377682" lon="9.1756792"><ele>744.0</ele><time>2026-04-21T07:54:10.041Z</time></trkpt><trkpt lat="40.6377794" lon="9.1758214"><ele>748.0</ele><time>2026-04-21T07:54:11.039Z</time></trkpt><trkpt lat="40.6377813" lon="9.1759737"><ele>752.0</ele><time>2026-04-21T07:54:12.047Z</time></trkpt><trkpt lat="40.6377835" lon="9.1760998"><ele>756.0</ele><time>2026-04-21T07:54:13.049Z</time></trkpt><trkpt lat="40.6377766" lon="9.1762176"><ele>760.0</ele><time>2026-04-21T07:54:14.049Z</time></trkpt><trkpt lat="40.6377559" lon="9.1763168"><ele>764.0</ele><time>2026-04-21T07:54:15.051Z</time></trkpt><trkpt lat="40.6377222" lon="9.176402"><ele>764.0</ele><time>2026-04-21T07:54:16.039Z</time></trkpt><trkpt lat="40.6376733" lon="9.1764785"><ele>764.0</ele><time>2026-04-21T07:54:17.061Z</time></trkpt><trkpt lat="40.6376104" lon="9.1765515"><ele>764.0</ele><time>2026-04-21T07:54:18.044Z</time></trkpt><trkpt lat="40.6375313" lon="9.1766209"><ele>764.0</ele><time>2026-04-21T07:54:19.046Z</time></trkpt><trkpt lat="40.637444" lon="9.1766583"><ele>764.0</ele><time>2026-04-21T07:54:20.052Z</time></trkpt><trkpt lat="40.6373071" lon="9.1766904"><ele>763.25</ele><time>2026-04-21T07:54:21.052Z</time></trkpt><trkpt lat="40.6371928" lon="9.1766862"><ele>762.5</ele><time>2026-04-21T07:54:22.039Z</time></trkpt><trkpt lat="40.6370855" lon="9.1766636"><ele>761.75</ele><time>2026-04-21T07:54:23.04Z</time></trkpt><trkpt lat="40.6369716" lon="9.1766386"><ele>761.0</ele><time>2026-04-21T07:54:24.042Z</time></trkpt><trkpt lat="40.6368526" lon="9.1766141"><ele>763.5</ele><time>2026-04-21T07:54:25.051Z</time></trkpt><trkpt lat="40.6367293" lon="9.1765895"><ele>766.0</ele><time>2026-04-21T07:54:26.056Z</time></trkpt><trkpt lat="40.6366167" lon="9.1765692"><ele>768.5</ele><time>2026-04-21T07:54:27.075Z</time></trkpt><trkpt lat="40.6365077" lon="9.1765453"><ele>771.0</ele><time>2026-04-21T07:54:28.058Z</time></trkpt><trkpt lat="40.636402" lon="9.1765164"><ele>773.5</ele><time>2026-04-21T07:54:29.061Z</time></trkpt><trkpt lat="40.6362894" lon="9.1764829"><ele>776.0</ele><time>2026-04-21T07:54:30.063Z</time></trkpt><trkpt lat="40.6361741" lon="9.1764434"><ele>778.5</ele><time>2026-04-21T07:54:31.063Z</time></trkpt><trkpt lat="40.6360649" lon="9.1763959"><ele>781.0</ele><time>2026-04-21T07:54:32.057Z</time></trkpt><trkpt lat="40.6359564" lon="9.1763401"><ele>783.0</ele><time>2026-04-21T07:54:33.063Z</time></trkpt><trkpt lat="40.6358467" lon="9.1762933"><ele>785.0</ele><time>2026-04-21T07:54:34.059Z</time></trkpt><trkpt lat="40.6357424" lon="9.1762445"><ele>787.0</ele><time>2026-04-21T07:54:35.059Z</time></trkpt><trkpt lat="40.6356489" lon="9.1761818"><ele>789.0</ele><time>2026-04-21T07:54:36.057Z</time></trkpt><trkpt lat="40.6355616" lon="9.1761116"><ele>791.0</ele><time>2026-04-21T07:54:37.062Z</time></trkpt><trkpt lat="40.635476" lon="9.1760336"><ele>791.0</ele><time>2026-04-21T07:54:38.039Z</time></trkpt><trkpt lat="40.635395" lon="9.1759553"><ele>791.0</ele><time>2026-04-21T07:54:39.048Z</time></trkpt><trkpt lat="40.6353189" lon="9.175883"><ele>791.0</ele><time>2026-04-21T07:54:40.048Z</time></trkpt><trkpt lat="40.6352483" lon="9.1758138"><ele>791.0</ele><time>2026-04-21T07:54:41.048Z</time></trkpt><trkpt lat="40.6351775" lon="9.1757506"><ele>791.0</ele><time>2026-04-21T07:54:42.057Z</time></trkpt><trkpt lat="40.6351062" lon="9.175692"><ele>791.6666666666667</ele><time>2026-04-21T07:54:43.051Z</time></trkpt><trkpt lat="40.6350344" lon="9.1756335"><ele>792.3333333333334</ele><time>2026-04-21T07:54:44.057Z</time></trkpt><trkpt lat="40.6349652" lon="9.1755809"><ele>793.0</ele><time>2026-04-21T07:54:45.053Z</time></trkpt><trkpt lat="40.6348936" lon="9.175532"><ele>793.6666666666667</ele><time>2026-04-21T07:54:46.057Z</time></trkpt><trkpt lat="40.6348216" lon="9.1754882"><ele>794.3333333333334</ele><time>2026-04-21T07:54:47.069Z</time></trkpt><trkpt lat="40.6347542" lon="9.1754422"><ele>795.0</ele><time>2026-04-21T07:54:48.061Z</time></trkpt><trkpt lat="40.6346792" lon="9.1753923"><ele>795.0</ele><time>2026-04-21T07:54:49.059Z</time></trkpt><trkpt lat="40.6346089" lon="9.1753405"><ele>795.0</ele><time>2026-04-21T07:54:50.066Z</time></trkpt><trkpt lat="40.6345356" lon="9.1752744"><ele>795.0</ele><time>2026-04-21T07:54:51.06Z</time></trkpt><trkpt lat="40.6344458" lon="9.1752081"><ele>795.0</ele><time>2026-04-21T07:54:52.06Z</time></trkpt><trkpt lat="40.6343565" lon="9.1751496"><ele>795.0</ele><time>2026-04-21T07:54:53.06Z</time></trkpt><trkpt lat="40.634269" lon="9.1751035"><ele>793.0</ele><time>2026-04-21T07:54:54.064Z</time></trkpt><trkpt lat="40.6341881" lon="9.1750612"><ele>791.0</ele><time>2026-04-21T07:54:55.059Z</time></trkpt><trkpt lat="40.6341061" lon="9.1750268"><ele>789.0</ele><time>2026-04-21T07:54:56.061Z</time></trkpt><trkpt lat="40.6340216" lon="9.1749963"><ele>787.0</ele><time>2026-04-21T07:54:56.981Z</time></trkpt><trkpt lat="40.6339395" lon="9.1749697"><ele>785.0</ele><time>2026-04-21T07:54:57.976Z</time></trkpt><trkpt lat="40.6338707" lon="9.1749425"><ele>783.0</ele><time>2026-04-21T07:54:58.977Z</time></trkpt><trkpt lat="40.6337922" lon="9.1749139"><ele>783.0</ele><time>2026-04-21T07:54:59.98Z</time></trkpt><trkpt lat="40.633709" lon="9.1748894"><ele>783.0</ele><time>2026-04-21T07:55:00.978Z</time></trkpt><trkpt lat="40.6336355" lon="9.1748741"><ele>783.0</ele><time>2026-04-21T07:55:01.975Z</time></trkpt><trkpt lat="40.6335662" lon="9.1748714"><ele>783.0</ele><time>2026-04-21T07:55:02.97Z</time></trkpt><trkpt lat="40.633489" lon="9.1748842"><ele>783.0</ele><time>2026-04-21T07:55:03.969Z</time></trkpt><trkpt lat="40.6334269" lon="9.1749019"><ele>783.0</ele><time>2026-04-21T07:55:04.966Z</time></trkpt><trkpt lat="40.6333598" lon="9.1748983"><ele>783.0</ele><time>2026-04-21T07:55:05.973Z</time></trkpt><trkpt lat="40.6332886" lon="9.1748805"><ele>783.1666666666666</ele><time>2026-04-21T07:55:06.972Z</time></trkpt><trkpt lat="40.6332243" lon="9.1748488"><ele>783.3333333333333</ele><time>2026-04-21T07:55:07.976Z</time></trkpt><trkpt lat="40.633157" lon="9.1747907"><ele>783.5</ele><time>2026-04-21T07:55:08.973Z</time></trkpt><trkpt lat="40.6330991" lon="9.174722"><ele>783.6666666666666</ele><time>2026-04-21T07:55:09.977Z</time></trkpt><trkpt lat="40.6330409" lon="9.1746577"><ele>783.8333333333333</ele><time>2026-04-21T07:55:10.979Z</time></trkpt><trkpt lat="40.6329776" lon="9.174607"><ele>784.0</ele><time>2026-04-21T07:55:11.976Z</time></trkpt><trkpt lat="40.6329018" lon="9.174581"><ele>784.0</ele><time>2026-04-21T07:55:12.972Z</time></trkpt><trkpt lat="40.6328124" lon="9.1745845"><ele>784.0</ele><time>2026-04-21T07:55:13.973Z</time></trkpt><trkpt lat="40.6327281" lon="9.1746079"><ele>784.0</ele><time>2026-04-21T07:55:14.977Z</time></trkpt><trkpt lat="40.6326351" lon="9.1746699"><ele>784.0</ele><time>2026-04-21T07:55:15.972Z</time></trkpt><trkpt lat="40.6325537" lon="9.1747386"><ele>784.0</ele><time>2026-04-21T07:55:16.979Z</time></trkpt><trkpt lat="40.6324698" lon="9.1748196"><ele>781.4000000000001</ele><time>2026-04-21T07:55:17.97Z</time></trkpt><trkpt lat="40.6323811" lon="9.1748948"><ele>778.8</ele><time>2026-04-21T07:55:18.974Z</time></trkpt><trkpt lat="40.6322973" lon="9.1749745"><ele>776.2</ele><time>2026-04-21T07:55:19.978Z</time></trkpt><trkpt lat="40.6322132" lon="9.17505"><ele>773.5999999999999</ele><time>2026-04-21T07:55:20.976Z</time></trkpt><trkpt lat="40.6321272" lon="9.1751215"><ele>771.0</ele><time>2026-04-21T07:55:21.974Z</time></trkpt><trkpt lat="40.6320596" lon="9.1751906"><ele>771.0</ele><time>2026-04-21T07:55:22.972Z</time></trkpt><trkpt lat="40.6320085" lon="9.1752555"><ele>771.0</ele><time>2026-04-21T07:55:23.98Z</time></trkpt><trkpt lat="40.6319739" lon="9.1753405"><ele>771.0</ele><time>2026-04-21T07:55:24.977Z</time></trkpt><trkpt lat="40.6319544" lon="9.1754423"><ele>771.0</ele><time>2026-04-21T07:55:25.979Z</time></trkpt><trkpt lat="40.6319386" lon="9.1755595"><ele>771.0</ele><time>2026-04-21T07:55:26.982Z</time></trkpt><trkpt lat="40.6319378" lon="9.1756769"><ele>771.0</ele><time>2026-04-21T07:55:27.977Z</time></trkpt><trkpt lat="40.6319373" lon="9.1758069"><ele>772.1999999999999</ele><time>2026-04-21T07:55:28.978Z</time></trkpt><trkpt lat="40.6319287" lon="9.1759356"><ele>773.4</ele><time>2026-04-21T07:55:29.976Z</time></trkpt><trkpt lat="40.6319109" lon="9.1760601"><ele>774.6</ele><time>2026-04-21T07:55:30.983Z</time></trkpt><trkpt lat="40.6319041" lon="9.1761915"><ele>775.8</ele><time>2026-04-21T07:55:31.971Z</time></trkpt><trkpt lat="40.6318843" lon="9.1763191"><ele>777.0</ele><time>2026-04-21T07:55:32.977Z</time></trkpt><trkpt lat="40.631861" lon="9.1764588"><ele>776.8</ele><time>2026-04-21T07:55:33.976Z</time></trkpt><trkpt lat="40.6318353" lon="9.1765979"><ele>776.6</ele><time>2026-04-21T07:55:34.977Z</time></trkpt><trkpt lat="40.6318075" lon="9.1767349"><ele>776.4</ele><time>2026-04-21T07:55:35.97Z</time></trkpt><trkpt lat="40.6317751" lon="9.1768621"><ele>776.1999999999999</ele><time>2026-04-21T07:55:36.965Z</time></trkpt><trkpt lat="40.6317415" lon="9.1769939"><ele>776.0</ele><time>2026-04-21T07:55:37.969Z</time></trkpt><trkpt lat="40.6317018" lon="9.1771361"><ele>776.0</ele><time>2026-04-21T07:55:38.973Z</time></trkpt><trkpt lat="40.6316475" lon="9.1772827"><ele>776.0</ele><time>2026-04-21T07:55:39.971Z</time></trkpt><trkpt lat="40.6315822" lon="9.1774317"><ele>776.0</ele><time>2026-04-21T07:55:40.978Z</time></trkpt><trkpt lat="40.6315161" lon="9.1775743"><ele>776.0</ele><time>2026-04-21T07:55:41.974Z</time></trkpt><trkpt lat="40.6314546" lon="9.1777275"><ele>775.25</ele><time>2026-04-21T07:55:42.979Z</time></trkpt><trkpt lat="40.6313792" lon="9.1778592"><ele>774.5</ele><time>2026-04-21T07:55:43.976Z</time></trkpt><trkpt lat="40.6313041" lon="9.1779838"><ele>773.75</ele><time>2026-04-21T07:55:44.977Z</time></trkpt><trkpt lat="40.6312239" lon="9.1781045"><ele>773.0</ele><time>2026-04-21T07:55:45.981Z</time></trkpt><trkpt lat="40.631142" lon="9.1782118"><ele>774.8</ele><time>2026-04-21T07:55:46.977Z</time></trkpt><trkpt lat="40.6310697" lon="9.1783169"><ele>776.5999999999999</ele><time>2026-04-21T07:55:47.974Z</time></trkpt><trkpt lat="40.6310018" lon="9.1784201"><ele>778.4000000000001</ele><time>2026-04-21T07:55:48.975Z</time></trkpt><trkpt lat="40.6309418" lon="9.1785075"><ele>780.2</ele><time>2026-04-21T07:55:49.982Z</time></trkpt><trkpt lat="40.6308689" lon="9.1785754"><ele>782.0</ele><time>2026-04-21T07:55:50.97Z</time></trkpt><trkpt lat="40.6307807" lon="9.1786172"><ele>782.0</ele><time>2026-04-21T07:55:51.983Z</time></trkpt><trkpt lat="40.6306828" lon="9.1786315"><ele>782.0</ele><time>2026-04-21T07:55:52.98Z</time></trkpt><trkpt lat="40.6305846" lon="9.1786401"><ele>782.0</ele><time>2026-04-21T07:55:53.98Z</time></trkpt><trkpt lat="40.6304748" lon="9.1786221"><ele>782.0</ele><time>2026-04-21T07:55:54.974Z</time></trkpt><trkpt lat="40.6303523" lon="9.1785793"><ele>782.0</ele><time>2026-04-21T07:55:55.98Z</time></trkpt><trkpt lat="40.6302386" lon="9.1785306"><ele>782.8</ele><time>2026-04-21T07:55:56.982Z</time></trkpt><trkpt lat="40.6301269" lon="9.1784952"><ele>783.6</ele><time>2026-04-21T07:55:57.982Z</time></trkpt><trkpt lat="40.6300205" lon="9.1784775"><ele>784.4</ele><time>2026-04-21T07:55:58.977Z</time></trkpt><trkpt lat="40.6299215" lon="9.1784858"><ele>785.1999999999999</ele><time>2026-04-21T07:55:59.972Z</time></trkpt><trkpt lat="40.6298169" lon="9.1784756"><ele>786.0</ele><time>2026-04-21T07:56:00.972Z</time></trkpt><trkpt lat="40.629714" lon="9.1784215"><ele>786.0</ele><time>2026-04-21T07:56:01.97Z</time></trkpt><trkpt lat="40.6296114" lon="9.1783511"><ele>786.0</ele><time>2026-04-21T07:56:02.968Z</time></trkpt><trkpt lat="40.6295152" lon="9.1782668"><ele>786.0</ele><time>2026-04-21T07:56:03.965Z</time></trkpt><trkpt lat="40.6294427" lon="9.1781684"><ele>786.0</ele><time>2026-04-21T07:56:04.976Z</time></trkpt><trkpt lat="40.6293714" lon="9.1780712"><ele>786.0</ele><time>2026-04-21T07:56:05.971Z</time></trkpt><trkpt lat="40.6292978" lon="9.1779853"><ele>785.0</ele><time>2026-04-21T07:56:06.969Z</time></trkpt><trkpt lat="40.6292237" lon="9.1779139"><ele>784.0</ele><time>2026-04-21T07:56:07.969Z</time></trkpt><trkpt lat="40.6291526" lon="9.1778521"><ele>783.0</ele><time>2026-04-21T07:56:08.954Z</time></trkpt><trkpt lat="40.6290797" lon="9.1777976"><ele>782.0</ele><time>2026-04-21T07:56:09.968Z</time></trkpt><trkpt lat="40.6290055" lon="9.1777333"><ele>781.0</ele><time>2026-04-21T07:56:10.972Z</time></trkpt><trkpt lat="40.6289319" lon="9.1776714"><ele>780.0</ele><time>2026-04-21T07:56:11.976Z</time></trkpt><trkpt lat="40.6288577" lon="9.1776309"><ele>780.0</ele><time>2026-04-21T07:56:12.98Z</time></trkpt><trkpt lat="40.62878" lon="9.177591"><ele>780.0</ele><time>2026-04-21T07:56:13.969Z</time></trkpt><trkpt lat="40.6287118" lon="9.1775752"><ele>780.0</ele><time>2026-04-21T07:56:14.959Z</time></trkpt><trkpt lat="40.6286292" lon="9.1775881"><ele>780.0</ele><time>2026-04-21T07:56:15.967Z</time></trkpt><trkpt lat="40.6285302" lon="9.1776251"><ele>780.0</ele><time>2026-04-21T07:56:16.968Z</time></trkpt><trkpt lat="40.6284226" lon="9.1776837"><ele>778.8</ele><time>2026-04-21T07:56:17.977Z</time></trkpt><trkpt lat="40.6283162" lon="9.177732"><ele>777.6</ele><time>2026-04-21T07:56:18.968Z</time></trkpt><trkpt lat="40.6282188" lon="9.1777773"><ele>776.4000000000001</ele><time>2026-04-21T07:56:19.971Z</time></trkpt><trkpt lat="40.6281149" lon="9.1778111"><ele>775.2</ele><time>2026-04-21T07:56:20.966Z</time></trkpt><trkpt lat="40.6279995" lon="9.177838"><ele>774.0</ele><time>2026-04-21T07:56:21.964Z</time></trkpt><trkpt lat="40.6278819" lon="9.1778596"><ele>776.5</ele><time>2026-04-21T07:56:22.968Z</time></trkpt><trkpt lat="40.6277633" lon="9.177896"><ele>779.0</ele><time>2026-04-21T07:56:23.962Z</time></trkpt><trkpt lat="40.6276506" lon="9.1779567"><ele>781.5</ele><time>2026-04-21T07:56:24.966Z</time></trkpt><trkpt lat="40.6275541" lon="9.1780246"><ele>784.0</ele><time>2026-04-21T07:56:25.969Z</time></trkpt><trkpt lat="40.6274552" lon="9.1780822"><ele>784.0</ele><time>2026-04-21T07:56:26.967Z</time></trkpt><trkpt lat="40.6273517" lon="9.1781428"><ele>784.0</ele><time>2026-04-21T07:56:27.964Z</time></trkpt><trkpt lat="40.6272448" lon="9.1782001"><ele>784.0</ele><time>2026-04-21T07:56:28.959Z</time></trkpt><trkpt lat="40.6271347" lon="9.1782594"><ele>784.0</ele><time>2026-04-21T07:56:29.965Z</time></trkpt><trkpt lat="40.6270267" lon="9.178323"><ele>784.0</ele><time>2026-04-21T07:56:30.961Z</time></trkpt><trkpt lat="40.6269166" lon="9.1783853"><ele>784.0</ele><time>2026-04-21T07:56:31.967Z</time></trkpt><trkpt lat="40.6267927" lon="9.1784485"><ele>784.0</ele><time>2026-04-21T07:56:32.958Z</time></trkpt><trkpt lat="40.6266709" lon="9.1785122"><ele>784.0</ele><time>2026-04-21T07:56:33.959Z</time></trkpt><trkpt lat="40.6265445" lon="9.1785777"><ele>784.0</ele><time>2026-04-21T07:56:34.961Z</time></trkpt><trkpt lat="40.6264105" lon="9.1786409"><ele>784.0</ele><time>2026-04-21T07:56:35.957Z</time></trkpt><trkpt lat="40.6262866" lon="9.1787375"><ele>784.0</ele><time>2026-04-21T07:56:36.957Z</time></trkpt><trkpt lat="40.6261811" lon="9.178828"><ele>784.0</ele><time>2026-04-21T07:56:37.963Z</time></trkpt><trkpt lat="40.6260745" lon="9.1789239"><ele>785.5</ele><time>2026-04-21T07:56:38.962Z</time></trkpt><trkpt lat="40.6259727" lon="9.1790163"><ele>787.0</ele><time>2026-04-21T07:56:39.971Z</time></trkpt><trkpt lat="40.6258904" lon="9.1791124"><ele>788.5</ele><time>2026-04-21T07:56:40.961Z</time></trkpt><trkpt lat="40.6258085" lon="9.1792217"><ele>790.0</ele><time>2026-04-21T07:56:41.956Z</time></trkpt><trkpt lat="40.6257493" lon="9.1793514"><ele>791.0</ele><time>2026-04-21T07:56:42.961Z</time></trkpt><trkpt lat="40.6256774" lon="9.1794679"><ele>792.0</ele><time>2026-04-21T07:56:43.957Z</time></trkpt><trkpt lat="40.6255951" lon="9.1795913"><ele>793.0</ele><time>2026-04-21T07:56:44.963Z</time></trkpt><trkpt lat="40.6255172" lon="9.1797176"><ele>794.0</ele><time>2026-04-21T07:56:45.953Z</time></trkpt><trkpt lat="40.6254329" lon="9.1798241"><ele>796.2</ele><time>2026-04-21T07:56:46.964Z</time></trkpt><trkpt lat="40.6253497" lon="9.1799151"><ele>798.4000000000001</ele><time>2026-04-21T07:56:47.959Z</time></trkpt><trkpt lat="40.6252718" lon="9.1800001"><ele>800.6</ele><time>2026-04-21T07:56:48.961Z</time></trkpt><trkpt lat="40.6251957" lon="9.1800801"><ele>802.8</ele><time>2026-04-21T07:56:49.968Z</time></trkpt><trkpt lat="40.6251274" lon="9.1801523"><ele>805.0</ele><time>2026-04-21T07:56:50.965Z</time></trkpt><trkpt lat="40.6250644" lon="9.1801989"><ele>804.9999999999999</ele><time>2026-04-21T07:56:51.956Z</time></trkpt><trkpt lat="40.6249664" lon="9.1802746"><ele>805.0</ele><time>2026-04-21T07:56:53.951Z</time></trkpt><trkpt lat="40.6249065" lon="9.18032"><ele>805.0</ele><time>2026-04-21T07:56:54.954Z</time></trkpt><trkpt lat="40.6248433" lon="9.1803662"><ele>805.0</ele><time>2026-04-21T07:56:55.953Z</time></trkpt><trkpt lat="40.6247641" lon="9.1804235"><ele>804.9999999999999</ele><time>2026-04-21T07:56:56.951Z</time></trkpt><trkpt lat="40.6246748" lon="9.1804738"><ele>805.0</ele><time>2026-04-21T07:56:57.979Z</time></trkpt><trkpt lat="40.6245737" lon="9.1805448"><ele>805.2</ele><time>2026-04-21T07:56:58.973Z</time></trkpt><trkpt lat="40.6244727" lon="9.1805989"><ele>805.4</ele><time>2026-04-21T07:56:59.969Z</time></trkpt><trkpt lat="40.6243735" lon="9.1806463"><ele>805.5999999999999</ele><time>2026-04-21T07:57:00.963Z</time></trkpt><trkpt lat="40.6242773" lon="9.1806809"><ele>805.8</ele><time>2026-04-21T07:57:01.971Z</time></trkpt><trkpt lat="40.6241887" lon="9.1807131"><ele>806.0</ele><time>2026-04-21T07:57:02.967Z</time></trkpt><trkpt lat="40.6241009" lon="9.1807492"><ele>806.5999999999999</ele><time>2026-04-21T07:57:03.973Z</time></trkpt><trkpt lat="40.6240074" lon="9.1807789"><ele>807.2</ele><time>2026-04-21T07:57:04.966Z</time></trkpt><trkpt lat="40.6239168" lon="9.1808098"><ele>807.8</ele><time>2026-04-21T07:57:05.98Z</time></trkpt><trkpt lat="40.6238198" lon="9.1808198"><ele>808.4000000000001</ele><time>2026-04-21T07:57:06.969Z</time></trkpt><trkpt lat="40.6237155" lon="9.1808226"><ele>809.0</ele><time>2026-04-21T07:57:07.984Z</time></trkpt><trkpt lat="40.623612" lon="9.1808278"><ele>810.6</ele><time>2026-04-21T07:57:08.98Z</time></trkpt><trkpt lat="40.6235107" lon="9.1808369"><ele>812.2</ele><time>2026-04-21T07:57:09.978Z</time></trkpt><trkpt lat="40.6234097" lon="9.1808407"><ele>813.8000000000001</ele><time>2026-04-21T07:57:10.979Z</time></trkpt><trkpt lat="40.6233093" lon="9.1808532"><ele>815.4000000000001</ele><time>2026-04-21T07:57:11.981Z</time></trkpt><trkpt lat="40.6232012" lon="9.1808855"><ele>817.0</ele><time>2026-04-21T07:57:12.98Z</time></trkpt><trkpt lat="40.6230988" lon="9.1809264"><ele>817.0</ele><time>2026-04-21T07:57:13.98Z</time></trkpt><trkpt lat="40.6229826" lon="9.1809651"><ele>817.0</ele><time>2026-04-21T07:57:14.976Z</time></trkpt><trkpt lat="40.6228633" lon="9.1810121"><ele>817.0</ele><time>2026-04-21T07:57:15.99Z</time></trkpt><trkpt lat="40.622746" lon="9.1810624"><ele>817.0</ele><time>2026-04-21T07:57:16.989Z</time></trkpt><trkpt lat="40.6226379" lon="9.181092"><ele>818.5</ele><time>2026-04-21T07:57:17.987Z</time></trkpt><trkpt lat="40.6225278" lon="9.1811322"><ele>820.0</ele><time>2026-04-21T07:57:18.987Z</time></trkpt><trkpt lat="40.6224106" lon="9.1811809"><ele>821.5</ele><time>2026-04-21T07:57:19.984Z</time></trkpt><trkpt lat="40.6222796" lon="9.1812189"><ele>823.0</ele><time>2026-04-21T07:57:20.984Z</time></trkpt><trkpt lat="40.6221492" lon="9.1812636"><ele>823.0</ele><time>2026-04-21T07:57:21.995Z</time></trkpt><trkpt lat="40.622023" lon="9.1813115"><ele>823.0</ele><time>2026-04-21T07:57:23.064Z</time></trkpt><trkpt lat="40.6218995" lon="9.1813574"><ele>823.0</ele><time>2026-04-21T07:57:24.055Z</time></trkpt><trkpt lat="40.6217751" lon="9.1814081"><ele>823.0</ele><time>2026-04-21T07:57:25.062Z</time></trkpt><trkpt lat="40.6216532" lon="9.1814667"><ele>827.5</ele><time>2026-04-21T07:57:26.06Z</time></trkpt><trkpt lat="40.6215346" lon="9.1815327"><ele>832.0</ele><time>2026-04-21T07:57:27.055Z</time></trkpt><trkpt lat="40.62141" lon="9.1816092"><ele>836.5</ele><time>2026-04-21T07:57:28.058Z</time></trkpt><trkpt lat="40.621297" lon="9.1816963"><ele>841.0</ele><time>2026-04-21T07:57:29.058Z</time></trkpt><trkpt lat="40.6211857" lon="9.1817893"><ele>843.75</ele><time>2026-04-21T07:57:30.053Z</time></trkpt><trkpt lat="40.6210812" lon="9.1818852"><ele>846.5</ele><time>2026-04-21T07:57:31.059Z</time></trkpt><trkpt lat="40.6209816" lon="9.1819912"><ele>849.25</ele><time>2026-04-21T07:57:32.054Z</time></trkpt><trkpt lat="40.6209003" lon="9.1820974"><ele>852.0</ele><time>2026-04-21T07:57:33.057Z</time></trkpt><trkpt lat="40.6208267" lon="9.1822076"><ele>852.0</ele><time>2026-04-21T07:57:34.068Z</time></trkpt><trkpt lat="40.6207691" lon="9.1823056"><ele>852.0</ele><time>2026-04-21T07:57:35.048Z</time></trkpt><trkpt lat="40.6207112" lon="9.1824056"><ele>852.0</ele><time>2026-04-21T07:57:36.052Z</time></trkpt><trkpt lat="40.620656" lon="9.1825005"><ele>852.0</ele><time>2026-04-21T07:57:37.044Z</time></trkpt><trkpt lat="40.6205974" lon="9.1825898"><ele>852.0</ele><time>2026-04-21T07:57:38.048Z</time></trkpt><trkpt lat="40.6205957" lon="9.182684"><ele>852.0</ele><time>2026-04-21T07:57:39.048Z</time></trkpt><trkpt lat="40.6205342" lon="9.1827459"><ele>852.6666666666666</ele><time>2026-04-21T07:57:40.055Z</time></trkpt><trkpt lat="40.6204807" lon="9.1827993"><ele>853.3333333333333</ele><time>2026-04-21T07:57:41.052Z</time></trkpt><trkpt lat="40.6203873" lon="9.1828697"><ele>854.0</ele><time>2026-04-21T07:57:43.048Z</time></trkpt><trkpt lat="40.6203085" lon="9.1829266"><ele>854.6666666666666</ele><time>2026-04-21T07:57:45.041Z</time></trkpt><trkpt lat="40.6202387" lon="9.1829792"><ele>855.3333333333333</ele><time>2026-04-21T07:57:47.052Z</time></trkpt><trkpt lat="40.6201641" lon="9.1830403"><ele>856.0</ele><time>2026-04-21T07:57:49.046Z</time></trkpt><trkpt lat="40.6200385" lon="9.1831319"><ele>856.8333333333333</ele><time>2026-04-21T07:57:51.051Z</time></trkpt><trkpt lat="40.6199705" lon="9.1831901"><ele>857.6666666666666</ele><time>2026-04-21T07:57:52.059Z</time></trkpt><trkpt lat="40.6198931" lon="9.1832633"><ele>858.5</ele><time>2026-04-21T07:57:53.055Z</time></trkpt><trkpt lat="40.6198254" lon="9.1833333"><ele>859.3333333333333</ele><time>2026-04-21T07:57:54.05Z</time></trkpt><trkpt lat="40.619759" lon="9.1833987"><ele>860.1666666666666</ele><time>2026-04-21T07:57:55.039Z</time></trkpt><trkpt lat="40.6196912" lon="9.183465"><ele>861.0</ele><time>2026-04-21T07:57:56.042Z</time></trkpt><trkpt lat="40.6196207" lon="9.1835311"><ele>861.0</ele><time>2026-04-21T07:57:57.043Z</time></trkpt><trkpt lat="40.6195496" lon="9.183598"><ele>861.0</ele><time>2026-04-21T07:57:58.045Z</time></trkpt><trkpt lat="40.6194786" lon="9.1836684"><ele>861.0</ele><time>2026-04-21T07:57:59.044Z</time></trkpt><trkpt lat="40.6194109" lon="9.1837376"><ele>861.0</ele><time>2026-04-21T07:58:00.044Z</time></trkpt><trkpt lat="40.6193424" lon="9.1838028"><ele>861.0</ele><time>2026-04-21T07:58:01.046Z</time></trkpt><trkpt lat="40.6192924" lon="9.1838555"><ele>861.0</ele><time>2026-04-21T07:58:02.036Z</time></trkpt><trkpt lat="40.6192352" lon="9.1839137"><ele>861.5</ele><time>2026-04-21T07:58:04.037Z</time></trkpt><trkpt lat="40.619187" lon="9.183977"><ele>862.0</ele><time>2026-04-21T07:58:56.057Z</time></trkpt><trkpt lat="40.6191487" lon="9.1840437"><ele>862.5</ele><time>2026-04-21T07:58:58.045Z</time></trkpt><trkpt lat="40.619106" lon="9.1841107"><ele>863.0</ele><time>2026-04-21T07:59:00.046Z</time></trkpt><trkpt lat="40.6190541" lon="9.1841893"><ele>863.5</ele><time>2026-04-21T07:59:02.049Z</time></trkpt><trkpt lat="40.6189473" lon="9.1843356"><ele>864.0</ele><time>2026-04-21T07:59:03.048Z</time></trkpt><trkpt lat="40.6188838" lon="9.1844183"><ele>863.1666666666666</ele><time>2026-04-21T07:59:04.05Z</time></trkpt><trkpt lat="40.6188345" lon="9.1844917"><ele>862.3333333333333</ele><time>2026-04-21T07:59:05.04Z</time></trkpt><trkpt lat="40.6187743" lon="9.18456"><ele>861.5</ele><time>2026-04-21T07:59:06.041Z</time></trkpt><trkpt lat="40.6187101" lon="9.1846195"><ele>860.6666666666666</ele><time>2026-04-21T07:59:07.062Z</time></trkpt><trkpt lat="40.6186561" lon="9.1846811"><ele>859.8333333333333</ele><time>2026-04-21T07:59:08.049Z</time></trkpt><trkpt lat="40.6185949" lon="9.1847277"><ele>859.0</ele><time>2026-04-21T07:59:09.062Z</time></trkpt><trkpt lat="40.6184925" lon="9.1848205"><ele>857.9999999999999</ele><time>2026-04-21T07:59:11.075Z</time></trkpt><trkpt lat="40.6183894" lon="9.1848875"><ele>857.0</ele><time>2026-04-21T07:59:13.068Z</time></trkpt><trkpt lat="40.6183253" lon="9.1849088"><ele>856.0</ele><time>2026-04-21T07:59:14.062Z</time></trkpt><trkpt lat="40.6182541" lon="9.1849322"><ele>855.0</ele><time>2026-04-21T07:59:15.047Z</time></trkpt><trkpt lat="40.6181773" lon="9.1849698"><ele>853.9999999999999</ele><time>2026-04-21T07:59:16.047Z</time></trkpt><trkpt lat="40.6181046" lon="9.1850096"><ele>853.0</ele><time>2026-04-21T07:59:17.047Z</time></trkpt><trkpt lat="40.6180313" lon="9.18505"><ele>852.9999999999999</ele><time>2026-04-21T07:59:18.056Z</time></trkpt><trkpt lat="40.6179545" lon="9.1850833"><ele>853.0</ele><time>2026-04-21T07:59:19.063Z</time></trkpt><trkpt lat="40.6178695" lon="9.1851057"><ele>853.0</ele><time>2026-04-21T07:59:20.059Z</time></trkpt><trkpt lat="40.6177923" lon="9.1851454"><ele>853.0</ele><time>2026-04-21T07:59:21.06Z</time></trkpt><trkpt lat="40.6177166" lon="9.1851857"><ele>852.9999999999999</ele><time>2026-04-21T07:59:22.058Z</time></trkpt><trkpt lat="40.6176384" lon="9.1852298"><ele>853.0</ele><time>2026-04-21T07:59:23.052Z</time></trkpt><trkpt lat="40.6175652" lon="9.1852785"><ele>852.9999999999999</ele><time>2026-04-21T07:59:24.054Z</time></trkpt><trkpt lat="40.6174986" lon="9.1853288"><ele>853.0</ele><time>2026-04-21T07:59:25.052Z</time></trkpt><trkpt lat="40.6174336" lon="9.1853837"><ele>853.0</ele><time>2026-04-21T07:59:26.053Z</time></trkpt><trkpt lat="40.6173696" lon="9.1854346"><ele>853.0</ele><time>2026-04-21T07:59:27.053Z</time></trkpt><trkpt lat="40.6173001" lon="9.1854774"><ele>852.9999999999999</ele><time>2026-04-21T07:59:28.055Z</time></trkpt><trkpt lat="40.6172245" lon="9.1855117"><ele>853.0</ele><time>2026-04-21T07:59:29.063Z</time></trkpt><trkpt lat="40.6171442" lon="9.1855456"><ele>852.9999999999999</ele><time>2026-04-21T07:59:30.058Z</time></trkpt><trkpt lat="40.617059" lon="9.1855696"><ele>853.0</ele><time>2026-04-21T07:59:31.053Z</time></trkpt><trkpt lat="40.6169733" lon="9.1855893"><ele>853.0</ele><time>2026-04-21T07:59:32.058Z</time></trkpt><trkpt lat="40.6168893" lon="9.1856092"><ele>853.0</ele><time>2026-04-21T07:59:33.057Z</time></trkpt><trkpt lat="40.6168031" lon="9.1856161"><ele>852.9999999999999</ele><time>2026-04-21T07:59:34.054Z</time></trkpt><trkpt lat="40.6167357" lon="9.1855975"><ele>853.0</ele><time>2026-04-21T07:59:35.048Z</time></trkpt><trkpt lat="40.6166547" lon="9.1855488"><ele>854.2</ele><time>2026-04-21T07:59:36.032Z</time></trkpt><trkpt lat="40.6165785" lon="9.1854915"><ele>855.4</ele><time>2026-04-21T07:59:37.034Z</time></trkpt><trkpt lat="40.616503" lon="9.1854304"><ele>856.6000000000001</ele><time>2026-04-21T07:59:38.038Z</time></trkpt><trkpt lat="40.6164186" lon="9.1853623"><ele>857.8000000000001</ele><time>2026-04-21T07:59:39.042Z</time></trkpt><trkpt lat="40.6163292" lon="9.1852931"><ele>859.0</ele><time>2026-04-21T07:59:40.068Z</time></trkpt><trkpt lat="40.616193" lon="9.1851957"><ele>858.8000000000001</ele><time>2026-04-21T07:59:41.057Z</time></trkpt><trkpt lat="40.6161095" lon="9.1851077"><ele>858.6000000000001</ele><time>2026-04-21T07:59:42.051Z</time></trkpt><trkpt lat="40.6160324" lon="9.1850102"><ele>858.4</ele><time>2026-04-21T07:59:43.052Z</time></trkpt><trkpt lat="40.6159639" lon="9.1849085"><ele>858.2</ele><time>2026-04-21T07:59:44.058Z</time></trkpt><trkpt lat="40.6158959" lon="9.1848022"><ele>858.0</ele><time>2026-04-21T07:59:45.053Z</time></trkpt><trkpt lat="40.6158251" lon="9.1846856"><ele>859.5999999999999</ele><time>2026-04-21T07:59:46.039Z</time></trkpt><trkpt lat="40.6157423" lon="9.1845837"><ele>861.1999999999999</ele><time>2026-04-21T07:59:47.059Z</time></trkpt><trkpt lat="40.6156733" lon="9.1844872"><ele>862.8</ele><time>2026-04-21T07:59:48.04Z</time></trkpt><trkpt lat="40.6155794" lon="9.1844005"><ele>864.4</ele><time>2026-04-21T07:59:49.046Z</time></trkpt><trkpt lat="40.6154933" lon="9.1843272"><ele>866.0</ele><time>2026-04-21T07:59:50.062Z</time></trkpt><trkpt lat="40.6154021" lon="9.1842632"><ele>865.25</ele><time>2026-04-21T07:59:51.059Z</time></trkpt><trkpt lat="40.6152977" lon="9.1842065"><ele>864.5</ele><time>2026-04-21T07:59:52.038Z</time></trkpt><trkpt lat="40.6151872" lon="9.1841547"><ele>863.75</ele><time>2026-04-21T07:59:53.054Z</time></trkpt><trkpt lat="40.6150715" lon="9.1841036"><ele>863.0</ele><time>2026-04-21T07:59:54.04Z</time></trkpt><trkpt lat="40.6149528" lon="9.1840524"><ele>863.0</ele><time>2026-04-21T07:59:55.047Z</time></trkpt><trkpt lat="40.6148365" lon="9.1840142"><ele>863.0</ele><time>2026-04-21T07:59:56.038Z</time></trkpt><trkpt lat="40.6147045" lon="9.1839795"><ele>863.0</ele><time>2026-04-21T07:59:57.04Z</time></trkpt><trkpt lat="40.6145732" lon="9.18395"><ele>863.0</ele><time>2026-04-21T07:59:58.05Z</time></trkpt><trkpt lat="40.6144431" lon="9.1839324"><ele>865.75</ele><time>2026-04-21T07:59:59.038Z</time></trkpt><trkpt lat="40.6143111" lon="9.1839165"><ele>868.5</ele><time>2026-04-21T08:00:00.04Z</time></trkpt><trkpt lat="40.6141848" lon="9.1838893"><ele>871.25</ele><time>2026-04-21T08:00:01.032Z</time></trkpt><trkpt lat="40.6140491" lon="9.1838559"><ele>874.0</ele><time>2026-04-21T08:00:02.043Z</time></trkpt><trkpt lat="40.6139093" lon="9.1838355"><ele>874.0</ele><time>2026-04-21T08:00:03.028Z</time></trkpt><trkpt lat="40.6137692" lon="9.1838197"><ele>874.0</ele><time>2026-04-21T08:00:04.027Z</time></trkpt><trkpt lat="40.6136313" lon="9.1838006"><ele>874.0</ele><time>2026-04-21T08:00:05.04Z</time></trkpt><trkpt lat="40.6135005" lon="9.1837768"><ele>874.0</ele><time>2026-04-21T08:00:06.03Z</time></trkpt><trkpt lat="40.6133694" lon="9.1837597"><ele>873.5</ele><time>2026-04-21T08:00:07.028Z</time></trkpt><trkpt lat="40.6132436" lon="9.1837418"><ele>873.0</ele><time>2026-04-21T08:00:08.032Z</time></trkpt><trkpt lat="40.6131104" lon="9.1837251"><ele>872.5</ele><time>2026-04-21T08:00:09.032Z</time></trkpt><trkpt lat="40.6129735" lon="9.183704"><ele>872.0</ele><time>2026-04-21T08:00:10.029Z</time></trkpt><trkpt lat="40.6128345" lon="9.1836838"><ele>872.25</ele><time>2026-04-21T08:00:11.028Z</time></trkpt><trkpt lat="40.6126964" lon="9.183681"><ele>872.5</ele><time>2026-04-21T08:00:12.026Z</time></trkpt><trkpt lat="40.6125518" lon="9.183681"><ele>872.75</ele><time>2026-04-21T08:00:13.024Z</time></trkpt><trkpt lat="40.6124151" lon="9.1837151"><ele>873.0</ele><time>2026-04-21T08:00:14.018Z</time></trkpt><trkpt lat="40.6122823" lon="9.1837613"><ele>873.0</ele><time>2026-04-21T08:00:15.019Z</time></trkpt><trkpt lat="40.6121448" lon="9.1837866"><ele>873.0</ele><time>2026-04-21T08:00:16.027Z</time></trkpt><trkpt lat="40.6120107" lon="9.1838233"><ele>873.0</ele><time>2026-04-21T08:00:17.019Z</time></trkpt><trkpt lat="40.6118664" lon="9.1838535"><ele>873.0</ele><time>2026-04-21T08:00:18.023Z</time></trkpt><trkpt lat="40.6117287" lon="9.1838993"><ele>874.25</ele><time>2026-04-21T08:00:19.024Z</time></trkpt><trkpt lat="40.6115905" lon="9.18393"><ele>875.5</ele><time>2026-04-21T08:00:20.033Z</time></trkpt><trkpt lat="40.6114443" lon="9.1839636"><ele>876.75</ele><time>2026-04-21T08:00:21.031Z</time></trkpt><trkpt lat="40.6112912" lon="9.1840029"><ele>878.0</ele><time>2026-04-21T08:00:22.031Z</time></trkpt><trkpt lat="40.61114" lon="9.184047"><ele>882.75</ele><time>2026-04-21T08:00:23.031Z</time></trkpt><trkpt lat="40.6109951" lon="9.1840913"><ele>887.5</ele><time>2026-04-21T08:00:24.027Z</time></trkpt><trkpt lat="40.6108616" lon="9.1841275"><ele>892.25</ele><time>2026-04-21T08:00:25.03Z</time></trkpt><trkpt lat="40.6107293" lon="9.1841572"><ele>897.0</ele><time>2026-04-21T08:00:26.023Z</time></trkpt><trkpt lat="40.6106021" lon="9.1841904"><ele>897.0</ele><time>2026-04-21T08:00:27.023Z</time></trkpt><trkpt lat="40.6104762" lon="9.1842234"><ele>897.0</ele><time>2026-04-21T08:00:28.029Z</time></trkpt><trkpt lat="40.6103582" lon="9.1842589"><ele>897.0</ele><time>2026-04-21T08:00:29.027Z</time></trkpt><trkpt lat="40.610235" lon="9.1842977"><ele>897.0</ele><time>2026-04-21T08:00:30.034Z</time></trkpt><trkpt lat="40.6101086" lon="9.1843424"><ele>898.75</ele><time>2026-04-21T08:00:31.026Z</time></trkpt><trkpt lat="40.609975" lon="9.1843971"><ele>900.5</ele><time>2026-04-21T08:00:32.023Z</time></trkpt><trkpt lat="40.6098345" lon="9.1844517"><ele>902.25</ele><time>2026-04-21T08:00:33.02Z</time></trkpt><trkpt lat="40.6096896" lon="9.1845106"><ele>904.0</ele><time>2026-04-21T08:00:34.039Z</time></trkpt><trkpt lat="40.6095426" lon="9.18457"><ele>905.6666666666666</ele><time>2026-04-21T08:00:35.028Z</time></trkpt><trkpt lat="40.6093925" lon="9.1846221"><ele>907.3333333333333</ele><time>2026-04-21T08:00:36.027Z</time></trkpt><trkpt lat="40.6092416" lon="9.1846664"><ele>909.0</ele><time>2026-04-21T08:00:37.017Z</time></trkpt><trkpt lat="40.6090986" lon="9.1847053"><ele>909.0</ele><time>2026-04-21T08:00:38.028Z</time></trkpt><trkpt lat="40.6089553" lon="9.1847418"><ele>909.0</ele><time>2026-04-21T08:00:39.029Z</time></trkpt><trkpt lat="40.608814" lon="9.1847671"><ele>909.0</ele><time>2026-04-21T08:00:40.039Z</time></trkpt><trkpt lat="40.6086657" lon="9.1847784"><ele>909.0</ele><time>2026-04-21T08:00:41.039Z</time></trkpt><trkpt lat="40.6085164" lon="9.184777"><ele>911.75</ele><time>2026-04-21T08:00:42.053Z</time></trkpt><trkpt lat="40.6083655" lon="9.1847625"><ele>914.5</ele><time>2026-04-21T08:00:43.047Z</time></trkpt><trkpt lat="40.6082178" lon="9.1847323"><ele>917.25</ele><time>2026-04-21T08:00:44.05Z</time></trkpt><trkpt lat="40.6080723" lon="9.1846949"><ele>920.0</ele><time>2026-04-21T08:00:45.048Z</time></trkpt><trkpt lat="40.6079278" lon="9.1846522"><ele>924.0</ele><time>2026-04-21T08:00:46.047Z</time></trkpt><trkpt lat="40.6077921" lon="9.1846071"><ele>928.0</ele><time>2026-04-21T08:00:47.047Z</time></trkpt><trkpt lat="40.6076493" lon="9.1845655"><ele>932.0</ele><time>2026-04-21T08:00:48.047Z</time></trkpt><trkpt lat="40.6075098" lon="9.1845237"><ele>936.0</ele><time>2026-04-21T08:00:49.047Z</time></trkpt><trkpt lat="40.6073753" lon="9.1844823"><ele>936.0</ele><time>2026-04-21T08:00:50.045Z</time></trkpt><trkpt lat="40.6072464" lon="9.1844438"><ele>936.0</ele><time>2026-04-21T08:00:51.043Z</time></trkpt><trkpt lat="40.6071227" lon="9.1844069"><ele>936.0</ele><time>2026-04-21T08:00:52.055Z</time></trkpt><trkpt lat="40.6070008" lon="9.1843788"><ele>936.0</ele><time>2026-04-21T08:00:53.054Z</time></trkpt><trkpt lat="40.6068903" lon="9.1843575"><ele>940.0</ele><time>2026-04-21T08:00:54.053Z</time></trkpt><trkpt lat="40.6067671" lon="9.1843541"><ele>944.0</ele><time>2026-04-21T08:00:55.038Z</time></trkpt><trkpt lat="40.6066454" lon="9.184339"><ele>948.0</ele><time>2026-04-21T08:00:56.049Z</time></trkpt><trkpt lat="40.6065236" lon="9.1843276"><ele>952.0</ele><time>2026-04-21T08:00:57.051Z</time></trkpt><trkpt lat="40.6063986" lon="9.1843196"><ele>952.0</ele><time>2026-04-21T08:00:58.053Z</time></trkpt><trkpt lat="40.6062775" lon="9.1843224"><ele>952.0</ele><time>2026-04-21T08:00:59.043Z</time></trkpt><trkpt lat="40.6061572" lon="9.1843329"><ele>952.0</ele><time>2026-04-21T08:01:00.043Z</time></trkpt><trkpt lat="40.6060359" lon="9.1843449"><ele>952.0</ele><time>2026-04-21T08:01:01.045Z</time></trkpt><trkpt lat="40.6059149" lon="9.1843634"><ele>953.5</ele><time>2026-04-21T08:01:02.044Z</time></trkpt><trkpt lat="40.6057938" lon="9.1843702"><ele>955.0</ele><time>2026-04-21T08:01:03.038Z</time></trkpt><trkpt lat="40.6056753" lon="9.1843738"><ele>956.5</ele><time>2026-04-21T08:01:04.035Z</time></trkpt><trkpt lat="40.6055573" lon="9.1843916"><ele>958.0</ele><time>2026-04-21T08:01:05.04Z</time></trkpt><trkpt lat="40.6054355" lon="9.1843984"><ele>960.75</ele><time>2026-04-21T08:01:06.032Z</time></trkpt><trkpt lat="40.6053155" lon="9.1844205"><ele>963.5</ele><time>2026-04-21T08:01:07.03Z</time></trkpt><trkpt lat="40.6052061" lon="9.1844742"><ele>966.25</ele><time>2026-04-21T08:01:08.028Z</time></trkpt><trkpt lat="40.6050965" lon="9.1845465"><ele>969.0</ele><time>2026-04-21T08:01:09.038Z</time></trkpt><trkpt lat="40.6049827" lon="9.1846011"><ele>969.0</ele><time>2026-04-21T08:01:10.025Z</time></trkpt><trkpt lat="40.6048554" lon="9.1846692"><ele>969.0</ele><time>2026-04-21T08:01:11.035Z</time></trkpt><trkpt lat="40.6047269" lon="9.1847403"><ele>969.0</ele><time>2026-04-21T08:01:12.037Z</time></trkpt><trkpt lat="40.6046112" lon="9.1848122"><ele>969.0</ele><time>2026-04-21T08:01:13.04Z</time></trkpt><trkpt lat="40.6045067" lon="9.1848699"><ele>969.5</ele><time>2026-04-21T08:01:14.045Z</time></trkpt><trkpt lat="40.6044149" lon="9.1849012"><ele>970.0</ele><time>2026-04-21T08:01:15.044Z</time></trkpt><trkpt lat="40.6043268" lon="9.1849241"><ele>970.5</ele><time>2026-04-21T08:01:16.051Z</time></trkpt><trkpt lat="40.6042492" lon="9.1849336"><ele>971.0</ele><time>2026-04-21T08:01:17.04Z</time></trkpt><trkpt lat="40.6041453" lon="9.1848952"><ele>971.5</ele><time>2026-04-21T08:01:19.039Z</time></trkpt><trkpt lat="40.6040814" lon="9.1848482"><ele>972.0</ele><time>2026-04-21T08:01:28.068Z</time></trkpt><trkpt lat="40.6040298" lon="9.1847803"><ele>973.2</ele><time>2026-04-21T08:01:30.059Z</time></trkpt><trkpt lat="40.6039756" lon="9.1846394"><ele>974.4000000000001</ele><time>2026-04-21T08:01:32.046Z</time></trkpt><trkpt lat="40.6039443" lon="9.184502"><ele>975.5999999999999</ele><time>2026-04-21T08:01:34.045Z</time></trkpt><trkpt lat="40.6038927" lon="9.184396"><ele>976.8</ele><time>2026-04-21T08:01:36.061Z</time></trkpt><trkpt lat="40.603816" lon="9.1842845"><ele>978.0</ele><time>2026-04-21T08:01:38.049Z</time></trkpt><trkpt lat="40.6037649" lon="9.1841309"><ele>978.0</ele><time>2026-04-21T08:01:40.044Z</time></trkpt><trkpt lat="40.603749" lon="9.1840234"><ele>978.0</ele><time>2026-04-21T08:01:41.042Z</time></trkpt><trkpt lat="40.6037433" lon="9.1839256"><ele>978.0</ele><time>2026-04-21T08:01:42.064Z</time></trkpt><trkpt lat="40.6037335" lon="9.1838242"><ele>978.0</ele><time>2026-04-21T08:01:43.065Z</time></trkpt><trkpt lat="40.6037154" lon="9.1837062"><ele>978.0</ele><time>2026-04-21T08:01:44.048Z</time></trkpt><trkpt lat="40.6036985" lon="9.1836049"><ele>978.0</ele><time>2026-04-21T08:01:45.056Z</time></trkpt><trkpt lat="40.6036849" lon="9.1834961"><ele>977.8</ele><time>2026-04-21T08:01:46.08Z</time></trkpt><trkpt lat="40.6036706" lon="9.1833824"><ele>977.5999999999999</ele><time>2026-04-21T08:01:47.064Z</time></trkpt><trkpt lat="40.6036565" lon="9.1832715"><ele>977.4000000000001</ele><time>2026-04-21T08:01:48.067Z</time></trkpt><trkpt lat="40.6036395" lon="9.1831481"><ele>977.2</ele><time>2026-04-21T08:01:49.068Z</time></trkpt><trkpt lat="40.6036133" lon="9.1830078"><ele>977.0</ele><time>2026-04-21T08:01:50.068Z</time></trkpt><trkpt lat="40.6035927" lon="9.1828884"><ele>977.6666666666667</ele><time>2026-04-21T08:01:51.071Z</time></trkpt><trkpt lat="40.6035657" lon="9.1827788"><ele>978.3333333333334</ele><time>2026-04-21T08:01:52.062Z</time></trkpt><trkpt lat="40.6035295" lon="9.1826768"><ele>979.0</ele><time>2026-04-21T08:01:53.064Z</time></trkpt><trkpt lat="40.6034903" lon="9.1825758"><ele>979.6666666666667</ele><time>2026-04-21T08:01:54.062Z</time></trkpt><trkpt lat="40.6034385" lon="9.1824912"><ele>980.3333333333334</ele><time>2026-04-21T08:01:55.052Z</time></trkpt><trkpt lat="40.603378" lon="9.1824147"><ele>981.0</ele><time>2026-04-21T08:01:56.051Z</time></trkpt><trkpt lat="40.6033156" lon="9.1823302"><ele>981.4</ele><time>2026-04-21T08:01:57.055Z</time></trkpt><trkpt lat="40.6032661" lon="9.1822331"><ele>981.8</ele><time>2026-04-21T08:01:58.053Z</time></trkpt><trkpt lat="40.6032262" lon="9.1821222"><ele>982.1999999999999</ele><time>2026-04-21T08:01:59.077Z</time></trkpt><trkpt lat="40.6031885" lon="9.1820134"><ele>982.5999999999999</ele><time>2026-04-21T08:02:00.066Z</time></trkpt><trkpt lat="40.6031533" lon="9.1818999"><ele>983.0</ele><time>2026-04-21T08:02:01.054Z</time></trkpt><trkpt lat="40.6031166" lon="9.1817876"><ele>983.0000000000001</ele><time>2026-04-21T08:02:02.052Z</time></trkpt><trkpt lat="40.6030892" lon="9.181686"><ele>983.0</ele><time>2026-04-21T08:02:03.051Z</time></trkpt><trkpt lat="40.6030807" lon="9.1815893"><ele>983.0</ele><time>2026-04-21T08:02:04.051Z</time></trkpt><trkpt lat="40.6030838" lon="9.1814874"><ele>983.0</ele><time>2026-04-21T08:02:05.061Z</time></trkpt><trkpt lat="40.6030947" lon="9.1813848"><ele>983.0000000000001</ele><time>2026-04-21T08:02:06.063Z</time></trkpt><trkpt lat="40.6031165" lon="9.1812634"><ele>983.0</ele><time>2026-04-21T08:02:07.048Z</time></trkpt><trkpt lat="40.603134" lon="9.1811509"><ele>983.1666666666667</ele><time>2026-04-21T08:02:08.044Z</time></trkpt><trkpt lat="40.6031318" lon="9.1810538"><ele>983.3333333333334</ele><time>2026-04-21T08:02:09.037Z</time></trkpt><trkpt lat="40.603112" lon="9.1809633"><ele>983.5</ele><time>2026-04-21T08:02:10.041Z</time></trkpt><trkpt lat="40.603056" lon="9.1808691"><ele>983.6666666666667</ele><time>2026-04-21T08:02:11.049Z</time></trkpt><trkpt lat="40.6030053" lon="9.1807794"><ele>983.8333333333334</ele><time>2026-04-21T08:02:12.054Z</time></trkpt><trkpt lat="40.6029466" lon="9.1807032"><ele>984.0</ele><time>2026-04-21T08:02:13.039Z</time></trkpt><trkpt lat="40.6028793" lon="9.1806389"><ele>984.0</ele><time>2026-04-21T08:02:14.049Z</time></trkpt><trkpt lat="40.6028177" lon="9.1805834"><ele>984.0</ele><time>2026-04-21T08:02:15.043Z</time></trkpt><trkpt lat="40.6027658" lon="9.1805214"><ele>984.0</ele><time>2026-04-21T08:02:16.039Z</time></trkpt><trkpt lat="40.6027252" lon="9.1804558"><ele>984.0</ele><time>2026-04-21T08:02:17.063Z</time></trkpt><trkpt lat="40.6026912" lon="9.180305"><ele>984.0</ele><time>2026-04-21T08:02:19.047Z</time></trkpt><trkpt lat="40.6027244" lon="9.1801716"><ele>984.0</ele><time>2026-04-21T08:02:21.048Z</time></trkpt><trkpt lat="40.6027612" lon="9.1800914"><ele>984.0000000000001</ele><time>2026-04-21T08:02:22.047Z</time></trkpt><trkpt lat="40.6028016" lon="9.1800134"><ele>984.0</ele><time>2026-04-21T08:02:23.064Z</time></trkpt><trkpt lat="40.6028502" lon="9.1799463"><ele>984.0000000000001</ele><time>2026-04-21T08:02:24.054Z</time></trkpt><trkpt lat="40.602908" lon="9.1798936"><ele>984.0000000000001</ele><time>2026-04-21T08:02:25.044Z</time></trkpt><trkpt lat="40.6029684" lon="9.1798562"><ele>984.0</ele><time>2026-04-21T08:02:26.045Z</time></trkpt><trkpt lat="40.6030316" lon="9.1798231"><ele>984.0000000000001</ele><time>2026-04-21T08:02:27.046Z</time></trkpt><trkpt lat="40.6030981" lon="9.1797884"><ele>984.0000000000001</ele><time>2026-04-21T08:02:28.048Z</time></trkpt><trkpt lat="40.6031666" lon="9.179752"><ele>984.1666666666666</ele><time>2026-04-21T08:02:29.058Z</time></trkpt><trkpt lat="40.6032276" lon="9.1797077"><ele>984.3333333333333</ele><time>2026-04-21T08:02:30.052Z</time></trkpt><trkpt lat="40.6032843" lon="9.1796493"><ele>984.5</ele><time>2026-04-21T08:02:31.052Z</time></trkpt><trkpt lat="40.6033402" lon="9.1795832"><ele>984.6666666666666</ele><time>2026-04-21T08:02:32.06Z</time></trkpt><trkpt lat="40.6033952" lon="9.1795103"><ele>984.8333333333333</ele><time>2026-04-21T08:02:33.042Z</time></trkpt><trkpt lat="40.6034482" lon="9.1794306"><ele>985.0</ele><time>2026-04-21T08:02:34.048Z</time></trkpt><trkpt lat="40.6034998" lon="9.1793507"><ele>984.9999999999999</ele><time>2026-04-21T08:02:35.04Z</time></trkpt><trkpt lat="40.6035572" lon="9.1792639"><ele>985.0</ele><time>2026-04-21T08:02:36.042Z</time></trkpt><trkpt lat="40.6036172" lon="9.179172"><ele>985.0</ele><time>2026-04-21T08:02:37.056Z</time></trkpt><trkpt lat="40.6036836" lon="9.1790801"><ele>985.0</ele><time>2026-04-21T08:02:38.059Z</time></trkpt><trkpt lat="40.6037439" lon="9.1789953"><ele>984.9999999999999</ele><time>2026-04-21T08:02:39.055Z</time></trkpt><trkpt lat="40.6037947" lon="9.1789168"><ele>985.0</ele><time>2026-04-21T08:02:40.064Z</time></trkpt><trkpt lat="40.6038375" lon="9.1788501"><ele>985.8</ele><time>2026-04-21T08:02:41.051Z</time></trkpt><trkpt lat="40.6038876" lon="9.178779"><ele>986.6</ele><time>2026-04-21T08:02:43.059Z</time></trkpt><trkpt lat="40.6039671" lon="9.1787103"><ele>987.4000000000001</ele><time>2026-04-21T08:03:41.058Z</time></trkpt><trkpt lat="40.6040175" lon="9.1785969"><ele>988.2</ele><time>2026-04-21T08:03:43.07Z</time></trkpt><trkpt lat="40.6040756" lon="9.1784715"><ele>989.0</ele><time>2026-04-21T08:03:45.062Z</time></trkpt><trkpt lat="40.6041158" lon="9.1783088"><ele>988.3333333333334</ele><time>2026-04-21T08:03:47.068Z</time></trkpt><trkpt lat="40.6041522" lon="9.1781423"><ele>987.6666666666667</ele><time>2026-04-21T08:03:49.063Z</time></trkpt><trkpt lat="40.6041711" lon="9.1780463"><ele>987.0</ele><time>2026-04-21T08:03:50.065Z</time></trkpt><trkpt lat="40.6041841" lon="9.1779543"><ele>986.3333333333333</ele><time>2026-04-21T08:03:51.063Z</time></trkpt><trkpt lat="40.6041896" lon="9.1778651"><ele>985.6666666666666</ele><time>2026-04-21T08:03:52.06Z</time></trkpt><trkpt lat="40.6041936" lon="9.1777687"><ele>985.0</ele><time>2026-04-21T08:03:53.065Z</time></trkpt><trkpt lat="40.6042002" lon="9.1776636"><ele>984.9999999999999</ele><time>2026-04-21T08:03:54.052Z</time></trkpt><trkpt lat="40.604214" lon="9.1775546"><ele>985.0</ele><time>2026-04-21T08:03:55.045Z</time></trkpt><trkpt lat="40.6042248" lon="9.1774417"><ele>985.0</ele><time>2026-04-21T08:03:56.051Z</time></trkpt><trkpt lat="40.604235" lon="9.1773353"><ele>985.0</ele><time>2026-04-21T08:03:57.041Z</time></trkpt><trkpt lat="40.6042409" lon="9.1772228"><ele>984.9999999999999</ele><time>2026-04-21T08:03:58.067Z</time></trkpt><trkpt lat="40.6042406" lon="9.1771213"><ele>985.0</ele><time>2026-04-21T08:03:59.06Z</time></trkpt><trkpt lat="40.6042422" lon="9.177028"><ele>985.0</ele><time>2026-04-21T08:04:00.06Z</time></trkpt><trkpt lat="40.6042201" lon="9.1769416"><ele>985.0000000000001</ele><time>2026-04-21T08:04:01.064Z</time></trkpt><trkpt lat="40.6042237" lon="9.1768569"><ele>985.0</ele><time>2026-04-21T08:04:02.07Z</time></trkpt><trkpt lat="40.6042346" lon="9.176773"><ele>985.0</ele><time>2026-04-21T08:04:03.066Z</time></trkpt><trkpt lat="40.6042455" lon="9.1766837"><ele>985.0000000000001</ele><time>2026-04-21T08:04:04.048Z</time></trkpt><trkpt lat="40.6042503" lon="9.1765997"><ele>985.0</ele><time>2026-04-21T08:04:05.052Z</time></trkpt><trkpt lat="40.6042558" lon="9.1765128"><ele>985.0</ele><time>2026-04-21T08:04:06.049Z</time></trkpt><trkpt lat="40.604273" lon="9.1764305"><ele>985.3333333333333</ele><time>2026-04-21T08:04:07.048Z</time></trkpt><trkpt lat="40.6042966" lon="9.1763403"><ele>985.6666666666666</ele><time>2026-04-21T08:04:08.062Z</time></trkpt><trkpt lat="40.6043249" lon="9.1762508"><ele>986.0</ele><time>2026-04-21T08:04:09.061Z</time></trkpt><trkpt lat="40.6043575" lon="9.1761586"><ele>986.3333333333333</ele><time>2026-04-21T08:04:10.074Z</time></trkpt><trkpt lat="40.6043839" lon="9.1760592"><ele>986.6666666666666</ele><time>2026-04-21T08:04:11.068Z</time></trkpt><trkpt lat="40.6044051" lon="9.1759585"><ele>987.0</ele><time>2026-04-21T08:04:12.053Z</time></trkpt><trkpt lat="40.6044289" lon="9.1758745"><ele>987.0</ele><time>2026-04-21T08:04:13.046Z</time></trkpt><trkpt lat="40.6044617" lon="9.1757788"><ele>987.0</ele><time>2026-04-21T08:04:14.039Z</time></trkpt><trkpt lat="40.6044941" lon="9.1756823"><ele>987.0</ele><time>2026-04-21T08:04:15.046Z</time></trkpt><trkpt lat="40.60453" lon="9.1755909"><ele>987.0</ele><time>2026-04-21T08:04:16.053Z</time></trkpt><trkpt lat="40.6045635" lon="9.1754981"><ele>987.0</ele><time>2026-04-21T08:04:17.075Z</time></trkpt><trkpt lat="40.6045934" lon="9.1754213"><ele>987.0</ele><time>2026-04-21T08:04:18.054Z</time></trkpt><trkpt lat="40.6046545" lon="9.1752882"><ele>989.8333333333334</ele><time>2026-04-21T08:04:20.055Z</time></trkpt><trkpt lat="40.6047524" lon="9.1751807"><ele>992.6666666666667</ele><time>2026-04-21T08:04:22.04Z</time></trkpt><trkpt lat="40.6048118" lon="9.1751359"><ele>995.5</ele><time>2026-04-21T08:04:23.042Z</time></trkpt><trkpt lat="40.6048725" lon="9.1750833"><ele>998.3333333333334</ele><time>2026-04-21T08:04:24.031Z</time></trkpt><trkpt lat="40.6049373" lon="9.1750316"><ele>1001.1666666666667</ele><time>2026-04-21T08:04:25.03Z</time></trkpt><trkpt lat="40.6049997" lon="9.1749748"><ele>1004.0</ele><time>2026-04-21T08:04:26.051Z</time></trkpt><trkpt lat="40.6050659" lon="9.1749164"><ele>1002.1666666666667</ele><time>2026-04-21T08:04:27.053Z</time></trkpt><trkpt lat="40.6051297" lon="9.1748529"><ele>1000.3333333333334</ele><time>2026-04-21T08:04:28.057Z</time></trkpt><trkpt lat="40.6051972" lon="9.1747889"><ele>998.5</ele><time>2026-04-21T08:04:29.063Z</time></trkpt><trkpt lat="40.6052662" lon="9.174727"><ele>996.6666666666667</ele><time>2026-04-21T08:04:30.045Z</time></trkpt><trkpt lat="40.6052882" lon="9.174593"><ele>994.8333333333334</ele><time>2026-04-21T08:04:31.05Z</time></trkpt><trkpt lat="40.6053435" lon="9.1745258"><ele>993.0</ele><time>2026-04-21T08:04:32.042Z</time></trkpt><trkpt lat="40.6053934" lon="9.1744304"><ele>997.5999999999999</ele><time>2026-04-21T08:04:33.047Z</time></trkpt><trkpt lat="40.6054513" lon="9.1743516"><ele>1002.1999999999999</ele><time>2026-04-21T08:04:34.049Z</time></trkpt><trkpt lat="40.6055119" lon="9.1742725"><ele>1006.8</ele><time>2026-04-21T08:04:35.048Z</time></trkpt><trkpt lat="40.6055744" lon="9.1741716"><ele>1011.4</ele><time>2026-04-21T08:04:36.056Z</time></trkpt><trkpt lat="40.6056302" lon="9.1740901"><ele>1016.0</ele><time>2026-04-21T08:04:37.054Z</time></trkpt><trkpt lat="40.6056906" lon="9.1739786"><ele>1016.0000000000001</ele><time>2026-04-21T08:04:38.073Z</time></trkpt><trkpt lat="40.6057317" lon="9.1738848"><ele>1016.0</ele><time>2026-04-21T08:04:39.058Z</time></trkpt><trkpt lat="40.6057655" lon="9.1737851"><ele>1016.0</ele><time>2026-04-21T08:04:40.067Z</time></trkpt><trkpt lat="40.6058015" lon="9.1736819"><ele>1016.0</ele><time>2026-04-21T08:04:41.052Z</time></trkpt><trkpt lat="40.6058479" lon="9.1735582"><ele>1016.0000000000001</ele><time>2026-04-21T08:04:42.051Z</time></trkpt><trkpt lat="40.6058888" lon="9.1734795"><ele>1016.0</ele><time>2026-04-21T08:04:43.038Z</time></trkpt><trkpt lat="40.6059792" lon="9.1733789"><ele>1016.0</ele><time>2026-04-21T08:04:45.051Z</time></trkpt><trkpt lat="40.6060959" lon="9.1733196"><ele>1015.9999999999999</ele><time>2026-04-21T08:04:47.065Z</time></trkpt><trkpt lat="40.6061635" lon="9.1732995"><ele>1015.9999999999999</ele><time>2026-04-21T08:04:48.062Z</time></trkpt><trkpt lat="40.6062335" lon="9.1732679"><ele>1016.0</ele><time>2026-04-21T08:04:49.054Z</time></trkpt><trkpt lat="40.6063333" lon="9.1732022"><ele>1016.0</ele><time>2026-04-21T08:04:51.05Z</time></trkpt><trkpt lat="40.6064065" lon="9.1731513"><ele>1017.5999999999999</ele><time>2026-04-21T08:04:53.062Z</time></trkpt><trkpt lat="40.6064892" lon="9.1731127"><ele>1019.1999999999999</ele><time>2026-04-21T08:04:55.059Z</time></trkpt><trkpt lat="40.6065613" lon="9.1731347"><ele>1020.8000000000001</ele><time>2026-04-21T08:04:57.051Z</time></trkpt><trkpt lat="40.6066064" lon="9.1732323"><ele>1022.4000000000001</ele><time>2026-04-21T08:04:59.05Z</time></trkpt><trkpt lat="40.6066114" lon="9.1733665"><ele>1024.0</ele><time>2026-04-21T08:05:01.051Z</time></trkpt><trkpt lat="40.6066224" lon="9.1735077"><ele>1024.0</ele><time>2026-04-21T08:05:03.034Z</time></trkpt><trkpt lat="40.6066717" lon="9.1736596"><ele>1024.0</ele><time>2026-04-21T08:05:05.035Z</time></trkpt><trkpt lat="40.6066981" lon="9.1737369"><ele>1024.0</ele><time>2026-04-21T08:05:06.05Z</time></trkpt><trkpt lat="40.6067477" lon="9.1738883"><ele>1024.0</ele><time>2026-04-21T08:05:08.051Z</time></trkpt><trkpt lat="40.60679" lon="9.1740419"><ele>1024.0</ele><time>2026-04-21T08:05:10.058Z</time></trkpt><trkpt lat="40.6068107" lon="9.1741214"><ele>1024.0</ele><time>2026-04-21T08:05:11.051Z</time></trkpt><trkpt lat="40.6068287" lon="9.1742036"><ele>1024.0</ele><time>2026-04-21T08:05:12.059Z</time></trkpt><trkpt lat="40.6068449" lon="9.174289"><ele>1024.0</ele><time>2026-04-21T08:05:13.058Z</time></trkpt><trkpt lat="40.6068717" lon="9.1744484"><ele>1024.0</ele><time>2026-04-21T08:05:15.064Z</time></trkpt><trkpt lat="40.6068913" lon="9.1745889"><ele>1024.0</ele><time>2026-04-21T08:05:17.06Z</time></trkpt><trkpt lat="40.6069101" lon="9.1747033"><ele>1024.0</ele><time>2026-04-21T08:05:19.062Z</time></trkpt><trkpt lat="40.6069808" lon="9.1747546"><ele>1024.0</ele><time>2026-04-21T08:05:21.048Z</time></trkpt><trkpt lat="40.6070479" lon="9.1746757"><ele>1024.0</ele><time>2026-04-21T08:05:24.055Z</time></trkpt><trkpt lat="40.6071109" lon="9.1745122"><ele>1024.0</ele><time>2026-04-21T08:05:26.05Z</time></trkpt><trkpt lat="40.6071496" lon="9.1744068"><ele>1024.0</ele><time>2026-04-21T08:05:27.044Z</time></trkpt><trkpt lat="40.607182" lon="9.1743058"><ele>1021.1666666666666</ele><time>2026-04-21T08:05:28.053Z</time></trkpt><trkpt lat="40.6072188" lon="9.1742063"><ele>1018.3333333333333</ele><time>2026-04-21T08:05:29.065Z</time></trkpt><trkpt lat="40.6072571" lon="9.174109"><ele>1015.5</ele><time>2026-04-21T08:05:30.064Z</time></trkpt><trkpt lat="40.6072931" lon="9.1740107"><ele>1012.6666666666667</ele><time>2026-04-21T08:05:31.05Z</time></trkpt><trkpt lat="40.6073254" lon="9.1739165"><ele>1009.8333333333334</ele><time>2026-04-21T08:05:32.058Z</time></trkpt><trkpt lat="40.6073508" lon="9.1738245"><ele>1007.0</ele><time>2026-04-21T08:05:33.051Z</time></trkpt><trkpt lat="40.6073748" lon="9.1737359"><ele>1007.0000000000001</ele><time>2026-04-21T08:05:34.053Z</time></trkpt><trkpt lat="40.607393" lon="9.1736498"><ele>1007.0</ele><time>2026-04-21T08:05:35.054Z</time></trkpt><trkpt lat="40.6074091" lon="9.1735591"><ele>1007.0</ele><time>2026-04-21T08:05:36.054Z</time></trkpt><trkpt lat="40.6074302" lon="9.1734143"><ele>1007.0</ele><time>2026-04-21T08:05:38.054Z</time></trkpt><trkpt lat="40.607467" lon="9.1732892"><ele>1007.0000000000001</ele><time>2026-04-21T08:05:40.064Z</time></trkpt><trkpt lat="40.6075153" lon="9.1732272"><ele>1007.0</ele><time>2026-04-21T08:05:41.968Z</time></trkpt><trkpt lat="40.6075966" lon="9.1732446"><ele>1007.0</ele><time>2026-04-21T08:05:43.977Z</time></trkpt><trkpt lat="40.6076402" lon="9.1733664"><ele>1007.0</ele><time>2026-04-21T08:05:45.965Z</time></trkpt><trkpt lat="40.6076478" lon="9.1735415"><ele>1007.0</ele><time>2026-04-21T08:05:47.952Z</time></trkpt><trkpt lat="40.6076695" lon="9.1736473"><ele>1007.0</ele><time>2026-04-21T08:05:48.958Z</time></trkpt><trkpt lat="40.6077013" lon="9.1737594"><ele>1007.0</ele><time>2026-04-21T08:05:49.966Z</time></trkpt><trkpt lat="40.6077277" lon="9.173877"><ele>1007.0000000000001</ele><time>2026-04-21T08:05:50.967Z</time></trkpt><trkpt lat="40.6077398" lon="9.1739782"><ele>1007.0</ele><time>2026-04-21T08:05:51.968Z</time></trkpt><trkpt lat="40.6077541" lon="9.1740736"><ele>1007.0</ele><time>2026-04-21T08:05:52.97Z</time></trkpt><trkpt lat="40.6077744" lon="9.174179"><ele>1007.0</ele><time>2026-04-21T08:05:53.967Z</time></trkpt><trkpt lat="40.6077898" lon="9.1742839"><ele>1007.0000000000001</ele><time>2026-04-21T08:05:54.967Z</time></trkpt><trkpt lat="40.6078059" lon="9.1743846"><ele>1007.0</ele><time>2026-04-21T08:05:55.969Z</time></trkpt><trkpt lat="40.607822" lon="9.1744944"><ele>1004.1666666666667</ele><time>2026-04-21T08:05:56.969Z</time></trkpt><trkpt lat="40.6078439" lon="9.1746047"><ele>1001.3333333333334</ele><time>2026-04-21T08:05:57.972Z</time></trkpt><trkpt lat="40.6078609" lon="9.1747052"><ele>998.5</ele><time>2026-04-21T08:05:58.978Z</time></trkpt><trkpt lat="40.6078875" lon="9.1747945"><ele>995.6666666666667</ele><time>2026-04-21T08:05:59.974Z</time></trkpt><trkpt lat="40.6079217" lon="9.174879"><ele>992.8333333333334</ele><time>2026-04-21T08:06:00.972Z</time></trkpt><trkpt lat="40.60796" lon="9.1749597"><ele>990.0</ele><time>2026-04-21T08:06:01.967Z</time></trkpt><trkpt lat="40.608021" lon="9.175039"><ele>990.0</ele><time>2026-04-21T08:06:02.969Z</time></trkpt><trkpt lat="40.6080889" lon="9.1751032"><ele>990.0</ele><time>2026-04-21T08:06:03.969Z</time></trkpt><trkpt lat="40.6081621" lon="9.1751714"><ele>990.0</ele><time>2026-04-21T08:06:04.964Z</time></trkpt><trkpt lat="40.6082318" lon="9.175235"><ele>990.0</ele><time>2026-04-21T08:06:05.964Z</time></trkpt><trkpt lat="40.6082974" lon="9.1752955"><ele>990.0</ele><time>2026-04-21T08:06:06.965Z</time></trkpt><trkpt lat="40.608361" lon="9.1753485"><ele>990.0</ele><time>2026-04-21T08:06:07.962Z</time></trkpt><trkpt lat="40.6084291" lon="9.175394"><ele>990.0</ele><time>2026-04-21T08:06:08.96Z</time></trkpt><trkpt lat="40.6085" lon="9.1754318"><ele>990.0</ele><time>2026-04-21T08:06:09.962Z</time></trkpt><trkpt lat="40.6085689" lon="9.1754623"><ele>990.0</ele><time>2026-04-21T08:06:10.964Z</time></trkpt><trkpt lat="40.6086964" lon="9.1755046"><ele>990.0</ele><time>2026-04-21T08:06:12.961Z</time></trkpt><trkpt lat="40.6088162" lon="9.1755248"><ele>990.0</ele><time>2026-04-21T08:06:14.961Z</time></trkpt><trkpt lat="40.6089339" lon="9.1754794"><ele>987.4</ele><time>2026-04-21T08:06:16.961Z</time></trkpt><trkpt lat="40.6089976" lon="9.1753674"><ele>984.8</ele><time>2026-04-21T08:06:18.956Z</time></trkpt><trkpt lat="40.6089871" lon="9.1751987"><ele>982.2</ele><time>2026-04-21T08:06:20.958Z</time></trkpt><trkpt lat="40.6089511" lon="9.1751138"><ele>979.6</ele><time>2026-04-21T08:06:21.958Z</time></trkpt><trkpt lat="40.6089015" lon="9.1750206"><ele>977.0</ele><time>2026-04-21T08:06:22.963Z</time></trkpt><trkpt lat="40.6088402" lon="9.1749167"><ele>978.2</ele><time>2026-04-21T08:06:23.964Z</time></trkpt><trkpt lat="40.6087875" lon="9.174819"><ele>979.4000000000001</ele><time>2026-04-21T08:06:24.964Z</time></trkpt><trkpt lat="40.6087185" lon="9.1747215"><ele>980.5999999999999</ele><time>2026-04-21T08:06:25.963Z</time></trkpt><trkpt lat="40.6086549" lon="9.1746103"><ele>981.8</ele><time>2026-04-21T08:06:26.959Z</time></trkpt><trkpt lat="40.6085923" lon="9.1744838"><ele>983.0</ele><time>2026-04-21T08:06:27.961Z</time></trkpt><trkpt lat="40.6085406" lon="9.1743668"><ele>983.0</ele><time>2026-04-21T08:06:28.965Z</time></trkpt><trkpt lat="40.6084987" lon="9.1742465"><ele>983.0</ele><time>2026-04-21T08:06:29.963Z</time></trkpt><trkpt lat="40.6084542" lon="9.1741237"><ele>983.0</ele><time>2026-04-21T08:06:30.966Z</time></trkpt><trkpt lat="40.6084265" lon="9.1739972"><ele>983.0</ele><time>2026-04-21T08:06:31.965Z</time></trkpt><trkpt lat="40.608403" lon="9.1738756"><ele>983.0</ele><time>2026-04-21T08:06:32.966Z</time></trkpt><trkpt lat="40.6083765" lon="9.1737667"><ele>983.2857142857142</ele><time>2026-04-21T08:06:33.965Z</time></trkpt><trkpt lat="40.6083648" lon="9.1736763"><ele>983.5714285714286</ele><time>2026-04-21T08:06:34.964Z</time></trkpt><trkpt lat="40.608358" lon="9.1735919"><ele>983.8571428571429</ele><time>2026-04-21T08:06:35.956Z</time></trkpt><trkpt lat="40.6083837" lon="9.1735005"><ele>984.1428571428571</ele><time>2026-04-21T08:06:36.956Z</time></trkpt><trkpt lat="40.6084381" lon="9.173416"><ele>984.4285714285716</ele><time>2026-04-21T08:06:37.953Z</time></trkpt><trkpt lat="40.6084973" lon="9.1733472"><ele>984.7142857142858</ele><time>2026-04-21T08:06:38.947Z</time></trkpt><trkpt lat="40.6085626" lon="9.1732996"><ele>985.0</ele><time>2026-04-21T08:06:39.952Z</time></trkpt><trkpt lat="40.6086402" lon="9.173261"><ele>985.4999999999999</ele><time>2026-04-21T08:06:40.958Z</time></trkpt><trkpt lat="40.6087335" lon="9.1732205"><ele>986.0</ele><time>2026-04-21T08:06:41.961Z</time></trkpt><trkpt lat="40.6088209" lon="9.1731768"><ele>986.5</ele><time>2026-04-21T08:06:42.959Z</time></trkpt><trkpt lat="40.6089008" lon="9.1731355"><ele>987.0</ele><time>2026-04-21T08:06:43.959Z</time></trkpt><trkpt lat="40.6089778" lon="9.1730943"><ele>987.4999999999999</ele><time>2026-04-21T08:06:44.96Z</time></trkpt><trkpt lat="40.6090567" lon="9.1730512"><ele>988.0</ele><time>2026-04-21T08:06:45.959Z</time></trkpt><trkpt lat="40.6091412" lon="9.1730243"><ele>988.0</ele><time>2026-04-21T08:06:46.961Z</time></trkpt><trkpt lat="40.6092278" lon="9.1730055"><ele>988.0</ele><time>2026-04-21T08:06:47.961Z</time></trkpt><trkpt lat="40.6093113" lon="9.1729885"><ele>988.0</ele><time>2026-04-21T08:06:48.961Z</time></trkpt><trkpt lat="40.609409" lon="9.1729569"><ele>988.0</ele><time>2026-04-21T08:06:49.96Z</time></trkpt><trkpt lat="40.6095005" lon="9.1729257"><ele>988.0</ele><time>2026-04-21T08:06:50.962Z</time></trkpt><trkpt lat="40.6095845" lon="9.1728936"><ele>984.9999999999999</ele><time>2026-04-21T08:06:51.961Z</time></trkpt><trkpt lat="40.6096619" lon="9.1728559"><ele>982.0</ele><time>2026-04-21T08:06:52.963Z</time></trkpt><trkpt lat="40.6097468" lon="9.1728452"><ele>979.0</ele><time>2026-04-21T08:06:53.964Z</time></trkpt><trkpt lat="40.6098386" lon="9.1728474"><ele>976.0</ele><time>2026-04-21T08:06:54.962Z</time></trkpt><trkpt lat="40.6099311" lon="9.1728407"><ele>972.9999999999999</ele><time>2026-04-21T08:06:55.96Z</time></trkpt><trkpt lat="40.6100248" lon="9.1728327"><ele>970.0</ele><time>2026-04-21T08:06:56.96Z</time></trkpt><trkpt lat="40.6101142" lon="9.1728126"><ele>970.0</ele><time>2026-04-21T08:06:57.963Z</time></trkpt><trkpt lat="40.6102087" lon="9.1727978"><ele>970.0</ele><time>2026-04-21T08:06:58.963Z</time></trkpt><trkpt lat="40.6103055" lon="9.17278"><ele>970.0</ele><time>2026-04-21T08:06:59.96Z</time></trkpt><trkpt lat="40.610399" lon="9.1727642"><ele>970.0</ele><time>2026-04-21T08:07:00.962Z</time></trkpt><trkpt lat="40.610503" lon="9.1727476"><ele>970.0</ele><time>2026-04-21T08:07:01.962Z</time></trkpt><trkpt lat="40.6106004" lon="9.1727333"><ele>966.4</ele><time>2026-04-21T08:07:02.963Z</time></trkpt><trkpt lat="40.6106884" lon="9.1727194"><ele>962.8</ele><time>2026-04-21T08:07:03.966Z</time></trkpt><trkpt lat="40.6107842" lon="9.1726959"><ele>959.2</ele><time>2026-04-21T08:07:04.961Z</time></trkpt><trkpt lat="40.6108832" lon="9.17268"><ele>955.6</ele><time>2026-04-21T08:07:05.957Z</time></trkpt><trkpt lat="40.6109789" lon="9.1726643"><ele>952.0</ele><time>2026-04-21T08:07:06.958Z</time></trkpt><trkpt lat="40.6110737" lon="9.1726531"><ele>949.0</ele><time>2026-04-21T08:07:07.96Z</time></trkpt><trkpt lat="40.6111689" lon="9.1726452"><ele>946.0</ele><time>2026-04-21T08:07:08.953Z</time></trkpt><trkpt lat="40.6112651" lon="9.1726401"><ele>943.0</ele><time>2026-04-21T08:07:09.956Z</time></trkpt><trkpt lat="40.6113617" lon="9.1726415"><ele>940.0</ele><time>2026-04-21T08:07:10.948Z</time></trkpt><trkpt lat="40.6114574" lon="9.1726408"><ele>937.0</ele><time>2026-04-21T08:07:11.959Z</time></trkpt><trkpt lat="40.6115562" lon="9.1726405"><ele>936.9999999999999</ele><time>2026-04-21T08:07:12.964Z</time></trkpt><trkpt lat="40.6116493" lon="9.1726362"><ele>937.0</ele><time>2026-04-21T08:07:13.96Z</time></trkpt><trkpt lat="40.6117414" lon="9.1726336"><ele>937.0</ele><time>2026-04-21T08:07:14.961Z</time></trkpt><trkpt lat="40.6118322" lon="9.1726339"><ele>937.0</ele><time>2026-04-21T08:07:15.961Z</time></trkpt><trkpt lat="40.6119249" lon="9.1726286"><ele>936.9999999999999</ele><time>2026-04-21T08:07:16.966Z</time></trkpt><trkpt lat="40.6120048" lon="9.1726222"><ele>937.0</ele><time>2026-04-21T08:07:17.961Z</time></trkpt><trkpt lat="40.6120835" lon="9.1726091"><ele>936.2</ele><time>2026-04-21T08:07:18.963Z</time></trkpt><trkpt lat="40.6121661" lon="9.1725787"><ele>935.4000000000001</ele><time>2026-04-21T08:07:19.961Z</time></trkpt><trkpt lat="40.6122416" lon="9.1725216"><ele>934.5999999999999</ele><time>2026-04-21T08:07:20.961Z</time></trkpt><trkpt lat="40.6123241" lon="9.1724539"><ele>933.8</ele><time>2026-04-21T08:07:21.968Z</time></trkpt><trkpt lat="40.6124039" lon="9.1723699"><ele>933.0</ele><time>2026-04-21T08:07:22.966Z</time></trkpt><trkpt lat="40.6124799" lon="9.1722946"><ele>933.0</ele><time>2026-04-21T08:07:23.964Z</time></trkpt><trkpt lat="40.6125517" lon="9.1722141"><ele>933.0</ele><time>2026-04-21T08:07:24.963Z</time></trkpt><trkpt lat="40.612621" lon="9.1721259"><ele>933.0</ele><time>2026-04-21T08:07:25.965Z</time></trkpt><trkpt lat="40.6126839" lon="9.1720388"><ele>933.0</ele><time>2026-04-21T08:07:26.962Z</time></trkpt><trkpt lat="40.612745" lon="9.1719558"><ele>933.0</ele><time>2026-04-21T08:07:27.98Z</time></trkpt><trkpt lat="40.6128174" lon="9.1718592"><ele>929.2</ele><time>2026-04-21T08:07:28.978Z</time></trkpt><trkpt lat="40.6128807" lon="9.1717709"><ele>925.4</ele><time>2026-04-21T08:07:29.975Z</time></trkpt><trkpt lat="40.6129466" lon="9.1716815"><ele>921.6000000000001</ele><time>2026-04-21T08:07:30.982Z</time></trkpt><trkpt lat="40.6130121" lon="9.1715747"><ele>917.8000000000001</ele><time>2026-04-21T08:07:31.977Z</time></trkpt><trkpt lat="40.6130799" lon="9.1714569"><ele>914.0</ele><time>2026-04-21T08:07:32.978Z</time></trkpt><trkpt lat="40.6131489" lon="9.1713374"><ele>914.0</ele><time>2026-04-21T08:07:33.976Z</time></trkpt><trkpt lat="40.6132138" lon="9.1712294"><ele>914.0000000000001</ele><time>2026-04-21T08:07:34.978Z</time></trkpt><trkpt lat="40.6132766" lon="9.1711211"><ele>914.0000000000001</ele><time>2026-04-21T08:07:35.979Z</time></trkpt><trkpt lat="40.6133434" lon="9.1710143"><ele>914.0</ele><time>2026-04-21T08:07:36.975Z</time></trkpt><trkpt lat="40.6134101" lon="9.1709054"><ele>914.0</ele><time>2026-04-21T08:07:37.976Z</time></trkpt><trkpt lat="40.6134764" lon="9.1707979"><ele>914.0</ele><time>2026-04-21T08:07:38.971Z</time></trkpt><trkpt lat="40.6135388" lon="9.170695"><ele>914.0000000000001</ele><time>2026-04-21T08:07:39.968Z</time></trkpt><trkpt lat="40.6136068" lon="9.170592"><ele>914.0000000000001</ele><time>2026-04-21T08:07:40.969Z</time></trkpt><trkpt lat="40.6136729" lon="9.1704845"><ele>914.0</ele><time>2026-04-21T08:07:41.967Z</time></trkpt><trkpt lat="40.6137284" lon="9.1703737"><ele>914.0</ele><time>2026-04-21T08:07:42.967Z</time></trkpt><trkpt lat="40.6137824" lon="9.1702692"><ele>911.0</ele><time>2026-04-21T08:07:43.97Z</time></trkpt><trkpt lat="40.6138333" lon="9.1701569"><ele>908.0000000000001</ele><time>2026-04-21T08:07:44.967Z</time></trkpt><trkpt lat="40.6138796" lon="9.1700487"><ele>905.0000000000001</ele><time>2026-04-21T08:07:45.967Z</time></trkpt><trkpt lat="40.6139185" lon="9.1699457"><ele>902.0</ele><time>2026-04-21T08:07:46.967Z</time></trkpt><trkpt lat="40.6139578" lon="9.1698429"><ele>899.0</ele><time>2026-04-21T08:07:47.97Z</time></trkpt><trkpt lat="40.614002" lon="9.1697488"><ele>899.0000000000001</ele><time>2026-04-21T08:07:48.968Z</time></trkpt><trkpt lat="40.6140493" lon="9.1696633"><ele>899.0</ele><time>2026-04-21T08:07:49.971Z</time></trkpt><trkpt lat="40.6141115" lon="9.1695786"><ele>899.0</ele><time>2026-04-21T08:07:50.967Z</time></trkpt><trkpt lat="40.6141777" lon="9.1694928"><ele>899.0</ele><time>2026-04-21T08:07:51.968Z</time></trkpt><trkpt lat="40.6142464" lon="9.1694095"><ele>899.0000000000001</ele><time>2026-04-21T08:07:52.971Z</time></trkpt><trkpt lat="40.6143128" lon="9.1693425"><ele>899.0</ele><time>2026-04-21T08:07:53.968Z</time></trkpt><trkpt lat="40.6143806" lon="9.1692771"><ele>899.0000000000001</ele><time>2026-04-21T08:07:54.965Z</time></trkpt><trkpt lat="40.6144465" lon="9.1692186"><ele>899.0</ele><time>2026-04-21T08:07:55.966Z</time></trkpt><trkpt lat="40.6145096" lon="9.1691681"><ele>899.0</ele><time>2026-04-21T08:07:56.966Z</time></trkpt><trkpt lat="40.6146132" lon="9.1691237"><ele>899.0</ele><time>2026-04-21T08:07:58.959Z</time></trkpt><trkpt lat="40.6146871" lon="9.1691642"><ele>899.0000000000001</ele><time>2026-04-21T08:08:00.963Z</time></trkpt><trkpt lat="40.6147128" lon="9.1692535"><ele>899.0</ele><time>2026-04-21T08:08:02.965Z</time></trkpt><trkpt lat="40.6146785" lon="9.1694005"><ele>897.3333333333334</ele><time>2026-04-21T08:08:04.978Z</time></trkpt><trkpt lat="40.6146492" lon="9.1695067"><ele>895.6666666666667</ele><time>2026-04-21T08:08:05.959Z</time></trkpt><trkpt lat="40.6146302" lon="9.1695958"><ele>894.0</ele><time>2026-04-21T08:08:06.953Z</time></trkpt><trkpt lat="40.6146086" lon="9.1696794"><ele>892.3333333333333</ele><time>2026-04-21T08:08:08.954Z</time></trkpt><trkpt lat="40.6145934" lon="9.1697728"><ele>890.6666666666666</ele><time>2026-04-21T08:08:23.975Z</time></trkpt><trkpt lat="40.6145745" lon="9.1698663"><ele>889.0</ele><time>2026-04-21T08:08:24.964Z</time></trkpt><trkpt lat="40.6145477" lon="9.1699877"><ele>888.5</ele><time>2026-04-21T08:08:25.963Z</time></trkpt><trkpt lat="40.614509" lon="9.1701245"><ele>888.0</ele><time>2026-04-21T08:08:26.961Z</time></trkpt><trkpt lat="40.6144542" lon="9.1702647"><ele>887.5</ele><time>2026-04-21T08:08:27.97Z</time></trkpt><trkpt lat="40.614394" lon="9.1704136"><ele>887.0</ele><time>2026-04-21T08:08:28.973Z</time></trkpt><trkpt lat="40.6143325" lon="9.1705561"><ele>889.5</ele><time>2026-04-21T08:08:29.977Z</time></trkpt><trkpt lat="40.6142846" lon="9.1707024"><ele>892.0</ele><time>2026-04-21T08:08:30.979Z</time></trkpt><trkpt lat="40.6142336" lon="9.1708543"><ele>894.5</ele><time>2026-04-21T08:08:31.972Z</time></trkpt><trkpt lat="40.614183" lon="9.1710064"><ele>897.0</ele><time>2026-04-21T08:08:32.973Z</time></trkpt><trkpt lat="40.614132" lon="9.1711487"><ele>897.0</ele><time>2026-04-21T08:08:33.972Z</time></trkpt><trkpt lat="40.6140799" lon="9.1712875"><ele>897.0</ele><time>2026-04-21T08:08:34.977Z</time></trkpt><trkpt lat="40.6140299" lon="9.1714189"><ele>897.0</ele><time>2026-04-21T08:08:36.051Z</time></trkpt><trkpt lat="40.6139804" lon="9.1715495"><ele>897.0</ele><time>2026-04-21T08:08:37.054Z</time></trkpt><trkpt lat="40.6139311" lon="9.1716877"><ele>897.0</ele><time>2026-04-21T08:08:38.054Z</time></trkpt><trkpt lat="40.6138802" lon="9.1718292"><ele>897.0</ele><time>2026-04-21T08:08:39.048Z</time></trkpt><trkpt lat="40.6138228" lon="9.1719707"><ele>897.0</ele><time>2026-04-21T08:08:40.056Z</time></trkpt><trkpt lat="40.6137636" lon="9.1721112"><ele>897.0</ele><time>2026-04-21T08:08:41.053Z</time></trkpt><trkpt lat="40.6137036" lon="9.1722478"><ele>898.5</ele><time>2026-04-21T08:08:42.048Z</time></trkpt><trkpt lat="40.6136349" lon="9.1723799"><ele>900.0</ele><time>2026-04-21T08:08:43.046Z</time></trkpt><trkpt lat="40.6135606" lon="9.1725098"><ele>901.5</ele><time>2026-04-21T08:08:44.051Z</time></trkpt><trkpt lat="40.6134802" lon="9.1726296"><ele>903.0</ele><time>2026-04-21T08:08:45.043Z</time></trkpt><trkpt lat="40.6133875" lon="9.1727365"><ele>903.0</ele><time>2026-04-21T08:08:46.042Z</time></trkpt><trkpt lat="40.6132834" lon="9.1728289"><ele>903.0</ele><time>2026-04-21T08:08:47.044Z</time></trkpt><trkpt lat="40.6131803" lon="9.1729144"><ele>903.0</ele><time>2026-04-21T08:08:48.027Z</time></trkpt><trkpt lat="40.6130764" lon="9.1729868"><ele>903.0</ele><time>2026-04-21T08:08:49.03Z</time></trkpt><trkpt lat="40.6129724" lon="9.1730467"><ele>903.0</ele><time>2026-04-21T08:08:50.037Z</time></trkpt><trkpt lat="40.6128717" lon="9.1731019"><ele>903.0</ele><time>2026-04-21T08:08:51.031Z</time></trkpt><trkpt lat="40.6127721" lon="9.1731546"><ele>903.0</ele><time>2026-04-21T08:08:52.047Z</time></trkpt><trkpt lat="40.6126774" lon="9.1732106"><ele>903.0</ele><time>2026-04-21T08:08:53.047Z</time></trkpt><trkpt lat="40.6125857" lon="9.1732705"><ele>903.0</ele><time>2026-04-21T08:08:54.043Z</time></trkpt><trkpt lat="40.6125002" lon="9.1733325"><ele>902.4</ele><time>2026-04-21T08:08:55.048Z</time></trkpt><trkpt lat="40.6124205" lon="9.1733886"><ele>901.8</ele><time>2026-04-21T08:08:56.04Z</time></trkpt><trkpt lat="40.6123531" lon="9.1734366"><ele>901.2</ele><time>2026-04-21T08:08:57.041Z</time></trkpt><trkpt lat="40.6122632" lon="9.1735209"><ele>900.6</ele><time>2026-04-21T08:08:59.041Z</time></trkpt><trkpt lat="40.6122649" lon="9.1736265"><ele>900.0</ele><time>2026-04-21T08:09:01.036Z</time></trkpt><trkpt lat="40.6123263" lon="9.1737447"><ele>900.0</ele><time>2026-04-21T08:09:03.022Z</time></trkpt><trkpt lat="40.6123777" lon="9.1738094"><ele>900.0</ele><time>2026-04-21T08:09:04.024Z</time></trkpt><trkpt lat="40.6124468" lon="9.1738703"><ele>900.0</ele><time>2026-04-21T08:09:05.023Z</time></trkpt><trkpt lat="40.6125299" lon="9.173934"><ele>900.0</ele><time>2026-04-21T08:09:06.032Z</time></trkpt><trkpt lat="40.6126287" lon="9.1739963"><ele>900.0</ele><time>2026-04-21T08:09:07.043Z</time></trkpt><trkpt lat="40.6127231" lon="9.1740578"><ele>900.6</ele><time>2026-04-21T08:09:08.047Z</time></trkpt><trkpt lat="40.6128163" lon="9.1741231"><ele>901.2</ele><time>2026-04-21T08:09:09.042Z</time></trkpt><trkpt lat="40.6129098" lon="9.1741946"><ele>901.8</ele><time>2026-04-21T08:09:10.047Z</time></trkpt><trkpt lat="40.6130052" lon="9.1742686"><ele>902.4</ele><time>2026-04-21T08:09:11.051Z</time></trkpt><trkpt lat="40.6130973" lon="9.1743476"><ele>903.0</ele><time>2026-04-21T08:09:12.045Z</time></trkpt><trkpt lat="40.613184" lon="9.1744337"><ele>903.2</ele><time>2026-04-21T08:09:13.051Z</time></trkpt><trkpt lat="40.6132653" lon="9.1745183"><ele>903.4</ele><time>2026-04-21T08:09:14.049Z</time></trkpt><trkpt lat="40.6133475" lon="9.1746044"><ele>903.6000000000001</ele><time>2026-04-21T08:09:15.044Z</time></trkpt><trkpt lat="40.613429" lon="9.1746935"><ele>903.8000000000001</ele><time>2026-04-21T08:09:16.051Z</time></trkpt><trkpt lat="40.6135129" lon="9.174779"><ele>904.0</ele><time>2026-04-21T08:09:17.052Z</time></trkpt><trkpt lat="40.6135974" lon="9.1748543"><ele>902.1666666666666</ele><time>2026-04-21T08:09:18.048Z</time></trkpt><trkpt lat="40.613678" lon="9.1749227"><ele>900.3333333333333</ele><time>2026-04-21T08:09:19.048Z</time></trkpt><trkpt lat="40.613757" lon="9.1749906"><ele>898.5</ele><time>2026-04-21T08:09:20.05Z</time></trkpt><trkpt lat="40.6138282" lon="9.1750521"><ele>896.6666666666667</ele><time>2026-04-21T08:09:21.045Z</time></trkpt><trkpt lat="40.6138967" lon="9.1751196"><ele>894.8333333333334</ele><time>2026-04-21T08:09:22.05Z</time></trkpt><trkpt lat="40.6139552" lon="9.1751919"><ele>893.0</ele><time>2026-04-21T08:09:23.049Z</time></trkpt><trkpt lat="40.6140049" lon="9.175269"><ele>893.0000000000001</ele><time>2026-04-21T08:09:24.039Z</time></trkpt><trkpt lat="40.6140457" lon="9.1753556"><ele>893.0</ele><time>2026-04-21T08:09:25.032Z</time></trkpt><trkpt lat="40.6140811" lon="9.175451"><ele>893.0</ele><time>2026-04-21T08:09:26.033Z</time></trkpt><trkpt lat="40.6141043" lon="9.175552"><ele>893.0</ele><time>2026-04-21T08:09:27.031Z</time></trkpt><trkpt lat="40.6141171" lon="9.1756631"><ele>893.0000000000001</ele><time>2026-04-21T08:09:28.048Z</time></trkpt><trkpt lat="40.6141134" lon="9.1757813"><ele>893.0</ele><time>2026-04-21T08:09:29.045Z</time></trkpt><trkpt lat="40.6140934" lon="9.1759056"><ele>892.5999999999999</ele><time>2026-04-21T08:09:30.029Z</time></trkpt><trkpt lat="40.6140652" lon="9.1760321"><ele>892.1999999999999</ele><time>2026-04-21T08:09:31.037Z</time></trkpt><trkpt lat="40.6140395" lon="9.1761711"><ele>891.8</ele><time>2026-04-21T08:09:32.031Z</time></trkpt><trkpt lat="40.6140233" lon="9.1763024"><ele>891.4</ele><time>2026-04-21T08:09:33.03Z</time></trkpt><trkpt lat="40.6140172" lon="9.1764224"><ele>891.0</ele><time>2026-04-21T08:09:34.045Z</time></trkpt><trkpt lat="40.6140315" lon="9.1765275"><ele>890.6666666666666</ele><time>2026-04-21T08:09:35.037Z</time></trkpt><trkpt lat="40.6140627" lon="9.1766073"><ele>890.3333333333333</ele><time>2026-04-21T08:09:36.029Z</time></trkpt><trkpt lat="40.6141133" lon="9.176671"><ele>890.0</ele><time>2026-04-21T08:09:37.029Z</time></trkpt><trkpt lat="40.6141806" lon="9.1767219"><ele>889.6666666666666</ele><time>2026-04-21T08:09:38.035Z</time></trkpt><trkpt lat="40.6142504" lon="9.1767999"><ele>889.3333333333333</ele><time>2026-04-21T08:09:38.947Z</time></trkpt><trkpt lat="40.6143386" lon="9.176892"><ele>889.0</ele><time>2026-04-21T08:09:39.963Z</time></trkpt><trkpt lat="40.6144386" lon="9.1769626"><ele>886.2</ele><time>2026-04-21T08:09:40.957Z</time></trkpt><trkpt lat="40.6145392" lon="9.1770119"><ele>883.4000000000001</ele><time>2026-04-21T08:09:41.953Z</time></trkpt><trkpt lat="40.6146446" lon="9.1770513"><ele>880.6</ele><time>2026-04-21T08:09:42.955Z</time></trkpt><trkpt lat="40.6147473" lon="9.1770921"><ele>877.8</ele><time>2026-04-21T08:09:43.956Z</time></trkpt><trkpt lat="40.6148411" lon="9.1771281"><ele>875.0</ele><time>2026-04-21T08:09:44.962Z</time></trkpt><trkpt lat="40.6149428" lon="9.1771701"><ele>875.0</ele><time>2026-04-21T08:09:45.962Z</time></trkpt><trkpt lat="40.6150513" lon="9.1772073"><ele>875.0</ele><time>2026-04-21T08:09:46.965Z</time></trkpt><trkpt lat="40.6151483" lon="9.1772408"><ele>875.0</ele><time>2026-04-21T08:09:47.964Z</time></trkpt><trkpt lat="40.6152486" lon="9.1772739"><ele>875.0</ele><time>2026-04-21T08:09:48.958Z</time></trkpt><trkpt lat="40.6153468" lon="9.1773078"><ele>875.0</ele><time>2026-04-21T08:09:49.96Z</time></trkpt><trkpt lat="40.6154372" lon="9.1773469"><ele>875.4</ele><time>2026-04-21T08:09:50.956Z</time></trkpt><trkpt lat="40.6155163" lon="9.1774057"><ele>875.8</ele><time>2026-04-21T08:09:51.955Z</time></trkpt><trkpt lat="40.6155931" lon="9.1774757"><ele>876.2</ele><time>2026-04-21T08:09:52.958Z</time></trkpt><trkpt lat="40.6156613" lon="9.1775512"><ele>876.6</ele><time>2026-04-21T08:09:53.961Z</time></trkpt><trkpt lat="40.6157258" lon="9.1776325"><ele>877.0</ele><time>2026-04-21T08:09:54.957Z</time></trkpt><trkpt lat="40.6157965" lon="9.177716"><ele>877.0</ele><time>2026-04-21T08:09:55.954Z</time></trkpt><trkpt lat="40.6158661" lon="9.1778073"><ele>877.0</ele><time>2026-04-21T08:09:56.959Z</time></trkpt><trkpt lat="40.615933" lon="9.1779132"><ele>877.0</ele><time>2026-04-21T08:09:57.96Z</time></trkpt><trkpt lat="40.6159818" lon="9.1780138"><ele>877.0</ele><time>2026-04-21T08:09:58.958Z</time></trkpt><trkpt lat="40.6160268" lon="9.1781148"><ele>877.0</ele><time>2026-04-21T08:09:59.958Z</time></trkpt><trkpt lat="40.6160689" lon="9.1782159"><ele>875.25</ele><time>2026-04-21T08:10:00.966Z</time></trkpt><trkpt lat="40.6161138" lon="9.1783509"><ele>873.5</ele><time>2026-04-21T08:10:01.95Z</time></trkpt><trkpt lat="40.6161519" lon="9.1784885"><ele>871.75</ele><time>2026-04-21T08:10:02.955Z</time></trkpt><trkpt lat="40.6161923" lon="9.1786341"><ele>870.0</ele><time>2026-04-21T08:10:03.955Z</time></trkpt><trkpt lat="40.6162304" lon="9.1787829"><ele>870.0</ele><time>2026-04-21T08:10:04.955Z</time></trkpt><trkpt lat="40.616273" lon="9.1789284"><ele>870.0</ele><time>2026-04-21T08:10:05.952Z</time></trkpt><trkpt lat="40.6163116" lon="9.1790898"><ele>870.0</ele><time>2026-04-21T08:10:06.958Z</time></trkpt><trkpt lat="40.616352" lon="9.1792569"><ele>870.0</ele><time>2026-04-21T08:10:07.957Z</time></trkpt><trkpt lat="40.6163895" lon="9.1794048"><ele>871.25</ele><time>2026-04-21T08:10:08.957Z</time></trkpt><trkpt lat="40.6164236" lon="9.1795499"><ele>872.5</ele><time>2026-04-21T08:10:09.955Z</time></trkpt><trkpt lat="40.6164536" lon="9.1796945"><ele>873.75</ele><time>2026-04-21T08:10:10.953Z</time></trkpt><trkpt lat="40.6164827" lon="9.1798413"><ele>875.0</ele><time>2026-04-21T08:10:11.956Z</time></trkpt><trkpt lat="40.6165084" lon="9.1799959"><ele>875.8</ele><time>2026-04-21T08:10:12.958Z</time></trkpt><trkpt lat="40.6165342" lon="9.1801464"><ele>876.6</ele><time>2026-04-21T08:10:13.96Z</time></trkpt><trkpt lat="40.6165519" lon="9.1802787"><ele>877.4000000000001</ele><time>2026-04-21T08:10:14.959Z</time></trkpt><trkpt lat="40.6165857" lon="9.1804058"><ele>878.2</ele><time>2026-04-21T08:10:15.957Z</time></trkpt><trkpt lat="40.6166222" lon="9.1805279"><ele>879.0</ele><time>2026-04-21T08:10:16.962Z</time></trkpt><trkpt lat="40.6166687" lon="9.180642"><ele>879.2</ele><time>2026-04-21T08:10:17.956Z</time></trkpt><trkpt lat="40.6167266" lon="9.1807581"><ele>879.4000000000001</ele><time>2026-04-21T08:10:18.959Z</time></trkpt><trkpt lat="40.6167909" lon="9.1808791"><ele>879.6</ele><time>2026-04-21T08:10:19.959Z</time></trkpt><trkpt lat="40.6168554" lon="9.1809936"><ele>879.8</ele><time>2026-04-21T08:10:20.96Z</time></trkpt><trkpt lat="40.6169054" lon="9.1811095"><ele>880.0</ele><time>2026-04-21T08:10:21.965Z</time></trkpt><trkpt lat="40.6169629" lon="9.1812104"><ele>878.6</ele><time>2026-04-21T08:10:22.962Z</time></trkpt><trkpt lat="40.6170272" lon="9.1813096"><ele>877.2</ele><time>2026-04-21T08:10:23.963Z</time></trkpt><trkpt lat="40.6171025" lon="9.1814163"><ele>875.8</ele><time>2026-04-21T08:10:24.966Z</time></trkpt><trkpt lat="40.6171836" lon="9.1815093"><ele>874.4</ele><time>2026-04-21T08:10:25.963Z</time></trkpt><trkpt lat="40.6172579" lon="9.1815901"><ele>873.0</ele><time>2026-04-21T08:10:26.961Z</time></trkpt><trkpt lat="40.6173307" lon="9.1816759"><ele>873.0</ele><time>2026-04-21T08:10:27.966Z</time></trkpt><trkpt lat="40.6174012" lon="9.1817586"><ele>873.0</ele><time>2026-04-21T08:10:28.964Z</time></trkpt><trkpt lat="40.6174592" lon="9.1818452"><ele>873.0</ele><time>2026-04-21T08:10:29.965Z</time></trkpt><trkpt lat="40.6175168" lon="9.181932"><ele>873.0</ele><time>2026-04-21T08:10:30.966Z</time></trkpt><trkpt lat="40.6175746" lon="9.1820129"><ele>873.0</ele><time>2026-04-21T08:10:31.966Z</time></trkpt><trkpt lat="40.6176276" lon="9.1820897"><ele>873.0</ele><time>2026-04-21T08:10:32.96Z</time></trkpt><trkpt lat="40.6176937" lon="9.1821561"><ele>873.0</ele><time>2026-04-21T08:10:33.96Z</time></trkpt><trkpt lat="40.6177738" lon="9.1822098"><ele>873.0</ele><time>2026-04-21T08:10:34.952Z</time></trkpt><trkpt lat="40.6178527" lon="9.1822401"><ele>873.0</ele><time>2026-04-21T08:10:35.953Z</time></trkpt><trkpt lat="40.6179322" lon="9.1822361"><ele>873.0</ele><time>2026-04-21T08:10:36.959Z</time></trkpt><trkpt lat="40.6180173" lon="9.1822281"><ele>873.0</ele><time>2026-04-21T08:10:37.956Z</time></trkpt><trkpt lat="40.6181113" lon="9.1822003"><ele>873.0</ele><time>2026-04-21T08:10:38.955Z</time></trkpt><trkpt lat="40.6182138" lon="9.1821732"><ele>871.0</ele><time>2026-04-21T08:10:39.954Z</time></trkpt><trkpt lat="40.618317" lon="9.1821572"><ele>869.0</ele><time>2026-04-21T08:10:40.953Z</time></trkpt><trkpt lat="40.6184193" lon="9.1821353"><ele>867.0</ele><time>2026-04-21T08:10:41.957Z</time></trkpt><trkpt lat="40.6185287" lon="9.1821074"><ele>865.0</ele><time>2026-04-21T08:10:42.962Z</time></trkpt><trkpt lat="40.6186321" lon="9.1820797"><ele>863.0</ele><time>2026-04-21T08:10:43.958Z</time></trkpt><trkpt lat="40.6187413" lon="9.1820585"><ele>862.4</ele><time>2026-04-21T08:10:44.959Z</time></trkpt><trkpt lat="40.6188366" lon="9.1820418"><ele>861.8</ele><time>2026-04-21T08:10:45.959Z</time></trkpt><trkpt lat="40.6189369" lon="9.1820306"><ele>861.2</ele><time>2026-04-21T08:10:46.964Z</time></trkpt><trkpt lat="40.6190369" lon="9.1820313"><ele>860.6</ele><time>2026-04-21T08:10:47.961Z</time></trkpt><trkpt lat="40.6191385" lon="9.182053"><ele>860.0</ele><time>2026-04-21T08:10:48.96Z</time></trkpt><trkpt lat="40.6192302" lon="9.1820926"><ele>860.0</ele><time>2026-04-21T08:10:49.964Z</time></trkpt><trkpt lat="40.6193299" lon="9.1821358"><ele>860.0</ele><time>2026-04-21T08:10:50.955Z</time></trkpt><trkpt lat="40.6194404" lon="9.1821886"><ele>860.0</ele><time>2026-04-21T08:10:51.955Z</time></trkpt><trkpt lat="40.6195499" lon="9.1822411"><ele>860.0</ele><time>2026-04-21T08:10:52.959Z</time></trkpt><trkpt lat="40.6196513" lon="9.1823046"><ele>860.2</ele><time>2026-04-21T08:10:53.961Z</time></trkpt><trkpt lat="40.6197537" lon="9.1823633"><ele>860.4</ele><time>2026-04-21T08:10:54.959Z</time></trkpt><trkpt lat="40.6198538" lon="9.1824158"><ele>860.5999999999999</ele><time>2026-04-21T08:10:55.955Z</time></trkpt><trkpt lat="40.6199433" lon="9.1824525"><ele>860.8</ele><time>2026-04-21T08:10:56.955Z</time></trkpt><trkpt lat="40.6200227" lon="9.1824997"><ele>861.0</ele><time>2026-04-21T08:10:57.956Z</time></trkpt><trkpt lat="40.6200885" lon="9.1825326"><ele>861.0</ele><time>2026-04-21T08:10:58.953Z</time></trkpt><trkpt lat="40.6201593" lon="9.1825828"><ele>861.0</ele><time>2026-04-21T08:10:59.958Z</time></trkpt><trkpt lat="40.6202152" lon="9.1826293"><ele>861.0</ele><time>2026-04-21T08:11:00.959Z</time></trkpt><trkpt lat="40.6202706" lon="9.1826748"><ele>861.0</ele><time>2026-04-21T08:11:01.962Z</time></trkpt><trkpt lat="40.6203696" lon="9.1827483"><ele>861.0</ele><time>2026-04-21T08:11:03.957Z</time></trkpt><trkpt lat="40.6204238" lon="9.1828019"><ele>861.0</ele><time>2026-04-21T08:11:05.968Z</time></trkpt><trkpt lat="40.6204099" lon="9.1829206"><ele>861.0</ele><time>2026-04-21T08:11:08.958Z</time></trkpt><trkpt lat="40.6202764" lon="9.1830108"><ele>861.0</ele><time>2026-04-21T08:11:10.951Z</time></trkpt><trkpt lat="40.6201803" lon="9.1830626"><ele>861.0</ele><time>2026-04-21T08:11:11.958Z</time></trkpt><trkpt lat="40.6200754" lon="9.1831191"><ele>861.0</ele><time>2026-04-21T08:11:12.958Z</time></trkpt><trkpt lat="40.6199799" lon="9.1831869"><ele>861.0</ele><time>2026-04-21T08:11:13.958Z</time></trkpt><trkpt lat="40.6198853" lon="9.1832644"><ele>861.0</ele><time>2026-04-21T08:11:14.953Z</time></trkpt><trkpt lat="40.6197884" lon="9.1833603"><ele>861.0</ele><time>2026-04-21T08:11:15.955Z</time></trkpt><trkpt lat="40.6196876" lon="9.1834658"><ele>861.0</ele><time>2026-04-21T08:11:16.964Z</time></trkpt><trkpt lat="40.6195932" lon="9.1835661"><ele>861.0</ele><time>2026-04-21T08:11:17.958Z</time></trkpt><trkpt lat="40.6195033" lon="9.1836657"><ele>861.0</ele><time>2026-04-21T08:11:18.957Z</time></trkpt><trkpt lat="40.6194029" lon="9.1837586"><ele>861.0</ele><time>2026-04-21T08:11:19.955Z</time></trkpt><trkpt lat="40.6193112" lon="9.1838447"><ele>861.0</ele><time>2026-04-21T08:11:20.953Z</time></trkpt><trkpt lat="40.6192293" lon="9.1839264"><ele>861.5999999999999</ele><time>2026-04-21T08:11:21.949Z</time></trkpt><trkpt lat="40.6191469" lon="9.1840088"><ele>862.1999999999999</ele><time>2026-04-21T08:11:22.951Z</time></trkpt><trkpt lat="40.6190652" lon="9.1840892"><ele>862.8000000000001</ele><time>2026-04-21T08:11:23.954Z</time></trkpt><trkpt lat="40.6189813" lon="9.1841802"><ele>863.4000000000001</ele><time>2026-04-21T08:11:24.962Z</time></trkpt><trkpt lat="40.6189153" lon="9.1842665"><ele>864.0</ele><time>2026-04-21T08:11:25.953Z</time></trkpt><trkpt lat="40.6188452" lon="9.1843638"><ele>863.0</ele><time>2026-04-21T08:11:26.957Z</time></trkpt><trkpt lat="40.618772" lon="9.1844379"><ele>862.0000000000001</ele><time>2026-04-21T08:11:27.957Z</time></trkpt><trkpt lat="40.6187055" lon="9.1845123"><ele>861.0000000000001</ele><time>2026-04-21T08:11:28.956Z</time></trkpt><trkpt lat="40.6186457" lon="9.1845854"><ele>860.0</ele><time>2026-04-21T08:11:29.959Z</time></trkpt><trkpt lat="40.6185921" lon="9.1846563"><ele>859.0</ele><time>2026-04-21T08:11:30.95Z</time></trkpt><trkpt lat="40.6184938" lon="9.1847707"><ele>859.0</ele><time>2026-04-21T08:11:32.958Z</time></trkpt><trkpt lat="40.6184328" lon="9.184818"><ele>859.0000000000001</ele><time>2026-04-21T08:11:33.978Z</time></trkpt><trkpt lat="40.6183686" lon="9.1849408"><ele>859.0000000000001</ele><time>2026-04-21T08:11:35.961Z</time></trkpt><trkpt lat="40.6184047" lon="9.1850942"><ele>859.0</ele><time>2026-04-21T08:11:37.957Z</time></trkpt><trkpt lat="40.618442" lon="9.1852008"><ele>859.0</ele><time>2026-04-21T08:11:38.963Z</time></trkpt><trkpt lat="40.6184713" lon="9.1853217"><ele>857.8000000000001</ele><time>2026-04-21T08:11:39.967Z</time></trkpt><trkpt lat="40.6184998" lon="9.1854394"><ele>856.6000000000001</ele><time>2026-04-21T08:11:40.96Z</time></trkpt><trkpt lat="40.6185387" lon="9.1855624"><ele>855.4</ele><time>2026-04-21T08:11:41.957Z</time></trkpt><trkpt lat="40.6185698" lon="9.1856923"><ele>854.2</ele><time>2026-04-21T08:11:42.957Z</time></trkpt><trkpt lat="40.6185981" lon="9.1858197"><ele>853.0</ele><time>2026-04-21T08:11:43.955Z</time></trkpt><trkpt lat="40.6186288" lon="9.1859391"><ele>851.8</ele><time>2026-04-21T08:11:44.955Z</time></trkpt><trkpt lat="40.6186692" lon="9.1860614"><ele>850.5999999999999</ele><time>2026-04-21T08:11:45.958Z</time></trkpt><trkpt lat="40.6187194" lon="9.1861908"><ele>849.4000000000001</ele><time>2026-04-21T08:11:46.967Z</time></trkpt><trkpt lat="40.6187734" lon="9.1863137"><ele>848.2</ele><time>2026-04-21T08:11:47.964Z</time></trkpt><trkpt lat="40.6188375" lon="9.186432"><ele>847.0</ele><time>2026-04-21T08:11:48.963Z</time></trkpt><trkpt lat="40.6189058" lon="9.1865457"><ele>846.4000000000001</ele><time>2026-04-21T08:11:49.974Z</time></trkpt><trkpt lat="40.6189795" lon="9.186649"><ele>845.8000000000001</ele><time>2026-04-21T08:11:50.969Z</time></trkpt><trkpt lat="40.6190519" lon="9.1867525"><ele>845.2</ele><time>2026-04-21T08:11:51.975Z</time></trkpt><trkpt lat="40.6191205" lon="9.1868653"><ele>844.6</ele><time>2026-04-21T08:11:53.043Z</time></trkpt><trkpt lat="40.6191917" lon="9.1869801"><ele>844.0</ele><time>2026-04-21T08:11:54.044Z</time></trkpt><trkpt lat="40.6192576" lon="9.1870981"><ele>844.0</ele><time>2026-04-21T08:11:55.042Z</time></trkpt><trkpt lat="40.6193163" lon="9.187219"><ele>844.0</ele><time>2026-04-21T08:11:56.046Z</time></trkpt><trkpt lat="40.6193567" lon="9.1873407"><ele>844.0</ele><time>2026-04-21T08:11:57.033Z</time></trkpt><trkpt lat="40.619376" lon="9.1874713"><ele>844.0</ele><time>2026-04-21T08:11:58.029Z</time></trkpt><trkpt lat="40.6193773" lon="9.1876036"><ele>844.0</ele><time>2026-04-21T08:11:59.025Z</time></trkpt><trkpt lat="40.6193723" lon="9.1877168"><ele>845.0</ele><time>2026-04-21T08:12:00.024Z</time></trkpt><trkpt lat="40.6193785" lon="9.187827"><ele>846.0</ele><time>2026-04-21T08:12:01.022Z</time></trkpt><trkpt lat="40.6194018" lon="9.1879618"><ele>847.0</ele><time>2026-04-21T08:12:02.031Z</time></trkpt><trkpt lat="40.6194391" lon="9.1880846"><ele>848.0</ele><time>2026-04-21T08:12:03.03Z</time></trkpt><trkpt lat="40.6194783" lon="9.1881938"><ele>849.0</ele><time>2026-04-21T08:12:04.019Z</time></trkpt><trkpt lat="40.6195267" lon="9.1882994"><ele>850.8000000000001</ele><time>2026-04-21T08:12:05.022Z</time></trkpt><trkpt lat="40.619567" lon="9.1884046"><ele>852.6</ele><time>2026-04-21T08:12:06.02Z</time></trkpt><trkpt lat="40.6196128" lon="9.1885392"><ele>854.4</ele><time>2026-04-21T08:12:07.02Z</time></trkpt><trkpt lat="40.6196566" lon="9.1886609"><ele>856.2</ele><time>2026-04-21T08:12:08.034Z</time></trkpt><trkpt lat="40.619707" lon="9.1887742"><ele>858.0</ele><time>2026-04-21T08:12:09.035Z</time></trkpt><trkpt lat="40.6197692" lon="9.1888698"><ele>858.0</ele><time>2026-04-21T08:12:10.033Z</time></trkpt><trkpt lat="40.6198425" lon="9.1889603"><ele>858.0</ele><time>2026-04-21T08:12:11.033Z</time></trkpt><trkpt lat="40.6199227" lon="9.1890401"><ele>858.0</ele><time>2026-04-21T08:12:12.021Z</time></trkpt><trkpt lat="40.6200104" lon="9.1891064"><ele>858.0</ele><time>2026-04-21T08:12:13.022Z</time></trkpt><trkpt lat="40.6200975" lon="9.1891633"><ele>858.0</ele><time>2026-04-21T08:12:14.019Z</time></trkpt><trkpt lat="40.6201769" lon="9.189224"><ele>857.6666666666666</ele><time>2026-04-21T08:12:15.016Z</time></trkpt><trkpt lat="40.6202389" lon="9.1892898"><ele>857.3333333333333</ele><time>2026-04-21T08:12:16.02Z</time></trkpt><trkpt lat="40.6202608" lon="9.1893877"><ele>857.0</ele><time>2026-04-21T08:12:17.028Z</time></trkpt><trkpt lat="40.6202377" lon="9.1894839"><ele>856.6666666666666</ele><time>2026-04-21T08:12:18.024Z</time></trkpt><trkpt lat="40.6202162" lon="9.1896121"><ele>856.3333333333333</ele><time>2026-04-21T08:12:19.021Z</time></trkpt><trkpt lat="40.6201877" lon="9.1897546"><ele>856.0</ele><time>2026-04-21T08:12:20.029Z</time></trkpt><trkpt lat="40.6201546" lon="9.1899013"><ele>856.0</ele><time>2026-04-21T08:12:21.021Z</time></trkpt><trkpt lat="40.6201274" lon="9.1900633"><ele>855.9999999999999</ele><time>2026-04-21T08:12:23.044Z</time></trkpt><trkpt lat="40.6201358" lon="9.19018"><ele>855.9999999999999</ele><time>2026-04-21T08:12:24.037Z</time></trkpt><trkpt lat="40.620166" lon="9.190323"><ele>856.0</ele><time>2026-04-21T08:12:25.024Z</time></trkpt><trkpt lat="40.6202504" lon="9.1904154"><ele>856.0</ele><time>2026-04-21T08:12:26.025Z</time></trkpt><trkpt lat="40.6203174" lon="9.1905447"><ele>858.1999999999999</ele><time>2026-04-21T08:12:27.038Z</time></trkpt><trkpt lat="40.6203681" lon="9.1906907"><ele>860.3999999999999</ele><time>2026-04-21T08:12:28.035Z</time></trkpt><trkpt lat="40.6204035" lon="9.1907884"><ele>862.6</ele><time>2026-04-21T08:12:29.047Z</time></trkpt><trkpt lat="40.6204705" lon="9.1908779"><ele>864.8</ele><time>2026-04-21T08:12:30.04Z</time></trkpt><trkpt lat="40.6205454" lon="9.1909337"><ele>867.0</ele><time>2026-04-21T08:12:31.043Z</time></trkpt><trkpt lat="40.6206314" lon="9.1909279"><ele>867.0</ele><time>2026-04-21T08:12:32.045Z</time></trkpt><trkpt lat="40.6207303" lon="9.1909234"><ele>867.0</ele><time>2026-04-21T08:12:33.026Z</time></trkpt><trkpt lat="40.620832" lon="9.1909191"><ele>867.0</ele><time>2026-04-21T08:12:34.031Z</time></trkpt><trkpt lat="40.620937" lon="9.190928"><ele>867.0</ele><time>2026-04-21T08:12:34.943Z</time></trkpt><trkpt lat="40.6210237" lon="9.1909321"><ele>867.0</ele><time>2026-04-21T08:12:35.942Z</time></trkpt><trkpt lat="40.6211078" lon="9.1909609"><ele>868.75</ele><time>2026-04-21T08:12:36.947Z</time></trkpt><trkpt lat="40.6212006" lon="9.1909993"><ele>870.5</ele><time>2026-04-21T08:12:37.942Z</time></trkpt><trkpt lat="40.6213047" lon="9.1910875"><ele>872.25</ele><time>2026-04-21T08:12:38.949Z</time></trkpt><trkpt lat="40.6214077" lon="9.1911586"><ele>874.0</ele><time>2026-04-21T08:12:39.945Z</time></trkpt><trkpt lat="40.6215093" lon="9.191224"><ele>874.0</ele><time>2026-04-21T08:12:40.947Z</time></trkpt><trkpt lat="40.621608" lon="9.1912822"><ele>874.0000000000001</ele><time>2026-04-21T08:12:41.945Z</time></trkpt><trkpt lat="40.6217015" lon="9.191344"><ele>874.0000000000001</ele><time>2026-04-21T08:12:42.948Z</time></trkpt><trkpt lat="40.6217959" lon="9.1914191"><ele>874.0</ele><time>2026-04-21T08:12:43.951Z</time></trkpt><trkpt lat="40.6218731" lon="9.1914914"><ele>874.0</ele><time>2026-04-21T08:12:44.949Z</time></trkpt><trkpt lat="40.6219476" lon="9.1915495"><ele>875.1666666666666</ele><time>2026-04-21T08:12:45.948Z</time></trkpt><trkpt lat="40.6220206" lon="9.1916035"><ele>876.3333333333333</ele><time>2026-04-21T08:12:46.959Z</time></trkpt><trkpt lat="40.6220882" lon="9.1916532"><ele>877.5</ele><time>2026-04-21T08:12:47.952Z</time></trkpt><trkpt lat="40.622135" lon="9.1917109"><ele>878.6666666666667</ele><time>2026-04-21T08:12:48.954Z</time></trkpt><trkpt lat="40.622164" lon="9.1917968"><ele>879.8333333333334</ele><time>2026-04-21T08:12:49.956Z</time></trkpt><trkpt lat="40.622182" lon="9.1919049"><ele>881.0</ele><time>2026-04-21T08:12:50.946Z</time></trkpt><trkpt lat="40.6222043" lon="9.1920192"><ele>881.0</ele><time>2026-04-21T08:12:51.95Z</time></trkpt><trkpt lat="40.6222278" lon="9.1921486"><ele>880.9999999999999</ele><time>2026-04-21T08:12:52.955Z</time></trkpt><trkpt lat="40.6222456" lon="9.1922773"><ele>880.9999999999999</ele><time>2026-04-21T08:12:53.955Z</time></trkpt><trkpt lat="40.6222562" lon="9.1924048"><ele>881.0</ele><time>2026-04-21T08:12:54.955Z</time></trkpt><trkpt lat="40.6222628" lon="9.1925213"><ele>881.0</ele><time>2026-04-21T08:12:55.958Z</time></trkpt><trkpt lat="40.6222875" lon="9.1926312"><ele>881.5999999999999</ele><time>2026-04-21T08:12:56.952Z</time></trkpt><trkpt lat="40.6223355" lon="9.1927352"><ele>882.1999999999999</ele><time>2026-04-21T08:12:57.956Z</time></trkpt><trkpt lat="40.6224073" lon="9.1928208"><ele>882.8000000000001</ele><time>2026-04-21T08:12:58.949Z</time></trkpt><trkpt lat="40.62249" lon="9.1928934"><ele>883.4000000000001</ele><time>2026-04-21T08:12:59.95Z</time></trkpt><trkpt lat="40.6225742" lon="9.1929819"><ele>884.0</ele><time>2026-04-21T08:13:00.956Z</time></trkpt><trkpt lat="40.6226374" lon="9.193088"><ele>884.2</ele><time>2026-04-21T08:13:01.952Z</time></trkpt><trkpt lat="40.622701" lon="9.1931931"><ele>884.4000000000001</ele><time>2026-04-21T08:13:02.954Z</time></trkpt><trkpt lat="40.6227604" lon="9.1933083"><ele>884.6</ele><time>2026-04-21T08:13:03.956Z</time></trkpt><trkpt lat="40.6228252" lon="9.1934389"><ele>884.8</ele><time>2026-04-21T08:13:04.952Z</time></trkpt><trkpt lat="40.6228954" lon="9.1935483"><ele>885.0</ele><time>2026-04-21T08:13:05.948Z</time></trkpt><trkpt lat="40.6229627" lon="9.1936513"><ele>886.6</ele><time>2026-04-21T08:13:06.948Z</time></trkpt><trkpt lat="40.6230212" lon="9.193763"><ele>888.2</ele><time>2026-04-21T08:13:07.956Z</time></trkpt><trkpt lat="40.6230573" lon="9.1938884"><ele>889.8</ele><time>2026-04-21T08:13:08.955Z</time></trkpt><trkpt lat="40.6231036" lon="9.194015"><ele>891.4</ele><time>2026-04-21T08:13:09.954Z</time></trkpt><trkpt lat="40.6231553" lon="9.1941456"><ele>893.0</ele><time>2026-04-21T08:13:10.952Z</time></trkpt><trkpt lat="40.6232014" lon="9.1942759"><ele>893.5</ele><time>2026-04-21T08:13:11.953Z</time></trkpt><trkpt lat="40.6232798" lon="9.1943955"><ele>894.0</ele><time>2026-04-21T08:13:12.959Z</time></trkpt><trkpt lat="40.623367" lon="9.1945156"><ele>894.5</ele><time>2026-04-21T08:13:13.96Z</time></trkpt><trkpt lat="40.623436" lon="9.1946289"><ele>895.0</ele><time>2026-04-21T08:13:14.957Z</time></trkpt><trkpt lat="40.6234995" lon="9.1947245"><ele>894.9999999999999</ele><time>2026-04-21T08:13:15.958Z</time></trkpt><trkpt lat="40.6235612" lon="9.1948184"><ele>895.0</ele><time>2026-04-21T08:13:16.965Z</time></trkpt><trkpt lat="40.6236156" lon="9.1949141"><ele>895.0</ele><time>2026-04-21T08:13:17.962Z</time></trkpt><trkpt lat="40.6236653" lon="9.1949959"><ele>895.0</ele><time>2026-04-21T08:13:18.964Z</time></trkpt><trkpt lat="40.6237218" lon="9.1950837"><ele>894.9999999999999</ele><time>2026-04-21T08:13:19.961Z</time></trkpt><trkpt lat="40.6237981" lon="9.195158"><ele>895.0</ele><time>2026-04-21T08:13:20.958Z</time></trkpt><trkpt lat="40.6238912" lon="9.1952136"><ele>895.4</ele><time>2026-04-21T08:13:21.965Z</time></trkpt><trkpt lat="40.6239825" lon="9.1952494"><ele>895.8</ele><time>2026-04-21T08:13:22.962Z</time></trkpt><trkpt lat="40.6240832" lon="9.1952778"><ele>896.2</ele><time>2026-04-21T08:13:23.963Z</time></trkpt><trkpt lat="40.6241941" lon="9.1952977"><ele>896.6</ele><time>2026-04-21T08:13:24.96Z</time></trkpt><trkpt lat="40.6243039" lon="9.1953359"><ele>897.0</ele><time>2026-04-21T08:13:25.959Z</time></trkpt><trkpt lat="40.6244082" lon="9.1953788"><ele>897.4000000000001</ele><time>2026-04-21T08:13:26.959Z</time></trkpt><trkpt lat="40.6245151" lon="9.1954161"><ele>897.8000000000001</ele><time>2026-04-21T08:13:27.966Z</time></trkpt><trkpt lat="40.6246272" lon="9.1954578"><ele>898.2</ele><time>2026-04-21T08:13:28.968Z</time></trkpt><trkpt lat="40.6247356" lon="9.1954864"><ele>898.6</ele><time>2026-04-21T08:13:29.964Z</time></trkpt><trkpt lat="40.6248365" lon="9.1955087"><ele>899.0</ele><time>2026-04-21T08:13:30.969Z</time></trkpt><trkpt lat="40.6249409" lon="9.1955362"><ele>899.0</ele><time>2026-04-21T08:13:31.964Z</time></trkpt><trkpt lat="40.6250362" lon="9.1955721"><ele>899.0000000000001</ele><time>2026-04-21T08:13:32.961Z</time></trkpt><trkpt lat="40.6251276" lon="9.1956272"><ele>899.0000000000001</ele><time>2026-04-21T08:13:33.957Z</time></trkpt><trkpt lat="40.6252043" lon="9.1957035"><ele>899.0</ele><time>2026-04-21T08:13:34.953Z</time></trkpt><trkpt lat="40.625272" lon="9.1958166"><ele>899.0</ele><time>2026-04-21T08:13:35.96Z</time></trkpt><trkpt lat="40.6253195" lon="9.1959399"><ele>899.2</ele><time>2026-04-21T08:13:36.956Z</time></trkpt><trkpt lat="40.625349" lon="9.1960767"><ele>899.4000000000001</ele><time>2026-04-21T08:13:37.958Z</time></trkpt><trkpt lat="40.6253627" lon="9.196229"><ele>899.6</ele><time>2026-04-21T08:13:38.96Z</time></trkpt><trkpt lat="40.625368" lon="9.1963626"><ele>899.8</ele><time>2026-04-21T08:13:39.963Z</time></trkpt><trkpt lat="40.6253674" lon="9.1965079"><ele>900.0</ele><time>2026-04-21T08:13:40.965Z</time></trkpt><trkpt lat="40.6253703" lon="9.1966458"><ele>899.6</ele><time>2026-04-21T08:13:41.963Z</time></trkpt><trkpt lat="40.6253777" lon="9.1967959"><ele>899.2</ele><time>2026-04-21T08:13:42.966Z</time></trkpt><trkpt lat="40.6253721" lon="9.1969262"><ele>898.8</ele><time>2026-04-21T08:13:43.966Z</time></trkpt><trkpt lat="40.62535" lon="9.1970655"><ele>898.4</ele><time>2026-04-21T08:13:44.967Z</time></trkpt><trkpt lat="40.6253146" lon="9.1972172"><ele>898.0</ele><time>2026-04-21T08:13:45.967Z</time></trkpt><trkpt lat="40.6252719" lon="9.197357"><ele>899.25</ele><time>2026-04-21T08:13:46.97Z</time></trkpt><trkpt lat="40.6252288" lon="9.1975072"><ele>900.5</ele><time>2026-04-21T08:13:47.965Z</time></trkpt><trkpt lat="40.6251712" lon="9.1976526"><ele>901.75</ele><time>2026-04-21T08:13:48.966Z</time></trkpt><trkpt lat="40.6251056" lon="9.1977978"><ele>903.0</ele><time>2026-04-21T08:13:49.968Z</time></trkpt><trkpt lat="40.6250515" lon="9.1979454"><ele>903.0</ele><time>2026-04-21T08:13:50.966Z</time></trkpt><trkpt lat="40.6249922" lon="9.1981054"><ele>903.0</ele><time>2026-04-21T08:13:51.964Z</time></trkpt><trkpt lat="40.6249385" lon="9.1982655"><ele>903.0</ele><time>2026-04-21T08:13:52.966Z</time></trkpt><trkpt lat="40.6249125" lon="9.1984216"><ele>903.0</ele><time>2026-04-21T08:13:53.959Z</time></trkpt><trkpt lat="40.6249083" lon="9.1985696"><ele>902.5999999999999</ele><time>2026-04-21T08:13:54.968Z</time></trkpt><trkpt lat="40.6249032" lon="9.1987078"><ele>902.1999999999999</ele><time>2026-04-21T08:13:55.962Z</time></trkpt><trkpt lat="40.6248738" lon="9.1988323"><ele>901.8</ele><time>2026-04-21T08:13:56.959Z</time></trkpt><trkpt lat="40.6248234" lon="9.1989636"><ele>901.4</ele><time>2026-04-21T08:13:57.955Z</time></trkpt><trkpt lat="40.6247564" lon="9.1991094"><ele>901.0</ele><time>2026-04-21T08:13:58.963Z</time></trkpt><trkpt lat="40.6246804" lon="9.199247"><ele>900.5</ele><time>2026-04-21T08:13:59.964Z</time></trkpt><trkpt lat="40.6246075" lon="9.1993957"><ele>900.0</ele><time>2026-04-21T08:14:00.97Z</time></trkpt><trkpt lat="40.6245339" lon="9.1995371"><ele>899.5</ele><time>2026-04-21T08:14:01.965Z</time></trkpt><trkpt lat="40.6244559" lon="9.1996828"><ele>899.0</ele><time>2026-04-21T08:14:02.964Z</time></trkpt><trkpt lat="40.6243595" lon="9.1998213"><ele>900.6666666666667</ele><time>2026-04-21T08:14:03.965Z</time></trkpt><trkpt lat="40.624248" lon="9.1999575"><ele>902.3333333333333</ele><time>2026-04-21T08:14:04.963Z</time></trkpt><trkpt lat="40.6241083" lon="9.2000797"><ele>904.0</ele><time>2026-04-21T08:14:05.961Z</time></trkpt><trkpt lat="40.623992" lon="9.2001825"><ele>904.0</ele><time>2026-04-21T08:14:06.965Z</time></trkpt><trkpt lat="40.6238897" lon="9.2002698"><ele>904.0</ele><time>2026-04-21T08:14:07.963Z</time></trkpt><trkpt lat="40.623783" lon="9.2003635"><ele>904.0</ele><time>2026-04-21T08:14:08.964Z</time></trkpt><trkpt lat="40.6236896" lon="9.2004518"><ele>904.0</ele><time>2026-04-21T08:14:09.963Z</time></trkpt><trkpt lat="40.623605" lon="9.2005579"><ele>903.25</ele><time>2026-04-21T08:14:10.961Z</time></trkpt><trkpt lat="40.6235544" lon="9.2006763"><ele>902.5</ele><time>2026-04-21T08:14:11.956Z</time></trkpt><trkpt lat="40.6235002" lon="9.200818"><ele>901.75</ele><time>2026-04-21T08:14:12.957Z</time></trkpt><trkpt lat="40.6234767" lon="9.2009748"><ele>901.0</ele><time>2026-04-21T08:14:13.959Z</time></trkpt><trkpt lat="40.6234658" lon="9.2011251"><ele>901.0</ele><time>2026-04-21T08:14:14.96Z</time></trkpt><trkpt lat="40.6234508" lon="9.2012819"><ele>901.0</ele><time>2026-04-21T08:14:15.964Z</time></trkpt><trkpt lat="40.6234222" lon="9.2014336"><ele>901.0</ele><time>2026-04-21T08:14:16.965Z</time></trkpt><trkpt lat="40.6233778" lon="9.2015944"><ele>901.0</ele><time>2026-04-21T08:14:17.962Z</time></trkpt><trkpt lat="40.623324" lon="9.2017579"><ele>901.25</ele><time>2026-04-21T08:14:18.962Z</time></trkpt><trkpt lat="40.6232618" lon="9.2019061"><ele>901.5</ele><time>2026-04-21T08:14:19.958Z</time></trkpt><trkpt lat="40.623174" lon="9.2020401"><ele>901.75</ele><time>2026-04-21T08:14:20.957Z</time></trkpt><trkpt lat="40.6230755" lon="9.2021692"><ele>902.0</ele><time>2026-04-21T08:14:21.964Z</time></trkpt><trkpt lat="40.622964" lon="9.2022969"><ele>903.0</ele><time>2026-04-21T08:14:22.965Z</time></trkpt><trkpt lat="40.6228781" lon="9.2024266"><ele>904.0</ele><time>2026-04-21T08:14:23.963Z</time></trkpt><trkpt lat="40.6228269" lon="9.202578"><ele>905.0</ele><time>2026-04-21T08:14:24.965Z</time></trkpt><trkpt lat="40.6227699" lon="9.2027212"><ele>906.0</ele><time>2026-04-21T08:14:25.964Z</time></trkpt><trkpt lat="40.6227223" lon="9.2028515"><ele>906.5</ele><time>2026-04-21T08:14:26.961Z</time></trkpt><trkpt lat="40.6226826" lon="9.2030072"><ele>907.0</ele><time>2026-04-21T08:14:27.963Z</time></trkpt><trkpt lat="40.6226465" lon="9.2031564"><ele>907.5</ele><time>2026-04-21T08:14:28.963Z</time></trkpt><trkpt lat="40.6226184" lon="9.2033155"><ele>908.0</ele><time>2026-04-21T08:14:29.964Z</time></trkpt><trkpt lat="40.622595" lon="9.2034677"><ele>909.25</ele><time>2026-04-21T08:14:30.967Z</time></trkpt><trkpt lat="40.6225756" lon="9.2036119"><ele>910.5</ele><time>2026-04-21T08:14:31.958Z</time></trkpt><trkpt lat="40.6225627" lon="9.2037585"><ele>911.75</ele><time>2026-04-21T08:14:32.968Z</time></trkpt><trkpt lat="40.6225467" lon="9.2039144"><ele>913.0</ele><time>2026-04-21T08:14:33.964Z</time></trkpt><trkpt lat="40.6225546" lon="9.2040906"><ele>913.5</ele><time>2026-04-21T08:14:34.962Z</time></trkpt><trkpt lat="40.6225701" lon="9.2042717"><ele>914.0</ele><time>2026-04-21T08:14:35.96Z</time></trkpt><trkpt lat="40.6226053" lon="9.2044517"><ele>914.5</ele><time>2026-04-21T08:14:36.965Z</time></trkpt><trkpt lat="40.622633" lon="9.2046382"><ele>915.0</ele><time>2026-04-21T08:14:37.965Z</time></trkpt><trkpt lat="40.6226693" lon="9.2048137"><ele>914.5</ele><time>2026-04-21T08:14:38.966Z</time></trkpt><trkpt lat="40.622693" lon="9.2049962"><ele>914.0</ele><time>2026-04-21T08:14:39.964Z</time></trkpt><trkpt lat="40.6227041" lon="9.2051797"><ele>913.5</ele><time>2026-04-21T08:14:40.97Z</time></trkpt><trkpt lat="40.6226916" lon="9.2053681"><ele>913.0</ele><time>2026-04-21T08:14:41.964Z</time></trkpt><trkpt lat="40.6226812" lon="9.2055567"><ele>913.75</ele><time>2026-04-21T08:14:42.97Z</time></trkpt><trkpt lat="40.6226789" lon="9.2057322"><ele>914.5</ele><time>2026-04-21T08:14:43.97Z</time></trkpt><trkpt lat="40.6227002" lon="9.205884"><ele>915.25</ele><time>2026-04-21T08:14:44.968Z</time></trkpt><trkpt lat="40.6226937" lon="9.2060409"><ele>916.0</ele><time>2026-04-21T08:14:45.968Z</time></trkpt><trkpt lat="40.6226769" lon="9.2062095"><ele>916.0</ele><time>2026-04-21T08:14:46.969Z</time></trkpt><trkpt lat="40.6226661" lon="9.2063773"><ele>916.0</ele><time>2026-04-21T08:14:47.964Z</time></trkpt><trkpt lat="40.6226451" lon="9.2065477"><ele>916.0</ele><time>2026-04-21T08:14:48.969Z</time></trkpt><trkpt lat="40.6226246" lon="9.2067285"><ele>916.0</ele><time>2026-04-21T08:14:49.966Z</time></trkpt><trkpt lat="40.6225854" lon="9.2068969"><ele>916.0</ele><time>2026-04-21T08:14:50.966Z</time></trkpt><trkpt lat="40.6225387" lon="9.2070704"><ele>916.0</ele><time>2026-04-21T08:14:51.965Z</time></trkpt><trkpt lat="40.6224884" lon="9.20725"><ele>916.0</ele><time>2026-04-21T08:14:52.971Z</time></trkpt><trkpt lat="40.6224558" lon="9.2074235"><ele>916.0</ele><time>2026-04-21T08:14:53.969Z</time></trkpt><trkpt lat="40.6223993" lon="9.2076074"><ele>917.0</ele><time>2026-04-21T08:14:54.967Z</time></trkpt><trkpt lat="40.6223418" lon="9.207779"><ele>918.0</ele><time>2026-04-21T08:14:55.966Z</time></trkpt><trkpt lat="40.6222874" lon="9.2079584"><ele>919.0</ele><time>2026-04-21T08:14:56.96Z</time></trkpt><trkpt lat="40.6222128" lon="9.2081069"><ele>920.0</ele><time>2026-04-21T08:14:57.962Z</time></trkpt><trkpt lat="40.6221316" lon="9.208232"><ele>920.2</ele><time>2026-04-21T08:14:58.963Z</time></trkpt><trkpt lat="40.622054" lon="9.2083417"><ele>920.4</ele><time>2026-04-21T08:14:59.961Z</time></trkpt><trkpt lat="40.6219803" lon="9.2084416"><ele>920.5999999999999</ele><time>2026-04-21T08:15:00.954Z</time></trkpt><trkpt lat="40.62192" lon="9.2085492"><ele>920.8</ele><time>2026-04-21T08:15:02.953Z</time></trkpt><trkpt lat="40.6219674" lon="9.2086237"><ele>921.0</ele><time>2026-04-21T08:15:07.961Z</time></trkpt><trkpt lat="40.622069" lon="9.208649"><ele>921.5999999999999</ele><time>2026-04-21T08:15:09.96Z</time></trkpt><trkpt lat="40.6221459" lon="9.2086702"><ele>922.1999999999999</ele><time>2026-04-21T08:15:10.964Z</time></trkpt><trkpt lat="40.622236" lon="9.208697"><ele>922.8000000000001</ele><time>2026-04-21T08:15:11.957Z</time></trkpt><trkpt lat="40.6223419" lon="9.2087357"><ele>923.4000000000001</ele><time>2026-04-21T08:15:12.962Z</time></trkpt><trkpt lat="40.6224402" lon="9.2087805"><ele>924.0</ele><time>2026-04-21T08:15:13.96Z</time></trkpt><trkpt lat="40.6225271" lon="9.2088137"><ele>924.0</ele><time>2026-04-21T08:15:14.957Z</time></trkpt><trkpt lat="40.6226171" lon="9.208871"><ele>924.0000000000001</ele><time>2026-04-21T08:15:15.965Z</time></trkpt><trkpt lat="40.6226977" lon="9.2089329"><ele>924.0000000000001</ele><time>2026-04-21T08:15:16.966Z</time></trkpt><trkpt lat="40.6227717" lon="9.2090242"><ele>924.0</ele><time>2026-04-21T08:15:17.957Z</time></trkpt><trkpt lat="40.6228578" lon="9.2091004"><ele>924.0</ele><time>2026-04-21T08:15:18.965Z</time></trkpt><trkpt lat="40.6229422" lon="9.2091607"><ele>923.4000000000001</ele><time>2026-04-21T08:15:19.958Z</time></trkpt><trkpt lat="40.6230392" lon="9.2092048"><ele>922.8000000000001</ele><time>2026-04-21T08:15:20.958Z</time></trkpt><trkpt lat="40.6231422" lon="9.2092408"><ele>922.1999999999999</ele><time>2026-04-21T08:15:21.956Z</time></trkpt><trkpt lat="40.6232421" lon="9.2092692"><ele>921.5999999999999</ele><time>2026-04-21T08:15:22.957Z</time></trkpt><trkpt lat="40.6233378" lon="9.2092789"><ele>921.0</ele><time>2026-04-21T08:15:23.955Z</time></trkpt><trkpt lat="40.6234368" lon="9.2092663"><ele>921.0</ele><time>2026-04-21T08:15:24.95Z</time></trkpt><trkpt lat="40.6235421" lon="9.20923"><ele>921.0</ele><time>2026-04-21T08:15:25.957Z</time></trkpt><trkpt lat="40.6236461" lon="9.2091808"><ele>921.0</ele><time>2026-04-21T08:15:26.957Z</time></trkpt><trkpt lat="40.6237593" lon="9.2091194"><ele>921.0</ele><time>2026-04-21T08:15:27.963Z</time></trkpt><trkpt lat="40.6238714" lon="9.2090525"><ele>919.0</ele><time>2026-04-21T08:15:28.956Z</time></trkpt><trkpt lat="40.6239813" lon="9.2089872"><ele>917.0</ele><time>2026-04-21T08:15:29.961Z</time></trkpt><trkpt lat="40.6240956" lon="9.2089149"><ele>915.0</ele><time>2026-04-21T08:15:30.96Z</time></trkpt><trkpt lat="40.6242059" lon="9.2088388"><ele>913.0</ele><time>2026-04-21T08:15:31.961Z</time></trkpt><trkpt lat="40.6243108" lon="9.2087543"><ele>913.0</ele><time>2026-04-21T08:15:32.96Z</time></trkpt><trkpt lat="40.6244083" lon="9.20865"><ele>913.0</ele><time>2026-04-21T08:15:33.966Z</time></trkpt><trkpt lat="40.6245084" lon="9.2085517"><ele>913.0</ele><time>2026-04-21T08:15:34.964Z</time></trkpt><trkpt lat="40.6246126" lon="9.2084613"><ele>913.0</ele><time>2026-04-21T08:15:35.963Z</time></trkpt><trkpt lat="40.6247236" lon="9.208378"><ele>913.0</ele><time>2026-04-21T08:15:36.957Z</time></trkpt><trkpt lat="40.6248388" lon="9.2082854"><ele>913.0</ele><time>2026-04-21T08:15:37.956Z</time></trkpt><trkpt lat="40.6249581" lon="9.2081998"><ele>913.0</ele><time>2026-04-21T08:15:38.959Z</time></trkpt><trkpt lat="40.6250819" lon="9.2081263"><ele>913.0</ele><time>2026-04-21T08:15:39.95Z</time></trkpt><trkpt lat="40.6251968" lon="9.2080807"><ele>912.9999999999999</ele><time>2026-04-21T08:15:40.952Z</time></trkpt><trkpt lat="40.6252903" lon="9.2080431"><ele>913.0</ele><time>2026-04-21T08:15:41.957Z</time></trkpt><trkpt lat="40.6253768" lon="9.208022"><ele>913.0</ele><time>2026-04-21T08:15:42.955Z</time></trkpt><trkpt lat="40.6254587" lon="9.2080062"><ele>913.0</ele><time>2026-04-21T08:15:43.964Z</time></trkpt><trkpt lat="40.625542" lon="9.2079964"><ele>912.9999999999999</ele><time>2026-04-21T08:15:44.959Z</time></trkpt><trkpt lat="40.6256386" lon="9.207996"><ele>913.0</ele><time>2026-04-21T08:15:45.956Z</time></trkpt><trkpt lat="40.6257445" lon="9.2080148"><ele>912.5</ele><time>2026-04-21T08:15:46.96Z</time></trkpt><trkpt lat="40.6258391" lon="9.2080614"><ele>912.0</ele><time>2026-04-21T08:15:47.959Z</time></trkpt><trkpt lat="40.6259394" lon="9.2081307"><ele>911.5</ele><time>2026-04-21T08:15:48.956Z</time></trkpt><trkpt lat="40.6260376" lon="9.2082084"><ele>911.0</ele><time>2026-04-21T08:15:49.959Z</time></trkpt><trkpt lat="40.6261448" lon="9.2082955"><ele>911.0</ele><time>2026-04-21T08:15:50.958Z</time></trkpt><trkpt lat="40.6262548" lon="9.2083926"><ele>911.0</ele><time>2026-04-21T08:15:51.961Z</time></trkpt><trkpt lat="40.626361" lon="9.2084917"><ele>911.0</ele><time>2026-04-21T08:15:52.959Z</time></trkpt><trkpt lat="40.6264596" lon="9.2086048"><ele>911.0</ele><time>2026-04-21T08:15:53.955Z</time></trkpt><trkpt lat="40.6265581" lon="9.2087276"><ele>911.0</ele><time>2026-04-21T08:15:54.957Z</time></trkpt><trkpt lat="40.6266591" lon="9.2088583"><ele>911.0</ele><time>2026-04-21T08:15:55.957Z</time></trkpt><trkpt lat="40.6267594" lon="9.2089869"><ele>911.0</ele><time>2026-04-21T08:15:56.96Z</time></trkpt><trkpt lat="40.626862" lon="9.2091189"><ele>911.0</ele><time>2026-04-21T08:15:57.957Z</time></trkpt><trkpt lat="40.6269632" lon="9.2092577"><ele>913.0</ele><time>2026-04-21T08:15:58.96Z</time></trkpt><trkpt lat="40.6270476" lon="9.2093845"><ele>915.0</ele><time>2026-04-21T08:15:59.955Z</time></trkpt><trkpt lat="40.62714" lon="9.2095177"><ele>917.0</ele><time>2026-04-21T08:16:00.964Z</time></trkpt><trkpt lat="40.6272375" lon="9.209638"><ele>919.0</ele><time>2026-04-21T08:16:01.961Z</time></trkpt><trkpt lat="40.6273383" lon="9.2097636"><ele>920.0</ele><time>2026-04-21T08:16:02.96Z</time></trkpt><trkpt lat="40.6274395" lon="9.2099011"><ele>921.0</ele><time>2026-04-21T08:16:03.959Z</time></trkpt><trkpt lat="40.6275325" lon="9.2100402"><ele>922.0</ele><time>2026-04-21T08:16:04.955Z</time></trkpt><trkpt lat="40.6276251" lon="9.2101898"><ele>923.0</ele><time>2026-04-21T08:16:05.951Z</time></trkpt><trkpt lat="40.6277072" lon="9.2103488"><ele>923.0</ele><time>2026-04-21T08:16:06.956Z</time></trkpt><trkpt lat="40.6277802" lon="9.2105226"><ele>923.0</ele><time>2026-04-21T08:16:07.948Z</time></trkpt><trkpt lat="40.6278358" lon="9.2107053"><ele>923.0</ele><time>2026-04-21T08:16:08.955Z</time></trkpt><trkpt lat="40.62789" lon="9.2108815"><ele>923.0</ele><time>2026-04-21T08:16:09.955Z</time></trkpt><trkpt lat="40.6279437" lon="9.2110311"><ele>923.25</ele><time>2026-04-21T08:16:10.949Z</time></trkpt><trkpt lat="40.6279999" lon="9.2111684"><ele>923.5</ele><time>2026-04-21T08:16:11.953Z</time></trkpt><trkpt lat="40.628063" lon="9.2113047"><ele>923.75</ele><time>2026-04-21T08:16:12.958Z</time></trkpt><trkpt lat="40.6281309" lon="9.2114193"><ele>924.0</ele><time>2026-04-21T08:16:13.956Z</time></trkpt><trkpt lat="40.6282151" lon="9.2115425"><ele>925.0</ele><time>2026-04-21T08:16:14.96Z</time></trkpt><trkpt lat="40.6283177" lon="9.2116451"><ele>926.0</ele><time>2026-04-21T08:16:15.95Z</time></trkpt><trkpt lat="40.6284293" lon="9.2117257"><ele>927.0</ele><time>2026-04-21T08:16:16.96Z</time></trkpt><trkpt lat="40.628544" lon="9.2117968"><ele>928.0</ele><time>2026-04-21T08:16:17.958Z</time></trkpt><trkpt lat="40.6286609" lon="9.2118791"><ele>926.0</ele><time>2026-04-21T08:16:18.959Z</time></trkpt><trkpt lat="40.6287676" lon="9.2119768"><ele>924.0</ele><time>2026-04-21T08:16:19.957Z</time></trkpt><trkpt lat="40.6288888" lon="9.2120606"><ele>922.0</ele><time>2026-04-21T08:16:20.962Z</time></trkpt><trkpt lat="40.6290077" lon="9.2121371"><ele>920.0</ele><time>2026-04-21T08:16:21.959Z</time></trkpt><trkpt lat="40.6291316" lon="9.2122027"><ele>920.0</ele><time>2026-04-21T08:16:22.962Z</time></trkpt><trkpt lat="40.629258" lon="9.2122712"><ele>920.0</ele><time>2026-04-21T08:16:23.961Z</time></trkpt><trkpt lat="40.6293592" lon="9.2123223"><ele>920.0</ele><time>2026-04-21T08:16:24.964Z</time></trkpt><trkpt lat="40.6294648" lon="9.2123475"><ele>920.0</ele><time>2026-04-21T08:16:25.964Z</time></trkpt><trkpt lat="40.6295531" lon="9.2123526"><ele>920.0</ele><time>2026-04-21T08:16:26.961Z</time></trkpt><trkpt lat="40.62964" lon="9.2123386"><ele>918.8333333333334</ele><time>2026-04-21T08:16:27.961Z</time></trkpt><trkpt lat="40.6297204" lon="9.2123223"><ele>917.6666666666667</ele><time>2026-04-21T08:16:28.965Z</time></trkpt><trkpt lat="40.6297962" lon="9.2123216"><ele>916.5</ele><time>2026-04-21T08:16:29.963Z</time></trkpt><trkpt lat="40.6298801" lon="9.2123247"><ele>915.3333333333333</ele><time>2026-04-21T08:16:30.961Z</time></trkpt><trkpt lat="40.6299583" lon="9.2123428"><ele>914.1666666666666</ele><time>2026-04-21T08:16:31.957Z</time></trkpt><trkpt lat="40.630042" lon="9.2123753"><ele>913.0</ele><time>2026-04-21T08:16:32.955Z</time></trkpt><trkpt lat="40.6301211" lon="9.2124166"><ele>913.5999999999999</ele><time>2026-04-21T08:16:33.956Z</time></trkpt><trkpt lat="40.6302047" lon="9.2124576"><ele>914.1999999999999</ele><time>2026-04-21T08:16:34.958Z</time></trkpt><trkpt lat="40.6302902" lon="9.2124947"><ele>914.8</ele><time>2026-04-21T08:16:35.956Z</time></trkpt><trkpt lat="40.6303759" lon="9.2125386"><ele>915.4</ele><time>2026-04-21T08:16:36.957Z</time></trkpt><trkpt lat="40.6304645" lon="9.2125856"><ele>916.0</ele><time>2026-04-21T08:16:37.955Z</time></trkpt><trkpt lat="40.6305438" lon="9.2126333"><ele>915.9999999999999</ele><time>2026-04-21T08:16:38.955Z</time></trkpt><trkpt lat="40.6306203" lon="9.2126685"><ele>916.0</ele><time>2026-04-21T08:16:39.954Z</time></trkpt><trkpt lat="40.6306957" lon="9.2127081"><ele>916.0</ele><time>2026-04-21T08:16:40.955Z</time></trkpt><trkpt lat="40.6307782" lon="9.2127489"><ele>916.0</ele><time>2026-04-21T08:16:41.952Z</time></trkpt><trkpt lat="40.6308626" lon="9.2127789"><ele>915.9999999999999</ele><time>2026-04-21T08:16:42.959Z</time></trkpt><trkpt lat="40.6309443" lon="9.2128027"><ele>916.0</ele><time>2026-04-21T08:16:43.958Z</time></trkpt><trkpt lat="40.6310237" lon="9.2128429"><ele>916.0</ele><time>2026-04-21T08:16:44.957Z</time></trkpt><trkpt lat="40.6310997" lon="9.2128896"><ele>915.9999999999999</ele><time>2026-04-21T08:16:45.959Z</time></trkpt><trkpt lat="40.6311676" lon="9.2129543"><ele>915.9999999999999</ele><time>2026-04-21T08:16:46.959Z</time></trkpt><trkpt lat="40.6312322" lon="9.21303"><ele>916.0</ele><time>2026-04-21T08:16:47.954Z</time></trkpt><trkpt lat="40.6312994" lon="9.2131204"><ele>916.0</ele><time>2026-04-21T08:16:48.958Z</time></trkpt><trkpt lat="40.6313656" lon="9.2132208"><ele>915.1999999999999</ele><time>2026-04-21T08:16:49.956Z</time></trkpt><trkpt lat="40.6314223" lon="9.2133161"><ele>914.3999999999999</ele><time>2026-04-21T08:16:50.953Z</time></trkpt><trkpt lat="40.6314753" lon="9.2134084"><ele>913.6</ele><time>2026-04-21T08:16:51.955Z</time></trkpt><trkpt lat="40.631527" lon="9.213509"><ele>912.8</ele><time>2026-04-21T08:16:52.957Z</time></trkpt><trkpt lat="40.6315716" lon="9.2136093"><ele>912.0</ele><time>2026-04-21T08:16:53.954Z</time></trkpt><trkpt lat="40.6316092" lon="9.2137332"><ele>912.0</ele><time>2026-04-21T08:16:54.958Z</time></trkpt><trkpt lat="40.6316308" lon="9.213862"><ele>912.0</ele><time>2026-04-21T08:16:55.957Z</time></trkpt><trkpt lat="40.6316419" lon="9.213996"><ele>912.0</ele><time>2026-04-21T08:16:56.958Z</time></trkpt><trkpt lat="40.6316422" lon="9.2141247"><ele>912.0</ele><time>2026-04-21T08:16:57.96Z</time></trkpt><trkpt lat="40.6316363" lon="9.2142537"><ele>912.0</ele><time>2026-04-21T08:16:58.955Z</time></trkpt><trkpt lat="40.6316264" lon="9.214376"><ele>912.2</ele><time>2026-04-21T08:16:59.956Z</time></trkpt><trkpt lat="40.6316196" lon="9.2145066"><ele>912.4000000000001</ele><time>2026-04-21T08:17:00.957Z</time></trkpt><trkpt lat="40.6316165" lon="9.2146365"><ele>912.5999999999999</ele><time>2026-04-21T08:17:01.952Z</time></trkpt><trkpt lat="40.6316071" lon="9.2147751"><ele>912.8</ele><time>2026-04-21T08:17:02.954Z</time></trkpt><trkpt lat="40.6315957" lon="9.2149081"><ele>913.0</ele><time>2026-04-21T08:17:03.953Z</time></trkpt><trkpt lat="40.6315762" lon="9.2150507"><ele>913.0</ele><time>2026-04-21T08:17:04.957Z</time></trkpt><trkpt lat="40.6315571" lon="9.2151764"><ele>913.0</ele><time>2026-04-21T08:17:05.957Z</time></trkpt><trkpt lat="40.6315258" lon="9.2152909"><ele>913.0</ele><time>2026-04-21T08:17:06.957Z</time></trkpt><trkpt lat="40.631481" lon="9.2154034"><ele>913.0</ele><time>2026-04-21T08:17:07.957Z</time></trkpt><trkpt lat="40.6314386" lon="9.2155194"><ele>913.0</ele><time>2026-04-21T08:17:08.956Z</time></trkpt><trkpt lat="40.6314003" lon="9.2156329"><ele>911.2</ele><time>2026-04-21T08:17:09.958Z</time></trkpt><trkpt lat="40.6313658" lon="9.2157459"><ele>909.4</ele><time>2026-04-21T08:17:10.957Z</time></trkpt><trkpt lat="40.6313455" lon="9.2158711"><ele>907.6000000000001</ele><time>2026-04-21T08:17:11.955Z</time></trkpt><trkpt lat="40.6313325" lon="9.2160066"><ele>905.8000000000001</ele><time>2026-04-21T08:17:12.955Z</time></trkpt><trkpt lat="40.631319" lon="9.2161448"><ele>904.0</ele><time>2026-04-21T08:17:13.955Z</time></trkpt><trkpt lat="40.631327" lon="9.2162919"><ele>904.0</ele><time>2026-04-21T08:17:14.958Z</time></trkpt><trkpt lat="40.6313412" lon="9.2164238"><ele>904.0000000000001</ele><time>2026-04-21T08:17:15.957Z</time></trkpt><trkpt lat="40.6313529" lon="9.216566"><ele>904.0000000000001</ele><time>2026-04-21T08:17:16.959Z</time></trkpt><trkpt lat="40.6313615" lon="9.2166996"><ele>904.0</ele><time>2026-04-21T08:17:17.955Z</time></trkpt><trkpt lat="40.6313586" lon="9.216838"><ele>904.0</ele><time>2026-04-21T08:17:18.954Z</time></trkpt><trkpt lat="40.6313604" lon="9.2169785"><ele>903.6</ele><time>2026-04-21T08:17:19.954Z</time></trkpt><trkpt lat="40.6313769" lon="9.2171231"><ele>903.2</ele><time>2026-04-21T08:17:20.955Z</time></trkpt><trkpt lat="40.6314024" lon="9.2172593"><ele>902.8000000000001</ele><time>2026-04-21T08:17:21.952Z</time></trkpt><trkpt lat="40.6314328" lon="9.2173935"><ele>902.4000000000001</ele><time>2026-04-21T08:17:22.96Z</time></trkpt><trkpt lat="40.6314636" lon="9.2175311"><ele>902.0</ele><time>2026-04-21T08:17:23.954Z</time></trkpt><trkpt lat="40.6314975" lon="9.2176783"><ele>901.0</ele><time>2026-04-21T08:17:24.952Z</time></trkpt><trkpt lat="40.631523" lon="9.2178338"><ele>900.0</ele><time>2026-04-21T08:17:25.95Z</time></trkpt><trkpt lat="40.6315411" lon="9.2179773"><ele>899.0</ele><time>2026-04-21T08:17:26.953Z</time></trkpt><trkpt lat="40.6315611" lon="9.2181236"><ele>898.0</ele><time>2026-04-21T08:17:27.953Z</time></trkpt><trkpt lat="40.6315776" lon="9.2182623"><ele>897.8</ele><time>2026-04-21T08:17:28.952Z</time></trkpt><trkpt lat="40.6316016" lon="9.2184024"><ele>897.5999999999999</ele><time>2026-04-21T08:17:29.952Z</time></trkpt><trkpt lat="40.631634" lon="9.2185435"><ele>897.4000000000001</ele><time>2026-04-21T08:17:30.955Z</time></trkpt><trkpt lat="40.6316698" lon="9.2186903"><ele>897.2</ele><time>2026-04-21T08:17:31.954Z</time></trkpt><trkpt lat="40.6317052" lon="9.2188252"><ele>897.0</ele><time>2026-04-21T08:17:32.953Z</time></trkpt><trkpt lat="40.631751" lon="9.2189592"><ele>897.0</ele><time>2026-04-21T08:17:33.955Z</time></trkpt><trkpt lat="40.6317979" lon="9.2191056"><ele>897.0</ele><time>2026-04-21T08:17:34.954Z</time></trkpt><trkpt lat="40.6318451" lon="9.2192516"><ele>897.0</ele><time>2026-04-21T08:17:35.954Z</time></trkpt><trkpt lat="40.6318812" lon="9.2193924"><ele>897.0</ele><time>2026-04-21T08:17:36.955Z</time></trkpt><trkpt lat="40.6319097" lon="9.2195256"><ele>897.0</ele><time>2026-04-21T08:17:37.954Z</time></trkpt><trkpt lat="40.6319452" lon="9.2196584"><ele>897.0</ele><time>2026-04-21T08:17:38.954Z</time></trkpt><trkpt lat="40.6319722" lon="9.2198043"><ele>897.0</ele><time>2026-04-21T08:17:39.966Z</time></trkpt><trkpt lat="40.6319837" lon="9.2199486"><ele>897.0</ele><time>2026-04-21T08:17:40.962Z</time></trkpt><trkpt lat="40.6319862" lon="9.2200882"><ele>897.0</ele><time>2026-04-21T08:17:41.961Z</time></trkpt><trkpt lat="40.6319848" lon="9.2202264"><ele>897.2</ele><time>2026-04-21T08:17:42.963Z</time></trkpt><trkpt lat="40.6319746" lon="9.2203649"><ele>897.4000000000001</ele><time>2026-04-21T08:17:43.963Z</time></trkpt><trkpt lat="40.6319514" lon="9.2205034"><ele>897.5999999999999</ele><time>2026-04-21T08:17:44.963Z</time></trkpt><trkpt lat="40.6319159" lon="9.2206377"><ele>897.8</ele><time>2026-04-21T08:17:45.963Z</time></trkpt><trkpt lat="40.6318717" lon="9.2207595"><ele>898.0</ele><time>2026-04-21T08:17:46.966Z</time></trkpt><trkpt lat="40.631826" lon="9.2208694"><ele>896.4</ele><time>2026-04-21T08:17:47.962Z</time></trkpt><trkpt lat="40.6317946" lon="9.220978"><ele>894.8</ele><time>2026-04-21T08:17:48.961Z</time></trkpt><trkpt lat="40.6317641" lon="9.2210956"><ele>893.2</ele><time>2026-04-21T08:17:49.963Z</time></trkpt><trkpt lat="40.6317416" lon="9.2212128"><ele>891.6</ele><time>2026-04-21T08:17:50.956Z</time></trkpt><trkpt lat="40.6317224" lon="9.2213281"><ele>890.0</ele><time>2026-04-21T08:17:51.954Z</time></trkpt><trkpt lat="40.6317064" lon="9.2214475"><ele>889.0000000000001</ele><time>2026-04-21T08:17:52.956Z</time></trkpt><trkpt lat="40.631696" lon="9.2215579"><ele>888.0</ele><time>2026-04-21T08:17:53.953Z</time></trkpt><trkpt lat="40.6316861" lon="9.2216527"><ele>887.0</ele><time>2026-04-21T08:17:54.954Z</time></trkpt><trkpt lat="40.6316769" lon="9.2217399"><ele>886.0</ele><time>2026-04-21T08:17:55.947Z</time></trkpt><trkpt lat="40.6316981" lon="9.2218448"><ele>885.0000000000001</ele><time>2026-04-21T08:17:57.949Z</time></trkpt><trkpt lat="40.6317827" lon="9.2219089"><ele>884.0</ele><time>2026-04-21T08:17:59.95Z</time></trkpt><trkpt lat="40.6318662" lon="9.2219095"><ele>884.0</ele><time>2026-04-21T08:18:01.959Z</time></trkpt><trkpt lat="40.6319612" lon="9.2217912"><ele>884.0000000000001</ele><time>2026-04-21T08:18:03.95Z</time></trkpt><trkpt lat="40.6320298" lon="9.2217224"><ele>884.0000000000001</ele><time>2026-04-21T08:18:04.951Z</time></trkpt><trkpt lat="40.6321178" lon="9.2216759"><ele>884.0</ele><time>2026-04-21T08:18:05.951Z</time></trkpt><trkpt lat="40.6322136" lon="9.2216314"><ele>884.0</ele><time>2026-04-21T08:18:06.957Z</time></trkpt><trkpt lat="40.6323104" lon="9.2215829"><ele>884.5</ele><time>2026-04-21T08:18:07.959Z</time></trkpt><trkpt lat="40.6324137" lon="9.2215295"><ele>885.0</ele><time>2026-04-21T08:18:08.953Z</time></trkpt><trkpt lat="40.6325212" lon="9.2214938"><ele>885.5</ele><time>2026-04-21T08:18:09.958Z</time></trkpt><trkpt lat="40.6326325" lon="9.2214452"><ele>886.0</ele><time>2026-04-21T08:18:10.956Z</time></trkpt><trkpt lat="40.6327462" lon="9.2213989"><ele>884.75</ele><time>2026-04-21T08:18:11.956Z</time></trkpt><trkpt lat="40.6328598" lon="9.2213543"><ele>883.5</ele><time>2026-04-21T08:18:12.957Z</time></trkpt><trkpt lat="40.6329616" lon="9.2213052"><ele>882.25</ele><time>2026-04-21T08:18:13.96Z</time></trkpt><trkpt lat="40.633067" lon="9.2212439"><ele>881.0</ele><time>2026-04-21T08:18:14.96Z</time></trkpt><trkpt lat="40.6331758" lon="9.2211933"><ele>881.0</ele><time>2026-04-21T08:18:15.957Z</time></trkpt><trkpt lat="40.6332947" lon="9.2211628"><ele>880.9999999999999</ele><time>2026-04-21T08:18:16.957Z</time></trkpt><trkpt lat="40.6334061" lon="9.2211407"><ele>880.9999999999999</ele><time>2026-04-21T08:18:17.957Z</time></trkpt><trkpt lat="40.6334991" lon="9.2211355"><ele>881.0</ele><time>2026-04-21T08:18:18.952Z</time></trkpt><trkpt lat="40.633596" lon="9.2211312"><ele>881.0</ele><time>2026-04-21T08:18:19.953Z</time></trkpt><trkpt lat="40.6336871" lon="9.2211352"><ele>880.4</ele><time>2026-04-21T08:18:20.954Z</time></trkpt><trkpt lat="40.6337828" lon="9.2211425"><ele>879.8</ele><time>2026-04-21T08:18:21.951Z</time></trkpt><trkpt lat="40.6338957" lon="9.2211531"><ele>879.1999999999999</ele><time>2026-04-21T08:18:22.954Z</time></trkpt><trkpt lat="40.6339989" lon="9.221172"><ele>878.5999999999999</ele><time>2026-04-21T08:18:23.952Z</time></trkpt><trkpt lat="40.6341112" lon="9.2211833"><ele>878.0</ele><time>2026-04-21T08:18:24.951Z</time></trkpt><trkpt lat="40.6342132" lon="9.2212015"><ele>878.0</ele><time>2026-04-21T08:18:25.951Z</time></trkpt><trkpt lat="40.6343178" lon="9.2212152"><ele>878.0</ele><time>2026-04-21T08:18:26.951Z</time></trkpt><trkpt lat="40.6344199" lon="9.2212233"><ele>878.0</ele><time>2026-04-21T08:18:27.953Z</time></trkpt><trkpt lat="40.6345232" lon="9.2212315"><ele>878.0</ele><time>2026-04-21T08:18:28.949Z</time></trkpt><trkpt lat="40.6346308" lon="9.2212487"><ele>878.0</ele><time>2026-04-21T08:18:29.951Z</time></trkpt><trkpt lat="40.6347318" lon="9.2212774"><ele>876.0</ele><time>2026-04-21T08:18:30.954Z</time></trkpt><trkpt lat="40.6348392" lon="9.2213272"><ele>874.0</ele><time>2026-04-21T08:18:31.951Z</time></trkpt><trkpt lat="40.6349575" lon="9.2213919"><ele>872.0</ele><time>2026-04-21T08:18:32.953Z</time></trkpt><trkpt lat="40.6350689" lon="9.221471"><ele>870.0</ele><time>2026-04-21T08:18:33.954Z</time></trkpt><trkpt lat="40.6351738" lon="9.2215475"><ele>870.0</ele><time>2026-04-21T08:18:34.957Z</time></trkpt><trkpt lat="40.6352679" lon="9.2216282"><ele>870.0</ele><time>2026-04-21T08:18:35.949Z</time></trkpt><trkpt lat="40.6353637" lon="9.221721"><ele>870.0</ele><time>2026-04-21T08:18:36.954Z</time></trkpt><trkpt lat="40.6354659" lon="9.2218071"><ele>870.0</ele><time>2026-04-21T08:18:37.952Z</time></trkpt><trkpt lat="40.6355732" lon="9.2218858"><ele>867.4</ele><time>2026-04-21T08:18:38.953Z</time></trkpt><trkpt lat="40.6356689" lon="9.2219646"><ele>864.8</ele><time>2026-04-21T08:18:39.949Z</time></trkpt><trkpt lat="40.635755" lon="9.2220406"><ele>862.2</ele><time>2026-04-21T08:18:40.951Z</time></trkpt><trkpt lat="40.6358481" lon="9.2221037"><ele>859.6</ele><time>2026-04-21T08:18:41.951Z</time></trkpt><trkpt lat="40.6359387" lon="9.22217"><ele>857.0</ele><time>2026-04-21T08:18:42.956Z</time></trkpt><trkpt lat="40.6360257" lon="9.2222362"><ele>857.0</ele><time>2026-04-21T08:18:43.952Z</time></trkpt><trkpt lat="40.6361161" lon="9.222288"><ele>857.0</ele><time>2026-04-21T08:18:44.952Z</time></trkpt><trkpt lat="40.6362152" lon="9.2223138"><ele>857.0</ele><time>2026-04-21T08:18:45.953Z</time></trkpt><trkpt lat="40.6363095" lon="9.2223284"><ele>857.0</ele><time>2026-04-21T08:18:46.959Z</time></trkpt><trkpt lat="40.6364096" lon="9.2223414"><ele>857.0</ele><time>2026-04-21T08:18:47.949Z</time></trkpt><trkpt lat="40.6365094" lon="9.2223636"><ele>856.2</ele><time>2026-04-21T08:18:48.954Z</time></trkpt><trkpt lat="40.6366107" lon="9.2223863"><ele>855.4000000000001</ele><time>2026-04-21T08:18:49.958Z</time></trkpt><trkpt lat="40.6367036" lon="9.2224195"><ele>854.5999999999999</ele><time>2026-04-21T08:18:50.957Z</time></trkpt><trkpt lat="40.6367993" lon="9.2224565"><ele>853.8</ele><time>2026-04-21T08:18:51.954Z</time></trkpt><trkpt lat="40.6368877" lon="9.2224807"><ele>853.0</ele><time>2026-04-21T08:18:52.964Z</time></trkpt><trkpt lat="40.6369795" lon="9.2225032"><ele>851.4999999999999</ele><time>2026-04-21T08:18:53.955Z</time></trkpt><trkpt lat="40.637071" lon="9.2225201"><ele>850.0</ele><time>2026-04-21T08:18:54.957Z</time></trkpt><trkpt lat="40.6371572" lon="9.222543"><ele>848.5</ele><time>2026-04-21T08:18:55.959Z</time></trkpt><trkpt lat="40.6372405" lon="9.2225627"><ele>847.0</ele><time>2026-04-21T08:18:56.963Z</time></trkpt><trkpt lat="40.637326" lon="9.2225726"><ele>845.4999999999999</ele><time>2026-04-21T08:18:57.959Z</time></trkpt><trkpt lat="40.6374149" lon="9.2225742"><ele>844.0</ele><time>2026-04-21T08:18:58.963Z</time></trkpt><trkpt lat="40.6375064" lon="9.2225661"><ele>843.9999999999999</ele><time>2026-04-21T08:18:59.962Z</time></trkpt><trkpt lat="40.6375975" lon="9.2225451"><ele>844.0</ele><time>2026-04-21T08:19:00.964Z</time></trkpt><trkpt lat="40.6376803" lon="9.2225291"><ele>844.0</ele><time>2026-04-21T08:19:01.957Z</time></trkpt><trkpt lat="40.6377573" lon="9.2225038"><ele>844.0</ele><time>2026-04-21T08:19:02.962Z</time></trkpt><trkpt lat="40.6378406" lon="9.2224778"><ele>843.9999999999999</ele><time>2026-04-21T08:19:03.956Z</time></trkpt><trkpt lat="40.6379254" lon="9.2224459"><ele>844.0</ele><time>2026-04-21T08:19:04.959Z</time></trkpt><trkpt lat="40.6380077" lon="9.2224166"><ele>842.2</ele><time>2026-04-21T08:19:05.955Z</time></trkpt><trkpt lat="40.638092" lon="9.2223793"><ele>840.4000000000001</ele><time>2026-04-21T08:19:06.961Z</time></trkpt><trkpt lat="40.638184" lon="9.2223511"><ele>838.6</ele><time>2026-04-21T08:19:07.954Z</time></trkpt><trkpt lat="40.6382765" lon="9.2223179"><ele>836.8</ele><time>2026-04-21T08:19:08.957Z</time></trkpt><trkpt lat="40.6383708" lon="9.222272"><ele>835.0</ele><time>2026-04-21T08:19:09.959Z</time></trkpt><trkpt lat="40.6384666" lon="9.2222248"><ele>833.2</ele><time>2026-04-21T08:19:10.955Z</time></trkpt><trkpt lat="40.6385662" lon="9.2221825"><ele>831.4</ele><time>2026-04-21T08:19:11.956Z</time></trkpt><trkpt lat="40.6386739" lon="9.2221377"><ele>829.5999999999999</ele><time>2026-04-21T08:19:12.958Z</time></trkpt><trkpt lat="40.6387723" lon="9.22208"><ele>827.8</ele><time>2026-04-21T08:19:13.961Z</time></trkpt><trkpt lat="40.6388712" lon="9.22201"><ele>826.0</ele><time>2026-04-21T08:19:14.952Z</time></trkpt><trkpt lat="40.638964" lon="9.2219389"><ele>824.5999999999999</ele><time>2026-04-21T08:19:15.954Z</time></trkpt><trkpt lat="40.6390663" lon="9.2218768"><ele>823.2</ele><time>2026-04-21T08:19:16.96Z</time></trkpt><trkpt lat="40.6391596" lon="9.2218123"><ele>821.8</ele><time>2026-04-21T08:19:17.954Z</time></trkpt><trkpt lat="40.6392543" lon="9.2217459"><ele>820.4000000000001</ele><time>2026-04-21T08:19:18.951Z</time></trkpt><trkpt lat="40.639346" lon="9.2216827"><ele>819.0</ele><time>2026-04-21T08:19:19.948Z</time></trkpt><trkpt lat="40.6394435" lon="9.221624"><ele>818.0</ele><time>2026-04-21T08:19:20.948Z</time></trkpt><trkpt lat="40.6395374" lon="9.2215796"><ele>817.0</ele><time>2026-04-21T08:19:21.948Z</time></trkpt><trkpt lat="40.6396398" lon="9.2215223"><ele>816.0</ele><time>2026-04-21T08:19:22.949Z</time></trkpt><trkpt lat="40.6397353" lon="9.2214659"><ele>815.0</ele><time>2026-04-21T08:19:23.947Z</time></trkpt><trkpt lat="40.6398303" lon="9.2214285"><ele>814.0</ele><time>2026-04-21T08:19:24.951Z</time></trkpt><trkpt lat="40.6399228" lon="9.2213873"><ele>813.6</ele><time>2026-04-21T08:19:25.952Z</time></trkpt><trkpt lat="40.640019" lon="9.221345"><ele>813.2</ele><time>2026-04-21T08:19:26.959Z</time></trkpt><trkpt lat="40.640107" lon="9.2212887"><ele>812.8000000000001</ele><time>2026-04-21T08:19:27.953Z</time></trkpt><trkpt lat="40.6401913" lon="9.2212148"><ele>812.4000000000001</ele><time>2026-04-21T08:19:28.951Z</time></trkpt><trkpt lat="40.640257" lon="9.2211183"><ele>812.0</ele><time>2026-04-21T08:19:29.948Z</time></trkpt><trkpt lat="40.6403069" lon="9.2210074"><ele>810.8</ele><time>2026-04-21T08:19:30.959Z</time></trkpt><trkpt lat="40.6403601" lon="9.2209107"><ele>809.6</ele><time>2026-04-21T08:19:31.959Z</time></trkpt><trkpt lat="40.6404143" lon="9.2208109"><ele>808.4</ele><time>2026-04-21T08:19:32.948Z</time></trkpt><trkpt lat="40.6404886" lon="9.2207333"><ele>807.1999999999999</ele><time>2026-04-21T08:19:33.952Z</time></trkpt><trkpt lat="40.6405717" lon="9.2206763"><ele>806.0</ele><time>2026-04-21T08:19:34.95Z</time></trkpt><trkpt lat="40.6406609" lon="9.220644"><ele>805.0</ele><time>2026-04-21T08:19:35.954Z</time></trkpt><trkpt lat="40.64076" lon="9.2206229"><ele>804.0</ele><time>2026-04-21T08:19:36.954Z</time></trkpt><trkpt lat="40.6408584" lon="9.2205904"><ele>803.0</ele><time>2026-04-21T08:19:37.955Z</time></trkpt><trkpt lat="40.6409398" lon="9.2205286"><ele>802.0</ele><time>2026-04-21T08:19:38.954Z</time></trkpt><trkpt lat="40.6410098" lon="9.2204562"><ele>801.0</ele><time>2026-04-21T08:19:39.953Z</time></trkpt><trkpt lat="40.6410772" lon="9.2203776"><ele>801.0</ele><time>2026-04-21T08:19:40.95Z</time></trkpt><trkpt lat="40.6411385" lon="9.2202759"><ele>801.0</ele><time>2026-04-21T08:19:41.944Z</time></trkpt><trkpt lat="40.6411936" lon="9.2201533"><ele>801.0</ele><time>2026-04-21T08:19:42.941Z</time></trkpt><trkpt lat="40.6412493" lon="9.2200212"><ele>801.0</ele><time>2026-04-21T08:19:43.944Z</time></trkpt><trkpt lat="40.6413179" lon="9.2198811"><ele>801.0</ele><time>2026-04-21T08:19:44.965Z</time></trkpt><trkpt lat="40.6413927" lon="9.2197474"><ele>800.0</ele><time>2026-04-21T08:19:45.961Z</time></trkpt><trkpt lat="40.6414682" lon="9.2196205"><ele>799.0</ele><time>2026-04-21T08:19:46.963Z</time></trkpt><trkpt lat="40.6415539" lon="9.2195123"><ele>798.0</ele><time>2026-04-21T08:19:47.958Z</time></trkpt><trkpt lat="40.6416488" lon="9.2194346"><ele>797.0</ele><time>2026-04-21T08:19:48.963Z</time></trkpt><trkpt lat="40.6417505" lon="9.219373"><ele>797.0</ele><time>2026-04-21T08:19:49.962Z</time></trkpt><trkpt lat="40.6418482" lon="9.2193306"><ele>797.0</ele><time>2026-04-21T08:19:50.959Z</time></trkpt><trkpt lat="40.6419523" lon="9.2193032"><ele>797.0</ele><time>2026-04-21T08:19:51.964Z</time></trkpt><trkpt lat="40.6420627" lon="9.2192873"><ele>797.0</ele><time>2026-04-21T08:19:52.967Z</time></trkpt><trkpt lat="40.6421727" lon="9.2192864"><ele>797.0</ele><time>2026-04-21T08:19:53.966Z</time></trkpt><trkpt lat="40.6422768" lon="9.2192887"><ele>795.0</ele><time>2026-04-21T08:19:54.959Z</time></trkpt><trkpt lat="40.6423807" lon="9.219306"><ele>793.0</ele><time>2026-04-21T08:19:55.963Z</time></trkpt><trkpt lat="40.6424889" lon="9.2193374"><ele>791.0</ele><time>2026-04-21T08:19:56.963Z</time></trkpt><trkpt lat="40.6425878" lon="9.219387"><ele>789.0</ele><time>2026-04-21T08:19:57.964Z</time></trkpt><trkpt lat="40.6426885" lon="9.2194436"><ele>787.0</ele><time>2026-04-21T08:19:58.955Z</time></trkpt><trkpt lat="40.6427755" lon="9.21952"><ele>785.8</ele><time>2026-04-21T08:19:59.957Z</time></trkpt><trkpt lat="40.642865" lon="9.219586"><ele>784.6</ele><time>2026-04-21T08:20:00.957Z</time></trkpt><trkpt lat="40.6429461" lon="9.2196507"><ele>783.4</ele><time>2026-04-21T08:20:01.956Z</time></trkpt><trkpt lat="40.6430315" lon="9.219723"><ele>782.1999999999999</ele><time>2026-04-21T08:20:02.967Z</time></trkpt><trkpt lat="40.6431124" lon="9.2197852"><ele>781.0</ele><time>2026-04-21T08:20:03.964Z</time></trkpt><trkpt lat="40.6431926" lon="9.2198411"><ele>781.0</ele><time>2026-04-21T08:20:04.963Z</time></trkpt><trkpt lat="40.643264" lon="9.2198825"><ele>781.0</ele><time>2026-04-21T08:20:05.956Z</time></trkpt><trkpt lat="40.6433713" lon="9.2198978"><ele>781.0</ele><time>2026-04-21T08:20:07.954Z</time></trkpt><trkpt lat="40.643473" lon="9.2197799"><ele>781.0</ele><time>2026-04-21T08:20:09.975Z</time></trkpt><trkpt lat="40.6435106" lon="9.2196541"><ele>781.0</ele><time>2026-04-21T08:20:10.955Z</time></trkpt><trkpt lat="40.6435373" lon="9.2195165"><ele>780.75</ele><time>2026-04-21T08:20:11.96Z</time></trkpt><trkpt lat="40.6435587" lon="9.2193797"><ele>780.5</ele><time>2026-04-21T08:20:12.959Z</time></trkpt><trkpt lat="40.6435802" lon="9.2192265"><ele>780.25</ele><time>2026-04-21T08:20:13.963Z</time></trkpt><trkpt lat="40.6435881" lon="9.2190702"><ele>780.0</ele><time>2026-04-21T08:20:14.966Z</time></trkpt><trkpt lat="40.6435829" lon="9.2189247"><ele>777.75</ele><time>2026-04-21T08:20:15.966Z</time></trkpt><trkpt lat="40.6435549" lon="9.2187715"><ele>775.5</ele><time>2026-04-21T08:20:16.966Z</time></trkpt><trkpt lat="40.6435147" lon="9.218625"><ele>773.25</ele><time>2026-04-21T08:20:17.965Z</time></trkpt><trkpt lat="40.6434683" lon="9.2184752"><ele>771.0</ele><time>2026-04-21T08:20:18.966Z</time></trkpt><trkpt lat="40.6434145" lon="9.2183337"><ele>771.0</ele><time>2026-04-21T08:20:19.971Z</time></trkpt><trkpt lat="40.6433469" lon="9.2182002"><ele>771.0</ele><time>2026-04-21T08:20:21.038Z</time></trkpt><trkpt lat="40.6432666" lon="9.2180912"><ele>771.0</ele><time>2026-04-21T08:20:22.043Z</time></trkpt><trkpt lat="40.6431687" lon="9.2179936"><ele>771.0</ele><time>2026-04-21T08:20:23.045Z</time></trkpt><trkpt lat="40.6430629" lon="9.2178895"><ele>770.5</ele><time>2026-04-21T08:20:23.945Z</time></trkpt><trkpt lat="40.6429522" lon="9.2177837"><ele>770.0</ele><time>2026-04-21T08:20:24.938Z</time></trkpt><trkpt lat="40.6428598" lon="9.2176591"><ele>769.5</ele><time>2026-04-21T08:20:25.94Z</time></trkpt><trkpt lat="40.6427964" lon="9.217519"><ele>769.0</ele><time>2026-04-21T08:20:26.942Z</time></trkpt><trkpt lat="40.6427432" lon="9.2173699"><ele>767.75</ele><time>2026-04-21T08:20:27.953Z</time></trkpt><trkpt lat="40.642704" lon="9.2172251"><ele>766.5</ele><time>2026-04-21T08:20:28.956Z</time></trkpt><trkpt lat="40.642686" lon="9.217073"><ele>765.25</ele><time>2026-04-21T08:20:29.956Z</time></trkpt><trkpt lat="40.6426739" lon="9.2169211"><ele>764.0</ele><time>2026-04-21T08:20:30.957Z</time></trkpt><trkpt lat="40.6426722" lon="9.2167636"><ele>764.0</ele><time>2026-04-21T08:20:31.953Z</time></trkpt><trkpt lat="40.6426723" lon="9.216609"><ele>764.0</ele><time>2026-04-21T08:20:32.952Z</time></trkpt><trkpt lat="40.6426722" lon="9.2164607"><ele>764.0</ele><time>2026-04-21T08:20:33.951Z</time></trkpt><trkpt lat="40.6426587" lon="9.2163149"><ele>764.0</ele><time>2026-04-21T08:20:34.953Z</time></trkpt><trkpt lat="40.6426311" lon="9.216176"><ele>762.8000000000001</ele><time>2026-04-21T08:20:35.955Z</time></trkpt><trkpt lat="40.6425962" lon="9.2160324"><ele>761.6</ele><time>2026-04-21T08:20:36.957Z</time></trkpt><trkpt lat="40.6425615" lon="9.2159051"><ele>760.4</ele><time>2026-04-21T08:20:37.959Z</time></trkpt><trkpt lat="40.6425268" lon="9.2157852"><ele>759.2</ele><time>2026-04-21T08:20:38.954Z</time></trkpt><trkpt lat="40.6424975" lon="9.2156666"><ele>758.0</ele><time>2026-04-21T08:20:39.953Z</time></trkpt><trkpt lat="40.6424823" lon="9.215564"><ele>757.4</ele><time>2026-04-21T08:20:40.951Z</time></trkpt><trkpt lat="40.6424734" lon="9.2154655"><ele>756.8</ele><time>2026-04-21T08:20:41.947Z</time></trkpt><trkpt lat="40.6425359" lon="9.2153229"><ele>756.2</ele><time>2026-04-21T08:20:43.948Z</time></trkpt><trkpt lat="40.642594" lon="9.2152863"><ele>755.6</ele><time>2026-04-21T08:20:44.95Z</time></trkpt><trkpt lat="40.6426589" lon="9.215292"><ele>755.0</ele><time>2026-04-21T08:20:45.951Z</time></trkpt><trkpt lat="40.6427564" lon="9.2153899"><ele>751.8</ele><time>2026-04-21T08:20:47.94Z</time></trkpt><trkpt lat="40.6428016" lon="9.2154847"><ele>748.6</ele><time>2026-04-21T08:20:48.944Z</time></trkpt><trkpt lat="40.6428523" lon="9.2155955"><ele>745.4000000000001</ele><time>2026-04-21T08:20:49.949Z</time></trkpt><trkpt lat="40.6429137" lon="9.2157082"><ele>742.2</ele><time>2026-04-21T08:20:50.947Z</time></trkpt><trkpt lat="40.6429959" lon="9.2158071"><ele>739.0</ele><time>2026-04-21T08:20:51.951Z</time></trkpt><trkpt lat="40.6430768" lon="9.2159181"><ele>739.0</ele><time>2026-04-21T08:20:52.953Z</time></trkpt><trkpt lat="40.6431441" lon="9.2160272"><ele>739.0</ele><time>2026-04-21T08:20:53.95Z</time></trkpt><trkpt lat="40.6431934" lon="9.216149"><ele>739.0</ele><time>2026-04-21T08:20:54.95Z</time></trkpt><trkpt lat="40.6432147" lon="9.2162763"><ele>739.0</ele><time>2026-04-21T08:20:55.95Z</time></trkpt><trkpt lat="40.6432306" lon="9.2164016"><ele>739.0</ele><time>2026-04-21T08:20:56.957Z</time></trkpt><trkpt lat="40.6432563" lon="9.21654"><ele>740.2</ele><time>2026-04-21T08:20:57.955Z</time></trkpt><trkpt lat="40.6433038" lon="9.2166723"><ele>741.4000000000001</ele><time>2026-04-21T08:20:58.951Z</time></trkpt><trkpt lat="40.6433684" lon="9.2167843"><ele>742.6</ele><time>2026-04-21T08:20:59.957Z</time></trkpt><trkpt lat="40.6434542" lon="9.2168818"><ele>743.8</ele><time>2026-04-21T08:21:00.956Z</time></trkpt><trkpt lat="40.6435415" lon="9.2169781"><ele>745.0</ele><time>2026-04-21T08:21:01.954Z</time></trkpt><trkpt lat="40.6436357" lon="9.2170766"><ele>743.5</ele><time>2026-04-21T08:21:02.955Z</time></trkpt><trkpt lat="40.643734" lon="9.2171751"><ele>742.0</ele><time>2026-04-21T08:21:03.955Z</time></trkpt><trkpt lat="40.6438386" lon="9.2172632"><ele>740.5</ele><time>2026-04-21T08:21:04.955Z</time></trkpt><trkpt lat="40.6439351" lon="9.2173445"><ele>739.0</ele><time>2026-04-21T08:21:05.953Z</time></trkpt><trkpt lat="40.6440304" lon="9.2174331"><ele>739.0</ele><time>2026-04-21T08:21:06.954Z</time></trkpt><trkpt lat="40.6441125" lon="9.2175115"><ele>739.0</ele><time>2026-04-21T08:21:07.956Z</time></trkpt><trkpt lat="40.6442011" lon="9.2175954"><ele>739.0</ele><time>2026-04-21T08:21:08.96Z</time></trkpt><trkpt lat="40.6442808" lon="9.217667"><ele>739.0</ele><time>2026-04-21T08:21:09.954Z</time></trkpt><trkpt lat="40.6443598" lon="9.2177422"><ele>739.0</ele><time>2026-04-21T08:21:10.952Z</time></trkpt><trkpt lat="40.644431" lon="9.217821"><ele>736.4000000000001</ele><time>2026-04-21T08:21:11.951Z</time></trkpt><trkpt lat="40.6444965" lon="9.217915"><ele>733.8</ele><time>2026-04-21T08:21:12.95Z</time></trkpt><trkpt lat="40.6445449" lon="9.2180311"><ele>731.2</ele><time>2026-04-21T08:21:13.953Z</time></trkpt><trkpt lat="40.6445833" lon="9.2181496"><ele>728.5999999999999</ele><time>2026-04-21T08:21:14.956Z</time></trkpt><trkpt lat="40.6446192" lon="9.2182625"><ele>726.0</ele><time>2026-04-21T08:21:15.951Z</time></trkpt><trkpt lat="40.6446524" lon="9.2183599"><ele>726.0</ele><time>2026-04-21T08:21:16.956Z</time></trkpt><trkpt lat="40.6446852" lon="9.2184398"><ele>726.0</ele><time>2026-04-21T08:21:17.952Z</time></trkpt><trkpt lat="40.6447318" lon="9.2185231"><ele>726.0</ele><time>2026-04-21T08:21:19.946Z</time></trkpt><trkpt lat="40.6448101" lon="9.2184683"><ele>726.0</ele><time>2026-04-21T08:21:22.961Z</time></trkpt><trkpt lat="40.6448005" lon="9.2183358"><ele>726.0</ele><time>2026-04-21T08:21:24.958Z</time></trkpt><trkpt lat="40.6447484" lon="9.2181898"><ele>724.1999999999999</ele><time>2026-04-21T08:21:26.95Z</time></trkpt><trkpt lat="40.6447187" lon="9.2180954"><ele>722.4</ele><time>2026-04-21T08:21:27.949Z</time></trkpt><trkpt lat="40.6446992" lon="9.217966"><ele>720.6</ele><time>2026-04-21T08:21:28.948Z</time></trkpt><trkpt lat="40.6446786" lon="9.2178223"><ele>718.8</ele><time>2026-04-21T08:21:29.954Z</time></trkpt><trkpt lat="40.6446533" lon="9.2176745"><ele>717.0</ele><time>2026-04-21T08:21:30.954Z</time></trkpt><trkpt lat="40.6446168" lon="9.2175298"><ele>717.0</ele><time>2026-04-21T08:21:31.95Z</time></trkpt><trkpt lat="40.6445572" lon="9.2173839"><ele>717.0</ele><time>2026-04-21T08:21:32.953Z</time></trkpt><trkpt lat="40.6444917" lon="9.2172432"><ele>717.0</ele><time>2026-04-21T08:21:33.951Z</time></trkpt><trkpt lat="40.6444312" lon="9.2171182"><ele>717.0</ele><time>2026-04-21T08:21:34.951Z</time></trkpt><trkpt lat="40.6443744" lon="9.2169989"><ele>716.6</ele><time>2026-04-21T08:21:35.951Z</time></trkpt><trkpt lat="40.6443113" lon="9.2168831"><ele>716.2</ele><time>2026-04-21T08:21:36.949Z</time></trkpt><trkpt lat="40.6442498" lon="9.2167658"><ele>715.8</ele><time>2026-04-21T08:21:37.946Z</time></trkpt><trkpt lat="40.6442011" lon="9.2166535"><ele>715.4</ele><time>2026-04-21T08:21:38.95Z</time></trkpt><trkpt lat="40.6441506" lon="9.2165572"><ele>715.0</ele><time>2026-04-21T08:21:39.947Z</time></trkpt><trkpt lat="40.6440861" lon="9.2164691"><ele>715.0</ele><time>2026-04-21T08:21:40.95Z</time></trkpt><trkpt lat="40.64404" lon="9.2163741"><ele>715.0</ele><time>2026-04-21T08:21:41.951Z</time></trkpt><trkpt lat="40.6440111" lon="9.2162679"><ele>715.0</ele><time>2026-04-21T08:21:42.946Z</time></trkpt><trkpt lat="40.6440023" lon="9.2161696"><ele>715.0</ele><time>2026-04-21T08:21:43.954Z</time></trkpt><trkpt lat="40.6440186" lon="9.2160718"><ele>715.0</ele><time>2026-04-21T08:21:44.949Z</time></trkpt><trkpt lat="40.6440498" lon="9.2159813"><ele>715.0</ele><time>2026-04-21T08:21:45.956Z</time></trkpt><trkpt lat="40.6440983" lon="9.2158949"><ele>715.0</ele><time>2026-04-21T08:21:46.961Z</time></trkpt><trkpt lat="40.6441285" lon="9.2157992"><ele>715.0</ele><time>2026-04-21T08:21:47.955Z</time></trkpt><trkpt lat="40.6441465" lon="9.2157005"><ele>715.0</ele><time>2026-04-21T08:21:48.957Z</time></trkpt><trkpt lat="40.6441474" lon="9.2155972"><ele>715.0</ele><time>2026-04-21T08:21:49.959Z</time></trkpt><trkpt lat="40.644141" lon="9.2154919"><ele>715.0</ele><time>2026-04-21T08:21:50.953Z</time></trkpt><trkpt lat="40.6441964" lon="9.2153824"><ele>715.0</ele><time>2026-04-21T08:21:52.956Z</time></trkpt><trkpt lat="40.6443082" lon="9.215411"><ele>715.0</ele><time>2026-04-21T08:21:54.943Z</time></trkpt><trkpt lat="40.6443482" lon="9.2154774"><ele>715.0</ele><time>2026-04-21T08:21:55.96Z</time></trkpt><trkpt lat="40.6443718" lon="9.2155728"><ele>715.0</ele><time>2026-04-21T08:21:56.949Z</time></trkpt><trkpt lat="40.6443746" lon="9.2156926"><ele>715.0</ele><time>2026-04-21T08:21:57.956Z</time></trkpt><trkpt lat="40.6443779" lon="9.215851"><ele>715.0</ele><time>2026-04-21T08:21:58.95Z</time></trkpt><trkpt lat="40.6443953" lon="9.2159967"><ele>715.0</ele><time>2026-04-21T08:21:59.957Z</time></trkpt><trkpt lat="40.6444221" lon="9.2161193"><ele>715.0</ele><time>2026-04-21T08:22:00.952Z</time></trkpt><trkpt lat="40.6444731" lon="9.2162114"><ele>715.0</ele><time>2026-04-21T08:22:01.949Z</time></trkpt><trkpt lat="40.6445466" lon="9.2162981"><ele>715.0</ele><time>2026-04-21T08:22:02.947Z</time></trkpt><trkpt lat="40.6446514" lon="9.2163646"><ele>715.0</ele><time>2026-04-21T08:22:03.953Z</time></trkpt><trkpt lat="40.6447613" lon="9.2164433"><ele>713.2</ele><time>2026-04-21T08:22:04.959Z</time></trkpt><trkpt lat="40.644856" lon="9.2165277"><ele>711.4</ele><time>2026-04-21T08:22:05.957Z</time></trkpt><trkpt lat="40.644935" lon="9.2166111"><ele>709.5999999999999</ele><time>2026-04-21T08:22:06.957Z</time></trkpt><trkpt lat="40.6450219" lon="9.21667"><ele>707.8</ele><time>2026-04-21T08:22:07.957Z</time></trkpt><trkpt lat="40.6451169" lon="9.216729"><ele>706.0</ele><time>2026-04-21T08:22:08.954Z</time></trkpt><trkpt lat="40.6452169" lon="9.216786"><ele>702.8</ele><time>2026-04-21T08:22:09.959Z</time></trkpt><trkpt lat="40.6453021" lon="9.2168537"><ele>699.5999999999999</ele><time>2026-04-21T08:22:10.952Z</time></trkpt><trkpt lat="40.6453777" lon="9.2169515"><ele>696.4</ele><time>2026-04-21T08:22:11.952Z</time></trkpt><trkpt lat="40.6454326" lon="9.2170522"><ele>693.2</ele><time>2026-04-21T08:22:12.949Z</time></trkpt><trkpt lat="40.6454663" lon="9.2171572"><ele>690.0</ele><time>2026-04-21T08:22:13.948Z</time></trkpt><trkpt lat="40.6454879" lon="9.217237"><ele>690.0</ele><time>2026-04-21T08:22:14.946Z</time></trkpt><trkpt lat="40.6455321" lon="9.2173275"><ele>690.0</ele><time>2026-04-21T08:22:16.952Z</time></trkpt><trkpt lat="40.6456076" lon="9.2172663"><ele>690.0</ele><time>2026-04-21T08:22:18.949Z</time></trkpt><trkpt lat="40.6456269" lon="9.2170971"><ele>690.0</ele><time>2026-04-21T08:22:20.947Z</time></trkpt><trkpt lat="40.6455983" lon="9.216988"><ele>690.0</ele><time>2026-04-21T08:22:21.943Z</time></trkpt><trkpt lat="40.6455469" lon="9.2168468"><ele>690.0</ele><time>2026-04-21T08:22:22.942Z</time></trkpt><trkpt lat="40.6455132" lon="9.2166962"><ele>690.0</ele><time>2026-04-21T08:22:23.945Z</time></trkpt><trkpt lat="40.6454808" lon="9.2165344"><ele>690.0</ele><time>2026-04-21T08:22:24.944Z</time></trkpt><trkpt lat="40.6454625" lon="9.2163763"><ele>690.0</ele><time>2026-04-21T08:22:25.946Z</time></trkpt><trkpt lat="40.6454446" lon="9.2162242"><ele>690.2</ele><time>2026-04-21T08:22:26.948Z</time></trkpt><trkpt lat="40.6454265" lon="9.2160834"><ele>690.4</ele><time>2026-04-21T08:22:27.945Z</time></trkpt><trkpt lat="40.645396" lon="9.2159532"><ele>690.5999999999999</ele><time>2026-04-21T08:22:28.946Z</time></trkpt><trkpt lat="40.6453432" lon="9.2158334"><ele>690.8</ele><time>2026-04-21T08:22:29.941Z</time></trkpt><trkpt lat="40.645274" lon="9.2157293"><ele>691.0</ele><time>2026-04-21T08:22:30.957Z</time></trkpt><trkpt lat="40.6452105" lon="9.2156387"><ele>691.0</ele><time>2026-04-21T08:22:31.95Z</time></trkpt><trkpt lat="40.6451516" lon="9.2155585"><ele>691.0</ele><time>2026-04-21T08:22:32.951Z</time></trkpt><trkpt lat="40.6451136" lon="9.2154537"><ele>691.0</ele><time>2026-04-21T08:22:33.944Z</time></trkpt><trkpt lat="40.6451045" lon="9.2153274"><ele>691.0</ele><time>2026-04-21T08:22:34.943Z</time></trkpt><trkpt lat="40.6451091" lon="9.2151945"><ele>691.0</ele><time>2026-04-21T08:22:35.944Z</time></trkpt><trkpt lat="40.645122" lon="9.2150495"><ele>691.0</ele><time>2026-04-21T08:22:36.947Z</time></trkpt><trkpt lat="40.6451354" lon="9.2148918"><ele>691.0</ele><time>2026-04-21T08:22:37.945Z</time></trkpt><trkpt lat="40.6451386" lon="9.214729"><ele>691.0</ele><time>2026-04-21T08:22:38.943Z</time></trkpt><trkpt lat="40.6451282" lon="9.2145585"><ele>691.0</ele><time>2026-04-21T08:22:39.944Z</time></trkpt><trkpt lat="40.6451095" lon="9.2143957"><ele>690.0</ele><time>2026-04-21T08:22:40.944Z</time></trkpt><trkpt lat="40.6450916" lon="9.2142507"><ele>689.0</ele><time>2026-04-21T08:22:41.94Z</time></trkpt><trkpt lat="40.6450881" lon="9.2141093"><ele>688.0</ele><time>2026-04-21T08:22:42.945Z</time></trkpt><trkpt lat="40.6451015" lon="9.213971"><ele>687.0</ele><time>2026-04-21T08:22:43.94Z</time></trkpt><trkpt lat="40.6451299" lon="9.2138434"><ele>686.0</ele><time>2026-04-21T08:22:44.941Z</time></trkpt><trkpt lat="40.6451812" lon="9.2137405"><ele>685.1999999999999</ele><time>2026-04-21T08:22:45.94Z</time></trkpt><trkpt lat="40.645249" lon="9.2136541"><ele>684.4</ele><time>2026-04-21T08:22:46.943Z</time></trkpt><trkpt lat="40.6453414" lon="9.2135839"><ele>683.6</ele><time>2026-04-21T08:22:47.937Z</time></trkpt><trkpt lat="40.6454453" lon="9.2135285"><ele>682.8</ele><time>2026-04-21T08:22:48.937Z</time></trkpt><trkpt lat="40.6455568" lon="9.2134654"><ele>682.0</ele><time>2026-04-21T08:22:49.948Z</time></trkpt><trkpt lat="40.6456643" lon="9.2133975"><ele>680.5</ele><time>2026-04-21T08:22:50.946Z</time></trkpt><trkpt lat="40.6457622" lon="9.2133178"><ele>679.0</ele><time>2026-04-21T08:22:51.942Z</time></trkpt><trkpt lat="40.6458527" lon="9.2132278"><ele>677.5</ele><time>2026-04-21T08:22:52.944Z</time></trkpt><trkpt lat="40.6459232" lon="9.2131117"><ele>676.0</ele><time>2026-04-21T08:22:53.936Z</time></trkpt><trkpt lat="40.6459834" lon="9.2129606"><ele>676.0</ele><time>2026-04-21T08:22:54.938Z</time></trkpt><trkpt lat="40.6460305" lon="9.2127875"><ele>676.0</ele><time>2026-04-21T08:22:55.948Z</time></trkpt><trkpt lat="40.6460641" lon="9.2126001"><ele>676.0</ele><time>2026-04-21T08:22:56.947Z</time></trkpt><trkpt lat="40.6460983" lon="9.2124096"><ele>676.0</ele><time>2026-04-21T08:22:57.946Z</time></trkpt><trkpt lat="40.6461151" lon="9.2122008"><ele>676.0</ele><time>2026-04-21T08:22:58.95Z</time></trkpt><trkpt lat="40.6461392" lon="9.2120121"><ele>676.0</ele><time>2026-04-21T08:22:59.949Z</time></trkpt><trkpt lat="40.6461701" lon="9.2118222"><ele>676.0</ele><time>2026-04-21T08:23:00.952Z</time></trkpt><trkpt lat="40.6462088" lon="9.2116556"><ele>676.0</ele><time>2026-04-21T08:23:01.947Z</time></trkpt><trkpt lat="40.6462414" lon="9.2114896"><ele>675.5999999999999</ele><time>2026-04-21T08:23:02.947Z</time></trkpt><trkpt lat="40.6462769" lon="9.2113491"><ele>675.2</ele><time>2026-04-21T08:23:03.952Z</time></trkpt><trkpt lat="40.6463295" lon="9.2112193"><ele>674.8</ele><time>2026-04-21T08:23:04.951Z</time></trkpt><trkpt lat="40.6463832" lon="9.211085"><ele>674.4000000000001</ele><time>2026-04-21T08:23:05.952Z</time></trkpt><trkpt lat="40.6464248" lon="9.210966"><ele>674.0</ele><time>2026-04-21T08:23:06.953Z</time></trkpt><trkpt lat="40.6464611" lon="9.21085"><ele>674.0</ele><time>2026-04-21T08:23:07.952Z</time></trkpt><trkpt lat="40.6465032" lon="9.2107482"><ele>674.0</ele><time>2026-04-21T08:23:08.946Z</time></trkpt><trkpt lat="40.6465524" lon="9.2106782"><ele>674.0</ele><time>2026-04-21T08:23:09.951Z</time></trkpt><trkpt lat="40.6466146" lon="9.2106156"><ele>674.0</ele><time>2026-04-21T08:23:10.951Z</time></trkpt><trkpt lat="40.6466828" lon="9.210539"><ele>674.0</ele><time>2026-04-21T08:23:11.953Z</time></trkpt><trkpt lat="40.6467468" lon="9.2104575"><ele>674.0</ele><time>2026-04-21T08:23:12.951Z</time></trkpt><trkpt lat="40.6467981" lon="9.2103835"><ele>674.0</ele><time>2026-04-21T08:23:13.946Z</time></trkpt><trkpt lat="40.6468623" lon="9.2102534"><ele>674.0</ele><time>2026-04-21T08:23:15.95Z</time></trkpt><trkpt lat="40.6468683" lon="9.2101553"><ele>674.0</ele><time>2026-04-21T08:23:17.951Z</time></trkpt><trkpt lat="40.6468651" lon="9.2100539"><ele>674.0</ele><time>2026-04-21T08:23:52.959Z</time></trkpt><trkpt lat="40.6468587" lon="9.2099573"><ele>674.0</ele><time>2026-04-21T08:24:50.945Z</time></trkpt><trkpt lat="40.646894" lon="9.2098278"><ele>674.0</ele><time>2026-04-21T08:24:52.948Z</time></trkpt><trkpt lat="40.64693" lon="9.2097233"><ele>675.8000000000001</ele><time>2026-04-21T08:24:53.947Z</time></trkpt><trkpt lat="40.6469712" lon="9.2096098"><ele>677.6</ele><time>2026-04-21T08:24:54.945Z</time></trkpt><trkpt lat="40.6470128" lon="9.2094901"><ele>679.4</ele><time>2026-04-21T08:24:55.948Z</time></trkpt><trkpt lat="40.6470547" lon="9.2093722"><ele>681.2</ele><time>2026-04-21T08:24:56.942Z</time></trkpt><trkpt lat="40.647096" lon="9.2092657"><ele>683.0</ele><time>2026-04-21T08:24:57.945Z</time></trkpt><trkpt lat="40.647128" lon="9.2091692"><ele>683.0</ele><time>2026-04-21T08:24:58.946Z</time></trkpt><trkpt lat="40.6471704" lon="9.2090845"><ele>683.0</ele><time>2026-04-21T08:24:59.943Z</time></trkpt><trkpt lat="40.6472278" lon="9.2090032"><ele>683.0</ele><time>2026-04-21T08:25:00.949Z</time></trkpt><trkpt lat="40.6472884" lon="9.2089178"><ele>683.0</ele><time>2026-04-21T08:25:01.945Z</time></trkpt><trkpt lat="40.6473485" lon="9.2088241"><ele>683.0</ele><time>2026-04-21T08:25:02.951Z</time></trkpt><trkpt lat="40.6474135" lon="9.2087413"><ele>683.0</ele><time>2026-04-21T08:25:03.948Z</time></trkpt><trkpt lat="40.6474742" lon="9.2086609"><ele>681.8</ele><time>2026-04-21T08:25:04.951Z</time></trkpt><trkpt lat="40.6475395" lon="9.2085846"><ele>680.5999999999999</ele><time>2026-04-21T08:25:05.952Z</time></trkpt><trkpt lat="40.6476107" lon="9.2085216"><ele>679.4000000000001</ele><time>2026-04-21T08:25:06.947Z</time></trkpt><trkpt lat="40.647695" lon="9.2084603"><ele>678.2</ele><time>2026-04-21T08:25:07.951Z</time></trkpt><trkpt lat="40.6477818" lon="9.2084003"><ele>677.0</ele><time>2026-04-21T08:25:08.945Z</time></trkpt><trkpt lat="40.6478628" lon="9.2083339"><ele>677.0</ele><time>2026-04-21T08:25:09.949Z</time></trkpt><trkpt lat="40.6479418" lon="9.208272"><ele>677.0</ele><time>2026-04-21T08:25:10.944Z</time></trkpt><trkpt lat="40.6480214" lon="9.2082138"><ele>677.0</ele><time>2026-04-21T08:25:11.949Z</time></trkpt><trkpt lat="40.648101" lon="9.2081723"><ele>677.0</ele><time>2026-04-21T08:25:12.947Z</time></trkpt><trkpt lat="40.6481805" lon="9.2081482"><ele>677.0</ele><time>2026-04-21T08:25:13.945Z</time></trkpt><trkpt lat="40.6482678" lon="9.2081349"><ele>677.0</ele><time>2026-04-21T08:25:14.945Z</time></trkpt><trkpt lat="40.6483699" lon="9.2081395"><ele>673.5</ele><time>2026-04-21T08:25:15.945Z</time></trkpt><trkpt lat="40.6484792" lon="9.2081392"><ele>670.0</ele><time>2026-04-21T08:25:16.946Z</time></trkpt><trkpt lat="40.6485973" lon="9.2081195"><ele>666.5</ele><time>2026-04-21T08:25:17.94Z</time></trkpt><trkpt lat="40.6487099" lon="9.2080862"><ele>663.0</ele><time>2026-04-21T08:25:18.965Z</time></trkpt><trkpt lat="40.6488176" lon="9.2080538"><ele>662.4</ele><time>2026-04-21T08:25:19.949Z</time></trkpt><trkpt lat="40.6489209" lon="9.2080258"><ele>661.8</ele><time>2026-04-21T08:25:20.955Z</time></trkpt><trkpt lat="40.649018" lon="9.2080001"><ele>661.2</ele><time>2026-04-21T08:25:21.953Z</time></trkpt><trkpt lat="40.6491126" lon="9.2079893"><ele>660.6</ele><time>2026-04-21T08:25:22.954Z</time></trkpt><trkpt lat="40.649199" lon="9.2079706"><ele>660.0</ele><time>2026-04-21T08:25:23.95Z</time></trkpt><trkpt lat="40.6492983" lon="9.2079535"><ele>660.0</ele><time>2026-04-21T08:25:24.949Z</time></trkpt><trkpt lat="40.6493879" lon="9.2079321"><ele>660.0</ele><time>2026-04-21T08:25:25.947Z</time></trkpt><trkpt lat="40.6494817" lon="9.2079011"><ele>660.0</ele><time>2026-04-21T08:25:26.951Z</time></trkpt><trkpt lat="40.6495878" lon="9.2078809"><ele>660.0</ele><time>2026-04-21T08:25:27.948Z</time></trkpt><trkpt lat="40.6496797" lon="9.2078566"><ele>660.0</ele><time>2026-04-21T08:25:28.948Z</time></trkpt><trkpt lat="40.6497758" lon="9.2078341"><ele>659.5</ele><time>2026-04-21T08:25:29.946Z</time></trkpt><trkpt lat="40.6498626" lon="9.2078184"><ele>659.0</ele><time>2026-04-21T08:25:30.955Z</time></trkpt><trkpt lat="40.649951" lon="9.2078202"><ele>658.5</ele><time>2026-04-21T08:25:31.95Z</time></trkpt><trkpt lat="40.6500407" lon="9.2078196"><ele>658.0</ele><time>2026-04-21T08:25:32.952Z</time></trkpt><trkpt lat="40.6501246" lon="9.2078111"><ele>657.5</ele><time>2026-04-21T08:25:33.951Z</time></trkpt><trkpt lat="40.6502069" lon="9.2078105"><ele>657.0</ele><time>2026-04-21T08:25:34.951Z</time></trkpt><trkpt lat="40.6502847" lon="9.2078089"><ele>656.3333333333334</ele><time>2026-04-21T08:25:35.953Z</time></trkpt><trkpt lat="40.650371" lon="9.2078053"><ele>655.6666666666666</ele><time>2026-04-21T08:25:36.951Z</time></trkpt><trkpt lat="40.6504524" lon="9.2078193"><ele>655.0</ele><time>2026-04-21T08:25:37.951Z</time></trkpt><trkpt lat="40.6505404" lon="9.2078465"><ele>654.3333333333333</ele><time>2026-04-21T08:25:38.957Z</time></trkpt><trkpt lat="40.6506224" lon="9.207898"><ele>653.6666666666666</ele><time>2026-04-21T08:25:39.951Z</time></trkpt><trkpt lat="40.6506908" lon="9.2079673"><ele>653.0</ele><time>2026-04-21T08:25:40.957Z</time></trkpt><trkpt lat="40.6507477" lon="9.2080387"><ele>653.0</ele><time>2026-04-21T08:25:41.955Z</time></trkpt><trkpt lat="40.6507997" lon="9.208101"><ele>653.0</ele><time>2026-04-21T08:25:42.958Z</time></trkpt><trkpt lat="40.6508467" lon="9.208157"><ele>653.0</ele><time>2026-04-21T08:25:43.956Z</time></trkpt><trkpt lat="40.6508992" lon="9.2082289"><ele>653.0</ele><time>2026-04-21T08:25:44.954Z</time></trkpt><trkpt lat="40.6509535" lon="9.2083003"><ele>653.0</ele><time>2026-04-21T08:25:45.952Z</time></trkpt><trkpt lat="40.6510181" lon="9.2083806"><ele>653.0</ele><time>2026-04-21T08:25:46.959Z</time></trkpt><trkpt lat="40.6510862" lon="9.2084559"><ele>652.8333333333333</ele><time>2026-04-21T08:25:47.954Z</time></trkpt><trkpt lat="40.6511559" lon="9.2085236"><ele>652.6666666666666</ele><time>2026-04-21T08:25:48.959Z</time></trkpt><trkpt lat="40.6512155" lon="9.2085944"><ele>652.5</ele><time>2026-04-21T08:25:49.956Z</time></trkpt><trkpt lat="40.6512763" lon="9.2086717"><ele>652.3333333333334</ele><time>2026-04-21T08:25:50.955Z</time></trkpt><trkpt lat="40.6513346" lon="9.2087562"><ele>652.1666666666667</ele><time>2026-04-21T08:25:51.955Z</time></trkpt><trkpt lat="40.6514041" lon="9.2088336"><ele>652.0</ele><time>2026-04-21T08:25:52.962Z</time></trkpt><trkpt lat="40.6514715" lon="9.2089036"><ele>652.0</ele><time>2026-04-21T08:25:53.96Z</time></trkpt><trkpt lat="40.6515441" lon="9.2089882"><ele>652.0</ele><time>2026-04-21T08:25:54.958Z</time></trkpt><trkpt lat="40.6516179" lon="9.2090644"><ele>652.0</ele><time>2026-04-21T08:25:55.952Z</time></trkpt><trkpt lat="40.651686" lon="9.2091371"><ele>652.0</ele><time>2026-04-21T08:25:56.956Z</time></trkpt><trkpt lat="40.6517566" lon="9.2091993"><ele>652.0</ele><time>2026-04-21T08:25:57.955Z</time></trkpt><trkpt lat="40.6518303" lon="9.209263"><ele>652.0</ele><time>2026-04-21T08:25:58.956Z</time></trkpt><trkpt lat="40.6519108" lon="9.2093195"><ele>652.0</ele><time>2026-04-21T08:25:59.955Z</time></trkpt><trkpt lat="40.651998" lon="9.2093771"><ele>652.0</ele><time>2026-04-21T08:26:00.956Z</time></trkpt><trkpt lat="40.6520755" lon="9.2094167"><ele>652.0</ele><time>2026-04-21T08:26:01.956Z</time></trkpt><trkpt lat="40.6521566" lon="9.2094581"><ele>652.0</ele><time>2026-04-21T08:26:02.958Z</time></trkpt><trkpt lat="40.6522274" lon="9.2095109"><ele>652.0</ele><time>2026-04-21T08:26:03.958Z</time></trkpt><trkpt lat="40.652303" lon="9.2095608"><ele>651.3333333333334</ele><time>2026-04-21T08:26:04.959Z</time></trkpt><trkpt lat="40.652376" lon="9.2096159"><ele>650.6666666666667</ele><time>2026-04-21T08:26:05.955Z</time></trkpt><trkpt lat="40.6524491" lon="9.2096668"><ele>650.0</ele><time>2026-04-21T08:26:06.956Z</time></trkpt><trkpt lat="40.6525293" lon="9.2097049"><ele>649.3333333333334</ele><time>2026-04-21T08:26:07.959Z</time></trkpt><trkpt lat="40.6526081" lon="9.2097273"><ele>648.6666666666666</ele><time>2026-04-21T08:26:08.96Z</time></trkpt><trkpt lat="40.6526888" lon="9.2097549"><ele>648.0</ele><time>2026-04-21T08:26:09.961Z</time></trkpt><trkpt lat="40.6527569" lon="9.2098026"><ele>647.5</ele><time>2026-04-21T08:26:10.96Z</time></trkpt><trkpt lat="40.6528248" lon="9.2098703"><ele>647.0</ele><time>2026-04-21T08:26:11.958Z</time></trkpt><trkpt lat="40.6528894" lon="9.2099476"><ele>646.5</ele><time>2026-04-21T08:26:12.956Z</time></trkpt><trkpt lat="40.6529703" lon="9.21001"><ele>646.0</ele><time>2026-04-21T08:26:13.961Z</time></trkpt><trkpt lat="40.6530511" lon="9.2100661"><ele>645.5</ele><time>2026-04-21T08:26:14.958Z</time></trkpt><trkpt lat="40.6531344" lon="9.2101094"><ele>645.0</ele><time>2026-04-21T08:26:15.96Z</time></trkpt><trkpt lat="40.6532172" lon="9.210166"><ele>645.0</ele><time>2026-04-21T08:26:16.961Z</time></trkpt><trkpt lat="40.6532864" lon="9.2102085"><ele>645.0</ele><time>2026-04-21T08:26:17.96Z</time></trkpt><trkpt lat="40.6533859" lon="9.2102638"><ele>645.0</ele><time>2026-04-21T08:26:19.962Z</time></trkpt><trkpt lat="40.6534784" lon="9.210234"><ele>645.0</ele><time>2026-04-21T08:26:21.956Z</time></trkpt><trkpt lat="40.6535951" lon="9.2101425"><ele>645.0</ele><time>2026-04-21T08:26:23.963Z</time></trkpt><trkpt lat="40.653651" lon="9.210077"><ele>644.5</ele><time>2026-04-21T08:26:24.961Z</time></trkpt><trkpt lat="40.6537015" lon="9.2100145"><ele>644.0</ele><time>2026-04-21T08:26:25.964Z</time></trkpt><trkpt lat="40.6537448" lon="9.2099443"><ele>643.5</ele><time>2026-04-21T08:26:26.964Z</time></trkpt><trkpt lat="40.6537887" lon="9.2098607"><ele>643.0</ele><time>2026-04-21T08:26:27.964Z</time></trkpt><trkpt lat="40.6538356" lon="9.2097681"><ele>642.5</ele><time>2026-04-21T08:26:28.961Z</time></trkpt><trkpt lat="40.6538772" lon="9.2096755"><ele>642.0</ele><time>2026-04-21T08:26:29.96Z</time></trkpt><trkpt lat="40.653932" lon="9.2095894"><ele>642.0</ele><time>2026-04-21T08:26:30.959Z</time></trkpt><trkpt lat="40.6539986" lon="9.20951"><ele>642.0</ele><time>2026-04-21T08:26:31.953Z</time></trkpt><trkpt lat="40.6540786" lon="9.2094593"><ele>642.0</ele><time>2026-04-21T08:26:32.955Z</time></trkpt><trkpt lat="40.6541698" lon="9.2094159"><ele>642.0</ele><time>2026-04-21T08:26:33.956Z</time></trkpt><trkpt lat="40.6542572" lon="9.2093904"><ele>642.0</ele><time>2026-04-21T08:26:34.959Z</time></trkpt><trkpt lat="40.6543532" lon="9.209363"><ele>642.0</ele><time>2026-04-21T08:26:36.028Z</time></trkpt><trkpt lat="40.6544461" lon="9.2093315"><ele>642.0</ele><time>2026-04-21T08:26:37.03Z</time></trkpt><trkpt lat="40.6545368" lon="9.2092967"><ele>642.0</ele><time>2026-04-21T08:26:38.035Z</time></trkpt><trkpt lat="40.6546216" lon="9.2092517"><ele>642.0</ele><time>2026-04-21T08:26:39.029Z</time></trkpt><trkpt lat="40.6546791" lon="9.2092122"><ele>642.0</ele><time>2026-04-21T08:26:40.03Z</time></trkpt><trkpt lat="40.6547538" lon="9.2091456"><ele>642.0</ele><time>2026-04-21T08:26:42.03Z</time></trkpt><trkpt lat="40.6548412" lon="9.2090498"><ele>647.3333333333334</ele><time>2026-04-21T08:26:43.029Z</time></trkpt><trkpt lat="40.6549005" lon="9.2089372"><ele>652.6666666666667</ele><time>2026-04-21T08:26:44.032Z</time></trkpt><trkpt lat="40.6549417" lon="9.208853"><ele>658.0</ele><time>2026-04-21T08:26:45.019Z</time></trkpt><trkpt lat="40.6551184" lon="9.2085705"><ele>658.0</ele><time>2026-04-21T08:26:47.027Z</time></trkpt><trkpt lat="40.6551544" lon="9.2084968"><ele>658.0</ele><time>2026-04-21T08:26:48.021Z</time></trkpt><trkpt lat="40.6553281" lon="9.2082568"><ele>658.0</ele><time>2026-04-21T08:26:51.032Z</time></trkpt><trkpt lat="40.6554766" lon="9.2081981"><ele>658.5</ele><time>2026-04-21T08:26:53.023Z</time></trkpt><trkpt lat="40.6555502" lon="9.2081767"><ele>659.0</ele><time>2026-04-21T08:26:54.026Z</time></trkpt><trkpt lat="40.6556694" lon="9.2081687"><ele>659.5</ele><time>2026-04-21T08:26:56.039Z</time></trkpt><trkpt lat="40.6557442" lon="9.2080702"><ele>660.0</ele><time>2026-04-21T08:26:59.024Z</time></trkpt><trkpt lat="40.6559338" lon="9.2079908"><ele>660.0</ele><time>2026-04-21T08:26:59.942Z</time></trkpt><trkpt lat="40.6559491" lon="9.2078838"><ele>660.0</ele><time>2026-04-21T08:27:00.943Z</time></trkpt><trkpt lat="40.6559711" lon="9.2077671"><ele>660.0</ele><time>2026-04-21T08:27:01.942Z</time></trkpt><trkpt lat="40.6560097" lon="9.207665"><ele>660.0</ele><time>2026-04-21T08:27:02.946Z</time></trkpt><trkpt lat="40.6560455" lon="9.2075672"><ele>660.0</ele><time>2026-04-21T08:27:03.944Z</time></trkpt><trkpt lat="40.6560857" lon="9.2074729"><ele>660.0</ele><time>2026-04-21T08:27:04.945Z</time></trkpt><trkpt lat="40.6561386" lon="9.2073826"><ele>657.0</ele><time>2026-04-21T08:27:05.944Z</time></trkpt><trkpt lat="40.656192" lon="9.2073044"><ele>654.0</ele><time>2026-04-21T08:27:06.941Z</time></trkpt><trkpt lat="40.6562595" lon="9.2072335"><ele>651.0</ele><time>2026-04-21T08:27:07.941Z</time></trkpt><trkpt lat="40.6563051" lon="9.207161"><ele>648.0</ele><time>2026-04-21T08:27:08.944Z</time></trkpt><trkpt lat="40.6563391" lon="9.2070701"><ele>645.0</ele><time>2026-04-21T08:27:09.942Z</time></trkpt><trkpt lat="40.6563787" lon="9.2069915"><ele>642.0</ele><time>2026-04-21T08:27:10.944Z</time></trkpt><trkpt lat="40.6564211" lon="9.2069172"><ele>642.0</ele><time>2026-04-21T08:27:11.943Z</time></trkpt><trkpt lat="40.6564643" lon="9.2068468"><ele>642.0</ele><time>2026-04-21T08:27:12.944Z</time></trkpt><trkpt lat="40.656522" lon="9.2067833"><ele>642.0</ele><time>2026-04-21T08:27:13.945Z</time></trkpt><trkpt lat="40.6565882" lon="9.206722"><ele>642.0</ele><time>2026-04-21T08:27:14.944Z</time></trkpt><trkpt lat="40.6566562" lon="9.2066581"><ele>642.0</ele><time>2026-04-21T08:27:15.946Z</time></trkpt><trkpt lat="40.6567296" lon="9.2066029"><ele>642.0</ele><time>2026-04-21T08:27:16.95Z</time></trkpt><trkpt lat="40.656792" lon="9.2065392"><ele>642.5</ele><time>2026-04-21T08:27:17.946Z</time></trkpt><trkpt lat="40.6568497" lon="9.2064732"><ele>643.0</ele><time>2026-04-21T08:27:18.944Z</time></trkpt><trkpt lat="40.6569071" lon="9.2063817"><ele>643.5</ele><time>2026-04-21T08:27:19.948Z</time></trkpt><trkpt lat="40.6569606" lon="9.2062857"><ele>644.0</ele><time>2026-04-21T08:27:20.943Z</time></trkpt><trkpt lat="40.6570172" lon="9.2061928"><ele>644.5</ele><time>2026-04-21T08:27:21.944Z</time></trkpt><trkpt lat="40.6570815" lon="9.2061089"><ele>645.0</ele><time>2026-04-21T08:27:22.946Z</time></trkpt><trkpt lat="40.6571477" lon="9.2060311"><ele>645.0</ele><time>2026-04-21T08:27:23.945Z</time></trkpt><trkpt lat="40.6572101" lon="9.2059661"><ele>645.0</ele><time>2026-04-21T08:27:24.943Z</time></trkpt><trkpt lat="40.6572916" lon="9.2059232"><ele>645.0</ele><time>2026-04-21T08:27:25.933Z</time></trkpt><trkpt lat="40.6573702" lon="9.2058984"><ele>645.0</ele><time>2026-04-21T08:27:26.936Z</time></trkpt><trkpt lat="40.6574466" lon="9.2059025"><ele>645.0</ele><time>2026-04-21T08:27:27.928Z</time></trkpt><trkpt lat="40.6575319" lon="9.2059331"><ele>645.0</ele><time>2026-04-21T08:27:28.936Z</time></trkpt><trkpt lat="40.657623" lon="9.205989"><ele>645.0</ele><time>2026-04-21T08:27:29.926Z</time></trkpt><trkpt lat="40.6576992" lon="9.2060466"><ele>645.0</ele><time>2026-04-21T08:27:30.937Z</time></trkpt><trkpt lat="40.6577562" lon="9.20611"><ele>645.0</ele><time>2026-04-21T08:27:31.938Z</time></trkpt><trkpt lat="40.6578613" lon="9.2061674"><ele>645.0</ele><time>2026-04-21T08:27:33.938Z</time></trkpt><trkpt lat="40.6579518" lon="9.2060703"><ele>645.0</ele><time>2026-04-21T08:27:35.942Z</time></trkpt><trkpt lat="40.6580019" lon="9.2059752"><ele>643.6</ele><time>2026-04-21T08:27:36.94Z</time></trkpt><trkpt lat="40.6580468" lon="9.2058731"><ele>642.2</ele><time>2026-04-21T08:27:37.94Z</time></trkpt><trkpt lat="40.6581069" lon="9.205782"><ele>640.8</ele><time>2026-04-21T08:27:38.94Z</time></trkpt><trkpt lat="40.6581714" lon="9.2056905"><ele>639.4</ele><time>2026-04-21T08:27:39.942Z</time></trkpt><trkpt lat="40.6582176" lon="9.2055889"><ele>638.0</ele><time>2026-04-21T08:27:40.944Z</time></trkpt><trkpt lat="40.6582504" lon="9.20548"><ele>638.0</ele><time>2026-04-21T08:27:41.945Z</time></trkpt><trkpt lat="40.6582828" lon="9.2053814"><ele>638.0</ele><time>2026-04-21T08:27:42.94Z</time></trkpt><trkpt lat="40.6583083" lon="9.2052819"><ele>638.0</ele><time>2026-04-21T08:27:43.942Z</time></trkpt><trkpt lat="40.6583418" lon="9.2051975"><ele>638.0</ele><time>2026-04-21T08:27:44.94Z</time></trkpt><trkpt lat="40.6583861" lon="9.2051149"><ele>638.0</ele><time>2026-04-21T08:27:45.941Z</time></trkpt><trkpt lat="40.6584408" lon="9.2050467"><ele>638.0</ele><time>2026-04-21T08:27:46.944Z</time></trkpt><trkpt lat="40.6585132" lon="9.2050014"><ele>638.0</ele><time>2026-04-21T08:27:47.94Z</time></trkpt><trkpt lat="40.6585968" lon="9.2049628"><ele>638.0</ele><time>2026-04-21T08:27:48.94Z</time></trkpt><trkpt lat="40.6586875" lon="9.2049253"><ele>638.0</ele><time>2026-04-21T08:27:49.944Z</time></trkpt><trkpt lat="40.6587906" lon="9.2048941"><ele>638.0</ele><time>2026-04-21T08:27:50.94Z</time></trkpt><trkpt lat="40.6588962" lon="9.2048772"><ele>638.0</ele><time>2026-04-21T08:27:51.949Z</time></trkpt><trkpt lat="40.6590047" lon="9.2048596"><ele>636.0</ele><time>2026-04-21T08:27:52.951Z</time></trkpt><trkpt lat="40.6591083" lon="9.2048401"><ele>634.0</ele><time>2026-04-21T08:27:53.949Z</time></trkpt><trkpt lat="40.6592134" lon="9.2048392"><ele>632.0</ele><time>2026-04-21T08:27:54.949Z</time></trkpt><trkpt lat="40.6593117" lon="9.2048584"><ele>630.0</ele><time>2026-04-21T08:27:55.948Z</time></trkpt><trkpt lat="40.6593981" lon="9.2048972"><ele>628.0</ele><time>2026-04-21T08:27:56.95Z</time></trkpt><trkpt lat="40.6594846" lon="9.2049261"><ele>627.6</ele><time>2026-04-21T08:27:57.946Z</time></trkpt><trkpt lat="40.6595511" lon="9.2049509"><ele>627.1999999999999</ele><time>2026-04-21T08:27:58.941Z</time></trkpt><trkpt lat="40.6596538" lon="9.2049646"><ele>626.8</ele><time>2026-04-21T08:28:00.947Z</time></trkpt><trkpt lat="40.6597107" lon="9.2048151"><ele>626.4</ele><time>2026-04-21T08:28:02.949Z</time></trkpt><trkpt lat="40.6597405" lon="9.2047017"><ele>626.0</ele><time>2026-04-21T08:28:03.95Z</time></trkpt><trkpt lat="40.6597744" lon="9.2045691"><ele>626.0</ele><time>2026-04-21T08:28:04.946Z</time></trkpt><trkpt lat="40.6598152" lon="9.2044299"><ele>626.0</ele><time>2026-04-21T08:28:05.947Z</time></trkpt><trkpt lat="40.6598488" lon="9.2043069"><ele>626.0</ele><time>2026-04-21T08:28:06.946Z</time></trkpt><trkpt lat="40.6598779" lon="9.2041876"><ele>626.0</ele><time>2026-04-21T08:28:07.951Z</time></trkpt><trkpt lat="40.6598978" lon="9.2040752"><ele>626.0</ele><time>2026-04-21T08:28:08.95Z</time></trkpt><trkpt lat="40.6599145" lon="9.2039697"><ele>628.3333333333333</ele><time>2026-04-21T08:28:09.954Z</time></trkpt><trkpt lat="40.6599348" lon="9.2038839"><ele>630.6666666666666</ele><time>2026-04-21T08:28:10.954Z</time></trkpt><trkpt lat="40.6599816" lon="9.2037912"><ele>633.0</ele><time>2026-04-21T08:28:11.943Z</time></trkpt><trkpt lat="40.6600368" lon="9.2037155"><ele>635.3333333333334</ele><time>2026-04-21T08:28:12.951Z</time></trkpt><trkpt lat="40.6601057" lon="9.2036603"><ele>637.6666666666667</ele><time>2026-04-21T08:28:13.949Z</time></trkpt><trkpt lat="40.6601845" lon="9.2036169"><ele>640.0</ele><time>2026-04-21T08:28:14.949Z</time></trkpt><trkpt lat="40.6602598" lon="9.2035717"><ele>635.7142857142857</ele><time>2026-04-21T08:28:15.951Z</time></trkpt><trkpt lat="40.6603209" lon="9.2035084"><ele>631.4285714285714</ele><time>2026-04-21T08:28:16.958Z</time></trkpt><trkpt lat="40.660377" lon="9.2034467"><ele>627.1428571428571</ele><time>2026-04-21T08:28:17.951Z</time></trkpt><trkpt lat="40.6604257" lon="9.2033822"><ele>622.8571428571429</ele><time>2026-04-21T08:28:18.95Z</time></trkpt><trkpt lat="40.6604927" lon="9.2033367"><ele>618.5714285714286</ele><time>2026-04-21T08:28:19.952Z</time></trkpt><trkpt lat="40.6605556" lon="9.2032885"><ele>614.2857142857143</ele><time>2026-04-21T08:28:20.948Z</time></trkpt><trkpt lat="40.6606209" lon="9.2032422"><ele>610.0</ele><time>2026-04-21T08:28:21.946Z</time></trkpt><trkpt lat="40.6606956" lon="9.2031993"><ele>612.8</ele><time>2026-04-21T08:28:22.952Z</time></trkpt><trkpt lat="40.6607622" lon="9.2031503"><ele>615.6</ele><time>2026-04-21T08:28:23.953Z</time></trkpt><trkpt lat="40.6608455" lon="9.2030968"><ele>618.4</ele><time>2026-04-21T08:28:24.953Z</time></trkpt><trkpt lat="40.6609297" lon="9.2030318"><ele>621.2</ele><time>2026-04-21T08:28:25.953Z</time></trkpt><trkpt lat="40.6610176" lon="9.2029663"><ele>624.0</ele><time>2026-04-21T08:28:26.951Z</time></trkpt><trkpt lat="40.6611135" lon="9.2028937"><ele>619.75</ele><time>2026-04-21T08:28:27.949Z</time></trkpt><trkpt lat="40.6612141" lon="9.2028279"><ele>615.5</ele><time>2026-04-21T08:28:28.95Z</time></trkpt><trkpt lat="40.6613296" lon="9.2027631"><ele>611.25</ele><time>2026-04-21T08:28:29.948Z</time></trkpt><trkpt lat="40.6614508" lon="9.2026932"><ele>607.0</ele><time>2026-04-21T08:28:30.951Z</time></trkpt><trkpt lat="40.6615581" lon="9.2026207"><ele>607.0</ele><time>2026-04-21T08:28:31.948Z</time></trkpt><trkpt lat="40.6616575" lon="9.2025527"><ele>607.0</ele><time>2026-04-21T08:28:32.947Z</time></trkpt><trkpt lat="40.661755" lon="9.2024962"><ele>607.0</ele><time>2026-04-21T08:28:33.946Z</time></trkpt><trkpt lat="40.6618494" lon="9.202452"><ele>607.0</ele><time>2026-04-21T08:28:34.944Z</time></trkpt><trkpt lat="40.6619554" lon="9.2024147"><ele>607.0</ele><time>2026-04-21T08:28:35.945Z</time></trkpt><trkpt lat="40.6620632" lon="9.2023838"><ele>608.2</ele><time>2026-04-21T08:28:36.946Z</time></trkpt><trkpt lat="40.6621733" lon="9.2023675"><ele>609.4000000000001</ele><time>2026-04-21T08:28:37.946Z</time></trkpt><trkpt lat="40.6622679" lon="9.2023562"><ele>610.5999999999999</ele><time>2026-04-21T08:28:38.945Z</time></trkpt><trkpt lat="40.6623649" lon="9.2023572"><ele>611.8</ele><time>2026-04-21T08:28:39.944Z</time></trkpt><trkpt lat="40.6624653" lon="9.2023559"><ele>613.0</ele><time>2026-04-21T08:28:40.944Z</time></trkpt><trkpt lat="40.6625571" lon="9.2023695"><ele>613.0</ele><time>2026-04-21T08:28:41.942Z</time></trkpt><trkpt lat="40.6626611" lon="9.2023958"><ele>613.0</ele><time>2026-04-21T08:28:42.943Z</time></trkpt><trkpt lat="40.6627502" lon="9.2024405"><ele>613.0</ele><time>2026-04-21T08:28:43.939Z</time></trkpt><trkpt lat="40.662835" lon="9.202515"><ele>613.0</ele><time>2026-04-21T08:28:44.944Z</time></trkpt><trkpt lat="40.6629171" lon="9.2025957"><ele>613.0</ele><time>2026-04-21T08:28:45.946Z</time></trkpt><trkpt lat="40.6630128" lon="9.2026604"><ele>615.1999999999999</ele><time>2026-04-21T08:28:46.95Z</time></trkpt><trkpt lat="40.6631131" lon="9.2027153"><ele>617.4</ele><time>2026-04-21T08:28:47.945Z</time></trkpt><trkpt lat="40.6632135" lon="9.2027549"><ele>619.5999999999999</ele><time>2026-04-21T08:28:48.952Z</time></trkpt><trkpt lat="40.6633169" lon="9.2027894"><ele>621.8</ele><time>2026-04-21T08:28:49.953Z</time></trkpt><trkpt lat="40.6634212" lon="9.2028181"><ele>624.0</ele><time>2026-04-21T08:28:50.948Z</time></trkpt><trkpt lat="40.6635163" lon="9.2028674"><ele>624.0</ele><time>2026-04-21T08:28:51.947Z</time></trkpt><trkpt lat="40.6636093" lon="9.2029298"><ele>624.0</ele><time>2026-04-21T08:28:52.948Z</time></trkpt><trkpt lat="40.6636892" lon="9.203008"><ele>624.0</ele><time>2026-04-21T08:28:53.948Z</time></trkpt><trkpt lat="40.6637686" lon="9.2031009"><ele>624.0</ele><time>2026-04-21T08:28:54.948Z</time></trkpt><trkpt lat="40.6638371" lon="9.2031893"><ele>624.0</ele><time>2026-04-21T08:28:55.947Z</time></trkpt><trkpt lat="40.6638886" lon="9.2032887"><ele>621.8333333333334</ele><time>2026-04-21T08:28:56.948Z</time></trkpt><trkpt lat="40.6639304" lon="9.2033782"><ele>619.6666666666666</ele><time>2026-04-21T08:28:57.945Z</time></trkpt><trkpt lat="40.6639737" lon="9.2034546"><ele>617.5</ele><time>2026-04-21T08:28:58.946Z</time></trkpt><trkpt lat="40.66401" lon="9.2035266"><ele>615.3333333333333</ele><time>2026-04-21T08:28:59.935Z</time></trkpt><trkpt lat="40.664122" lon="9.2035545"><ele>613.1666666666666</ele><time>2026-04-21T08:29:01.936Z</time></trkpt><trkpt lat="40.6642039" lon="9.2035396"><ele>611.0</ele><time>2026-04-21T08:29:02.939Z</time></trkpt><trkpt lat="40.6642873" lon="9.2035252"><ele>611.0</ele><time>2026-04-21T08:29:03.944Z</time></trkpt><trkpt lat="40.6643783" lon="9.2035122"><ele>611.0</ele><time>2026-04-21T08:29:04.944Z</time></trkpt><trkpt lat="40.6644566" lon="9.2034961"><ele>611.0</ele><time>2026-04-21T08:29:05.944Z</time></trkpt><trkpt lat="40.6645438" lon="9.2034896"><ele>611.0</ele><time>2026-04-21T08:29:06.94Z</time></trkpt><trkpt lat="40.6646289" lon="9.2034794"><ele>611.0</ele><time>2026-04-21T08:29:07.941Z</time></trkpt><trkpt lat="40.6647101" lon="9.2034731"><ele>611.0</ele><time>2026-04-21T08:29:08.94Z</time></trkpt><trkpt lat="40.6647882" lon="9.2034591"><ele>609.6</ele><time>2026-04-21T08:29:09.939Z</time></trkpt><trkpt lat="40.6648641" lon="9.2034218"><ele>608.2</ele><time>2026-04-21T08:29:10.939Z</time></trkpt><trkpt lat="40.6649542" lon="9.2033634"><ele>606.8</ele><time>2026-04-21T08:29:11.94Z</time></trkpt><trkpt lat="40.6650368" lon="9.2033027"><ele>605.4</ele><time>2026-04-21T08:29:12.941Z</time></trkpt><trkpt lat="40.665114" lon="9.2032355"><ele>604.0</ele><time>2026-04-21T08:29:13.941Z</time></trkpt><trkpt lat="40.6651954" lon="9.2031589"><ele>606.6</ele><time>2026-04-21T08:29:14.943Z</time></trkpt><trkpt lat="40.6652793" lon="9.2030883"><ele>609.2</ele><time>2026-04-21T08:29:15.944Z</time></trkpt><trkpt lat="40.6653727" lon="9.2030262"><ele>611.8000000000001</ele><time>2026-04-21T08:29:16.948Z</time></trkpt><trkpt lat="40.6654727" lon="9.2029731"><ele>614.4</ele><time>2026-04-21T08:29:17.944Z</time></trkpt><trkpt lat="40.6655669" lon="9.2029156"><ele>617.0</ele><time>2026-04-21T08:29:18.943Z</time></trkpt><trkpt lat="40.6656722" lon="9.2028544"><ele>617.0</ele><time>2026-04-21T08:29:19.946Z</time></trkpt><trkpt lat="40.6657645" lon="9.2027951"><ele>617.0</ele><time>2026-04-21T08:29:20.944Z</time></trkpt><trkpt lat="40.6658555" lon="9.2027376"><ele>617.0</ele><time>2026-04-21T08:29:21.951Z</time></trkpt><trkpt lat="40.6659483" lon="9.2026786"><ele>617.0</ele><time>2026-04-21T08:29:22.951Z</time></trkpt><trkpt lat="40.666044" lon="9.2026159"><ele>617.0</ele><time>2026-04-21T08:29:23.948Z</time></trkpt><trkpt lat="40.6661416" lon="9.2025565"><ele>613.8000000000001</ele><time>2026-04-21T08:29:24.946Z</time></trkpt><trkpt lat="40.6662389" lon="9.2025082"><ele>610.6</ele><time>2026-04-21T08:29:25.944Z</time></trkpt><trkpt lat="40.666341" lon="9.2024659"><ele>607.4000000000001</ele><time>2026-04-21T08:29:26.948Z</time></trkpt><trkpt lat="40.6664503" lon="9.2024279"><ele>604.2</ele><time>2026-04-21T08:29:27.947Z</time></trkpt><trkpt lat="40.6665553" lon="9.2023835"><ele>601.0</ele><time>2026-04-21T08:29:28.946Z</time></trkpt><trkpt lat="40.6666489" lon="9.2023404"><ele>606.6666666666667</ele><time>2026-04-21T08:29:29.943Z</time></trkpt><trkpt lat="40.6667342" lon="9.2023117"><ele>612.3333333333334</ele><time>2026-04-21T08:29:30.947Z</time></trkpt><trkpt lat="40.6668216" lon="9.202282"><ele>618.0</ele><time>2026-04-21T08:29:31.938Z</time></trkpt><trkpt lat="40.6669043" lon="9.2022609"><ele>623.6666666666666</ele><time>2026-04-21T08:29:32.957Z</time></trkpt><trkpt lat="40.6669817" lon="9.2022603"><ele>629.3333333333333</ele><time>2026-04-21T08:29:33.946Z</time></trkpt><trkpt lat="40.6670568" lon="9.2022798"><ele>635.0</ele><time>2026-04-21T08:29:34.945Z</time></trkpt><trkpt lat="40.6671317" lon="9.2023211"><ele>628.8</ele><time>2026-04-21T08:29:35.943Z</time></trkpt><trkpt lat="40.6671981" lon="9.2023795"><ele>622.6</ele><time>2026-04-21T08:29:36.954Z</time></trkpt><trkpt lat="40.6672679" lon="9.2024533"><ele>616.4</ele><time>2026-04-21T08:29:37.951Z</time></trkpt><trkpt lat="40.6673555" lon="9.202523"><ele>610.2</ele><time>2026-04-21T08:29:38.953Z</time></trkpt><trkpt lat="40.6674492" lon="9.2025835"><ele>604.0</ele><time>2026-04-21T08:29:39.954Z</time></trkpt><trkpt lat="40.6675481" lon="9.2026334"><ele>604.0</ele><time>2026-04-21T08:29:40.951Z</time></trkpt><trkpt lat="40.667652" lon="9.2026807"><ele>604.0</ele><time>2026-04-21T08:29:41.95Z</time></trkpt><trkpt lat="40.6677542" lon="9.2027335"><ele>604.0</ele><time>2026-04-21T08:29:42.953Z</time></trkpt><trkpt lat="40.6678752" lon="9.202758"><ele>604.0</ele><time>2026-04-21T08:29:43.945Z</time></trkpt><trkpt lat="40.6679982" lon="9.2027761"><ele>604.4</ele><time>2026-04-21T08:29:44.943Z</time></trkpt><trkpt lat="40.6681073" lon="9.2027958"><ele>604.8</ele><time>2026-04-21T08:29:45.944Z</time></trkpt><trkpt lat="40.6682186" lon="9.2028246"><ele>605.2</ele><time>2026-04-21T08:29:46.946Z</time></trkpt><trkpt lat="40.6683254" lon="9.2028811"><ele>605.6</ele><time>2026-04-21T08:29:47.943Z</time></trkpt><trkpt lat="40.668422" lon="9.2029221"><ele>606.0</ele><time>2026-04-21T08:29:48.943Z</time></trkpt><trkpt lat="40.668503" lon="9.2029483"><ele>606.0</ele><time>2026-04-21T08:29:49.946Z</time></trkpt><trkpt lat="40.6685691" lon="9.2029787"><ele>606.0</ele><time>2026-04-21T08:29:50.944Z</time></trkpt><trkpt lat="40.6686602" lon="9.2030021"><ele>606.0</ele><time>2026-04-21T08:29:52.945Z</time></trkpt><trkpt lat="40.6687266" lon="9.2030121"><ele>606.0</ele><time>2026-04-21T08:29:55.952Z</time></trkpt><trkpt lat="40.6688101" lon="9.2030089"><ele>606.0</ele><time>2026-04-21T08:29:57.955Z</time></trkpt><trkpt lat="40.6688722" lon="9.2030234"><ele>606.0</ele><time>2026-04-21T08:30:00.953Z</time></trkpt><trkpt lat="40.6687768" lon="9.2030477"><ele>606.0</ele><time>2026-04-21T08:30:37.946Z</time></trkpt><trkpt lat="40.6686663" lon="9.203051"><ele>606.0</ele><time>2026-04-21T08:30:39.946Z</time></trkpt><trkpt lat="40.6685432" lon="9.2030146"><ele>606.0</ele><time>2026-04-21T08:30:41.946Z</time></trkpt><trkpt lat="40.6684753" lon="9.2029936"><ele>606.0</ele><time>2026-04-21T08:30:42.947Z</time></trkpt><trkpt lat="40.6684029" lon="9.2029518"><ele>606.0</ele><time>2026-04-21T08:30:43.947Z</time></trkpt><trkpt lat="40.6683136" lon="9.202909"><ele>606.0</ele><time>2026-04-21T08:30:44.944Z</time></trkpt><trkpt lat="40.6682299" lon="9.2028692"><ele>606.0</ele><time>2026-04-21T08:30:45.943Z</time></trkpt><trkpt lat="40.6681291" lon="9.2028345"><ele>606.0</ele><time>2026-04-21T08:30:46.944Z</time></trkpt><trkpt lat="40.6680268" lon="9.2028026"><ele>606.0</ele><time>2026-04-21T08:30:47.945Z</time></trkpt><trkpt lat="40.6679264" lon="9.2027807"><ele>606.0</ele><time>2026-04-21T08:30:48.951Z</time></trkpt><trkpt lat="40.6678248" lon="9.2027718"><ele>605.6</ele><time>2026-04-21T08:30:49.952Z</time></trkpt><trkpt lat="40.667722" lon="9.202758"><ele>605.2</ele><time>2026-04-21T08:30:50.949Z</time></trkpt><trkpt lat="40.6676244" lon="9.202721"><ele>604.8</ele><time>2026-04-21T08:30:51.95Z</time></trkpt><trkpt lat="40.667527" lon="9.2026796"><ele>604.4</ele><time>2026-04-21T08:30:52.952Z</time></trkpt><trkpt lat="40.6674374" lon="9.2026274"><ele>604.0</ele><time>2026-04-21T08:30:53.948Z</time></trkpt><trkpt lat="40.6673461" lon="9.2025752"><ele>604.0</ele><time>2026-04-21T08:30:54.946Z</time></trkpt><trkpt lat="40.6672652" lon="9.2025128"><ele>604.0</ele><time>2026-04-21T08:30:55.941Z</time></trkpt><trkpt lat="40.6671799" lon="9.2024549"><ele>604.0</ele><time>2026-04-21T08:30:56.949Z</time></trkpt><trkpt lat="40.6671056" lon="9.202388"><ele>604.0</ele><time>2026-04-21T08:30:57.945Z</time></trkpt><trkpt lat="40.6670317" lon="9.2023396"><ele>604.0</ele><time>2026-04-21T08:30:58.938Z</time></trkpt><trkpt lat="40.6669599" lon="9.2023105"><ele>604.0</ele><time>2026-04-21T08:30:59.942Z</time></trkpt><trkpt lat="40.6668766" lon="9.2022953"><ele>603.4</ele><time>2026-04-21T08:31:00.946Z</time></trkpt><trkpt lat="40.6667951" lon="9.2022959"><ele>602.8</ele><time>2026-04-21T08:31:01.94Z</time></trkpt><trkpt lat="40.6667049" lon="9.2023287"><ele>602.2</ele><time>2026-04-21T08:31:02.942Z</time></trkpt><trkpt lat="40.6666043" lon="9.202382"><ele>601.6</ele><time>2026-04-21T08:31:03.941Z</time></trkpt><trkpt lat="40.6664943" lon="9.2024415"><ele>601.0</ele><time>2026-04-21T08:31:04.94Z</time></trkpt><trkpt lat="40.6663921" lon="9.2024968"><ele>601.0</ele><time>2026-04-21T08:31:05.944Z</time></trkpt><trkpt lat="40.6662808" lon="9.2025443"><ele>601.0</ele><time>2026-04-21T08:31:06.943Z</time></trkpt><trkpt lat="40.666168" lon="9.2025992"><ele>601.0</ele><time>2026-04-21T08:31:07.945Z</time></trkpt><trkpt lat="40.6660619" lon="9.2026695"><ele>601.0</ele><time>2026-04-21T08:31:08.946Z</time></trkpt><trkpt lat="40.6659749" lon="9.202739"><ele>604.2</ele><time>2026-04-21T08:31:09.949Z</time></trkpt><trkpt lat="40.6658796" lon="9.2028093"><ele>607.4000000000001</ele><time>2026-04-21T08:31:10.948Z</time></trkpt><trkpt lat="40.6657747" lon="9.2028742"><ele>610.6</ele><time>2026-04-21T08:31:11.946Z</time></trkpt><trkpt lat="40.6656717" lon="9.2029325"><ele>613.8000000000001</ele><time>2026-04-21T08:31:12.946Z</time></trkpt><trkpt lat="40.6655734" lon="9.2030022"><ele>617.0</ele><time>2026-04-21T08:31:13.946Z</time></trkpt><trkpt lat="40.6654762" lon="9.2030742"><ele>617.0</ele><time>2026-04-21T08:31:14.944Z</time></trkpt><trkpt lat="40.6653765" lon="9.2031387"><ele>617.0</ele><time>2026-04-21T08:31:15.945Z</time></trkpt><trkpt lat="40.6652646" lon="9.2031956"><ele>617.0</ele><time>2026-04-21T08:31:16.946Z</time></trkpt><trkpt lat="40.6651652" lon="9.2032458"><ele>617.0</ele><time>2026-04-21T08:31:17.945Z</time></trkpt><trkpt lat="40.6650723" lon="9.203298"><ele>617.0</ele><time>2026-04-21T08:31:18.946Z</time></trkpt><trkpt lat="40.6649809" lon="9.203365"><ele>614.4</ele><time>2026-04-21T08:31:19.948Z</time></trkpt><trkpt lat="40.664891" lon="9.2034329"><ele>611.8000000000001</ele><time>2026-04-21T08:31:20.947Z</time></trkpt><trkpt lat="40.6648002" lon="9.2034906"><ele>609.2</ele><time>2026-04-21T08:31:21.944Z</time></trkpt><trkpt lat="40.6647113" lon="9.2035337"><ele>606.6</ele><time>2026-04-21T08:31:22.946Z</time></trkpt><trkpt lat="40.6646258" lon="9.2035485"><ele>604.0</ele><time>2026-04-21T08:31:23.943Z</time></trkpt><trkpt lat="40.6645427" lon="9.203555"><ele>605.4</ele><time>2026-04-21T08:31:24.938Z</time></trkpt><trkpt lat="40.6644442" lon="9.2035362"><ele>606.8</ele><time>2026-04-21T08:31:25.947Z</time></trkpt><trkpt lat="40.6643376" lon="9.2035205"><ele>608.2</ele><time>2026-04-21T08:31:26.948Z</time></trkpt><trkpt lat="40.6642243" lon="9.2035251"><ele>609.6</ele><time>2026-04-21T08:31:27.949Z</time></trkpt><trkpt lat="40.6641245" lon="9.2035268"><ele>611.0</ele><time>2026-04-21T08:31:28.945Z</time></trkpt><trkpt lat="40.6640331" lon="9.2035273"><ele>611.0</ele><time>2026-04-21T08:31:29.946Z</time></trkpt><trkpt lat="40.6639541" lon="9.2035111"><ele>611.0</ele><time>2026-04-21T08:31:30.942Z</time></trkpt><trkpt lat="40.6638877" lon="9.2034613"><ele>611.0</ele><time>2026-04-21T08:31:31.94Z</time></trkpt><trkpt lat="40.6638227" lon="9.2034039"><ele>611.0</ele><time>2026-04-21T08:31:32.936Z</time></trkpt><trkpt lat="40.6637666" lon="9.2032886"><ele>611.0</ele><time>2026-04-21T08:31:33.944Z</time></trkpt><trkpt lat="40.6636975" lon="9.2031631"><ele>614.25</ele><time>2026-04-21T08:31:34.937Z</time></trkpt><trkpt lat="40.6636307" lon="9.203048"><ele>617.5</ele><time>2026-04-21T08:31:35.939Z</time></trkpt><trkpt lat="40.663544" lon="9.2029326"><ele>620.75</ele><time>2026-04-21T08:31:36.939Z</time></trkpt><trkpt lat="40.6634574" lon="9.2028419"><ele>624.0</ele><time>2026-04-21T08:31:37.938Z</time></trkpt><trkpt lat="40.663351" lon="9.2027805"><ele>624.0</ele><time>2026-04-21T08:31:38.943Z</time></trkpt><trkpt lat="40.663246" lon="9.202735"><ele>624.0</ele><time>2026-04-21T08:31:39.933Z</time></trkpt><trkpt lat="40.663127" lon="9.2027038"><ele>624.0</ele><time>2026-04-21T08:31:40.94Z</time></trkpt><trkpt lat="40.6630125" lon="9.2026755"><ele>624.0</ele><time>2026-04-21T08:31:41.94Z</time></trkpt><trkpt lat="40.6629149" lon="9.2026255"><ele>624.0</ele><time>2026-04-21T08:31:42.939Z</time></trkpt><trkpt lat="40.6628189" lon="9.2025664"><ele>624.0</ele><time>2026-04-21T08:31:43.942Z</time></trkpt><trkpt lat="40.6627275" lon="9.2024947"><ele>624.0</ele><time>2026-04-21T08:31:44.938Z</time></trkpt><trkpt lat="40.6626481" lon="9.2024355"><ele>624.0</ele><time>2026-04-21T08:31:45.935Z</time></trkpt><trkpt lat="40.6625706" lon="9.2023934"><ele>624.0</ele><time>2026-04-21T08:31:46.941Z</time></trkpt><trkpt lat="40.6624897" lon="9.2023679"><ele>621.8</ele><time>2026-04-21T08:31:47.938Z</time></trkpt><trkpt lat="40.662391" lon="9.2023729"><ele>619.5999999999999</ele><time>2026-04-21T08:31:48.944Z</time></trkpt><trkpt lat="40.6623001" lon="9.2023765"><ele>617.4</ele><time>2026-04-21T08:31:49.948Z</time></trkpt><trkpt lat="40.6622135" lon="9.202386"><ele>615.1999999999999</ele><time>2026-04-21T08:31:50.945Z</time></trkpt><trkpt lat="40.6621277" lon="9.2024027"><ele>613.0</ele><time>2026-04-21T08:31:51.947Z</time></trkpt><trkpt lat="40.6620388" lon="9.2024281"><ele>611.5</ele><time>2026-04-21T08:31:52.949Z</time></trkpt><trkpt lat="40.661935" lon="9.2024569"><ele>610.0</ele><time>2026-04-21T08:31:53.947Z</time></trkpt><trkpt lat="40.6618199" lon="9.2024951"><ele>608.5</ele><time>2026-04-21T08:31:54.956Z</time></trkpt><trkpt lat="40.6617085" lon="9.202536"><ele>607.0</ele><time>2026-04-21T08:31:55.958Z</time></trkpt><trkpt lat="40.6615946" lon="9.2025919"><ele>607.0</ele><time>2026-04-21T08:31:56.957Z</time></trkpt><trkpt lat="40.6614932" lon="9.2026514"><ele>607.0</ele><time>2026-04-21T08:31:57.952Z</time></trkpt><trkpt lat="40.6613914" lon="9.2027316"><ele>607.0</ele><time>2026-04-21T08:31:58.96Z</time></trkpt><trkpt lat="40.6612767" lon="9.2028033"><ele>607.0</ele><time>2026-04-21T08:31:59.952Z</time></trkpt><trkpt lat="40.6611582" lon="9.202873"><ele>607.75</ele><time>2026-04-21T08:32:00.954Z</time></trkpt><trkpt lat="40.6610484" lon="9.2029336"><ele>608.5</ele><time>2026-04-21T08:32:01.95Z</time></trkpt><trkpt lat="40.6609376" lon="9.2030119"><ele>609.25</ele><time>2026-04-21T08:32:02.951Z</time></trkpt><trkpt lat="40.6608304" lon="9.2031004"><ele>610.0</ele><time>2026-04-21T08:32:03.952Z</time></trkpt><trkpt lat="40.6607363" lon="9.2031843"><ele>610.0</ele><time>2026-04-21T08:32:04.952Z</time></trkpt><trkpt lat="40.6606427" lon="9.2032583"><ele>610.0</ele><time>2026-04-21T08:32:05.954Z</time></trkpt><trkpt lat="40.6605531" lon="9.2033329"><ele>610.0</ele><time>2026-04-21T08:32:06.955Z</time></trkpt><trkpt lat="40.6604649" lon="9.2034134"><ele>610.0</ele><time>2026-04-21T08:32:07.955Z</time></trkpt><trkpt lat="40.6603713" lon="9.2035099"><ele>610.0</ele><time>2026-04-21T08:32:08.951Z</time></trkpt><trkpt lat="40.6602835" lon="9.2036129"><ele>614.0</ele><time>2026-04-21T08:32:09.949Z</time></trkpt><trkpt lat="40.6601801" lon="9.2037192"><ele>618.0</ele><time>2026-04-21T08:32:10.953Z</time></trkpt><trkpt lat="40.6600832" lon="9.2038205"><ele>622.0</ele><time>2026-04-21T08:32:11.949Z</time></trkpt><trkpt lat="40.6599926" lon="9.2039128"><ele>626.0</ele><time>2026-04-21T08:32:12.948Z</time></trkpt><trkpt lat="40.6599244" lon="9.20401"><ele>626.0</ele><time>2026-04-21T08:32:13.948Z</time></trkpt><trkpt lat="40.6598779" lon="9.2041173"><ele>626.0</ele><time>2026-04-21T08:32:14.944Z</time></trkpt><trkpt lat="40.6598414" lon="9.2042584"><ele>626.0</ele><time>2026-04-21T08:32:15.945Z</time></trkpt><trkpt lat="40.6598149" lon="9.2044134"><ele>626.0</ele><time>2026-04-21T08:32:16.95Z</time></trkpt><trkpt lat="40.6597645" lon="9.204561"><ele>626.0</ele><time>2026-04-21T08:32:17.95Z</time></trkpt><trkpt lat="40.6597167" lon="9.2046959"><ele>626.0</ele><time>2026-04-21T08:32:18.951Z</time></trkpt><trkpt lat="40.6596802" lon="9.2048037"><ele>626.0</ele><time>2026-04-21T08:32:19.953Z</time></trkpt><trkpt lat="40.659646" lon="9.2048796"><ele>626.0</ele><time>2026-04-21T08:32:20.948Z</time></trkpt><trkpt lat="40.6595795" lon="9.204959"><ele>626.0</ele><time>2026-04-21T08:32:22.95Z</time></trkpt><trkpt lat="40.6595093" lon="9.2049535"><ele>626.0</ele><time>2026-04-21T08:32:23.949Z</time></trkpt><trkpt lat="40.6594142" lon="9.2049146"><ele>626.5</ele><time>2026-04-21T08:32:24.95Z</time></trkpt><trkpt lat="40.6592996" lon="9.2048571"><ele>627.0</ele><time>2026-04-21T08:32:25.947Z</time></trkpt><trkpt lat="40.6591865" lon="9.2048331"><ele>627.5</ele><time>2026-04-21T08:32:26.948Z</time></trkpt><trkpt lat="40.6590696" lon="9.2048357"><ele>628.0</ele><time>2026-04-21T08:32:27.947Z</time></trkpt><trkpt lat="40.6589523" lon="9.2048782"><ele>628.0</ele><time>2026-04-21T08:32:28.945Z</time></trkpt><trkpt lat="40.6588253" lon="9.204907"><ele>628.0</ele><time>2026-04-21T08:32:29.946Z</time></trkpt><trkpt lat="40.6587157" lon="9.2049398"><ele>628.0</ele><time>2026-04-21T08:32:30.95Z</time></trkpt><trkpt lat="40.6586115" lon="9.204988"><ele>628.0</ele><time>2026-04-21T08:32:31.945Z</time></trkpt><trkpt lat="40.658519" lon="9.2050543"><ele>630.0</ele><time>2026-04-21T08:32:32.951Z</time></trkpt><trkpt lat="40.6584373" lon="9.205116"><ele>632.0</ele><time>2026-04-21T08:32:33.947Z</time></trkpt><trkpt lat="40.6583681" lon="9.2051791"><ele>634.0</ele><time>2026-04-21T08:32:34.939Z</time></trkpt><trkpt lat="40.6583156" lon="9.2052616"><ele>636.0</ele><time>2026-04-21T08:32:35.935Z</time></trkpt><trkpt lat="40.6582737" lon="9.2053638"><ele>638.0</ele><time>2026-04-21T08:32:36.946Z</time></trkpt><trkpt lat="40.6582369" lon="9.2055005"><ele>638.0</ele><time>2026-04-21T08:32:37.943Z</time></trkpt><trkpt lat="40.6582016" lon="9.2056427"><ele>638.0</ele><time>2026-04-21T08:32:38.943Z</time></trkpt><trkpt lat="40.6581541" lon="9.205774"><ele>638.0</ele><time>2026-04-21T08:32:39.942Z</time></trkpt><trkpt lat="40.658078" lon="9.2059069"><ele>638.0</ele><time>2026-04-21T08:32:40.949Z</time></trkpt><trkpt lat="40.6579926" lon="9.2060341"><ele>639.4</ele><time>2026-04-21T08:32:41.949Z</time></trkpt><trkpt lat="40.6579251" lon="9.2061448"><ele>640.8</ele><time>2026-04-21T08:32:42.951Z</time></trkpt><trkpt lat="40.6578611" lon="9.2062176"><ele>642.2</ele><time>2026-04-21T08:32:43.954Z</time></trkpt><trkpt lat="40.6577918" lon="9.2062558"><ele>643.6</ele><time>2026-04-21T08:32:44.953Z</time></trkpt><trkpt lat="40.6576845" lon="9.2061843"><ele>645.0</ele><time>2026-04-21T08:32:46.96Z</time></trkpt><trkpt lat="40.6576228" lon="9.2060933"><ele>645.0</ele><time>2026-04-21T08:32:47.952Z</time></trkpt><trkpt lat="40.6575387" lon="9.2060138"><ele>645.0</ele><time>2026-04-21T08:32:48.95Z</time></trkpt><trkpt lat="40.6574502" lon="9.2059614"><ele>645.0</ele><time>2026-04-21T08:32:49.956Z</time></trkpt><trkpt lat="40.6573541" lon="9.205944"><ele>645.0</ele><time>2026-04-21T08:32:50.947Z</time></trkpt><trkpt lat="40.6572511" lon="9.2059617"><ele>645.0</ele><time>2026-04-21T08:32:51.955Z</time></trkpt><trkpt lat="40.6571686" lon="9.2060167"><ele>645.0</ele><time>2026-04-21T08:32:52.951Z</time></trkpt><trkpt lat="40.6570814" lon="9.2060934"><ele>645.0</ele><time>2026-04-21T08:32:53.948Z</time></trkpt><trkpt lat="40.6569884" lon="9.2062019"><ele>645.0</ele><time>2026-04-21T08:32:54.944Z</time></trkpt><trkpt lat="40.6569036" lon="9.2063137"><ele>645.0</ele><time>2026-04-21T08:32:55.952Z</time></trkpt><trkpt lat="40.6568268" lon="9.2064395"><ele>644.25</ele><time>2026-04-21T08:32:56.95Z</time></trkpt><trkpt lat="40.6567461" lon="9.2065471"><ele>643.5</ele><time>2026-04-21T08:32:57.949Z</time></trkpt><trkpt lat="40.6566598" lon="9.2066315"><ele>642.75</ele><time>2026-04-21T08:32:58.953Z</time></trkpt><trkpt lat="40.6565592" lon="9.2067201"><ele>642.0</ele><time>2026-04-21T08:32:59.952Z</time></trkpt><trkpt lat="40.6564641" lon="9.2068213"><ele>642.0</ele><time>2026-04-21T08:33:00.959Z</time></trkpt><trkpt lat="40.6563691" lon="9.2069329"><ele>642.0</ele><time>2026-04-21T08:33:01.948Z</time></trkpt><trkpt lat="40.6562934" lon="9.2070522"><ele>642.0</ele><time>2026-04-21T08:33:02.955Z</time></trkpt><trkpt lat="40.6562376" lon="9.2071902"><ele>642.0</ele><time>2026-04-21T08:33:03.947Z</time></trkpt><trkpt lat="40.6561753" lon="9.207333"><ele>646.5</ele><time>2026-04-21T08:33:04.951Z</time></trkpt><trkpt lat="40.6561198" lon="9.2074686"><ele>651.0</ele><time>2026-04-21T08:33:05.954Z</time></trkpt><trkpt lat="40.6560499" lon="9.2075865"><ele>655.5</ele><time>2026-04-21T08:33:06.951Z</time></trkpt><trkpt lat="40.6559975" lon="9.2077253"><ele>660.0</ele><time>2026-04-21T08:33:07.95Z</time></trkpt><trkpt lat="40.6559486" lon="9.207857"><ele>660.0</ele><time>2026-04-21T08:33:08.95Z</time></trkpt><trkpt lat="40.6559077" lon="9.2079813"><ele>660.0</ele><time>2026-04-21T08:33:09.95Z</time></trkpt><trkpt lat="40.6558682" lon="9.208098"><ele>660.0</ele><time>2026-04-21T08:33:10.945Z</time></trkpt><trkpt lat="40.6557975" lon="9.2082061"><ele>660.0</ele><time>2026-04-21T08:33:12.956Z</time></trkpt><trkpt lat="40.6556692" lon="9.2082157"><ele>660.0</ele><time>2026-04-21T08:33:14.957Z</time></trkpt><trkpt lat="40.6555647" lon="9.2082242"><ele>659.6</ele><time>2026-04-21T08:33:15.953Z</time></trkpt><trkpt lat="40.6554563" lon="9.2082535"><ele>659.2</ele><time>2026-04-21T08:33:16.963Z</time></trkpt><trkpt lat="40.6553588" lon="9.2082982"><ele>658.8</ele><time>2026-04-21T08:33:17.946Z</time></trkpt><trkpt lat="40.6552708" lon="9.2083482"><ele>658.4</ele><time>2026-04-21T08:33:18.957Z</time></trkpt><trkpt lat="40.6552104" lon="9.2084474"><ele>658.0</ele><time>2026-04-21T08:33:19.958Z</time></trkpt><trkpt lat="40.6551547" lon="9.208565"><ele>658.0</ele><time>2026-04-21T08:33:20.959Z</time></trkpt><trkpt lat="40.6550922" lon="9.2086848"><ele>658.0</ele><time>2026-04-21T08:33:21.957Z</time></trkpt><trkpt lat="40.6550341" lon="9.2087944"><ele>658.0</ele><time>2026-04-21T08:33:22.957Z</time></trkpt><trkpt lat="40.6549902" lon="9.2089034"><ele>658.0</ele><time>2026-04-21T08:33:23.952Z</time></trkpt><trkpt lat="40.6549539" lon="9.2090025"><ele>658.0</ele><time>2026-04-21T08:33:24.951Z</time></trkpt><trkpt lat="40.6549149" lon="9.209086"><ele>654.4</ele><time>2026-04-21T08:33:25.95Z</time></trkpt><trkpt lat="40.6548582" lon="9.2091649"><ele>650.8</ele><time>2026-04-21T08:33:26.953Z</time></trkpt><trkpt lat="40.6547887" lon="9.2092293"><ele>647.2</ele><time>2026-04-21T08:33:27.956Z</time></trkpt><trkpt lat="40.6547099" lon="9.2092825"><ele>643.6</ele><time>2026-04-21T08:33:28.956Z</time></trkpt><trkpt lat="40.6546172" lon="9.2093365"><ele>640.0</ele><time>2026-04-21T08:33:29.954Z</time></trkpt><trkpt lat="40.6545098" lon="9.2093874"><ele>640.4</ele><time>2026-04-21T08:33:30.956Z</time></trkpt><trkpt lat="40.6543999" lon="9.2094266"><ele>640.8</ele><time>2026-04-21T08:33:31.959Z</time></trkpt><trkpt lat="40.6542901" lon="9.2094574"><ele>641.2</ele><time>2026-04-21T08:33:32.955Z</time></trkpt><trkpt lat="40.6541937" lon="9.2094844"><ele>641.6</ele><time>2026-04-21T08:33:33.954Z</time></trkpt><trkpt lat="40.6540993" lon="9.2095193"><ele>642.0</ele><time>2026-04-21T08:33:34.956Z</time></trkpt><trkpt lat="40.6540015" lon="9.2095793"><ele>642.0</ele><time>2026-04-21T08:33:35.959Z</time></trkpt><trkpt lat="40.653908" lon="9.2096738"><ele>642.0</ele><time>2026-04-21T08:33:36.955Z</time></trkpt><trkpt lat="40.6538334" lon="9.2097724"><ele>642.0</ele><time>2026-04-21T08:33:37.953Z</time></trkpt><trkpt lat="40.6537656" lon="9.2098868"><ele>642.0</ele><time>2026-04-21T08:33:38.957Z</time></trkpt><trkpt lat="40.6537172" lon="9.2099848"><ele>642.0</ele><time>2026-04-21T08:33:39.958Z</time></trkpt><trkpt lat="40.6536786" lon="9.2100645"><ele>642.5</ele><time>2026-04-21T08:33:40.959Z</time></trkpt><trkpt lat="40.6535962" lon="9.2101737"><ele>643.0</ele><time>2026-04-21T08:33:42.96Z</time></trkpt><trkpt lat="40.6535298" lon="9.2102141"><ele>643.5</ele><time>2026-04-21T08:33:43.967Z</time></trkpt><trkpt lat="40.6534587" lon="9.2102578"><ele>644.0</ele><time>2026-04-21T08:33:44.958Z</time></trkpt><trkpt lat="40.6533897" lon="9.2102834"><ele>644.5</ele><time>2026-04-21T08:33:45.956Z</time></trkpt><trkpt lat="40.6533251" lon="9.210319"><ele>645.0</ele><time>2026-04-21T08:33:46.962Z</time></trkpt><trkpt lat="40.6532639" lon="9.2103579"><ele>645.0</ele><time>2026-04-21T08:33:47.959Z</time></trkpt><trkpt lat="40.6531933" lon="9.2104054"><ele>645.0</ele><time>2026-04-21T08:33:48.956Z</time></trkpt><trkpt lat="40.6531401" lon="9.2104601"><ele>645.0</ele><time>2026-04-21T08:33:49.958Z</time></trkpt><trkpt lat="40.6530847" lon="9.2105974"><ele>645.0</ele><time>2026-04-21T08:33:51.953Z</time></trkpt><trkpt lat="40.6530754" lon="9.2106823"><ele>645.0</ele><time>2026-04-21T08:33:52.955Z</time></trkpt><trkpt lat="40.6530906" lon="9.2107701"><ele>645.0</ele><time>2026-04-21T08:33:53.952Z</time></trkpt><trkpt lat="40.6531318" lon="9.2108939"><ele>646.0</ele><time>2026-04-21T08:33:54.946Z</time></trkpt><trkpt lat="40.6531849" lon="9.2110338"><ele>647.0</ele><time>2026-04-21T08:33:55.955Z</time></trkpt><trkpt lat="40.6532224" lon="9.211169"><ele>648.0</ele><time>2026-04-21T08:33:56.957Z</time></trkpt><trkpt lat="40.6532514" lon="9.2113106"><ele>649.0</ele><time>2026-04-21T08:33:57.958Z</time></trkpt><trkpt lat="40.6532785" lon="9.2114464"><ele>650.0</ele><time>2026-04-21T08:33:58.957Z</time></trkpt><trkpt lat="40.6533034" lon="9.2115718"><ele>650.8333333333333</ele><time>2026-04-21T08:33:59.956Z</time></trkpt><trkpt lat="40.6533304" lon="9.2116867"><ele>651.6666666666666</ele><time>2026-04-21T08:34:00.956Z</time></trkpt><trkpt lat="40.6533659" lon="9.2117854"><ele>652.5</ele><time>2026-04-21T08:34:01.956Z</time></trkpt><trkpt lat="40.6534071" lon="9.2118597"><ele>653.3333333333334</ele><time>2026-04-21T08:34:02.962Z</time></trkpt><trkpt lat="40.6534585" lon="9.2119166"><ele>654.1666666666667</ele><time>2026-04-21T08:34:03.961Z</time></trkpt><trkpt lat="40.6535258" lon="9.2119739"><ele>655.0</ele><time>2026-04-21T08:34:04.965Z</time></trkpt><trkpt lat="40.6535925" lon="9.2120352"><ele>654.0</ele><time>2026-04-21T08:34:05.96Z</time></trkpt><trkpt lat="40.6536558" lon="9.2120888"><ele>653.0</ele><time>2026-04-21T08:34:06.962Z</time></trkpt><trkpt lat="40.653722" lon="9.2121518"><ele>652.0</ele><time>2026-04-21T08:34:07.962Z</time></trkpt><trkpt lat="40.6537857" lon="9.2122036"><ele>651.0</ele><time>2026-04-21T08:34:08.961Z</time></trkpt><trkpt lat="40.6538505" lon="9.2122529"><ele>650.0</ele><time>2026-04-21T08:34:09.962Z</time></trkpt><trkpt lat="40.6539217" lon="9.2122929"><ele>649.0</ele><time>2026-04-21T08:34:10.962Z</time></trkpt><trkpt lat="40.6539953" lon="9.2123377"><ele>649.0</ele><time>2026-04-21T08:34:11.963Z</time></trkpt><trkpt lat="40.6540757" lon="9.212404"><ele>649.0</ele><time>2026-04-21T08:34:12.965Z</time></trkpt><trkpt lat="40.6541574" lon="9.212458"><ele>649.0</ele><time>2026-04-21T08:34:14.036Z</time></trkpt><trkpt lat="40.6542371" lon="9.2125162"><ele>649.0</ele><time>2026-04-21T08:34:15.045Z</time></trkpt><trkpt lat="40.6543141" lon="9.2125707"><ele>649.0</ele><time>2026-04-21T08:34:16.045Z</time></trkpt><trkpt lat="40.65439" lon="9.2126284"><ele>649.0</ele><time>2026-04-21T08:34:17.053Z</time></trkpt><trkpt lat="40.654464" lon="9.2126852"><ele>649.0</ele><time>2026-04-21T08:34:18.037Z</time></trkpt><trkpt lat="40.6545251" lon="9.2127449"><ele>649.0</ele><time>2026-04-21T08:34:19.043Z</time></trkpt><trkpt lat="40.6545745" lon="9.2128152"><ele>649.0</ele><time>2026-04-21T08:34:20.037Z</time></trkpt><trkpt lat="40.6546113" lon="9.2128969"><ele>649.0</ele><time>2026-04-21T08:34:21.033Z</time></trkpt><trkpt lat="40.654641" lon="9.2129856"><ele>649.0</ele><time>2026-04-21T08:34:22.022Z</time></trkpt><trkpt lat="40.6546509" lon="9.2130784"><ele>648.6666666666667</ele><time>2026-04-21T08:34:23.029Z</time></trkpt><trkpt lat="40.6546536" lon="9.2131685"><ele>648.3333333333334</ele><time>2026-04-21T08:34:24.027Z</time></trkpt><trkpt lat="40.6546473" lon="9.2132664"><ele>648.0</ele><time>2026-04-21T08:34:25.031Z</time></trkpt><trkpt lat="40.6546268" lon="9.2133764"><ele>647.6666666666666</ele><time>2026-04-21T08:34:27.036Z</time></trkpt><trkpt lat="40.6545943" lon="9.2134655"><ele>647.3333333333333</ele><time>2026-04-21T08:34:28.034Z</time></trkpt><trkpt lat="40.654518" lon="9.2135466"><ele>647.0</ele><time>2026-04-21T08:34:29.013Z</time></trkpt><trkpt lat="40.6545131" lon="9.2134117"><ele>647.0</ele><time>2026-04-21T08:34:31.012Z</time></trkpt><trkpt lat="40.6547345" lon="9.2137352"><ele>647.0</ele><time>2026-04-21T08:34:33.019Z</time></trkpt><trkpt lat="40.654833" lon="9.2137213"><ele>647.0</ele><time>2026-04-21T08:34:35Z</time></trkpt><trkpt lat="40.6548938" lon="9.2137497"><ele>647.0</ele><time>2026-04-21T08:34:37.021Z</time></trkpt><trkpt lat="40.6550555" lon="9.2137014"><ele>647.0</ele><time>2026-04-21T08:34:38.031Z</time></trkpt><trkpt lat="40.6551162" lon="9.2136783"><ele>647.0</ele><time>2026-04-21T08:34:39.025Z</time></trkpt><trkpt lat="40.6552372" lon="9.2136801"><ele>647.0</ele><time>2026-04-21T08:34:45.021Z</time></trkpt><trkpt lat="40.6553114" lon="9.2136262"><ele>647.0</ele><time>2026-04-21T08:34:46.035Z</time></trkpt><trkpt lat="40.6556378" lon="9.2131083"><ele>656.5</ele><time>2026-04-21T08:34:47.04Z</time></trkpt><trkpt lat="40.6557379" lon="9.2128544"><ele>666.0</ele><time>2026-04-21T08:34:48.031Z</time></trkpt><trkpt lat="40.6556462" lon="9.2131476"><ele>665.4</ele><time>2026-04-21T08:34:49.025Z</time></trkpt><trkpt lat="40.6556938" lon="9.213383"><ele>664.8</ele><time>2026-04-21T08:34:50.943Z</time></trkpt><trkpt lat="40.6557478" lon="9.213446"><ele>664.1999999999999</ele><time>2026-04-21T08:34:51.942Z</time></trkpt><trkpt lat="40.6558121" lon="9.2134751"><ele>663.5999999999999</ele><time>2026-04-21T08:34:52.943Z</time></trkpt><trkpt lat="40.6558853" lon="9.2135076"><ele>663.0</ele><time>2026-04-21T08:34:53.955Z</time></trkpt><trkpt lat="40.655959" lon="9.2135475"><ele>663.0</ele><time>2026-04-21T08:34:54.952Z</time></trkpt><trkpt lat="40.6560402" lon="9.2135966"><ele>663.0</ele><time>2026-04-21T08:34:55.951Z</time></trkpt><trkpt lat="40.6561142" lon="9.2136783"><ele>663.0</ele><time>2026-04-21T08:34:56.955Z</time></trkpt><trkpt lat="40.6561846" lon="9.2137759"><ele>663.0</ele><time>2026-04-21T08:34:57.951Z</time></trkpt><trkpt lat="40.6562499" lon="9.2138804"><ele>663.0</ele><time>2026-04-21T08:34:58.948Z</time></trkpt><trkpt lat="40.656311" lon="9.213962"><ele>666.5999999999999</ele><time>2026-04-21T08:34:59.955Z</time></trkpt><trkpt lat="40.65637" lon="9.214046"><ele>670.1999999999999</ele><time>2026-04-21T08:35:00.953Z</time></trkpt><trkpt lat="40.656441" lon="9.2141265"><ele>673.8</ele><time>2026-04-21T08:35:01.954Z</time></trkpt><trkpt lat="40.6565193" lon="9.2142016"><ele>677.4</ele><time>2026-04-21T08:35:02.955Z</time></trkpt><trkpt lat="40.6565898" lon="9.2142849"><ele>681.0</ele><time>2026-04-21T08:35:03.947Z</time></trkpt><trkpt lat="40.6566542" lon="9.2143513"><ele>681.0000000000001</ele><time>2026-04-21T08:35:04.956Z</time></trkpt><trkpt lat="40.6567094" lon="9.2144292"><ele>681.0</ele><time>2026-04-21T08:35:05.947Z</time></trkpt><trkpt lat="40.6567508" lon="9.2144975"><ele>681.0</ele><time>2026-04-21T08:35:06.951Z</time></trkpt><trkpt lat="40.6567921" lon="9.2145853"><ele>681.0</ele><time>2026-04-21T08:35:07.955Z</time></trkpt><trkpt lat="40.6568265" lon="9.2146758"><ele>681.0</ele><time>2026-04-21T08:35:08.957Z</time></trkpt><trkpt lat="40.6568521" lon="9.2147549"><ele>681.0000000000001</ele><time>2026-04-21T08:35:09.951Z</time></trkpt><trkpt lat="40.6568831" lon="9.2148314"><ele>681.0</ele><time>2026-04-21T08:35:10.95Z</time></trkpt><trkpt lat="40.6569263" lon="9.2148961"><ele>683.8333333333334</ele><time>2026-04-21T08:35:11.955Z</time></trkpt><trkpt lat="40.6569802" lon="9.214948"><ele>686.6666666666666</ele><time>2026-04-21T08:35:12.952Z</time></trkpt><trkpt lat="40.657039" lon="9.2150019"><ele>689.5</ele><time>2026-04-21T08:35:13.957Z</time></trkpt><trkpt lat="40.6571077" lon="9.2150563"><ele>692.3333333333333</ele><time>2026-04-21T08:35:14.95Z</time></trkpt><trkpt lat="40.6571865" lon="9.2151275"><ele>695.1666666666666</ele><time>2026-04-21T08:35:15.955Z</time></trkpt><trkpt lat="40.6572678" lon="9.2151938"><ele>698.0</ele><time>2026-04-21T08:35:16.956Z</time></trkpt><trkpt lat="40.6573546" lon="9.2152567"><ele>698.0</ele><time>2026-04-21T08:35:17.952Z</time></trkpt><trkpt lat="40.6574327" lon="9.2153282"><ele>698.0</ele><time>2026-04-21T08:35:18.954Z</time></trkpt><trkpt lat="40.6575075" lon="9.215393"><ele>698.0</ele><time>2026-04-21T08:35:19.961Z</time></trkpt><trkpt lat="40.6575845" lon="9.2154517"><ele>698.0</ele><time>2026-04-21T08:35:20.956Z</time></trkpt><trkpt lat="40.6576633" lon="9.2154925"><ele>698.0</ele><time>2026-04-21T08:35:21.954Z</time></trkpt><trkpt lat="40.6577351" lon="9.2155158"><ele>698.0</ele><time>2026-04-21T08:35:22.957Z</time></trkpt><trkpt lat="40.6578162" lon="9.2155302"><ele>701.0</ele><time>2026-04-21T08:35:23.954Z</time></trkpt><trkpt lat="40.657911" lon="9.2155307"><ele>704.0</ele><time>2026-04-21T08:35:24.955Z</time></trkpt><trkpt lat="40.6580064" lon="9.2155305"><ele>707.0</ele><time>2026-04-21T08:35:25.957Z</time></trkpt><trkpt lat="40.6580926" lon="9.2155199"><ele>710.0</ele><time>2026-04-21T08:35:26.959Z</time></trkpt><trkpt lat="40.6581627" lon="9.2155076"><ele>713.0</ele><time>2026-04-21T08:35:27.957Z</time></trkpt><trkpt lat="40.6582816" lon="9.2154462"><ele>713.0</ele><time>2026-04-21T08:35:29.95Z</time></trkpt><trkpt lat="40.6583469" lon="9.215398"><ele>713.0</ele><time>2026-04-21T08:35:30.954Z</time></trkpt><trkpt lat="40.6584026" lon="9.2153193"><ele>713.0</ele><time>2026-04-21T08:35:31.949Z</time></trkpt><trkpt lat="40.6584576" lon="9.2152097"><ele>713.0</ele><time>2026-04-21T08:35:32.956Z</time></trkpt><trkpt lat="40.6585167" lon="9.2151029"><ele>713.0</ele><time>2026-04-21T08:35:33.954Z</time></trkpt><trkpt lat="40.6585831" lon="9.2150076"><ele>714.0</ele><time>2026-04-21T08:35:34.95Z</time></trkpt><trkpt lat="40.6586437" lon="9.2149333"><ele>715.0</ele><time>2026-04-21T08:35:35.957Z</time></trkpt><trkpt lat="40.6586953" lon="9.2148614"><ele>716.0</ele><time>2026-04-21T08:35:36.949Z</time></trkpt><trkpt lat="40.6587584" lon="9.214817"><ele>717.0</ele><time>2026-04-21T08:35:37.942Z</time></trkpt><trkpt lat="40.6588301" lon="9.2147854"><ele>718.0</ele><time>2026-04-21T08:35:38.955Z</time></trkpt><trkpt lat="40.6589063" lon="9.2147805"><ele>719.0</ele><time>2026-04-21T08:35:39.952Z</time></trkpt><trkpt lat="40.6589778" lon="9.2148104"><ele>719.6</ele><time>2026-04-21T08:35:40.949Z</time></trkpt><trkpt lat="40.6590498" lon="9.2148702"><ele>720.2</ele><time>2026-04-21T08:35:41.953Z</time></trkpt><trkpt lat="40.6591285" lon="9.2149433"><ele>720.8000000000001</ele><time>2026-04-21T08:35:42.952Z</time></trkpt><trkpt lat="40.6592131" lon="9.2150194"><ele>721.4000000000001</ele><time>2026-04-21T08:35:43.948Z</time></trkpt><trkpt lat="40.6593051" lon="9.2150984"><ele>722.0</ele><time>2026-04-21T08:35:44.953Z</time></trkpt><trkpt lat="40.6593886" lon="9.2151942"><ele>725.2</ele><time>2026-04-21T08:35:45.95Z</time></trkpt><trkpt lat="40.6594578" lon="9.2152883"><ele>728.4000000000001</ele><time>2026-04-21T08:35:46.955Z</time></trkpt><trkpt lat="40.6595288" lon="9.2153692"><ele>731.5999999999999</ele><time>2026-04-21T08:35:47.959Z</time></trkpt><trkpt lat="40.6596177" lon="9.2154375"><ele>734.8</ele><time>2026-04-21T08:35:48.96Z</time></trkpt><trkpt lat="40.6597053" lon="9.2155052"><ele>738.0</ele><time>2026-04-21T08:35:49.963Z</time></trkpt><trkpt lat="40.659796" lon="9.2155674"><ele>738.0</ele><time>2026-04-21T08:35:50.959Z</time></trkpt><trkpt lat="40.6598932" lon="9.2156169"><ele>738.0</ele><time>2026-04-21T08:35:51.958Z</time></trkpt><trkpt lat="40.659991" lon="9.2156853"><ele>738.0</ele><time>2026-04-21T08:35:52.962Z</time></trkpt><trkpt lat="40.6600985" lon="9.2157659"><ele>738.0</ele><time>2026-04-21T08:35:53.958Z</time></trkpt><trkpt lat="40.6602006" lon="9.2158496"><ele>739.2</ele><time>2026-04-21T08:35:54.954Z</time></trkpt><trkpt lat="40.6602915" lon="9.2159361"><ele>740.4</ele><time>2026-04-21T08:35:55.956Z</time></trkpt><trkpt lat="40.6603803" lon="9.2160092"><ele>741.6</ele><time>2026-04-21T08:35:56.96Z</time></trkpt><trkpt lat="40.6604618" lon="9.2160822"><ele>742.8000000000001</ele><time>2026-04-21T08:35:57.959Z</time></trkpt><trkpt lat="40.6605492" lon="9.2161464"><ele>744.0</ele><time>2026-04-21T08:35:58.951Z</time></trkpt><trkpt lat="40.6606464" lon="9.2161992"><ele>744.0</ele><time>2026-04-21T08:35:59.958Z</time></trkpt><trkpt lat="40.6607549" lon="9.2162451"><ele>744.0</ele><time>2026-04-21T08:36:00.962Z</time></trkpt><trkpt lat="40.6608795" lon="9.2162893"><ele>744.0</ele><time>2026-04-21T08:36:01.961Z</time></trkpt><trkpt lat="40.660995" lon="9.2163346"><ele>744.0</ele><time>2026-04-21T08:36:02.958Z</time></trkpt><trkpt lat="40.6611131" lon="9.2163803"><ele>744.2</ele><time>2026-04-21T08:36:03.951Z</time></trkpt><trkpt lat="40.6612156" lon="9.2164362"><ele>744.4000000000001</ele><time>2026-04-21T08:36:04.955Z</time></trkpt><trkpt lat="40.6613071" lon="9.2164927"><ele>744.6</ele><time>2026-04-21T08:36:05.953Z</time></trkpt><trkpt lat="40.6613972" lon="9.2165392"><ele>744.8</ele><time>2026-04-21T08:36:06.96Z</time></trkpt><trkpt lat="40.6614841" lon="9.2165753"><ele>745.0</ele><time>2026-04-21T08:36:07.957Z</time></trkpt><trkpt lat="40.6615747" lon="9.2166167"><ele>745.0</ele><time>2026-04-21T08:36:08.957Z</time></trkpt><trkpt lat="40.6616554" lon="9.2166605"><ele>745.0</ele><time>2026-04-21T08:36:09.956Z</time></trkpt><trkpt lat="40.6617336" lon="9.2166881"><ele>745.0</ele><time>2026-04-21T08:36:10.947Z</time></trkpt><trkpt lat="40.661802" lon="9.2166901"><ele>745.0</ele><time>2026-04-21T08:36:11.959Z</time></trkpt><trkpt lat="40.6618699" lon="9.2166521"><ele>745.0</ele><time>2026-04-21T08:36:12.952Z</time></trkpt><trkpt lat="40.6619428" lon="9.2166219"><ele>745.0</ele><time>2026-04-21T08:36:13.958Z</time></trkpt><trkpt lat="40.6620125" lon="9.2165989"><ele>745.1666666666667</ele><time>2026-04-21T08:36:14.956Z</time></trkpt><trkpt lat="40.6620811" lon="9.216603"><ele>745.3333333333334</ele><time>2026-04-21T08:36:15.954Z</time></trkpt><trkpt lat="40.662151" lon="9.2166311"><ele>745.5</ele><time>2026-04-21T08:36:16.956Z</time></trkpt><trkpt lat="40.6622296" lon="9.2166628"><ele>745.6666666666666</ele><time>2026-04-21T08:36:17.955Z</time></trkpt><trkpt lat="40.6623117" lon="9.21671"><ele>745.8333333333333</ele><time>2026-04-21T08:36:18.96Z</time></trkpt><trkpt lat="40.6624037" lon="9.2167642"><ele>746.0</ele><time>2026-04-21T08:36:19.963Z</time></trkpt><trkpt lat="40.6625105" lon="9.2168314"><ele>746.0</ele><time>2026-04-21T08:36:20.961Z</time></trkpt><trkpt lat="40.6626145" lon="9.2169146"><ele>746.0</ele><time>2026-04-21T08:36:21.96Z</time></trkpt><trkpt lat="40.6627136" lon="9.2170092"><ele>746.0</ele><time>2026-04-21T08:36:22.967Z</time></trkpt><trkpt lat="40.6627993" lon="9.2170997"><ele>746.0</ele><time>2026-04-21T08:36:23.965Z</time></trkpt><trkpt lat="40.6628954" lon="9.2171982"><ele>745.75</ele><time>2026-04-21T08:36:24.964Z</time></trkpt><trkpt lat="40.6629828" lon="9.217301"><ele>745.5</ele><time>2026-04-21T08:36:25.966Z</time></trkpt><trkpt lat="40.6630519" lon="9.2174181"><ele>745.25</ele><time>2026-04-21T08:36:26.966Z</time></trkpt><trkpt lat="40.6631289" lon="9.2175259"><ele>745.0</ele><time>2026-04-21T08:36:27.965Z</time></trkpt><trkpt lat="40.6632098" lon="9.2176298"><ele>747.25</ele><time>2026-04-21T08:36:28.969Z</time></trkpt><trkpt lat="40.6632987" lon="9.2177302"><ele>749.5</ele><time>2026-04-21T08:36:29.962Z</time></trkpt><trkpt lat="40.6633794" lon="9.2178236"><ele>751.75</ele><time>2026-04-21T08:36:30.967Z</time></trkpt><trkpt lat="40.6634748" lon="9.2179124"><ele>754.0</ele><time>2026-04-21T08:36:31.968Z</time></trkpt><trkpt lat="40.6635625" lon="9.2180057"><ele>756.0</ele><time>2026-04-21T08:36:32.966Z</time></trkpt><trkpt lat="40.6636673" lon="9.2180981"><ele>758.0</ele><time>2026-04-21T08:36:33.966Z</time></trkpt><trkpt lat="40.6637592" lon="9.2181768"><ele>760.0</ele><time>2026-04-21T08:36:34.961Z</time></trkpt><trkpt lat="40.6638627" lon="9.218241"><ele>762.0</ele><time>2026-04-21T08:36:35.964Z</time></trkpt><trkpt lat="40.663976" lon="9.2182961"><ele>762.0</ele><time>2026-04-21T08:36:36.964Z</time></trkpt><trkpt lat="40.6640775" lon="9.2183483"><ele>762.0</ele><time>2026-04-21T08:36:37.96Z</time></trkpt><trkpt lat="40.6641853" lon="9.218385"><ele>762.0</ele><time>2026-04-21T08:36:38.964Z</time></trkpt><trkpt lat="40.6642897" lon="9.2184016"><ele>762.0</ele><time>2026-04-21T08:36:39.953Z</time></trkpt><trkpt lat="40.6644026" lon="9.2183819"><ele>762.0</ele><time>2026-04-21T08:36:40.961Z</time></trkpt><trkpt lat="40.6645257" lon="9.218352"><ele>763.75</ele><time>2026-04-21T08:36:41.953Z</time></trkpt><trkpt lat="40.6646534" lon="9.2183294"><ele>765.5</ele><time>2026-04-21T08:36:42.955Z</time></trkpt><trkpt lat="40.6647891" lon="9.2183118"><ele>767.25</ele><time>2026-04-21T08:36:43.96Z</time></trkpt><trkpt lat="40.6649252" lon="9.2182983"><ele>769.0</ele><time>2026-04-21T08:36:44.962Z</time></trkpt><trkpt lat="40.6650572" lon="9.218288"><ele>769.0</ele><time>2026-04-21T08:36:45.966Z</time></trkpt><trkpt lat="40.6651856" lon="9.2182697"><ele>769.0</ele><time>2026-04-21T08:36:46.965Z</time></trkpt><trkpt lat="40.6652986" lon="9.2182321"><ele>769.0</ele><time>2026-04-21T08:36:47.956Z</time></trkpt><trkpt lat="40.6653975" lon="9.2181799"><ele>769.0</ele><time>2026-04-21T08:36:48.96Z</time></trkpt><trkpt lat="40.6654967" lon="9.2181142"><ele>770.2</ele><time>2026-04-21T08:36:49.958Z</time></trkpt><trkpt lat="40.6655871" lon="9.2180271"><ele>771.4000000000001</ele><time>2026-04-21T08:36:50.957Z</time></trkpt><trkpt lat="40.6656809" lon="9.2179421"><ele>772.6</ele><time>2026-04-21T08:36:51.961Z</time></trkpt><trkpt lat="40.6657645" lon="9.2178826"><ele>773.8</ele><time>2026-04-21T08:36:52.961Z</time></trkpt><trkpt lat="40.6658474" lon="9.2178544"><ele>775.0</ele><time>2026-04-21T08:36:53.963Z</time></trkpt><trkpt lat="40.6659317" lon="9.217866"><ele>775.0</ele><time>2026-04-21T08:36:54.951Z</time></trkpt><trkpt lat="40.666009" lon="9.2179194"><ele>775.0</ele><time>2026-04-21T08:36:55.966Z</time></trkpt><trkpt lat="40.6660997" lon="9.2180092"><ele>775.0</ele><time>2026-04-21T08:36:56.965Z</time></trkpt><trkpt lat="40.6661958" lon="9.2181375"><ele>775.0</ele><time>2026-04-21T08:36:57.959Z</time></trkpt><trkpt lat="40.6662922" lon="9.2182802"><ele>775.5</ele><time>2026-04-21T08:36:58.953Z</time></trkpt><trkpt lat="40.6663858" lon="9.2184284"><ele>776.0</ele><time>2026-04-21T08:36:59.953Z</time></trkpt><trkpt lat="40.6664623" lon="9.2185654"><ele>776.5</ele><time>2026-04-21T08:37:00.963Z</time></trkpt><trkpt lat="40.6665279" lon="9.2187076"><ele>777.0</ele><time>2026-04-21T08:37:01.967Z</time></trkpt><trkpt lat="40.6665855" lon="9.2188456"><ele>777.0</ele><time>2026-04-21T08:37:02.962Z</time></trkpt><trkpt lat="40.6666365" lon="9.2189614"><ele>777.0</ele><time>2026-04-21T08:37:03.964Z</time></trkpt><trkpt lat="40.6667008" lon="9.21908"><ele>777.0</ele><time>2026-04-21T08:37:04.962Z</time></trkpt><trkpt lat="40.6667793" lon="9.2191831"><ele>777.0</ele><time>2026-04-21T08:37:05.956Z</time></trkpt><trkpt lat="40.6668581" lon="9.2192898"><ele>777.0</ele><time>2026-04-21T08:37:06.955Z</time></trkpt><trkpt lat="40.6669551" lon="9.2193826"><ele>777.5</ele><time>2026-04-21T08:37:07.956Z</time></trkpt><trkpt lat="40.6670627" lon="9.2194514"><ele>778.0</ele><time>2026-04-21T08:37:08.957Z</time></trkpt><trkpt lat="40.6671946" lon="9.2194971"><ele>778.5</ele><time>2026-04-21T08:37:09.96Z</time></trkpt><trkpt lat="40.6673196" lon="9.2195481"><ele>779.0</ele><time>2026-04-21T08:37:10.961Z</time></trkpt><trkpt lat="40.6674366" lon="9.2196015"><ele>779.0</ele><time>2026-04-21T08:37:11.955Z</time></trkpt><trkpt lat="40.6675287" lon="9.2196737"><ele>779.0</ele><time>2026-04-21T08:37:12.955Z</time></trkpt><trkpt lat="40.6676247" lon="9.2197593"><ele>779.0</ele><time>2026-04-21T08:37:13.956Z</time></trkpt><trkpt lat="40.6677048" lon="9.2198474"><ele>779.0</ele><time>2026-04-21T08:37:14.957Z</time></trkpt><trkpt lat="40.667773" lon="9.2199356"><ele>779.0</ele><time>2026-04-21T08:37:15.957Z</time></trkpt><trkpt lat="40.6678319" lon="9.2200195"><ele>778.1666666666667</ele><time>2026-04-21T08:37:16.963Z</time></trkpt><trkpt lat="40.6678776" lon="9.2201027"><ele>777.3333333333334</ele><time>2026-04-21T08:37:17.963Z</time></trkpt><trkpt lat="40.667918" lon="9.2201861"><ele>776.5</ele><time>2026-04-21T08:37:18.951Z</time></trkpt><trkpt lat="40.667951" lon="9.2202571"><ele>775.6666666666667</ele><time>2026-04-21T08:37:19.962Z</time></trkpt><trkpt lat="40.6679916" lon="9.2203498"><ele>774.8333333333334</ele><time>2026-04-21T08:38:38.966Z</time></trkpt><trkpt lat="40.6680364" lon="9.220444"><ele>774.0</ele><time>2026-04-21T08:38:39.951Z</time></trkpt><trkpt lat="40.6680853" lon="9.2205556"><ele>774.25</ele><time>2026-04-21T08:38:40.966Z</time></trkpt><trkpt lat="40.6681484" lon="9.2207097"><ele>774.5</ele><time>2026-04-21T08:38:41.957Z</time></trkpt><trkpt lat="40.6682184" lon="9.2208728"><ele>774.75</ele><time>2026-04-21T08:38:42.962Z</time></trkpt><trkpt lat="40.6683043" lon="9.2210439"><ele>775.0</ele><time>2026-04-21T08:38:43.986Z</time></trkpt><trkpt lat="40.6683773" lon="9.2211979"><ele>775.0</ele><time>2026-04-21T08:38:44.971Z</time></trkpt><trkpt lat="40.6684364" lon="9.2213517"><ele>775.0</ele><time>2026-04-21T08:38:45.981Z</time></trkpt><trkpt lat="40.6684846" lon="9.2215112"><ele>775.0</ele><time>2026-04-21T08:38:47.055Z</time></trkpt><trkpt lat="40.6685309" lon="9.2216631"><ele>775.0</ele><time>2026-04-21T08:38:48.049Z</time></trkpt><trkpt lat="40.668578" lon="9.2218104"><ele>775.0</ele><time>2026-04-21T08:38:49.059Z</time></trkpt><trkpt lat="40.6686295" lon="9.2219585"><ele>775.0</ele><time>2026-04-21T08:38:50.051Z</time></trkpt><trkpt lat="40.6686833" lon="9.222108"><ele>775.0</ele><time>2026-04-21T08:38:51.053Z</time></trkpt><trkpt lat="40.6687405" lon="9.2222537"><ele>775.0</ele><time>2026-04-21T08:38:52.05Z</time></trkpt><trkpt lat="40.6687942" lon="9.2224108"><ele>775.0</ele><time>2026-04-21T08:38:53.051Z</time></trkpt><trkpt lat="40.6688746" lon="9.2225509"><ele>775.0</ele><time>2026-04-21T08:38:54.052Z</time></trkpt><trkpt lat="40.668959" lon="9.2226863"><ele>775.0</ele><time>2026-04-21T08:38:55.056Z</time></trkpt><trkpt lat="40.6690486" lon="9.2228127"><ele>775.0</ele><time>2026-04-21T08:38:56.035Z</time></trkpt><trkpt lat="40.669138" lon="9.2229392"><ele>775.0</ele><time>2026-04-21T08:38:57.044Z</time></trkpt><trkpt lat="40.6692337" lon="9.2230832"><ele>775.0</ele><time>2026-04-21T08:38:58.041Z</time></trkpt><trkpt lat="40.6693196" lon="9.2232126"><ele>775.0</ele><time>2026-04-21T08:38:59.044Z</time></trkpt><trkpt lat="40.6694015" lon="9.223341"><ele>775.0</ele><time>2026-04-21T08:39:00.054Z</time></trkpt><trkpt lat="40.669485" lon="9.2234719"><ele>774.5</ele><time>2026-04-21T08:39:01.07Z</time></trkpt><trkpt lat="40.6695777" lon="9.223587"><ele>774.0</ele><time>2026-04-21T08:39:02.059Z</time></trkpt><trkpt lat="40.6696836" lon="9.2236942"><ele>773.5</ele><time>2026-04-21T08:39:03.063Z</time></trkpt><trkpt lat="40.669798" lon="9.2238045"><ele>773.0</ele><time>2026-04-21T08:39:04.039Z</time></trkpt><trkpt lat="40.6699143" lon="9.2239169"><ele>773.0</ele><time>2026-04-21T08:39:05.049Z</time></trkpt><trkpt lat="40.6700248" lon="9.2240348"><ele>773.0</ele><time>2026-04-21T08:39:06.043Z</time></trkpt><trkpt lat="40.6701332" lon="9.2241609"><ele>773.0</ele><time>2026-04-21T08:39:07.043Z</time></trkpt><trkpt lat="40.670235" lon="9.2243"><ele>773.0</ele><time>2026-04-21T08:39:08.064Z</time></trkpt><trkpt lat="40.6703387" lon="9.2244457"><ele>773.0</ele><time>2026-04-21T08:39:09.066Z</time></trkpt><trkpt lat="40.6704462" lon="9.2245949"><ele>773.0</ele><time>2026-04-21T08:39:10.059Z</time></trkpt><trkpt lat="40.6705595" lon="9.2247322"><ele>773.0</ele><time>2026-04-21T08:39:11.06Z</time></trkpt><trkpt lat="40.6706681" lon="9.2248676"><ele>773.5</ele><time>2026-04-21T08:39:12.054Z</time></trkpt><trkpt lat="40.6707643" lon="9.2250074"><ele>774.0</ele><time>2026-04-21T08:39:13.036Z</time></trkpt><trkpt lat="40.6708499" lon="9.2251604"><ele>774.5</ele><time>2026-04-21T08:39:14.042Z</time></trkpt><trkpt lat="40.670926" lon="9.2253151"><ele>775.0</ele><time>2026-04-21T08:39:15.041Z</time></trkpt><trkpt lat="40.670997" lon="9.2254817"><ele>775.25</ele><time>2026-04-21T08:39:16.034Z</time></trkpt><trkpt lat="40.6710626" lon="9.2256521"><ele>775.5</ele><time>2026-04-21T08:39:17.062Z</time></trkpt><trkpt lat="40.6711458" lon="9.2257956"><ele>775.75</ele><time>2026-04-21T08:39:18.047Z</time></trkpt><trkpt lat="40.6712323" lon="9.2259518"><ele>776.0</ele><time>2026-04-21T08:39:19.057Z</time></trkpt><trkpt lat="40.6713317" lon="9.2260968"><ele>777.25</ele><time>2026-04-21T08:39:20.036Z</time></trkpt><trkpt lat="40.6714315" lon="9.2262401"><ele>778.5</ele><time>2026-04-21T08:39:21.044Z</time></trkpt><trkpt lat="40.6715303" lon="9.2263829"><ele>779.75</ele><time>2026-04-21T08:39:22.044Z</time></trkpt><trkpt lat="40.6716102" lon="9.2265413"><ele>781.0</ele><time>2026-04-21T08:39:23.038Z</time></trkpt><trkpt lat="40.6716791" lon="9.226717"><ele>781.25</ele><time>2026-04-21T08:39:24.048Z</time></trkpt><trkpt lat="40.671749" lon="9.2268939"><ele>781.5</ele><time>2026-04-21T08:39:25.047Z</time></trkpt><trkpt lat="40.6718272" lon="9.2270577"><ele>781.75</ele><time>2026-04-21T08:39:26.034Z</time></trkpt><trkpt lat="40.6719121" lon="9.2272227"><ele>782.0</ele><time>2026-04-21T08:39:27.038Z</time></trkpt><trkpt lat="40.6720059" lon="9.2273822"><ele>783.0</ele><time>2026-04-21T08:39:28.037Z</time></trkpt><trkpt lat="40.6720969" lon="9.227543"><ele>784.0</ele><time>2026-04-21T08:39:29.038Z</time></trkpt><trkpt lat="40.6721716" lon="9.2277139"><ele>785.0</ele><time>2026-04-21T08:39:30.053Z</time></trkpt><trkpt lat="40.6722473" lon="9.22789"><ele>785.0</ele><time>2026-04-21T08:39:31.057Z</time></trkpt><trkpt lat="40.6723265" lon="9.2280652"><ele>785.0</ele><time>2026-04-21T08:39:32.058Z</time></trkpt><trkpt lat="40.6723979" lon="9.2282485"><ele>785.0</ele><time>2026-04-21T08:39:33.052Z</time></trkpt><trkpt lat="40.672458" lon="9.2284399"><ele>787.0</ele><time>2026-04-21T08:39:34.043Z</time></trkpt><trkpt lat="40.6725126" lon="9.2286385"><ele>789.0</ele><time>2026-04-21T08:39:35.048Z</time></trkpt><trkpt lat="40.672559" lon="9.2288343"><ele>791.0</ele><time>2026-04-21T08:39:36.033Z</time></trkpt><trkpt lat="40.6726195" lon="9.2290302"><ele>791.6666666666667</ele><time>2026-04-21T08:39:37.033Z</time></trkpt><trkpt lat="40.6726928" lon="9.2292236"><ele>792.3333333333333</ele><time>2026-04-21T08:39:38.031Z</time></trkpt><trkpt lat="40.6727797" lon="9.2294036"><ele>793.0</ele><time>2026-04-21T08:39:39.036Z</time></trkpt><trkpt lat="40.6728745" lon="9.2295744"><ele>794.0</ele><time>2026-04-21T08:39:40.05Z</time></trkpt><trkpt lat="40.6729754" lon="9.229748"><ele>795.0</ele><time>2026-04-21T08:39:41.047Z</time></trkpt><trkpt lat="40.6730752" lon="9.2299252"><ele>796.0</ele><time>2026-04-21T08:39:42.046Z</time></trkpt><trkpt lat="40.6731641" lon="9.2301095"><ele>796.0</ele><time>2026-04-21T08:39:43.045Z</time></trkpt><trkpt lat="40.6732527" lon="9.2302955"><ele>796.0</ele><time>2026-04-21T08:39:44.043Z</time></trkpt><trkpt lat="40.6733392" lon="9.2304818"><ele>796.0</ele><time>2026-04-21T08:39:45.044Z</time></trkpt><trkpt lat="40.6734233" lon="9.2306736"><ele>795.6666666666666</ele><time>2026-04-21T08:39:46.045Z</time></trkpt><trkpt lat="40.6734993" lon="9.230856"><ele>795.3333333333333</ele><time>2026-04-21T08:39:47.045Z</time></trkpt><trkpt lat="40.6735718" lon="9.2310301"><ele>795.0</ele><time>2026-04-21T08:39:48.046Z</time></trkpt><trkpt lat="40.6736386" lon="9.2311969"><ele>795.0</ele><time>2026-04-21T08:39:49.045Z</time></trkpt><trkpt lat="40.673701" lon="9.231357"><ele>795.0</ele><time>2026-04-21T08:39:50.047Z</time></trkpt><trkpt lat="40.673757" lon="9.2315167"><ele>795.0</ele><time>2026-04-21T08:39:51.041Z</time></trkpt><trkpt lat="40.6738044" lon="9.2316947"><ele>795.0</ele><time>2026-04-21T08:39:52.043Z</time></trkpt><trkpt lat="40.6738434" lon="9.2318768"><ele>794.25</ele><time>2026-04-21T08:39:53.041Z</time></trkpt><trkpt lat="40.6738808" lon="9.232062"><ele>793.5</ele><time>2026-04-21T08:39:54.027Z</time></trkpt><trkpt lat="40.6739343" lon="9.2322276"><ele>792.75</ele><time>2026-04-21T08:39:55.029Z</time></trkpt><trkpt lat="40.6739838" lon="9.2323966"><ele>792.0</ele><time>2026-04-21T08:39:56.03Z</time></trkpt><trkpt lat="40.6740295" lon="9.2325648"><ele>791.0</ele><time>2026-04-21T08:39:57.033Z</time></trkpt><trkpt lat="40.6740728" lon="9.2327338"><ele>790.0</ele><time>2026-04-21T08:39:58.048Z</time></trkpt><trkpt lat="40.674118" lon="9.2328949"><ele>789.0</ele><time>2026-04-21T08:39:59.038Z</time></trkpt><trkpt lat="40.6741717" lon="9.2330547"><ele>788.0</ele><time>2026-04-21T08:40:00.044Z</time></trkpt><trkpt lat="40.6742277" lon="9.2332291"><ele>786.0</ele><time>2026-04-21T08:40:01.048Z</time></trkpt><trkpt lat="40.6742833" lon="9.2334063"><ele>784.0</ele><time>2026-04-21T08:40:02.04Z</time></trkpt><trkpt lat="40.6743334" lon="9.2335804"><ele>782.0</ele><time>2026-04-21T08:40:03.045Z</time></trkpt><trkpt lat="40.6743914" lon="9.2337452"><ele>780.0</ele><time>2026-04-21T08:40:04.045Z</time></trkpt><trkpt lat="40.6744573" lon="9.2338948"><ele>779.75</ele><time>2026-04-21T08:40:05.037Z</time></trkpt><trkpt lat="40.6745351" lon="9.2340365"><ele>779.5</ele><time>2026-04-21T08:40:06.054Z</time></trkpt><trkpt lat="40.6746151" lon="9.2341689"><ele>779.25</ele><time>2026-04-21T08:40:07.049Z</time></trkpt><trkpt lat="40.6746692" lon="9.234281"><ele>779.0</ele><time>2026-04-21T08:40:07.954Z</time></trkpt><trkpt lat="40.6747016" lon="9.2344057"><ele>779.0</ele><time>2026-04-21T08:40:08.946Z</time></trkpt><trkpt lat="40.6747051" lon="9.2345472"><ele>779.0</ele><time>2026-04-21T08:40:09.947Z</time></trkpt><trkpt lat="40.6747188" lon="9.2347088"><ele>779.0</ele><time>2026-04-21T08:40:10.954Z</time></trkpt><trkpt lat="40.674729" lon="9.2348989"><ele>779.0</ele><time>2026-04-21T08:40:11.955Z</time></trkpt><trkpt lat="40.6747169" lon="9.2350989"><ele>781.0</ele><time>2026-04-21T08:40:12.962Z</time></trkpt><trkpt lat="40.6747172" lon="9.2353273"><ele>783.0</ele><time>2026-04-21T08:40:13.963Z</time></trkpt><trkpt lat="40.674726" lon="9.2355325"><ele>785.0</ele><time>2026-04-21T08:40:14.956Z</time></trkpt><trkpt lat="40.6747159" lon="9.2357445"><ele>786.25</ele><time>2026-04-21T08:40:15.963Z</time></trkpt><trkpt lat="40.6746997" lon="9.2359269"><ele>787.5</ele><time>2026-04-21T08:40:16.968Z</time></trkpt><trkpt lat="40.674669" lon="9.23611"><ele>788.75</ele><time>2026-04-21T08:40:17.96Z</time></trkpt><trkpt lat="40.6746124" lon="9.2362719"><ele>790.0</ele><time>2026-04-21T08:40:18.963Z</time></trkpt><trkpt lat="40.6745871" lon="9.2364095"><ele>790.5</ele><time>2026-04-21T08:40:19.957Z</time></trkpt><trkpt lat="40.6745653" lon="9.2365594"><ele>791.0</ele><time>2026-04-21T08:40:20.954Z</time></trkpt><trkpt lat="40.6745546" lon="9.2367186"><ele>791.5</ele><time>2026-04-21T08:40:21.964Z</time></trkpt><trkpt lat="40.6745576" lon="9.2368811"><ele>792.0</ele><time>2026-04-21T08:40:22.956Z</time></trkpt><trkpt lat="40.6745919" lon="9.2370288"><ele>792.0</ele><time>2026-04-21T08:40:23.952Z</time></trkpt><trkpt lat="40.6746048" lon="9.2371915"><ele>792.0</ele><time>2026-04-21T08:40:24.956Z</time></trkpt><trkpt lat="40.6746372" lon="9.237343"><ele>792.0</ele><time>2026-04-21T08:40:25.951Z</time></trkpt><trkpt lat="40.6746937" lon="9.2374838"><ele>792.0</ele><time>2026-04-21T08:40:26.954Z</time></trkpt><trkpt lat="40.6747638" lon="9.237625"><ele>791.75</ele><time>2026-04-21T08:40:27.956Z</time></trkpt><trkpt lat="40.6748418" lon="9.2377616"><ele>791.5</ele><time>2026-04-21T08:40:28.96Z</time></trkpt><trkpt lat="40.6749197" lon="9.2379081"><ele>791.25</ele><time>2026-04-21T08:40:29.961Z</time></trkpt><trkpt lat="40.6749688" lon="9.2380747"><ele>791.0</ele><time>2026-04-21T08:40:30.962Z</time></trkpt><trkpt lat="40.6750268" lon="9.2382527"><ele>791.75</ele><time>2026-04-21T08:40:31.956Z</time></trkpt><trkpt lat="40.675084" lon="9.2384065"><ele>792.5</ele><time>2026-04-21T08:40:32.948Z</time></trkpt><trkpt lat="40.6751551" lon="9.2385336"><ele>793.25</ele><time>2026-04-21T08:40:33.95Z</time></trkpt><trkpt lat="40.6752502" lon="9.2386422"><ele>794.0</ele><time>2026-04-21T08:40:34.948Z</time></trkpt><trkpt lat="40.6753544" lon="9.2387375"><ele>794.0</ele><time>2026-04-21T08:40:35.951Z</time></trkpt><trkpt lat="40.675471" lon="9.2388219"><ele>794.0</ele><time>2026-04-21T08:40:36.961Z</time></trkpt><trkpt lat="40.6755916" lon="9.2389086"><ele>794.0</ele><time>2026-04-21T08:40:37.952Z</time></trkpt><trkpt lat="40.6756937" lon="9.2389955"><ele>794.0</ele><time>2026-04-21T08:40:38.956Z</time></trkpt><trkpt lat="40.6757929" lon="9.2390799"><ele>794.2</ele><time>2026-04-21T08:40:39.954Z</time></trkpt><trkpt lat="40.6758563" lon="9.2391766"><ele>794.4000000000001</ele><time>2026-04-21T08:40:40.951Z</time></trkpt><trkpt lat="40.6759195" lon="9.2392544"><ele>794.6</ele><time>2026-04-21T08:40:41.953Z</time></trkpt><trkpt lat="40.6759792" lon="9.2393302"><ele>794.8</ele><time>2026-04-21T08:40:42.953Z</time></trkpt><trkpt lat="40.6760511" lon="9.2394769"><ele>795.0</ele><time>2026-04-21T08:40:44.952Z</time></trkpt><trkpt lat="40.676135" lon="9.2396174"><ele>795.0</ele><time>2026-04-21T08:40:46.955Z</time></trkpt><trkpt lat="40.6761801" lon="9.2396893"><ele>795.0</ele><time>2026-04-21T08:40:47.958Z</time></trkpt><trkpt lat="40.6762301" lon="9.2397583"><ele>795.0</ele><time>2026-04-21T08:40:48.959Z</time></trkpt><trkpt lat="40.6762796" lon="9.2398254"><ele>795.0</ele><time>2026-04-21T08:40:49.959Z</time></trkpt><trkpt lat="40.6763271" lon="9.239893"><ele>795.0</ele><time>2026-04-21T08:40:50.956Z</time></trkpt><trkpt lat="40.6763765" lon="9.2399578"><ele>795.0</ele><time>2026-04-21T08:40:51.966Z</time></trkpt><trkpt lat="40.6764306" lon="9.2400218"><ele>795.0</ele><time>2026-04-21T08:40:52.96Z</time></trkpt><trkpt lat="40.6764802" lon="9.2400916"><ele>794.5</ele><time>2026-04-21T08:40:53.963Z</time></trkpt><trkpt lat="40.676525" lon="9.2401637"><ele>794.0</ele><time>2026-04-21T08:40:54.955Z</time></trkpt><trkpt lat="40.6765748" lon="9.2402398"><ele>793.5</ele><time>2026-04-21T08:40:55.953Z</time></trkpt><trkpt lat="40.6766317" lon="9.2403183"><ele>793.0</ele><time>2026-04-21T08:40:56.962Z</time></trkpt><trkpt lat="40.6766987" lon="9.2404053"><ele>792.5</ele><time>2026-04-21T08:40:57.958Z</time></trkpt><trkpt lat="40.6767616" lon="9.2404827"><ele>792.0</ele><time>2026-04-21T08:40:58.962Z</time></trkpt><trkpt lat="40.6768351" lon="9.2405795"><ele>791.6</ele><time>2026-04-21T08:40:59.957Z</time></trkpt><trkpt lat="40.6769053" lon="9.2406782"><ele>791.2</ele><time>2026-04-21T08:41:00.957Z</time></trkpt><trkpt lat="40.676987" lon="9.2407695"><ele>790.8</ele><time>2026-04-21T08:41:01.96Z</time></trkpt><trkpt lat="40.6770582" lon="9.2408633"><ele>790.4</ele><time>2026-04-21T08:41:02.957Z</time></trkpt><trkpt lat="40.6771307" lon="9.2409628"><ele>790.0</ele><time>2026-04-21T08:41:03.958Z</time></trkpt><trkpt lat="40.6772079" lon="9.2410689"><ele>790.6</ele><time>2026-04-21T08:41:04.959Z</time></trkpt><trkpt lat="40.6772898" lon="9.2411643"><ele>791.2</ele><time>2026-04-21T08:41:05.959Z</time></trkpt><trkpt lat="40.677377" lon="9.2412635"><ele>791.8</ele><time>2026-04-21T08:41:06.959Z</time></trkpt><trkpt lat="40.6774623" lon="9.2413481"><ele>792.4</ele><time>2026-04-21T08:41:07.963Z</time></trkpt><trkpt lat="40.6775432" lon="9.2414289"><ele>793.0</ele><time>2026-04-21T08:41:08.955Z</time></trkpt><trkpt lat="40.6776272" lon="9.241508"><ele>793.0</ele><time>2026-04-21T08:41:09.963Z</time></trkpt><trkpt lat="40.6777001" lon="9.2416"><ele>793.0</ele><time>2026-04-21T08:41:10.959Z</time></trkpt><trkpt lat="40.6777702" lon="9.2417035"><ele>793.0</ele><time>2026-04-21T08:41:11.949Z</time></trkpt><trkpt lat="40.6778235" lon="9.2418391"><ele>793.0</ele><time>2026-04-21T08:41:12.948Z</time></trkpt><trkpt lat="40.6778729" lon="9.2419953"><ele>794.75</ele><time>2026-04-21T08:41:13.949Z</time></trkpt><trkpt lat="40.6779189" lon="9.2421774"><ele>796.5</ele><time>2026-04-21T08:41:14.95Z</time></trkpt><trkpt lat="40.6779655" lon="9.2423639"><ele>798.25</ele><time>2026-04-21T08:41:15.956Z</time></trkpt><trkpt lat="40.6780122" lon="9.2425486"><ele>800.0</ele><time>2026-04-21T08:41:16.954Z</time></trkpt><trkpt lat="40.6780631" lon="9.2427031"><ele>800.0</ele><time>2026-04-21T08:41:17.953Z</time></trkpt><trkpt lat="40.6781233" lon="9.242848"><ele>800.0</ele><time>2026-04-21T08:41:18.953Z</time></trkpt><trkpt lat="40.6781698" lon="9.2429647"><ele>800.0</ele><time>2026-04-21T08:41:19.955Z</time></trkpt><trkpt lat="40.6782074" lon="9.2430683"><ele>800.0</ele><time>2026-04-21T08:41:20.95Z</time></trkpt><trkpt lat="40.6782398" lon="9.2431865"><ele>800.0</ele><time>2026-04-21T08:41:21.952Z</time></trkpt><trkpt lat="40.678271" lon="9.243273"><ele>799.8333333333334</ele><time>2026-04-21T08:41:22.957Z</time></trkpt><trkpt lat="40.6782974" lon="9.2433538"><ele>799.6666666666667</ele><time>2026-04-21T08:41:23.961Z</time></trkpt><trkpt lat="40.6783276" lon="9.2434329"><ele>799.5</ele><time>2026-04-21T08:41:24.955Z</time></trkpt><trkpt lat="40.678379" lon="9.2435641"><ele>799.3333333333333</ele><time>2026-04-21T08:41:26.952Z</time></trkpt><trkpt lat="40.678411" lon="9.2436603"><ele>799.1666666666666</ele><time>2026-04-21T08:41:28.961Z</time></trkpt><trkpt lat="40.6784315" lon="9.2437707"><ele>799.0</ele><time>2026-04-21T08:41:30.955Z</time></trkpt><trkpt lat="40.6784206" lon="9.2439055"><ele>798.6</ele><time>2026-04-21T08:41:32.951Z</time></trkpt><trkpt lat="40.6783563" lon="9.2440015"><ele>798.2</ele><time>2026-04-21T08:41:34.952Z</time></trkpt><trkpt lat="40.6782938" lon="9.2440824"><ele>797.8000000000001</ele><time>2026-04-21T08:41:36.959Z</time></trkpt><trkpt lat="40.6782001" lon="9.2442206"><ele>797.4000000000001</ele><time>2026-04-21T08:41:38.954Z</time></trkpt><trkpt lat="40.6781436" lon="9.2443154"><ele>797.0</ele><time>2026-04-21T08:41:39.959Z</time></trkpt><trkpt lat="40.6780871" lon="9.2444213"><ele>797.0000000000001</ele><time>2026-04-21T08:41:40.952Z</time></trkpt><trkpt lat="40.6780402" lon="9.2445205"><ele>797.0</ele><time>2026-04-21T08:41:41.954Z</time></trkpt><trkpt lat="40.6779921" lon="9.2446028"><ele>797.0</ele><time>2026-04-21T08:41:42.959Z</time></trkpt><trkpt lat="40.6779428" lon="9.244674"><ele>797.0</ele><time>2026-04-21T08:41:43.952Z</time></trkpt><trkpt lat="40.6778664" lon="9.2447376"><ele>797.0000000000001</ele><time>2026-04-21T08:41:44.951Z</time></trkpt><trkpt lat="40.6777696" lon="9.2447951"><ele>797.0</ele><time>2026-04-21T08:41:45.951Z</time></trkpt><trkpt lat="40.6776532" lon="9.2448487"><ele>798.6</ele><time>2026-04-21T08:41:46.959Z</time></trkpt><trkpt lat="40.6775371" lon="9.2448947"><ele>800.2</ele><time>2026-04-21T08:41:47.951Z</time></trkpt><trkpt lat="40.6774373" lon="9.2449542"><ele>801.8</ele><time>2026-04-21T08:41:48.953Z</time></trkpt><trkpt lat="40.677361" lon="9.2450188"><ele>803.4</ele><time>2026-04-21T08:41:49.95Z</time></trkpt><trkpt lat="40.6773001" lon="9.2450947"><ele>805.0</ele><time>2026-04-21T08:41:50.947Z</time></trkpt><trkpt lat="40.6772538" lon="9.2451933"><ele>805.0</ele><time>2026-04-21T08:41:51.959Z</time></trkpt><trkpt lat="40.6772274" lon="9.2453219"><ele>805.0</ele><time>2026-04-21T08:41:52.947Z</time></trkpt><trkpt lat="40.6771979" lon="9.2454422"><ele>805.0</ele><time>2026-04-21T08:41:53.957Z</time></trkpt><trkpt lat="40.6771544" lon="9.2455564"><ele>805.0</ele><time>2026-04-21T08:41:54.949Z</time></trkpt><trkpt lat="40.6770909" lon="9.2456595"><ele>805.0</ele><time>2026-04-21T08:41:55.95Z</time></trkpt><trkpt lat="40.6770068" lon="9.2457636"><ele>806.6</ele><time>2026-04-21T08:41:56.96Z</time></trkpt><trkpt lat="40.6769257" lon="9.2458657"><ele>808.2</ele><time>2026-04-21T08:41:57.95Z</time></trkpt><trkpt lat="40.6768406" lon="9.2459454"><ele>809.8</ele><time>2026-04-21T08:41:58.952Z</time></trkpt><trkpt lat="40.6767479" lon="9.2459914"><ele>811.4</ele><time>2026-04-21T08:41:59.959Z</time></trkpt><trkpt lat="40.6766498" lon="9.246006"><ele>813.0</ele><time>2026-04-21T08:42:00.96Z</time></trkpt><trkpt lat="40.6765384" lon="9.2459981"><ele>813.0</ele><time>2026-04-21T08:42:01.954Z</time></trkpt><trkpt lat="40.6764234" lon="9.2459929"><ele>813.0</ele><time>2026-04-21T08:42:02.956Z</time></trkpt><trkpt lat="40.6763049" lon="9.246008"><ele>813.0</ele><time>2026-04-21T08:42:03.952Z</time></trkpt><trkpt lat="40.6761951" lon="9.2460578"><ele>813.0</ele><time>2026-04-21T08:42:04.959Z</time></trkpt><trkpt lat="40.6760951" lon="9.2461302"><ele>814.75</ele><time>2026-04-21T08:42:05.951Z</time></trkpt><trkpt lat="40.6760005" lon="9.2462193"><ele>816.5</ele><time>2026-04-21T08:42:06.952Z</time></trkpt><trkpt lat="40.6758971" lon="9.2463027"><ele>818.25</ele><time>2026-04-21T08:42:07.957Z</time></trkpt><trkpt lat="40.6757753" lon="9.2463748"><ele>820.0</ele><time>2026-04-21T08:42:08.956Z</time></trkpt><trkpt lat="40.6756541" lon="9.2464507"><ele>820.75</ele><time>2026-04-21T08:42:09.954Z</time></trkpt><trkpt lat="40.6755249" lon="9.246529"><ele>821.5</ele><time>2026-04-21T08:42:10.954Z</time></trkpt><trkpt lat="40.6754027" lon="9.2466075"><ele>822.25</ele><time>2026-04-21T08:42:11.956Z</time></trkpt><trkpt lat="40.6752808" lon="9.2467015"><ele>823.0</ele><time>2026-04-21T08:42:12.952Z</time></trkpt><trkpt lat="40.6751482" lon="9.2467941"><ele>824.5</ele><time>2026-04-21T08:42:13.962Z</time></trkpt><trkpt lat="40.6750104" lon="9.24689"><ele>826.0</ele><time>2026-04-21T08:42:14.952Z</time></trkpt><trkpt lat="40.6748913" lon="9.246962"><ele>827.5</ele><time>2026-04-21T08:42:15.95Z</time></trkpt><trkpt lat="40.6747985" lon="9.2470251"><ele>829.0</ele><time>2026-04-21T08:42:16.972Z</time></trkpt><trkpt lat="40.6747051" lon="9.2470912"><ele>829.0</ele><time>2026-04-21T08:42:17.965Z</time></trkpt><trkpt lat="40.6746148" lon="9.2471384"><ele>829.0</ele><time>2026-04-21T08:42:18.964Z</time></trkpt><trkpt lat="40.6745296" lon="9.2471781"><ele>829.0</ele><time>2026-04-21T08:42:19.965Z</time></trkpt><trkpt lat="40.6744371" lon="9.247239"><ele>829.0</ele><time>2026-04-21T08:42:20.968Z</time></trkpt><trkpt lat="40.6743584" lon="9.2472859"><ele>829.0</ele><time>2026-04-21T08:42:21.967Z</time></trkpt><trkpt lat="40.6742873" lon="9.2473327"><ele>829.8000000000001</ele><time>2026-04-21T08:42:22.973Z</time></trkpt><trkpt lat="40.6742034" lon="9.247373"><ele>830.6</ele><time>2026-04-21T08:42:23.969Z</time></trkpt><trkpt lat="40.6741235" lon="9.2474201"><ele>831.4</ele><time>2026-04-21T08:42:24.976Z</time></trkpt><trkpt lat="40.6740427" lon="9.2474787"><ele>832.2</ele><time>2026-04-21T08:42:25.967Z</time></trkpt><trkpt lat="40.6739663" lon="9.2475404"><ele>833.0</ele><time>2026-04-21T08:42:26.972Z</time></trkpt><trkpt lat="40.6738859" lon="9.2476053"><ele>833.0</ele><time>2026-04-21T08:42:27.968Z</time></trkpt><trkpt lat="40.673811" lon="9.2476827"><ele>833.0</ele><time>2026-04-21T08:42:28.959Z</time></trkpt><trkpt lat="40.6737525" lon="9.2477591"><ele>833.0</ele><time>2026-04-21T08:42:29.961Z</time></trkpt><trkpt lat="40.6736946" lon="9.2478546"><ele>833.0</ele><time>2026-04-21T08:42:30.968Z</time></trkpt><trkpt lat="40.6736365" lon="9.2479454"><ele>833.0</ele><time>2026-04-21T08:42:31.965Z</time></trkpt><trkpt lat="40.6735686" lon="9.2480324"><ele>832.5999999999999</ele><time>2026-04-21T08:42:32.962Z</time></trkpt><trkpt lat="40.6735051" lon="9.2481279"><ele>832.1999999999999</ele><time>2026-04-21T08:42:33.962Z</time></trkpt><trkpt lat="40.6734425" lon="9.2482092"><ele>831.8</ele><time>2026-04-21T08:42:34.961Z</time></trkpt><trkpt lat="40.6733794" lon="9.24829"><ele>831.4</ele><time>2026-04-21T08:42:35.964Z</time></trkpt><trkpt lat="40.6733069" lon="9.248369"><ele>831.0</ele><time>2026-04-21T08:42:36.963Z</time></trkpt><trkpt lat="40.6732312" lon="9.2484485"><ele>831.0</ele><time>2026-04-21T08:42:38.038Z</time></trkpt><trkpt lat="40.6731539" lon="9.2485317"><ele>831.0</ele><time>2026-04-21T08:42:39.036Z</time></trkpt><trkpt lat="40.6730793" lon="9.2486232"><ele>831.0</ele><time>2026-04-21T08:42:40.038Z</time></trkpt><trkpt lat="40.6729927" lon="9.2487134"><ele>831.0</ele><time>2026-04-21T08:42:41.036Z</time></trkpt><trkpt lat="40.6729231" lon="9.24881"><ele>831.0</ele><time>2026-04-21T08:42:42.043Z</time></trkpt><trkpt lat="40.6728572" lon="9.2488959"><ele>831.0</ele><time>2026-04-21T08:42:43.032Z</time></trkpt><trkpt lat="40.6727911" lon="9.2489711"><ele>831.0</ele><time>2026-04-21T08:42:44.032Z</time></trkpt><trkpt lat="40.6727097" lon="9.2490548"><ele>831.0</ele><time>2026-04-21T08:42:45.033Z</time></trkpt><trkpt lat="40.6726228" lon="9.2491251"><ele>831.0</ele><time>2026-04-21T08:42:46.025Z</time></trkpt><trkpt lat="40.6725235" lon="9.2492026"><ele>831.0</ele><time>2026-04-21T08:42:47.053Z</time></trkpt><trkpt lat="40.6724088" lon="9.2492921"><ele>829.5</ele><time>2026-04-21T08:42:48.049Z</time></trkpt><trkpt lat="40.6722967" lon="9.2493753"><ele>828.0</ele><time>2026-04-21T08:42:49.038Z</time></trkpt><trkpt lat="40.6721832" lon="9.2494551"><ele>826.5</ele><time>2026-04-21T08:42:50.033Z</time></trkpt><trkpt lat="40.6720672" lon="9.2495592"><ele>825.0</ele><time>2026-04-21T08:42:51.028Z</time></trkpt><trkpt lat="40.6719532" lon="9.2496833"><ele>824.3333333333333</ele><time>2026-04-21T08:42:52.036Z</time></trkpt><trkpt lat="40.6718376" lon="9.2498151"><ele>823.6666666666666</ele><time>2026-04-21T08:42:53.057Z</time></trkpt><trkpt lat="40.6717133" lon="9.2499497"><ele>823.0</ele><time>2026-04-21T08:42:54.053Z</time></trkpt><trkpt lat="40.6715931" lon="9.2500807"><ele>823.0</ele><time>2026-04-21T08:42:55.052Z</time></trkpt><trkpt lat="40.6714745" lon="9.2502143"><ele>823.0</ele><time>2026-04-21T08:42:56.05Z</time></trkpt><trkpt lat="40.6713587" lon="9.2503366"><ele>823.0</ele><time>2026-04-21T08:42:57.049Z</time></trkpt><trkpt lat="40.6712321" lon="9.250445"><ele>822.6666666666666</ele><time>2026-04-21T08:42:58.047Z</time></trkpt><trkpt lat="40.6710876" lon="9.2505364"><ele>822.3333333333333</ele><time>2026-04-21T08:42:59.049Z</time></trkpt><trkpt lat="40.6709505" lon="9.2506274"><ele>822.0</ele><time>2026-04-21T08:43:00.038Z</time></trkpt><trkpt lat="40.6708116" lon="9.2507257"><ele>821.25</ele><time>2026-04-21T08:43:01.039Z</time></trkpt><trkpt lat="40.6706766" lon="9.250824"><ele>820.5</ele><time>2026-04-21T08:43:02.046Z</time></trkpt><trkpt lat="40.6705531" lon="9.2509227"><ele>819.75</ele><time>2026-04-21T08:43:03.04Z</time></trkpt><trkpt lat="40.6704329" lon="9.2510332"><ele>819.0</ele><time>2026-04-21T08:43:04.058Z</time></trkpt><trkpt lat="40.6703323" lon="9.2511454"><ele>819.25</ele><time>2026-04-21T08:43:05.054Z</time></trkpt><trkpt lat="40.6702296" lon="9.2512759"><ele>819.5</ele><time>2026-04-21T08:43:06.033Z</time></trkpt><trkpt lat="40.6701476" lon="9.2514037"><ele>819.75</ele><time>2026-04-21T08:43:07.033Z</time></trkpt><trkpt lat="40.6700734" lon="9.2515321"><ele>820.0</ele><time>2026-04-21T08:43:08.033Z</time></trkpt><trkpt lat="40.6700077" lon="9.251661"><ele>820.3333333333333</ele><time>2026-04-21T08:43:09.04Z</time></trkpt><trkpt lat="40.6699588" lon="9.2517732"><ele>820.6666666666666</ele><time>2026-04-21T08:43:10.047Z</time></trkpt><trkpt lat="40.6699197" lon="9.2518569"><ele>821.0</ele><time>2026-04-21T08:43:11.043Z</time></trkpt><trkpt lat="40.6698921" lon="9.2519329"><ele>821.3333333333333</ele><time>2026-04-21T08:43:12.044Z</time></trkpt><trkpt lat="40.6699003" lon="9.2520805"><ele>821.6666666666666</ele><time>2026-04-21T08:43:14.046Z</time></trkpt><trkpt lat="40.6699248" lon="9.2521836"><ele>822.0</ele><time>2026-04-21T08:43:15.023Z</time></trkpt><trkpt lat="40.6699722" lon="9.2523019"><ele>822.25</ele><time>2026-04-21T08:43:16.028Z</time></trkpt><trkpt lat="40.6700337" lon="9.2524319"><ele>822.5</ele><time>2026-04-21T08:43:17.038Z</time></trkpt><trkpt lat="40.6701065" lon="9.2525637"><ele>822.75</ele><time>2026-04-21T08:43:18.029Z</time></trkpt><trkpt lat="40.6701782" lon="9.2526786"><ele>823.0</ele><time>2026-04-21T08:43:19.052Z</time></trkpt><trkpt lat="40.6702448" lon="9.2527866"><ele>822.8</ele><time>2026-04-21T08:43:20.056Z</time></trkpt><trkpt lat="40.6703207" lon="9.2529085"><ele>822.5999999999999</ele><time>2026-04-21T08:43:20.958Z</time></trkpt><trkpt lat="40.6703556" lon="9.2530254"><ele>822.4000000000001</ele><time>2026-04-21T08:43:21.962Z</time></trkpt><trkpt lat="40.6703796" lon="9.2531356"><ele>822.2</ele><time>2026-04-21T08:43:22.965Z</time></trkpt><trkpt lat="40.6703946" lon="9.2532374"><ele>822.0</ele><time>2026-04-21T08:43:23.973Z</time></trkpt><trkpt lat="40.6704164" lon="9.2533321"><ele>822.0</ele><time>2026-04-21T08:43:24.967Z</time></trkpt><trkpt lat="40.670452" lon="9.2534276"><ele>822.0</ele><time>2026-04-21T08:43:25.972Z</time></trkpt><trkpt lat="40.6704849" lon="9.2535228"><ele>822.0</ele><time>2026-04-21T08:43:26.96Z</time></trkpt><trkpt lat="40.6705245" lon="9.2536279"><ele>822.0</ele><time>2026-04-21T08:43:27.967Z</time></trkpt><trkpt lat="40.6705719" lon="9.2537332"><ele>822.0</ele><time>2026-04-21T08:43:28.963Z</time></trkpt><trkpt lat="40.6706124" lon="9.2538214"><ele>822.0</ele><time>2026-04-21T08:43:29.963Z</time></trkpt><trkpt lat="40.6706515" lon="9.2539059"><ele>822.5</ele><time>2026-04-21T08:43:30.962Z</time></trkpt><trkpt lat="40.6706875" lon="9.2539821"><ele>823.0</ele><time>2026-04-21T08:43:31.96Z</time></trkpt><trkpt lat="40.670712" lon="9.2540651"><ele>823.5</ele><time>2026-04-21T08:43:32.965Z</time></trkpt><trkpt lat="40.6707404" lon="9.2541482"><ele>824.0</ele><time>2026-04-21T08:43:33.961Z</time></trkpt><trkpt lat="40.6707978" lon="9.2542794"><ele>824.5</ele><time>2026-04-21T08:43:35.966Z</time></trkpt><trkpt lat="40.6708647" lon="9.2543653"><ele>825.0</ele><time>2026-04-21T08:43:37.962Z</time></trkpt><trkpt lat="40.670913" lon="9.2545096"><ele>825.0</ele><time>2026-04-21T08:43:39.966Z</time></trkpt><trkpt lat="40.6709446" lon="9.2546669"><ele>825.0</ele><time>2026-04-21T08:43:41.968Z</time></trkpt><trkpt lat="40.6709721" lon="9.254794"><ele>825.0</ele><time>2026-04-21T08:43:43.969Z</time></trkpt><trkpt lat="40.670999" lon="9.254932"><ele>825.0</ele><time>2026-04-21T08:43:45.972Z</time></trkpt><trkpt lat="40.671019" lon="9.2550468"><ele>825.0</ele><time>2026-04-21T08:43:47.968Z</time></trkpt><trkpt lat="40.6710343" lon="9.255129"><ele>825.1666666666666</ele><time>2026-04-21T08:43:49.976Z</time></trkpt><trkpt lat="40.6710726" lon="9.2552155"><ele>825.3333333333333</ele><time>2026-04-21T08:43:51.973Z</time></trkpt><trkpt lat="40.6711103" lon="9.2553386"><ele>825.5</ele><time>2026-04-21T08:43:53.96Z</time></trkpt><trkpt lat="40.6711436" lon="9.2554259"><ele>825.6666666666666</ele><time>2026-04-21T08:43:54.97Z</time></trkpt><trkpt lat="40.6711839" lon="9.2555297"><ele>825.8333333333333</ele><time>2026-04-21T08:43:55.964Z</time></trkpt><trkpt lat="40.6712274" lon="9.2556422"><ele>826.0</ele><time>2026-04-21T08:43:56.96Z</time></trkpt><trkpt lat="40.6712802" lon="9.2557547"><ele>824.25</ele><time>2026-04-21T08:43:57.961Z</time></trkpt><trkpt lat="40.6713387" lon="9.2558702"><ele>822.5</ele><time>2026-04-21T08:43:58.957Z</time></trkpt><trkpt lat="40.6713973" lon="9.2559994"><ele>820.75</ele><time>2026-04-21T08:43:59.96Z</time></trkpt><trkpt lat="40.6714605" lon="9.2561456"><ele>819.0</ele><time>2026-04-21T08:44:00.968Z</time></trkpt><trkpt lat="40.67152" lon="9.2563021"><ele>820.5</ele><time>2026-04-21T08:44:01.965Z</time></trkpt><trkpt lat="40.6715824" lon="9.2564567"><ele>822.0</ele><time>2026-04-21T08:44:02.962Z</time></trkpt><trkpt lat="40.671639" lon="9.2566073"><ele>823.5</ele><time>2026-04-21T08:44:03.975Z</time></trkpt><trkpt lat="40.6717014" lon="9.2567652"><ele>825.0</ele><time>2026-04-21T08:44:04.962Z</time></trkpt><trkpt lat="40.6717673" lon="9.256913"><ele>825.0</ele><time>2026-04-21T08:44:05.963Z</time></trkpt><trkpt lat="40.6718389" lon="9.2570554"><ele>825.0</ele><time>2026-04-21T08:44:06.959Z</time></trkpt><trkpt lat="40.6719214" lon="9.2571874"><ele>825.0</ele><time>2026-04-21T08:44:07.961Z</time></trkpt><trkpt lat="40.6720136" lon="9.2572936"><ele>825.0</ele><time>2026-04-21T08:44:08.955Z</time></trkpt><trkpt lat="40.6721184" lon="9.2573794"><ele>826.2</ele><time>2026-04-21T08:44:09.965Z</time></trkpt><trkpt lat="40.6722017" lon="9.2574785"><ele>827.4</ele><time>2026-04-21T08:44:10.959Z</time></trkpt><trkpt lat="40.6722681" lon="9.2575892"><ele>828.5999999999999</ele><time>2026-04-21T08:44:11.956Z</time></trkpt><trkpt lat="40.6723192" lon="9.2577202"><ele>829.8</ele><time>2026-04-21T08:44:12.96Z</time></trkpt><trkpt lat="40.6723435" lon="9.2578618"><ele>831.0</ele><time>2026-04-21T08:44:13.955Z</time></trkpt><trkpt lat="40.6723593" lon="9.2580172"><ele>831.75</ele><time>2026-04-21T08:44:14.957Z</time></trkpt><trkpt lat="40.6723589" lon="9.2581853"><ele>832.5</ele><time>2026-04-21T08:44:15.964Z</time></trkpt><trkpt lat="40.6723437" lon="9.2583534"><ele>833.25</ele><time>2026-04-21T08:44:16.968Z</time></trkpt><trkpt lat="40.672336" lon="9.2585346"><ele>834.0</ele><time>2026-04-21T08:44:17.967Z</time></trkpt><trkpt lat="40.6723281" lon="9.2587075"><ele>834.0</ele><time>2026-04-21T08:44:18.957Z</time></trkpt><trkpt lat="40.6723117" lon="9.258864"><ele>834.0</ele><time>2026-04-21T08:44:19.961Z</time></trkpt><trkpt lat="40.6722745" lon="9.259018"><ele>834.0</ele><time>2026-04-21T08:44:20.948Z</time></trkpt><trkpt lat="40.6722078" lon="9.2591544"><ele>834.0</ele><time>2026-04-21T08:44:21.96Z</time></trkpt><trkpt lat="40.6721199" lon="9.2592935"><ele>835.25</ele><time>2026-04-21T08:44:22.956Z</time></trkpt><trkpt lat="40.6720508" lon="9.25942"><ele>836.5</ele><time>2026-04-21T08:44:23.954Z</time></trkpt><trkpt lat="40.6720166" lon="9.2595625"><ele>837.75</ele><time>2026-04-21T08:44:24.947Z</time></trkpt><trkpt lat="40.6719969" lon="9.2597234"><ele>839.0</ele><time>2026-04-21T08:44:25.956Z</time></trkpt><trkpt lat="40.6719908" lon="9.2599089"><ele>839.6666666666667</ele><time>2026-04-21T08:44:26.961Z</time></trkpt><trkpt lat="40.6719716" lon="9.2601007"><ele>840.3333333333333</ele><time>2026-04-21T08:44:27.965Z</time></trkpt><trkpt lat="40.6719473" lon="9.2603104"><ele>841.0</ele><time>2026-04-21T08:44:28.973Z</time></trkpt><trkpt lat="40.6719017" lon="9.2605391"><ele>842.5</ele><time>2026-04-21T08:44:29.97Z</time></trkpt><trkpt lat="40.6718742" lon="9.2607326"><ele>844.0</ele><time>2026-04-21T08:44:30.972Z</time></trkpt><trkpt lat="40.6718494" lon="9.2609366"><ele>845.5</ele><time>2026-04-21T08:44:31.967Z</time></trkpt><trkpt lat="40.6718375" lon="9.2611143"><ele>847.0</ele><time>2026-04-21T08:44:32.971Z</time></trkpt><trkpt lat="40.6718372" lon="9.2612989"><ele>847.0</ele><time>2026-04-21T08:44:33.969Z</time></trkpt><trkpt lat="40.671871" lon="9.2614918"><ele>847.0</ele><time>2026-04-21T08:44:34.968Z</time></trkpt><trkpt lat="40.6718867" lon="9.2616596"><ele>847.0</ele><time>2026-04-21T08:44:35.971Z</time></trkpt><trkpt lat="40.6719311" lon="9.2618058"><ele>847.0</ele><time>2026-04-21T08:44:36.969Z</time></trkpt><trkpt lat="40.6719595" lon="9.2619414"><ele>847.0</ele><time>2026-04-21T08:44:37.964Z</time></trkpt><trkpt lat="40.6719715" lon="9.2620994"><ele>847.0</ele><time>2026-04-21T08:44:38.962Z</time></trkpt><trkpt lat="40.67196" lon="9.262242"><ele>847.0</ele><time>2026-04-21T08:44:39.957Z</time></trkpt><trkpt lat="40.671933" lon="9.2623877"><ele>847.0</ele><time>2026-04-21T08:44:40.959Z</time></trkpt><trkpt lat="40.671892" lon="9.2625417"><ele>850.3333333333333</ele><time>2026-04-21T08:44:41.957Z</time></trkpt><trkpt lat="40.6718216" lon="9.262693"><ele>853.6666666666667</ele><time>2026-04-21T08:44:42.948Z</time></trkpt><trkpt lat="40.6717242" lon="9.2628596"><ele>857.0</ele><time>2026-04-21T08:44:43.953Z</time></trkpt><trkpt lat="40.6716034" lon="9.263035"><ele>860.3333333333334</ele><time>2026-04-21T08:44:44.955Z</time></trkpt><trkpt lat="40.6714806" lon="9.2632096"><ele>863.6666666666667</ele><time>2026-04-21T08:44:45.958Z</time></trkpt><trkpt lat="40.6713799" lon="9.2633687"><ele>867.0</ele><time>2026-04-21T08:44:46.96Z</time></trkpt><trkpt lat="40.6712979" lon="9.2635034"><ele>867.0</ele><time>2026-04-21T08:44:47.956Z</time></trkpt><trkpt lat="40.6712412" lon="9.2636642"><ele>867.0</ele><time>2026-04-21T08:44:48.951Z</time></trkpt><trkpt lat="40.6712026" lon="9.2638476"><ele>867.0</ele><time>2026-04-21T08:44:49.95Z</time></trkpt><trkpt lat="40.6711624" lon="9.2640247"><ele>867.0</ele><time>2026-04-21T08:44:50.949Z</time></trkpt><trkpt lat="40.671125" lon="9.2642046"><ele>868.5</ele><time>2026-04-21T08:44:51.956Z</time></trkpt><trkpt lat="40.6711005" lon="9.2643851"><ele>870.0</ele><time>2026-04-21T08:44:52.96Z</time></trkpt><trkpt lat="40.6710762" lon="9.2645354"><ele>871.5</ele><time>2026-04-21T08:44:53.958Z</time></trkpt><trkpt lat="40.671063" lon="9.2646757"><ele>873.0</ele><time>2026-04-21T08:44:54.959Z</time></trkpt><trkpt lat="40.6710495" lon="9.2648252"><ele>873.8</ele><time>2026-04-21T08:44:55.956Z</time></trkpt><trkpt lat="40.6710358" lon="9.2649608"><ele>874.5999999999999</ele><time>2026-04-21T08:44:56.952Z</time></trkpt><trkpt lat="40.6709865" lon="9.265084"><ele>875.4000000000001</ele><time>2026-04-21T08:44:57.952Z</time></trkpt><trkpt lat="40.6709336" lon="9.2652137"><ele>876.2</ele><time>2026-04-21T08:44:58.95Z</time></trkpt><trkpt lat="40.6708888" lon="9.2653224"><ele>877.0</ele><time>2026-04-21T08:44:59.948Z</time></trkpt><trkpt lat="40.670837" lon="9.2654055"><ele>876.9999999999999</ele><time>2026-04-21T08:45:00.953Z</time></trkpt><trkpt lat="40.6708008" lon="9.2654887"><ele>877.0</ele><time>2026-04-21T08:45:01.955Z</time></trkpt><trkpt lat="40.6707795" lon="9.2655795"><ele>877.0</ele><time>2026-04-21T08:45:02.953Z</time></trkpt><trkpt lat="40.6707709" lon="9.2656791"><ele>877.0</ele><time>2026-04-21T08:45:03.961Z</time></trkpt><trkpt lat="40.6707572" lon="9.2657796"><ele>876.9999999999999</ele><time>2026-04-21T08:45:04.954Z</time></trkpt><trkpt lat="40.6707331" lon="9.2658882"><ele>877.0</ele><time>2026-04-21T08:45:05.957Z</time></trkpt><trkpt lat="40.6706936" lon="9.2659949"><ele>877.6</ele><time>2026-04-21T08:45:06.96Z</time></trkpt><trkpt lat="40.6706463" lon="9.2660998"><ele>878.2</ele><time>2026-04-21T08:45:07.96Z</time></trkpt><trkpt lat="40.6705814" lon="9.2662182"><ele>878.8</ele><time>2026-04-21T08:45:08.955Z</time></trkpt><trkpt lat="40.6705183" lon="9.2663367"><ele>879.4</ele><time>2026-04-21T08:45:09.959Z</time></trkpt><trkpt lat="40.6704527" lon="9.2664419"><ele>880.0</ele><time>2026-04-21T08:45:10.955Z</time></trkpt><trkpt lat="40.6703965" lon="9.2665464"><ele>878.8</ele><time>2026-04-21T08:45:11.958Z</time></trkpt><trkpt lat="40.6703459" lon="9.266643"><ele>877.6</ele><time>2026-04-21T08:45:12.956Z</time></trkpt><trkpt lat="40.6702898" lon="9.2667451"><ele>876.4000000000001</ele><time>2026-04-21T08:45:13.959Z</time></trkpt><trkpt lat="40.6702139" lon="9.2668367"><ele>875.2</ele><time>2026-04-21T08:45:14.958Z</time></trkpt><trkpt lat="40.6701314" lon="9.2669225"><ele>874.0</ele><time>2026-04-21T08:45:15.954Z</time></trkpt><trkpt lat="40.6700508" lon="9.2670071"><ele>874.0</ele><time>2026-04-21T08:45:16.965Z</time></trkpt><trkpt lat="40.6699656" lon="9.2670769"><ele>874.0000000000001</ele><time>2026-04-21T08:45:17.954Z</time></trkpt><trkpt lat="40.669881" lon="9.2671509"><ele>874.0000000000001</ele><time>2026-04-21T08:45:18.954Z</time></trkpt><trkpt lat="40.6697938" lon="9.2672197"><ele>874.0</ele><time>2026-04-21T08:45:19.955Z</time></trkpt><trkpt lat="40.6697138" lon="9.2672844"><ele>874.0</ele><time>2026-04-21T08:45:20.956Z</time></trkpt><trkpt lat="40.6696458" lon="9.2673627"><ele>875.2</ele><time>2026-04-21T08:45:21.947Z</time></trkpt><trkpt lat="40.669592" lon="9.2674663"><ele>876.4000000000001</ele><time>2026-04-21T08:45:22.947Z</time></trkpt><trkpt lat="40.6695556" lon="9.2675914"><ele>877.6</ele><time>2026-04-21T08:45:23.948Z</time></trkpt><trkpt lat="40.6695344" lon="9.2677179"><ele>878.8</ele><time>2026-04-21T08:45:24.954Z</time></trkpt><trkpt lat="40.6695301" lon="9.2678408"><ele>880.0</ele><time>2026-04-21T08:45:25.951Z</time></trkpt><trkpt lat="40.669523" lon="9.2679811"><ele>882.2</ele><time>2026-04-21T08:45:26.959Z</time></trkpt><trkpt lat="40.6695181" lon="9.2681323"><ele>884.4</ele><time>2026-04-21T08:45:27.964Z</time></trkpt><trkpt lat="40.6695098" lon="9.2682794"><ele>886.5999999999999</ele><time>2026-04-21T08:45:28.957Z</time></trkpt><trkpt lat="40.6695037" lon="9.2684192"><ele>888.8</ele><time>2026-04-21T08:45:29.956Z</time></trkpt><trkpt lat="40.6694994" lon="9.2685586"><ele>891.0</ele><time>2026-04-21T08:45:30.967Z</time></trkpt><trkpt lat="40.6695043" lon="9.2686921"><ele>891.0</ele><time>2026-04-21T08:45:31.954Z</time></trkpt><trkpt lat="40.6695267" lon="9.2688163"><ele>890.9999999999999</ele><time>2026-04-21T08:45:32.953Z</time></trkpt><trkpt lat="40.6695719" lon="9.2689264"><ele>890.9999999999999</ele><time>2026-04-21T08:45:33.946Z</time></trkpt><trkpt lat="40.6695949" lon="9.2690503"><ele>891.0</ele><time>2026-04-21T08:45:34.941Z</time></trkpt><trkpt lat="40.6696037" lon="9.2691639"><ele>891.0</ele><time>2026-04-21T08:45:35.958Z</time></trkpt><trkpt lat="40.6695963" lon="9.2692894"><ele>890.4</ele><time>2026-04-21T08:45:36.947Z</time></trkpt><trkpt lat="40.6695727" lon="9.2694192"><ele>889.8</ele><time>2026-04-21T08:45:37.957Z</time></trkpt><trkpt lat="40.6695191" lon="9.2695508"><ele>889.1999999999999</ele><time>2026-04-21T08:45:38.951Z</time></trkpt><trkpt lat="40.6694859" lon="9.2696838"><ele>888.5999999999999</ele><time>2026-04-21T08:45:39.947Z</time></trkpt><trkpt lat="40.6694763" lon="9.2698299"><ele>888.0</ele><time>2026-04-21T08:45:40.944Z</time></trkpt><trkpt lat="40.6694981" lon="9.2699722"><ele>887.8</ele><time>2026-04-21T08:45:41.943Z</time></trkpt><trkpt lat="40.6695507" lon="9.2701102"><ele>887.5999999999999</ele><time>2026-04-21T08:45:42.947Z</time></trkpt><trkpt lat="40.6696179" lon="9.2702308"><ele>887.4000000000001</ele><time>2026-04-21T08:45:43.953Z</time></trkpt><trkpt lat="40.6696765" lon="9.2703352"><ele>887.2</ele><time>2026-04-21T08:45:44.945Z</time></trkpt><trkpt lat="40.6697183" lon="9.2704482"><ele>887.0</ele><time>2026-04-21T08:45:45.94Z</time></trkpt><trkpt lat="40.6697543" lon="9.2705751"><ele>886.6666666666667</ele><time>2026-04-21T08:45:46.959Z</time></trkpt><trkpt lat="40.6697675" lon="9.2707155"><ele>886.3333333333334</ele><time>2026-04-21T08:45:47.951Z</time></trkpt><trkpt lat="40.6697715" lon="9.2708441"><ele>886.0</ele><time>2026-04-21T08:45:48.962Z</time></trkpt><trkpt lat="40.6697777" lon="9.2709469"><ele>885.6666666666667</ele><time>2026-04-21T08:45:49.953Z</time></trkpt><trkpt lat="40.6697791" lon="9.2710479"><ele>885.3333333333334</ele><time>2026-04-21T08:45:50.959Z</time></trkpt><trkpt lat="40.6697856" lon="9.2711607"><ele>885.0</ele><time>2026-04-21T08:45:51.954Z</time></trkpt><trkpt lat="40.6697788" lon="9.2712646"><ele>885.0</ele><time>2026-04-21T08:45:52.959Z</time></trkpt><trkpt lat="40.6697548" lon="9.2713811"><ele>885.0</ele><time>2026-04-21T08:45:53.952Z</time></trkpt><trkpt lat="40.6697511" lon="9.2714921"><ele>885.0</ele><time>2026-04-21T08:45:54.953Z</time></trkpt><trkpt lat="40.6697639" lon="9.2716137"><ele>885.0</ele><time>2026-04-21T08:45:55.948Z</time></trkpt><trkpt lat="40.669798" lon="9.2717259"><ele>885.0</ele><time>2026-04-21T08:45:56.943Z</time></trkpt><trkpt lat="40.6698324" lon="9.2718423"><ele>884.2</ele><time>2026-04-21T08:45:57.946Z</time></trkpt><trkpt lat="40.6698858" lon="9.2719452"><ele>883.4</ele><time>2026-04-21T08:45:58.953Z</time></trkpt><trkpt lat="40.6699407" lon="9.2720491"><ele>882.5999999999999</ele><time>2026-04-21T08:45:59.949Z</time></trkpt><trkpt lat="40.6699699" lon="9.2721799"><ele>881.8</ele><time>2026-04-21T08:46:00.957Z</time></trkpt><trkpt lat="40.6699813" lon="9.2723295"><ele>881.0</ele><time>2026-04-21T08:46:01.948Z</time></trkpt><trkpt lat="40.6699762" lon="9.2724641"><ele>880.1999999999999</ele><time>2026-04-21T08:46:02.948Z</time></trkpt><trkpt lat="40.6699593" lon="9.2725953"><ele>879.3999999999999</ele><time>2026-04-21T08:46:03.952Z</time></trkpt><trkpt lat="40.6699239" lon="9.2727265"><ele>878.6</ele><time>2026-04-21T08:46:04.949Z</time></trkpt><trkpt lat="40.6698751" lon="9.2728621"><ele>877.8</ele><time>2026-04-21T08:46:05.954Z</time></trkpt><trkpt lat="40.6698187" lon="9.2729919"><ele>877.0</ele><time>2026-04-21T08:46:06.953Z</time></trkpt><trkpt lat="40.6697717" lon="9.273124"><ele>876.6</ele><time>2026-04-21T08:46:07.96Z</time></trkpt><trkpt lat="40.6697387" lon="9.273253"><ele>876.2</ele><time>2026-04-21T08:46:08.949Z</time></trkpt><trkpt lat="40.6697141" lon="9.2733817"><ele>875.8</ele><time>2026-04-21T08:46:09.951Z</time></trkpt><trkpt lat="40.6697096" lon="9.2735165"><ele>875.4</ele><time>2026-04-21T08:46:10.951Z</time></trkpt><trkpt lat="40.6697048" lon="9.2736647"><ele>875.0</ele><time>2026-04-21T08:46:11.95Z</time></trkpt><trkpt lat="40.6696878" lon="9.2737952"><ele>875.0</ele><time>2026-04-21T08:46:12.956Z</time></trkpt><trkpt lat="40.6696709" lon="9.2739175"><ele>875.0</ele><time>2026-04-21T08:46:13.961Z</time></trkpt><trkpt lat="40.669644" lon="9.2740474"><ele>875.0</ele><time>2026-04-21T08:46:14.955Z</time></trkpt><trkpt lat="40.6696289" lon="9.2741818"><ele>875.0</ele><time>2026-04-21T08:46:15.952Z</time></trkpt><trkpt lat="40.669605" lon="9.2743036"><ele>875.0</ele><time>2026-04-21T08:46:16.965Z</time></trkpt><trkpt lat="40.6695814" lon="9.2744238"><ele>873.6</ele><time>2026-04-21T08:46:17.951Z</time></trkpt><trkpt lat="40.6695489" lon="9.2745468"><ele>872.2</ele><time>2026-04-21T08:46:18.956Z</time></trkpt><trkpt lat="40.6695029" lon="9.2746662"><ele>870.8</ele><time>2026-04-21T08:46:19.957Z</time></trkpt><trkpt lat="40.6694596" lon="9.2747819"><ele>869.4</ele><time>2026-04-21T08:46:20.954Z</time></trkpt><trkpt lat="40.669419" lon="9.2748998"><ele>868.0</ele><time>2026-04-21T08:46:21.958Z</time></trkpt><trkpt lat="40.6693777" lon="9.2750115"><ele>865.2</ele><time>2026-04-21T08:46:22.96Z</time></trkpt><trkpt lat="40.669347" lon="9.275125"><ele>862.4</ele><time>2026-04-21T08:46:23.96Z</time></trkpt><trkpt lat="40.6693259" lon="9.2752552"><ele>859.6000000000001</ele><time>2026-04-21T08:46:24.95Z</time></trkpt><trkpt lat="40.669313" lon="9.2753875"><ele>856.8000000000001</ele><time>2026-04-21T08:46:25.95Z</time></trkpt><trkpt lat="40.6693257" lon="9.2755198"><ele>854.0</ele><time>2026-04-21T08:46:26.956Z</time></trkpt><trkpt lat="40.6693508" lon="9.2756464"><ele>854.0</ele><time>2026-04-21T08:46:27.952Z</time></trkpt><trkpt lat="40.6693754" lon="9.2757709"><ele>854.0000000000001</ele><time>2026-04-21T08:46:28.956Z</time></trkpt><trkpt lat="40.6694132" lon="9.2759014"><ele>854.0000000000001</ele><time>2026-04-21T08:46:29.952Z</time></trkpt><trkpt lat="40.6694598" lon="9.2760233"><ele>854.0</ele><time>2026-04-21T08:46:30.955Z</time></trkpt><trkpt lat="40.6695146" lon="9.2761346"><ele>854.0</ele><time>2026-04-21T08:46:31.957Z</time></trkpt><trkpt lat="40.6695775" lon="9.2762392"><ele>854.6</ele><time>2026-04-21T08:46:32.954Z</time></trkpt><trkpt lat="40.6696476" lon="9.2763413"><ele>855.2</ele><time>2026-04-21T08:46:33.951Z</time></trkpt><trkpt lat="40.6697268" lon="9.2764299"><ele>855.8000000000001</ele><time>2026-04-21T08:46:34.948Z</time></trkpt><trkpt lat="40.6698256" lon="9.2765067"><ele>856.4000000000001</ele><time>2026-04-21T08:46:35.957Z</time></trkpt><trkpt lat="40.6699262" lon="9.2765806"><ele>857.0</ele><time>2026-04-21T08:46:36.952Z</time></trkpt><trkpt lat="40.6700266" lon="9.2766556"><ele>857.6</ele><time>2026-04-21T08:46:37.952Z</time></trkpt><trkpt lat="40.6701167" lon="9.2767274"><ele>858.2</ele><time>2026-04-21T08:46:38.953Z</time></trkpt><trkpt lat="40.6702021" lon="9.2768132"><ele>858.8</ele><time>2026-04-21T08:46:39.951Z</time></trkpt><trkpt lat="40.6702769" lon="9.2769232"><ele>859.4</ele><time>2026-04-21T08:46:40.946Z</time></trkpt><trkpt lat="40.6703457" lon="9.277035"><ele>860.0</ele><time>2026-04-21T08:46:41.947Z</time></trkpt><trkpt lat="40.6704007" lon="9.2771452"><ele>860.0</ele><time>2026-04-21T08:46:42.956Z</time></trkpt><trkpt lat="40.6704488" lon="9.277255"><ele>860.0</ele><time>2026-04-21T08:46:43.956Z</time></trkpt><trkpt lat="40.6704999" lon="9.2773561"><ele>860.0</ele><time>2026-04-21T08:46:44.948Z</time></trkpt><trkpt lat="40.6705446" lon="9.2774583"><ele>860.0</ele><time>2026-04-21T08:46:45.949Z</time></trkpt><trkpt lat="40.6705803" lon="9.2775744"><ele>860.0</ele><time>2026-04-21T08:46:46.955Z</time></trkpt><trkpt lat="40.6706112" lon="9.2776959"><ele>857.6</ele><time>2026-04-21T08:46:47.952Z</time></trkpt><trkpt lat="40.670639" lon="9.2778326"><ele>855.2</ele><time>2026-04-21T08:46:48.95Z</time></trkpt><trkpt lat="40.6706702" lon="9.2779667"><ele>852.8</ele><time>2026-04-21T08:46:49.949Z</time></trkpt><trkpt lat="40.6707058" lon="9.2781067"><ele>850.4</ele><time>2026-04-21T08:46:50.947Z</time></trkpt><trkpt lat="40.6707375" lon="9.278235"><ele>848.0</ele><time>2026-04-21T08:46:51.953Z</time></trkpt><trkpt lat="40.6707741" lon="9.2783532"><ele>845.2</ele><time>2026-04-21T08:46:52.955Z</time></trkpt><trkpt lat="40.6708204" lon="9.2784726"><ele>842.4</ele><time>2026-04-21T08:46:53.954Z</time></trkpt><trkpt lat="40.6708699" lon="9.2786096"><ele>839.6</ele><time>2026-04-21T08:46:54.946Z</time></trkpt><trkpt lat="40.6709262" lon="9.2787418"><ele>836.8000000000001</ele><time>2026-04-21T08:46:55.947Z</time></trkpt><trkpt lat="40.6709851" lon="9.2788653"><ele>834.0</ele><time>2026-04-21T08:46:56.953Z</time></trkpt><trkpt lat="40.6710397" lon="9.2789741"><ele>835.2</ele><time>2026-04-21T08:46:57.942Z</time></trkpt><trkpt lat="40.6710992" lon="9.2790742"><ele>836.4000000000001</ele><time>2026-04-21T08:46:58.944Z</time></trkpt><trkpt lat="40.6711686" lon="9.2791602"><ele>837.6</ele><time>2026-04-21T08:46:59.937Z</time></trkpt><trkpt lat="40.6712446" lon="9.2792213"><ele>838.8</ele><time>2026-04-21T08:47:00.942Z</time></trkpt><trkpt lat="40.6713257" lon="9.2792604"><ele>840.0</ele><time>2026-04-21T08:47:01.946Z</time></trkpt><trkpt lat="40.671398" lon="9.2793291"><ele>840.0</ele><time>2026-04-21T08:47:02.941Z</time></trkpt><trkpt lat="40.6714543" lon="9.2794262"><ele>840.0</ele><time>2026-04-21T08:47:03.939Z</time></trkpt><trkpt lat="40.6715087" lon="9.2795546"><ele>840.0</ele><time>2026-04-21T08:47:04.945Z</time></trkpt><trkpt lat="40.6715822" lon="9.2796827"><ele>840.0</ele><time>2026-04-21T08:47:05.943Z</time></trkpt><trkpt lat="40.6716595" lon="9.2798017"><ele>840.0</ele><time>2026-04-21T08:47:06.942Z</time></trkpt><trkpt lat="40.671732" lon="9.2799273"><ele>842.0</ele><time>2026-04-21T08:47:07.942Z</time></trkpt><trkpt lat="40.6718043" lon="9.2800437"><ele>844.0</ele><time>2026-04-21T08:47:08.944Z</time></trkpt><trkpt lat="40.6718691" lon="9.2801595"><ele>846.0</ele><time>2026-04-21T08:47:09.948Z</time></trkpt><trkpt lat="40.6719262" lon="9.2802812"><ele>848.0</ele><time>2026-04-21T08:47:10.943Z</time></trkpt><trkpt lat="40.6719718" lon="9.280422"><ele>850.0</ele><time>2026-04-21T08:47:11.943Z</time></trkpt><trkpt lat="40.6720053" lon="9.2805591"><ele>847.6</ele><time>2026-04-21T08:47:12.944Z</time></trkpt><trkpt lat="40.6720396" lon="9.2806954"><ele>845.2</ele><time>2026-04-21T08:47:13.942Z</time></trkpt><trkpt lat="40.6720715" lon="9.2808404"><ele>842.8</ele><time>2026-04-21T08:47:14.968Z</time></trkpt><trkpt lat="40.6721144" lon="9.2809759"><ele>840.4</ele><time>2026-04-21T08:47:15.95Z</time></trkpt><trkpt lat="40.6721571" lon="9.2811103"><ele>838.0</ele><time>2026-04-21T08:47:16.964Z</time></trkpt><trkpt lat="40.672218" lon="9.281215"><ele>838.0</ele><time>2026-04-21T08:47:17.946Z</time></trkpt><trkpt lat="40.6722869" lon="9.2813106"><ele>838.0</ele><time>2026-04-21T08:47:18.952Z</time></trkpt><trkpt lat="40.6723677" lon="9.2813901"><ele>838.0</ele><time>2026-04-21T08:47:20.032Z</time></trkpt><trkpt lat="40.6724564" lon="9.2814724"><ele>838.0</ele><time>2026-04-21T08:47:21.025Z</time></trkpt><trkpt lat="40.6725451" lon="9.2815515"><ele>838.0</ele><time>2026-04-21T08:47:22.028Z</time></trkpt><trkpt lat="40.6726271" lon="9.2816428"><ele>839.8</ele><time>2026-04-21T08:47:23.029Z</time></trkpt><trkpt lat="40.6726942" lon="9.2817527"><ele>841.5999999999999</ele><time>2026-04-21T08:47:24.018Z</time></trkpt><trkpt lat="40.6727448" lon="9.2818755"><ele>843.4000000000001</ele><time>2026-04-21T08:47:25.027Z</time></trkpt><trkpt lat="40.6727831" lon="9.2820127"><ele>845.2</ele><time>2026-04-21T08:47:26.007Z</time></trkpt><trkpt lat="40.6728125" lon="9.2821629"><ele>847.0</ele><time>2026-04-21T08:47:27.01Z</time></trkpt><trkpt lat="40.6728161" lon="9.2823153"><ele>847.0</ele><time>2026-04-21T08:47:28.013Z</time></trkpt><trkpt lat="40.6728232" lon="9.2825086"><ele>847.0</ele><time>2026-04-21T08:47:29.018Z</time></trkpt><trkpt lat="40.6728394" lon="9.2826617"><ele>847.0</ele><time>2026-04-21T08:47:30.03Z</time></trkpt><trkpt lat="40.6729294" lon="9.2827798"><ele>847.0</ele><time>2026-04-21T08:47:31.028Z</time></trkpt><trkpt lat="40.6729595" lon="9.2829292"><ele>847.0</ele><time>2026-04-21T08:47:32.03Z</time></trkpt><trkpt lat="40.6729922" lon="9.2830666"><ele>847.0</ele><time>2026-04-21T08:47:33.023Z</time></trkpt><trkpt lat="40.6730288" lon="9.2831974"><ele>847.0</ele><time>2026-04-21T08:47:34.036Z</time></trkpt><trkpt lat="40.6730706" lon="9.283328"><ele>847.0</ele><time>2026-04-21T08:47:35.023Z</time></trkpt><trkpt lat="40.6731111" lon="9.283445"><ele>847.0</ele><time>2026-04-21T08:47:36.026Z</time></trkpt><trkpt lat="40.6731555" lon="9.2835725"><ele>845.8</ele><time>2026-04-21T08:47:37.023Z</time></trkpt><trkpt lat="40.6732057" lon="9.2836884"><ele>844.6</ele><time>2026-04-21T08:47:38.019Z</time></trkpt><trkpt lat="40.6732456" lon="9.2838016"><ele>843.4</ele><time>2026-04-21T08:47:39.021Z</time></trkpt><trkpt lat="40.6732771" lon="9.2839086"><ele>842.1999999999999</ele><time>2026-04-21T08:47:40.024Z</time></trkpt><trkpt lat="40.6733078" lon="9.2840216"><ele>841.0</ele><time>2026-04-21T08:47:41.017Z</time></trkpt><trkpt lat="40.6733412" lon="9.284136"><ele>839.6666666666666</ele><time>2026-04-21T08:47:42.024Z</time></trkpt><trkpt lat="40.6733735" lon="9.2842408"><ele>838.3333333333333</ele><time>2026-04-21T08:47:43.015Z</time></trkpt><trkpt lat="40.6734059" lon="9.2843241"><ele>837.0</ele><time>2026-04-21T08:47:44.021Z</time></trkpt><trkpt lat="40.67346" lon="9.28439"><ele>835.6666666666667</ele><time>2026-04-21T08:47:45.02Z</time></trkpt><trkpt lat="40.6735143" lon="9.2844683"><ele>834.3333333333334</ele><time>2026-04-21T08:47:46.015Z</time></trkpt><trkpt lat="40.6735721" lon="9.2845362"><ele>833.0</ele><time>2026-04-21T08:47:47.011Z</time></trkpt><trkpt lat="40.6736328" lon="9.2845789"><ele>833.0000000000001</ele><time>2026-04-21T08:47:48.005Z</time></trkpt><trkpt lat="40.6736996" lon="9.2846107"><ele>833.0</ele><time>2026-04-21T08:47:49.003Z</time></trkpt><trkpt lat="40.6737698" lon="9.2846273"><ele>833.0</ele><time>2026-04-21T08:47:50.011Z</time></trkpt><trkpt lat="40.6739006" lon="9.2846487"><ele>833.0</ele><time>2026-04-21T08:47:52.018Z</time></trkpt><trkpt lat="40.6739824" lon="9.2846575"><ele>833.0000000000001</ele><time>2026-04-21T08:47:53.019Z</time></trkpt><trkpt lat="40.6740544" lon="9.2846498"><ele>833.0</ele><time>2026-04-21T08:47:54.019Z</time></trkpt><trkpt lat="40.674128" lon="9.2846542"><ele>833.0</ele><time>2026-04-21T08:47:55.021Z</time></trkpt><trkpt lat="40.6742459" lon="9.2847519"><ele>833.0</ele><time>2026-04-21T08:47:57.01Z</time></trkpt><trkpt lat="40.674311" lon="9.2848399"><ele>833.0</ele><time>2026-04-21T08:47:58.019Z</time></trkpt><trkpt lat="40.6743685" lon="9.2849344"><ele>833.0</ele><time>2026-04-21T08:47:59.012Z</time></trkpt><trkpt lat="40.6744244" lon="9.285011"><ele>833.0</ele><time>2026-04-21T08:48:00.032Z</time></trkpt><trkpt lat="40.6744758" lon="9.2850893"><ele>834.8</ele><time>2026-04-21T08:48:01.028Z</time></trkpt><trkpt lat="40.6745404" lon="9.2851785"><ele>836.5999999999999</ele><time>2026-04-21T08:48:02.027Z</time></trkpt><trkpt lat="40.674601" lon="9.2853044"><ele>838.4000000000001</ele><time>2026-04-21T08:48:03.025Z</time></trkpt><trkpt lat="40.6746565" lon="9.2854266"><ele>840.2</ele><time>2026-04-21T08:48:04.024Z</time></trkpt><trkpt lat="40.6747132" lon="9.2855545"><ele>842.0</ele><time>2026-04-21T08:48:05.023Z</time></trkpt><trkpt lat="40.6747721" lon="9.2856847"><ele>842.0</ele><time>2026-04-21T08:48:06.03Z</time></trkpt><trkpt lat="40.6748306" lon="9.2858061"><ele>842.0</ele><time>2026-04-21T08:48:07.023Z</time></trkpt><trkpt lat="40.6748895" lon="9.2859034"><ele>842.0</ele><time>2026-04-21T08:48:08.019Z</time></trkpt><trkpt lat="40.6749446" lon="9.2860044"><ele>842.0</ele><time>2026-04-21T08:48:09.031Z</time></trkpt><trkpt lat="40.6749962" lon="9.2861085"><ele>842.0</ele><time>2026-04-21T08:48:10.025Z</time></trkpt><trkpt lat="40.6750531" lon="9.2862114"><ele>842.0</ele><time>2026-04-21T08:48:11.031Z</time></trkpt><trkpt lat="40.675115" lon="9.2863076"><ele>842.0</ele><time>2026-04-21T08:48:12.031Z</time></trkpt><trkpt lat="40.6751802" lon="9.2863999"><ele>842.0</ele><time>2026-04-21T08:48:13.032Z</time></trkpt><trkpt lat="40.6752421" lon="9.286494"><ele>842.0</ele><time>2026-04-21T08:48:14.038Z</time></trkpt><trkpt lat="40.6753089" lon="9.2865877"><ele>842.0</ele><time>2026-04-21T08:48:15.031Z</time></trkpt><trkpt lat="40.6753796" lon="9.286688"><ele>844.6666666666667</ele><time>2026-04-21T08:48:16.032Z</time></trkpt><trkpt lat="40.6754481" lon="9.2867849"><ele>847.3333333333334</ele><time>2026-04-21T08:48:17.036Z</time></trkpt><trkpt lat="40.675505" lon="9.286871"><ele>850.0</ele><time>2026-04-21T08:48:18.037Z</time></trkpt><trkpt lat="40.6755625" lon="9.2869527"><ele>852.6666666666667</ele><time>2026-04-21T08:48:19.041Z</time></trkpt><trkpt lat="40.6756184" lon="9.2870352"><ele>855.3333333333334</ele><time>2026-04-21T08:48:20.036Z</time></trkpt><trkpt lat="40.6756796" lon="9.287121"><ele>858.0</ele><time>2026-04-21T08:48:21.035Z</time></trkpt><trkpt lat="40.6757387" lon="9.2872046"><ele>856.0</ele><time>2026-04-21T08:48:22.033Z</time></trkpt><trkpt lat="40.6757992" lon="9.2872901"><ele>854.0</ele><time>2026-04-21T08:48:23.041Z</time></trkpt><trkpt lat="40.675859" lon="9.2873746"><ele>852.0</ele><time>2026-04-21T08:48:24.039Z</time></trkpt><trkpt lat="40.6759167" lon="9.2874476"><ele>850.0</ele><time>2026-04-21T08:48:25.039Z</time></trkpt><trkpt lat="40.6759655" lon="9.2875185"><ele>848.0</ele><time>2026-04-21T08:48:26.038Z</time></trkpt><trkpt lat="40.6760001" lon="9.2875989"><ele>846.0</ele><time>2026-04-21T08:48:27.03Z</time></trkpt><trkpt lat="40.6759881" lon="9.2877497"><ele>846.0</ele><time>2026-04-21T08:48:29.016Z</time></trkpt><trkpt lat="40.6758931" lon="9.2878299"><ele>846.0</ele><time>2026-04-21T08:48:31.024Z</time></trkpt><trkpt lat="40.6758094" lon="9.2878482"><ele>846.0</ele><time>2026-04-21T08:48:32.033Z</time></trkpt><trkpt lat="40.6757" lon="9.2878687"><ele>846.0</ele><time>2026-04-21T08:48:33.033Z</time></trkpt><trkpt lat="40.6755878" lon="9.2878804"><ele>846.0</ele><time>2026-04-21T08:48:34.03Z</time></trkpt><trkpt lat="40.6754711" lon="9.2878864"><ele>846.0</ele><time>2026-04-21T08:48:35.03Z</time></trkpt><trkpt lat="40.6753505" lon="9.2878936"><ele>846.0</ele><time>2026-04-21T08:48:36.032Z</time></trkpt><trkpt lat="40.6752248" lon="9.2878993"><ele>846.0</ele><time>2026-04-21T08:48:37.03Z</time></trkpt><trkpt lat="40.6750965" lon="9.2879055"><ele>846.0</ele><time>2026-04-21T08:48:38.04Z</time></trkpt><trkpt lat="40.6749802" lon="9.2879168"><ele>845.5999999999999</ele><time>2026-04-21T08:48:39.039Z</time></trkpt><trkpt lat="40.674876" lon="9.2879324"><ele>845.2</ele><time>2026-04-21T08:48:40.04Z</time></trkpt><trkpt lat="40.6747837" lon="9.2879577"><ele>844.8</ele><time>2026-04-21T08:48:41.04Z</time></trkpt><trkpt lat="40.6747049" lon="9.2880056"><ele>844.4000000000001</ele><time>2026-04-21T08:48:42.04Z</time></trkpt><trkpt lat="40.6746301" lon="9.288072"><ele>844.0</ele><time>2026-04-21T08:48:43.031Z</time></trkpt><trkpt lat="40.6745572" lon="9.2881535"><ele>845.8333333333333</ele><time>2026-04-21T08:48:44.033Z</time></trkpt><trkpt lat="40.6744851" lon="9.2882441"><ele>847.6666666666666</ele><time>2026-04-21T08:48:45.029Z</time></trkpt><trkpt lat="40.6744167" lon="9.2883293"><ele>849.5</ele><time>2026-04-21T08:48:46.037Z</time></trkpt><trkpt lat="40.6743506" lon="9.2884025"><ele>851.3333333333333</ele><time>2026-04-21T08:48:47.05Z</time></trkpt><trkpt lat="40.6742846" lon="9.2884571"><ele>853.1666666666666</ele><time>2026-04-21T08:48:48.044Z</time></trkpt><trkpt lat="40.6742127" lon="9.2885177"><ele>855.0</ele><time>2026-04-21T08:48:49.045Z</time></trkpt><trkpt lat="40.6741366" lon="9.2885921"><ele>855.0</ele><time>2026-04-21T08:48:50.054Z</time></trkpt><trkpt lat="40.6740554" lon="9.2886629"><ele>855.0</ele><time>2026-04-21T08:48:51.044Z</time></trkpt><trkpt lat="40.673983" lon="9.2887259"><ele>855.0</ele><time>2026-04-21T08:48:52.054Z</time></trkpt><trkpt lat="40.6739216" lon="9.2887771"><ele>855.0</ele><time>2026-04-21T08:48:53.053Z</time></trkpt><trkpt lat="40.6738558" lon="9.2888279"><ele>855.0</ele><time>2026-04-21T08:48:54.047Z</time></trkpt><trkpt lat="40.6737952" lon="9.2888686"><ele>855.0</ele><time>2026-04-21T08:48:55.053Z</time></trkpt><trkpt lat="40.673734" lon="9.2889113"><ele>856.3333333333334</ele><time>2026-04-21T08:48:56.05Z</time></trkpt><trkpt lat="40.6736705" lon="9.2889628"><ele>857.6666666666667</ele><time>2026-04-21T08:48:57.047Z</time></trkpt><trkpt lat="40.6735991" lon="9.2890177"><ele>859.0</ele><time>2026-04-21T08:48:58.056Z</time></trkpt><trkpt lat="40.6735235" lon="9.2890907"><ele>860.3333333333334</ele><time>2026-04-21T08:48:59.028Z</time></trkpt><trkpt lat="40.6734754" lon="9.2891768"><ele>861.6666666666667</ele><time>2026-04-21T08:49:00.031Z</time></trkpt><trkpt lat="40.6734361" lon="9.2892795"><ele>863.0</ele><time>2026-04-21T08:49:01.036Z</time></trkpt><trkpt lat="40.6734047" lon="9.2893888"><ele>863.0</ele><time>2026-04-21T08:49:02.04Z</time></trkpt><trkpt lat="40.6734015" lon="9.2894926"><ele>863.0</ele><time>2026-04-21T08:49:02.961Z</time></trkpt><trkpt lat="40.6733656" lon="9.2895909"><ele>863.0</ele><time>2026-04-21T08:49:03.962Z</time></trkpt><trkpt lat="40.6733132" lon="9.2896959"><ele>863.0</ele><time>2026-04-21T08:49:04.962Z</time></trkpt><trkpt lat="40.6732665" lon="9.2898199"><ele>863.0</ele><time>2026-04-21T08:49:05.968Z</time></trkpt><trkpt lat="40.673237" lon="9.2899423"><ele>863.5000000000001</ele><time>2026-04-21T08:49:06.97Z</time></trkpt><trkpt lat="40.6732232" lon="9.2900502"><ele>864.0</ele><time>2026-04-21T08:49:07.963Z</time></trkpt><trkpt lat="40.6732109" lon="9.2901441"><ele>864.5</ele><time>2026-04-21T08:49:08.964Z</time></trkpt><trkpt lat="40.6731696" lon="9.2902737"><ele>865.0</ele><time>2026-04-21T08:49:10.963Z</time></trkpt><trkpt lat="40.6731833" lon="9.2903593"><ele>865.5000000000001</ele><time>2026-04-21T08:49:15.964Z</time></trkpt><trkpt lat="40.6732797" lon="9.2904391"><ele>866.0</ele><time>2026-04-21T08:49:17.968Z</time></trkpt><trkpt lat="40.6733485" lon="9.2904915"><ele>866.0</ele><time>2026-04-21T08:49:18.972Z</time></trkpt><trkpt lat="40.673429" lon="9.2905426"><ele>865.9999999999999</ele><time>2026-04-21T08:49:19.971Z</time></trkpt><trkpt lat="40.6735182" lon="9.290596"><ele>865.9999999999999</ele><time>2026-04-21T08:49:20.976Z</time></trkpt><trkpt lat="40.6736132" lon="9.2906385"><ele>866.0</ele><time>2026-04-21T08:49:21.971Z</time></trkpt><trkpt lat="40.6737053" lon="9.2906767"><ele>866.0</ele><time>2026-04-21T08:49:22.974Z</time></trkpt><trkpt lat="40.6738005" lon="9.2907114"><ele>867.4</ele><time>2026-04-21T08:49:23.963Z</time></trkpt><trkpt lat="40.6738996" lon="9.2907362"><ele>868.8</ele><time>2026-04-21T08:49:24.967Z</time></trkpt><trkpt lat="40.6739968" lon="9.2907656"><ele>870.1999999999999</ele><time>2026-04-21T08:49:25.963Z</time></trkpt><trkpt lat="40.6740915" lon="9.290792"><ele>871.5999999999999</ele><time>2026-04-21T08:49:26.968Z</time></trkpt><trkpt lat="40.6741911" lon="9.2908322"><ele>873.0</ele><time>2026-04-21T08:49:27.957Z</time></trkpt><trkpt lat="40.6742814" lon="9.2908774"><ele>873.0</ele><time>2026-04-21T08:49:28.963Z</time></trkpt><trkpt lat="40.6743768" lon="9.2909148"><ele>873.0</ele><time>2026-04-21T08:49:29.967Z</time></trkpt><trkpt lat="40.6744726" lon="9.2909627"><ele>873.0</ele><time>2026-04-21T08:49:30.965Z</time></trkpt><trkpt lat="40.6745569" lon="9.2910195"><ele>873.0</ele><time>2026-04-21T08:49:31.963Z</time></trkpt><trkpt lat="40.6746442" lon="9.2910865"><ele>873.0</ele><time>2026-04-21T08:49:32.959Z</time></trkpt><trkpt lat="40.6747402" lon="9.2911661"><ele>874.0</ele><time>2026-04-21T08:49:33.963Z</time></trkpt><trkpt lat="40.674833" lon="9.2912466"><ele>875.0</ele><time>2026-04-21T08:49:34.955Z</time></trkpt><trkpt lat="40.6749112" lon="9.291335"><ele>876.0</ele><time>2026-04-21T08:49:35.962Z</time></trkpt><trkpt lat="40.6749811" lon="9.2914129"><ele>877.0</ele><time>2026-04-21T08:49:36.959Z</time></trkpt><trkpt lat="40.6750543" lon="9.2914895"><ele>878.0</ele><time>2026-04-21T08:49:37.96Z</time></trkpt><trkpt lat="40.6751278" lon="9.2915678"><ele>878.5000000000001</ele><time>2026-04-21T08:49:38.958Z</time></trkpt><trkpt lat="40.6751987" lon="9.2916517"><ele>879.0</ele><time>2026-04-21T08:49:39.959Z</time></trkpt><trkpt lat="40.6752625" lon="9.2917431"><ele>879.5</ele><time>2026-04-21T08:49:40.964Z</time></trkpt><trkpt lat="40.6753196" lon="9.2918287"><ele>880.0</ele><time>2026-04-21T08:49:41.951Z</time></trkpt><trkpt lat="40.6753647" lon="9.2919166"><ele>880.5000000000001</ele><time>2026-04-21T08:49:42.953Z</time></trkpt><trkpt lat="40.6753962" lon="9.2919945"><ele>881.0</ele><time>2026-04-21T08:49:43.958Z</time></trkpt><trkpt lat="40.6755031" lon="9.2920613"><ele>882.4</ele><time>2026-04-21T08:49:45.953Z</time></trkpt><trkpt lat="40.6756141" lon="9.2920076"><ele>883.8</ele><time>2026-04-21T08:49:47.945Z</time></trkpt><trkpt lat="40.6756874" lon="9.2919634"><ele>885.1999999999999</ele><time>2026-04-21T08:49:48.951Z</time></trkpt><trkpt lat="40.6757703" lon="9.2919079"><ele>886.5999999999999</ele><time>2026-04-21T08:49:49.958Z</time></trkpt><trkpt lat="40.6758593" lon="9.2918583"><ele>888.0</ele><time>2026-04-21T08:49:50.952Z</time></trkpt><trkpt lat="40.6759482" lon="9.2918054"><ele>888.0</ele><time>2026-04-21T08:49:51.958Z</time></trkpt><trkpt lat="40.6760463" lon="9.2917561"><ele>888.0</ele><time>2026-04-21T08:49:52.951Z</time></trkpt><trkpt lat="40.676137" lon="9.2917169"><ele>888.0</ele><time>2026-04-21T08:49:53.96Z</time></trkpt><trkpt lat="40.676234" lon="9.2916569"><ele>888.0</ele><time>2026-04-21T08:49:54.954Z</time></trkpt><trkpt lat="40.6763374" lon="9.2915921"><ele>888.0</ele><time>2026-04-21T08:49:55.953Z</time></trkpt><trkpt lat="40.6764462" lon="9.291516"><ele>888.5999999999999</ele><time>2026-04-21T08:49:56.956Z</time></trkpt><trkpt lat="40.6765475" lon="9.2914604"><ele>889.1999999999999</ele><time>2026-04-21T08:49:57.957Z</time></trkpt><trkpt lat="40.6766354" lon="9.2914178"><ele>889.8</ele><time>2026-04-21T08:49:58.959Z</time></trkpt><trkpt lat="40.6767324" lon="9.2913612"><ele>890.4</ele><time>2026-04-21T08:49:59.954Z</time></trkpt><trkpt lat="40.6768153" lon="9.2913098"><ele>891.0</ele><time>2026-04-21T08:50:00.954Z</time></trkpt><trkpt lat="40.6769033" lon="9.2912814"><ele>891.1999999999999</ele><time>2026-04-21T08:50:01.957Z</time></trkpt><trkpt lat="40.6769904" lon="9.29129"><ele>891.3999999999999</ele><time>2026-04-21T08:50:02.947Z</time></trkpt><trkpt lat="40.6770747" lon="9.2913122"><ele>891.6</ele><time>2026-04-21T08:50:03.949Z</time></trkpt><trkpt lat="40.677174" lon="9.2913263"><ele>891.8</ele><time>2026-04-21T08:50:04.945Z</time></trkpt><trkpt lat="40.6772698" lon="9.291304"><ele>892.0</ele><time>2026-04-21T08:50:05.945Z</time></trkpt><trkpt lat="40.677365" lon="9.2912541"><ele>892.0</ele><time>2026-04-21T08:50:06.952Z</time></trkpt><trkpt lat="40.6774479" lon="9.2912181"><ele>892.0</ele><time>2026-04-21T08:50:07.949Z</time></trkpt><trkpt lat="40.6775436" lon="9.2911945"><ele>892.0</ele><time>2026-04-21T08:50:08.951Z</time></trkpt><trkpt lat="40.677641" lon="9.2911673"><ele>892.0</ele><time>2026-04-21T08:50:09.949Z</time></trkpt><trkpt lat="40.6777292" lon="9.2911377"><ele>892.0</ele><time>2026-04-21T08:50:10.951Z</time></trkpt><trkpt lat="40.6778188" lon="9.2910935"><ele>892.8</ele><time>2026-04-21T08:50:11.945Z</time></trkpt><trkpt lat="40.6779097" lon="9.2910339"><ele>893.6</ele><time>2026-04-21T08:50:12.951Z</time></trkpt><trkpt lat="40.6779962" lon="9.2909758"><ele>894.3999999999999</ele><time>2026-04-21T08:50:13.954Z</time></trkpt><trkpt lat="40.6780777" lon="9.2909191"><ele>895.1999999999999</ele><time>2026-04-21T08:50:14.953Z</time></trkpt><trkpt lat="40.6781551" lon="9.2908676"><ele>896.0</ele><time>2026-04-21T08:50:15.96Z</time></trkpt><trkpt lat="40.6782379" lon="9.2908217"><ele>896.0</ele><time>2026-04-21T08:50:16.966Z</time></trkpt><trkpt lat="40.6783325" lon="9.2907785"><ele>895.9999999999999</ele><time>2026-04-21T08:50:17.953Z</time></trkpt><trkpt lat="40.6784213" lon="9.2907592"><ele>895.9999999999999</ele><time>2026-04-21T08:50:18.95Z</time></trkpt><trkpt lat="40.6785211" lon="9.2907439"><ele>896.0</ele><time>2026-04-21T08:50:19.959Z</time></trkpt><trkpt lat="40.6786186" lon="9.2907366"><ele>896.0</ele><time>2026-04-21T08:50:20.959Z</time></trkpt><trkpt lat="40.6787114" lon="9.2907359"><ele>895.8</ele><time>2026-04-21T08:50:21.957Z</time></trkpt><trkpt lat="40.6788115" lon="9.2907375"><ele>895.5999999999999</ele><time>2026-04-21T08:50:22.959Z</time></trkpt><trkpt lat="40.6789118" lon="9.2907427"><ele>895.4</ele><time>2026-04-21T08:50:23.96Z</time></trkpt><trkpt lat="40.6790079" lon="9.2907617"><ele>895.2</ele><time>2026-04-21T08:50:24.953Z</time></trkpt><trkpt lat="40.6791062" lon="9.2907902"><ele>895.0</ele><time>2026-04-21T08:50:25.958Z</time></trkpt><trkpt lat="40.6792137" lon="9.2908082"><ele>895.0</ele><time>2026-04-21T08:50:26.96Z</time></trkpt><trkpt lat="40.6793266" lon="9.290812"><ele>895.0</ele><time>2026-04-21T08:50:27.954Z</time></trkpt><trkpt lat="40.6794359" lon="9.2908269"><ele>895.0</ele><time>2026-04-21T08:50:28.958Z</time></trkpt><trkpt lat="40.6795465" lon="9.2908504"><ele>895.0</ele><time>2026-04-21T08:50:29.957Z</time></trkpt><trkpt lat="40.6796556" lon="9.2908839"><ele>895.0</ele><time>2026-04-21T08:50:30.956Z</time></trkpt><trkpt lat="40.6797731" lon="9.2909173"><ele>895.5</ele><time>2026-04-21T08:50:31.953Z</time></trkpt><trkpt lat="40.6798908" lon="9.2909486"><ele>896.0</ele><time>2026-04-21T08:50:32.959Z</time></trkpt><trkpt lat="40.680004" lon="9.2910017"><ele>896.5</ele><time>2026-04-21T08:50:33.951Z</time></trkpt><trkpt lat="40.6801112" lon="9.2910566"><ele>897.0</ele><time>2026-04-21T08:50:34.951Z</time></trkpt><trkpt lat="40.6802258" lon="9.2911209"><ele>899.0</ele><time>2026-04-21T08:50:35.953Z</time></trkpt><trkpt lat="40.6803433" lon="9.291203"><ele>901.0</ele><time>2026-04-21T08:50:36.954Z</time></trkpt><trkpt lat="40.6804523" lon="9.2912899"><ele>903.0</ele><time>2026-04-21T08:50:37.96Z</time></trkpt><trkpt lat="40.6805605" lon="9.2913788"><ele>905.0</ele><time>2026-04-21T08:50:38.953Z</time></trkpt><trkpt lat="40.6806711" lon="9.2914698"><ele>905.6</ele><time>2026-04-21T08:50:39.952Z</time></trkpt><trkpt lat="40.6807744" lon="9.2915505"><ele>906.2</ele><time>2026-04-21T08:50:40.962Z</time></trkpt><trkpt lat="40.6808807" lon="9.2916022"><ele>906.8</ele><time>2026-04-21T08:50:41.946Z</time></trkpt><trkpt lat="40.6809807" lon="9.291632"><ele>907.4</ele><time>2026-04-21T08:50:42.953Z</time></trkpt><trkpt lat="40.6810668" lon="9.2916545"><ele>908.0</ele><time>2026-04-21T08:50:43.965Z</time></trkpt><trkpt lat="40.6811696" lon="9.291684"><ele>908.0</ele><time>2026-04-21T08:50:44.96Z</time></trkpt><trkpt lat="40.6812849" lon="9.2917102"><ele>908.0</ele><time>2026-04-21T08:50:45.961Z</time></trkpt><trkpt lat="40.681413" lon="9.2917426"><ele>908.0</ele><time>2026-04-21T08:50:46.965Z</time></trkpt><trkpt lat="40.6815408" lon="9.2917744"><ele>908.0</ele><time>2026-04-21T08:50:47.958Z</time></trkpt><trkpt lat="40.6816703" lon="9.2918038"><ele>908.0</ele><time>2026-04-21T08:50:48.963Z</time></trkpt><trkpt lat="40.6817888" lon="9.2918348"><ele>908.0</ele><time>2026-04-21T08:50:49.958Z</time></trkpt><trkpt lat="40.6819189" lon="9.2918667"><ele>908.0</ele><time>2026-04-21T08:50:50.956Z</time></trkpt><trkpt lat="40.6820614" lon="9.2918819"><ele>908.0</ele><time>2026-04-21T08:50:51.96Z</time></trkpt><trkpt lat="40.682212" lon="9.2918771"><ele>908.75</ele><time>2026-04-21T08:50:52.961Z</time></trkpt><trkpt lat="40.6823497" lon="9.2918592"><ele>909.5</ele><time>2026-04-21T08:50:53.957Z</time></trkpt><trkpt lat="40.6825022" lon="9.2918291"><ele>910.25</ele><time>2026-04-21T08:50:54.962Z</time></trkpt><trkpt lat="40.6826435" lon="9.2918077"><ele>911.0</ele><time>2026-04-21T08:50:55.95Z</time></trkpt><trkpt lat="40.6827776" lon="9.2918165"><ele>913.75</ele><time>2026-04-21T08:50:56.948Z</time></trkpt><trkpt lat="40.6829246" lon="9.2918003"><ele>916.5</ele><time>2026-04-21T08:50:57.955Z</time></trkpt><trkpt lat="40.6830654" lon="9.2917902"><ele>919.25</ele><time>2026-04-21T08:50:58.951Z</time></trkpt><trkpt lat="40.6831901" lon="9.2917997"><ele>922.0</ele><time>2026-04-21T08:50:59.946Z</time></trkpt><trkpt lat="40.6833452" lon="9.2918056"><ele>922.0</ele><time>2026-04-21T08:51:00.944Z</time></trkpt><trkpt lat="40.6834848" lon="9.2918508"><ele>922.0</ele><time>2026-04-21T08:51:01.947Z</time></trkpt><trkpt lat="40.6836195" lon="9.2918984"><ele>922.0</ele><time>2026-04-21T08:51:02.948Z</time></trkpt><trkpt lat="40.6837308" lon="9.2919334"><ele>922.0</ele><time>2026-04-21T08:51:03.949Z</time></trkpt><trkpt lat="40.6838147" lon="9.2919728"><ele>924.1666666666666</ele><time>2026-04-21T08:51:04.947Z</time></trkpt><trkpt lat="40.6839278" lon="9.2919996"><ele>926.3333333333333</ele><time>2026-04-21T08:51:06.945Z</time></trkpt><trkpt lat="40.6840082" lon="9.2920165"><ele>928.5</ele><time>2026-04-21T08:51:08.943Z</time></trkpt><trkpt lat="40.6840777" lon="9.2920339"><ele>930.6666666666667</ele><time>2026-04-21T08:51:10.965Z</time></trkpt><trkpt lat="40.6841428" lon="9.2920512"><ele>932.8333333333334</ele><time>2026-04-21T08:51:12.97Z</time></trkpt><trkpt lat="40.684256" lon="9.2920539"><ele>935.0</ele><time>2026-04-21T08:51:14.961Z</time></trkpt><trkpt lat="40.6843237" lon="9.2920553"><ele>935.0000000000001</ele><time>2026-04-21T08:51:15.963Z</time></trkpt><trkpt lat="40.6844009" lon="9.292048"><ele>935.0</ele><time>2026-04-21T08:51:16.963Z</time></trkpt><trkpt lat="40.6844749" lon="9.2920358"><ele>935.0</ele><time>2026-04-21T08:51:17.962Z</time></trkpt><trkpt lat="40.6845495" lon="9.2920227"><ele>935.0</ele><time>2026-04-21T08:51:18.954Z</time></trkpt><trkpt lat="40.6846141" lon="9.292017"><ele>935.0000000000001</ele><time>2026-04-21T08:51:19.957Z</time></trkpt><trkpt lat="40.684695" lon="9.2920219"><ele>935.0</ele><time>2026-04-21T08:51:20.959Z</time></trkpt><trkpt lat="40.6847758" lon="9.2920425"><ele>936.4</ele><time>2026-04-21T08:51:21.962Z</time></trkpt><trkpt lat="40.6848608" lon="9.2920615"><ele>937.8</ele><time>2026-04-21T08:51:22.967Z</time></trkpt><trkpt lat="40.6849524" lon="9.2920676"><ele>939.2</ele><time>2026-04-21T08:51:23.966Z</time></trkpt><trkpt lat="40.6850435" lon="9.2920681"><ele>940.6</ele><time>2026-04-21T08:51:25.04Z</time></trkpt><trkpt lat="40.6851394" lon="9.2920499"><ele>942.0</ele><time>2026-04-21T08:51:26.029Z</time></trkpt><trkpt lat="40.6852393" lon="9.2920196"><ele>942.0</ele><time>2026-04-21T08:51:27.033Z</time></trkpt><trkpt lat="40.6853405" lon="9.291988"><ele>942.0</ele><time>2026-04-21T08:51:28.019Z</time></trkpt><trkpt lat="40.6854447" lon="9.2919573"><ele>942.0</ele><time>2026-04-21T08:51:29.026Z</time></trkpt><trkpt lat="40.6855479" lon="9.2919149"><ele>942.0</ele><time>2026-04-21T08:51:30.02Z</time></trkpt><trkpt lat="40.6856525" lon="9.2918705"><ele>942.0</ele><time>2026-04-21T08:51:31.025Z</time></trkpt><trkpt lat="40.6857606" lon="9.2918204"><ele>942.0</ele><time>2026-04-21T08:51:32.039Z</time></trkpt><trkpt lat="40.6858713" lon="9.2917675"><ele>942.0</ele><time>2026-04-21T08:51:33.038Z</time></trkpt><trkpt lat="40.6859838" lon="9.2917247"><ele>942.0</ele><time>2026-04-21T08:51:34.044Z</time></trkpt><trkpt lat="40.6860886" lon="9.291679"><ele>942.0</ele><time>2026-04-21T08:51:35.039Z</time></trkpt><trkpt lat="40.6862059" lon="9.2916657"><ele>941.4000000000001</ele><time>2026-04-21T08:51:36.04Z</time></trkpt><trkpt lat="40.686306" lon="9.2916195"><ele>940.8000000000001</ele><time>2026-04-21T08:51:37.037Z</time></trkpt><trkpt lat="40.6863973" lon="9.2915614"><ele>940.2</ele><time>2026-04-21T08:51:38.036Z</time></trkpt><trkpt lat="40.6864646" lon="9.2914847"><ele>939.6</ele><time>2026-04-21T08:51:39.029Z</time></trkpt><trkpt lat="40.6865192" lon="9.291393"><ele>939.0</ele><time>2026-04-21T08:51:40.028Z</time></trkpt><trkpt lat="40.6865651" lon="9.2912871"><ele>940.4000000000001</ele><time>2026-04-21T08:51:41.019Z</time></trkpt><trkpt lat="40.6866171" lon="9.291158"><ele>941.8000000000001</ele><time>2026-04-21T08:51:42.025Z</time></trkpt><trkpt lat="40.6866633" lon="9.2910282"><ele>943.1999999999999</ele><time>2026-04-21T08:51:43.023Z</time></trkpt><trkpt lat="40.6866903" lon="9.2909062"><ele>944.5999999999999</ele><time>2026-04-21T08:51:44.032Z</time></trkpt><trkpt lat="40.6867034" lon="9.2907815"><ele>946.0</ele><time>2026-04-21T08:51:45.033Z</time></trkpt><trkpt lat="40.6867117" lon="9.2906434"><ele>946.1999999999999</ele><time>2026-04-21T08:51:46.039Z</time></trkpt><trkpt lat="40.6867096" lon="9.2904952"><ele>946.3999999999999</ele><time>2026-04-21T08:51:47.025Z</time></trkpt><trkpt lat="40.6866991" lon="9.2903523"><ele>946.6</ele><time>2026-04-21T08:51:48.024Z</time></trkpt><trkpt lat="40.6866836" lon="9.2902087"><ele>946.8</ele><time>2026-04-21T08:51:49.027Z</time></trkpt><trkpt lat="40.6866633" lon="9.290057"><ele>947.0</ele><time>2026-04-21T08:51:50.029Z</time></trkpt><trkpt lat="40.6866478" lon="9.2898951"><ele>947.25</ele><time>2026-04-21T08:51:51.042Z</time></trkpt><trkpt lat="40.6866401" lon="9.2897346"><ele>947.5</ele><time>2026-04-21T08:51:52.039Z</time></trkpt><trkpt lat="40.68664" lon="9.2895635"><ele>947.75</ele><time>2026-04-21T08:51:53.047Z</time></trkpt><trkpt lat="40.6866495" lon="9.2894141"><ele>948.0</ele><time>2026-04-21T08:51:54.031Z</time></trkpt><trkpt lat="40.6866697" lon="9.2892607"><ele>948.0</ele><time>2026-04-21T08:51:55.023Z</time></trkpt><trkpt lat="40.6866945" lon="9.2891084"><ele>948.0</ele><time>2026-04-21T08:51:56.025Z</time></trkpt><trkpt lat="40.6867193" lon="9.2889648"><ele>948.0</ele><time>2026-04-21T08:51:57.025Z</time></trkpt><trkpt lat="40.6867489" lon="9.2888301"><ele>948.0</ele><time>2026-04-21T08:51:58.039Z</time></trkpt><trkpt lat="40.686787" lon="9.2887022"><ele>948.0</ele><time>2026-04-21T08:51:59.034Z</time></trkpt><trkpt lat="40.6868368" lon="9.2885747"><ele>947.5999999999999</ele><time>2026-04-21T08:52:00.033Z</time></trkpt><trkpt lat="40.6868914" lon="9.2884463"><ele>947.1999999999999</ele><time>2026-04-21T08:52:01.029Z</time></trkpt><trkpt lat="40.6869504" lon="9.2883199"><ele>946.8</ele><time>2026-04-21T08:52:02.029Z</time></trkpt><trkpt lat="40.6870096" lon="9.2881968"><ele>946.4</ele><time>2026-04-21T08:52:03.033Z</time></trkpt><trkpt lat="40.6870664" lon="9.2880673"><ele>946.0</ele><time>2026-04-21T08:52:04.033Z</time></trkpt><trkpt lat="40.687117" lon="9.2879281"><ele>946.8</ele><time>2026-04-21T08:52:05.046Z</time></trkpt><trkpt lat="40.6871654" lon="9.2877932"><ele>947.5999999999999</ele><time>2026-04-21T08:52:06.052Z</time></trkpt><trkpt lat="40.6872151" lon="9.2876611"><ele>948.4</ele><time>2026-04-21T08:52:07.05Z</time></trkpt><trkpt lat="40.6872652" lon="9.28755"><ele>949.2</ele><time>2026-04-21T08:52:08.047Z</time></trkpt><trkpt lat="40.687319" lon="9.2874535"><ele>950.0</ele><time>2026-04-21T08:52:09.043Z</time></trkpt><trkpt lat="40.6873859" lon="9.2873828"><ele>950.0000000000001</ele><time>2026-04-21T08:52:10.029Z</time></trkpt><trkpt lat="40.6874524" lon="9.2873441"><ele>950.0</ele><time>2026-04-21T08:52:11.025Z</time></trkpt><trkpt lat="40.6875256" lon="9.2873419"><ele>950.0</ele><time>2026-04-21T08:52:12.026Z</time></trkpt><trkpt lat="40.6875978" lon="9.287357"><ele>950.0</ele><time>2026-04-21T08:52:13.028Z</time></trkpt><trkpt lat="40.6876772" lon="9.2873864"><ele>950.0000000000001</ele><time>2026-04-21T08:52:14.048Z</time></trkpt><trkpt lat="40.6877491" lon="9.2874363"><ele>950.0</ele><time>2026-04-21T08:52:15.044Z</time></trkpt><trkpt lat="40.6878196" lon="9.2874732"><ele>950.1666666666667</ele><time>2026-04-21T08:52:16.027Z</time></trkpt><trkpt lat="40.6878872" lon="9.2874932"><ele>950.3333333333334</ele><time>2026-04-21T08:52:17.031Z</time></trkpt><trkpt lat="40.6879893" lon="9.2874815"><ele>950.5</ele><time>2026-04-21T08:52:19.033Z</time></trkpt><trkpt lat="40.6880872" lon="9.2874744"><ele>950.6666666666667</ele><time>2026-04-21T08:52:21.045Z</time></trkpt><trkpt lat="40.6881779" lon="9.2874767"><ele>950.8333333333334</ele><time>2026-04-21T08:52:23.047Z</time></trkpt><trkpt lat="40.6882591" lon="9.2874801"><ele>951.0</ele><time>2026-04-21T08:52:25.051Z</time></trkpt><trkpt lat="40.6883291" lon="9.2874847"><ele>951.0</ele><time>2026-04-21T08:52:28.048Z</time></trkpt><trkpt lat="40.6884098" lon="9.2874884"><ele>951.0</ele><time>2026-04-21T08:52:56.047Z</time></trkpt><trkpt lat="40.6884861" lon="9.2874803"><ele>951.0</ele><time>2026-04-21T08:52:58.043Z</time></trkpt><trkpt lat="40.6885811" lon="9.2875066"><ele>951.0</ele><time>2026-04-21T08:53:00.048Z</time></trkpt><trkpt lat="40.6886581" lon="9.2875484"><ele>951.0</ele><time>2026-04-21T08:53:02.028Z</time></trkpt><trkpt lat="40.6887419" lon="9.2876066"><ele>951.0</ele><time>2026-04-21T08:53:04.03Z</time></trkpt><trkpt lat="40.6887942" lon="9.2876554"><ele>948.0</ele><time>2026-04-21T08:53:06.052Z</time></trkpt><trkpt lat="40.6887942" lon="9.2876554"><ele>948.0</ele><time>2026-04-21T08:53:06.052Z</time></trkpt></trkseg></trk></gpx>